<?xml version="1.0" encoding="UTF-8" standalone="no" ?>
<gpx xmlns="http://www.topografix.com/GPX/1/1" xmlns:xsi="http://www.w3.org/2001/XMLSchema-instance" xsi:schemaLocation="http://www.topografix.com/GPX/1/1 http://www.topografix.com/GPX/1/1/gpx.xsd" version="1.1" creator="VisuGPX - https://www.visugpx.com">
  <metadata>
    <name>Sortie Gravel au soleil et au frais ce matin du côté de Saint-Yvi Concarneau</name>
    <desc><![CDATA[Une sortie sympa vers Saint-Yvi sur des secteurs que je ne connaissais pas encore. Il fait très beau et frais, parfait pour le vélo !
André]]></desc>
  </metadata>
  <trk>
    <name><![CDATA[Sortie Gravel au soleil et au frais ce matin du côté de Saint-Yvi Concarneau _1]]></name>
    <extensions>
      <line xmlns="http://www.topografix.com/GPX/gpx_style/0/2">
        <color>0000FF</color>
        <width>4</width>
      </line>
    </extensions>
    <trkseg>
      <trkpt lat="47.89101" lon="-3.88205">
        <ele>75.2</ele>
        <time>2022-12-07T09:51:24Z</time>
      </trkpt>
      <trkpt lat="47.89101" lon="-3.88206">
        <ele>75.2</ele>
        <time>2022-12-07T09:51:25Z</time>
      </trkpt>
      <trkpt lat="47.891" lon="-3.88208">
        <ele>75.2</ele>
        <time>2022-12-07T09:51:26Z</time>
      </trkpt>
      <trkpt lat="47.891" lon="-3.88209">
        <ele>75.2</ele>
        <time>2022-12-07T09:51:27Z</time>
      </trkpt>
      <trkpt lat="47.891" lon="-3.8821">
        <ele>75.2</ele>
        <time>2022-12-07T09:51:28Z</time>
      </trkpt>
      <trkpt lat="47.891" lon="-3.88211">
        <ele>75.2</ele>
        <time>2022-12-07T09:51:29Z</time>
      </trkpt>
      <trkpt lat="47.89098" lon="-3.88216">
        <ele>75.2</ele>
        <time>2022-12-07T09:51:30Z</time>
      </trkpt>
      <trkpt lat="47.89097" lon="-3.88217">
        <ele>75.1</ele>
        <time>2022-12-07T09:51:31Z</time>
      </trkpt>
      <trkpt lat="47.89096" lon="-3.88221">
        <ele>75.1</ele>
        <time>2022-12-07T09:51:32Z</time>
      </trkpt>
      <trkpt lat="47.89096" lon="-3.88225">
        <ele>75.1</ele>
        <time>2022-12-07T09:51:33Z</time>
      </trkpt>
      <trkpt lat="47.89095" lon="-3.88231">
        <ele>75.1</ele>
        <time>2022-12-07T09:51:34Z</time>
      </trkpt>
      <trkpt lat="47.89095" lon="-3.88236">
        <ele>75.1</ele>
        <time>2022-12-07T09:51:35Z</time>
      </trkpt>
      <trkpt lat="47.89094" lon="-3.88243">
        <ele>75</ele>
        <time>2022-12-07T09:51:36Z</time>
      </trkpt>
      <trkpt lat="47.89094" lon="-3.88247">
        <ele>75</ele>
        <time>2022-12-07T09:51:37Z</time>
      </trkpt>
      <trkpt lat="47.89093" lon="-3.88253">
        <ele>74.9</ele>
        <time>2022-12-07T09:51:38Z</time>
      </trkpt>
      <trkpt lat="47.89092" lon="-3.88259">
        <ele>74.9</ele>
        <time>2022-12-07T09:51:39Z</time>
      </trkpt>
      <trkpt lat="47.8909" lon="-3.88266">
        <ele>74.8</ele>
        <time>2022-12-07T09:51:40Z</time>
      </trkpt>
      <trkpt lat="47.89089" lon="-3.88271">
        <ele>74.8</ele>
        <time>2022-12-07T09:51:41Z</time>
      </trkpt>
      <trkpt lat="47.89087" lon="-3.88278">
        <ele>74.7</ele>
        <time>2022-12-07T09:51:42Z</time>
      </trkpt>
      <trkpt lat="47.89086" lon="-3.88286">
        <ele>74.6</ele>
        <time>2022-12-07T09:51:43Z</time>
      </trkpt>
      <trkpt lat="47.89085" lon="-3.88293">
        <ele>74.5</ele>
        <time>2022-12-07T09:51:44Z</time>
      </trkpt>
      <trkpt lat="47.89083" lon="-3.883">
        <ele>74.3</ele>
        <time>2022-12-07T09:51:45Z</time>
      </trkpt>
      <trkpt lat="47.89081" lon="-3.88306">
        <ele>74.2</ele>
        <time>2022-12-07T09:51:46Z</time>
      </trkpt>
      <trkpt lat="47.89079" lon="-3.88314">
        <ele>74</ele>
        <time>2022-12-07T09:51:47Z</time>
      </trkpt>
      <trkpt lat="47.89078" lon="-3.88321">
        <ele>73.8</ele>
        <time>2022-12-07T09:51:48Z</time>
      </trkpt>
      <trkpt lat="47.89076" lon="-3.88328">
        <ele>73.5</ele>
        <time>2022-12-07T09:51:49Z</time>
      </trkpt>
      <trkpt lat="47.89073" lon="-3.88335">
        <ele>73.3</ele>
        <time>2022-12-07T09:51:50Z</time>
      </trkpt>
      <trkpt lat="47.8907" lon="-3.88342">
        <ele>73</ele>
        <time>2022-12-07T09:51:51Z</time>
      </trkpt>
      <trkpt lat="47.89067" lon="-3.8835">
        <ele>72.7</ele>
        <time>2022-12-07T09:51:52Z</time>
      </trkpt>
      <trkpt lat="47.89063" lon="-3.88358">
        <ele>72.4</ele>
        <time>2022-12-07T09:51:53Z</time>
      </trkpt>
      <trkpt lat="47.89059" lon="-3.88366">
        <ele>71.9</ele>
        <time>2022-12-07T09:51:54Z</time>
      </trkpt>
      <trkpt lat="47.89056" lon="-3.88376">
        <ele>71.4</ele>
        <time>2022-12-07T09:51:55Z</time>
      </trkpt>
      <trkpt lat="47.89052" lon="-3.88385">
        <ele>70.9</ele>
        <time>2022-12-07T09:51:56Z</time>
      </trkpt>
      <trkpt lat="47.89048" lon="-3.88395">
        <ele>70.5</ele>
        <time>2022-12-07T09:51:57Z</time>
      </trkpt>
      <trkpt lat="47.89044" lon="-3.88406">
        <ele>70.1</ele>
        <time>2022-12-07T09:51:58Z</time>
      </trkpt>
      <trkpt lat="47.8904" lon="-3.88416">
        <ele>69.8</ele>
        <time>2022-12-07T09:51:59Z</time>
      </trkpt>
      <trkpt lat="47.89035" lon="-3.88425">
        <ele>69.7</ele>
        <time>2022-12-07T09:52:00Z</time>
      </trkpt>
      <trkpt lat="47.89032" lon="-3.88435">
        <ele>69.5</ele>
        <time>2022-12-07T09:52:01Z</time>
      </trkpt>
      <trkpt lat="47.8903" lon="-3.88444">
        <ele>69.4</ele>
        <time>2022-12-07T09:52:02Z</time>
      </trkpt>
      <trkpt lat="47.8903" lon="-3.88453">
        <ele>69.4</ele>
        <time>2022-12-07T09:52:03Z</time>
      </trkpt>
      <trkpt lat="47.89034" lon="-3.88461">
        <ele>69.5</ele>
        <time>2022-12-07T09:52:04Z</time>
      </trkpt>
      <trkpt lat="47.89039" lon="-3.88467">
        <ele>69.5</ele>
        <time>2022-12-07T09:52:05Z</time>
      </trkpt>
      <trkpt lat="47.89046" lon="-3.88471">
        <ele>69.6</ele>
        <time>2022-12-07T09:52:06Z</time>
      </trkpt>
      <trkpt lat="47.89051" lon="-3.88474">
        <ele>69.6</ele>
        <time>2022-12-07T09:52:07Z</time>
      </trkpt>
      <trkpt lat="47.89057" lon="-3.88479">
        <ele>69.6</ele>
        <time>2022-12-07T09:52:08Z</time>
      </trkpt>
      <trkpt lat="47.89062" lon="-3.88483">
        <ele>69.7</ele>
        <time>2022-12-07T09:52:09Z</time>
      </trkpt>
      <trkpt lat="47.89067" lon="-3.88487">
        <ele>69.8</ele>
        <time>2022-12-07T09:52:10Z</time>
      </trkpt>
      <trkpt lat="47.89071" lon="-3.88492">
        <ele>69.8</ele>
        <time>2022-12-07T09:52:11Z</time>
      </trkpt>
      <trkpt lat="47.89076" lon="-3.88497">
        <ele>69.9</ele>
        <time>2022-12-07T09:52:12Z</time>
      </trkpt>
      <trkpt lat="47.8908" lon="-3.88502">
        <ele>69.9</ele>
        <time>2022-12-07T09:52:13Z</time>
      </trkpt>
      <trkpt lat="47.89084" lon="-3.88508">
        <ele>70</ele>
        <time>2022-12-07T09:52:14Z</time>
      </trkpt>
      <trkpt lat="47.89087" lon="-3.88515">
        <ele>70</ele>
        <time>2022-12-07T09:52:15Z</time>
      </trkpt>
      <trkpt lat="47.89091" lon="-3.88521">
        <ele>70</ele>
        <time>2022-12-07T09:52:16Z</time>
      </trkpt>
      <trkpt lat="47.89094" lon="-3.88528">
        <ele>70</ele>
        <time>2022-12-07T09:52:17Z</time>
      </trkpt>
      <trkpt lat="47.89097" lon="-3.88534">
        <ele>70</ele>
        <time>2022-12-07T09:52:18Z</time>
      </trkpt>
      <trkpt lat="47.89101" lon="-3.8854">
        <ele>70</ele>
        <time>2022-12-07T09:52:19Z</time>
      </trkpt>
      <trkpt lat="47.89105" lon="-3.88547">
        <ele>70.1</ele>
        <time>2022-12-07T09:52:20Z</time>
      </trkpt>
      <trkpt lat="47.89108" lon="-3.88553">
        <ele>70.2</ele>
        <time>2022-12-07T09:52:21Z</time>
      </trkpt>
      <trkpt lat="47.89111" lon="-3.88559">
        <ele>70.2</ele>
        <time>2022-12-07T09:52:22Z</time>
      </trkpt>
      <trkpt lat="47.89115" lon="-3.88566">
        <ele>70.2</ele>
        <time>2022-12-07T09:52:23Z</time>
      </trkpt>
      <trkpt lat="47.89118" lon="-3.88573">
        <ele>70.2</ele>
        <time>2022-12-07T09:52:24Z</time>
      </trkpt>
      <trkpt lat="47.89122" lon="-3.88579">
        <ele>70.2</ele>
        <time>2022-12-07T09:52:25Z</time>
      </trkpt>
      <trkpt lat="47.89125" lon="-3.88586">
        <ele>70.3</ele>
        <time>2022-12-07T09:52:26Z</time>
      </trkpt>
      <trkpt lat="47.89129" lon="-3.88592">
        <ele>70.4</ele>
        <time>2022-12-07T09:52:27Z</time>
      </trkpt>
      <trkpt lat="47.89132" lon="-3.88599">
        <ele>70.5</ele>
        <time>2022-12-07T09:52:28Z</time>
      </trkpt>
      <trkpt lat="47.89135" lon="-3.88604">
        <ele>70.7</ele>
        <time>2022-12-07T09:52:29Z</time>
      </trkpt>
      <trkpt lat="47.89139" lon="-3.8861">
        <ele>70.8</ele>
        <time>2022-12-07T09:52:30Z</time>
      </trkpt>
      <trkpt lat="47.89142" lon="-3.88617">
        <ele>71</ele>
        <time>2022-12-07T09:52:31Z</time>
      </trkpt>
      <trkpt lat="47.89146" lon="-3.88623">
        <ele>71.1</ele>
        <time>2022-12-07T09:52:32Z</time>
      </trkpt>
      <trkpt lat="47.89149" lon="-3.88629">
        <ele>71.2</ele>
        <time>2022-12-07T09:52:33Z</time>
      </trkpt>
      <trkpt lat="47.89152" lon="-3.88635">
        <ele>71.3</ele>
        <time>2022-12-07T09:52:34Z</time>
      </trkpt>
      <trkpt lat="47.89155" lon="-3.8864">
        <ele>71.5</ele>
        <time>2022-12-07T09:52:35Z</time>
      </trkpt>
      <trkpt lat="47.89159" lon="-3.88646">
        <ele>71.6</ele>
        <time>2022-12-07T09:52:36Z</time>
      </trkpt>
      <trkpt lat="47.89161" lon="-3.88652">
        <ele>71.7</ele>
        <time>2022-12-07T09:52:37Z</time>
      </trkpt>
      <trkpt lat="47.89164" lon="-3.88658">
        <ele>71.8</ele>
        <time>2022-12-07T09:52:38Z</time>
      </trkpt>
      <trkpt lat="47.89168" lon="-3.88664">
        <ele>72</ele>
        <time>2022-12-07T09:52:39Z</time>
      </trkpt>
      <trkpt lat="47.8917" lon="-3.88669">
        <ele>72.1</ele>
        <time>2022-12-07T09:52:40Z</time>
      </trkpt>
      <trkpt lat="47.89174" lon="-3.88674">
        <ele>72.2</ele>
        <time>2022-12-07T09:52:41Z</time>
      </trkpt>
      <trkpt lat="47.89177" lon="-3.88679">
        <ele>72.3</ele>
        <time>2022-12-07T09:52:42Z</time>
      </trkpt>
      <trkpt lat="47.8918" lon="-3.88684">
        <ele>72.4</ele>
        <time>2022-12-07T09:52:43Z</time>
      </trkpt>
      <trkpt lat="47.89183" lon="-3.88689">
        <ele>72.4</ele>
        <time>2022-12-07T09:52:44Z</time>
      </trkpt>
      <trkpt lat="47.89186" lon="-3.88694">
        <ele>72.5</ele>
        <time>2022-12-07T09:52:45Z</time>
      </trkpt>
      <trkpt lat="47.89189" lon="-3.88699">
        <ele>72.6</ele>
        <time>2022-12-07T09:52:46Z</time>
      </trkpt>
      <trkpt lat="47.89191" lon="-3.88702">
        <ele>72.6</ele>
        <time>2022-12-07T09:52:47Z</time>
      </trkpt>
      <trkpt lat="47.89194" lon="-3.88706">
        <ele>72.7</ele>
        <time>2022-12-07T09:52:48Z</time>
      </trkpt>
      <trkpt lat="47.89198" lon="-3.88711">
        <ele>72.9</ele>
        <time>2022-12-07T09:52:49Z</time>
      </trkpt>
      <trkpt lat="47.89202" lon="-3.88716">
        <ele>73</ele>
        <time>2022-12-07T09:52:50Z</time>
      </trkpt>
      <trkpt lat="47.89205" lon="-3.88722">
        <ele>73.1</ele>
        <time>2022-12-07T09:52:51Z</time>
      </trkpt>
      <trkpt lat="47.89209" lon="-3.88727">
        <ele>73.2</ele>
        <time>2022-12-07T09:52:52Z</time>
      </trkpt>
      <trkpt lat="47.89212" lon="-3.88733">
        <ele>73.3</ele>
        <time>2022-12-07T09:52:53Z</time>
      </trkpt>
      <trkpt lat="47.89216" lon="-3.88738">
        <ele>73.4</ele>
        <time>2022-12-07T09:52:54Z</time>
      </trkpt>
      <trkpt lat="47.8922" lon="-3.88743">
        <ele>73.5</ele>
        <time>2022-12-07T09:52:55Z</time>
      </trkpt>
      <trkpt lat="47.89223" lon="-3.88748">
        <ele>73.7</ele>
        <time>2022-12-07T09:52:56Z</time>
      </trkpt>
      <trkpt lat="47.89227" lon="-3.88754">
        <ele>73.8</ele>
        <time>2022-12-07T09:52:57Z</time>
      </trkpt>
      <trkpt lat="47.8923" lon="-3.88759">
        <ele>74</ele>
        <time>2022-12-07T09:52:58Z</time>
      </trkpt>
      <trkpt lat="47.89233" lon="-3.88765">
        <ele>74.1</ele>
        <time>2022-12-07T09:52:59Z</time>
      </trkpt>
      <trkpt lat="47.89236" lon="-3.88771">
        <ele>74.2</ele>
        <time>2022-12-07T09:53:00Z</time>
      </trkpt>
      <trkpt lat="47.89238" lon="-3.88776">
        <ele>74.4</ele>
        <time>2022-12-07T09:53:01Z</time>
      </trkpt>
      <trkpt lat="47.89242" lon="-3.88781">
        <ele>74.5</ele>
        <time>2022-12-07T09:53:02Z</time>
      </trkpt>
      <trkpt lat="47.89245" lon="-3.88787">
        <ele>74.6</ele>
        <time>2022-12-07T09:53:03Z</time>
      </trkpt>
      <trkpt lat="47.89248" lon="-3.88793">
        <ele>74.7</ele>
        <time>2022-12-07T09:53:04Z</time>
      </trkpt>
      <trkpt lat="47.89252" lon="-3.88798">
        <ele>74.8</ele>
        <time>2022-12-07T09:53:05Z</time>
      </trkpt>
      <trkpt lat="47.89255" lon="-3.88803">
        <ele>74.8</ele>
        <time>2022-12-07T09:53:06Z</time>
      </trkpt>
      <trkpt lat="47.89259" lon="-3.88809">
        <ele>74.9</ele>
        <time>2022-12-07T09:53:07Z</time>
      </trkpt>
      <trkpt lat="47.89263" lon="-3.88814">
        <ele>75</ele>
        <time>2022-12-07T09:53:08Z</time>
      </trkpt>
      <trkpt lat="47.89267" lon="-3.8882">
        <ele>75.1</ele>
        <time>2022-12-07T09:53:09Z</time>
      </trkpt>
      <trkpt lat="47.89271" lon="-3.88825">
        <ele>75.1</ele>
        <time>2022-12-07T09:53:10Z</time>
      </trkpt>
      <trkpt lat="47.89276" lon="-3.88829">
        <ele>75.2</ele>
        <time>2022-12-07T09:53:11Z</time>
      </trkpt>
      <trkpt lat="47.8928" lon="-3.88833">
        <ele>75.3</ele>
        <time>2022-12-07T09:53:12Z</time>
      </trkpt>
      <trkpt lat="47.89285" lon="-3.88836">
        <ele>75.3</ele>
        <time>2022-12-07T09:53:13Z</time>
      </trkpt>
      <trkpt lat="47.8929" lon="-3.8884">
        <ele>75.4</ele>
        <time>2022-12-07T09:53:14Z</time>
      </trkpt>
      <trkpt lat="47.89294" lon="-3.88843">
        <ele>75.4</ele>
        <time>2022-12-07T09:53:15Z</time>
      </trkpt>
      <trkpt lat="47.89299" lon="-3.88847">
        <ele>75.5</ele>
        <time>2022-12-07T09:53:16Z</time>
      </trkpt>
      <trkpt lat="47.89304" lon="-3.8885">
        <ele>75.5</ele>
        <time>2022-12-07T09:53:17Z</time>
      </trkpt>
      <trkpt lat="47.89308" lon="-3.88854">
        <ele>75.6</ele>
        <time>2022-12-07T09:53:18Z</time>
      </trkpt>
      <trkpt lat="47.89312" lon="-3.88858">
        <ele>75.6</ele>
        <time>2022-12-07T09:53:19Z</time>
      </trkpt>
      <trkpt lat="47.89316" lon="-3.88862">
        <ele>75.6</ele>
        <time>2022-12-07T09:53:20Z</time>
      </trkpt>
      <trkpt lat="47.8932" lon="-3.88866">
        <ele>75.6</ele>
        <time>2022-12-07T09:53:21Z</time>
      </trkpt>
      <trkpt lat="47.89325" lon="-3.88871">
        <ele>75.6</ele>
        <time>2022-12-07T09:53:22Z</time>
      </trkpt>
      <trkpt lat="47.89329" lon="-3.88875">
        <ele>75.6</ele>
        <time>2022-12-07T09:53:23Z</time>
      </trkpt>
      <trkpt lat="47.89334" lon="-3.88879">
        <ele>75.6</ele>
        <time>2022-12-07T09:53:24Z</time>
      </trkpt>
      <trkpt lat="47.89338" lon="-3.88883">
        <ele>75.5</ele>
        <time>2022-12-07T09:53:25Z</time>
      </trkpt>
      <trkpt lat="47.89342" lon="-3.88888">
        <ele>75.5</ele>
        <time>2022-12-07T09:53:26Z</time>
      </trkpt>
      <trkpt lat="47.89347" lon="-3.88893">
        <ele>75.5</ele>
        <time>2022-12-07T09:53:27Z</time>
      </trkpt>
      <trkpt lat="47.89352" lon="-3.88897">
        <ele>75.5</ele>
        <time>2022-12-07T09:53:28Z</time>
      </trkpt>
      <trkpt lat="47.89356" lon="-3.88902">
        <ele>75.5</ele>
        <time>2022-12-07T09:53:29Z</time>
      </trkpt>
      <trkpt lat="47.8936" lon="-3.88906">
        <ele>75.5</ele>
        <time>2022-12-07T09:53:30Z</time>
      </trkpt>
      <trkpt lat="47.89365" lon="-3.88911">
        <ele>75.5</ele>
        <time>2022-12-07T09:53:31Z</time>
      </trkpt>
      <trkpt lat="47.8937" lon="-3.88916">
        <ele>75.5</ele>
        <time>2022-12-07T09:53:32Z</time>
      </trkpt>
      <trkpt lat="47.89374" lon="-3.8892">
        <ele>75.5</ele>
        <time>2022-12-07T09:53:33Z</time>
      </trkpt>
      <trkpt lat="47.89379" lon="-3.88925">
        <ele>75.5</ele>
        <time>2022-12-07T09:53:34Z</time>
      </trkpt>
      <trkpt lat="47.89383" lon="-3.8893">
        <ele>75.5</ele>
        <time>2022-12-07T09:53:35Z</time>
      </trkpt>
      <trkpt lat="47.89388" lon="-3.88935">
        <ele>75.5</ele>
        <time>2022-12-07T09:53:36Z</time>
      </trkpt>
      <trkpt lat="47.89392" lon="-3.8894">
        <ele>75.6</ele>
        <time>2022-12-07T09:53:37Z</time>
      </trkpt>
      <trkpt lat="47.89396" lon="-3.88945">
        <ele>75.6</ele>
        <time>2022-12-07T09:53:38Z</time>
      </trkpt>
      <trkpt lat="47.894" lon="-3.88949">
        <ele>75.7</ele>
        <time>2022-12-07T09:53:39Z</time>
      </trkpt>
      <trkpt lat="47.89405" lon="-3.88954">
        <ele>75.8</ele>
        <time>2022-12-07T09:53:40Z</time>
      </trkpt>
      <trkpt lat="47.89409" lon="-3.88958">
        <ele>75.9</ele>
        <time>2022-12-07T09:53:41Z</time>
      </trkpt>
      <trkpt lat="47.89413" lon="-3.88963">
        <ele>76</ele>
        <time>2022-12-07T09:53:42Z</time>
      </trkpt>
      <trkpt lat="47.89417" lon="-3.88967">
        <ele>76.1</ele>
        <time>2022-12-07T09:53:43Z</time>
      </trkpt>
      <trkpt lat="47.89422" lon="-3.88971">
        <ele>76.2</ele>
        <time>2022-12-07T09:53:44Z</time>
      </trkpt>
      <trkpt lat="47.89426" lon="-3.88976">
        <ele>76.3</ele>
        <time>2022-12-07T09:53:45Z</time>
      </trkpt>
      <trkpt lat="47.8943" lon="-3.8898">
        <ele>76.4</ele>
        <time>2022-12-07T09:53:46Z</time>
      </trkpt>
      <trkpt lat="47.89434" lon="-3.88983">
        <ele>76.5</ele>
        <time>2022-12-07T09:53:47Z</time>
      </trkpt>
      <trkpt lat="47.89436" lon="-3.88986">
        <ele>76.5</ele>
        <time>2022-12-07T09:53:48Z</time>
      </trkpt>
      <trkpt lat="47.89439" lon="-3.88989">
        <ele>76.6</ele>
        <time>2022-12-07T09:53:49Z</time>
      </trkpt>
      <trkpt lat="47.8944" lon="-3.88989">
        <ele>76.7</ele>
        <time>2022-12-07T09:53:50Z</time>
      </trkpt>
      <trkpt lat="47.89443" lon="-3.88992">
        <ele>76.7</ele>
        <time>2022-12-07T09:53:51Z</time>
      </trkpt>
      <trkpt lat="47.89446" lon="-3.88995">
        <ele>76.7</ele>
        <time>2022-12-07T09:53:52Z</time>
      </trkpt>
      <trkpt lat="47.8945" lon="-3.88998">
        <ele>76.7</ele>
        <time>2022-12-07T09:53:53Z</time>
      </trkpt>
      <trkpt lat="47.89455" lon="-3.89002">
        <ele>76.7</ele>
        <time>2022-12-07T09:53:54Z</time>
      </trkpt>
      <trkpt lat="47.89461" lon="-3.89006">
        <ele>76.7</ele>
        <time>2022-12-07T09:53:55Z</time>
      </trkpt>
      <trkpt lat="47.89466" lon="-3.8901">
        <ele>76.7</ele>
        <time>2022-12-07T09:53:56Z</time>
      </trkpt>
      <trkpt lat="47.89471" lon="-3.89014">
        <ele>76.7</ele>
        <time>2022-12-07T09:53:57Z</time>
      </trkpt>
      <trkpt lat="47.89476" lon="-3.89019">
        <ele>76.7</ele>
        <time>2022-12-07T09:53:58Z</time>
      </trkpt>
      <trkpt lat="47.8948" lon="-3.89025">
        <ele>76.7</ele>
        <time>2022-12-07T09:53:59Z</time>
      </trkpt>
      <trkpt lat="47.89484" lon="-3.89031">
        <ele>76.8</ele>
        <time>2022-12-07T09:54:00Z</time>
      </trkpt>
      <trkpt lat="47.89488" lon="-3.89036">
        <ele>76.8</ele>
        <time>2022-12-07T09:54:01Z</time>
      </trkpt>
      <trkpt lat="47.89492" lon="-3.89042">
        <ele>76.8</ele>
        <time>2022-12-07T09:54:02Z</time>
      </trkpt>
      <trkpt lat="47.89495" lon="-3.89048">
        <ele>76.9</ele>
        <time>2022-12-07T09:54:03Z</time>
      </trkpt>
      <trkpt lat="47.89499" lon="-3.89054">
        <ele>76.9</ele>
        <time>2022-12-07T09:54:04Z</time>
      </trkpt>
      <trkpt lat="47.89502" lon="-3.8906">
        <ele>76.9</ele>
        <time>2022-12-07T09:54:05Z</time>
      </trkpt>
      <trkpt lat="47.89506" lon="-3.89067">
        <ele>77</ele>
        <time>2022-12-07T09:54:06Z</time>
      </trkpt>
      <trkpt lat="47.89509" lon="-3.89073">
        <ele>77</ele>
        <time>2022-12-07T09:54:07Z</time>
      </trkpt>
      <trkpt lat="47.89513" lon="-3.8908">
        <ele>77.1</ele>
        <time>2022-12-07T09:54:08Z</time>
      </trkpt>
      <trkpt lat="47.89516" lon="-3.89086">
        <ele>77.1</ele>
        <time>2022-12-07T09:54:09Z</time>
      </trkpt>
      <trkpt lat="47.89519" lon="-3.89092">
        <ele>77.1</ele>
        <time>2022-12-07T09:54:10Z</time>
      </trkpt>
      <trkpt lat="47.89523" lon="-3.89098">
        <ele>77.1</ele>
        <time>2022-12-07T09:54:11Z</time>
      </trkpt>
      <trkpt lat="47.89527" lon="-3.89105">
        <ele>77.1</ele>
        <time>2022-12-07T09:54:12Z</time>
      </trkpt>
      <trkpt lat="47.89531" lon="-3.8911">
        <ele>77.1</ele>
        <time>2022-12-07T09:54:13Z</time>
      </trkpt>
      <trkpt lat="47.89535" lon="-3.89116">
        <ele>77.1</ele>
        <time>2022-12-07T09:54:14Z</time>
      </trkpt>
      <trkpt lat="47.89539" lon="-3.89122">
        <ele>77.1</ele>
        <time>2022-12-07T09:54:15Z</time>
      </trkpt>
      <trkpt lat="47.89544" lon="-3.89127">
        <ele>77.1</ele>
        <time>2022-12-07T09:54:16Z</time>
      </trkpt>
      <trkpt lat="47.89549" lon="-3.89132">
        <ele>77.1</ele>
        <time>2022-12-07T09:54:17Z</time>
      </trkpt>
      <trkpt lat="47.89553" lon="-3.89138">
        <ele>77</ele>
        <time>2022-12-07T09:54:18Z</time>
      </trkpt>
      <trkpt lat="47.89558" lon="-3.89142">
        <ele>77</ele>
        <time>2022-12-07T09:54:19Z</time>
      </trkpt>
      <trkpt lat="47.89562" lon="-3.89147">
        <ele>77</ele>
        <time>2022-12-07T09:54:20Z</time>
      </trkpt>
      <trkpt lat="47.89567" lon="-3.89152">
        <ele>77</ele>
        <time>2022-12-07T09:54:21Z</time>
      </trkpt>
      <trkpt lat="47.89571" lon="-3.89156">
        <ele>76.9</ele>
        <time>2022-12-07T09:54:22Z</time>
      </trkpt>
      <trkpt lat="47.89576" lon="-3.89162">
        <ele>76.9</ele>
        <time>2022-12-07T09:54:23Z</time>
      </trkpt>
      <trkpt lat="47.89581" lon="-3.89166">
        <ele>76.9</ele>
        <time>2022-12-07T09:54:24Z</time>
      </trkpt>
      <trkpt lat="47.89585" lon="-3.89171">
        <ele>76.9</ele>
        <time>2022-12-07T09:54:25Z</time>
      </trkpt>
      <trkpt lat="47.89591" lon="-3.89176">
        <ele>76.9</ele>
        <time>2022-12-07T09:54:26Z</time>
      </trkpt>
      <trkpt lat="47.89596" lon="-3.8918">
        <ele>76.9</ele>
        <time>2022-12-07T09:54:27Z</time>
      </trkpt>
      <trkpt lat="47.89601" lon="-3.89184">
        <ele>76.9</ele>
        <time>2022-12-07T09:54:28Z</time>
      </trkpt>
      <trkpt lat="47.89606" lon="-3.89189">
        <ele>76.8</ele>
        <time>2022-12-07T09:54:29Z</time>
      </trkpt>
      <trkpt lat="47.89611" lon="-3.89193">
        <ele>76.7</ele>
        <time>2022-12-07T09:54:30Z</time>
      </trkpt>
      <trkpt lat="47.89616" lon="-3.89198">
        <ele>76.7</ele>
        <time>2022-12-07T09:54:31Z</time>
      </trkpt>
      <trkpt lat="47.89622" lon="-3.89202">
        <ele>76.6</ele>
        <time>2022-12-07T09:54:32Z</time>
      </trkpt>
      <trkpt lat="47.89626" lon="-3.89207">
        <ele>76.5</ele>
        <time>2022-12-07T09:54:33Z</time>
      </trkpt>
      <trkpt lat="47.89631" lon="-3.89211">
        <ele>76.4</ele>
        <time>2022-12-07T09:54:34Z</time>
      </trkpt>
      <trkpt lat="47.89637" lon="-3.89216">
        <ele>76.4</ele>
        <time>2022-12-07T09:54:35Z</time>
      </trkpt>
      <trkpt lat="47.89642" lon="-3.8922">
        <ele>76.3</ele>
        <time>2022-12-07T09:54:36Z</time>
      </trkpt>
      <trkpt lat="47.89647" lon="-3.89224">
        <ele>76.3</ele>
        <time>2022-12-07T09:54:37Z</time>
      </trkpt>
      <trkpt lat="47.89653" lon="-3.89229">
        <ele>76.2</ele>
        <time>2022-12-07T09:54:38Z</time>
      </trkpt>
      <trkpt lat="47.89658" lon="-3.89233">
        <ele>76.2</ele>
        <time>2022-12-07T09:54:39Z</time>
      </trkpt>
      <trkpt lat="47.89663" lon="-3.89238">
        <ele>76.1</ele>
        <time>2022-12-07T09:54:40Z</time>
      </trkpt>
      <trkpt lat="47.89668" lon="-3.89242">
        <ele>76</ele>
        <time>2022-12-07T09:54:41Z</time>
      </trkpt>
      <trkpt lat="47.89673" lon="-3.89246">
        <ele>76</ele>
        <time>2022-12-07T09:54:42Z</time>
      </trkpt>
      <trkpt lat="47.89679" lon="-3.89251">
        <ele>76</ele>
        <time>2022-12-07T09:54:43Z</time>
      </trkpt>
      <trkpt lat="47.89684" lon="-3.89255">
        <ele>75.9</ele>
        <time>2022-12-07T09:54:44Z</time>
      </trkpt>
      <trkpt lat="47.89689" lon="-3.89259">
        <ele>75.9</ele>
        <time>2022-12-07T09:54:45Z</time>
      </trkpt>
      <trkpt lat="47.89694" lon="-3.89264">
        <ele>75.8</ele>
        <time>2022-12-07T09:54:46Z</time>
      </trkpt>
      <trkpt lat="47.89699" lon="-3.89268">
        <ele>75.8</ele>
        <time>2022-12-07T09:54:47Z</time>
      </trkpt>
      <trkpt lat="47.89705" lon="-3.89272">
        <ele>75.8</ele>
        <time>2022-12-07T09:54:48Z</time>
      </trkpt>
      <trkpt lat="47.8971" lon="-3.89277">
        <ele>75.8</ele>
        <time>2022-12-07T09:54:49Z</time>
      </trkpt>
      <trkpt lat="47.89716" lon="-3.89281">
        <ele>75.8</ele>
        <time>2022-12-07T09:54:50Z</time>
      </trkpt>
      <trkpt lat="47.89721" lon="-3.89285">
        <ele>75.8</ele>
        <time>2022-12-07T09:54:51Z</time>
      </trkpt>
      <trkpt lat="47.89725" lon="-3.89289">
        <ele>75.8</ele>
        <time>2022-12-07T09:54:52Z</time>
      </trkpt>
      <trkpt lat="47.89731" lon="-3.89294">
        <ele>75.8</ele>
        <time>2022-12-07T09:54:53Z</time>
      </trkpt>
      <trkpt lat="47.89736" lon="-3.89298">
        <ele>75.8</ele>
        <time>2022-12-07T09:54:54Z</time>
      </trkpt>
      <trkpt lat="47.89741" lon="-3.89302">
        <ele>75.8</ele>
        <time>2022-12-07T09:54:55Z</time>
      </trkpt>
      <trkpt lat="47.89746" lon="-3.89306">
        <ele>75.8</ele>
        <time>2022-12-07T09:54:56Z</time>
      </trkpt>
      <trkpt lat="47.89751" lon="-3.8931">
        <ele>75.8</ele>
        <time>2022-12-07T09:54:57Z</time>
      </trkpt>
      <trkpt lat="47.89757" lon="-3.89314">
        <ele>75.8</ele>
        <time>2022-12-07T09:54:58Z</time>
      </trkpt>
      <trkpt lat="47.89762" lon="-3.89319">
        <ele>75.8</ele>
        <time>2022-12-07T09:54:59Z</time>
      </trkpt>
      <trkpt lat="47.89767" lon="-3.89322">
        <ele>75.8</ele>
        <time>2022-12-07T09:55:00Z</time>
      </trkpt>
      <trkpt lat="47.89772" lon="-3.89326">
        <ele>75.8</ele>
        <time>2022-12-07T09:55:01Z</time>
      </trkpt>
      <trkpt lat="47.89777" lon="-3.8933">
        <ele>75.8</ele>
        <time>2022-12-07T09:55:02Z</time>
      </trkpt>
      <trkpt lat="47.89782" lon="-3.89334">
        <ele>75.8</ele>
        <time>2022-12-07T09:55:03Z</time>
      </trkpt>
      <trkpt lat="47.89787" lon="-3.89337">
        <ele>75.8</ele>
        <time>2022-12-07T09:55:04Z</time>
      </trkpt>
      <trkpt lat="47.89792" lon="-3.8934">
        <ele>75.8</ele>
        <time>2022-12-07T09:55:05Z</time>
      </trkpt>
      <trkpt lat="47.89797" lon="-3.89343">
        <ele>75.8</ele>
        <time>2022-12-07T09:55:06Z</time>
      </trkpt>
      <trkpt lat="47.89802" lon="-3.89346">
        <ele>75.8</ele>
        <time>2022-12-07T09:55:07Z</time>
      </trkpt>
      <trkpt lat="47.89807" lon="-3.8935">
        <ele>75.7</ele>
        <time>2022-12-07T09:55:08Z</time>
      </trkpt>
      <trkpt lat="47.89812" lon="-3.89354">
        <ele>75.6</ele>
        <time>2022-12-07T09:55:09Z</time>
      </trkpt>
      <trkpt lat="47.89818" lon="-3.89357">
        <ele>75.5</ele>
        <time>2022-12-07T09:55:10Z</time>
      </trkpt>
      <trkpt lat="47.89824" lon="-3.89361">
        <ele>75.4</ele>
        <time>2022-12-07T09:55:11Z</time>
      </trkpt>
      <trkpt lat="47.89829" lon="-3.89365">
        <ele>75.3</ele>
        <time>2022-12-07T09:55:12Z</time>
      </trkpt>
      <trkpt lat="47.89834" lon="-3.8937">
        <ele>75.3</ele>
        <time>2022-12-07T09:55:13Z</time>
      </trkpt>
      <trkpt lat="47.89839" lon="-3.89375">
        <ele>75.2</ele>
        <time>2022-12-07T09:55:14Z</time>
      </trkpt>
      <trkpt lat="47.89844" lon="-3.89381">
        <ele>75.1</ele>
        <time>2022-12-07T09:55:15Z</time>
      </trkpt>
      <trkpt lat="47.89849" lon="-3.89387">
        <ele>75.1</ele>
        <time>2022-12-07T09:55:16Z</time>
      </trkpt>
      <trkpt lat="47.89853" lon="-3.89394">
        <ele>75</ele>
        <time>2022-12-07T09:55:17Z</time>
      </trkpt>
      <trkpt lat="47.89856" lon="-3.89401">
        <ele>75</ele>
        <time>2022-12-07T09:55:18Z</time>
      </trkpt>
      <trkpt lat="47.89859" lon="-3.89409">
        <ele>74.9</ele>
        <time>2022-12-07T09:55:19Z</time>
      </trkpt>
      <trkpt lat="47.89862" lon="-3.89417">
        <ele>74.8</ele>
        <time>2022-12-07T09:55:20Z</time>
      </trkpt>
      <trkpt lat="47.89864" lon="-3.89426">
        <ele>74.7</ele>
        <time>2022-12-07T09:55:21Z</time>
      </trkpt>
      <trkpt lat="47.89866" lon="-3.89435">
        <ele>74.6</ele>
        <time>2022-12-07T09:55:22Z</time>
      </trkpt>
      <trkpt lat="47.89868" lon="-3.89444">
        <ele>74.5</ele>
        <time>2022-12-07T09:55:23Z</time>
      </trkpt>
      <trkpt lat="47.89869" lon="-3.89453">
        <ele>74.3</ele>
        <time>2022-12-07T09:55:24Z</time>
      </trkpt>
      <trkpt lat="47.8987" lon="-3.89463">
        <ele>74.1</ele>
        <time>2022-12-07T09:55:25Z</time>
      </trkpt>
      <trkpt lat="47.89871" lon="-3.89472">
        <ele>73.9</ele>
        <time>2022-12-07T09:55:26Z</time>
      </trkpt>
      <trkpt lat="47.89871" lon="-3.89481">
        <ele>73.7</ele>
        <time>2022-12-07T09:55:27Z</time>
      </trkpt>
      <trkpt lat="47.89871" lon="-3.89491">
        <ele>73.5</ele>
        <time>2022-12-07T09:55:28Z</time>
      </trkpt>
      <trkpt lat="47.89872" lon="-3.89501">
        <ele>73.2</ele>
        <time>2022-12-07T09:55:29Z</time>
      </trkpt>
      <trkpt lat="47.89873" lon="-3.8951">
        <ele>73</ele>
        <time>2022-12-07T09:55:30Z</time>
      </trkpt>
      <trkpt lat="47.89873" lon="-3.89521">
        <ele>72.8</ele>
        <time>2022-12-07T09:55:31Z</time>
      </trkpt>
      <trkpt lat="47.89873" lon="-3.89531">
        <ele>72.5</ele>
        <time>2022-12-07T09:55:32Z</time>
      </trkpt>
      <trkpt lat="47.89873" lon="-3.89542">
        <ele>72.3</ele>
        <time>2022-12-07T09:55:33Z</time>
      </trkpt>
      <trkpt lat="47.89873" lon="-3.89552">
        <ele>72</ele>
        <time>2022-12-07T09:55:34Z</time>
      </trkpt>
      <trkpt lat="47.89872" lon="-3.89564">
        <ele>71.8</ele>
        <time>2022-12-07T09:55:35Z</time>
      </trkpt>
      <trkpt lat="47.89872" lon="-3.89575">
        <ele>71.6</ele>
        <time>2022-12-07T09:55:36Z</time>
      </trkpt>
      <trkpt lat="47.89873" lon="-3.89586">
        <ele>71.4</ele>
        <time>2022-12-07T09:55:37Z</time>
      </trkpt>
      <trkpt lat="47.89873" lon="-3.89597">
        <ele>71.3</ele>
        <time>2022-12-07T09:55:38Z</time>
      </trkpt>
      <trkpt lat="47.89874" lon="-3.89608">
        <ele>71.2</ele>
        <time>2022-12-07T09:55:39Z</time>
      </trkpt>
      <trkpt lat="47.89875" lon="-3.89618">
        <ele>71.2</ele>
        <time>2022-12-07T09:55:40Z</time>
      </trkpt>
      <trkpt lat="47.89876" lon="-3.89628">
        <ele>71.2</ele>
        <time>2022-12-07T09:55:41Z</time>
      </trkpt>
      <trkpt lat="47.89876" lon="-3.89639">
        <ele>71.2</ele>
        <time>2022-12-07T09:55:42Z</time>
      </trkpt>
      <trkpt lat="47.89877" lon="-3.89649">
        <ele>71.3</ele>
        <time>2022-12-07T09:55:43Z</time>
      </trkpt>
      <trkpt lat="47.89878" lon="-3.89658">
        <ele>71.5</ele>
        <time>2022-12-07T09:55:44Z</time>
      </trkpt>
      <trkpt lat="47.89879" lon="-3.89667">
        <ele>71.7</ele>
        <time>2022-12-07T09:55:45Z</time>
      </trkpt>
      <trkpt lat="47.8988" lon="-3.89675">
        <ele>71.9</ele>
        <time>2022-12-07T09:55:46Z</time>
      </trkpt>
      <trkpt lat="47.89881" lon="-3.89684">
        <ele>72.1</ele>
        <time>2022-12-07T09:55:47Z</time>
      </trkpt>
      <trkpt lat="47.89882" lon="-3.89694">
        <ele>72.3</ele>
        <time>2022-12-07T09:55:48Z</time>
      </trkpt>
      <trkpt lat="47.89884" lon="-3.89703">
        <ele>72.5</ele>
        <time>2022-12-07T09:55:49Z</time>
      </trkpt>
      <trkpt lat="47.89885" lon="-3.8971">
        <ele>72.7</ele>
        <time>2022-12-07T09:55:50Z</time>
      </trkpt>
      <trkpt lat="47.89887" lon="-3.89718">
        <ele>72.9</ele>
        <time>2022-12-07T09:55:51Z</time>
      </trkpt>
      <trkpt lat="47.89888" lon="-3.89726">
        <ele>73.1</ele>
        <time>2022-12-07T09:55:52Z</time>
      </trkpt>
      <trkpt lat="47.89889" lon="-3.89734">
        <ele>73.2</ele>
        <time>2022-12-07T09:55:53Z</time>
      </trkpt>
      <trkpt lat="47.8989" lon="-3.89741">
        <ele>73.4</ele>
        <time>2022-12-07T09:55:54Z</time>
      </trkpt>
      <trkpt lat="47.89892" lon="-3.89748">
        <ele>73.6</ele>
        <time>2022-12-07T09:55:55Z</time>
      </trkpt>
      <trkpt lat="47.89893" lon="-3.89755">
        <ele>73.7</ele>
        <time>2022-12-07T09:55:56Z</time>
      </trkpt>
      <trkpt lat="47.89895" lon="-3.89762">
        <ele>73.9</ele>
        <time>2022-12-07T09:55:57Z</time>
      </trkpt>
      <trkpt lat="47.89897" lon="-3.89769">
        <ele>74.1</ele>
        <time>2022-12-07T09:55:58Z</time>
      </trkpt>
      <trkpt lat="47.89899" lon="-3.89776">
        <ele>74.2</ele>
        <time>2022-12-07T09:55:59Z</time>
      </trkpt>
      <trkpt lat="47.899" lon="-3.89784">
        <ele>74.4</ele>
        <time>2022-12-07T09:56:00Z</time>
      </trkpt>
      <trkpt lat="47.89901" lon="-3.89791">
        <ele>74.5</ele>
        <time>2022-12-07T09:56:01Z</time>
      </trkpt>
      <trkpt lat="47.89902" lon="-3.89798">
        <ele>74.7</ele>
        <time>2022-12-07T09:56:02Z</time>
      </trkpt>
      <trkpt lat="47.89904" lon="-3.89805">
        <ele>74.8</ele>
        <time>2022-12-07T09:56:03Z</time>
      </trkpt>
      <trkpt lat="47.89906" lon="-3.89812">
        <ele>74.9</ele>
        <time>2022-12-07T09:56:04Z</time>
      </trkpt>
      <trkpt lat="47.89907" lon="-3.8982">
        <ele>75.1</ele>
        <time>2022-12-07T09:56:05Z</time>
      </trkpt>
      <trkpt lat="47.89908" lon="-3.89827">
        <ele>75.2</ele>
        <time>2022-12-07T09:56:06Z</time>
      </trkpt>
      <trkpt lat="47.89909" lon="-3.89834">
        <ele>75.3</ele>
        <time>2022-12-07T09:56:07Z</time>
      </trkpt>
      <trkpt lat="47.8991" lon="-3.89841">
        <ele>75.4</ele>
        <time>2022-12-07T09:56:08Z</time>
      </trkpt>
      <trkpt lat="47.89911" lon="-3.89848">
        <ele>75.4</ele>
        <time>2022-12-07T09:56:09Z</time>
      </trkpt>
      <trkpt lat="47.89912" lon="-3.89856">
        <ele>75.5</ele>
        <time>2022-12-07T09:56:10Z</time>
      </trkpt>
      <trkpt lat="47.89914" lon="-3.89863">
        <ele>75.6</ele>
        <time>2022-12-07T09:56:11Z</time>
      </trkpt>
      <trkpt lat="47.89915" lon="-3.8987">
        <ele>75.7</ele>
        <time>2022-12-07T09:56:12Z</time>
      </trkpt>
      <trkpt lat="47.89917" lon="-3.89877">
        <ele>75.8</ele>
        <time>2022-12-07T09:56:13Z</time>
      </trkpt>
      <trkpt lat="47.89918" lon="-3.89885">
        <ele>75.9</ele>
        <time>2022-12-07T09:56:14Z</time>
      </trkpt>
      <trkpt lat="47.8992" lon="-3.89892">
        <ele>75.9</ele>
        <time>2022-12-07T09:56:15Z</time>
      </trkpt>
      <trkpt lat="47.89922" lon="-3.89898">
        <ele>76</ele>
        <time>2022-12-07T09:56:16Z</time>
      </trkpt>
      <trkpt lat="47.89923" lon="-3.89905">
        <ele>76</ele>
        <time>2022-12-07T09:56:17Z</time>
      </trkpt>
      <trkpt lat="47.89925" lon="-3.89912">
        <ele>76</ele>
        <time>2022-12-07T09:56:18Z</time>
      </trkpt>
      <trkpt lat="47.89927" lon="-3.89919">
        <ele>76</ele>
        <time>2022-12-07T09:56:19Z</time>
      </trkpt>
      <trkpt lat="47.89929" lon="-3.89927">
        <ele>76</ele>
        <time>2022-12-07T09:56:20Z</time>
      </trkpt>
      <trkpt lat="47.89931" lon="-3.89934">
        <ele>76</ele>
        <time>2022-12-07T09:56:21Z</time>
      </trkpt>
      <trkpt lat="47.89933" lon="-3.89942">
        <ele>75.9</ele>
        <time>2022-12-07T09:56:22Z</time>
      </trkpt>
      <trkpt lat="47.89935" lon="-3.8995">
        <ele>75.8</ele>
        <time>2022-12-07T09:56:23Z</time>
      </trkpt>
      <trkpt lat="47.89937" lon="-3.89958">
        <ele>75.7</ele>
        <time>2022-12-07T09:56:24Z</time>
      </trkpt>
      <trkpt lat="47.89939" lon="-3.89965">
        <ele>75.5</ele>
        <time>2022-12-07T09:56:25Z</time>
      </trkpt>
      <trkpt lat="47.89941" lon="-3.89974">
        <ele>75.3</ele>
        <time>2022-12-07T09:56:26Z</time>
      </trkpt>
      <trkpt lat="47.89944" lon="-3.89982">
        <ele>75</ele>
        <time>2022-12-07T09:56:27Z</time>
      </trkpt>
      <trkpt lat="47.89947" lon="-3.89991">
        <ele>74.7</ele>
        <time>2022-12-07T09:56:28Z</time>
      </trkpt>
      <trkpt lat="47.89949" lon="-3.90001">
        <ele>74.5</ele>
        <time>2022-12-07T09:56:29Z</time>
      </trkpt>
      <trkpt lat="47.8995" lon="-3.9001">
        <ele>74.2</ele>
        <time>2022-12-07T09:56:30Z</time>
      </trkpt>
      <trkpt lat="47.89952" lon="-3.90019">
        <ele>73.9</ele>
        <time>2022-12-07T09:56:31Z</time>
      </trkpt>
      <trkpt lat="47.89954" lon="-3.90029">
        <ele>73.6</ele>
        <time>2022-12-07T09:56:32Z</time>
      </trkpt>
      <trkpt lat="47.89956" lon="-3.90038">
        <ele>73.3</ele>
        <time>2022-12-07T09:56:33Z</time>
      </trkpt>
      <trkpt lat="47.89958" lon="-3.90048">
        <ele>73</ele>
        <time>2022-12-07T09:56:34Z</time>
      </trkpt>
      <trkpt lat="47.8996" lon="-3.90059">
        <ele>72.5</ele>
        <time>2022-12-07T09:56:35Z</time>
      </trkpt>
      <trkpt lat="47.89961" lon="-3.9007">
        <ele>72</ele>
        <time>2022-12-07T09:56:36Z</time>
      </trkpt>
      <trkpt lat="47.89963" lon="-3.90082">
        <ele>71.4</ele>
        <time>2022-12-07T09:56:37Z</time>
      </trkpt>
      <trkpt lat="47.89963" lon="-3.90094">
        <ele>70.8</ele>
        <time>2022-12-07T09:56:38Z</time>
      </trkpt>
      <trkpt lat="47.89963" lon="-3.90107">
        <ele>70.1</ele>
        <time>2022-12-07T09:56:39Z</time>
      </trkpt>
      <trkpt lat="47.89963" lon="-3.9012">
        <ele>69.3</ele>
        <time>2022-12-07T09:56:40Z</time>
      </trkpt>
      <trkpt lat="47.89963" lon="-3.90134">
        <ele>68.6</ele>
        <time>2022-12-07T09:56:41Z</time>
      </trkpt>
      <trkpt lat="47.89963" lon="-3.90148">
        <ele>68</ele>
        <time>2022-12-07T09:56:42Z</time>
      </trkpt>
      <trkpt lat="47.89963" lon="-3.90163">
        <ele>67.6</ele>
        <time>2022-12-07T09:56:43Z</time>
      </trkpt>
      <trkpt lat="47.89963" lon="-3.90178">
        <ele>67.5</ele>
        <time>2022-12-07T09:56:44Z</time>
      </trkpt>
      <trkpt lat="47.89963" lon="-3.90193">
        <ele>67.4</ele>
        <time>2022-12-07T09:56:45Z</time>
      </trkpt>
      <trkpt lat="47.89964" lon="-3.90207">
        <ele>67.4</ele>
        <time>2022-12-07T09:56:46Z</time>
      </trkpt>
      <trkpt lat="47.89965" lon="-3.90221">
        <ele>67.4</ele>
        <time>2022-12-07T09:56:47Z</time>
      </trkpt>
      <trkpt lat="47.89967" lon="-3.90235">
        <ele>67.4</ele>
        <time>2022-12-07T09:56:48Z</time>
      </trkpt>
      <trkpt lat="47.8997" lon="-3.90247">
        <ele>67.4</ele>
        <time>2022-12-07T09:56:49Z</time>
      </trkpt>
      <trkpt lat="47.89973" lon="-3.90259">
        <ele>67.4</ele>
        <time>2022-12-07T09:56:50Z</time>
      </trkpt>
      <trkpt lat="47.89976" lon="-3.9027">
        <ele>67.5</ele>
        <time>2022-12-07T09:56:51Z</time>
      </trkpt>
      <trkpt lat="47.89978" lon="-3.90281">
        <ele>67.7</ele>
        <time>2022-12-07T09:56:52Z</time>
      </trkpt>
      <trkpt lat="47.8998" lon="-3.90291">
        <ele>68</ele>
        <time>2022-12-07T09:56:53Z</time>
      </trkpt>
      <trkpt lat="47.89983" lon="-3.903">
        <ele>68.2</ele>
        <time>2022-12-07T09:56:54Z</time>
      </trkpt>
      <trkpt lat="47.89985" lon="-3.9031">
        <ele>68.5</ele>
        <time>2022-12-07T09:56:55Z</time>
      </trkpt>
      <trkpt lat="47.89987" lon="-3.90319">
        <ele>68.7</ele>
        <time>2022-12-07T09:56:56Z</time>
      </trkpt>
      <trkpt lat="47.8999" lon="-3.90327">
        <ele>69</ele>
        <time>2022-12-07T09:56:57Z</time>
      </trkpt>
      <trkpt lat="47.89992" lon="-3.90336">
        <ele>69.2</ele>
        <time>2022-12-07T09:56:58Z</time>
      </trkpt>
      <trkpt lat="47.89994" lon="-3.90344">
        <ele>69.4</ele>
        <time>2022-12-07T09:56:59Z</time>
      </trkpt>
      <trkpt lat="47.89996" lon="-3.90351">
        <ele>69.6</ele>
        <time>2022-12-07T09:57:00Z</time>
      </trkpt>
      <trkpt lat="47.89997" lon="-3.90359">
        <ele>69.7</ele>
        <time>2022-12-07T09:57:01Z</time>
      </trkpt>
      <trkpt lat="47.89999" lon="-3.90366">
        <ele>69.8</ele>
        <time>2022-12-07T09:57:02Z</time>
      </trkpt>
      <trkpt lat="47.9" lon="-3.90373">
        <ele>69.9</ele>
        <time>2022-12-07T09:57:03Z</time>
      </trkpt>
      <trkpt lat="47.9" lon="-3.90381">
        <ele>69.9</ele>
        <time>2022-12-07T09:57:04Z</time>
      </trkpt>
      <trkpt lat="47.90001" lon="-3.90389">
        <ele>70</ele>
        <time>2022-12-07T09:57:05Z</time>
      </trkpt>
      <trkpt lat="47.90001" lon="-3.90397">
        <ele>70.1</ele>
        <time>2022-12-07T09:57:06Z</time>
      </trkpt>
      <trkpt lat="47.90001" lon="-3.90405">
        <ele>70.2</ele>
        <time>2022-12-07T09:57:07Z</time>
      </trkpt>
      <trkpt lat="47.90001" lon="-3.90413">
        <ele>70.2</ele>
        <time>2022-12-07T09:57:08Z</time>
      </trkpt>
      <trkpt lat="47.90002" lon="-3.90421">
        <ele>70.3</ele>
        <time>2022-12-07T09:57:09Z</time>
      </trkpt>
      <trkpt lat="47.90002" lon="-3.90429">
        <ele>70.4</ele>
        <time>2022-12-07T09:57:10Z</time>
      </trkpt>
      <trkpt lat="47.90002" lon="-3.90437">
        <ele>70.4</ele>
        <time>2022-12-07T09:57:11Z</time>
      </trkpt>
      <trkpt lat="47.90002" lon="-3.90445">
        <ele>70.5</ele>
        <time>2022-12-07T09:57:12Z</time>
      </trkpt>
      <trkpt lat="47.90002" lon="-3.90452">
        <ele>70.5</ele>
        <time>2022-12-07T09:57:13Z</time>
      </trkpt>
      <trkpt lat="47.90002" lon="-3.90459">
        <ele>70.6</ele>
        <time>2022-12-07T09:57:14Z</time>
      </trkpt>
      <trkpt lat="47.90001" lon="-3.90467">
        <ele>70.7</ele>
        <time>2022-12-07T09:57:15Z</time>
      </trkpt>
      <trkpt lat="47.90001" lon="-3.90474">
        <ele>70.7</ele>
        <time>2022-12-07T09:57:16Z</time>
      </trkpt>
      <trkpt lat="47.90001" lon="-3.90482">
        <ele>70.8</ele>
        <time>2022-12-07T09:57:17Z</time>
      </trkpt>
      <trkpt lat="47.90001" lon="-3.9049">
        <ele>70.8</ele>
        <time>2022-12-07T09:57:18Z</time>
      </trkpt>
      <trkpt lat="47.90001" lon="-3.90497">
        <ele>70.9</ele>
        <time>2022-12-07T09:57:19Z</time>
      </trkpt>
      <trkpt lat="47.90001" lon="-3.90505">
        <ele>71</ele>
        <time>2022-12-07T09:57:20Z</time>
      </trkpt>
      <trkpt lat="47.9" lon="-3.90514">
        <ele>71</ele>
        <time>2022-12-07T09:57:21Z</time>
      </trkpt>
      <trkpt lat="47.89998" lon="-3.90522">
        <ele>71.1</ele>
        <time>2022-12-07T09:57:22Z</time>
      </trkpt>
      <trkpt lat="47.89997" lon="-3.9053">
        <ele>71.2</ele>
        <time>2022-12-07T09:57:23Z</time>
      </trkpt>
      <trkpt lat="47.89996" lon="-3.90537">
        <ele>71.2</ele>
        <time>2022-12-07T09:57:24Z</time>
      </trkpt>
      <trkpt lat="47.89995" lon="-3.90545">
        <ele>71.3</ele>
        <time>2022-12-07T09:57:25Z</time>
      </trkpt>
      <trkpt lat="47.89994" lon="-3.90553">
        <ele>71.3</ele>
        <time>2022-12-07T09:57:26Z</time>
      </trkpt>
      <trkpt lat="47.89992" lon="-3.90561">
        <ele>71.4</ele>
        <time>2022-12-07T09:57:27Z</time>
      </trkpt>
      <trkpt lat="47.89991" lon="-3.90569">
        <ele>71.5</ele>
        <time>2022-12-07T09:57:28Z</time>
      </trkpt>
      <trkpt lat="47.8999" lon="-3.90577">
        <ele>71.6</ele>
        <time>2022-12-07T09:57:29Z</time>
      </trkpt>
      <trkpt lat="47.89989" lon="-3.90585">
        <ele>71.6</ele>
        <time>2022-12-07T09:57:30Z</time>
      </trkpt>
      <trkpt lat="47.89988" lon="-3.90592">
        <ele>71.7</ele>
        <time>2022-12-07T09:57:31Z</time>
      </trkpt>
      <trkpt lat="47.89988" lon="-3.906">
        <ele>71.9</ele>
        <time>2022-12-07T09:57:32Z</time>
      </trkpt>
      <trkpt lat="47.89987" lon="-3.90608">
        <ele>72</ele>
        <time>2022-12-07T09:57:33Z</time>
      </trkpt>
      <trkpt lat="47.89986" lon="-3.90615">
        <ele>72.1</ele>
        <time>2022-12-07T09:57:34Z</time>
      </trkpt>
      <trkpt lat="47.89985" lon="-3.90622">
        <ele>72.3</ele>
        <time>2022-12-07T09:57:35Z</time>
      </trkpt>
      <trkpt lat="47.89985" lon="-3.90629">
        <ele>72.5</ele>
        <time>2022-12-07T09:57:36Z</time>
      </trkpt>
      <trkpt lat="47.89984" lon="-3.90636">
        <ele>72.6</ele>
        <time>2022-12-07T09:57:37Z</time>
      </trkpt>
      <trkpt lat="47.89983" lon="-3.90644">
        <ele>72.8</ele>
        <time>2022-12-07T09:57:38Z</time>
      </trkpt>
      <trkpt lat="47.89983" lon="-3.9065">
        <ele>72.9</ele>
        <time>2022-12-07T09:57:39Z</time>
      </trkpt>
      <trkpt lat="47.89982" lon="-3.90657">
        <ele>73.1</ele>
        <time>2022-12-07T09:57:40Z</time>
      </trkpt>
      <trkpt lat="47.89982" lon="-3.90664">
        <ele>73.2</ele>
        <time>2022-12-07T09:57:41Z</time>
      </trkpt>
      <trkpt lat="47.89981" lon="-3.90671">
        <ele>73.3</ele>
        <time>2022-12-07T09:57:42Z</time>
      </trkpt>
      <trkpt lat="47.89981" lon="-3.90678">
        <ele>73.5</ele>
        <time>2022-12-07T09:57:43Z</time>
      </trkpt>
      <trkpt lat="47.89981" lon="-3.90685">
        <ele>73.6</ele>
        <time>2022-12-07T09:57:44Z</time>
      </trkpt>
      <trkpt lat="47.8998" lon="-3.90692">
        <ele>73.7</ele>
        <time>2022-12-07T09:57:45Z</time>
      </trkpt>
      <trkpt lat="47.89979" lon="-3.90699">
        <ele>73.8</ele>
        <time>2022-12-07T09:57:46Z</time>
      </trkpt>
      <trkpt lat="47.89979" lon="-3.90706">
        <ele>73.9</ele>
        <time>2022-12-07T09:57:47Z</time>
      </trkpt>
      <trkpt lat="47.89978" lon="-3.90713">
        <ele>74</ele>
        <time>2022-12-07T09:57:48Z</time>
      </trkpt>
      <trkpt lat="47.89977" lon="-3.9072">
        <ele>74.1</ele>
        <time>2022-12-07T09:57:49Z</time>
      </trkpt>
      <trkpt lat="47.89976" lon="-3.90727">
        <ele>74.3</ele>
        <time>2022-12-07T09:57:50Z</time>
      </trkpt>
      <trkpt lat="47.89975" lon="-3.90734">
        <ele>74.4</ele>
        <time>2022-12-07T09:57:51Z</time>
      </trkpt>
      <trkpt lat="47.89974" lon="-3.9074">
        <ele>74.5</ele>
        <time>2022-12-07T09:57:52Z</time>
      </trkpt>
      <trkpt lat="47.89973" lon="-3.90747">
        <ele>74.6</ele>
        <time>2022-12-07T09:57:53Z</time>
      </trkpt>
      <trkpt lat="47.89972" lon="-3.90754">
        <ele>74.7</ele>
        <time>2022-12-07T09:57:54Z</time>
      </trkpt>
      <trkpt lat="47.89971" lon="-3.9076">
        <ele>74.8</ele>
        <time>2022-12-07T09:57:55Z</time>
      </trkpt>
      <trkpt lat="47.89969" lon="-3.90767">
        <ele>74.9</ele>
        <time>2022-12-07T09:57:56Z</time>
      </trkpt>
      <trkpt lat="47.89968" lon="-3.90774">
        <ele>75</ele>
        <time>2022-12-07T09:57:57Z</time>
      </trkpt>
      <trkpt lat="47.89967" lon="-3.90781">
        <ele>75.1</ele>
        <time>2022-12-07T09:57:58Z</time>
      </trkpt>
      <trkpt lat="47.89965" lon="-3.90789">
        <ele>75.1</ele>
        <time>2022-12-07T09:57:59Z</time>
      </trkpt>
      <trkpt lat="47.89964" lon="-3.90796">
        <ele>75.2</ele>
        <time>2022-12-07T09:58:00Z</time>
      </trkpt>
      <trkpt lat="47.89963" lon="-3.90803">
        <ele>75.3</ele>
        <time>2022-12-07T09:58:01Z</time>
      </trkpt>
      <trkpt lat="47.89963" lon="-3.90811">
        <ele>75.3</ele>
        <time>2022-12-07T09:58:02Z</time>
      </trkpt>
      <trkpt lat="47.89963" lon="-3.90818">
        <ele>75.4</ele>
        <time>2022-12-07T09:58:03Z</time>
      </trkpt>
      <trkpt lat="47.89963" lon="-3.90826">
        <ele>75.4</ele>
        <time>2022-12-07T09:58:04Z</time>
      </trkpt>
      <trkpt lat="47.89962" lon="-3.90833">
        <ele>75.5</ele>
        <time>2022-12-07T09:58:05Z</time>
      </trkpt>
      <trkpt lat="47.89962" lon="-3.90841">
        <ele>75.6</ele>
        <time>2022-12-07T09:58:06Z</time>
      </trkpt>
      <trkpt lat="47.89962" lon="-3.90848">
        <ele>75.7</ele>
        <time>2022-12-07T09:58:07Z</time>
      </trkpt>
      <trkpt lat="47.89961" lon="-3.90855">
        <ele>75.8</ele>
        <time>2022-12-07T09:58:08Z</time>
      </trkpt>
      <trkpt lat="47.89961" lon="-3.90862">
        <ele>75.9</ele>
        <time>2022-12-07T09:58:09Z</time>
      </trkpt>
      <trkpt lat="47.89961" lon="-3.9087">
        <ele>76</ele>
        <time>2022-12-07T09:58:10Z</time>
      </trkpt>
      <trkpt lat="47.8996" lon="-3.90877">
        <ele>76.1</ele>
        <time>2022-12-07T09:58:11Z</time>
      </trkpt>
      <trkpt lat="47.89961" lon="-3.90885">
        <ele>76.2</ele>
        <time>2022-12-07T09:58:12Z</time>
      </trkpt>
      <trkpt lat="47.89961" lon="-3.90892">
        <ele>76.4</ele>
        <time>2022-12-07T09:58:13Z</time>
      </trkpt>
      <trkpt lat="47.89961" lon="-3.90901">
        <ele>76.5</ele>
        <time>2022-12-07T09:58:14Z</time>
      </trkpt>
      <trkpt lat="47.89961" lon="-3.90908">
        <ele>76.6</ele>
        <time>2022-12-07T09:58:15Z</time>
      </trkpt>
      <trkpt lat="47.89962" lon="-3.90913">
        <ele>76.7</ele>
        <time>2022-12-07T09:58:16Z</time>
      </trkpt>
      <trkpt lat="47.89965" lon="-3.90918">
        <ele>76.9</ele>
        <time>2022-12-07T09:58:17Z</time>
      </trkpt>
      <trkpt lat="47.89966" lon="-3.90919">
        <ele>76.9</ele>
        <time>2022-12-07T09:58:18Z</time>
      </trkpt>
      <trkpt lat="47.89966" lon="-3.90923">
        <ele>76.9</ele>
        <time>2022-12-07T09:58:19Z</time>
      </trkpt>
      <trkpt lat="47.89966" lon="-3.90928">
        <ele>76.9</ele>
        <time>2022-12-07T09:58:20Z</time>
      </trkpt>
      <trkpt lat="47.89964" lon="-3.90934">
        <ele>76.9</ele>
        <time>2022-12-07T09:58:21Z</time>
      </trkpt>
      <trkpt lat="47.89963" lon="-3.90937">
        <ele>76.9</ele>
        <time>2022-12-07T09:58:22Z</time>
      </trkpt>
      <trkpt lat="47.89958" lon="-3.90946">
        <ele>77</ele>
        <time>2022-12-07T09:58:23Z</time>
      </trkpt>
      <trkpt lat="47.89961" lon="-3.90952">
        <ele>76.9</ele>
        <time>2022-12-07T09:58:24Z</time>
      </trkpt>
      <trkpt lat="47.89962" lon="-3.90957">
        <ele>76.9</ele>
        <time>2022-12-07T09:58:25Z</time>
      </trkpt>
      <trkpt lat="47.89963" lon="-3.90965">
        <ele>76.9</ele>
        <time>2022-12-07T09:58:26Z</time>
      </trkpt>
      <trkpt lat="47.89964" lon="-3.90972">
        <ele>76.8</ele>
        <time>2022-12-07T09:58:27Z</time>
      </trkpt>
      <trkpt lat="47.89966" lon="-3.9098">
        <ele>76.8</ele>
        <time>2022-12-07T09:58:28Z</time>
      </trkpt>
      <trkpt lat="47.89967" lon="-3.90988">
        <ele>76.8</ele>
        <time>2022-12-07T09:58:29Z</time>
      </trkpt>
      <trkpt lat="47.89968" lon="-3.90995">
        <ele>76.7</ele>
        <time>2022-12-07T09:58:30Z</time>
      </trkpt>
      <trkpt lat="47.8997" lon="-3.91002">
        <ele>76.7</ele>
        <time>2022-12-07T09:58:31Z</time>
      </trkpt>
      <trkpt lat="47.89972" lon="-3.91009">
        <ele>76.6</ele>
        <time>2022-12-07T09:58:32Z</time>
      </trkpt>
      <trkpt lat="47.89974" lon="-3.91016">
        <ele>76.6</ele>
        <time>2022-12-07T09:58:33Z</time>
      </trkpt>
      <trkpt lat="47.89976" lon="-3.91023">
        <ele>76.6</ele>
        <time>2022-12-07T09:58:34Z</time>
      </trkpt>
      <trkpt lat="47.89977" lon="-3.9103">
        <ele>76.5</ele>
        <time>2022-12-07T09:58:35Z</time>
      </trkpt>
      <trkpt lat="47.89978" lon="-3.91038">
        <ele>76.5</ele>
        <time>2022-12-07T09:58:36Z</time>
      </trkpt>
      <trkpt lat="47.8998" lon="-3.91046">
        <ele>76.5</ele>
        <time>2022-12-07T09:58:37Z</time>
      </trkpt>
      <trkpt lat="47.89981" lon="-3.91054">
        <ele>76.5</ele>
        <time>2022-12-07T09:58:38Z</time>
      </trkpt>
      <trkpt lat="47.89983" lon="-3.91061">
        <ele>76.5</ele>
        <time>2022-12-07T09:58:39Z</time>
      </trkpt>
      <trkpt lat="47.89985" lon="-3.91068">
        <ele>76.4</ele>
        <time>2022-12-07T09:58:40Z</time>
      </trkpt>
      <trkpt lat="47.89987" lon="-3.91075">
        <ele>76.4</ele>
        <time>2022-12-07T09:58:41Z</time>
      </trkpt>
      <trkpt lat="47.89989" lon="-3.91082">
        <ele>76.4</ele>
        <time>2022-12-07T09:58:42Z</time>
      </trkpt>
      <trkpt lat="47.89992" lon="-3.91088">
        <ele>76.4</ele>
        <time>2022-12-07T09:58:43Z</time>
      </trkpt>
      <trkpt lat="47.89995" lon="-3.91094">
        <ele>76.3</ele>
        <time>2022-12-07T09:58:44Z</time>
      </trkpt>
      <trkpt lat="47.89998" lon="-3.91101">
        <ele>76.3</ele>
        <time>2022-12-07T09:58:45Z</time>
      </trkpt>
      <trkpt lat="47.9" lon="-3.91107">
        <ele>76.3</ele>
        <time>2022-12-07T09:58:46Z</time>
      </trkpt>
      <trkpt lat="47.90001" lon="-3.91113">
        <ele>76.3</ele>
        <time>2022-12-07T09:58:47Z</time>
      </trkpt>
      <trkpt lat="47.90001" lon="-3.91119">
        <ele>76.3</ele>
        <time>2022-12-07T09:58:48Z</time>
      </trkpt>
      <trkpt lat="47.90002" lon="-3.91122">
        <ele>76.3</ele>
        <time>2022-12-07T09:58:49Z</time>
      </trkpt>
      <trkpt lat="47.90001" lon="-3.91129">
        <ele>76.3</ele>
        <time>2022-12-07T09:58:50Z</time>
      </trkpt>
      <trkpt lat="47.90001" lon="-3.91135">
        <ele>76.3</ele>
        <time>2022-12-07T09:58:51Z</time>
      </trkpt>
      <trkpt lat="47.9" lon="-3.9114">
        <ele>76.3</ele>
        <time>2022-12-07T09:58:52Z</time>
      </trkpt>
      <trkpt lat="47.89998" lon="-3.91145">
        <ele>76.3</ele>
        <time>2022-12-07T09:58:53Z</time>
      </trkpt>
      <trkpt lat="47.89997" lon="-3.91152">
        <ele>76.3</ele>
        <time>2022-12-07T09:58:54Z</time>
      </trkpt>
      <trkpt lat="47.89998" lon="-3.9115">
        <ele>76.3</ele>
        <time>2022-12-07T09:58:55Z</time>
      </trkpt>
      <trkpt lat="47.9" lon="-3.91151">
        <ele>76.4</ele>
        <time>2022-12-07T09:58:56Z</time>
      </trkpt>
      <trkpt lat="47.90002" lon="-3.91154">
        <ele>76.4</ele>
        <time>2022-12-07T09:58:57Z</time>
      </trkpt>
      <trkpt lat="47.90002" lon="-3.91155">
        <ele>76.4</ele>
        <time>2022-12-07T09:58:58Z</time>
      </trkpt>
      <trkpt lat="47.90002" lon="-3.91157">
        <ele>76.4</ele>
        <time>2022-12-07T09:58:59Z</time>
      </trkpt>
      <trkpt lat="47.90006" lon="-3.91164">
        <ele>76.3</ele>
        <time>2022-12-07T09:59:01Z</time>
      </trkpt>
      <trkpt lat="47.90007" lon="-3.91167">
        <ele>76.3</ele>
        <time>2022-12-07T09:59:02Z</time>
      </trkpt>
      <trkpt lat="47.90007" lon="-3.91168">
        <ele>76.2</ele>
        <time>2022-12-07T09:59:03Z</time>
      </trkpt>
      <trkpt lat="47.90007" lon="-3.91171">
        <ele>76.2</ele>
        <time>2022-12-07T09:59:04Z</time>
      </trkpt>
      <trkpt lat="47.90008" lon="-3.91172">
        <ele>76.2</ele>
        <time>2022-12-07T09:59:05Z</time>
      </trkpt>
      <trkpt lat="47.90008" lon="-3.91174">
        <ele>76.2</ele>
        <time>2022-12-07T09:59:06Z</time>
      </trkpt>
      <trkpt lat="47.90011" lon="-3.91176">
        <ele>76.2</ele>
        <time>2022-12-07T09:59:07Z</time>
      </trkpt>
      <trkpt lat="47.90015" lon="-3.91178">
        <ele>76.2</ele>
        <time>2022-12-07T09:59:08Z</time>
      </trkpt>
      <trkpt lat="47.90017" lon="-3.91179">
        <ele>76.2</ele>
        <time>2022-12-07T09:59:09Z</time>
      </trkpt>
      <trkpt lat="47.9002" lon="-3.91182">
        <ele>76.1</ele>
        <time>2022-12-07T09:59:10Z</time>
      </trkpt>
      <trkpt lat="47.90022" lon="-3.91186">
        <ele>76.1</ele>
        <time>2022-12-07T09:59:11Z</time>
      </trkpt>
      <trkpt lat="47.90024" lon="-3.91191">
        <ele>76.1</ele>
        <time>2022-12-07T09:59:12Z</time>
      </trkpt>
      <trkpt lat="47.90024" lon="-3.91195">
        <ele>76.1</ele>
        <time>2022-12-07T09:59:13Z</time>
      </trkpt>
      <trkpt lat="47.90026" lon="-3.91198">
        <ele>76.1</ele>
        <time>2022-12-07T09:59:14Z</time>
      </trkpt>
      <trkpt lat="47.90029" lon="-3.912">
        <ele>76.1</ele>
        <time>2022-12-07T09:59:15Z</time>
      </trkpt>
      <trkpt lat="47.90032" lon="-3.91207">
        <ele>76</ele>
        <time>2022-12-07T09:59:17Z</time>
      </trkpt>
      <trkpt lat="47.90036" lon="-3.91212">
        <ele>76</ele>
        <time>2022-12-07T09:59:19Z</time>
      </trkpt>
      <trkpt lat="47.90041" lon="-3.91209">
        <ele>76</ele>
        <time>2022-12-07T09:59:21Z</time>
      </trkpt>
      <trkpt lat="47.90045" lon="-3.91208">
        <ele>76</ele>
        <time>2022-12-07T09:59:22Z</time>
      </trkpt>
      <trkpt lat="47.90049" lon="-3.91208">
        <ele>76</ele>
        <time>2022-12-07T09:59:23Z</time>
      </trkpt>
      <trkpt lat="47.90052" lon="-3.91207">
        <ele>75.9</ele>
        <time>2022-12-07T09:59:24Z</time>
      </trkpt>
      <trkpt lat="47.90054" lon="-3.91204">
        <ele>75.9</ele>
        <time>2022-12-07T09:59:25Z</time>
      </trkpt>
      <trkpt lat="47.90055" lon="-3.91202">
        <ele>75.9</ele>
        <time>2022-12-07T09:59:26Z</time>
      </trkpt>
      <trkpt lat="47.90057" lon="-3.91199">
        <ele>76</ele>
        <time>2022-12-07T09:59:27Z</time>
      </trkpt>
      <trkpt lat="47.90063" lon="-3.91194">
        <ele>76.4</ele>
        <time>2022-12-07T09:59:29Z</time>
      </trkpt>
      <trkpt lat="47.90068" lon="-3.91197">
        <ele>76.3</ele>
        <time>2022-12-07T09:59:30Z</time>
      </trkpt>
      <trkpt lat="47.90071" lon="-3.91202">
        <ele>76.3</ele>
        <time>2022-12-07T09:59:31Z</time>
      </trkpt>
      <trkpt lat="47.90075" lon="-3.91211">
        <ele>76.1</ele>
        <time>2022-12-07T09:59:32Z</time>
      </trkpt>
      <trkpt lat="47.90079" lon="-3.91217">
        <ele>76</ele>
        <time>2022-12-07T09:59:33Z</time>
      </trkpt>
      <trkpt lat="47.90083" lon="-3.91224">
        <ele>75.9</ele>
        <time>2022-12-07T09:59:34Z</time>
      </trkpt>
      <trkpt lat="47.90087" lon="-3.9123">
        <ele>75.9</ele>
        <time>2022-12-07T09:59:35Z</time>
      </trkpt>
      <trkpt lat="47.90091" lon="-3.91235">
        <ele>75.9</ele>
        <time>2022-12-07T09:59:36Z</time>
      </trkpt>
      <trkpt lat="47.90096" lon="-3.9124">
        <ele>75.8</ele>
        <time>2022-12-07T09:59:37Z</time>
      </trkpt>
      <trkpt lat="47.90102" lon="-3.91245">
        <ele>75.8</ele>
        <time>2022-12-07T09:59:38Z</time>
      </trkpt>
      <trkpt lat="47.90107" lon="-3.9125">
        <ele>75.8</ele>
        <time>2022-12-07T09:59:39Z</time>
      </trkpt>
      <trkpt lat="47.90112" lon="-3.91255">
        <ele>75.8</ele>
        <time>2022-12-07T09:59:40Z</time>
      </trkpt>
      <trkpt lat="47.90118" lon="-3.91259">
        <ele>75.7</ele>
        <time>2022-12-07T09:59:41Z</time>
      </trkpt>
      <trkpt lat="47.90123" lon="-3.91264">
        <ele>75.7</ele>
        <time>2022-12-07T09:59:42Z</time>
      </trkpt>
      <trkpt lat="47.90128" lon="-3.91269">
        <ele>75.7</ele>
        <time>2022-12-07T09:59:43Z</time>
      </trkpt>
      <trkpt lat="47.90134" lon="-3.91274">
        <ele>75.6</ele>
        <time>2022-12-07T09:59:44Z</time>
      </trkpt>
      <trkpt lat="47.90139" lon="-3.91278">
        <ele>75.6</ele>
        <time>2022-12-07T09:59:45Z</time>
      </trkpt>
      <trkpt lat="47.90145" lon="-3.91283">
        <ele>75.6</ele>
        <time>2022-12-07T09:59:46Z</time>
      </trkpt>
      <trkpt lat="47.90151" lon="-3.91287">
        <ele>75.5</ele>
        <time>2022-12-07T09:59:47Z</time>
      </trkpt>
      <trkpt lat="47.90156" lon="-3.91291">
        <ele>75.5</ele>
        <time>2022-12-07T09:59:48Z</time>
      </trkpt>
      <trkpt lat="47.90161" lon="-3.91296">
        <ele>75.4</ele>
        <time>2022-12-07T09:59:49Z</time>
      </trkpt>
      <trkpt lat="47.90167" lon="-3.91301">
        <ele>75.4</ele>
        <time>2022-12-07T09:59:50Z</time>
      </trkpt>
      <trkpt lat="47.90172" lon="-3.91305">
        <ele>75.3</ele>
        <time>2022-12-07T09:59:51Z</time>
      </trkpt>
      <trkpt lat="47.90178" lon="-3.9131">
        <ele>75.3</ele>
        <time>2022-12-07T09:59:52Z</time>
      </trkpt>
      <trkpt lat="47.90183" lon="-3.91315">
        <ele>75.2</ele>
        <time>2022-12-07T09:59:53Z</time>
      </trkpt>
      <trkpt lat="47.90189" lon="-3.91319">
        <ele>75.2</ele>
        <time>2022-12-07T09:59:54Z</time>
      </trkpt>
      <trkpt lat="47.90194" lon="-3.91324">
        <ele>75.1</ele>
        <time>2022-12-07T09:59:55Z</time>
      </trkpt>
      <trkpt lat="47.902" lon="-3.91329">
        <ele>75</ele>
        <time>2022-12-07T09:59:56Z</time>
      </trkpt>
      <trkpt lat="47.90206" lon="-3.91333">
        <ele>75</ele>
        <time>2022-12-07T09:59:57Z</time>
      </trkpt>
      <trkpt lat="47.90212" lon="-3.91338">
        <ele>74.9</ele>
        <time>2022-12-07T09:59:58Z</time>
      </trkpt>
      <trkpt lat="47.90217" lon="-3.91343">
        <ele>74.8</ele>
        <time>2022-12-07T09:59:59Z</time>
      </trkpt>
      <trkpt lat="47.90223" lon="-3.91348">
        <ele>74.7</ele>
        <time>2022-12-07T10:00:00Z</time>
      </trkpt>
      <trkpt lat="47.90229" lon="-3.91352">
        <ele>74.7</ele>
        <time>2022-12-07T10:00:01Z</time>
      </trkpt>
      <trkpt lat="47.90235" lon="-3.91357">
        <ele>74.6</ele>
        <time>2022-12-07T10:00:02Z</time>
      </trkpt>
      <trkpt lat="47.90241" lon="-3.91361">
        <ele>74.5</ele>
        <time>2022-12-07T10:00:03Z</time>
      </trkpt>
      <trkpt lat="47.90247" lon="-3.91366">
        <ele>74.4</ele>
        <time>2022-12-07T10:00:04Z</time>
      </trkpt>
      <trkpt lat="47.90253" lon="-3.91371">
        <ele>74.3</ele>
        <time>2022-12-07T10:00:05Z</time>
      </trkpt>
      <trkpt lat="47.9026" lon="-3.91375">
        <ele>74.3</ele>
        <time>2022-12-07T10:00:06Z</time>
      </trkpt>
      <trkpt lat="47.90266" lon="-3.9138">
        <ele>74.2</ele>
        <time>2022-12-07T10:00:07Z</time>
      </trkpt>
      <trkpt lat="47.90272" lon="-3.91383">
        <ele>74</ele>
        <time>2022-12-07T10:00:08Z</time>
      </trkpt>
      <trkpt lat="47.90279" lon="-3.91384">
        <ele>73.9</ele>
        <time>2022-12-07T10:00:09Z</time>
      </trkpt>
      <trkpt lat="47.90285" lon="-3.91381">
        <ele>73.8</ele>
        <time>2022-12-07T10:00:10Z</time>
      </trkpt>
      <trkpt lat="47.90291" lon="-3.91377">
        <ele>73.8</ele>
        <time>2022-12-07T10:00:11Z</time>
      </trkpt>
      <trkpt lat="47.90296" lon="-3.91373">
        <ele>73.7</ele>
        <time>2022-12-07T10:00:12Z</time>
      </trkpt>
      <trkpt lat="47.90302" lon="-3.91369">
        <ele>73.7</ele>
        <time>2022-12-07T10:00:13Z</time>
      </trkpt>
      <trkpt lat="47.90307" lon="-3.91363">
        <ele>73.7</ele>
        <time>2022-12-07T10:00:14Z</time>
      </trkpt>
      <trkpt lat="47.90311" lon="-3.91357">
        <ele>73.6</ele>
        <time>2022-12-07T10:00:15Z</time>
      </trkpt>
      <trkpt lat="47.90315" lon="-3.91352">
        <ele>73.6</ele>
        <time>2022-12-07T10:00:16Z</time>
      </trkpt>
      <trkpt lat="47.90318" lon="-3.9135">
        <ele>73.6</ele>
        <time>2022-12-07T10:00:17Z</time>
      </trkpt>
      <trkpt lat="47.90319" lon="-3.91349">
        <ele>73.6</ele>
        <time>2022-12-07T10:00:18Z</time>
      </trkpt>
      <trkpt lat="47.90319" lon="-3.91349">
        <ele>73.6</ele>
        <time>2022-12-07T10:00:19Z</time>
      </trkpt>
      <trkpt lat="47.90319" lon="-3.91349">
        <ele>73.6</ele>
        <time>2022-12-07T10:00:20Z</time>
      </trkpt>
      <trkpt lat="47.90319" lon="-3.91349">
        <ele>73.6</ele>
        <time>2022-12-07T10:00:21Z</time>
      </trkpt>
      <trkpt lat="47.90319" lon="-3.9135">
        <ele>73.6</ele>
        <time>2022-12-07T10:00:22Z</time>
      </trkpt>
      <trkpt lat="47.90319" lon="-3.9135">
        <ele>73.6</ele>
        <time>2022-12-07T10:00:23Z</time>
      </trkpt>
      <trkpt lat="47.90319" lon="-3.9135">
        <ele>73.6</ele>
        <time>2022-12-07T10:00:24Z</time>
      </trkpt>
      <trkpt lat="47.90319" lon="-3.9135">
        <ele>73.6</ele>
        <time>2022-12-07T10:00:25Z</time>
      </trkpt>
      <trkpt lat="47.90319" lon="-3.9135">
        <ele>73.6</ele>
        <time>2022-12-07T10:00:26Z</time>
      </trkpt>
      <trkpt lat="47.90319" lon="-3.9135">
        <ele>73.6</ele>
        <time>2022-12-07T10:00:27Z</time>
      </trkpt>
      <trkpt lat="47.90319" lon="-3.9135">
        <ele>73.6</ele>
        <time>2022-12-07T10:00:28Z</time>
      </trkpt>
      <trkpt lat="47.90319" lon="-3.9135">
        <ele>73.6</ele>
        <time>2022-12-07T10:00:29Z</time>
      </trkpt>
      <trkpt lat="47.90319" lon="-3.9135">
        <ele>73.6</ele>
        <time>2022-12-07T10:00:30Z</time>
      </trkpt>
      <trkpt lat="47.90322" lon="-3.91347">
        <ele>73.5</ele>
        <time>2022-12-07T10:01:22Z</time>
      </trkpt>
      <trkpt lat="47.90323" lon="-3.91346">
        <ele>73.5</ele>
        <time>2022-12-07T10:01:23Z</time>
      </trkpt>
      <trkpt lat="47.90325" lon="-3.91345">
        <ele>73.5</ele>
        <time>2022-12-07T10:01:24Z</time>
      </trkpt>
      <trkpt lat="47.90328" lon="-3.91342">
        <ele>73.5</ele>
        <time>2022-12-07T10:01:25Z</time>
      </trkpt>
      <trkpt lat="47.9033" lon="-3.91341">
        <ele>73.5</ele>
        <time>2022-12-07T10:01:26Z</time>
      </trkpt>
      <trkpt lat="47.90337" lon="-3.91335">
        <ele>73.5</ele>
        <time>2022-12-07T10:01:27Z</time>
      </trkpt>
      <trkpt lat="47.90343" lon="-3.91329">
        <ele>73.5</ele>
        <time>2022-12-07T10:01:28Z</time>
      </trkpt>
      <trkpt lat="47.90349" lon="-3.91324">
        <ele>73.5</ele>
        <time>2022-12-07T10:01:29Z</time>
      </trkpt>
      <trkpt lat="47.90354" lon="-3.91319">
        <ele>73.5</ele>
        <time>2022-12-07T10:01:30Z</time>
      </trkpt>
      <trkpt lat="47.90359" lon="-3.91314">
        <ele>73.5</ele>
        <time>2022-12-07T10:01:31Z</time>
      </trkpt>
      <trkpt lat="47.90365" lon="-3.91309">
        <ele>73.5</ele>
        <time>2022-12-07T10:01:32Z</time>
      </trkpt>
      <trkpt lat="47.9037" lon="-3.91305">
        <ele>73.5</ele>
        <time>2022-12-07T10:01:33Z</time>
      </trkpt>
      <trkpt lat="47.90375" lon="-3.913">
        <ele>73.5</ele>
        <time>2022-12-07T10:01:34Z</time>
      </trkpt>
      <trkpt lat="47.90381" lon="-3.91295">
        <ele>73.5</ele>
        <time>2022-12-07T10:01:35Z</time>
      </trkpt>
      <trkpt lat="47.90386" lon="-3.9129">
        <ele>73.5</ele>
        <time>2022-12-07T10:01:36Z</time>
      </trkpt>
      <trkpt lat="47.90391" lon="-3.91286">
        <ele>73.5</ele>
        <time>2022-12-07T10:01:37Z</time>
      </trkpt>
      <trkpt lat="47.90397" lon="-3.91281">
        <ele>73.5</ele>
        <time>2022-12-07T10:01:38Z</time>
      </trkpt>
      <trkpt lat="47.90403" lon="-3.91276">
        <ele>73.6</ele>
        <time>2022-12-07T10:01:39Z</time>
      </trkpt>
      <trkpt lat="47.90408" lon="-3.91271">
        <ele>73.6</ele>
        <time>2022-12-07T10:01:40Z</time>
      </trkpt>
      <trkpt lat="47.90414" lon="-3.91267">
        <ele>73.6</ele>
        <time>2022-12-07T10:01:41Z</time>
      </trkpt>
      <trkpt lat="47.90419" lon="-3.91263">
        <ele>73.7</ele>
        <time>2022-12-07T10:01:42Z</time>
      </trkpt>
      <trkpt lat="47.90424" lon="-3.91259">
        <ele>73.7</ele>
        <time>2022-12-07T10:01:43Z</time>
      </trkpt>
      <trkpt lat="47.90429" lon="-3.91255">
        <ele>73.7</ele>
        <time>2022-12-07T10:01:44Z</time>
      </trkpt>
      <trkpt lat="47.90435" lon="-3.9125">
        <ele>73.8</ele>
        <time>2022-12-07T10:01:45Z</time>
      </trkpt>
      <trkpt lat="47.9044" lon="-3.91245">
        <ele>73.9</ele>
        <time>2022-12-07T10:01:46Z</time>
      </trkpt>
      <trkpt lat="47.90445" lon="-3.9124">
        <ele>73.9</ele>
        <time>2022-12-07T10:01:47Z</time>
      </trkpt>
      <trkpt lat="47.90451" lon="-3.91235">
        <ele>74</ele>
        <time>2022-12-07T10:01:48Z</time>
      </trkpt>
      <trkpt lat="47.90456" lon="-3.91231">
        <ele>74</ele>
        <time>2022-12-07T10:01:49Z</time>
      </trkpt>
      <trkpt lat="47.90462" lon="-3.91226">
        <ele>74.1</ele>
        <time>2022-12-07T10:01:50Z</time>
      </trkpt>
      <trkpt lat="47.90467" lon="-3.91222">
        <ele>74.2</ele>
        <time>2022-12-07T10:01:51Z</time>
      </trkpt>
      <trkpt lat="47.90471" lon="-3.91218">
        <ele>74.3</ele>
        <time>2022-12-07T10:01:52Z</time>
      </trkpt>
      <trkpt lat="47.90476" lon="-3.91214">
        <ele>74.4</ele>
        <time>2022-12-07T10:01:53Z</time>
      </trkpt>
      <trkpt lat="47.90481" lon="-3.91209">
        <ele>74.5</ele>
        <time>2022-12-07T10:01:54Z</time>
      </trkpt>
      <trkpt lat="47.90486" lon="-3.91206">
        <ele>74.6</ele>
        <time>2022-12-07T10:01:55Z</time>
      </trkpt>
      <trkpt lat="47.90491" lon="-3.91201">
        <ele>74.6</ele>
        <time>2022-12-07T10:01:56Z</time>
      </trkpt>
      <trkpt lat="47.90496" lon="-3.91197">
        <ele>74.7</ele>
        <time>2022-12-07T10:01:57Z</time>
      </trkpt>
      <trkpt lat="47.90501" lon="-3.91193">
        <ele>74.8</ele>
        <time>2022-12-07T10:01:58Z</time>
      </trkpt>
      <trkpt lat="47.90505" lon="-3.91189">
        <ele>74.9</ele>
        <time>2022-12-07T10:01:59Z</time>
      </trkpt>
      <trkpt lat="47.9051" lon="-3.91185">
        <ele>75</ele>
        <time>2022-12-07T10:02:00Z</time>
      </trkpt>
      <trkpt lat="47.90515" lon="-3.9118">
        <ele>75.1</ele>
        <time>2022-12-07T10:02:01Z</time>
      </trkpt>
      <trkpt lat="47.9052" lon="-3.91176">
        <ele>75.2</ele>
        <time>2022-12-07T10:02:02Z</time>
      </trkpt>
      <trkpt lat="47.90524" lon="-3.91171">
        <ele>75.3</ele>
        <time>2022-12-07T10:02:03Z</time>
      </trkpt>
      <trkpt lat="47.90529" lon="-3.91167">
        <ele>75.4</ele>
        <time>2022-12-07T10:02:04Z</time>
      </trkpt>
      <trkpt lat="47.90534" lon="-3.91163">
        <ele>75.5</ele>
        <time>2022-12-07T10:02:05Z</time>
      </trkpt>
      <trkpt lat="47.90538" lon="-3.91159">
        <ele>75.6</ele>
        <time>2022-12-07T10:02:06Z</time>
      </trkpt>
      <trkpt lat="47.90543" lon="-3.91155">
        <ele>75.7</ele>
        <time>2022-12-07T10:02:07Z</time>
      </trkpt>
      <trkpt lat="47.90548" lon="-3.91151">
        <ele>75.8</ele>
        <time>2022-12-07T10:02:08Z</time>
      </trkpt>
      <trkpt lat="47.90552" lon="-3.91147">
        <ele>75.8</ele>
        <time>2022-12-07T10:02:09Z</time>
      </trkpt>
      <trkpt lat="47.90557" lon="-3.91143">
        <ele>75.9</ele>
        <time>2022-12-07T10:02:10Z</time>
      </trkpt>
      <trkpt lat="47.90561" lon="-3.91139">
        <ele>76</ele>
        <time>2022-12-07T10:02:11Z</time>
      </trkpt>
      <trkpt lat="47.90566" lon="-3.91135">
        <ele>76.1</ele>
        <time>2022-12-07T10:02:12Z</time>
      </trkpt>
      <trkpt lat="47.9057" lon="-3.9113">
        <ele>76.2</ele>
        <time>2022-12-07T10:02:13Z</time>
      </trkpt>
      <trkpt lat="47.90575" lon="-3.91126">
        <ele>76.3</ele>
        <time>2022-12-07T10:02:14Z</time>
      </trkpt>
      <trkpt lat="47.90579" lon="-3.91122">
        <ele>76.3</ele>
        <time>2022-12-07T10:02:15Z</time>
      </trkpt>
      <trkpt lat="47.90584" lon="-3.91118">
        <ele>76.4</ele>
        <time>2022-12-07T10:02:16Z</time>
      </trkpt>
      <trkpt lat="47.90589" lon="-3.91115">
        <ele>76.5</ele>
        <time>2022-12-07T10:02:17Z</time>
      </trkpt>
      <trkpt lat="47.90594" lon="-3.91111">
        <ele>76.5</ele>
        <time>2022-12-07T10:02:18Z</time>
      </trkpt>
      <trkpt lat="47.90598" lon="-3.91107">
        <ele>76.6</ele>
        <time>2022-12-07T10:02:19Z</time>
      </trkpt>
      <trkpt lat="47.90602" lon="-3.91103">
        <ele>76.7</ele>
        <time>2022-12-07T10:02:20Z</time>
      </trkpt>
      <trkpt lat="47.90607" lon="-3.91099">
        <ele>76.8</ele>
        <time>2022-12-07T10:02:21Z</time>
      </trkpt>
      <trkpt lat="47.90612" lon="-3.91095">
        <ele>76.9</ele>
        <time>2022-12-07T10:02:22Z</time>
      </trkpt>
      <trkpt lat="47.90616" lon="-3.91091">
        <ele>77</ele>
        <time>2022-12-07T10:02:23Z</time>
      </trkpt>
      <trkpt lat="47.90621" lon="-3.91086">
        <ele>77.1</ele>
        <time>2022-12-07T10:02:24Z</time>
      </trkpt>
      <trkpt lat="47.90625" lon="-3.91082">
        <ele>77.1</ele>
        <time>2022-12-07T10:02:25Z</time>
      </trkpt>
      <trkpt lat="47.9063" lon="-3.91078">
        <ele>77.2</ele>
        <time>2022-12-07T10:02:26Z</time>
      </trkpt>
      <trkpt lat="47.90634" lon="-3.91074">
        <ele>77.3</ele>
        <time>2022-12-07T10:02:27Z</time>
      </trkpt>
      <trkpt lat="47.90639" lon="-3.9107">
        <ele>77.4</ele>
        <time>2022-12-07T10:02:28Z</time>
      </trkpt>
      <trkpt lat="47.90644" lon="-3.91066">
        <ele>77.4</ele>
        <time>2022-12-07T10:02:29Z</time>
      </trkpt>
      <trkpt lat="47.90648" lon="-3.91062">
        <ele>77.5</ele>
        <time>2022-12-07T10:02:30Z</time>
      </trkpt>
      <trkpt lat="47.90653" lon="-3.91058">
        <ele>77.6</ele>
        <time>2022-12-07T10:02:31Z</time>
      </trkpt>
      <trkpt lat="47.90658" lon="-3.91053">
        <ele>77.7</ele>
        <time>2022-12-07T10:02:32Z</time>
      </trkpt>
      <trkpt lat="47.90662" lon="-3.91049">
        <ele>77.8</ele>
        <time>2022-12-07T10:02:33Z</time>
      </trkpt>
      <trkpt lat="47.90667" lon="-3.91045">
        <ele>77.9</ele>
        <time>2022-12-07T10:02:34Z</time>
      </trkpt>
      <trkpt lat="47.90672" lon="-3.91041">
        <ele>78</ele>
        <time>2022-12-07T10:02:35Z</time>
      </trkpt>
      <trkpt lat="47.90676" lon="-3.91037">
        <ele>78.1</ele>
        <time>2022-12-07T10:02:36Z</time>
      </trkpt>
      <trkpt lat="47.90681" lon="-3.91033">
        <ele>78.2</ele>
        <time>2022-12-07T10:02:37Z</time>
      </trkpt>
      <trkpt lat="47.90686" lon="-3.91029">
        <ele>78.3</ele>
        <time>2022-12-07T10:02:38Z</time>
      </trkpt>
      <trkpt lat="47.90691" lon="-3.91024">
        <ele>78.4</ele>
        <time>2022-12-07T10:02:39Z</time>
      </trkpt>
      <trkpt lat="47.90696" lon="-3.9102">
        <ele>78.5</ele>
        <time>2022-12-07T10:02:40Z</time>
      </trkpt>
      <trkpt lat="47.90701" lon="-3.91016">
        <ele>78.6</ele>
        <time>2022-12-07T10:02:41Z</time>
      </trkpt>
      <trkpt lat="47.90706" lon="-3.91012">
        <ele>78.6</ele>
        <time>2022-12-07T10:02:42Z</time>
      </trkpt>
      <trkpt lat="47.9071" lon="-3.91008">
        <ele>78.7</ele>
        <time>2022-12-07T10:02:43Z</time>
      </trkpt>
      <trkpt lat="47.90715" lon="-3.91004">
        <ele>78.8</ele>
        <time>2022-12-07T10:02:44Z</time>
      </trkpt>
      <trkpt lat="47.9072" lon="-3.90999">
        <ele>78.9</ele>
        <time>2022-12-07T10:02:45Z</time>
      </trkpt>
      <trkpt lat="47.90725" lon="-3.90995">
        <ele>79</ele>
        <time>2022-12-07T10:02:46Z</time>
      </trkpt>
      <trkpt lat="47.90729" lon="-3.90991">
        <ele>79.1</ele>
        <time>2022-12-07T10:02:47Z</time>
      </trkpt>
      <trkpt lat="47.90734" lon="-3.90987">
        <ele>79.2</ele>
        <time>2022-12-07T10:02:48Z</time>
      </trkpt>
      <trkpt lat="47.90739" lon="-3.90984">
        <ele>79.3</ele>
        <time>2022-12-07T10:02:49Z</time>
      </trkpt>
      <trkpt lat="47.90743" lon="-3.9098">
        <ele>79.4</ele>
        <time>2022-12-07T10:02:50Z</time>
      </trkpt>
      <trkpt lat="47.90748" lon="-3.90976">
        <ele>79.5</ele>
        <time>2022-12-07T10:02:51Z</time>
      </trkpt>
      <trkpt lat="47.90752" lon="-3.90971">
        <ele>79.5</ele>
        <time>2022-12-07T10:02:52Z</time>
      </trkpt>
      <trkpt lat="47.90756" lon="-3.90967">
        <ele>79.6</ele>
        <time>2022-12-07T10:02:53Z</time>
      </trkpt>
      <trkpt lat="47.90761" lon="-3.90962">
        <ele>79.7</ele>
        <time>2022-12-07T10:02:54Z</time>
      </trkpt>
      <trkpt lat="47.90766" lon="-3.90958">
        <ele>79.8</ele>
        <time>2022-12-07T10:02:55Z</time>
      </trkpt>
      <trkpt lat="47.90771" lon="-3.90954">
        <ele>79.9</ele>
        <time>2022-12-07T10:02:56Z</time>
      </trkpt>
      <trkpt lat="47.90776" lon="-3.9095">
        <ele>80</ele>
        <time>2022-12-07T10:02:57Z</time>
      </trkpt>
      <trkpt lat="47.9078" lon="-3.90946">
        <ele>80.1</ele>
        <time>2022-12-07T10:02:58Z</time>
      </trkpt>
      <trkpt lat="47.90785" lon="-3.90942">
        <ele>80.2</ele>
        <time>2022-12-07T10:02:59Z</time>
      </trkpt>
      <trkpt lat="47.9079" lon="-3.90938">
        <ele>80.3</ele>
        <time>2022-12-07T10:03:00Z</time>
      </trkpt>
      <trkpt lat="47.90794" lon="-3.90934">
        <ele>80.3</ele>
        <time>2022-12-07T10:03:01Z</time>
      </trkpt>
      <trkpt lat="47.90799" lon="-3.90929">
        <ele>80.4</ele>
        <time>2022-12-07T10:03:02Z</time>
      </trkpt>
      <trkpt lat="47.90804" lon="-3.90925">
        <ele>80.4</ele>
        <time>2022-12-07T10:03:03Z</time>
      </trkpt>
      <trkpt lat="47.90808" lon="-3.90921">
        <ele>80.5</ele>
        <time>2022-12-07T10:03:04Z</time>
      </trkpt>
      <trkpt lat="47.90813" lon="-3.90917">
        <ele>80.6</ele>
        <time>2022-12-07T10:03:05Z</time>
      </trkpt>
      <trkpt lat="47.90817" lon="-3.90912">
        <ele>80.7</ele>
        <time>2022-12-07T10:03:06Z</time>
      </trkpt>
      <trkpt lat="47.90822" lon="-3.90908">
        <ele>80.7</ele>
        <time>2022-12-07T10:03:07Z</time>
      </trkpt>
      <trkpt lat="47.90826" lon="-3.90904">
        <ele>80.8</ele>
        <time>2022-12-07T10:03:08Z</time>
      </trkpt>
      <trkpt lat="47.90831" lon="-3.909">
        <ele>80.9</ele>
        <time>2022-12-07T10:03:09Z</time>
      </trkpt>
      <trkpt lat="47.90836" lon="-3.90896">
        <ele>80.9</ele>
        <time>2022-12-07T10:03:10Z</time>
      </trkpt>
      <trkpt lat="47.9084" lon="-3.90892">
        <ele>81</ele>
        <time>2022-12-07T10:03:11Z</time>
      </trkpt>
      <trkpt lat="47.90844" lon="-3.90888">
        <ele>81</ele>
        <time>2022-12-07T10:03:12Z</time>
      </trkpt>
      <trkpt lat="47.90848" lon="-3.90884">
        <ele>81.1</ele>
        <time>2022-12-07T10:03:13Z</time>
      </trkpt>
      <trkpt lat="47.90853" lon="-3.9088">
        <ele>81.1</ele>
        <time>2022-12-07T10:03:14Z</time>
      </trkpt>
      <trkpt lat="47.90857" lon="-3.90876">
        <ele>81.2</ele>
        <time>2022-12-07T10:03:15Z</time>
      </trkpt>
      <trkpt lat="47.90862" lon="-3.90872">
        <ele>81.2</ele>
        <time>2022-12-07T10:03:16Z</time>
      </trkpt>
      <trkpt lat="47.90867" lon="-3.90868">
        <ele>81.3</ele>
        <time>2022-12-07T10:03:17Z</time>
      </trkpt>
      <trkpt lat="47.90871" lon="-3.90864">
        <ele>81.4</ele>
        <time>2022-12-07T10:03:18Z</time>
      </trkpt>
      <trkpt lat="47.90876" lon="-3.9086">
        <ele>81.5</ele>
        <time>2022-12-07T10:03:19Z</time>
      </trkpt>
      <trkpt lat="47.90881" lon="-3.90857">
        <ele>81.6</ele>
        <time>2022-12-07T10:03:20Z</time>
      </trkpt>
      <trkpt lat="47.90885" lon="-3.90853">
        <ele>81.7</ele>
        <time>2022-12-07T10:03:21Z</time>
      </trkpt>
      <trkpt lat="47.9089" lon="-3.90848">
        <ele>81.8</ele>
        <time>2022-12-07T10:03:22Z</time>
      </trkpt>
      <trkpt lat="47.90894" lon="-3.90844">
        <ele>81.9</ele>
        <time>2022-12-07T10:03:23Z</time>
      </trkpt>
      <trkpt lat="47.90899" lon="-3.90841">
        <ele>82</ele>
        <time>2022-12-07T10:03:24Z</time>
      </trkpt>
      <trkpt lat="47.90904" lon="-3.90837">
        <ele>82.1</ele>
        <time>2022-12-07T10:03:25Z</time>
      </trkpt>
      <trkpt lat="47.90908" lon="-3.90833">
        <ele>82.2</ele>
        <time>2022-12-07T10:03:26Z</time>
      </trkpt>
      <trkpt lat="47.90913" lon="-3.90829">
        <ele>82.4</ele>
        <time>2022-12-07T10:03:27Z</time>
      </trkpt>
      <trkpt lat="47.90918" lon="-3.90824">
        <ele>82.5</ele>
        <time>2022-12-07T10:03:28Z</time>
      </trkpt>
      <trkpt lat="47.90922" lon="-3.9082">
        <ele>82.7</ele>
        <time>2022-12-07T10:03:29Z</time>
      </trkpt>
      <trkpt lat="47.90927" lon="-3.90816">
        <ele>82.8</ele>
        <time>2022-12-07T10:03:30Z</time>
      </trkpt>
      <trkpt lat="47.90931" lon="-3.90813">
        <ele>82.9</ele>
        <time>2022-12-07T10:03:31Z</time>
      </trkpt>
      <trkpt lat="47.90935" lon="-3.9081">
        <ele>83.1</ele>
        <time>2022-12-07T10:03:32Z</time>
      </trkpt>
      <trkpt lat="47.9094" lon="-3.90806">
        <ele>83.2</ele>
        <time>2022-12-07T10:03:33Z</time>
      </trkpt>
      <trkpt lat="47.90944" lon="-3.90802">
        <ele>83.3</ele>
        <time>2022-12-07T10:03:34Z</time>
      </trkpt>
      <trkpt lat="47.90947" lon="-3.90798">
        <ele>83.4</ele>
        <time>2022-12-07T10:03:35Z</time>
      </trkpt>
      <trkpt lat="47.90948" lon="-3.90794">
        <ele>83.5</ele>
        <time>2022-12-07T10:03:36Z</time>
      </trkpt>
      <trkpt lat="47.90949" lon="-3.90793">
        <ele>83.5</ele>
        <time>2022-12-07T10:03:37Z</time>
      </trkpt>
      <trkpt lat="47.9095" lon="-3.90788">
        <ele>83.5</ele>
        <time>2022-12-07T10:03:38Z</time>
      </trkpt>
      <trkpt lat="47.90953" lon="-3.90784">
        <ele>83.6</ele>
        <time>2022-12-07T10:03:39Z</time>
      </trkpt>
      <trkpt lat="47.90956" lon="-3.90783">
        <ele>83.6</ele>
        <time>2022-12-07T10:03:40Z</time>
      </trkpt>
      <trkpt lat="47.90961" lon="-3.90783">
        <ele>83.7</ele>
        <time>2022-12-07T10:03:41Z</time>
      </trkpt>
      <trkpt lat="47.90965" lon="-3.90781">
        <ele>83.7</ele>
        <time>2022-12-07T10:03:42Z</time>
      </trkpt>
      <trkpt lat="47.9097" lon="-3.90779">
        <ele>83.8</ele>
        <time>2022-12-07T10:03:43Z</time>
      </trkpt>
      <trkpt lat="47.90974" lon="-3.90777">
        <ele>83.8</ele>
        <time>2022-12-07T10:03:44Z</time>
      </trkpt>
      <trkpt lat="47.90979" lon="-3.90775">
        <ele>83.9</ele>
        <time>2022-12-07T10:03:45Z</time>
      </trkpt>
      <trkpt lat="47.90983" lon="-3.9077">
        <ele>83.9</ele>
        <time>2022-12-07T10:03:46Z</time>
      </trkpt>
      <trkpt lat="47.90988" lon="-3.90766">
        <ele>84</ele>
        <time>2022-12-07T10:03:47Z</time>
      </trkpt>
      <trkpt lat="47.90992" lon="-3.90761">
        <ele>84</ele>
        <time>2022-12-07T10:03:48Z</time>
      </trkpt>
      <trkpt lat="47.90996" lon="-3.90757">
        <ele>84.1</ele>
        <time>2022-12-07T10:03:49Z</time>
      </trkpt>
      <trkpt lat="47.91" lon="-3.90753">
        <ele>84.1</ele>
        <time>2022-12-07T10:03:50Z</time>
      </trkpt>
      <trkpt lat="47.91005" lon="-3.90749">
        <ele>84.2</ele>
        <time>2022-12-07T10:03:51Z</time>
      </trkpt>
      <trkpt lat="47.91009" lon="-3.90745">
        <ele>84.2</ele>
        <time>2022-12-07T10:03:52Z</time>
      </trkpt>
      <trkpt lat="47.91014" lon="-3.90741">
        <ele>84.3</ele>
        <time>2022-12-07T10:03:53Z</time>
      </trkpt>
      <trkpt lat="47.91018" lon="-3.90737">
        <ele>84.4</ele>
        <time>2022-12-07T10:03:54Z</time>
      </trkpt>
      <trkpt lat="47.91023" lon="-3.90734">
        <ele>84.4</ele>
        <time>2022-12-07T10:03:55Z</time>
      </trkpt>
      <trkpt lat="47.91027" lon="-3.9073">
        <ele>84.5</ele>
        <time>2022-12-07T10:03:56Z</time>
      </trkpt>
      <trkpt lat="47.91031" lon="-3.90726">
        <ele>84.5</ele>
        <time>2022-12-07T10:03:57Z</time>
      </trkpt>
      <trkpt lat="47.91036" lon="-3.90722">
        <ele>84.6</ele>
        <time>2022-12-07T10:03:58Z</time>
      </trkpt>
      <trkpt lat="47.9104" lon="-3.90719">
        <ele>84.6</ele>
        <time>2022-12-07T10:03:59Z</time>
      </trkpt>
      <trkpt lat="47.91045" lon="-3.90715">
        <ele>84.7</ele>
        <time>2022-12-07T10:04:00Z</time>
      </trkpt>
      <trkpt lat="47.9105" lon="-3.9071">
        <ele>84.7</ele>
        <time>2022-12-07T10:04:01Z</time>
      </trkpt>
      <trkpt lat="47.91054" lon="-3.90707">
        <ele>84.8</ele>
        <time>2022-12-07T10:04:02Z</time>
      </trkpt>
      <trkpt lat="47.91059" lon="-3.90702">
        <ele>84.8</ele>
        <time>2022-12-07T10:04:03Z</time>
      </trkpt>
      <trkpt lat="47.91064" lon="-3.90698">
        <ele>84.9</ele>
        <time>2022-12-07T10:04:04Z</time>
      </trkpt>
      <trkpt lat="47.91069" lon="-3.90694">
        <ele>85</ele>
        <time>2022-12-07T10:04:05Z</time>
      </trkpt>
      <trkpt lat="47.91073" lon="-3.90689">
        <ele>85.1</ele>
        <time>2022-12-07T10:04:06Z</time>
      </trkpt>
      <trkpt lat="47.91077" lon="-3.90685">
        <ele>85.2</ele>
        <time>2022-12-07T10:04:07Z</time>
      </trkpt>
      <trkpt lat="47.91082" lon="-3.90681">
        <ele>85.2</ele>
        <time>2022-12-07T10:04:08Z</time>
      </trkpt>
      <trkpt lat="47.91086" lon="-3.90677">
        <ele>85.4</ele>
        <time>2022-12-07T10:04:09Z</time>
      </trkpt>
      <trkpt lat="47.91091" lon="-3.90673">
        <ele>85.5</ele>
        <time>2022-12-07T10:04:10Z</time>
      </trkpt>
      <trkpt lat="47.91095" lon="-3.9067">
        <ele>85.6</ele>
        <time>2022-12-07T10:04:11Z</time>
      </trkpt>
      <trkpt lat="47.91099" lon="-3.90666">
        <ele>85.7</ele>
        <time>2022-12-07T10:04:12Z</time>
      </trkpt>
      <trkpt lat="47.91103" lon="-3.90662">
        <ele>85.8</ele>
        <time>2022-12-07T10:04:13Z</time>
      </trkpt>
      <trkpt lat="47.91108" lon="-3.90658">
        <ele>85.9</ele>
        <time>2022-12-07T10:04:14Z</time>
      </trkpt>
      <trkpt lat="47.91112" lon="-3.90654">
        <ele>86</ele>
        <time>2022-12-07T10:04:15Z</time>
      </trkpt>
      <trkpt lat="47.91117" lon="-3.9065">
        <ele>86.1</ele>
        <time>2022-12-07T10:04:16Z</time>
      </trkpt>
      <trkpt lat="47.91121" lon="-3.90646">
        <ele>86.2</ele>
        <time>2022-12-07T10:04:17Z</time>
      </trkpt>
      <trkpt lat="47.91126" lon="-3.90643">
        <ele>86.2</ele>
        <time>2022-12-07T10:04:18Z</time>
      </trkpt>
      <trkpt lat="47.9113" lon="-3.9064">
        <ele>86.3</ele>
        <time>2022-12-07T10:04:19Z</time>
      </trkpt>
      <trkpt lat="47.91135" lon="-3.90636">
        <ele>86.4</ele>
        <time>2022-12-07T10:04:20Z</time>
      </trkpt>
      <trkpt lat="47.91139" lon="-3.90633">
        <ele>86.4</ele>
        <time>2022-12-07T10:04:21Z</time>
      </trkpt>
      <trkpt lat="47.91144" lon="-3.90631">
        <ele>86.5</ele>
        <time>2022-12-07T10:04:22Z</time>
      </trkpt>
      <trkpt lat="47.91149" lon="-3.90626">
        <ele>86.5</ele>
        <time>2022-12-07T10:04:23Z</time>
      </trkpt>
      <trkpt lat="47.91153" lon="-3.90622">
        <ele>86.5</ele>
        <time>2022-12-07T10:04:24Z</time>
      </trkpt>
      <trkpt lat="47.91158" lon="-3.90619">
        <ele>86.5</ele>
        <time>2022-12-07T10:04:25Z</time>
      </trkpt>
      <trkpt lat="47.91163" lon="-3.90615">
        <ele>86.5</ele>
        <time>2022-12-07T10:04:26Z</time>
      </trkpt>
      <trkpt lat="47.91168" lon="-3.90612">
        <ele>86.5</ele>
        <time>2022-12-07T10:04:27Z</time>
      </trkpt>
      <trkpt lat="47.91173" lon="-3.90608">
        <ele>86.4</ele>
        <time>2022-12-07T10:04:28Z</time>
      </trkpt>
      <trkpt lat="47.91178" lon="-3.90605">
        <ele>86.4</ele>
        <time>2022-12-07T10:04:29Z</time>
      </trkpt>
      <trkpt lat="47.91184" lon="-3.90603">
        <ele>86.4</ele>
        <time>2022-12-07T10:04:30Z</time>
      </trkpt>
      <trkpt lat="47.91189" lon="-3.906">
        <ele>86.4</ele>
        <time>2022-12-07T10:04:31Z</time>
      </trkpt>
      <trkpt lat="47.91195" lon="-3.90597">
        <ele>86.3</ele>
        <time>2022-12-07T10:04:32Z</time>
      </trkpt>
      <trkpt lat="47.91201" lon="-3.90595">
        <ele>86.3</ele>
        <time>2022-12-07T10:04:33Z</time>
      </trkpt>
      <trkpt lat="47.91206" lon="-3.90592">
        <ele>86.3</ele>
        <time>2022-12-07T10:04:34Z</time>
      </trkpt>
      <trkpt lat="47.91211" lon="-3.9059">
        <ele>86.3</ele>
        <time>2022-12-07T10:04:35Z</time>
      </trkpt>
      <trkpt lat="47.91217" lon="-3.90587">
        <ele>86.3</ele>
        <time>2022-12-07T10:04:36Z</time>
      </trkpt>
      <trkpt lat="47.91223" lon="-3.90585">
        <ele>86.3</ele>
        <time>2022-12-07T10:04:37Z</time>
      </trkpt>
      <trkpt lat="47.91229" lon="-3.90582">
        <ele>86.3</ele>
        <time>2022-12-07T10:04:38Z</time>
      </trkpt>
      <trkpt lat="47.91234" lon="-3.90579">
        <ele>86.4</ele>
        <time>2022-12-07T10:04:39Z</time>
      </trkpt>
      <trkpt lat="47.9124" lon="-3.90577">
        <ele>86.4</ele>
        <time>2022-12-07T10:04:40Z</time>
      </trkpt>
      <trkpt lat="47.91246" lon="-3.90575">
        <ele>86.4</ele>
        <time>2022-12-07T10:04:41Z</time>
      </trkpt>
      <trkpt lat="47.91252" lon="-3.90572">
        <ele>86.4</ele>
        <time>2022-12-07T10:04:42Z</time>
      </trkpt>
      <trkpt lat="47.91257" lon="-3.9057">
        <ele>86.4</ele>
        <time>2022-12-07T10:04:43Z</time>
      </trkpt>
      <trkpt lat="47.91263" lon="-3.90569">
        <ele>86.4</ele>
        <time>2022-12-07T10:04:44Z</time>
      </trkpt>
      <trkpt lat="47.91269" lon="-3.90568">
        <ele>86.4</ele>
        <time>2022-12-07T10:04:45Z</time>
      </trkpt>
      <trkpt lat="47.91275" lon="-3.90566">
        <ele>86.4</ele>
        <time>2022-12-07T10:04:46Z</time>
      </trkpt>
      <trkpt lat="47.9128" lon="-3.90565">
        <ele>86.4</ele>
        <time>2022-12-07T10:04:47Z</time>
      </trkpt>
      <trkpt lat="47.91286" lon="-3.90564">
        <ele>86.4</ele>
        <time>2022-12-07T10:04:48Z</time>
      </trkpt>
      <trkpt lat="47.91291" lon="-3.90562">
        <ele>86.4</ele>
        <time>2022-12-07T10:04:49Z</time>
      </trkpt>
      <trkpt lat="47.91297" lon="-3.9056">
        <ele>86.4</ele>
        <time>2022-12-07T10:04:50Z</time>
      </trkpt>
      <trkpt lat="47.91302" lon="-3.9056">
        <ele>86.4</ele>
        <time>2022-12-07T10:04:51Z</time>
      </trkpt>
      <trkpt lat="47.91308" lon="-3.90559">
        <ele>86.3</ele>
        <time>2022-12-07T10:04:52Z</time>
      </trkpt>
      <trkpt lat="47.91313" lon="-3.90559">
        <ele>86.3</ele>
        <time>2022-12-07T10:04:53Z</time>
      </trkpt>
      <trkpt lat="47.91319" lon="-3.90558">
        <ele>86.2</ele>
        <time>2022-12-07T10:04:54Z</time>
      </trkpt>
      <trkpt lat="47.91325" lon="-3.90557">
        <ele>86.1</ele>
        <time>2022-12-07T10:04:55Z</time>
      </trkpt>
      <trkpt lat="47.91331" lon="-3.90556">
        <ele>86.1</ele>
        <time>2022-12-07T10:04:56Z</time>
      </trkpt>
      <trkpt lat="47.91337" lon="-3.90556">
        <ele>86</ele>
        <time>2022-12-07T10:04:57Z</time>
      </trkpt>
      <trkpt lat="47.91342" lon="-3.90555">
        <ele>85.9</ele>
        <time>2022-12-07T10:04:58Z</time>
      </trkpt>
      <trkpt lat="47.91348" lon="-3.90554">
        <ele>85.9</ele>
        <time>2022-12-07T10:04:59Z</time>
      </trkpt>
      <trkpt lat="47.91355" lon="-3.90553">
        <ele>85.8</ele>
        <time>2022-12-07T10:05:00Z</time>
      </trkpt>
      <trkpt lat="47.91361" lon="-3.90552">
        <ele>85.7</ele>
        <time>2022-12-07T10:05:01Z</time>
      </trkpt>
      <trkpt lat="47.91367" lon="-3.90551">
        <ele>85.6</ele>
        <time>2022-12-07T10:05:02Z</time>
      </trkpt>
      <trkpt lat="47.91373" lon="-3.9055">
        <ele>85.5</ele>
        <time>2022-12-07T10:05:03Z</time>
      </trkpt>
      <trkpt lat="47.9138" lon="-3.90549">
        <ele>85.4</ele>
        <time>2022-12-07T10:05:04Z</time>
      </trkpt>
      <trkpt lat="47.91386" lon="-3.90548">
        <ele>85.4</ele>
        <time>2022-12-07T10:05:05Z</time>
      </trkpt>
      <trkpt lat="47.91393" lon="-3.90547">
        <ele>85.3</ele>
        <time>2022-12-07T10:05:06Z</time>
      </trkpt>
      <trkpt lat="47.91399" lon="-3.90545">
        <ele>85.2</ele>
        <time>2022-12-07T10:05:07Z</time>
      </trkpt>
      <trkpt lat="47.91406" lon="-3.90543">
        <ele>85.1</ele>
        <time>2022-12-07T10:05:08Z</time>
      </trkpt>
      <trkpt lat="47.91412" lon="-3.90543">
        <ele>85</ele>
        <time>2022-12-07T10:05:09Z</time>
      </trkpt>
      <trkpt lat="47.91418" lon="-3.90541">
        <ele>84.9</ele>
        <time>2022-12-07T10:05:10Z</time>
      </trkpt>
      <trkpt lat="47.91424" lon="-3.90541">
        <ele>84.8</ele>
        <time>2022-12-07T10:05:11Z</time>
      </trkpt>
      <trkpt lat="47.91431" lon="-3.9054">
        <ele>84.7</ele>
        <time>2022-12-07T10:05:12Z</time>
      </trkpt>
      <trkpt lat="47.91437" lon="-3.90539">
        <ele>84.6</ele>
        <time>2022-12-07T10:05:13Z</time>
      </trkpt>
      <trkpt lat="47.91443" lon="-3.90538">
        <ele>84.5</ele>
        <time>2022-12-07T10:05:14Z</time>
      </trkpt>
      <trkpt lat="47.91449" lon="-3.90538">
        <ele>84.4</ele>
        <time>2022-12-07T10:05:15Z</time>
      </trkpt>
      <trkpt lat="47.91456" lon="-3.90536">
        <ele>84.2</ele>
        <time>2022-12-07T10:05:16Z</time>
      </trkpt>
      <trkpt lat="47.91463" lon="-3.90536">
        <ele>84.1</ele>
        <time>2022-12-07T10:05:17Z</time>
      </trkpt>
      <trkpt lat="47.91469" lon="-3.90536">
        <ele>84</ele>
        <time>2022-12-07T10:05:18Z</time>
      </trkpt>
      <trkpt lat="47.91476" lon="-3.90535">
        <ele>83.9</ele>
        <time>2022-12-07T10:05:19Z</time>
      </trkpt>
      <trkpt lat="47.91483" lon="-3.90534">
        <ele>83.8</ele>
        <time>2022-12-07T10:05:20Z</time>
      </trkpt>
      <trkpt lat="47.91489" lon="-3.90533">
        <ele>83.8</ele>
        <time>2022-12-07T10:05:21Z</time>
      </trkpt>
      <trkpt lat="47.91496" lon="-3.90532">
        <ele>83.7</ele>
        <time>2022-12-07T10:05:22Z</time>
      </trkpt>
      <trkpt lat="47.91503" lon="-3.90531">
        <ele>83.6</ele>
        <time>2022-12-07T10:05:23Z</time>
      </trkpt>
      <trkpt lat="47.9151" lon="-3.90529">
        <ele>83.5</ele>
        <time>2022-12-07T10:05:24Z</time>
      </trkpt>
      <trkpt lat="47.91517" lon="-3.90528">
        <ele>83.4</ele>
        <time>2022-12-07T10:05:25Z</time>
      </trkpt>
      <trkpt lat="47.91524" lon="-3.90527">
        <ele>83.2</ele>
        <time>2022-12-07T10:05:26Z</time>
      </trkpt>
      <trkpt lat="47.9153" lon="-3.90526">
        <ele>83.2</ele>
        <time>2022-12-07T10:05:27Z</time>
      </trkpt>
      <trkpt lat="47.91537" lon="-3.90525">
        <ele>83.1</ele>
        <time>2022-12-07T10:05:28Z</time>
      </trkpt>
      <trkpt lat="47.91543" lon="-3.90524">
        <ele>83</ele>
        <time>2022-12-07T10:05:29Z</time>
      </trkpt>
      <trkpt lat="47.9155" lon="-3.90522">
        <ele>83</ele>
        <time>2022-12-07T10:05:30Z</time>
      </trkpt>
      <trkpt lat="47.91557" lon="-3.90522">
        <ele>83</ele>
        <time>2022-12-07T10:05:31Z</time>
      </trkpt>
      <trkpt lat="47.91563" lon="-3.90521">
        <ele>83</ele>
        <time>2022-12-07T10:05:32Z</time>
      </trkpt>
      <trkpt lat="47.9157" lon="-3.9052">
        <ele>82.9</ele>
        <time>2022-12-07T10:05:33Z</time>
      </trkpt>
      <trkpt lat="47.91576" lon="-3.90519">
        <ele>82.9</ele>
        <time>2022-12-07T10:05:34Z</time>
      </trkpt>
      <trkpt lat="47.91583" lon="-3.90519">
        <ele>82.9</ele>
        <time>2022-12-07T10:05:35Z</time>
      </trkpt>
      <trkpt lat="47.91589" lon="-3.90518">
        <ele>82.9</ele>
        <time>2022-12-07T10:05:36Z</time>
      </trkpt>
      <trkpt lat="47.91595" lon="-3.90517">
        <ele>82.9</ele>
        <time>2022-12-07T10:05:37Z</time>
      </trkpt>
      <trkpt lat="47.91601" lon="-3.90516">
        <ele>83</ele>
        <time>2022-12-07T10:05:38Z</time>
      </trkpt>
      <trkpt lat="47.91608" lon="-3.90515">
        <ele>83</ele>
        <time>2022-12-07T10:05:39Z</time>
      </trkpt>
      <trkpt lat="47.91614" lon="-3.90513">
        <ele>83</ele>
        <time>2022-12-07T10:05:40Z</time>
      </trkpt>
      <trkpt lat="47.9162" lon="-3.90513">
        <ele>83.1</ele>
        <time>2022-12-07T10:05:41Z</time>
      </trkpt>
      <trkpt lat="47.91626" lon="-3.90512">
        <ele>83.1</ele>
        <time>2022-12-07T10:05:42Z</time>
      </trkpt>
      <trkpt lat="47.91632" lon="-3.90511">
        <ele>83.1</ele>
        <time>2022-12-07T10:05:43Z</time>
      </trkpt>
      <trkpt lat="47.91638" lon="-3.9051">
        <ele>83.1</ele>
        <time>2022-12-07T10:05:44Z</time>
      </trkpt>
      <trkpt lat="47.91644" lon="-3.90509">
        <ele>83.2</ele>
        <time>2022-12-07T10:05:45Z</time>
      </trkpt>
      <trkpt lat="47.91649" lon="-3.90507">
        <ele>83.2</ele>
        <time>2022-12-07T10:05:46Z</time>
      </trkpt>
      <trkpt lat="47.91656" lon="-3.90506">
        <ele>83.2</ele>
        <time>2022-12-07T10:05:47Z</time>
      </trkpt>
      <trkpt lat="47.91661" lon="-3.90505">
        <ele>83.2</ele>
        <time>2022-12-07T10:05:48Z</time>
      </trkpt>
      <trkpt lat="47.91666" lon="-3.90504">
        <ele>83.2</ele>
        <time>2022-12-07T10:05:49Z</time>
      </trkpt>
      <trkpt lat="47.91672" lon="-3.90503">
        <ele>83.2</ele>
        <time>2022-12-07T10:05:50Z</time>
      </trkpt>
      <trkpt lat="47.91678" lon="-3.90501">
        <ele>83.2</ele>
        <time>2022-12-07T10:05:51Z</time>
      </trkpt>
      <trkpt lat="47.91684" lon="-3.90499">
        <ele>83.2</ele>
        <time>2022-12-07T10:05:52Z</time>
      </trkpt>
      <trkpt lat="47.9169" lon="-3.90497">
        <ele>83.2</ele>
        <time>2022-12-07T10:05:53Z</time>
      </trkpt>
      <trkpt lat="47.91697" lon="-3.90494">
        <ele>83.2</ele>
        <time>2022-12-07T10:05:54Z</time>
      </trkpt>
      <trkpt lat="47.91703" lon="-3.90491">
        <ele>83.1</ele>
        <time>2022-12-07T10:05:55Z</time>
      </trkpt>
      <trkpt lat="47.91709" lon="-3.90489">
        <ele>83.1</ele>
        <time>2022-12-07T10:05:56Z</time>
      </trkpt>
      <trkpt lat="47.91715" lon="-3.90486">
        <ele>83.1</ele>
        <time>2022-12-07T10:05:57Z</time>
      </trkpt>
      <trkpt lat="47.91721" lon="-3.90484">
        <ele>83.1</ele>
        <time>2022-12-07T10:05:58Z</time>
      </trkpt>
      <trkpt lat="47.91727" lon="-3.90481">
        <ele>83.1</ele>
        <time>2022-12-07T10:05:59Z</time>
      </trkpt>
      <trkpt lat="47.91733" lon="-3.90478">
        <ele>83.1</ele>
        <time>2022-12-07T10:06:00Z</time>
      </trkpt>
      <trkpt lat="47.91739" lon="-3.90475">
        <ele>83.1</ele>
        <time>2022-12-07T10:06:01Z</time>
      </trkpt>
      <trkpt lat="47.91744" lon="-3.90472">
        <ele>83</ele>
        <time>2022-12-07T10:06:02Z</time>
      </trkpt>
      <trkpt lat="47.9175" lon="-3.90469">
        <ele>83</ele>
        <time>2022-12-07T10:06:03Z</time>
      </trkpt>
      <trkpt lat="47.91756" lon="-3.90466">
        <ele>83</ele>
        <time>2022-12-07T10:06:04Z</time>
      </trkpt>
      <trkpt lat="47.91762" lon="-3.90463">
        <ele>83</ele>
        <time>2022-12-07T10:06:05Z</time>
      </trkpt>
      <trkpt lat="47.91768" lon="-3.90461">
        <ele>83</ele>
        <time>2022-12-07T10:06:06Z</time>
      </trkpt>
      <trkpt lat="47.91773" lon="-3.90458">
        <ele>83</ele>
        <time>2022-12-07T10:06:07Z</time>
      </trkpt>
      <trkpt lat="47.91779" lon="-3.90456">
        <ele>83</ele>
        <time>2022-12-07T10:06:08Z</time>
      </trkpt>
      <trkpt lat="47.91785" lon="-3.90453">
        <ele>83</ele>
        <time>2022-12-07T10:06:09Z</time>
      </trkpt>
      <trkpt lat="47.9179" lon="-3.9045">
        <ele>83</ele>
        <time>2022-12-07T10:06:10Z</time>
      </trkpt>
      <trkpt lat="47.91796" lon="-3.90446">
        <ele>83</ele>
        <time>2022-12-07T10:06:11Z</time>
      </trkpt>
      <trkpt lat="47.918" lon="-3.90444">
        <ele>83</ele>
        <time>2022-12-07T10:06:12Z</time>
      </trkpt>
      <trkpt lat="47.91805" lon="-3.90441">
        <ele>83.1</ele>
        <time>2022-12-07T10:06:13Z</time>
      </trkpt>
      <trkpt lat="47.91811" lon="-3.90438">
        <ele>83.1</ele>
        <time>2022-12-07T10:06:14Z</time>
      </trkpt>
      <trkpt lat="47.91816" lon="-3.90436">
        <ele>83.1</ele>
        <time>2022-12-07T10:06:15Z</time>
      </trkpt>
      <trkpt lat="47.91821" lon="-3.90433">
        <ele>83.1</ele>
        <time>2022-12-07T10:06:16Z</time>
      </trkpt>
      <trkpt lat="47.91826" lon="-3.90431">
        <ele>83.1</ele>
        <time>2022-12-07T10:06:17Z</time>
      </trkpt>
      <trkpt lat="47.91832" lon="-3.90427">
        <ele>83.1</ele>
        <time>2022-12-07T10:06:18Z</time>
      </trkpt>
      <trkpt lat="47.91837" lon="-3.90424">
        <ele>83.1</ele>
        <time>2022-12-07T10:06:19Z</time>
      </trkpt>
      <trkpt lat="47.91844" lon="-3.90421">
        <ele>83.1</ele>
        <time>2022-12-07T10:06:20Z</time>
      </trkpt>
      <trkpt lat="47.9185" lon="-3.90418">
        <ele>83.1</ele>
        <time>2022-12-07T10:06:21Z</time>
      </trkpt>
      <trkpt lat="47.91856" lon="-3.90416">
        <ele>83.1</ele>
        <time>2022-12-07T10:06:22Z</time>
      </trkpt>
      <trkpt lat="47.91861" lon="-3.90413">
        <ele>83.1</ele>
        <time>2022-12-07T10:06:23Z</time>
      </trkpt>
      <trkpt lat="47.91867" lon="-3.9041">
        <ele>83</ele>
        <time>2022-12-07T10:06:24Z</time>
      </trkpt>
      <trkpt lat="47.91873" lon="-3.90406">
        <ele>83</ele>
        <time>2022-12-07T10:06:25Z</time>
      </trkpt>
      <trkpt lat="47.91878" lon="-3.90401">
        <ele>83</ele>
        <time>2022-12-07T10:06:26Z</time>
      </trkpt>
      <trkpt lat="47.91884" lon="-3.90399">
        <ele>83</ele>
        <time>2022-12-07T10:06:27Z</time>
      </trkpt>
      <trkpt lat="47.9189" lon="-3.90396">
        <ele>83</ele>
        <time>2022-12-07T10:06:28Z</time>
      </trkpt>
      <trkpt lat="47.91896" lon="-3.90393">
        <ele>83</ele>
        <time>2022-12-07T10:06:29Z</time>
      </trkpt>
      <trkpt lat="47.91901" lon="-3.9039">
        <ele>83</ele>
        <time>2022-12-07T10:06:30Z</time>
      </trkpt>
      <trkpt lat="47.91907" lon="-3.90387">
        <ele>82.9</ele>
        <time>2022-12-07T10:06:31Z</time>
      </trkpt>
      <trkpt lat="47.91912" lon="-3.90385">
        <ele>82.9</ele>
        <time>2022-12-07T10:06:32Z</time>
      </trkpt>
      <trkpt lat="47.91918" lon="-3.90382">
        <ele>82.9</ele>
        <time>2022-12-07T10:06:33Z</time>
      </trkpt>
      <trkpt lat="47.91923" lon="-3.90379">
        <ele>82.9</ele>
        <time>2022-12-07T10:06:34Z</time>
      </trkpt>
      <trkpt lat="47.91929" lon="-3.90376">
        <ele>82.9</ele>
        <time>2022-12-07T10:06:35Z</time>
      </trkpt>
      <trkpt lat="47.91935" lon="-3.90373">
        <ele>82.9</ele>
        <time>2022-12-07T10:06:36Z</time>
      </trkpt>
      <trkpt lat="47.9194" lon="-3.9037">
        <ele>82.9</ele>
        <time>2022-12-07T10:06:37Z</time>
      </trkpt>
      <trkpt lat="47.91946" lon="-3.90367">
        <ele>82.9</ele>
        <time>2022-12-07T10:06:38Z</time>
      </trkpt>
      <trkpt lat="47.91952" lon="-3.90365">
        <ele>82.9</ele>
        <time>2022-12-07T10:06:39Z</time>
      </trkpt>
      <trkpt lat="47.91958" lon="-3.90362">
        <ele>82.9</ele>
        <time>2022-12-07T10:06:40Z</time>
      </trkpt>
      <trkpt lat="47.91963" lon="-3.90359">
        <ele>82.9</ele>
        <time>2022-12-07T10:06:41Z</time>
      </trkpt>
      <trkpt lat="47.91969" lon="-3.90357">
        <ele>82.9</ele>
        <time>2022-12-07T10:06:42Z</time>
      </trkpt>
      <trkpt lat="47.91975" lon="-3.90354">
        <ele>82.9</ele>
        <time>2022-12-07T10:06:43Z</time>
      </trkpt>
      <trkpt lat="47.91981" lon="-3.90351">
        <ele>82.9</ele>
        <time>2022-12-07T10:06:44Z</time>
      </trkpt>
      <trkpt lat="47.91986" lon="-3.90348">
        <ele>82.9</ele>
        <time>2022-12-07T10:06:45Z</time>
      </trkpt>
      <trkpt lat="47.91992" lon="-3.90344">
        <ele>82.9</ele>
        <time>2022-12-07T10:06:46Z</time>
      </trkpt>
      <trkpt lat="47.91997" lon="-3.90342">
        <ele>82.8</ele>
        <time>2022-12-07T10:06:47Z</time>
      </trkpt>
      <trkpt lat="47.92003" lon="-3.90339">
        <ele>82.8</ele>
        <time>2022-12-07T10:06:48Z</time>
      </trkpt>
      <trkpt lat="47.92008" lon="-3.90336">
        <ele>82.8</ele>
        <time>2022-12-07T10:06:49Z</time>
      </trkpt>
      <trkpt lat="47.92014" lon="-3.90334">
        <ele>82.8</ele>
        <time>2022-12-07T10:06:50Z</time>
      </trkpt>
      <trkpt lat="47.92019" lon="-3.90332">
        <ele>82.8</ele>
        <time>2022-12-07T10:06:51Z</time>
      </trkpt>
      <trkpt lat="47.92025" lon="-3.90329">
        <ele>82.8</ele>
        <time>2022-12-07T10:06:52Z</time>
      </trkpt>
      <trkpt lat="47.9203" lon="-3.90327">
        <ele>82.7</ele>
        <time>2022-12-07T10:06:53Z</time>
      </trkpt>
      <trkpt lat="47.92036" lon="-3.90324">
        <ele>82.7</ele>
        <time>2022-12-07T10:06:54Z</time>
      </trkpt>
      <trkpt lat="47.92042" lon="-3.90321">
        <ele>82.7</ele>
        <time>2022-12-07T10:06:55Z</time>
      </trkpt>
      <trkpt lat="47.92047" lon="-3.90319">
        <ele>82.6</ele>
        <time>2022-12-07T10:06:56Z</time>
      </trkpt>
      <trkpt lat="47.92052" lon="-3.90316">
        <ele>82.6</ele>
        <time>2022-12-07T10:06:57Z</time>
      </trkpt>
      <trkpt lat="47.92058" lon="-3.90313">
        <ele>82.5</ele>
        <time>2022-12-07T10:06:58Z</time>
      </trkpt>
      <trkpt lat="47.92063" lon="-3.9031">
        <ele>82.5</ele>
        <time>2022-12-07T10:06:59Z</time>
      </trkpt>
      <trkpt lat="47.92069" lon="-3.90308">
        <ele>82.4</ele>
        <time>2022-12-07T10:07:00Z</time>
      </trkpt>
      <trkpt lat="47.92074" lon="-3.90305">
        <ele>82.3</ele>
        <time>2022-12-07T10:07:01Z</time>
      </trkpt>
      <trkpt lat="47.9208" lon="-3.90302">
        <ele>82.3</ele>
        <time>2022-12-07T10:07:02Z</time>
      </trkpt>
      <trkpt lat="47.92086" lon="-3.90299">
        <ele>82.2</ele>
        <time>2022-12-07T10:07:03Z</time>
      </trkpt>
      <trkpt lat="47.92091" lon="-3.90295">
        <ele>82.1</ele>
        <time>2022-12-07T10:07:04Z</time>
      </trkpt>
      <trkpt lat="47.92097" lon="-3.90292">
        <ele>82.1</ele>
        <time>2022-12-07T10:07:05Z</time>
      </trkpt>
      <trkpt lat="47.92102" lon="-3.90288">
        <ele>82.1</ele>
        <time>2022-12-07T10:07:06Z</time>
      </trkpt>
      <trkpt lat="47.92107" lon="-3.90285">
        <ele>82</ele>
        <time>2022-12-07T10:07:07Z</time>
      </trkpt>
      <trkpt lat="47.92111" lon="-3.90284">
        <ele>82</ele>
        <time>2022-12-07T10:07:08Z</time>
      </trkpt>
      <trkpt lat="47.92115" lon="-3.90283">
        <ele>82</ele>
        <time>2022-12-07T10:07:09Z</time>
      </trkpt>
      <trkpt lat="47.92117" lon="-3.90281">
        <ele>82</ele>
        <time>2022-12-07T10:07:10Z</time>
      </trkpt>
      <trkpt lat="47.9212" lon="-3.90279">
        <ele>82</ele>
        <time>2022-12-07T10:07:11Z</time>
      </trkpt>
      <trkpt lat="47.92122" lon="-3.90278">
        <ele>82</ele>
        <time>2022-12-07T10:07:12Z</time>
      </trkpt>
      <trkpt lat="47.92125" lon="-3.90275">
        <ele>81.9</ele>
        <time>2022-12-07T10:07:13Z</time>
      </trkpt>
      <trkpt lat="47.92127" lon="-3.90274">
        <ele>81.8</ele>
        <time>2022-12-07T10:07:14Z</time>
      </trkpt>
      <trkpt lat="47.92132" lon="-3.90272">
        <ele>81.6</ele>
        <time>2022-12-07T10:07:15Z</time>
      </trkpt>
      <trkpt lat="47.92136" lon="-3.90271">
        <ele>81.5</ele>
        <time>2022-12-07T10:07:16Z</time>
      </trkpt>
      <trkpt lat="47.92144" lon="-3.90265">
        <ele>81.2</ele>
        <time>2022-12-07T10:07:17Z</time>
      </trkpt>
      <trkpt lat="47.92148" lon="-3.90262">
        <ele>81.1</ele>
        <time>2022-12-07T10:07:18Z</time>
      </trkpt>
      <trkpt lat="47.92153" lon="-3.90258">
        <ele>80.9</ele>
        <time>2022-12-07T10:07:19Z</time>
      </trkpt>
      <trkpt lat="47.92158" lon="-3.90255">
        <ele>80.8</ele>
        <time>2022-12-07T10:07:20Z</time>
      </trkpt>
      <trkpt lat="47.92163" lon="-3.9025">
        <ele>80.6</ele>
        <time>2022-12-07T10:07:21Z</time>
      </trkpt>
      <trkpt lat="47.92169" lon="-3.90247">
        <ele>80.5</ele>
        <time>2022-12-07T10:07:22Z</time>
      </trkpt>
      <trkpt lat="47.92175" lon="-3.90243">
        <ele>80.4</ele>
        <time>2022-12-07T10:07:23Z</time>
      </trkpt>
      <trkpt lat="47.9218" lon="-3.90239">
        <ele>80.3</ele>
        <time>2022-12-07T10:07:24Z</time>
      </trkpt>
      <trkpt lat="47.92186" lon="-3.90236">
        <ele>80.2</ele>
        <time>2022-12-07T10:07:25Z</time>
      </trkpt>
      <trkpt lat="47.92192" lon="-3.90232">
        <ele>80.1</ele>
        <time>2022-12-07T10:07:26Z</time>
      </trkpt>
      <trkpt lat="47.92197" lon="-3.90228">
        <ele>80</ele>
        <time>2022-12-07T10:07:27Z</time>
      </trkpt>
      <trkpt lat="47.92203" lon="-3.90224">
        <ele>79.9</ele>
        <time>2022-12-07T10:07:28Z</time>
      </trkpt>
      <trkpt lat="47.92209" lon="-3.9022">
        <ele>79.7</ele>
        <time>2022-12-07T10:07:29Z</time>
      </trkpt>
      <trkpt lat="47.92215" lon="-3.90216">
        <ele>79.6</ele>
        <time>2022-12-07T10:07:30Z</time>
      </trkpt>
      <trkpt lat="47.9222" lon="-3.90212">
        <ele>79.5</ele>
        <time>2022-12-07T10:07:31Z</time>
      </trkpt>
      <trkpt lat="47.92226" lon="-3.90208">
        <ele>79.4</ele>
        <time>2022-12-07T10:07:32Z</time>
      </trkpt>
      <trkpt lat="47.92232" lon="-3.90204">
        <ele>79.3</ele>
        <time>2022-12-07T10:07:33Z</time>
      </trkpt>
      <trkpt lat="47.92238" lon="-3.902">
        <ele>79.2</ele>
        <time>2022-12-07T10:07:34Z</time>
      </trkpt>
      <trkpt lat="47.92244" lon="-3.90196">
        <ele>79.1</ele>
        <time>2022-12-07T10:07:35Z</time>
      </trkpt>
      <trkpt lat="47.9225" lon="-3.90193">
        <ele>79</ele>
        <time>2022-12-07T10:07:36Z</time>
      </trkpt>
      <trkpt lat="47.92255" lon="-3.90189">
        <ele>78.9</ele>
        <time>2022-12-07T10:07:37Z</time>
      </trkpt>
      <trkpt lat="47.92261" lon="-3.90185">
        <ele>78.8</ele>
        <time>2022-12-07T10:07:38Z</time>
      </trkpt>
      <trkpt lat="47.92266" lon="-3.90181">
        <ele>78.7</ele>
        <time>2022-12-07T10:07:39Z</time>
      </trkpt>
      <trkpt lat="47.92272" lon="-3.90177">
        <ele>78.6</ele>
        <time>2022-12-07T10:07:40Z</time>
      </trkpt>
      <trkpt lat="47.92278" lon="-3.90173">
        <ele>78.5</ele>
        <time>2022-12-07T10:07:41Z</time>
      </trkpt>
      <trkpt lat="47.92284" lon="-3.90169">
        <ele>78.4</ele>
        <time>2022-12-07T10:07:42Z</time>
      </trkpt>
      <trkpt lat="47.9229" lon="-3.90165">
        <ele>78.3</ele>
        <time>2022-12-07T10:07:43Z</time>
      </trkpt>
      <trkpt lat="47.92296" lon="-3.90161">
        <ele>78.2</ele>
        <time>2022-12-07T10:07:44Z</time>
      </trkpt>
      <trkpt lat="47.92302" lon="-3.90158">
        <ele>78.2</ele>
        <time>2022-12-07T10:07:45Z</time>
      </trkpt>
      <trkpt lat="47.92308" lon="-3.90154">
        <ele>78.1</ele>
        <time>2022-12-07T10:07:46Z</time>
      </trkpt>
      <trkpt lat="47.92313" lon="-3.9015">
        <ele>78.1</ele>
        <time>2022-12-07T10:07:47Z</time>
      </trkpt>
      <trkpt lat="47.92319" lon="-3.90146">
        <ele>78.1</ele>
        <time>2022-12-07T10:07:48Z</time>
      </trkpt>
      <trkpt lat="47.92325" lon="-3.90143">
        <ele>78.1</ele>
        <time>2022-12-07T10:07:49Z</time>
      </trkpt>
      <trkpt lat="47.92331" lon="-3.90139">
        <ele>78</ele>
        <time>2022-12-07T10:07:50Z</time>
      </trkpt>
      <trkpt lat="47.92336" lon="-3.90135">
        <ele>78</ele>
        <time>2022-12-07T10:07:51Z</time>
      </trkpt>
      <trkpt lat="47.92342" lon="-3.90131">
        <ele>78</ele>
        <time>2022-12-07T10:07:52Z</time>
      </trkpt>
      <trkpt lat="47.92348" lon="-3.90128">
        <ele>78.1</ele>
        <time>2022-12-07T10:07:53Z</time>
      </trkpt>
      <trkpt lat="47.92353" lon="-3.90124">
        <ele>78.1</ele>
        <time>2022-12-07T10:07:54Z</time>
      </trkpt>
      <trkpt lat="47.92358" lon="-3.9012">
        <ele>78.2</ele>
        <time>2022-12-07T10:07:55Z</time>
      </trkpt>
      <trkpt lat="47.92363" lon="-3.90116">
        <ele>78.2</ele>
        <time>2022-12-07T10:07:56Z</time>
      </trkpt>
      <trkpt lat="47.92369" lon="-3.90113">
        <ele>78.2</ele>
        <time>2022-12-07T10:07:57Z</time>
      </trkpt>
      <trkpt lat="47.92374" lon="-3.9011">
        <ele>78.3</ele>
        <time>2022-12-07T10:07:58Z</time>
      </trkpt>
      <trkpt lat="47.92379" lon="-3.90106">
        <ele>78.4</ele>
        <time>2022-12-07T10:07:59Z</time>
      </trkpt>
      <trkpt lat="47.92385" lon="-3.90103">
        <ele>78.4</ele>
        <time>2022-12-07T10:08:00Z</time>
      </trkpt>
      <trkpt lat="47.9239" lon="-3.90099">
        <ele>78.5</ele>
        <time>2022-12-07T10:08:01Z</time>
      </trkpt>
      <trkpt lat="47.92395" lon="-3.90095">
        <ele>78.6</ele>
        <time>2022-12-07T10:08:02Z</time>
      </trkpt>
      <trkpt lat="47.924" lon="-3.90091">
        <ele>78.7</ele>
        <time>2022-12-07T10:08:03Z</time>
      </trkpt>
      <trkpt lat="47.92406" lon="-3.90088">
        <ele>78.8</ele>
        <time>2022-12-07T10:08:04Z</time>
      </trkpt>
      <trkpt lat="47.92411" lon="-3.90084">
        <ele>78.9</ele>
        <time>2022-12-07T10:08:05Z</time>
      </trkpt>
      <trkpt lat="47.92416" lon="-3.90081">
        <ele>79</ele>
        <time>2022-12-07T10:08:06Z</time>
      </trkpt>
      <trkpt lat="47.92421" lon="-3.90078">
        <ele>79.1</ele>
        <time>2022-12-07T10:08:07Z</time>
      </trkpt>
      <trkpt lat="47.92426" lon="-3.90074">
        <ele>79.2</ele>
        <time>2022-12-07T10:08:08Z</time>
      </trkpt>
      <trkpt lat="47.92432" lon="-3.90071">
        <ele>79.3</ele>
        <time>2022-12-07T10:08:09Z</time>
      </trkpt>
      <trkpt lat="47.92437" lon="-3.90068">
        <ele>79.4</ele>
        <time>2022-12-07T10:08:10Z</time>
      </trkpt>
      <trkpt lat="47.92442" lon="-3.90065">
        <ele>79.5</ele>
        <time>2022-12-07T10:08:11Z</time>
      </trkpt>
      <trkpt lat="47.92447" lon="-3.90061">
        <ele>79.6</ele>
        <time>2022-12-07T10:08:12Z</time>
      </trkpt>
      <trkpt lat="47.92452" lon="-3.90057">
        <ele>79.7</ele>
        <time>2022-12-07T10:08:13Z</time>
      </trkpt>
      <trkpt lat="47.92457" lon="-3.90054">
        <ele>79.9</ele>
        <time>2022-12-07T10:08:14Z</time>
      </trkpt>
      <trkpt lat="47.92462" lon="-3.90051">
        <ele>80</ele>
        <time>2022-12-07T10:08:15Z</time>
      </trkpt>
      <trkpt lat="47.92467" lon="-3.90047">
        <ele>80.1</ele>
        <time>2022-12-07T10:08:16Z</time>
      </trkpt>
      <trkpt lat="47.92472" lon="-3.90044">
        <ele>80.2</ele>
        <time>2022-12-07T10:08:17Z</time>
      </trkpt>
      <trkpt lat="47.92476" lon="-3.90041">
        <ele>80.4</ele>
        <time>2022-12-07T10:08:18Z</time>
      </trkpt>
      <trkpt lat="47.92481" lon="-3.90037">
        <ele>80.5</ele>
        <time>2022-12-07T10:08:19Z</time>
      </trkpt>
      <trkpt lat="47.92486" lon="-3.90034">
        <ele>80.6</ele>
        <time>2022-12-07T10:08:20Z</time>
      </trkpt>
      <trkpt lat="47.92491" lon="-3.90031">
        <ele>80.7</ele>
        <time>2022-12-07T10:08:21Z</time>
      </trkpt>
      <trkpt lat="47.92496" lon="-3.90028">
        <ele>80.9</ele>
        <time>2022-12-07T10:08:22Z</time>
      </trkpt>
      <trkpt lat="47.92501" lon="-3.90025">
        <ele>81</ele>
        <time>2022-12-07T10:08:23Z</time>
      </trkpt>
      <trkpt lat="47.92505" lon="-3.90021">
        <ele>81.2</ele>
        <time>2022-12-07T10:08:24Z</time>
      </trkpt>
      <trkpt lat="47.9251" lon="-3.90018">
        <ele>81.3</ele>
        <time>2022-12-07T10:08:25Z</time>
      </trkpt>
      <trkpt lat="47.92515" lon="-3.90015">
        <ele>81.3</ele>
        <time>2022-12-07T10:08:26Z</time>
      </trkpt>
      <trkpt lat="47.9252" lon="-3.90011">
        <ele>81.4</ele>
        <time>2022-12-07T10:08:27Z</time>
      </trkpt>
      <trkpt lat="47.92525" lon="-3.90008">
        <ele>81.5</ele>
        <time>2022-12-07T10:08:28Z</time>
      </trkpt>
      <trkpt lat="47.9253" lon="-3.90005">
        <ele>81.7</ele>
        <time>2022-12-07T10:08:29Z</time>
      </trkpt>
      <trkpt lat="47.92535" lon="-3.90001">
        <ele>81.8</ele>
        <time>2022-12-07T10:08:30Z</time>
      </trkpt>
      <trkpt lat="47.9254" lon="-3.89997">
        <ele>81.9</ele>
        <time>2022-12-07T10:08:31Z</time>
      </trkpt>
      <trkpt lat="47.92545" lon="-3.89995">
        <ele>82</ele>
        <time>2022-12-07T10:08:32Z</time>
      </trkpt>
      <trkpt lat="47.9255" lon="-3.89992">
        <ele>82.2</ele>
        <time>2022-12-07T10:08:33Z</time>
      </trkpt>
      <trkpt lat="47.92555" lon="-3.8999">
        <ele>82.3</ele>
        <time>2022-12-07T10:08:34Z</time>
      </trkpt>
      <trkpt lat="47.9256" lon="-3.89987">
        <ele>82.4</ele>
        <time>2022-12-07T10:08:35Z</time>
      </trkpt>
      <trkpt lat="47.92565" lon="-3.89984">
        <ele>82.6</ele>
        <time>2022-12-07T10:08:36Z</time>
      </trkpt>
      <trkpt lat="47.9257" lon="-3.89981">
        <ele>82.7</ele>
        <time>2022-12-07T10:08:37Z</time>
      </trkpt>
      <trkpt lat="47.92575" lon="-3.89978">
        <ele>82.8</ele>
        <time>2022-12-07T10:08:38Z</time>
      </trkpt>
      <trkpt lat="47.9258" lon="-3.89974">
        <ele>82.9</ele>
        <time>2022-12-07T10:08:39Z</time>
      </trkpt>
      <trkpt lat="47.92585" lon="-3.89971">
        <ele>83</ele>
        <time>2022-12-07T10:08:40Z</time>
      </trkpt>
      <trkpt lat="47.9259" lon="-3.89968">
        <ele>83.1</ele>
        <time>2022-12-07T10:08:41Z</time>
      </trkpt>
      <trkpt lat="47.92594" lon="-3.89965">
        <ele>83.3</ele>
        <time>2022-12-07T10:08:42Z</time>
      </trkpt>
      <trkpt lat="47.92599" lon="-3.89961">
        <ele>83.4</ele>
        <time>2022-12-07T10:08:43Z</time>
      </trkpt>
      <trkpt lat="47.92604" lon="-3.89958">
        <ele>83.5</ele>
        <time>2022-12-07T10:08:44Z</time>
      </trkpt>
      <trkpt lat="47.92609" lon="-3.89955">
        <ele>83.6</ele>
        <time>2022-12-07T10:08:45Z</time>
      </trkpt>
      <trkpt lat="47.92614" lon="-3.89952">
        <ele>83.8</ele>
        <time>2022-12-07T10:08:46Z</time>
      </trkpt>
      <trkpt lat="47.92619" lon="-3.89948">
        <ele>83.9</ele>
        <time>2022-12-07T10:08:47Z</time>
      </trkpt>
      <trkpt lat="47.92624" lon="-3.89945">
        <ele>84</ele>
        <time>2022-12-07T10:08:48Z</time>
      </trkpt>
      <trkpt lat="47.92629" lon="-3.89942">
        <ele>84.2</ele>
        <time>2022-12-07T10:08:49Z</time>
      </trkpt>
      <trkpt lat="47.92633" lon="-3.89938">
        <ele>84.3</ele>
        <time>2022-12-07T10:08:50Z</time>
      </trkpt>
      <trkpt lat="47.92637" lon="-3.89935">
        <ele>84.5</ele>
        <time>2022-12-07T10:08:51Z</time>
      </trkpt>
      <trkpt lat="47.92642" lon="-3.89932">
        <ele>84.6</ele>
        <time>2022-12-07T10:08:52Z</time>
      </trkpt>
      <trkpt lat="47.92647" lon="-3.89929">
        <ele>84.7</ele>
        <time>2022-12-07T10:08:53Z</time>
      </trkpt>
      <trkpt lat="47.92652" lon="-3.89926">
        <ele>84.9</ele>
        <time>2022-12-07T10:08:54Z</time>
      </trkpt>
      <trkpt lat="47.92657" lon="-3.89923">
        <ele>85</ele>
        <time>2022-12-07T10:08:55Z</time>
      </trkpt>
      <trkpt lat="47.92661" lon="-3.89919">
        <ele>85.1</ele>
        <time>2022-12-07T10:08:56Z</time>
      </trkpt>
      <trkpt lat="47.92666" lon="-3.89916">
        <ele>85.2</ele>
        <time>2022-12-07T10:08:57Z</time>
      </trkpt>
      <trkpt lat="47.9267" lon="-3.89913">
        <ele>85.4</ele>
        <time>2022-12-07T10:08:58Z</time>
      </trkpt>
      <trkpt lat="47.92675" lon="-3.8991">
        <ele>85.5</ele>
        <time>2022-12-07T10:08:59Z</time>
      </trkpt>
      <trkpt lat="47.9268" lon="-3.89907">
        <ele>85.6</ele>
        <time>2022-12-07T10:09:00Z</time>
      </trkpt>
      <trkpt lat="47.92685" lon="-3.89904">
        <ele>85.8</ele>
        <time>2022-12-07T10:09:01Z</time>
      </trkpt>
      <trkpt lat="47.9269" lon="-3.89901">
        <ele>85.9</ele>
        <time>2022-12-07T10:09:02Z</time>
      </trkpt>
      <trkpt lat="47.92695" lon="-3.89898">
        <ele>86</ele>
        <time>2022-12-07T10:09:03Z</time>
      </trkpt>
      <trkpt lat="47.92699" lon="-3.89894">
        <ele>86.2</ele>
        <time>2022-12-07T10:09:04Z</time>
      </trkpt>
      <trkpt lat="47.92704" lon="-3.8989">
        <ele>86.3</ele>
        <time>2022-12-07T10:09:05Z</time>
      </trkpt>
      <trkpt lat="47.92709" lon="-3.89886">
        <ele>86.4</ele>
        <time>2022-12-07T10:09:06Z</time>
      </trkpt>
      <trkpt lat="47.92713" lon="-3.89882">
        <ele>86.5</ele>
        <time>2022-12-07T10:09:07Z</time>
      </trkpt>
      <trkpt lat="47.92718" lon="-3.89879">
        <ele>86.5</ele>
        <time>2022-12-07T10:09:08Z</time>
      </trkpt>
      <trkpt lat="47.92722" lon="-3.89875">
        <ele>86.6</ele>
        <time>2022-12-07T10:09:09Z</time>
      </trkpt>
      <trkpt lat="47.92726" lon="-3.89871">
        <ele>86.6</ele>
        <time>2022-12-07T10:09:10Z</time>
      </trkpt>
      <trkpt lat="47.9273" lon="-3.89868">
        <ele>86.6</ele>
        <time>2022-12-07T10:09:11Z</time>
      </trkpt>
      <trkpt lat="47.92735" lon="-3.89864">
        <ele>86.7</ele>
        <time>2022-12-07T10:09:12Z</time>
      </trkpt>
      <trkpt lat="47.92739" lon="-3.89861">
        <ele>86.8</ele>
        <time>2022-12-07T10:09:13Z</time>
      </trkpt>
      <trkpt lat="47.92745" lon="-3.89855">
        <ele>87</ele>
        <time>2022-12-07T10:09:14Z</time>
      </trkpt>
      <trkpt lat="47.9275" lon="-3.89852">
        <ele>87.1</ele>
        <time>2022-12-07T10:09:15Z</time>
      </trkpt>
      <trkpt lat="47.92755" lon="-3.89848">
        <ele>87.2</ele>
        <time>2022-12-07T10:09:16Z</time>
      </trkpt>
      <trkpt lat="47.9276" lon="-3.89844">
        <ele>87.3</ele>
        <time>2022-12-07T10:09:17Z</time>
      </trkpt>
      <trkpt lat="47.92764" lon="-3.8984">
        <ele>87.4</ele>
        <time>2022-12-07T10:09:18Z</time>
      </trkpt>
      <trkpt lat="47.92768" lon="-3.89836">
        <ele>87.5</ele>
        <time>2022-12-07T10:09:19Z</time>
      </trkpt>
      <trkpt lat="47.92772" lon="-3.89832">
        <ele>87.6</ele>
        <time>2022-12-07T10:09:20Z</time>
      </trkpt>
      <trkpt lat="47.92777" lon="-3.89828">
        <ele>87.8</ele>
        <time>2022-12-07T10:09:21Z</time>
      </trkpt>
      <trkpt lat="47.92781" lon="-3.89824">
        <ele>87.9</ele>
        <time>2022-12-07T10:09:22Z</time>
      </trkpt>
      <trkpt lat="47.92786" lon="-3.89819">
        <ele>88</ele>
        <time>2022-12-07T10:09:23Z</time>
      </trkpt>
      <trkpt lat="47.9279" lon="-3.89815">
        <ele>88.1</ele>
        <time>2022-12-07T10:09:24Z</time>
      </trkpt>
      <trkpt lat="47.92795" lon="-3.89811">
        <ele>88.3</ele>
        <time>2022-12-07T10:09:25Z</time>
      </trkpt>
      <trkpt lat="47.92799" lon="-3.89808">
        <ele>88.4</ele>
        <time>2022-12-07T10:09:26Z</time>
      </trkpt>
      <trkpt lat="47.92804" lon="-3.89805">
        <ele>88.5</ele>
        <time>2022-12-07T10:09:27Z</time>
      </trkpt>
      <trkpt lat="47.92809" lon="-3.89801">
        <ele>88.6</ele>
        <time>2022-12-07T10:09:28Z</time>
      </trkpt>
      <trkpt lat="47.92813" lon="-3.89796">
        <ele>88.7</ele>
        <time>2022-12-07T10:09:29Z</time>
      </trkpt>
      <trkpt lat="47.92818" lon="-3.89792">
        <ele>88.8</ele>
        <time>2022-12-07T10:09:30Z</time>
      </trkpt>
      <trkpt lat="47.92822" lon="-3.89788">
        <ele>88.9</ele>
        <time>2022-12-07T10:09:31Z</time>
      </trkpt>
      <trkpt lat="47.92827" lon="-3.89784">
        <ele>89.1</ele>
        <time>2022-12-07T10:09:32Z</time>
      </trkpt>
      <trkpt lat="47.92831" lon="-3.8978">
        <ele>89.2</ele>
        <time>2022-12-07T10:09:33Z</time>
      </trkpt>
      <trkpt lat="47.92835" lon="-3.89776">
        <ele>89.3</ele>
        <time>2022-12-07T10:09:34Z</time>
      </trkpt>
      <trkpt lat="47.9284" lon="-3.89772">
        <ele>89.4</ele>
        <time>2022-12-07T10:09:35Z</time>
      </trkpt>
      <trkpt lat="47.92844" lon="-3.89769">
        <ele>89.5</ele>
        <time>2022-12-07T10:09:36Z</time>
      </trkpt>
      <trkpt lat="47.92848" lon="-3.89766">
        <ele>89.6</ele>
        <time>2022-12-07T10:09:37Z</time>
      </trkpt>
      <trkpt lat="47.92852" lon="-3.89762">
        <ele>89.7</ele>
        <time>2022-12-07T10:09:38Z</time>
      </trkpt>
      <trkpt lat="47.92856" lon="-3.89758">
        <ele>89.8</ele>
        <time>2022-12-07T10:09:39Z</time>
      </trkpt>
      <trkpt lat="47.92861" lon="-3.89755">
        <ele>89.8</ele>
        <time>2022-12-07T10:09:40Z</time>
      </trkpt>
      <trkpt lat="47.92865" lon="-3.89751">
        <ele>89.9</ele>
        <time>2022-12-07T10:09:41Z</time>
      </trkpt>
      <trkpt lat="47.9287" lon="-3.89747">
        <ele>90</ele>
        <time>2022-12-07T10:09:42Z</time>
      </trkpt>
      <trkpt lat="47.92874" lon="-3.89744">
        <ele>90.1</ele>
        <time>2022-12-07T10:09:43Z</time>
      </trkpt>
      <trkpt lat="47.92879" lon="-3.8974">
        <ele>90.2</ele>
        <time>2022-12-07T10:09:44Z</time>
      </trkpt>
      <trkpt lat="47.92883" lon="-3.89736">
        <ele>90.4</ele>
        <time>2022-12-07T10:09:45Z</time>
      </trkpt>
      <trkpt lat="47.92887" lon="-3.89732">
        <ele>90.5</ele>
        <time>2022-12-07T10:09:46Z</time>
      </trkpt>
      <trkpt lat="47.92891" lon="-3.89729">
        <ele>90.6</ele>
        <time>2022-12-07T10:09:47Z</time>
      </trkpt>
      <trkpt lat="47.92895" lon="-3.89726">
        <ele>90.7</ele>
        <time>2022-12-07T10:09:48Z</time>
      </trkpt>
      <trkpt lat="47.92899" lon="-3.89722">
        <ele>90.8</ele>
        <time>2022-12-07T10:09:49Z</time>
      </trkpt>
      <trkpt lat="47.92904" lon="-3.89717">
        <ele>90.9</ele>
        <time>2022-12-07T10:09:50Z</time>
      </trkpt>
      <trkpt lat="47.92908" lon="-3.89713">
        <ele>91.1</ele>
        <time>2022-12-07T10:09:51Z</time>
      </trkpt>
      <trkpt lat="47.92912" lon="-3.89709">
        <ele>91.2</ele>
        <time>2022-12-07T10:09:52Z</time>
      </trkpt>
      <trkpt lat="47.92917" lon="-3.89705">
        <ele>91.3</ele>
        <time>2022-12-07T10:09:53Z</time>
      </trkpt>
      <trkpt lat="47.92921" lon="-3.89702">
        <ele>91.5</ele>
        <time>2022-12-07T10:09:54Z</time>
      </trkpt>
      <trkpt lat="47.92925" lon="-3.89697">
        <ele>91.6</ele>
        <time>2022-12-07T10:09:55Z</time>
      </trkpt>
      <trkpt lat="47.9293" lon="-3.89693">
        <ele>91.7</ele>
        <time>2022-12-07T10:09:56Z</time>
      </trkpt>
      <trkpt lat="47.92934" lon="-3.8969">
        <ele>91.8</ele>
        <time>2022-12-07T10:09:57Z</time>
      </trkpt>
      <trkpt lat="47.92938" lon="-3.89686">
        <ele>91.9</ele>
        <time>2022-12-07T10:09:58Z</time>
      </trkpt>
      <trkpt lat="47.92942" lon="-3.89683">
        <ele>92.1</ele>
        <time>2022-12-07T10:09:59Z</time>
      </trkpt>
      <trkpt lat="47.92946" lon="-3.89678">
        <ele>92.2</ele>
        <time>2022-12-07T10:10:00Z</time>
      </trkpt>
      <trkpt lat="47.9295" lon="-3.89675">
        <ele>92.3</ele>
        <time>2022-12-07T10:10:01Z</time>
      </trkpt>
      <trkpt lat="47.92954" lon="-3.89671">
        <ele>92.5</ele>
        <time>2022-12-07T10:10:02Z</time>
      </trkpt>
      <trkpt lat="47.92958" lon="-3.89667">
        <ele>92.6</ele>
        <time>2022-12-07T10:10:03Z</time>
      </trkpt>
      <trkpt lat="47.92963" lon="-3.89664">
        <ele>92.7</ele>
        <time>2022-12-07T10:10:04Z</time>
      </trkpt>
      <trkpt lat="47.92967" lon="-3.89662">
        <ele>92.8</ele>
        <time>2022-12-07T10:10:05Z</time>
      </trkpt>
      <trkpt lat="47.92971" lon="-3.8966">
        <ele>92.8</ele>
        <time>2022-12-07T10:10:06Z</time>
      </trkpt>
      <trkpt lat="47.92974" lon="-3.89658">
        <ele>92.8</ele>
        <time>2022-12-07T10:10:07Z</time>
      </trkpt>
      <trkpt lat="47.9298" lon="-3.89657">
        <ele>93</ele>
        <time>2022-12-07T10:10:08Z</time>
      </trkpt>
      <trkpt lat="47.92985" lon="-3.89658">
        <ele>93.1</ele>
        <time>2022-12-07T10:10:09Z</time>
      </trkpt>
      <trkpt lat="47.92987" lon="-3.89657">
        <ele>93.2</ele>
        <time>2022-12-07T10:10:10Z</time>
      </trkpt>
      <trkpt lat="47.92992" lon="-3.89653">
        <ele>93.4</ele>
        <time>2022-12-07T10:10:11Z</time>
      </trkpt>
      <trkpt lat="47.92994" lon="-3.89649">
        <ele>93.5</ele>
        <time>2022-12-07T10:10:12Z</time>
      </trkpt>
      <trkpt lat="47.92999" lon="-3.89644">
        <ele>93.7</ele>
        <time>2022-12-07T10:10:13Z</time>
      </trkpt>
      <trkpt lat="47.93003" lon="-3.89641">
        <ele>93.8</ele>
        <time>2022-12-07T10:10:14Z</time>
      </trkpt>
      <trkpt lat="47.93007" lon="-3.89637">
        <ele>94</ele>
        <time>2022-12-07T10:10:15Z</time>
      </trkpt>
      <trkpt lat="47.93011" lon="-3.89635">
        <ele>94.2</ele>
        <time>2022-12-07T10:10:16Z</time>
      </trkpt>
      <trkpt lat="47.93012" lon="-3.89632">
        <ele>94.2</ele>
        <time>2022-12-07T10:10:17Z</time>
      </trkpt>
      <trkpt lat="47.93019" lon="-3.89628">
        <ele>94.5</ele>
        <time>2022-12-07T10:10:19Z</time>
      </trkpt>
      <trkpt lat="47.93025" lon="-3.89624">
        <ele>94.7</ele>
        <time>2022-12-07T10:10:20Z</time>
      </trkpt>
      <trkpt lat="47.93029" lon="-3.89621">
        <ele>94.8</ele>
        <time>2022-12-07T10:10:21Z</time>
      </trkpt>
      <trkpt lat="47.93036" lon="-3.89614">
        <ele>95.1</ele>
        <time>2022-12-07T10:10:23Z</time>
      </trkpt>
      <trkpt lat="47.93042" lon="-3.89609">
        <ele>95.3</ele>
        <time>2022-12-07T10:10:24Z</time>
      </trkpt>
      <trkpt lat="47.93046" lon="-3.89605">
        <ele>95.5</ele>
        <time>2022-12-07T10:10:25Z</time>
      </trkpt>
      <trkpt lat="47.9305" lon="-3.89601">
        <ele>95.7</ele>
        <time>2022-12-07T10:10:26Z</time>
      </trkpt>
      <trkpt lat="47.93054" lon="-3.89597">
        <ele>95.8</ele>
        <time>2022-12-07T10:10:27Z</time>
      </trkpt>
      <trkpt lat="47.93058" lon="-3.89594">
        <ele>96</ele>
        <time>2022-12-07T10:10:28Z</time>
      </trkpt>
      <trkpt lat="47.93062" lon="-3.89591">
        <ele>96.1</ele>
        <time>2022-12-07T10:10:29Z</time>
      </trkpt>
      <trkpt lat="47.93066" lon="-3.89588">
        <ele>96.3</ele>
        <time>2022-12-07T10:10:30Z</time>
      </trkpt>
      <trkpt lat="47.93069" lon="-3.89586">
        <ele>96.4</ele>
        <time>2022-12-07T10:10:31Z</time>
      </trkpt>
      <trkpt lat="47.9307" lon="-3.89585">
        <ele>96.5</ele>
        <time>2022-12-07T10:10:32Z</time>
      </trkpt>
      <trkpt lat="47.93078" lon="-3.89577">
        <ele>96.8</ele>
        <time>2022-12-07T10:10:34Z</time>
      </trkpt>
      <trkpt lat="47.93084" lon="-3.89571">
        <ele>97</ele>
        <time>2022-12-07T10:10:35Z</time>
      </trkpt>
      <trkpt lat="47.93087" lon="-3.89567">
        <ele>97.2</ele>
        <time>2022-12-07T10:10:36Z</time>
      </trkpt>
      <trkpt lat="47.93093" lon="-3.89561">
        <ele>97.5</ele>
        <time>2022-12-07T10:10:37Z</time>
      </trkpt>
      <trkpt lat="47.93097" lon="-3.89558">
        <ele>97.6</ele>
        <time>2022-12-07T10:10:39Z</time>
      </trkpt>
      <trkpt lat="47.93101" lon="-3.89554">
        <ele>97.8</ele>
        <time>2022-12-07T10:10:40Z</time>
      </trkpt>
      <trkpt lat="47.93106" lon="-3.89548">
        <ele>98</ele>
        <time>2022-12-07T10:10:41Z</time>
      </trkpt>
      <trkpt lat="47.9311" lon="-3.89544">
        <ele>98.1</ele>
        <time>2022-12-07T10:10:42Z</time>
      </trkpt>
      <trkpt lat="47.93114" lon="-3.89542">
        <ele>98.3</ele>
        <time>2022-12-07T10:10:43Z</time>
      </trkpt>
      <trkpt lat="47.93119" lon="-3.8954">
        <ele>98.4</ele>
        <time>2022-12-07T10:10:44Z</time>
      </trkpt>
      <trkpt lat="47.93124" lon="-3.89539">
        <ele>98.6</ele>
        <time>2022-12-07T10:10:45Z</time>
      </trkpt>
      <trkpt lat="47.93129" lon="-3.89538">
        <ele>98.7</ele>
        <time>2022-12-07T10:10:46Z</time>
      </trkpt>
      <trkpt lat="47.93134" lon="-3.89539">
        <ele>98.9</ele>
        <time>2022-12-07T10:10:47Z</time>
      </trkpt>
      <trkpt lat="47.93137" lon="-3.89541">
        <ele>99</ele>
        <time>2022-12-07T10:10:48Z</time>
      </trkpt>
      <trkpt lat="47.93141" lon="-3.89544">
        <ele>99.2</ele>
        <time>2022-12-07T10:10:49Z</time>
      </trkpt>
      <trkpt lat="47.93143" lon="-3.89545">
        <ele>99.2</ele>
        <time>2022-12-07T10:10:50Z</time>
      </trkpt>
      <trkpt lat="47.9315" lon="-3.89548">
        <ele>99.5</ele>
        <time>2022-12-07T10:10:52Z</time>
      </trkpt>
      <trkpt lat="47.93156" lon="-3.8955">
        <ele>99.6</ele>
        <time>2022-12-07T10:10:53Z</time>
      </trkpt>
      <trkpt lat="47.9316" lon="-3.89553">
        <ele>99.8</ele>
        <time>2022-12-07T10:10:54Z</time>
      </trkpt>
      <trkpt lat="47.93165" lon="-3.89556">
        <ele>99.9</ele>
        <time>2022-12-07T10:10:55Z</time>
      </trkpt>
      <trkpt lat="47.93171" lon="-3.89558">
        <ele>100.1</ele>
        <time>2022-12-07T10:10:56Z</time>
      </trkpt>
      <trkpt lat="47.93175" lon="-3.8956">
        <ele>100.2</ele>
        <time>2022-12-07T10:10:57Z</time>
      </trkpt>
      <trkpt lat="47.9318" lon="-3.89563">
        <ele>100.3</ele>
        <time>2022-12-07T10:10:59Z</time>
      </trkpt>
      <trkpt lat="47.93187" lon="-3.89566">
        <ele>100.5</ele>
        <time>2022-12-07T10:11:00Z</time>
      </trkpt>
      <trkpt lat="47.93193" lon="-3.89568">
        <ele>100.7</ele>
        <time>2022-12-07T10:11:01Z</time>
      </trkpt>
      <trkpt lat="47.93196" lon="-3.8957">
        <ele>100.7</ele>
        <time>2022-12-07T10:11:02Z</time>
      </trkpt>
      <trkpt lat="47.932" lon="-3.89573">
        <ele>100.8</ele>
        <time>2022-12-07T10:11:03Z</time>
      </trkpt>
      <trkpt lat="47.93203" lon="-3.89576">
        <ele>100.9</ele>
        <time>2022-12-07T10:11:04Z</time>
      </trkpt>
      <trkpt lat="47.93214" lon="-3.89579">
        <ele>101.1</ele>
        <time>2022-12-07T10:11:06Z</time>
      </trkpt>
      <trkpt lat="47.93218" lon="-3.89582">
        <ele>101.1</ele>
        <time>2022-12-07T10:11:07Z</time>
      </trkpt>
      <trkpt lat="47.93227" lon="-3.89583">
        <ele>101.3</ele>
        <time>2022-12-07T10:11:09Z</time>
      </trkpt>
      <trkpt lat="47.93232" lon="-3.89585">
        <ele>101.3</ele>
        <time>2022-12-07T10:11:10Z</time>
      </trkpt>
      <trkpt lat="47.93236" lon="-3.89587">
        <ele>101.4</ele>
        <time>2022-12-07T10:11:11Z</time>
      </trkpt>
      <trkpt lat="47.9324" lon="-3.89587">
        <ele>101.4</ele>
        <time>2022-12-07T10:11:12Z</time>
      </trkpt>
      <trkpt lat="47.93246" lon="-3.89589">
        <ele>101.5</ele>
        <time>2022-12-07T10:11:13Z</time>
      </trkpt>
      <trkpt lat="47.93251" lon="-3.89591">
        <ele>101.6</ele>
        <time>2022-12-07T10:11:14Z</time>
      </trkpt>
      <trkpt lat="47.93256" lon="-3.89592">
        <ele>101.6</ele>
        <time>2022-12-07T10:11:15Z</time>
      </trkpt>
      <trkpt lat="47.93261" lon="-3.89593">
        <ele>101.6</ele>
        <time>2022-12-07T10:11:16Z</time>
      </trkpt>
      <trkpt lat="47.93266" lon="-3.89594">
        <ele>101.6</ele>
        <time>2022-12-07T10:11:17Z</time>
      </trkpt>
      <trkpt lat="47.93271" lon="-3.89594">
        <ele>101.5</ele>
        <time>2022-12-07T10:11:18Z</time>
      </trkpt>
      <trkpt lat="47.93277" lon="-3.89594">
        <ele>101.4</ele>
        <time>2022-12-07T10:11:19Z</time>
      </trkpt>
      <trkpt lat="47.93282" lon="-3.89594">
        <ele>101.3</ele>
        <time>2022-12-07T10:11:20Z</time>
      </trkpt>
      <trkpt lat="47.93288" lon="-3.89594">
        <ele>101.2</ele>
        <time>2022-12-07T10:11:21Z</time>
      </trkpt>
      <trkpt lat="47.93294" lon="-3.89594">
        <ele>101</ele>
        <time>2022-12-07T10:11:22Z</time>
      </trkpt>
      <trkpt lat="47.933" lon="-3.89593">
        <ele>100.9</ele>
        <time>2022-12-07T10:11:23Z</time>
      </trkpt>
      <trkpt lat="47.93305" lon="-3.89592">
        <ele>100.7</ele>
        <time>2022-12-07T10:11:24Z</time>
      </trkpt>
      <trkpt lat="47.93311" lon="-3.89591">
        <ele>100.5</ele>
        <time>2022-12-07T10:11:25Z</time>
      </trkpt>
      <trkpt lat="47.93317" lon="-3.8959">
        <ele>100.4</ele>
        <time>2022-12-07T10:11:26Z</time>
      </trkpt>
      <trkpt lat="47.93324" lon="-3.89588">
        <ele>100.2</ele>
        <time>2022-12-07T10:11:27Z</time>
      </trkpt>
      <trkpt lat="47.93331" lon="-3.89586">
        <ele>100</ele>
        <time>2022-12-07T10:11:28Z</time>
      </trkpt>
      <trkpt lat="47.93337" lon="-3.89584">
        <ele>99.8</ele>
        <time>2022-12-07T10:11:29Z</time>
      </trkpt>
      <trkpt lat="47.93342" lon="-3.89582">
        <ele>99.7</ele>
        <time>2022-12-07T10:11:30Z</time>
      </trkpt>
      <trkpt lat="47.93348" lon="-3.89579">
        <ele>99.6</ele>
        <time>2022-12-07T10:11:31Z</time>
      </trkpt>
      <trkpt lat="47.93354" lon="-3.89576">
        <ele>99.6</ele>
        <time>2022-12-07T10:11:32Z</time>
      </trkpt>
      <trkpt lat="47.9336" lon="-3.89572">
        <ele>99.5</ele>
        <time>2022-12-07T10:11:33Z</time>
      </trkpt>
      <trkpt lat="47.93366" lon="-3.89568">
        <ele>99.5</ele>
        <time>2022-12-07T10:11:34Z</time>
      </trkpt>
      <trkpt lat="47.93371" lon="-3.89564">
        <ele>99.5</ele>
        <time>2022-12-07T10:11:35Z</time>
      </trkpt>
      <trkpt lat="47.93377" lon="-3.89561">
        <ele>99.5</ele>
        <time>2022-12-07T10:11:36Z</time>
      </trkpt>
      <trkpt lat="47.93383" lon="-3.89557">
        <ele>99.5</ele>
        <time>2022-12-07T10:11:37Z</time>
      </trkpt>
      <trkpt lat="47.93388" lon="-3.89554">
        <ele>99.6</ele>
        <time>2022-12-07T10:11:38Z</time>
      </trkpt>
      <trkpt lat="47.93393" lon="-3.89551">
        <ele>99.6</ele>
        <time>2022-12-07T10:11:39Z</time>
      </trkpt>
      <trkpt lat="47.93399" lon="-3.89548">
        <ele>99.7</ele>
        <time>2022-12-07T10:11:40Z</time>
      </trkpt>
      <trkpt lat="47.93403" lon="-3.89544">
        <ele>99.8</ele>
        <time>2022-12-07T10:11:41Z</time>
      </trkpt>
      <trkpt lat="47.93408" lon="-3.8954">
        <ele>99.9</ele>
        <time>2022-12-07T10:11:42Z</time>
      </trkpt>
      <trkpt lat="47.93413" lon="-3.89537">
        <ele>100</ele>
        <time>2022-12-07T10:11:43Z</time>
      </trkpt>
      <trkpt lat="47.93417" lon="-3.89534">
        <ele>100.1</ele>
        <time>2022-12-07T10:11:44Z</time>
      </trkpt>
      <trkpt lat="47.93422" lon="-3.89532">
        <ele>100.3</ele>
        <time>2022-12-07T10:11:45Z</time>
      </trkpt>
      <trkpt lat="47.93428" lon="-3.8953">
        <ele>100.4</ele>
        <time>2022-12-07T10:11:46Z</time>
      </trkpt>
      <trkpt lat="47.93433" lon="-3.89529">
        <ele>100.6</ele>
        <time>2022-12-07T10:11:47Z</time>
      </trkpt>
      <trkpt lat="47.93437" lon="-3.89528">
        <ele>100.7</ele>
        <time>2022-12-07T10:11:48Z</time>
      </trkpt>
      <trkpt lat="47.93441" lon="-3.89527">
        <ele>100.8</ele>
        <time>2022-12-07T10:11:49Z</time>
      </trkpt>
      <trkpt lat="47.93445" lon="-3.89527">
        <ele>101</ele>
        <time>2022-12-07T10:11:50Z</time>
      </trkpt>
      <trkpt lat="47.93451" lon="-3.89527">
        <ele>101.1</ele>
        <time>2022-12-07T10:11:51Z</time>
      </trkpt>
      <trkpt lat="47.93457" lon="-3.89526">
        <ele>101.2</ele>
        <time>2022-12-07T10:11:52Z</time>
      </trkpt>
      <trkpt lat="47.93462" lon="-3.89526">
        <ele>101.3</ele>
        <time>2022-12-07T10:11:53Z</time>
      </trkpt>
      <trkpt lat="47.93467" lon="-3.89526">
        <ele>101.4</ele>
        <time>2022-12-07T10:11:54Z</time>
      </trkpt>
      <trkpt lat="47.93471" lon="-3.89526">
        <ele>101.4</ele>
        <time>2022-12-07T10:11:55Z</time>
      </trkpt>
      <trkpt lat="47.93474" lon="-3.89528">
        <ele>101.4</ele>
        <time>2022-12-07T10:11:56Z</time>
      </trkpt>
      <trkpt lat="47.93475" lon="-3.89529">
        <ele>101.5</ele>
        <time>2022-12-07T10:11:57Z</time>
      </trkpt>
      <trkpt lat="47.93482" lon="-3.8953">
        <ele>101.5</ele>
        <time>2022-12-07T10:11:58Z</time>
      </trkpt>
      <trkpt lat="47.93488" lon="-3.89532">
        <ele>101.4</ele>
        <time>2022-12-07T10:11:59Z</time>
      </trkpt>
      <trkpt lat="47.93495" lon="-3.89534">
        <ele>101.3</ele>
        <time>2022-12-07T10:12:00Z</time>
      </trkpt>
      <trkpt lat="47.93499" lon="-3.89537">
        <ele>101.2</ele>
        <time>2022-12-07T10:12:01Z</time>
      </trkpt>
      <trkpt lat="47.93503" lon="-3.89542">
        <ele>101</ele>
        <time>2022-12-07T10:12:02Z</time>
      </trkpt>
      <trkpt lat="47.93508" lon="-3.89546">
        <ele>100.8</ele>
        <time>2022-12-07T10:12:03Z</time>
      </trkpt>
      <trkpt lat="47.93514" lon="-3.8955">
        <ele>100.5</ele>
        <time>2022-12-07T10:12:04Z</time>
      </trkpt>
      <trkpt lat="47.93519" lon="-3.89556">
        <ele>100.2</ele>
        <time>2022-12-07T10:12:05Z</time>
      </trkpt>
      <trkpt lat="47.93525" lon="-3.89561">
        <ele>99.9</ele>
        <time>2022-12-07T10:12:06Z</time>
      </trkpt>
      <trkpt lat="47.9353" lon="-3.89567">
        <ele>99.5</ele>
        <time>2022-12-07T10:12:07Z</time>
      </trkpt>
      <trkpt lat="47.93537" lon="-3.89572">
        <ele>99</ele>
        <time>2022-12-07T10:12:08Z</time>
      </trkpt>
      <trkpt lat="47.93544" lon="-3.89577">
        <ele>98.5</ele>
        <time>2022-12-07T10:12:09Z</time>
      </trkpt>
      <trkpt lat="47.93551" lon="-3.89583">
        <ele>98</ele>
        <time>2022-12-07T10:12:10Z</time>
      </trkpt>
      <trkpt lat="47.93557" lon="-3.89588">
        <ele>97.5</ele>
        <time>2022-12-07T10:12:11Z</time>
      </trkpt>
      <trkpt lat="47.93565" lon="-3.89594">
        <ele>96.9</ele>
        <time>2022-12-07T10:12:12Z</time>
      </trkpt>
      <trkpt lat="47.93571" lon="-3.896">
        <ele>96.3</ele>
        <time>2022-12-07T10:12:13Z</time>
      </trkpt>
      <trkpt lat="47.93578" lon="-3.89605">
        <ele>95.6</ele>
        <time>2022-12-07T10:12:14Z</time>
      </trkpt>
      <trkpt lat="47.93585" lon="-3.89611">
        <ele>94.9</ele>
        <time>2022-12-07T10:12:15Z</time>
      </trkpt>
      <trkpt lat="47.93594" lon="-3.89616">
        <ele>94</ele>
        <time>2022-12-07T10:12:16Z</time>
      </trkpt>
      <trkpt lat="47.93604" lon="-3.8962">
        <ele>93</ele>
        <time>2022-12-07T10:12:17Z</time>
      </trkpt>
      <trkpt lat="47.93613" lon="-3.89621">
        <ele>92</ele>
        <time>2022-12-07T10:12:18Z</time>
      </trkpt>
      <trkpt lat="47.93623" lon="-3.89621">
        <ele>91</ele>
        <time>2022-12-07T10:12:19Z</time>
      </trkpt>
      <trkpt lat="47.93631" lon="-3.8962">
        <ele>90</ele>
        <time>2022-12-07T10:12:20Z</time>
      </trkpt>
      <trkpt lat="47.93642" lon="-3.89618">
        <ele>88.9</ele>
        <time>2022-12-07T10:12:21Z</time>
      </trkpt>
      <trkpt lat="47.93653" lon="-3.89614">
        <ele>87.8</ele>
        <time>2022-12-07T10:12:22Z</time>
      </trkpt>
      <trkpt lat="47.93664" lon="-3.8961">
        <ele>86.9</ele>
        <time>2022-12-07T10:12:23Z</time>
      </trkpt>
      <trkpt lat="47.93674" lon="-3.89607">
        <ele>86.1</ele>
        <time>2022-12-07T10:12:24Z</time>
      </trkpt>
      <trkpt lat="47.93684" lon="-3.89603">
        <ele>85.5</ele>
        <time>2022-12-07T10:12:25Z</time>
      </trkpt>
      <trkpt lat="47.93694" lon="-3.89598">
        <ele>85</ele>
        <time>2022-12-07T10:12:26Z</time>
      </trkpt>
      <trkpt lat="47.93703" lon="-3.89593">
        <ele>84.6</ele>
        <time>2022-12-07T10:12:27Z</time>
      </trkpt>
      <trkpt lat="47.93712" lon="-3.89589">
        <ele>84.2</ele>
        <time>2022-12-07T10:12:28Z</time>
      </trkpt>
      <trkpt lat="47.93721" lon="-3.89585">
        <ele>84</ele>
        <time>2022-12-07T10:12:29Z</time>
      </trkpt>
      <trkpt lat="47.9373" lon="-3.89583">
        <ele>83.7</ele>
        <time>2022-12-07T10:12:30Z</time>
      </trkpt>
      <trkpt lat="47.9374" lon="-3.89581">
        <ele>83.5</ele>
        <time>2022-12-07T10:12:31Z</time>
      </trkpt>
      <trkpt lat="47.93749" lon="-3.8958">
        <ele>83.3</ele>
        <time>2022-12-07T10:12:32Z</time>
      </trkpt>
      <trkpt lat="47.93757" lon="-3.8958">
        <ele>83.1</ele>
        <time>2022-12-07T10:12:33Z</time>
      </trkpt>
      <trkpt lat="47.93766" lon="-3.8958">
        <ele>83</ele>
        <time>2022-12-07T10:12:34Z</time>
      </trkpt>
      <trkpt lat="47.93774" lon="-3.89581">
        <ele>82.8</ele>
        <time>2022-12-07T10:12:35Z</time>
      </trkpt>
      <trkpt lat="47.93782" lon="-3.89583">
        <ele>82.6</ele>
        <time>2022-12-07T10:12:36Z</time>
      </trkpt>
      <trkpt lat="47.9379" lon="-3.89586">
        <ele>82.4</ele>
        <time>2022-12-07T10:12:37Z</time>
      </trkpt>
      <trkpt lat="47.93798" lon="-3.8959">
        <ele>82.2</ele>
        <time>2022-12-07T10:12:38Z</time>
      </trkpt>
      <trkpt lat="47.93806" lon="-3.89594">
        <ele>81.9</ele>
        <time>2022-12-07T10:12:39Z</time>
      </trkpt>
      <trkpt lat="47.93813" lon="-3.89597">
        <ele>81.8</ele>
        <time>2022-12-07T10:12:40Z</time>
      </trkpt>
      <trkpt lat="47.9382" lon="-3.89599">
        <ele>81.6</ele>
        <time>2022-12-07T10:12:41Z</time>
      </trkpt>
      <trkpt lat="47.93828" lon="-3.89601">
        <ele>81.5</ele>
        <time>2022-12-07T10:12:42Z</time>
      </trkpt>
      <trkpt lat="47.93836" lon="-3.89602">
        <ele>81.4</ele>
        <time>2022-12-07T10:12:43Z</time>
      </trkpt>
      <trkpt lat="47.93843" lon="-3.896">
        <ele>81.2</ele>
        <time>2022-12-07T10:12:44Z</time>
      </trkpt>
      <trkpt lat="47.9385" lon="-3.89596">
        <ele>81.1</ele>
        <time>2022-12-07T10:12:45Z</time>
      </trkpt>
      <trkpt lat="47.93856" lon="-3.8959">
        <ele>81.1</ele>
        <time>2022-12-07T10:12:46Z</time>
      </trkpt>
      <trkpt lat="47.93861" lon="-3.89585">
        <ele>81</ele>
        <time>2022-12-07T10:12:47Z</time>
      </trkpt>
      <trkpt lat="47.93866" lon="-3.89579">
        <ele>81</ele>
        <time>2022-12-07T10:12:48Z</time>
      </trkpt>
      <trkpt lat="47.93872" lon="-3.89575">
        <ele>81</ele>
        <time>2022-12-07T10:12:49Z</time>
      </trkpt>
      <trkpt lat="47.93877" lon="-3.89571">
        <ele>81.1</ele>
        <time>2022-12-07T10:12:50Z</time>
      </trkpt>
      <trkpt lat="47.93882" lon="-3.89567">
        <ele>81.2</ele>
        <time>2022-12-07T10:12:51Z</time>
      </trkpt>
      <trkpt lat="47.93887" lon="-3.89563">
        <ele>81.3</ele>
        <time>2022-12-07T10:12:52Z</time>
      </trkpt>
      <trkpt lat="47.93893" lon="-3.89561">
        <ele>81.4</ele>
        <time>2022-12-07T10:12:53Z</time>
      </trkpt>
      <trkpt lat="47.93898" lon="-3.89559">
        <ele>81.5</ele>
        <time>2022-12-07T10:12:54Z</time>
      </trkpt>
      <trkpt lat="47.93904" lon="-3.89557">
        <ele>81.6</ele>
        <time>2022-12-07T10:12:55Z</time>
      </trkpt>
      <trkpt lat="47.93909" lon="-3.89557">
        <ele>81.8</ele>
        <time>2022-12-07T10:12:56Z</time>
      </trkpt>
      <trkpt lat="47.93914" lon="-3.89556">
        <ele>81.9</ele>
        <time>2022-12-07T10:12:57Z</time>
      </trkpt>
      <trkpt lat="47.93919" lon="-3.89555">
        <ele>82.1</ele>
        <time>2022-12-07T10:12:58Z</time>
      </trkpt>
      <trkpt lat="47.93923" lon="-3.89556">
        <ele>82.2</ele>
        <time>2022-12-07T10:12:59Z</time>
      </trkpt>
      <trkpt lat="47.93927" lon="-3.89558">
        <ele>82.3</ele>
        <time>2022-12-07T10:13:00Z</time>
      </trkpt>
      <trkpt lat="47.93928" lon="-3.89558">
        <ele>82.4</ele>
        <time>2022-12-07T10:13:01Z</time>
      </trkpt>
      <trkpt lat="47.93933" lon="-3.8956">
        <ele>82.6</ele>
        <time>2022-12-07T10:13:02Z</time>
      </trkpt>
      <trkpt lat="47.93938" lon="-3.89562">
        <ele>82.8</ele>
        <time>2022-12-07T10:13:03Z</time>
      </trkpt>
      <trkpt lat="47.93942" lon="-3.89563">
        <ele>83.1</ele>
        <time>2022-12-07T10:13:04Z</time>
      </trkpt>
      <trkpt lat="47.93945" lon="-3.89564">
        <ele>83.2</ele>
        <time>2022-12-07T10:13:05Z</time>
      </trkpt>
      <trkpt lat="47.9395" lon="-3.89566">
        <ele>83.5</ele>
        <time>2022-12-07T10:13:06Z</time>
      </trkpt>
      <trkpt lat="47.93954" lon="-3.89569">
        <ele>83.8</ele>
        <time>2022-12-07T10:13:07Z</time>
      </trkpt>
      <trkpt lat="47.93956" lon="-3.89569">
        <ele>84</ele>
        <time>2022-12-07T10:13:08Z</time>
      </trkpt>
      <trkpt lat="47.93962" lon="-3.8957">
        <ele>84.4</ele>
        <time>2022-12-07T10:13:09Z</time>
      </trkpt>
      <trkpt lat="47.93966" lon="-3.89571">
        <ele>84.7</ele>
        <time>2022-12-07T10:13:10Z</time>
      </trkpt>
      <trkpt lat="47.93969" lon="-3.89573">
        <ele>85</ele>
        <time>2022-12-07T10:13:12Z</time>
      </trkpt>
      <trkpt lat="47.93971" lon="-3.89574">
        <ele>85.2</ele>
        <time>2022-12-07T10:13:13Z</time>
      </trkpt>
      <trkpt lat="47.93977" lon="-3.89575">
        <ele>85.6</ele>
        <time>2022-12-07T10:13:14Z</time>
      </trkpt>
      <trkpt lat="47.93981" lon="-3.89577">
        <ele>86</ele>
        <time>2022-12-07T10:13:15Z</time>
      </trkpt>
      <trkpt lat="47.93986" lon="-3.89578">
        <ele>86.5</ele>
        <time>2022-12-07T10:13:16Z</time>
      </trkpt>
      <trkpt lat="47.93989" lon="-3.89579">
        <ele>86.8</ele>
        <time>2022-12-07T10:13:17Z</time>
      </trkpt>
      <trkpt lat="47.93993" lon="-3.8958">
        <ele>87.2</ele>
        <time>2022-12-07T10:13:18Z</time>
      </trkpt>
      <trkpt lat="47.93997" lon="-3.89582">
        <ele>87.6</ele>
        <time>2022-12-07T10:13:19Z</time>
      </trkpt>
      <trkpt lat="47.94001" lon="-3.89583">
        <ele>88</ele>
        <time>2022-12-07T10:13:20Z</time>
      </trkpt>
      <trkpt lat="47.94005" lon="-3.89582">
        <ele>88.4</ele>
        <time>2022-12-07T10:13:21Z</time>
      </trkpt>
      <trkpt lat="47.94008" lon="-3.89582">
        <ele>88.7</ele>
        <time>2022-12-07T10:13:22Z</time>
      </trkpt>
      <trkpt lat="47.94013" lon="-3.89581">
        <ele>89.2</ele>
        <time>2022-12-07T10:13:24Z</time>
      </trkpt>
      <trkpt lat="47.94016" lon="-3.8958">
        <ele>89.5</ele>
        <time>2022-12-07T10:13:25Z</time>
      </trkpt>
      <trkpt lat="47.9402" lon="-3.89579">
        <ele>89.9</ele>
        <time>2022-12-07T10:13:26Z</time>
      </trkpt>
      <trkpt lat="47.94025" lon="-3.89576">
        <ele>90.4</ele>
        <time>2022-12-07T10:13:27Z</time>
      </trkpt>
      <trkpt lat="47.94029" lon="-3.89574">
        <ele>90.7</ele>
        <time>2022-12-07T10:13:28Z</time>
      </trkpt>
      <trkpt lat="47.94032" lon="-3.89571">
        <ele>90.9</ele>
        <time>2022-12-07T10:13:29Z</time>
      </trkpt>
      <trkpt lat="47.94034" lon="-3.89567">
        <ele>91.1</ele>
        <time>2022-12-07T10:13:30Z</time>
      </trkpt>
      <trkpt lat="47.94036" lon="-3.89564">
        <ele>91.3</ele>
        <time>2022-12-07T10:13:31Z</time>
      </trkpt>
      <trkpt lat="47.94038" lon="-3.89559">
        <ele>91.5</ele>
        <time>2022-12-07T10:13:33Z</time>
      </trkpt>
      <trkpt lat="47.94039" lon="-3.89554">
        <ele>91.7</ele>
        <time>2022-12-07T10:13:34Z</time>
      </trkpt>
      <trkpt lat="47.94039" lon="-3.89551">
        <ele>91.7</ele>
        <time>2022-12-07T10:13:35Z</time>
      </trkpt>
      <trkpt lat="47.94039" lon="-3.89549">
        <ele>91.8</ele>
        <time>2022-12-07T10:13:36Z</time>
      </trkpt>
      <trkpt lat="47.9404" lon="-3.89545">
        <ele>91.9</ele>
        <time>2022-12-07T10:13:37Z</time>
      </trkpt>
      <trkpt lat="47.94041" lon="-3.8954">
        <ele>91.9</ele>
        <time>2022-12-07T10:13:38Z</time>
      </trkpt>
      <trkpt lat="47.94042" lon="-3.89535">
        <ele>92</ele>
        <time>2022-12-07T10:13:39Z</time>
      </trkpt>
      <trkpt lat="47.94044" lon="-3.89529">
        <ele>92</ele>
        <time>2022-12-07T10:13:40Z</time>
      </trkpt>
      <trkpt lat="47.94046" lon="-3.89524">
        <ele>92.1</ele>
        <time>2022-12-07T10:13:41Z</time>
      </trkpt>
      <trkpt lat="47.94049" lon="-3.89518">
        <ele>92.1</ele>
        <time>2022-12-07T10:13:42Z</time>
      </trkpt>
      <trkpt lat="47.9405" lon="-3.89514">
        <ele>92.1</ele>
        <time>2022-12-07T10:13:43Z</time>
      </trkpt>
      <trkpt lat="47.94051" lon="-3.89511">
        <ele>92.1</ele>
        <time>2022-12-07T10:13:44Z</time>
      </trkpt>
      <trkpt lat="47.94054" lon="-3.89506">
        <ele>92.1</ele>
        <time>2022-12-07T10:13:45Z</time>
      </trkpt>
      <trkpt lat="47.94058" lon="-3.895">
        <ele>92.1</ele>
        <time>2022-12-07T10:13:46Z</time>
      </trkpt>
      <trkpt lat="47.9406" lon="-3.89493">
        <ele>92.1</ele>
        <time>2022-12-07T10:13:47Z</time>
      </trkpt>
      <trkpt lat="47.94064" lon="-3.89483">
        <ele>92</ele>
        <time>2022-12-07T10:13:49Z</time>
      </trkpt>
      <trkpt lat="47.94068" lon="-3.89476">
        <ele>92</ele>
        <time>2022-12-07T10:13:50Z</time>
      </trkpt>
      <trkpt lat="47.9407" lon="-3.8947">
        <ele>91.9</ele>
        <time>2022-12-07T10:13:52Z</time>
      </trkpt>
      <trkpt lat="47.94074" lon="-3.89463">
        <ele>91.9</ele>
        <time>2022-12-07T10:13:53Z</time>
      </trkpt>
      <trkpt lat="47.94077" lon="-3.8946">
        <ele>91.8</ele>
        <time>2022-12-07T10:13:54Z</time>
      </trkpt>
      <trkpt lat="47.9408" lon="-3.89457">
        <ele>91.7</ele>
        <time>2022-12-07T10:13:55Z</time>
      </trkpt>
      <trkpt lat="47.94083" lon="-3.89453">
        <ele>91.6</ele>
        <time>2022-12-07T10:13:56Z</time>
      </trkpt>
      <trkpt lat="47.94085" lon="-3.89449">
        <ele>91.8</ele>
        <time>2022-12-07T10:13:57Z</time>
      </trkpt>
      <trkpt lat="47.94086" lon="-3.89443">
        <ele>92</ele>
        <time>2022-12-07T10:13:58Z</time>
      </trkpt>
      <trkpt lat="47.94085" lon="-3.89436">
        <ele>92.2</ele>
        <time>2022-12-07T10:13:59Z</time>
      </trkpt>
      <trkpt lat="47.94082" lon="-3.89431">
        <ele>92.4</ele>
        <time>2022-12-07T10:14:00Z</time>
      </trkpt>
      <trkpt lat="47.9408" lon="-3.89422">
        <ele>92.8</ele>
        <time>2022-12-07T10:14:02Z</time>
      </trkpt>
      <trkpt lat="47.94077" lon="-3.89412">
        <ele>93.2</ele>
        <time>2022-12-07T10:14:03Z</time>
      </trkpt>
      <trkpt lat="47.94074" lon="-3.89402">
        <ele>93.6</ele>
        <time>2022-12-07T10:14:05Z</time>
      </trkpt>
      <trkpt lat="47.94073" lon="-3.89397">
        <ele>93.9</ele>
        <time>2022-12-07T10:14:06Z</time>
      </trkpt>
      <trkpt lat="47.94071" lon="-3.8939">
        <ele>94.2</ele>
        <time>2022-12-07T10:14:08Z</time>
      </trkpt>
      <trkpt lat="47.9407" lon="-3.89383">
        <ele>94.4</ele>
        <time>2022-12-07T10:14:09Z</time>
      </trkpt>
      <trkpt lat="47.9407" lon="-3.89372">
        <ele>94.9</ele>
        <time>2022-12-07T10:14:11Z</time>
      </trkpt>
      <trkpt lat="47.94071" lon="-3.89367">
        <ele>95.1</ele>
        <time>2022-12-07T10:14:12Z</time>
      </trkpt>
      <trkpt lat="47.94073" lon="-3.89362">
        <ele>95.4</ele>
        <time>2022-12-07T10:14:13Z</time>
      </trkpt>
      <trkpt lat="47.94075" lon="-3.89357">
        <ele>95.7</ele>
        <time>2022-12-07T10:14:14Z</time>
      </trkpt>
      <trkpt lat="47.94078" lon="-3.89352">
        <ele>96</ele>
        <time>2022-12-07T10:14:15Z</time>
      </trkpt>
      <trkpt lat="47.9408" lon="-3.89347">
        <ele>96.3</ele>
        <time>2022-12-07T10:14:16Z</time>
      </trkpt>
      <trkpt lat="47.94083" lon="-3.89342">
        <ele>96.6</ele>
        <time>2022-12-07T10:14:17Z</time>
      </trkpt>
      <trkpt lat="47.94085" lon="-3.89339">
        <ele>96.8</ele>
        <time>2022-12-07T10:14:18Z</time>
      </trkpt>
      <trkpt lat="47.94088" lon="-3.89334">
        <ele>97.2</ele>
        <time>2022-12-07T10:14:19Z</time>
      </trkpt>
      <trkpt lat="47.94092" lon="-3.89329">
        <ele>97.5</ele>
        <time>2022-12-07T10:14:21Z</time>
      </trkpt>
      <trkpt lat="47.94096" lon="-3.89324">
        <ele>97.7</ele>
        <time>2022-12-07T10:14:22Z</time>
      </trkpt>
      <trkpt lat="47.94098" lon="-3.89321">
        <ele>97.8</ele>
        <time>2022-12-07T10:14:23Z</time>
      </trkpt>
      <trkpt lat="47.941" lon="-3.89318">
        <ele>97.9</ele>
        <time>2022-12-07T10:14:24Z</time>
      </trkpt>
      <trkpt lat="47.94104" lon="-3.89313">
        <ele>98</ele>
        <time>2022-12-07T10:14:25Z</time>
      </trkpt>
      <trkpt lat="47.94108" lon="-3.89309">
        <ele>98</ele>
        <time>2022-12-07T10:14:27Z</time>
      </trkpt>
      <trkpt lat="47.94112" lon="-3.89308">
        <ele>97.9</ele>
        <time>2022-12-07T10:14:28Z</time>
      </trkpt>
      <trkpt lat="47.94116" lon="-3.89307">
        <ele>97.9</ele>
        <time>2022-12-07T10:14:29Z</time>
      </trkpt>
      <trkpt lat="47.94123" lon="-3.89305">
        <ele>97.7</ele>
        <time>2022-12-07T10:14:31Z</time>
      </trkpt>
      <trkpt lat="47.94127" lon="-3.89303">
        <ele>97.6</ele>
        <time>2022-12-07T10:14:32Z</time>
      </trkpt>
      <trkpt lat="47.94132" lon="-3.89303">
        <ele>97.4</ele>
        <time>2022-12-07T10:14:33Z</time>
      </trkpt>
      <trkpt lat="47.94139" lon="-3.89301">
        <ele>97.3</ele>
        <time>2022-12-07T10:14:35Z</time>
      </trkpt>
      <trkpt lat="47.94144" lon="-3.893">
        <ele>97.2</ele>
        <time>2022-12-07T10:14:36Z</time>
      </trkpt>
      <trkpt lat="47.94148" lon="-3.89299">
        <ele>97.1</ele>
        <time>2022-12-07T10:14:37Z</time>
      </trkpt>
      <trkpt lat="47.94152" lon="-3.89297">
        <ele>97</ele>
        <time>2022-12-07T10:14:38Z</time>
      </trkpt>
      <trkpt lat="47.94156" lon="-3.89297">
        <ele>97</ele>
        <time>2022-12-07T10:14:39Z</time>
      </trkpt>
      <trkpt lat="47.94164" lon="-3.89299">
        <ele>96.8</ele>
        <time>2022-12-07T10:14:40Z</time>
      </trkpt>
      <trkpt lat="47.9417" lon="-3.89299">
        <ele>96.6</ele>
        <time>2022-12-07T10:14:41Z</time>
      </trkpt>
      <trkpt lat="47.94175" lon="-3.89299">
        <ele>96.5</ele>
        <time>2022-12-07T10:14:42Z</time>
      </trkpt>
      <trkpt lat="47.94181" lon="-3.89299">
        <ele>96.3</ele>
        <time>2022-12-07T10:14:43Z</time>
      </trkpt>
      <trkpt lat="47.94186" lon="-3.89299">
        <ele>96</ele>
        <time>2022-12-07T10:14:44Z</time>
      </trkpt>
      <trkpt lat="47.94192" lon="-3.89298">
        <ele>95.7</ele>
        <time>2022-12-07T10:14:45Z</time>
      </trkpt>
      <trkpt lat="47.94198" lon="-3.89298">
        <ele>95.5</ele>
        <time>2022-12-07T10:14:46Z</time>
      </trkpt>
      <trkpt lat="47.94204" lon="-3.89298">
        <ele>95.3</ele>
        <time>2022-12-07T10:14:47Z</time>
      </trkpt>
      <trkpt lat="47.94211" lon="-3.89297">
        <ele>95.1</ele>
        <time>2022-12-07T10:14:48Z</time>
      </trkpt>
      <trkpt lat="47.94217" lon="-3.89296">
        <ele>94.9</ele>
        <time>2022-12-07T10:14:49Z</time>
      </trkpt>
      <trkpt lat="47.94223" lon="-3.89296">
        <ele>94.7</ele>
        <time>2022-12-07T10:14:50Z</time>
      </trkpt>
      <trkpt lat="47.94229" lon="-3.89295">
        <ele>94.6</ele>
        <time>2022-12-07T10:14:51Z</time>
      </trkpt>
      <trkpt lat="47.94238" lon="-3.89295">
        <ele>94.5</ele>
        <time>2022-12-07T10:14:52Z</time>
      </trkpt>
      <trkpt lat="47.94244" lon="-3.89296">
        <ele>94.5</ele>
        <time>2022-12-07T10:14:53Z</time>
      </trkpt>
      <trkpt lat="47.94249" lon="-3.89297">
        <ele>94.6</ele>
        <time>2022-12-07T10:14:54Z</time>
      </trkpt>
      <trkpt lat="47.94255" lon="-3.89297">
        <ele>94.8</ele>
        <time>2022-12-07T10:14:55Z</time>
      </trkpt>
      <trkpt lat="47.9426" lon="-3.89296">
        <ele>95</ele>
        <time>2022-12-07T10:14:56Z</time>
      </trkpt>
      <trkpt lat="47.94265" lon="-3.89294">
        <ele>95.3</ele>
        <time>2022-12-07T10:14:57Z</time>
      </trkpt>
      <trkpt lat="47.94269" lon="-3.89292">
        <ele>95.5</ele>
        <time>2022-12-07T10:14:58Z</time>
      </trkpt>
      <trkpt lat="47.94271" lon="-3.89289">
        <ele>95.7</ele>
        <time>2022-12-07T10:14:59Z</time>
      </trkpt>
      <trkpt lat="47.94274" lon="-3.89281">
        <ele>96.2</ele>
        <time>2022-12-07T10:15:00Z</time>
      </trkpt>
      <trkpt lat="47.94276" lon="-3.89275">
        <ele>96.5</ele>
        <time>2022-12-07T10:15:01Z</time>
      </trkpt>
      <trkpt lat="47.94277" lon="-3.8927">
        <ele>96.7</ele>
        <time>2022-12-07T10:15:02Z</time>
      </trkpt>
      <trkpt lat="47.94278" lon="-3.89266">
        <ele>96.9</ele>
        <time>2022-12-07T10:15:03Z</time>
      </trkpt>
      <trkpt lat="47.94279" lon="-3.89262">
        <ele>97.2</ele>
        <time>2022-12-07T10:15:04Z</time>
      </trkpt>
      <trkpt lat="47.94282" lon="-3.89258">
        <ele>97.4</ele>
        <time>2022-12-07T10:15:06Z</time>
      </trkpt>
      <trkpt lat="47.94284" lon="-3.89246">
        <ele>97.8</ele>
        <time>2022-12-07T10:15:07Z</time>
      </trkpt>
      <trkpt lat="47.94285" lon="-3.89239">
        <ele>97.9</ele>
        <time>2022-12-07T10:15:08Z</time>
      </trkpt>
      <trkpt lat="47.94285" lon="-3.89233">
        <ele>98.1</ele>
        <time>2022-12-07T10:15:09Z</time>
      </trkpt>
      <trkpt lat="47.94286" lon="-3.89227">
        <ele>98.3</ele>
        <time>2022-12-07T10:15:10Z</time>
      </trkpt>
      <trkpt lat="47.94286" lon="-3.8922">
        <ele>98.5</ele>
        <time>2022-12-07T10:15:11Z</time>
      </trkpt>
      <trkpt lat="47.94286" lon="-3.89216">
        <ele>98.6</ele>
        <time>2022-12-07T10:15:12Z</time>
      </trkpt>
      <trkpt lat="47.94286" lon="-3.89203">
        <ele>99</ele>
        <time>2022-12-07T10:15:14Z</time>
      </trkpt>
      <trkpt lat="47.94286" lon="-3.89197">
        <ele>99.2</ele>
        <time>2022-12-07T10:15:15Z</time>
      </trkpt>
      <trkpt lat="47.94285" lon="-3.89192">
        <ele>99.4</ele>
        <time>2022-12-07T10:15:16Z</time>
      </trkpt>
      <trkpt lat="47.94284" lon="-3.89181">
        <ele>99.8</ele>
        <time>2022-12-07T10:15:17Z</time>
      </trkpt>
      <trkpt lat="47.94285" lon="-3.89174">
        <ele>100.1</ele>
        <time>2022-12-07T10:15:19Z</time>
      </trkpt>
      <trkpt lat="47.94285" lon="-3.89167">
        <ele>100.4</ele>
        <time>2022-12-07T10:15:20Z</time>
      </trkpt>
      <trkpt lat="47.94285" lon="-3.8916">
        <ele>100.6</ele>
        <time>2022-12-07T10:15:21Z</time>
      </trkpt>
      <trkpt lat="47.94285" lon="-3.89155">
        <ele>100.8</ele>
        <time>2022-12-07T10:15:22Z</time>
      </trkpt>
      <trkpt lat="47.94285" lon="-3.89148">
        <ele>101.1</ele>
        <time>2022-12-07T10:15:24Z</time>
      </trkpt>
      <trkpt lat="47.94286" lon="-3.89143">
        <ele>101.2</ele>
        <time>2022-12-07T10:15:25Z</time>
      </trkpt>
      <trkpt lat="47.94287" lon="-3.89138">
        <ele>101.4</ele>
        <time>2022-12-07T10:15:26Z</time>
      </trkpt>
      <trkpt lat="47.94288" lon="-3.89134">
        <ele>101.6</ele>
        <time>2022-12-07T10:15:27Z</time>
      </trkpt>
      <trkpt lat="47.94289" lon="-3.89129">
        <ele>101.8</ele>
        <time>2022-12-07T10:15:28Z</time>
      </trkpt>
      <trkpt lat="47.9429" lon="-3.89124">
        <ele>102</ele>
        <time>2022-12-07T10:15:29Z</time>
      </trkpt>
      <trkpt lat="47.94291" lon="-3.89118">
        <ele>102.2</ele>
        <time>2022-12-07T10:15:30Z</time>
      </trkpt>
      <trkpt lat="47.94293" lon="-3.89112">
        <ele>102.4</ele>
        <time>2022-12-07T10:15:31Z</time>
      </trkpt>
      <trkpt lat="47.94294" lon="-3.89107">
        <ele>102.6</ele>
        <time>2022-12-07T10:15:32Z</time>
      </trkpt>
      <trkpt lat="47.94296" lon="-3.891">
        <ele>102.9</ele>
        <time>2022-12-07T10:15:33Z</time>
      </trkpt>
      <trkpt lat="47.94298" lon="-3.89096">
        <ele>103.1</ele>
        <time>2022-12-07T10:15:34Z</time>
      </trkpt>
      <trkpt lat="47.943" lon="-3.89091">
        <ele>103.4</ele>
        <time>2022-12-07T10:15:35Z</time>
      </trkpt>
      <trkpt lat="47.94303" lon="-3.89087">
        <ele>103.6</ele>
        <time>2022-12-07T10:15:36Z</time>
      </trkpt>
      <trkpt lat="47.94305" lon="-3.89084">
        <ele>103.8</ele>
        <time>2022-12-07T10:15:37Z</time>
      </trkpt>
      <trkpt lat="47.94308" lon="-3.89079">
        <ele>104.1</ele>
        <time>2022-12-07T10:15:38Z</time>
      </trkpt>
      <trkpt lat="47.94311" lon="-3.89075">
        <ele>104.3</ele>
        <time>2022-12-07T10:15:39Z</time>
      </trkpt>
      <trkpt lat="47.94313" lon="-3.89071">
        <ele>104.5</ele>
        <time>2022-12-07T10:15:40Z</time>
      </trkpt>
      <trkpt lat="47.94315" lon="-3.89066">
        <ele>104.8</ele>
        <time>2022-12-07T10:15:41Z</time>
      </trkpt>
      <trkpt lat="47.94318" lon="-3.89059">
        <ele>105.1</ele>
        <time>2022-12-07T10:15:43Z</time>
      </trkpt>
      <trkpt lat="47.9432" lon="-3.89056">
        <ele>105.3</ele>
        <time>2022-12-07T10:15:44Z</time>
      </trkpt>
      <trkpt lat="47.94323" lon="-3.89052">
        <ele>105.5</ele>
        <time>2022-12-07T10:15:45Z</time>
      </trkpt>
      <trkpt lat="47.94324" lon="-3.8905">
        <ele>105.6</ele>
        <time>2022-12-07T10:15:46Z</time>
      </trkpt>
      <trkpt lat="47.94328" lon="-3.89044">
        <ele>106</ele>
        <time>2022-12-07T10:15:48Z</time>
      </trkpt>
      <trkpt lat="47.94331" lon="-3.89038">
        <ele>106.3</ele>
        <time>2022-12-07T10:15:49Z</time>
      </trkpt>
      <trkpt lat="47.94336" lon="-3.89029">
        <ele>106.7</ele>
        <time>2022-12-07T10:15:51Z</time>
      </trkpt>
      <trkpt lat="47.94338" lon="-3.89025">
        <ele>106.9</ele>
        <time>2022-12-07T10:15:52Z</time>
      </trkpt>
      <trkpt lat="47.9434" lon="-3.8902">
        <ele>107.2</ele>
        <time>2022-12-07T10:15:53Z</time>
      </trkpt>
      <trkpt lat="47.94342" lon="-3.89016">
        <ele>107.4</ele>
        <time>2022-12-07T10:15:54Z</time>
      </trkpt>
      <trkpt lat="47.94344" lon="-3.89011">
        <ele>107.6</ele>
        <time>2022-12-07T10:15:55Z</time>
      </trkpt>
      <trkpt lat="47.94346" lon="-3.89007">
        <ele>107.8</ele>
        <time>2022-12-07T10:15:56Z</time>
      </trkpt>
      <trkpt lat="47.94349" lon="-3.89003">
        <ele>108.1</ele>
        <time>2022-12-07T10:15:57Z</time>
      </trkpt>
      <trkpt lat="47.94352" lon="-3.88998">
        <ele>108.4</ele>
        <time>2022-12-07T10:15:58Z</time>
      </trkpt>
      <trkpt lat="47.94354" lon="-3.88994">
        <ele>108.6</ele>
        <time>2022-12-07T10:15:59Z</time>
      </trkpt>
      <trkpt lat="47.94357" lon="-3.8899">
        <ele>108.8</ele>
        <time>2022-12-07T10:16:00Z</time>
      </trkpt>
      <trkpt lat="47.94359" lon="-3.88986">
        <ele>109</ele>
        <time>2022-12-07T10:16:01Z</time>
      </trkpt>
      <trkpt lat="47.94361" lon="-3.88982">
        <ele>109.3</ele>
        <time>2022-12-07T10:16:02Z</time>
      </trkpt>
      <trkpt lat="47.94365" lon="-3.88975">
        <ele>109.7</ele>
        <time>2022-12-07T10:16:04Z</time>
      </trkpt>
      <trkpt lat="47.94367" lon="-3.88969">
        <ele>109.9</ele>
        <time>2022-12-07T10:16:05Z</time>
      </trkpt>
      <trkpt lat="47.94371" lon="-3.88963">
        <ele>110.3</ele>
        <time>2022-12-07T10:16:07Z</time>
      </trkpt>
      <trkpt lat="47.94373" lon="-3.8896">
        <ele>110.5</ele>
        <time>2022-12-07T10:16:08Z</time>
      </trkpt>
      <trkpt lat="47.94375" lon="-3.88954">
        <ele>110.8</ele>
        <time>2022-12-07T10:16:09Z</time>
      </trkpt>
      <trkpt lat="47.94377" lon="-3.8895">
        <ele>111</ele>
        <time>2022-12-07T10:16:10Z</time>
      </trkpt>
      <trkpt lat="47.94378" lon="-3.88946">
        <ele>111.2</ele>
        <time>2022-12-07T10:16:11Z</time>
      </trkpt>
      <trkpt lat="47.9438" lon="-3.88941">
        <ele>111.5</ele>
        <time>2022-12-07T10:16:12Z</time>
      </trkpt>
      <trkpt lat="47.94381" lon="-3.88936">
        <ele>111.6</ele>
        <time>2022-12-07T10:16:13Z</time>
      </trkpt>
      <trkpt lat="47.94383" lon="-3.88932">
        <ele>111.9</ele>
        <time>2022-12-07T10:16:14Z</time>
      </trkpt>
      <trkpt lat="47.94384" lon="-3.88928">
        <ele>112.1</ele>
        <time>2022-12-07T10:16:15Z</time>
      </trkpt>
      <trkpt lat="47.94385" lon="-3.88922">
        <ele>112.3</ele>
        <time>2022-12-07T10:16:16Z</time>
      </trkpt>
      <trkpt lat="47.94387" lon="-3.88918">
        <ele>112.5</ele>
        <time>2022-12-07T10:16:17Z</time>
      </trkpt>
      <trkpt lat="47.94389" lon="-3.88914">
        <ele>112.7</ele>
        <time>2022-12-07T10:16:18Z</time>
      </trkpt>
      <trkpt lat="47.9439" lon="-3.88909">
        <ele>112.9</ele>
        <time>2022-12-07T10:16:19Z</time>
      </trkpt>
      <trkpt lat="47.94392" lon="-3.88903">
        <ele>113.2</ele>
        <time>2022-12-07T10:16:20Z</time>
      </trkpt>
      <trkpt lat="47.94392" lon="-3.88901">
        <ele>113.3</ele>
        <time>2022-12-07T10:16:21Z</time>
      </trkpt>
      <trkpt lat="47.94394" lon="-3.88897">
        <ele>113.5</ele>
        <time>2022-12-07T10:16:22Z</time>
      </trkpt>
      <trkpt lat="47.94396" lon="-3.88891">
        <ele>113.7</ele>
        <time>2022-12-07T10:16:24Z</time>
      </trkpt>
      <trkpt lat="47.94397" lon="-3.88886">
        <ele>113.9</ele>
        <time>2022-12-07T10:16:25Z</time>
      </trkpt>
      <trkpt lat="47.944" lon="-3.88878">
        <ele>114.3</ele>
        <time>2022-12-07T10:16:27Z</time>
      </trkpt>
      <trkpt lat="47.94402" lon="-3.88873">
        <ele>114.4</ele>
        <time>2022-12-07T10:16:28Z</time>
      </trkpt>
      <trkpt lat="47.94405" lon="-3.88866">
        <ele>114.7</ele>
        <time>2022-12-07T10:16:29Z</time>
      </trkpt>
      <trkpt lat="47.94407" lon="-3.88862">
        <ele>114.9</ele>
        <time>2022-12-07T10:16:30Z</time>
      </trkpt>
      <trkpt lat="47.94411" lon="-3.88855">
        <ele>115.2</ele>
        <time>2022-12-07T10:16:32Z</time>
      </trkpt>
      <trkpt lat="47.94413" lon="-3.8885">
        <ele>115.4</ele>
        <time>2022-12-07T10:16:33Z</time>
      </trkpt>
      <trkpt lat="47.94415" lon="-3.88845">
        <ele>115.7</ele>
        <time>2022-12-07T10:16:34Z</time>
      </trkpt>
      <trkpt lat="47.94417" lon="-3.88841">
        <ele>115.9</ele>
        <time>2022-12-07T10:16:35Z</time>
      </trkpt>
      <trkpt lat="47.94419" lon="-3.88836">
        <ele>116.1</ele>
        <time>2022-12-07T10:16:36Z</time>
      </trkpt>
      <trkpt lat="47.94421" lon="-3.88832">
        <ele>116.3</ele>
        <time>2022-12-07T10:16:37Z</time>
      </trkpt>
      <trkpt lat="47.94424" lon="-3.88829">
        <ele>116.5</ele>
        <time>2022-12-07T10:16:38Z</time>
      </trkpt>
      <trkpt lat="47.94426" lon="-3.88824">
        <ele>116.7</ele>
        <time>2022-12-07T10:16:39Z</time>
      </trkpt>
      <trkpt lat="47.9443" lon="-3.88815">
        <ele>117.2</ele>
        <time>2022-12-07T10:16:41Z</time>
      </trkpt>
      <trkpt lat="47.94432" lon="-3.88811">
        <ele>117.4</ele>
        <time>2022-12-07T10:16:42Z</time>
      </trkpt>
      <trkpt lat="47.94434" lon="-3.88807">
        <ele>117.6</ele>
        <time>2022-12-07T10:16:43Z</time>
      </trkpt>
      <trkpt lat="47.94436" lon="-3.88804">
        <ele>117.8</ele>
        <time>2022-12-07T10:16:44Z</time>
      </trkpt>
      <trkpt lat="47.94438" lon="-3.888">
        <ele>117.9</ele>
        <time>2022-12-07T10:16:45Z</time>
      </trkpt>
      <trkpt lat="47.9444" lon="-3.88795">
        <ele>118.1</ele>
        <time>2022-12-07T10:16:46Z</time>
      </trkpt>
      <trkpt lat="47.94442" lon="-3.88789">
        <ele>118.4</ele>
        <time>2022-12-07T10:16:48Z</time>
      </trkpt>
      <trkpt lat="47.94444" lon="-3.88783">
        <ele>118.6</ele>
        <time>2022-12-07T10:16:49Z</time>
      </trkpt>
      <trkpt lat="47.94447" lon="-3.88779">
        <ele>118.9</ele>
        <time>2022-12-07T10:16:50Z</time>
      </trkpt>
      <trkpt lat="47.9445" lon="-3.88773">
        <ele>119.2</ele>
        <time>2022-12-07T10:16:52Z</time>
      </trkpt>
      <trkpt lat="47.94453" lon="-3.88767">
        <ele>119.4</ele>
        <time>2022-12-07T10:16:53Z</time>
      </trkpt>
      <trkpt lat="47.94455" lon="-3.88763">
        <ele>119.6</ele>
        <time>2022-12-07T10:16:54Z</time>
      </trkpt>
      <trkpt lat="47.94458" lon="-3.88759">
        <ele>119.8</ele>
        <time>2022-12-07T10:16:55Z</time>
      </trkpt>
      <trkpt lat="47.9446" lon="-3.88754">
        <ele>120</ele>
        <time>2022-12-07T10:16:56Z</time>
      </trkpt>
      <trkpt lat="47.94462" lon="-3.88751">
        <ele>120.2</ele>
        <time>2022-12-07T10:16:57Z</time>
      </trkpt>
      <trkpt lat="47.94464" lon="-3.88746">
        <ele>120.4</ele>
        <time>2022-12-07T10:16:58Z</time>
      </trkpt>
      <trkpt lat="47.94467" lon="-3.88741">
        <ele>120.6</ele>
        <time>2022-12-07T10:16:59Z</time>
      </trkpt>
      <trkpt lat="47.94469" lon="-3.88737">
        <ele>120.7</ele>
        <time>2022-12-07T10:17:00Z</time>
      </trkpt>
      <trkpt lat="47.9447" lon="-3.88733">
        <ele>120.8</ele>
        <time>2022-12-07T10:17:01Z</time>
      </trkpt>
      <trkpt lat="47.94473" lon="-3.88728">
        <ele>121</ele>
        <time>2022-12-07T10:17:02Z</time>
      </trkpt>
      <trkpt lat="47.94475" lon="-3.88723">
        <ele>121.2</ele>
        <time>2022-12-07T10:17:03Z</time>
      </trkpt>
      <trkpt lat="47.94478" lon="-3.88719">
        <ele>121.3</ele>
        <time>2022-12-07T10:17:04Z</time>
      </trkpt>
      <trkpt lat="47.9448" lon="-3.88714">
        <ele>121.5</ele>
        <time>2022-12-07T10:17:05Z</time>
      </trkpt>
      <trkpt lat="47.94483" lon="-3.88709">
        <ele>121.7</ele>
        <time>2022-12-07T10:17:06Z</time>
      </trkpt>
      <trkpt lat="47.94484" lon="-3.88704">
        <ele>121.8</ele>
        <time>2022-12-07T10:17:07Z</time>
      </trkpt>
      <trkpt lat="47.94486" lon="-3.887">
        <ele>121.9</ele>
        <time>2022-12-07T10:17:08Z</time>
      </trkpt>
      <trkpt lat="47.94488" lon="-3.88696">
        <ele>122.1</ele>
        <time>2022-12-07T10:17:09Z</time>
      </trkpt>
      <trkpt lat="47.94491" lon="-3.88691">
        <ele>122.2</ele>
        <time>2022-12-07T10:17:10Z</time>
      </trkpt>
      <trkpt lat="47.94494" lon="-3.88687">
        <ele>122.4</ele>
        <time>2022-12-07T10:17:11Z</time>
      </trkpt>
      <trkpt lat="47.94497" lon="-3.88683">
        <ele>122.5</ele>
        <time>2022-12-07T10:17:12Z</time>
      </trkpt>
      <trkpt lat="47.945" lon="-3.88679">
        <ele>122.7</ele>
        <time>2022-12-07T10:17:13Z</time>
      </trkpt>
      <trkpt lat="47.94503" lon="-3.88675">
        <ele>122.9</ele>
        <time>2022-12-07T10:17:14Z</time>
      </trkpt>
      <trkpt lat="47.94507" lon="-3.8867">
        <ele>123</ele>
        <time>2022-12-07T10:17:15Z</time>
      </trkpt>
      <trkpt lat="47.9451" lon="-3.88666">
        <ele>123.2</ele>
        <time>2022-12-07T10:17:16Z</time>
      </trkpt>
      <trkpt lat="47.94513" lon="-3.88662">
        <ele>123.4</ele>
        <time>2022-12-07T10:17:17Z</time>
      </trkpt>
      <trkpt lat="47.94517" lon="-3.88658">
        <ele>123.5</ele>
        <time>2022-12-07T10:17:18Z</time>
      </trkpt>
      <trkpt lat="47.94519" lon="-3.88656">
        <ele>123.7</ele>
        <time>2022-12-07T10:17:19Z</time>
      </trkpt>
      <trkpt lat="47.94524" lon="-3.88652">
        <ele>123.9</ele>
        <time>2022-12-07T10:17:20Z</time>
      </trkpt>
      <trkpt lat="47.94527" lon="-3.8865">
        <ele>124</ele>
        <time>2022-12-07T10:17:21Z</time>
      </trkpt>
      <trkpt lat="47.94532" lon="-3.88646">
        <ele>124.2</ele>
        <time>2022-12-07T10:17:22Z</time>
      </trkpt>
      <trkpt lat="47.94536" lon="-3.88642">
        <ele>124.4</ele>
        <time>2022-12-07T10:17:24Z</time>
      </trkpt>
      <trkpt lat="47.94541" lon="-3.88636">
        <ele>124.5</ele>
        <time>2022-12-07T10:17:26Z</time>
      </trkpt>
      <trkpt lat="47.94545" lon="-3.88632">
        <ele>124.6</ele>
        <time>2022-12-07T10:17:27Z</time>
      </trkpt>
      <trkpt lat="47.94549" lon="-3.88628">
        <ele>124.7</ele>
        <time>2022-12-07T10:17:28Z</time>
      </trkpt>
      <trkpt lat="47.94553" lon="-3.88624">
        <ele>124.8</ele>
        <time>2022-12-07T10:17:29Z</time>
      </trkpt>
      <trkpt lat="47.94556" lon="-3.8862">
        <ele>124.9</ele>
        <time>2022-12-07T10:17:30Z</time>
      </trkpt>
      <trkpt lat="47.9456" lon="-3.88616">
        <ele>124.9</ele>
        <time>2022-12-07T10:17:31Z</time>
      </trkpt>
      <trkpt lat="47.94565" lon="-3.88612">
        <ele>125</ele>
        <time>2022-12-07T10:17:32Z</time>
      </trkpt>
      <trkpt lat="47.94569" lon="-3.88608">
        <ele>125.1</ele>
        <time>2022-12-07T10:17:33Z</time>
      </trkpt>
      <trkpt lat="47.94571" lon="-3.88605">
        <ele>125.2</ele>
        <time>2022-12-07T10:17:34Z</time>
      </trkpt>
      <trkpt lat="47.94576" lon="-3.88601">
        <ele>125.3</ele>
        <time>2022-12-07T10:17:35Z</time>
      </trkpt>
      <trkpt lat="47.94581" lon="-3.88597">
        <ele>125.4</ele>
        <time>2022-12-07T10:17:37Z</time>
      </trkpt>
      <trkpt lat="47.94585" lon="-3.88593">
        <ele>125.5</ele>
        <time>2022-12-07T10:17:38Z</time>
      </trkpt>
      <trkpt lat="47.9459" lon="-3.88587">
        <ele>125.6</ele>
        <time>2022-12-07T10:17:39Z</time>
      </trkpt>
      <trkpt lat="47.94594" lon="-3.88583">
        <ele>125.7</ele>
        <time>2022-12-07T10:17:41Z</time>
      </trkpt>
      <trkpt lat="47.94597" lon="-3.8858">
        <ele>125.8</ele>
        <time>2022-12-07T10:17:42Z</time>
      </trkpt>
      <trkpt lat="47.94603" lon="-3.88574">
        <ele>125.9</ele>
        <time>2022-12-07T10:17:43Z</time>
      </trkpt>
      <trkpt lat="47.94606" lon="-3.8857">
        <ele>126</ele>
        <time>2022-12-07T10:17:44Z</time>
      </trkpt>
      <trkpt lat="47.94609" lon="-3.88566">
        <ele>126.1</ele>
        <time>2022-12-07T10:17:45Z</time>
      </trkpt>
      <trkpt lat="47.94613" lon="-3.88562">
        <ele>126.2</ele>
        <time>2022-12-07T10:17:46Z</time>
      </trkpt>
      <trkpt lat="47.94616" lon="-3.88557">
        <ele>126.2</ele>
        <time>2022-12-07T10:17:47Z</time>
      </trkpt>
      <trkpt lat="47.94618" lon="-3.88553">
        <ele>126.3</ele>
        <time>2022-12-07T10:17:48Z</time>
      </trkpt>
      <trkpt lat="47.94622" lon="-3.88548">
        <ele>126.4</ele>
        <time>2022-12-07T10:17:49Z</time>
      </trkpt>
      <trkpt lat="47.94625" lon="-3.88543">
        <ele>126.5</ele>
        <time>2022-12-07T10:17:51Z</time>
      </trkpt>
      <trkpt lat="47.94629" lon="-3.88537">
        <ele>126.6</ele>
        <time>2022-12-07T10:17:52Z</time>
      </trkpt>
      <trkpt lat="47.94632" lon="-3.88532">
        <ele>126.7</ele>
        <time>2022-12-07T10:17:53Z</time>
      </trkpt>
      <trkpt lat="47.94635" lon="-3.88528">
        <ele>126.8</ele>
        <time>2022-12-07T10:17:54Z</time>
      </trkpt>
      <trkpt lat="47.94637" lon="-3.88523">
        <ele>126.9</ele>
        <time>2022-12-07T10:17:55Z</time>
      </trkpt>
      <trkpt lat="47.94642" lon="-3.88516">
        <ele>127.2</ele>
        <time>2022-12-07T10:17:57Z</time>
      </trkpt>
      <trkpt lat="47.94646" lon="-3.8851">
        <ele>127.4</ele>
        <time>2022-12-07T10:17:58Z</time>
      </trkpt>
      <trkpt lat="47.94649" lon="-3.88505">
        <ele>127.6</ele>
        <time>2022-12-07T10:17:59Z</time>
      </trkpt>
      <trkpt lat="47.94652" lon="-3.885">
        <ele>127.7</ele>
        <time>2022-12-07T10:18:00Z</time>
      </trkpt>
      <trkpt lat="47.94655" lon="-3.88496">
        <ele>127.9</ele>
        <time>2022-12-07T10:18:01Z</time>
      </trkpt>
      <trkpt lat="47.94659" lon="-3.88489">
        <ele>128.1</ele>
        <time>2022-12-07T10:18:02Z</time>
      </trkpt>
      <trkpt lat="47.94662" lon="-3.88484">
        <ele>128.3</ele>
        <time>2022-12-07T10:18:04Z</time>
      </trkpt>
      <trkpt lat="47.94665" lon="-3.88478">
        <ele>128.6</ele>
        <time>2022-12-07T10:18:05Z</time>
      </trkpt>
      <trkpt lat="47.94668" lon="-3.88472">
        <ele>128.7</ele>
        <time>2022-12-07T10:18:06Z</time>
      </trkpt>
      <trkpt lat="47.94671" lon="-3.88468">
        <ele>128.9</ele>
        <time>2022-12-07T10:18:07Z</time>
      </trkpt>
      <trkpt lat="47.94673" lon="-3.88463">
        <ele>129.1</ele>
        <time>2022-12-07T10:18:08Z</time>
      </trkpt>
      <trkpt lat="47.94676" lon="-3.88458">
        <ele>129.3</ele>
        <time>2022-12-07T10:18:09Z</time>
      </trkpt>
      <trkpt lat="47.94678" lon="-3.88453">
        <ele>129.4</ele>
        <time>2022-12-07T10:18:10Z</time>
      </trkpt>
      <trkpt lat="47.94681" lon="-3.88448">
        <ele>129.6</ele>
        <time>2022-12-07T10:18:11Z</time>
      </trkpt>
      <trkpt lat="47.94685" lon="-3.8844">
        <ele>129.9</ele>
        <time>2022-12-07T10:18:13Z</time>
      </trkpt>
      <trkpt lat="47.94687" lon="-3.88435">
        <ele>130.1</ele>
        <time>2022-12-07T10:18:14Z</time>
      </trkpt>
      <trkpt lat="47.94689" lon="-3.88427">
        <ele>130.4</ele>
        <time>2022-12-07T10:18:15Z</time>
      </trkpt>
      <trkpt lat="47.94692" lon="-3.8842">
        <ele>130.7</ele>
        <time>2022-12-07T10:18:17Z</time>
      </trkpt>
      <trkpt lat="47.94694" lon="-3.88414">
        <ele>130.9</ele>
        <time>2022-12-07T10:18:18Z</time>
      </trkpt>
      <trkpt lat="47.94696" lon="-3.8841">
        <ele>131</ele>
        <time>2022-12-07T10:18:19Z</time>
      </trkpt>
      <trkpt lat="47.94698" lon="-3.88405">
        <ele>131.2</ele>
        <time>2022-12-07T10:18:20Z</time>
      </trkpt>
      <trkpt lat="47.947" lon="-3.884">
        <ele>131.4</ele>
        <time>2022-12-07T10:18:21Z</time>
      </trkpt>
      <trkpt lat="47.94702" lon="-3.88395">
        <ele>131.6</ele>
        <time>2022-12-07T10:18:22Z</time>
      </trkpt>
      <trkpt lat="47.94704" lon="-3.8839">
        <ele>131.8</ele>
        <time>2022-12-07T10:18:23Z</time>
      </trkpt>
      <trkpt lat="47.94705" lon="-3.88387">
        <ele>131.9</ele>
        <time>2022-12-07T10:18:24Z</time>
      </trkpt>
      <trkpt lat="47.94708" lon="-3.88381">
        <ele>132</ele>
        <time>2022-12-07T10:18:25Z</time>
      </trkpt>
      <trkpt lat="47.9471" lon="-3.88376">
        <ele>132.2</ele>
        <time>2022-12-07T10:18:26Z</time>
      </trkpt>
      <trkpt lat="47.94713" lon="-3.88371">
        <ele>132.3</ele>
        <time>2022-12-07T10:18:27Z</time>
      </trkpt>
      <trkpt lat="47.94715" lon="-3.88366">
        <ele>132.5</ele>
        <time>2022-12-07T10:18:28Z</time>
      </trkpt>
      <trkpt lat="47.94717" lon="-3.88361">
        <ele>132.6</ele>
        <time>2022-12-07T10:18:29Z</time>
      </trkpt>
      <trkpt lat="47.94721" lon="-3.88353">
        <ele>132.8</ele>
        <time>2022-12-07T10:18:31Z</time>
      </trkpt>
      <trkpt lat="47.94725" lon="-3.88344">
        <ele>133.1</ele>
        <time>2022-12-07T10:18:33Z</time>
      </trkpt>
      <trkpt lat="47.94727" lon="-3.88338">
        <ele>133.2</ele>
        <time>2022-12-07T10:18:34Z</time>
      </trkpt>
      <trkpt lat="47.94729" lon="-3.88334">
        <ele>133.3</ele>
        <time>2022-12-07T10:18:35Z</time>
      </trkpt>
      <trkpt lat="47.94734" lon="-3.88326">
        <ele>133.5</ele>
        <time>2022-12-07T10:18:37Z</time>
      </trkpt>
      <trkpt lat="47.94737" lon="-3.88319">
        <ele>133.7</ele>
        <time>2022-12-07T10:18:38Z</time>
      </trkpt>
      <trkpt lat="47.94738" lon="-3.88313">
        <ele>133.8</ele>
        <time>2022-12-07T10:18:39Z</time>
      </trkpt>
      <trkpt lat="47.94741" lon="-3.88309">
        <ele>133.9</ele>
        <time>2022-12-07T10:18:40Z</time>
      </trkpt>
      <trkpt lat="47.94747" lon="-3.88309">
        <ele>133.7</ele>
        <time>2022-12-07T10:18:41Z</time>
      </trkpt>
      <trkpt lat="47.94751" lon="-3.88309">
        <ele>133.5</ele>
        <time>2022-12-07T10:18:42Z</time>
      </trkpt>
      <trkpt lat="47.94756" lon="-3.88312">
        <ele>133.4</ele>
        <time>2022-12-07T10:18:43Z</time>
      </trkpt>
      <trkpt lat="47.9476" lon="-3.88315">
        <ele>133.2</ele>
        <time>2022-12-07T10:18:44Z</time>
      </trkpt>
      <trkpt lat="47.94763" lon="-3.88316">
        <ele>133.1</ele>
        <time>2022-12-07T10:18:45Z</time>
      </trkpt>
      <trkpt lat="47.9477" lon="-3.88319">
        <ele>132.9</ele>
        <time>2022-12-07T10:18:46Z</time>
      </trkpt>
      <trkpt lat="47.94777" lon="-3.88325">
        <ele>132.7</ele>
        <time>2022-12-07T10:18:48Z</time>
      </trkpt>
      <trkpt lat="47.94782" lon="-3.88328">
        <ele>132.6</ele>
        <time>2022-12-07T10:18:49Z</time>
      </trkpt>
      <trkpt lat="47.94786" lon="-3.88331">
        <ele>132.5</ele>
        <time>2022-12-07T10:18:50Z</time>
      </trkpt>
      <trkpt lat="47.9479" lon="-3.88334">
        <ele>132.4</ele>
        <time>2022-12-07T10:18:51Z</time>
      </trkpt>
      <trkpt lat="47.94794" lon="-3.88337">
        <ele>132.4</ele>
        <time>2022-12-07T10:18:52Z</time>
      </trkpt>
      <trkpt lat="47.94798" lon="-3.8834">
        <ele>132.3</ele>
        <time>2022-12-07T10:18:53Z</time>
      </trkpt>
      <trkpt lat="47.948" lon="-3.88342">
        <ele>132.3</ele>
        <time>2022-12-07T10:18:54Z</time>
      </trkpt>
      <trkpt lat="47.94804" lon="-3.88344">
        <ele>132.3</ele>
        <time>2022-12-07T10:18:55Z</time>
      </trkpt>
      <trkpt lat="47.9481" lon="-3.88349">
        <ele>132.3</ele>
        <time>2022-12-07T10:18:56Z</time>
      </trkpt>
      <trkpt lat="47.94814" lon="-3.88351">
        <ele>132.3</ele>
        <time>2022-12-07T10:18:57Z</time>
      </trkpt>
      <trkpt lat="47.94818" lon="-3.88355">
        <ele>132.3</ele>
        <time>2022-12-07T10:18:59Z</time>
      </trkpt>
      <trkpt lat="47.94824" lon="-3.8836">
        <ele>132.3</ele>
        <time>2022-12-07T10:19:00Z</time>
      </trkpt>
      <trkpt lat="47.94828" lon="-3.88365">
        <ele>132.4</ele>
        <time>2022-12-07T10:19:01Z</time>
      </trkpt>
      <trkpt lat="47.94832" lon="-3.88369">
        <ele>132.5</ele>
        <time>2022-12-07T10:19:03Z</time>
      </trkpt>
      <trkpt lat="47.94837" lon="-3.88375">
        <ele>132.6</ele>
        <time>2022-12-07T10:19:04Z</time>
      </trkpt>
      <trkpt lat="47.9484" lon="-3.88378">
        <ele>132.7</ele>
        <time>2022-12-07T10:19:05Z</time>
      </trkpt>
      <trkpt lat="47.94845" lon="-3.88384">
        <ele>132.8</ele>
        <time>2022-12-07T10:19:06Z</time>
      </trkpt>
      <trkpt lat="47.94848" lon="-3.88388">
        <ele>133</ele>
        <time>2022-12-07T10:19:08Z</time>
      </trkpt>
      <trkpt lat="47.94852" lon="-3.88393">
        <ele>133.1</ele>
        <time>2022-12-07T10:19:09Z</time>
      </trkpt>
      <trkpt lat="47.94856" lon="-3.88396">
        <ele>133.2</ele>
        <time>2022-12-07T10:19:10Z</time>
      </trkpt>
      <trkpt lat="47.94859" lon="-3.88398">
        <ele>133.3</ele>
        <time>2022-12-07T10:19:11Z</time>
      </trkpt>
      <trkpt lat="47.94862" lon="-3.88401">
        <ele>133.4</ele>
        <time>2022-12-07T10:19:12Z</time>
      </trkpt>
      <trkpt lat="47.94864" lon="-3.88405">
        <ele>133.5</ele>
        <time>2022-12-07T10:19:13Z</time>
      </trkpt>
      <trkpt lat="47.94867" lon="-3.88409">
        <ele>133.6</ele>
        <time>2022-12-07T10:19:14Z</time>
      </trkpt>
      <trkpt lat="47.94869" lon="-3.88414">
        <ele>133.7</ele>
        <time>2022-12-07T10:19:15Z</time>
      </trkpt>
      <trkpt lat="47.94871" lon="-3.88419">
        <ele>133.8</ele>
        <time>2022-12-07T10:19:16Z</time>
      </trkpt>
      <trkpt lat="47.94872" lon="-3.88425">
        <ele>133.9</ele>
        <time>2022-12-07T10:19:17Z</time>
      </trkpt>
      <trkpt lat="47.94873" lon="-3.88431">
        <ele>134</ele>
        <time>2022-12-07T10:19:18Z</time>
      </trkpt>
      <trkpt lat="47.94873" lon="-3.88436">
        <ele>134.1</ele>
        <time>2022-12-07T10:19:19Z</time>
      </trkpt>
      <trkpt lat="47.94874" lon="-3.88441">
        <ele>134.2</ele>
        <time>2022-12-07T10:19:20Z</time>
      </trkpt>
      <trkpt lat="47.94876" lon="-3.88447">
        <ele>134.3</ele>
        <time>2022-12-07T10:19:21Z</time>
      </trkpt>
      <trkpt lat="47.94878" lon="-3.88453">
        <ele>134.4</ele>
        <time>2022-12-07T10:19:22Z</time>
      </trkpt>
      <trkpt lat="47.9488" lon="-3.88457">
        <ele>134.4</ele>
        <time>2022-12-07T10:19:23Z</time>
      </trkpt>
      <trkpt lat="47.94884" lon="-3.88466">
        <ele>134.6</ele>
        <time>2022-12-07T10:19:25Z</time>
      </trkpt>
      <trkpt lat="47.94886" lon="-3.8847">
        <ele>134.6</ele>
        <time>2022-12-07T10:19:26Z</time>
      </trkpt>
      <trkpt lat="47.94888" lon="-3.88476">
        <ele>134.7</ele>
        <time>2022-12-07T10:19:27Z</time>
      </trkpt>
      <trkpt lat="47.9489" lon="-3.88482">
        <ele>134.8</ele>
        <time>2022-12-07T10:19:28Z</time>
      </trkpt>
      <trkpt lat="47.94892" lon="-3.88488">
        <ele>134.8</ele>
        <time>2022-12-07T10:19:29Z</time>
      </trkpt>
      <trkpt lat="47.94893" lon="-3.88494">
        <ele>134.9</ele>
        <time>2022-12-07T10:19:30Z</time>
      </trkpt>
      <trkpt lat="47.94894" lon="-3.88498">
        <ele>134.9</ele>
        <time>2022-12-07T10:19:31Z</time>
      </trkpt>
      <trkpt lat="47.94895" lon="-3.88502">
        <ele>135</ele>
        <time>2022-12-07T10:19:32Z</time>
      </trkpt>
      <trkpt lat="47.94896" lon="-3.88509">
        <ele>135</ele>
        <time>2022-12-07T10:19:33Z</time>
      </trkpt>
      <trkpt lat="47.94896" lon="-3.88516">
        <ele>135.1</ele>
        <time>2022-12-07T10:19:34Z</time>
      </trkpt>
      <trkpt lat="47.94898" lon="-3.88522">
        <ele>135.1</ele>
        <time>2022-12-07T10:19:35Z</time>
      </trkpt>
      <trkpt lat="47.949" lon="-3.88528">
        <ele>135.2</ele>
        <time>2022-12-07T10:19:36Z</time>
      </trkpt>
      <trkpt lat="47.94901" lon="-3.88534">
        <ele>135.2</ele>
        <time>2022-12-07T10:19:37Z</time>
      </trkpt>
      <trkpt lat="47.94902" lon="-3.88542">
        <ele>135.3</ele>
        <time>2022-12-07T10:19:39Z</time>
      </trkpt>
      <trkpt lat="47.94903" lon="-3.88547">
        <ele>135.3</ele>
        <time>2022-12-07T10:19:40Z</time>
      </trkpt>
      <trkpt lat="47.94905" lon="-3.88552">
        <ele>135.3</ele>
        <time>2022-12-07T10:19:41Z</time>
      </trkpt>
      <trkpt lat="47.94906" lon="-3.88559">
        <ele>135.4</ele>
        <time>2022-12-07T10:19:42Z</time>
      </trkpt>
      <trkpt lat="47.94907" lon="-3.88565">
        <ele>135.4</ele>
        <time>2022-12-07T10:19:43Z</time>
      </trkpt>
      <trkpt lat="47.94909" lon="-3.88569">
        <ele>135.4</ele>
        <time>2022-12-07T10:19:44Z</time>
      </trkpt>
      <trkpt lat="47.94911" lon="-3.88574">
        <ele>135.4</ele>
        <time>2022-12-07T10:19:45Z</time>
      </trkpt>
      <trkpt lat="47.94912" lon="-3.88576">
        <ele>135.4</ele>
        <time>2022-12-07T10:19:46Z</time>
      </trkpt>
      <trkpt lat="47.94913" lon="-3.88581">
        <ele>135.4</ele>
        <time>2022-12-07T10:19:47Z</time>
      </trkpt>
      <trkpt lat="47.94914" lon="-3.88588">
        <ele>135.4</ele>
        <time>2022-12-07T10:19:48Z</time>
      </trkpt>
      <trkpt lat="47.94915" lon="-3.88596">
        <ele>135.4</ele>
        <time>2022-12-07T10:19:49Z</time>
      </trkpt>
      <trkpt lat="47.94916" lon="-3.88603">
        <ele>135.3</ele>
        <time>2022-12-07T10:19:50Z</time>
      </trkpt>
      <trkpt lat="47.94917" lon="-3.8861">
        <ele>135.3</ele>
        <time>2022-12-07T10:19:51Z</time>
      </trkpt>
      <trkpt lat="47.94918" lon="-3.88615">
        <ele>135.3</ele>
        <time>2022-12-07T10:19:52Z</time>
      </trkpt>
      <trkpt lat="47.94919" lon="-3.88621">
        <ele>135.2</ele>
        <time>2022-12-07T10:19:53Z</time>
      </trkpt>
      <trkpt lat="47.9492" lon="-3.88634">
        <ele>135.1</ele>
        <time>2022-12-07T10:19:55Z</time>
      </trkpt>
      <trkpt lat="47.9492" lon="-3.88642">
        <ele>135</ele>
        <time>2022-12-07T10:19:56Z</time>
      </trkpt>
      <trkpt lat="47.94919" lon="-3.88653">
        <ele>134.7</ele>
        <time>2022-12-07T10:19:58Z</time>
      </trkpt>
      <trkpt lat="47.9492" lon="-3.88658">
        <ele>134.6</ele>
        <time>2022-12-07T10:19:59Z</time>
      </trkpt>
      <trkpt lat="47.9492" lon="-3.88665">
        <ele>134.5</ele>
        <time>2022-12-07T10:20:00Z</time>
      </trkpt>
      <trkpt lat="47.94921" lon="-3.88677">
        <ele>134.2</ele>
        <time>2022-12-07T10:20:01Z</time>
      </trkpt>
      <trkpt lat="47.94921" lon="-3.88684">
        <ele>134.1</ele>
        <time>2022-12-07T10:20:02Z</time>
      </trkpt>
      <trkpt lat="47.94921" lon="-3.8869">
        <ele>133.9</ele>
        <time>2022-12-07T10:20:03Z</time>
      </trkpt>
      <trkpt lat="47.9492" lon="-3.887">
        <ele>133.7</ele>
        <time>2022-12-07T10:20:05Z</time>
      </trkpt>
      <trkpt lat="47.94918" lon="-3.88706">
        <ele>133.5</ele>
        <time>2022-12-07T10:20:06Z</time>
      </trkpt>
      <trkpt lat="47.94913" lon="-3.88713">
        <ele>133.2</ele>
        <time>2022-12-07T10:20:07Z</time>
      </trkpt>
      <trkpt lat="47.9491" lon="-3.88717">
        <ele>133</ele>
        <time>2022-12-07T10:20:09Z</time>
      </trkpt>
      <trkpt lat="47.94908" lon="-3.8872">
        <ele>132.8</ele>
        <time>2022-12-07T10:20:10Z</time>
      </trkpt>
      <trkpt lat="47.94908" lon="-3.88721">
        <ele>132.8</ele>
        <time>2022-12-07T10:20:11Z</time>
      </trkpt>
      <trkpt lat="47.94906" lon="-3.88722">
        <ele>132.7</ele>
        <time>2022-12-07T10:20:12Z</time>
      </trkpt>
      <trkpt lat="47.94906" lon="-3.88723">
        <ele>132.7</ele>
        <time>2022-12-07T10:20:14Z</time>
      </trkpt>
      <trkpt lat="47.94906" lon="-3.88723">
        <ele>132.7</ele>
        <time>2022-12-07T10:20:15Z</time>
      </trkpt>
      <trkpt lat="47.94906" lon="-3.88724">
        <ele>132.6</ele>
        <time>2022-12-07T10:20:16Z</time>
      </trkpt>
      <trkpt lat="47.94905" lon="-3.88725">
        <ele>132.6</ele>
        <time>2022-12-07T10:20:17Z</time>
      </trkpt>
      <trkpt lat="47.94905" lon="-3.88726">
        <ele>132.6</ele>
        <time>2022-12-07T10:20:18Z</time>
      </trkpt>
      <trkpt lat="47.94905" lon="-3.88727">
        <ele>132.5</ele>
        <time>2022-12-07T10:20:19Z</time>
      </trkpt>
      <trkpt lat="47.94904" lon="-3.88728">
        <ele>132.5</ele>
        <time>2022-12-07T10:20:20Z</time>
      </trkpt>
      <trkpt lat="47.94904" lon="-3.88728">
        <ele>132.5</ele>
        <time>2022-12-07T10:20:21Z</time>
      </trkpt>
      <trkpt lat="47.94904" lon="-3.88729">
        <ele>132.4</ele>
        <time>2022-12-07T10:20:22Z</time>
      </trkpt>
      <trkpt lat="47.94904" lon="-3.8873">
        <ele>132.4</ele>
        <time>2022-12-07T10:20:54Z</time>
      </trkpt>
      <trkpt lat="47.94903" lon="-3.88731">
        <ele>132.4</ele>
        <time>2022-12-07T10:20:55Z</time>
      </trkpt>
      <trkpt lat="47.94903" lon="-3.88732">
        <ele>132.4</ele>
        <time>2022-12-07T10:20:56Z</time>
      </trkpt>
      <trkpt lat="47.94903" lon="-3.88732">
        <ele>132.3</ele>
        <time>2022-12-07T10:20:57Z</time>
      </trkpt>
      <trkpt lat="47.94902" lon="-3.88739">
        <ele>132.1</ele>
        <time>2022-12-07T10:20:58Z</time>
      </trkpt>
      <trkpt lat="47.94901" lon="-3.88743">
        <ele>132</ele>
        <time>2022-12-07T10:20:59Z</time>
      </trkpt>
      <trkpt lat="47.94897" lon="-3.88742">
        <ele>131.8</ele>
        <time>2022-12-07T10:21:00Z</time>
      </trkpt>
      <trkpt lat="47.94894" lon="-3.88744">
        <ele>131.7</ele>
        <time>2022-12-07T10:21:01Z</time>
      </trkpt>
      <trkpt lat="47.94889" lon="-3.8875">
        <ele>131.4</ele>
        <time>2022-12-07T10:21:03Z</time>
      </trkpt>
      <trkpt lat="47.94886" lon="-3.88753">
        <ele>131.2</ele>
        <time>2022-12-07T10:21:04Z</time>
      </trkpt>
      <trkpt lat="47.94883" lon="-3.88756">
        <ele>131</ele>
        <time>2022-12-07T10:21:05Z</time>
      </trkpt>
      <trkpt lat="47.94877" lon="-3.88763">
        <ele>130.5</ele>
        <time>2022-12-07T10:21:07Z</time>
      </trkpt>
      <trkpt lat="47.94875" lon="-3.88766">
        <ele>130.2</ele>
        <time>2022-12-07T10:21:08Z</time>
      </trkpt>
      <trkpt lat="47.94874" lon="-3.88769">
        <ele>130</ele>
        <time>2022-12-07T10:21:09Z</time>
      </trkpt>
      <trkpt lat="47.94874" lon="-3.88775">
        <ele>129.7</ele>
        <time>2022-12-07T10:21:11Z</time>
      </trkpt>
      <trkpt lat="47.94873" lon="-3.88781">
        <ele>129.2</ele>
        <time>2022-12-07T10:21:12Z</time>
      </trkpt>
      <trkpt lat="47.94874" lon="-3.88786">
        <ele>128.8</ele>
        <time>2022-12-07T10:21:13Z</time>
      </trkpt>
      <trkpt lat="47.94874" lon="-3.88792">
        <ele>128.4</ele>
        <time>2022-12-07T10:21:14Z</time>
      </trkpt>
      <trkpt lat="47.94878" lon="-3.88798">
        <ele>127.9</ele>
        <time>2022-12-07T10:21:15Z</time>
      </trkpt>
      <trkpt lat="47.94881" lon="-3.88803">
        <ele>127.3</ele>
        <time>2022-12-07T10:21:16Z</time>
      </trkpt>
      <trkpt lat="47.94883" lon="-3.88811">
        <ele>126.8</ele>
        <time>2022-12-07T10:21:17Z</time>
      </trkpt>
      <trkpt lat="47.94886" lon="-3.88819">
        <ele>126.4</ele>
        <time>2022-12-07T10:21:18Z</time>
      </trkpt>
      <trkpt lat="47.94888" lon="-3.88828">
        <ele>125.9</ele>
        <time>2022-12-07T10:21:19Z</time>
      </trkpt>
      <trkpt lat="47.94892" lon="-3.88835">
        <ele>125.5</ele>
        <time>2022-12-07T10:21:20Z</time>
      </trkpt>
      <trkpt lat="47.94894" lon="-3.88842">
        <ele>125.3</ele>
        <time>2022-12-07T10:21:21Z</time>
      </trkpt>
      <trkpt lat="47.94895" lon="-3.88848">
        <ele>125</ele>
        <time>2022-12-07T10:21:22Z</time>
      </trkpt>
      <trkpt lat="47.94894" lon="-3.88853">
        <ele>124.9</ele>
        <time>2022-12-07T10:21:23Z</time>
      </trkpt>
      <trkpt lat="47.94894" lon="-3.88854">
        <ele>124.9</ele>
        <time>2022-12-07T10:21:24Z</time>
      </trkpt>
      <trkpt lat="47.94894" lon="-3.88857">
        <ele>124.8</ele>
        <time>2022-12-07T10:21:25Z</time>
      </trkpt>
      <trkpt lat="47.94893" lon="-3.8886">
        <ele>124.7</ele>
        <time>2022-12-07T10:21:27Z</time>
      </trkpt>
      <trkpt lat="47.94894" lon="-3.88863">
        <ele>124.7</ele>
        <time>2022-12-07T10:21:29Z</time>
      </trkpt>
      <trkpt lat="47.94897" lon="-3.88866">
        <ele>124.6</ele>
        <time>2022-12-07T10:21:31Z</time>
      </trkpt>
      <trkpt lat="47.94898" lon="-3.88868">
        <ele>124.5</ele>
        <time>2022-12-07T10:21:32Z</time>
      </trkpt>
      <trkpt lat="47.94898" lon="-3.8887">
        <ele>124.5</ele>
        <time>2022-12-07T10:21:33Z</time>
      </trkpt>
      <trkpt lat="47.94899" lon="-3.88872">
        <ele>124.4</ele>
        <time>2022-12-07T10:21:34Z</time>
      </trkpt>
      <trkpt lat="47.94898" lon="-3.88875">
        <ele>124.3</ele>
        <time>2022-12-07T10:21:36Z</time>
      </trkpt>
      <trkpt lat="47.94895" lon="-3.88878">
        <ele>124.2</ele>
        <time>2022-12-07T10:21:37Z</time>
      </trkpt>
      <trkpt lat="47.94893" lon="-3.88881">
        <ele>124.1</ele>
        <time>2022-12-07T10:21:38Z</time>
      </trkpt>
      <trkpt lat="47.94891" lon="-3.88886">
        <ele>124</ele>
        <time>2022-12-07T10:21:39Z</time>
      </trkpt>
      <trkpt lat="47.94891" lon="-3.88887">
        <ele>124</ele>
        <time>2022-12-07T10:21:40Z</time>
      </trkpt>
      <trkpt lat="47.94889" lon="-3.88891">
        <ele>123.9</ele>
        <time>2022-12-07T10:21:42Z</time>
      </trkpt>
      <trkpt lat="47.94886" lon="-3.88896">
        <ele>123.8</ele>
        <time>2022-12-07T10:21:43Z</time>
      </trkpt>
      <trkpt lat="47.94885" lon="-3.889">
        <ele>123.7</ele>
        <time>2022-12-07T10:21:44Z</time>
      </trkpt>
      <trkpt lat="47.94883" lon="-3.88905">
        <ele>123.6</ele>
        <time>2022-12-07T10:21:45Z</time>
      </trkpt>
      <trkpt lat="47.94881" lon="-3.88909">
        <ele>123.5</ele>
        <time>2022-12-07T10:21:46Z</time>
      </trkpt>
      <trkpt lat="47.94878" lon="-3.88916">
        <ele>123.4</ele>
        <time>2022-12-07T10:21:48Z</time>
      </trkpt>
      <trkpt lat="47.94876" lon="-3.88921">
        <ele>123.3</ele>
        <time>2022-12-07T10:21:49Z</time>
      </trkpt>
      <trkpt lat="47.94874" lon="-3.88928">
        <ele>123.2</ele>
        <time>2022-12-07T10:21:50Z</time>
      </trkpt>
      <trkpt lat="47.94872" lon="-3.88934">
        <ele>123.1</ele>
        <time>2022-12-07T10:21:52Z</time>
      </trkpt>
      <trkpt lat="47.94871" lon="-3.88939">
        <ele>123.1</ele>
        <time>2022-12-07T10:21:53Z</time>
      </trkpt>
      <trkpt lat="47.94869" lon="-3.88945">
        <ele>123</ele>
        <time>2022-12-07T10:21:54Z</time>
      </trkpt>
      <trkpt lat="47.94865" lon="-3.88951">
        <ele>122.9</ele>
        <time>2022-12-07T10:21:56Z</time>
      </trkpt>
      <trkpt lat="47.94864" lon="-3.88955">
        <ele>122.8</ele>
        <time>2022-12-07T10:21:57Z</time>
      </trkpt>
      <trkpt lat="47.94862" lon="-3.88959">
        <ele>122.8</ele>
        <time>2022-12-07T10:21:58Z</time>
      </trkpt>
      <trkpt lat="47.9486" lon="-3.88964">
        <ele>122.7</ele>
        <time>2022-12-07T10:21:59Z</time>
      </trkpt>
      <trkpt lat="47.94856" lon="-3.88971">
        <ele>122.6</ele>
        <time>2022-12-07T10:22:01Z</time>
      </trkpt>
      <trkpt lat="47.94854" lon="-3.88975">
        <ele>122.6</ele>
        <time>2022-12-07T10:22:02Z</time>
      </trkpt>
      <trkpt lat="47.94851" lon="-3.88981">
        <ele>122.5</ele>
        <time>2022-12-07T10:22:03Z</time>
      </trkpt>
      <trkpt lat="47.94849" lon="-3.88986">
        <ele>122.5</ele>
        <time>2022-12-07T10:22:04Z</time>
      </trkpt>
      <trkpt lat="47.94847" lon="-3.8899">
        <ele>122.5</ele>
        <time>2022-12-07T10:22:05Z</time>
      </trkpt>
      <trkpt lat="47.94844" lon="-3.88995">
        <ele>122.4</ele>
        <time>2022-12-07T10:22:06Z</time>
      </trkpt>
      <trkpt lat="47.94841" lon="-3.88999">
        <ele>122.4</ele>
        <time>2022-12-07T10:22:07Z</time>
      </trkpt>
      <trkpt lat="47.94839" lon="-3.89004">
        <ele>122.3</ele>
        <time>2022-12-07T10:22:08Z</time>
      </trkpt>
      <trkpt lat="47.94837" lon="-3.89007">
        <ele>122.3</ele>
        <time>2022-12-07T10:22:09Z</time>
      </trkpt>
      <trkpt lat="47.94833" lon="-3.89016">
        <ele>122.2</ele>
        <time>2022-12-07T10:22:11Z</time>
      </trkpt>
      <trkpt lat="47.9483" lon="-3.89022">
        <ele>122.2</ele>
        <time>2022-12-07T10:22:12Z</time>
      </trkpt>
      <trkpt lat="47.94827" lon="-3.89028">
        <ele>122.2</ele>
        <time>2022-12-07T10:22:14Z</time>
      </trkpt>
      <trkpt lat="47.94822" lon="-3.89035">
        <ele>122.2</ele>
        <time>2022-12-07T10:22:15Z</time>
      </trkpt>
      <trkpt lat="47.9482" lon="-3.89039">
        <ele>122.2</ele>
        <time>2022-12-07T10:22:16Z</time>
      </trkpt>
      <trkpt lat="47.94817" lon="-3.89044">
        <ele>122.3</ele>
        <time>2022-12-07T10:22:17Z</time>
      </trkpt>
      <trkpt lat="47.94815" lon="-3.89048">
        <ele>122.3</ele>
        <time>2022-12-07T10:22:18Z</time>
      </trkpt>
      <trkpt lat="47.94813" lon="-3.89054">
        <ele>122.4</ele>
        <time>2022-12-07T10:22:19Z</time>
      </trkpt>
      <trkpt lat="47.9481" lon="-3.89058">
        <ele>122.5</ele>
        <time>2022-12-07T10:22:20Z</time>
      </trkpt>
      <trkpt lat="47.94807" lon="-3.89061">
        <ele>122.6</ele>
        <time>2022-12-07T10:22:21Z</time>
      </trkpt>
      <trkpt lat="47.94802" lon="-3.89067">
        <ele>122.8</ele>
        <time>2022-12-07T10:22:22Z</time>
      </trkpt>
      <trkpt lat="47.94799" lon="-3.89073">
        <ele>123.1</ele>
        <time>2022-12-07T10:22:24Z</time>
      </trkpt>
      <trkpt lat="47.94796" lon="-3.89077">
        <ele>123.3</ele>
        <time>2022-12-07T10:22:25Z</time>
      </trkpt>
      <trkpt lat="47.94794" lon="-3.89081">
        <ele>123.5</ele>
        <time>2022-12-07T10:22:26Z</time>
      </trkpt>
      <trkpt lat="47.94792" lon="-3.89086">
        <ele>123.8</ele>
        <time>2022-12-07T10:22:27Z</time>
      </trkpt>
      <trkpt lat="47.94792" lon="-3.89092">
        <ele>124.1</ele>
        <time>2022-12-07T10:22:28Z</time>
      </trkpt>
      <trkpt lat="47.94792" lon="-3.89097">
        <ele>124.4</ele>
        <time>2022-12-07T10:22:29Z</time>
      </trkpt>
      <trkpt lat="47.94793" lon="-3.89102">
        <ele>124.8</ele>
        <time>2022-12-07T10:22:30Z</time>
      </trkpt>
      <trkpt lat="47.94793" lon="-3.89108">
        <ele>125.2</ele>
        <time>2022-12-07T10:22:31Z</time>
      </trkpt>
      <trkpt lat="47.94792" lon="-3.8911">
        <ele>125.3</ele>
        <time>2022-12-07T10:22:32Z</time>
      </trkpt>
      <trkpt lat="47.94793" lon="-3.89114">
        <ele>125.7</ele>
        <time>2022-12-07T10:22:33Z</time>
      </trkpt>
      <trkpt lat="47.94793" lon="-3.89116">
        <ele>125.8</ele>
        <time>2022-12-07T10:22:34Z</time>
      </trkpt>
      <trkpt lat="47.94794" lon="-3.89121">
        <ele>126.1</ele>
        <time>2022-12-07T10:22:35Z</time>
      </trkpt>
      <trkpt lat="47.94794" lon="-3.89123">
        <ele>126.3</ele>
        <time>2022-12-07T10:22:36Z</time>
      </trkpt>
      <trkpt lat="47.94794" lon="-3.89127">
        <ele>126.6</ele>
        <time>2022-12-07T10:22:37Z</time>
      </trkpt>
      <trkpt lat="47.94794" lon="-3.8913">
        <ele>126.8</ele>
        <time>2022-12-07T10:22:38Z</time>
      </trkpt>
      <trkpt lat="47.94793" lon="-3.89132">
        <ele>127</ele>
        <time>2022-12-07T10:22:39Z</time>
      </trkpt>
      <trkpt lat="47.94793" lon="-3.89134">
        <ele>127.1</ele>
        <time>2022-12-07T10:22:40Z</time>
      </trkpt>
      <trkpt lat="47.94795" lon="-3.89138">
        <ele>127.4</ele>
        <time>2022-12-07T10:22:42Z</time>
      </trkpt>
      <trkpt lat="47.94795" lon="-3.89144">
        <ele>127.8</ele>
        <time>2022-12-07T10:22:44Z</time>
      </trkpt>
      <trkpt lat="47.94796" lon="-3.89147">
        <ele>127.9</ele>
        <time>2022-12-07T10:22:45Z</time>
      </trkpt>
      <trkpt lat="47.94796" lon="-3.89151">
        <ele>128.2</ele>
        <time>2022-12-07T10:22:46Z</time>
      </trkpt>
      <trkpt lat="47.94795" lon="-3.89153">
        <ele>128.3</ele>
        <time>2022-12-07T10:22:47Z</time>
      </trkpt>
      <trkpt lat="47.94795" lon="-3.89157">
        <ele>128.5</ele>
        <time>2022-12-07T10:22:48Z</time>
      </trkpt>
      <trkpt lat="47.94795" lon="-3.89162">
        <ele>128.8</ele>
        <time>2022-12-07T10:22:49Z</time>
      </trkpt>
      <trkpt lat="47.94795" lon="-3.89164">
        <ele>128.9</ele>
        <time>2022-12-07T10:22:50Z</time>
      </trkpt>
      <trkpt lat="47.94794" lon="-3.89169">
        <ele>129.2</ele>
        <time>2022-12-07T10:22:51Z</time>
      </trkpt>
      <trkpt lat="47.94794" lon="-3.89171">
        <ele>129.3</ele>
        <time>2022-12-07T10:22:52Z</time>
      </trkpt>
      <trkpt lat="47.94794" lon="-3.89175">
        <ele>129.5</ele>
        <time>2022-12-07T10:22:53Z</time>
      </trkpt>
      <trkpt lat="47.94794" lon="-3.89181">
        <ele>129.8</ele>
        <time>2022-12-07T10:22:55Z</time>
      </trkpt>
      <trkpt lat="47.94794" lon="-3.89188">
        <ele>130.1</ele>
        <time>2022-12-07T10:22:56Z</time>
      </trkpt>
      <trkpt lat="47.94794" lon="-3.89191">
        <ele>130.2</ele>
        <time>2022-12-07T10:22:57Z</time>
      </trkpt>
      <trkpt lat="47.94795" lon="-3.89195">
        <ele>130.4</ele>
        <time>2022-12-07T10:22:58Z</time>
      </trkpt>
      <trkpt lat="47.94795" lon="-3.89199">
        <ele>130.6</ele>
        <time>2022-12-07T10:22:59Z</time>
      </trkpt>
      <trkpt lat="47.94795" lon="-3.89204">
        <ele>130.8</ele>
        <time>2022-12-07T10:23:00Z</time>
      </trkpt>
      <trkpt lat="47.94796" lon="-3.89208">
        <ele>131</ele>
        <time>2022-12-07T10:23:01Z</time>
      </trkpt>
      <trkpt lat="47.94797" lon="-3.89212">
        <ele>131.2</ele>
        <time>2022-12-07T10:23:02Z</time>
      </trkpt>
      <trkpt lat="47.94798" lon="-3.89218">
        <ele>131.4</ele>
        <time>2022-12-07T10:23:03Z</time>
      </trkpt>
      <trkpt lat="47.94799" lon="-3.8922">
        <ele>131.5</ele>
        <time>2022-12-07T10:23:04Z</time>
      </trkpt>
      <trkpt lat="47.948" lon="-3.89223">
        <ele>131.7</ele>
        <time>2022-12-07T10:23:05Z</time>
      </trkpt>
      <trkpt lat="47.94802" lon="-3.89228">
        <ele>131.9</ele>
        <time>2022-12-07T10:23:06Z</time>
      </trkpt>
      <trkpt lat="47.94803" lon="-3.8923">
        <ele>132</ele>
        <time>2022-12-07T10:23:07Z</time>
      </trkpt>
      <trkpt lat="47.94805" lon="-3.89233">
        <ele>132.2</ele>
        <time>2022-12-07T10:23:08Z</time>
      </trkpt>
      <trkpt lat="47.94807" lon="-3.89237">
        <ele>132.4</ele>
        <time>2022-12-07T10:23:09Z</time>
      </trkpt>
      <trkpt lat="47.94809" lon="-3.8924">
        <ele>132.6</ele>
        <time>2022-12-07T10:23:10Z</time>
      </trkpt>
      <trkpt lat="47.9481" lon="-3.89242">
        <ele>132.6</ele>
        <time>2022-12-07T10:23:11Z</time>
      </trkpt>
      <trkpt lat="47.94812" lon="-3.89245">
        <ele>132.8</ele>
        <time>2022-12-07T10:23:12Z</time>
      </trkpt>
      <trkpt lat="47.94814" lon="-3.89247">
        <ele>133</ele>
        <time>2022-12-07T10:23:13Z</time>
      </trkpt>
      <trkpt lat="47.94818" lon="-3.89252">
        <ele>133.3</ele>
        <time>2022-12-07T10:23:15Z</time>
      </trkpt>
      <trkpt lat="47.9482" lon="-3.89254">
        <ele>133.4</ele>
        <time>2022-12-07T10:23:16Z</time>
      </trkpt>
      <trkpt lat="47.94821" lon="-3.89256">
        <ele>133.5</ele>
        <time>2022-12-07T10:23:17Z</time>
      </trkpt>
      <trkpt lat="47.94824" lon="-3.89258">
        <ele>133.7</ele>
        <time>2022-12-07T10:23:18Z</time>
      </trkpt>
      <trkpt lat="47.94827" lon="-3.89261">
        <ele>133.9</ele>
        <time>2022-12-07T10:23:19Z</time>
      </trkpt>
      <trkpt lat="47.94827" lon="-3.89263">
        <ele>134</ele>
        <time>2022-12-07T10:23:20Z</time>
      </trkpt>
      <trkpt lat="47.94829" lon="-3.89267">
        <ele>134.2</ele>
        <time>2022-12-07T10:23:21Z</time>
      </trkpt>
      <trkpt lat="47.94829" lon="-3.89268">
        <ele>134.2</ele>
        <time>2022-12-07T10:23:22Z</time>
      </trkpt>
      <trkpt lat="47.94829" lon="-3.89272">
        <ele>134.4</ele>
        <time>2022-12-07T10:23:23Z</time>
      </trkpt>
      <trkpt lat="47.94828" lon="-3.89277">
        <ele>134.6</ele>
        <time>2022-12-07T10:23:24Z</time>
      </trkpt>
      <trkpt lat="47.94827" lon="-3.89278">
        <ele>134.7</ele>
        <time>2022-12-07T10:23:25Z</time>
      </trkpt>
      <trkpt lat="47.94824" lon="-3.8928">
        <ele>134.7</ele>
        <time>2022-12-07T10:23:26Z</time>
      </trkpt>
      <trkpt lat="47.94823" lon="-3.8928">
        <ele>134.7</ele>
        <time>2022-12-07T10:23:27Z</time>
      </trkpt>
      <trkpt lat="47.9482" lon="-3.89282">
        <ele>134.7</ele>
        <time>2022-12-07T10:23:28Z</time>
      </trkpt>
      <trkpt lat="47.94815" lon="-3.89284">
        <ele>134.8</ele>
        <time>2022-12-07T10:23:29Z</time>
      </trkpt>
      <trkpt lat="47.94812" lon="-3.89285">
        <ele>134.8</ele>
        <time>2022-12-07T10:23:30Z</time>
      </trkpt>
      <trkpt lat="47.94809" lon="-3.89288">
        <ele>134.8</ele>
        <time>2022-12-07T10:23:31Z</time>
      </trkpt>
      <trkpt lat="47.94808" lon="-3.89289">
        <ele>134.8</ele>
        <time>2022-12-07T10:23:32Z</time>
      </trkpt>
      <trkpt lat="47.94805" lon="-3.89291">
        <ele>134.8</ele>
        <time>2022-12-07T10:23:33Z</time>
      </trkpt>
      <trkpt lat="47.94802" lon="-3.89294">
        <ele>134.8</ele>
        <time>2022-12-07T10:23:34Z</time>
      </trkpt>
      <trkpt lat="47.94799" lon="-3.89297">
        <ele>134.8</ele>
        <time>2022-12-07T10:23:35Z</time>
      </trkpt>
      <trkpt lat="47.94792" lon="-3.89303">
        <ele>134.8</ele>
        <time>2022-12-07T10:23:37Z</time>
      </trkpt>
      <trkpt lat="47.94789" lon="-3.89307">
        <ele>134.8</ele>
        <time>2022-12-07T10:23:38Z</time>
      </trkpt>
      <trkpt lat="47.94783" lon="-3.89313">
        <ele>134.7</ele>
        <time>2022-12-07T10:23:39Z</time>
      </trkpt>
      <trkpt lat="47.9478" lon="-3.89316">
        <ele>134.7</ele>
        <time>2022-12-07T10:23:40Z</time>
      </trkpt>
      <trkpt lat="47.94772" lon="-3.89325">
        <ele>134.5</ele>
        <time>2022-12-07T10:23:42Z</time>
      </trkpt>
      <trkpt lat="47.94769" lon="-3.8933">
        <ele>134.4</ele>
        <time>2022-12-07T10:23:43Z</time>
      </trkpt>
      <trkpt lat="47.94766" lon="-3.89335">
        <ele>134.4</ele>
        <time>2022-12-07T10:23:44Z</time>
      </trkpt>
      <trkpt lat="47.94761" lon="-3.89341">
        <ele>134.2</ele>
        <time>2022-12-07T10:23:45Z</time>
      </trkpt>
      <trkpt lat="47.94759" lon="-3.89344">
        <ele>134.1</ele>
        <time>2022-12-07T10:23:46Z</time>
      </trkpt>
      <trkpt lat="47.94755" lon="-3.8935">
        <ele>133.9</ele>
        <time>2022-12-07T10:23:47Z</time>
      </trkpt>
      <trkpt lat="47.94752" lon="-3.89357">
        <ele>133.7</ele>
        <time>2022-12-07T10:23:48Z</time>
      </trkpt>
      <trkpt lat="47.94751" lon="-3.89364">
        <ele>133.5</ele>
        <time>2022-12-07T10:23:49Z</time>
      </trkpt>
      <trkpt lat="47.94754" lon="-3.89371">
        <ele>133.6</ele>
        <time>2022-12-07T10:23:50Z</time>
      </trkpt>
      <trkpt lat="47.94758" lon="-3.89375">
        <ele>133.9</ele>
        <time>2022-12-07T10:23:51Z</time>
      </trkpt>
      <trkpt lat="47.94762" lon="-3.89377">
        <ele>134.1</ele>
        <time>2022-12-07T10:23:52Z</time>
      </trkpt>
      <trkpt lat="47.94764" lon="-3.89376">
        <ele>134.3</ele>
        <time>2022-12-07T10:23:53Z</time>
      </trkpt>
      <trkpt lat="47.9477" lon="-3.89375">
        <ele>134.6</ele>
        <time>2022-12-07T10:23:55Z</time>
      </trkpt>
      <trkpt lat="47.94775" lon="-3.89375">
        <ele>134.9</ele>
        <time>2022-12-07T10:23:56Z</time>
      </trkpt>
      <trkpt lat="47.94781" lon="-3.89375">
        <ele>135.2</ele>
        <time>2022-12-07T10:23:57Z</time>
      </trkpt>
      <trkpt lat="47.94785" lon="-3.89375">
        <ele>135.4</ele>
        <time>2022-12-07T10:23:59Z</time>
      </trkpt>
      <trkpt lat="47.94791" lon="-3.89375">
        <ele>135.6</ele>
        <time>2022-12-07T10:24:00Z</time>
      </trkpt>
      <trkpt lat="47.94794" lon="-3.89376">
        <ele>135.8</ele>
        <time>2022-12-07T10:24:01Z</time>
      </trkpt>
      <trkpt lat="47.94798" lon="-3.89376">
        <ele>136</ele>
        <time>2022-12-07T10:24:02Z</time>
      </trkpt>
      <trkpt lat="47.94801" lon="-3.89376">
        <ele>136.1</ele>
        <time>2022-12-07T10:24:03Z</time>
      </trkpt>
      <trkpt lat="47.94806" lon="-3.89377">
        <ele>136.4</ele>
        <time>2022-12-07T10:24:04Z</time>
      </trkpt>
      <trkpt lat="47.94809" lon="-3.89378">
        <ele>136.5</ele>
        <time>2022-12-07T10:24:05Z</time>
      </trkpt>
      <trkpt lat="47.94813" lon="-3.89379">
        <ele>136.7</ele>
        <time>2022-12-07T10:24:06Z</time>
      </trkpt>
      <trkpt lat="47.94818" lon="-3.8938">
        <ele>136.9</ele>
        <time>2022-12-07T10:24:07Z</time>
      </trkpt>
      <trkpt lat="47.94822" lon="-3.89381">
        <ele>137</ele>
        <time>2022-12-07T10:24:08Z</time>
      </trkpt>
      <trkpt lat="47.94825" lon="-3.89382">
        <ele>137.1</ele>
        <time>2022-12-07T10:24:09Z</time>
      </trkpt>
      <trkpt lat="47.9483" lon="-3.89384">
        <ele>137.2</ele>
        <time>2022-12-07T10:24:10Z</time>
      </trkpt>
      <trkpt lat="47.94833" lon="-3.89385">
        <ele>137.3</ele>
        <time>2022-12-07T10:24:11Z</time>
      </trkpt>
      <trkpt lat="47.94838" lon="-3.89386">
        <ele>137.3</ele>
        <time>2022-12-07T10:24:12Z</time>
      </trkpt>
      <trkpt lat="47.94843" lon="-3.89386">
        <ele>137.4</ele>
        <time>2022-12-07T10:24:13Z</time>
      </trkpt>
      <trkpt lat="47.94847" lon="-3.89387">
        <ele>137.4</ele>
        <time>2022-12-07T10:24:14Z</time>
      </trkpt>
      <trkpt lat="47.94852" lon="-3.89388">
        <ele>137.5</ele>
        <time>2022-12-07T10:24:15Z</time>
      </trkpt>
      <trkpt lat="47.94855" lon="-3.89389">
        <ele>137.5</ele>
        <time>2022-12-07T10:24:16Z</time>
      </trkpt>
      <trkpt lat="47.94861" lon="-3.89389">
        <ele>137.6</ele>
        <time>2022-12-07T10:24:18Z</time>
      </trkpt>
      <trkpt lat="47.94869" lon="-3.89392">
        <ele>137.6</ele>
        <time>2022-12-07T10:24:19Z</time>
      </trkpt>
      <trkpt lat="47.94873" lon="-3.89396">
        <ele>137.6</ele>
        <time>2022-12-07T10:24:20Z</time>
      </trkpt>
      <trkpt lat="47.94874" lon="-3.894">
        <ele>137.5</ele>
        <time>2022-12-07T10:24:21Z</time>
      </trkpt>
      <trkpt lat="47.94876" lon="-3.89408">
        <ele>137.4</ele>
        <time>2022-12-07T10:24:22Z</time>
      </trkpt>
      <trkpt lat="47.94877" lon="-3.89416">
        <ele>137.3</ele>
        <time>2022-12-07T10:24:23Z</time>
      </trkpt>
      <trkpt lat="47.94879" lon="-3.89423">
        <ele>137.2</ele>
        <time>2022-12-07T10:24:24Z</time>
      </trkpt>
      <trkpt lat="47.94881" lon="-3.89431">
        <ele>137.1</ele>
        <time>2022-12-07T10:24:25Z</time>
      </trkpt>
      <trkpt lat="47.94882" lon="-3.89438">
        <ele>137</ele>
        <time>2022-12-07T10:24:26Z</time>
      </trkpt>
      <trkpt lat="47.94883" lon="-3.89446">
        <ele>136.9</ele>
        <time>2022-12-07T10:24:27Z</time>
      </trkpt>
      <trkpt lat="47.94885" lon="-3.89454">
        <ele>136.9</ele>
        <time>2022-12-07T10:24:28Z</time>
      </trkpt>
      <trkpt lat="47.94886" lon="-3.89462">
        <ele>136.8</ele>
        <time>2022-12-07T10:24:29Z</time>
      </trkpt>
      <trkpt lat="47.94887" lon="-3.8947">
        <ele>136.8</ele>
        <time>2022-12-07T10:24:30Z</time>
      </trkpt>
      <trkpt lat="47.94889" lon="-3.89478">
        <ele>136.7</ele>
        <time>2022-12-07T10:24:31Z</time>
      </trkpt>
      <trkpt lat="47.9489" lon="-3.89486">
        <ele>136.7</ele>
        <time>2022-12-07T10:24:32Z</time>
      </trkpt>
      <trkpt lat="47.94892" lon="-3.89494">
        <ele>136.7</ele>
        <time>2022-12-07T10:24:33Z</time>
      </trkpt>
      <trkpt lat="47.94893" lon="-3.89502">
        <ele>136.8</ele>
        <time>2022-12-07T10:24:34Z</time>
      </trkpt>
      <trkpt lat="47.94895" lon="-3.8951">
        <ele>136.8</ele>
        <time>2022-12-07T10:24:35Z</time>
      </trkpt>
      <trkpt lat="47.94896" lon="-3.89518">
        <ele>136.9</ele>
        <time>2022-12-07T10:24:36Z</time>
      </trkpt>
      <trkpt lat="47.94898" lon="-3.89526">
        <ele>136.9</ele>
        <time>2022-12-07T10:24:37Z</time>
      </trkpt>
      <trkpt lat="47.94899" lon="-3.89533">
        <ele>137</ele>
        <time>2022-12-07T10:24:38Z</time>
      </trkpt>
      <trkpt lat="47.949" lon="-3.89541">
        <ele>137.2</ele>
        <time>2022-12-07T10:24:39Z</time>
      </trkpt>
      <trkpt lat="47.94901" lon="-3.89549">
        <ele>137.3</ele>
        <time>2022-12-07T10:24:40Z</time>
      </trkpt>
      <trkpt lat="47.94901" lon="-3.89557">
        <ele>137.4</ele>
        <time>2022-12-07T10:24:41Z</time>
      </trkpt>
      <trkpt lat="47.94902" lon="-3.89564">
        <ele>137.5</ele>
        <time>2022-12-07T10:24:42Z</time>
      </trkpt>
      <trkpt lat="47.94903" lon="-3.89571">
        <ele>137.6</ele>
        <time>2022-12-07T10:24:43Z</time>
      </trkpt>
      <trkpt lat="47.94904" lon="-3.89578">
        <ele>137.7</ele>
        <time>2022-12-07T10:24:44Z</time>
      </trkpt>
      <trkpt lat="47.94905" lon="-3.89584">
        <ele>137.8</ele>
        <time>2022-12-07T10:24:45Z</time>
      </trkpt>
      <trkpt lat="47.94907" lon="-3.89591">
        <ele>137.8</ele>
        <time>2022-12-07T10:24:46Z</time>
      </trkpt>
      <trkpt lat="47.94908" lon="-3.89597">
        <ele>137.9</ele>
        <time>2022-12-07T10:24:47Z</time>
      </trkpt>
      <trkpt lat="47.9491" lon="-3.89604">
        <ele>138</ele>
        <time>2022-12-07T10:24:48Z</time>
      </trkpt>
      <trkpt lat="47.94911" lon="-3.89611">
        <ele>138.1</ele>
        <time>2022-12-07T10:24:49Z</time>
      </trkpt>
      <trkpt lat="47.94912" lon="-3.89618">
        <ele>138.1</ele>
        <time>2022-12-07T10:24:50Z</time>
      </trkpt>
      <trkpt lat="47.94914" lon="-3.89625">
        <ele>138.2</ele>
        <time>2022-12-07T10:24:51Z</time>
      </trkpt>
      <trkpt lat="47.94914" lon="-3.89632">
        <ele>138.3</ele>
        <time>2022-12-07T10:24:52Z</time>
      </trkpt>
      <trkpt lat="47.94915" lon="-3.89638">
        <ele>138.4</ele>
        <time>2022-12-07T10:24:53Z</time>
      </trkpt>
      <trkpt lat="47.94916" lon="-3.89645">
        <ele>138.4</ele>
        <time>2022-12-07T10:24:54Z</time>
      </trkpt>
      <trkpt lat="47.94918" lon="-3.89651">
        <ele>138.5</ele>
        <time>2022-12-07T10:24:55Z</time>
      </trkpt>
      <trkpt lat="47.94919" lon="-3.89656">
        <ele>138.6</ele>
        <time>2022-12-07T10:24:56Z</time>
      </trkpt>
      <trkpt lat="47.9492" lon="-3.89663">
        <ele>138.6</ele>
        <time>2022-12-07T10:24:57Z</time>
      </trkpt>
      <trkpt lat="47.9492" lon="-3.89669">
        <ele>138.6</ele>
        <time>2022-12-07T10:24:58Z</time>
      </trkpt>
      <trkpt lat="47.94921" lon="-3.89674">
        <ele>138.6</ele>
        <time>2022-12-07T10:24:59Z</time>
      </trkpt>
      <trkpt lat="47.94923" lon="-3.89682">
        <ele>138.7</ele>
        <time>2022-12-07T10:25:00Z</time>
      </trkpt>
      <trkpt lat="47.94924" lon="-3.89689">
        <ele>138.6</ele>
        <time>2022-12-07T10:25:01Z</time>
      </trkpt>
      <trkpt lat="47.94926" lon="-3.89695">
        <ele>138.6</ele>
        <time>2022-12-07T10:25:02Z</time>
      </trkpt>
      <trkpt lat="47.94927" lon="-3.897">
        <ele>138.6</ele>
        <time>2022-12-07T10:25:03Z</time>
      </trkpt>
      <trkpt lat="47.94929" lon="-3.89707">
        <ele>138.5</ele>
        <time>2022-12-07T10:25:04Z</time>
      </trkpt>
      <trkpt lat="47.94932" lon="-3.89715">
        <ele>138.5</ele>
        <time>2022-12-07T10:25:05Z</time>
      </trkpt>
      <trkpt lat="47.94934" lon="-3.89722">
        <ele>138.4</ele>
        <time>2022-12-07T10:25:06Z</time>
      </trkpt>
      <trkpt lat="47.94936" lon="-3.89727">
        <ele>138.4</ele>
        <time>2022-12-07T10:25:07Z</time>
      </trkpt>
      <trkpt lat="47.94939" lon="-3.89733">
        <ele>138.4</ele>
        <time>2022-12-07T10:25:08Z</time>
      </trkpt>
      <trkpt lat="47.94942" lon="-3.8974">
        <ele>138.3</ele>
        <time>2022-12-07T10:25:09Z</time>
      </trkpt>
      <trkpt lat="47.94944" lon="-3.89745">
        <ele>138.2</ele>
        <time>2022-12-07T10:25:10Z</time>
      </trkpt>
      <trkpt lat="47.94945" lon="-3.8975">
        <ele>138.2</ele>
        <time>2022-12-07T10:25:11Z</time>
      </trkpt>
      <trkpt lat="47.94948" lon="-3.8976">
        <ele>138.1</ele>
        <time>2022-12-07T10:25:13Z</time>
      </trkpt>
      <trkpt lat="47.94952" lon="-3.8977">
        <ele>137.9</ele>
        <time>2022-12-07T10:25:14Z</time>
      </trkpt>
      <trkpt lat="47.94954" lon="-3.89776">
        <ele>137.8</ele>
        <time>2022-12-07T10:25:15Z</time>
      </trkpt>
      <trkpt lat="47.94955" lon="-3.89783">
        <ele>137.8</ele>
        <time>2022-12-07T10:25:16Z</time>
      </trkpt>
      <trkpt lat="47.94956" lon="-3.8979">
        <ele>137.7</ele>
        <time>2022-12-07T10:25:17Z</time>
      </trkpt>
      <trkpt lat="47.94956" lon="-3.89798">
        <ele>137.7</ele>
        <time>2022-12-07T10:25:18Z</time>
      </trkpt>
      <trkpt lat="47.94956" lon="-3.89805">
        <ele>137.6</ele>
        <time>2022-12-07T10:25:19Z</time>
      </trkpt>
      <trkpt lat="47.94956" lon="-3.89813">
        <ele>137.6</ele>
        <time>2022-12-07T10:25:20Z</time>
      </trkpt>
      <trkpt lat="47.94956" lon="-3.89821">
        <ele>137.6</ele>
        <time>2022-12-07T10:25:21Z</time>
      </trkpt>
      <trkpt lat="47.94956" lon="-3.89829">
        <ele>137.6</ele>
        <time>2022-12-07T10:25:22Z</time>
      </trkpt>
      <trkpt lat="47.94956" lon="-3.89836">
        <ele>137.6</ele>
        <time>2022-12-07T10:25:23Z</time>
      </trkpt>
      <trkpt lat="47.94956" lon="-3.89844">
        <ele>137.6</ele>
        <time>2022-12-07T10:25:24Z</time>
      </trkpt>
      <trkpt lat="47.94955" lon="-3.89851">
        <ele>137.6</ele>
        <time>2022-12-07T10:25:25Z</time>
      </trkpt>
      <trkpt lat="47.94955" lon="-3.89858">
        <ele>137.7</ele>
        <time>2022-12-07T10:25:26Z</time>
      </trkpt>
      <trkpt lat="47.94955" lon="-3.89866">
        <ele>137.8</ele>
        <time>2022-12-07T10:25:27Z</time>
      </trkpt>
      <trkpt lat="47.94955" lon="-3.89873">
        <ele>137.8</ele>
        <time>2022-12-07T10:25:28Z</time>
      </trkpt>
      <trkpt lat="47.94955" lon="-3.8988">
        <ele>137.9</ele>
        <time>2022-12-07T10:25:29Z</time>
      </trkpt>
      <trkpt lat="47.94955" lon="-3.89887">
        <ele>138</ele>
        <time>2022-12-07T10:25:30Z</time>
      </trkpt>
      <trkpt lat="47.94955" lon="-3.89895">
        <ele>138.1</ele>
        <time>2022-12-07T10:25:31Z</time>
      </trkpt>
      <trkpt lat="47.94954" lon="-3.89902">
        <ele>138.2</ele>
        <time>2022-12-07T10:25:32Z</time>
      </trkpt>
      <trkpt lat="47.94954" lon="-3.89909">
        <ele>138.3</ele>
        <time>2022-12-07T10:25:33Z</time>
      </trkpt>
      <trkpt lat="47.94954" lon="-3.89916">
        <ele>138.4</ele>
        <time>2022-12-07T10:25:34Z</time>
      </trkpt>
      <trkpt lat="47.94954" lon="-3.89923">
        <ele>138.6</ele>
        <time>2022-12-07T10:25:35Z</time>
      </trkpt>
      <trkpt lat="47.94954" lon="-3.8993">
        <ele>138.7</ele>
        <time>2022-12-07T10:25:36Z</time>
      </trkpt>
      <trkpt lat="47.94954" lon="-3.89937">
        <ele>138.8</ele>
        <time>2022-12-07T10:25:37Z</time>
      </trkpt>
      <trkpt lat="47.94955" lon="-3.89944">
        <ele>139</ele>
        <time>2022-12-07T10:25:38Z</time>
      </trkpt>
      <trkpt lat="47.94955" lon="-3.89949">
        <ele>139.1</ele>
        <time>2022-12-07T10:25:39Z</time>
      </trkpt>
      <trkpt lat="47.94955" lon="-3.89955">
        <ele>139.2</ele>
        <time>2022-12-07T10:25:40Z</time>
      </trkpt>
      <trkpt lat="47.94956" lon="-3.89962">
        <ele>139.4</ele>
        <time>2022-12-07T10:25:41Z</time>
      </trkpt>
      <trkpt lat="47.94957" lon="-3.89969">
        <ele>139.5</ele>
        <time>2022-12-07T10:25:42Z</time>
      </trkpt>
      <trkpt lat="47.94957" lon="-3.89973">
        <ele>139.6</ele>
        <time>2022-12-07T10:25:43Z</time>
      </trkpt>
      <trkpt lat="47.94958" lon="-3.89981">
        <ele>139.7</ele>
        <time>2022-12-07T10:25:44Z</time>
      </trkpt>
      <trkpt lat="47.94958" lon="-3.89988">
        <ele>139.8</ele>
        <time>2022-12-07T10:25:45Z</time>
      </trkpt>
      <trkpt lat="47.94959" lon="-3.89997">
        <ele>139.9</ele>
        <time>2022-12-07T10:25:46Z</time>
      </trkpt>
      <trkpt lat="47.9496" lon="-3.90002">
        <ele>140</ele>
        <time>2022-12-07T10:25:47Z</time>
      </trkpt>
      <trkpt lat="47.9496" lon="-3.90016">
        <ele>140.1</ele>
        <time>2022-12-07T10:25:49Z</time>
      </trkpt>
      <trkpt lat="47.94961" lon="-3.90025">
        <ele>140.2</ele>
        <time>2022-12-07T10:25:51Z</time>
      </trkpt>
      <trkpt lat="47.94961" lon="-3.90032">
        <ele>140.2</ele>
        <time>2022-12-07T10:25:52Z</time>
      </trkpt>
      <trkpt lat="47.94962" lon="-3.90038">
        <ele>140.3</ele>
        <time>2022-12-07T10:25:53Z</time>
      </trkpt>
      <trkpt lat="47.94962" lon="-3.90044">
        <ele>140.3</ele>
        <time>2022-12-07T10:25:54Z</time>
      </trkpt>
      <trkpt lat="47.94962" lon="-3.9005">
        <ele>140.3</ele>
        <time>2022-12-07T10:25:55Z</time>
      </trkpt>
      <trkpt lat="47.94963" lon="-3.90057">
        <ele>140.4</ele>
        <time>2022-12-07T10:25:56Z</time>
      </trkpt>
      <trkpt lat="47.94963" lon="-3.90063">
        <ele>140.4</ele>
        <time>2022-12-07T10:25:57Z</time>
      </trkpt>
      <trkpt lat="47.94964" lon="-3.90069">
        <ele>140.3</ele>
        <time>2022-12-07T10:25:58Z</time>
      </trkpt>
      <trkpt lat="47.94965" lon="-3.90075">
        <ele>140.3</ele>
        <time>2022-12-07T10:25:59Z</time>
      </trkpt>
      <trkpt lat="47.94966" lon="-3.9008">
        <ele>140.3</ele>
        <time>2022-12-07T10:26:00Z</time>
      </trkpt>
      <trkpt lat="47.94966" lon="-3.90086">
        <ele>140.2</ele>
        <time>2022-12-07T10:26:01Z</time>
      </trkpt>
      <trkpt lat="47.94967" lon="-3.90098">
        <ele>140.2</ele>
        <time>2022-12-07T10:26:03Z</time>
      </trkpt>
      <trkpt lat="47.94968" lon="-3.90106">
        <ele>140.1</ele>
        <time>2022-12-07T10:26:04Z</time>
      </trkpt>
      <trkpt lat="47.94968" lon="-3.90114">
        <ele>140</ele>
        <time>2022-12-07T10:26:05Z</time>
      </trkpt>
      <trkpt lat="47.94969" lon="-3.90121">
        <ele>139.8</ele>
        <time>2022-12-07T10:26:06Z</time>
      </trkpt>
      <trkpt lat="47.9497" lon="-3.90128">
        <ele>139.7</ele>
        <time>2022-12-07T10:26:07Z</time>
      </trkpt>
      <trkpt lat="47.94971" lon="-3.90136">
        <ele>139.6</ele>
        <time>2022-12-07T10:26:08Z</time>
      </trkpt>
      <trkpt lat="47.94971" lon="-3.90143">
        <ele>139.5</ele>
        <time>2022-12-07T10:26:09Z</time>
      </trkpt>
      <trkpt lat="47.94972" lon="-3.9015">
        <ele>139.4</ele>
        <time>2022-12-07T10:26:10Z</time>
      </trkpt>
      <trkpt lat="47.94973" lon="-3.90158">
        <ele>139.2</ele>
        <time>2022-12-07T10:26:11Z</time>
      </trkpt>
      <trkpt lat="47.94973" lon="-3.90165">
        <ele>139.1</ele>
        <time>2022-12-07T10:26:12Z</time>
      </trkpt>
      <trkpt lat="47.94975" lon="-3.90172">
        <ele>138.9</ele>
        <time>2022-12-07T10:26:13Z</time>
      </trkpt>
      <trkpt lat="47.94976" lon="-3.9018">
        <ele>138.8</ele>
        <time>2022-12-07T10:26:14Z</time>
      </trkpt>
      <trkpt lat="47.94977" lon="-3.90187">
        <ele>138.6</ele>
        <time>2022-12-07T10:26:15Z</time>
      </trkpt>
      <trkpt lat="47.94978" lon="-3.90195">
        <ele>138.4</ele>
        <time>2022-12-07T10:26:16Z</time>
      </trkpt>
      <trkpt lat="47.94979" lon="-3.90202">
        <ele>138.2</ele>
        <time>2022-12-07T10:26:17Z</time>
      </trkpt>
      <trkpt lat="47.94979" lon="-3.9021">
        <ele>137.9</ele>
        <time>2022-12-07T10:26:18Z</time>
      </trkpt>
      <trkpt lat="47.9498" lon="-3.90218">
        <ele>137.7</ele>
        <time>2022-12-07T10:26:19Z</time>
      </trkpt>
      <trkpt lat="47.94981" lon="-3.90227">
        <ele>137.4</ele>
        <time>2022-12-07T10:26:20Z</time>
      </trkpt>
      <trkpt lat="47.94981" lon="-3.90235">
        <ele>137.1</ele>
        <time>2022-12-07T10:26:21Z</time>
      </trkpt>
      <trkpt lat="47.94981" lon="-3.90244">
        <ele>136.8</ele>
        <time>2022-12-07T10:26:22Z</time>
      </trkpt>
      <trkpt lat="47.94982" lon="-3.90253">
        <ele>136.6</ele>
        <time>2022-12-07T10:26:23Z</time>
      </trkpt>
      <trkpt lat="47.94983" lon="-3.9026">
        <ele>136.4</ele>
        <time>2022-12-07T10:26:24Z</time>
      </trkpt>
      <trkpt lat="47.94984" lon="-3.90264">
        <ele>136.3</ele>
        <time>2022-12-07T10:26:25Z</time>
      </trkpt>
      <trkpt lat="47.94985" lon="-3.9027">
        <ele>136.1</ele>
        <time>2022-12-07T10:26:26Z</time>
      </trkpt>
      <trkpt lat="47.94985" lon="-3.90273">
        <ele>136</ele>
        <time>2022-12-07T10:26:27Z</time>
      </trkpt>
      <trkpt lat="47.94986" lon="-3.90279">
        <ele>135.8</ele>
        <time>2022-12-07T10:26:28Z</time>
      </trkpt>
      <trkpt lat="47.94986" lon="-3.90286">
        <ele>135.4</ele>
        <time>2022-12-07T10:26:29Z</time>
      </trkpt>
      <trkpt lat="47.94986" lon="-3.90295">
        <ele>135</ele>
        <time>2022-12-07T10:26:30Z</time>
      </trkpt>
      <trkpt lat="47.94986" lon="-3.90305">
        <ele>134.5</ele>
        <time>2022-12-07T10:26:31Z</time>
      </trkpt>
      <trkpt lat="47.94987" lon="-3.90314">
        <ele>134</ele>
        <time>2022-12-07T10:26:32Z</time>
      </trkpt>
      <trkpt lat="47.94987" lon="-3.90325">
        <ele>133.4</ele>
        <time>2022-12-07T10:26:33Z</time>
      </trkpt>
      <trkpt lat="47.94987" lon="-3.90336">
        <ele>132.7</ele>
        <time>2022-12-07T10:26:34Z</time>
      </trkpt>
      <trkpt lat="47.94988" lon="-3.90348">
        <ele>132.1</ele>
        <time>2022-12-07T10:26:35Z</time>
      </trkpt>
      <trkpt lat="47.94988" lon="-3.9036">
        <ele>131.6</ele>
        <time>2022-12-07T10:26:36Z</time>
      </trkpt>
      <trkpt lat="47.94989" lon="-3.90372">
        <ele>131.1</ele>
        <time>2022-12-07T10:26:37Z</time>
      </trkpt>
      <trkpt lat="47.9499" lon="-3.90384">
        <ele>130.7</ele>
        <time>2022-12-07T10:26:38Z</time>
      </trkpt>
      <trkpt lat="47.9499" lon="-3.90397">
        <ele>130.4</ele>
        <time>2022-12-07T10:26:39Z</time>
      </trkpt>
      <trkpt lat="47.94989" lon="-3.90409">
        <ele>130.2</ele>
        <time>2022-12-07T10:26:40Z</time>
      </trkpt>
      <trkpt lat="47.94988" lon="-3.90417">
        <ele>130.1</ele>
        <time>2022-12-07T10:26:41Z</time>
      </trkpt>
      <trkpt lat="47.94988" lon="-3.90423">
        <ele>130</ele>
        <time>2022-12-07T10:26:42Z</time>
      </trkpt>
      <trkpt lat="47.94989" lon="-3.90429">
        <ele>130</ele>
        <time>2022-12-07T10:26:43Z</time>
      </trkpt>
      <trkpt lat="47.94991" lon="-3.90433">
        <ele>129.9</ele>
        <time>2022-12-07T10:26:44Z</time>
      </trkpt>
      <trkpt lat="47.94992" lon="-3.90438">
        <ele>129.9</ele>
        <time>2022-12-07T10:26:45Z</time>
      </trkpt>
      <trkpt lat="47.94995" lon="-3.9044">
        <ele>129.9</ele>
        <time>2022-12-07T10:26:46Z</time>
      </trkpt>
      <trkpt lat="47.94999" lon="-3.90442">
        <ele>130</ele>
        <time>2022-12-07T10:26:47Z</time>
      </trkpt>
      <trkpt lat="47.95" lon="-3.90442">
        <ele>130.1</ele>
        <time>2022-12-07T10:26:48Z</time>
      </trkpt>
      <trkpt lat="47.95004" lon="-3.90444">
        <ele>130.2</ele>
        <time>2022-12-07T10:26:49Z</time>
      </trkpt>
      <trkpt lat="47.95005" lon="-3.90444">
        <ele>130.2</ele>
        <time>2022-12-07T10:26:50Z</time>
      </trkpt>
      <trkpt lat="47.9501" lon="-3.90445">
        <ele>130.4</ele>
        <time>2022-12-07T10:26:52Z</time>
      </trkpt>
      <trkpt lat="47.95012" lon="-3.90445">
        <ele>130.5</ele>
        <time>2022-12-07T10:26:53Z</time>
      </trkpt>
      <trkpt lat="47.95014" lon="-3.90446">
        <ele>130.6</ele>
        <time>2022-12-07T10:26:54Z</time>
      </trkpt>
      <trkpt lat="47.95018" lon="-3.90446">
        <ele>130.9</ele>
        <time>2022-12-07T10:26:55Z</time>
      </trkpt>
      <trkpt lat="47.95019" lon="-3.90445">
        <ele>131</ele>
        <time>2022-12-07T10:26:56Z</time>
      </trkpt>
      <trkpt lat="47.95022" lon="-3.90445">
        <ele>131.2</ele>
        <time>2022-12-07T10:26:57Z</time>
      </trkpt>
      <trkpt lat="47.95025" lon="-3.90446">
        <ele>131.5</ele>
        <time>2022-12-07T10:26:59Z</time>
      </trkpt>
      <trkpt lat="47.95029" lon="-3.90446">
        <ele>131.7</ele>
        <time>2022-12-07T10:27:00Z</time>
      </trkpt>
      <trkpt lat="47.9503" lon="-3.90446">
        <ele>131.8</ele>
        <time>2022-12-07T10:27:01Z</time>
      </trkpt>
      <trkpt lat="47.95033" lon="-3.90446">
        <ele>132.1</ele>
        <time>2022-12-07T10:27:02Z</time>
      </trkpt>
      <trkpt lat="47.95035" lon="-3.90446">
        <ele>132.1</ele>
        <time>2022-12-07T10:27:03Z</time>
      </trkpt>
      <trkpt lat="47.95038" lon="-3.90446">
        <ele>132.4</ele>
        <time>2022-12-07T10:27:04Z</time>
      </trkpt>
      <trkpt lat="47.95039" lon="-3.90446">
        <ele>132.5</ele>
        <time>2022-12-07T10:27:05Z</time>
      </trkpt>
      <trkpt lat="47.95041" lon="-3.90446">
        <ele>132.6</ele>
        <time>2022-12-07T10:27:06Z</time>
      </trkpt>
      <trkpt lat="47.95042" lon="-3.90445">
        <ele>132.7</ele>
        <time>2022-12-07T10:27:07Z</time>
      </trkpt>
      <trkpt lat="47.95046" lon="-3.90444">
        <ele>132.9</ele>
        <time>2022-12-07T10:27:08Z</time>
      </trkpt>
      <trkpt lat="47.95047" lon="-3.90444">
        <ele>132.9</ele>
        <time>2022-12-07T10:27:09Z</time>
      </trkpt>
      <trkpt lat="47.95048" lon="-3.90444">
        <ele>133</ele>
        <time>2022-12-07T10:27:10Z</time>
      </trkpt>
      <trkpt lat="47.95049" lon="-3.90444">
        <ele>133</ele>
        <time>2022-12-07T10:27:11Z</time>
      </trkpt>
      <trkpt lat="47.95049" lon="-3.90444">
        <ele>133</ele>
        <time>2022-12-07T10:27:12Z</time>
      </trkpt>
      <trkpt lat="47.95049" lon="-3.90444">
        <ele>133</ele>
        <time>2022-12-07T10:27:13Z</time>
      </trkpt>
      <trkpt lat="47.95049" lon="-3.90444">
        <ele>133</ele>
        <time>2022-12-07T10:27:14Z</time>
      </trkpt>
      <trkpt lat="47.95049" lon="-3.90444">
        <ele>133</ele>
        <time>2022-12-07T10:27:15Z</time>
      </trkpt>
      <trkpt lat="47.9505" lon="-3.90444">
        <ele>133</ele>
        <time>2022-12-07T10:27:16Z</time>
      </trkpt>
      <trkpt lat="47.9505" lon="-3.90444">
        <ele>133.1</ele>
        <time>2022-12-07T10:27:17Z</time>
      </trkpt>
      <trkpt lat="47.9505" lon="-3.90444">
        <ele>133.1</ele>
        <time>2022-12-07T10:27:18Z</time>
      </trkpt>
      <trkpt lat="47.9505" lon="-3.90444">
        <ele>133.1</ele>
        <time>2022-12-07T10:27:19Z</time>
      </trkpt>
      <trkpt lat="47.9505" lon="-3.90444">
        <ele>133.1</ele>
        <time>2022-12-07T10:27:20Z</time>
      </trkpt>
      <trkpt lat="47.9505" lon="-3.90444">
        <ele>133.1</ele>
        <time>2022-12-07T10:27:21Z</time>
      </trkpt>
      <trkpt lat="47.95056" lon="-3.90445">
        <ele>133.3</ele>
        <time>2022-12-07T10:28:03Z</time>
      </trkpt>
      <trkpt lat="47.95058" lon="-3.90445">
        <ele>133.3</ele>
        <time>2022-12-07T10:28:04Z</time>
      </trkpt>
      <trkpt lat="47.9506" lon="-3.90445">
        <ele>133.4</ele>
        <time>2022-12-07T10:28:05Z</time>
      </trkpt>
      <trkpt lat="47.95064" lon="-3.90446">
        <ele>133.4</ele>
        <time>2022-12-07T10:28:06Z</time>
      </trkpt>
      <trkpt lat="47.95066" lon="-3.90446">
        <ele>133.4</ele>
        <time>2022-12-07T10:28:07Z</time>
      </trkpt>
      <trkpt lat="47.9507" lon="-3.90445">
        <ele>133.4</ele>
        <time>2022-12-07T10:28:08Z</time>
      </trkpt>
      <trkpt lat="47.95074" lon="-3.90445">
        <ele>133.4</ele>
        <time>2022-12-07T10:28:09Z</time>
      </trkpt>
      <trkpt lat="47.95077" lon="-3.90445">
        <ele>133.4</ele>
        <time>2022-12-07T10:28:10Z</time>
      </trkpt>
      <trkpt lat="47.95081" lon="-3.90445">
        <ele>133.4</ele>
        <time>2022-12-07T10:28:11Z</time>
      </trkpt>
      <trkpt lat="47.95085" lon="-3.90444">
        <ele>133.3</ele>
        <time>2022-12-07T10:28:12Z</time>
      </trkpt>
      <trkpt lat="47.95087" lon="-3.90444">
        <ele>133.3</ele>
        <time>2022-12-07T10:28:13Z</time>
      </trkpt>
      <trkpt lat="47.95093" lon="-3.90444">
        <ele>133.2</ele>
        <time>2022-12-07T10:28:15Z</time>
      </trkpt>
      <trkpt lat="47.95096" lon="-3.90445">
        <ele>133.2</ele>
        <time>2022-12-07T10:28:16Z</time>
      </trkpt>
      <trkpt lat="47.95101" lon="-3.90445">
        <ele>133.2</ele>
        <time>2022-12-07T10:28:17Z</time>
      </trkpt>
      <trkpt lat="47.95108" lon="-3.90446">
        <ele>133.2</ele>
        <time>2022-12-07T10:28:19Z</time>
      </trkpt>
      <trkpt lat="47.95112" lon="-3.90446">
        <ele>133.2</ele>
        <time>2022-12-07T10:28:20Z</time>
      </trkpt>
      <trkpt lat="47.95116" lon="-3.90445">
        <ele>133.2</ele>
        <time>2022-12-07T10:28:21Z</time>
      </trkpt>
      <trkpt lat="47.9512" lon="-3.90447">
        <ele>133.1</ele>
        <time>2022-12-07T10:28:22Z</time>
      </trkpt>
      <trkpt lat="47.95124" lon="-3.90448">
        <ele>133.1</ele>
        <time>2022-12-07T10:28:23Z</time>
      </trkpt>
      <trkpt lat="47.95128" lon="-3.90449">
        <ele>133.1</ele>
        <time>2022-12-07T10:28:24Z</time>
      </trkpt>
      <trkpt lat="47.95131" lon="-3.90449">
        <ele>133.1</ele>
        <time>2022-12-07T10:28:25Z</time>
      </trkpt>
      <trkpt lat="47.95135" lon="-3.90449">
        <ele>133.1</ele>
        <time>2022-12-07T10:28:26Z</time>
      </trkpt>
      <trkpt lat="47.95138" lon="-3.90448">
        <ele>133.1</ele>
        <time>2022-12-07T10:28:27Z</time>
      </trkpt>
      <trkpt lat="47.95141" lon="-3.90448">
        <ele>133.1</ele>
        <time>2022-12-07T10:28:29Z</time>
      </trkpt>
      <trkpt lat="47.95145" lon="-3.90447">
        <ele>133.2</ele>
        <time>2022-12-07T10:28:30Z</time>
      </trkpt>
      <trkpt lat="47.95146" lon="-3.90447">
        <ele>133.2</ele>
        <time>2022-12-07T10:28:31Z</time>
      </trkpt>
      <trkpt lat="47.95149" lon="-3.90448">
        <ele>133.2</ele>
        <time>2022-12-07T10:28:32Z</time>
      </trkpt>
      <trkpt lat="47.9515" lon="-3.90448">
        <ele>133.2</ele>
        <time>2022-12-07T10:28:33Z</time>
      </trkpt>
      <trkpt lat="47.95154" lon="-3.90449">
        <ele>133.3</ele>
        <time>2022-12-07T10:28:34Z</time>
      </trkpt>
      <trkpt lat="47.95155" lon="-3.90449">
        <ele>133.4</ele>
        <time>2022-12-07T10:28:35Z</time>
      </trkpt>
      <trkpt lat="47.95159" lon="-3.90449">
        <ele>133.5</ele>
        <time>2022-12-07T10:28:37Z</time>
      </trkpt>
      <trkpt lat="47.95163" lon="-3.90449">
        <ele>133.6</ele>
        <time>2022-12-07T10:28:38Z</time>
      </trkpt>
      <trkpt lat="47.95167" lon="-3.9045">
        <ele>133.9</ele>
        <time>2022-12-07T10:28:40Z</time>
      </trkpt>
      <trkpt lat="47.9517" lon="-3.90451">
        <ele>134.1</ele>
        <time>2022-12-07T10:28:41Z</time>
      </trkpt>
      <trkpt lat="47.95171" lon="-3.90451">
        <ele>134.2</ele>
        <time>2022-12-07T10:28:42Z</time>
      </trkpt>
      <trkpt lat="47.95176" lon="-3.90452">
        <ele>134.6</ele>
        <time>2022-12-07T10:28:44Z</time>
      </trkpt>
      <trkpt lat="47.95177" lon="-3.90452">
        <ele>134.7</ele>
        <time>2022-12-07T10:28:45Z</time>
      </trkpt>
      <trkpt lat="47.95179" lon="-3.90452">
        <ele>134.8</ele>
        <time>2022-12-07T10:28:46Z</time>
      </trkpt>
      <trkpt lat="47.95182" lon="-3.90453">
        <ele>135.2</ele>
        <time>2022-12-07T10:28:47Z</time>
      </trkpt>
      <trkpt lat="47.95183" lon="-3.90453">
        <ele>135.3</ele>
        <time>2022-12-07T10:28:48Z</time>
      </trkpt>
      <trkpt lat="47.95187" lon="-3.90453">
        <ele>135.8</ele>
        <time>2022-12-07T10:28:49Z</time>
      </trkpt>
      <trkpt lat="47.95188" lon="-3.90453">
        <ele>136</ele>
        <time>2022-12-07T10:28:50Z</time>
      </trkpt>
      <trkpt lat="47.95192" lon="-3.90452">
        <ele>136.5</ele>
        <time>2022-12-07T10:28:52Z</time>
      </trkpt>
      <trkpt lat="47.95193" lon="-3.90452">
        <ele>136.7</ele>
        <time>2022-12-07T10:28:53Z</time>
      </trkpt>
      <trkpt lat="47.95196" lon="-3.90451">
        <ele>137.1</ele>
        <time>2022-12-07T10:28:54Z</time>
      </trkpt>
      <trkpt lat="47.95196" lon="-3.9045">
        <ele>137.2</ele>
        <time>2022-12-07T10:28:55Z</time>
      </trkpt>
      <trkpt lat="47.95197" lon="-3.90447">
        <ele>137.5</ele>
        <time>2022-12-07T10:28:56Z</time>
      </trkpt>
      <trkpt lat="47.95199" lon="-3.90446">
        <ele>137.7</ele>
        <time>2022-12-07T10:28:58Z</time>
      </trkpt>
      <trkpt lat="47.952" lon="-3.90446">
        <ele>137.9</ele>
        <time>2022-12-07T10:28:59Z</time>
      </trkpt>
      <trkpt lat="47.95201" lon="-3.90446">
        <ele>138</ele>
        <time>2022-12-07T10:29:00Z</time>
      </trkpt>
      <trkpt lat="47.95202" lon="-3.90447">
        <ele>138.2</ele>
        <time>2022-12-07T10:29:01Z</time>
      </trkpt>
      <trkpt lat="47.95203" lon="-3.90446">
        <ele>138.3</ele>
        <time>2022-12-07T10:29:02Z</time>
      </trkpt>
      <trkpt lat="47.95204" lon="-3.90447">
        <ele>138.4</ele>
        <time>2022-12-07T10:29:03Z</time>
      </trkpt>
      <trkpt lat="47.95205" lon="-3.90446">
        <ele>138.6</ele>
        <time>2022-12-07T10:29:04Z</time>
      </trkpt>
      <trkpt lat="47.95207" lon="-3.90447">
        <ele>138.8</ele>
        <time>2022-12-07T10:29:05Z</time>
      </trkpt>
      <trkpt lat="47.95208" lon="-3.90446">
        <ele>138.9</ele>
        <time>2022-12-07T10:29:06Z</time>
      </trkpt>
      <trkpt lat="47.95208" lon="-3.90446">
        <ele>138.9</ele>
        <time>2022-12-07T10:29:07Z</time>
      </trkpt>
      <trkpt lat="47.95209" lon="-3.90446">
        <ele>139</ele>
        <time>2022-12-07T10:29:08Z</time>
      </trkpt>
      <trkpt lat="47.9521" lon="-3.90446">
        <ele>139.1</ele>
        <time>2022-12-07T10:29:09Z</time>
      </trkpt>
      <trkpt lat="47.9521" lon="-3.90446">
        <ele>139.2</ele>
        <time>2022-12-07T10:29:10Z</time>
      </trkpt>
      <trkpt lat="47.95211" lon="-3.90447">
        <ele>139.3</ele>
        <time>2022-12-07T10:29:11Z</time>
      </trkpt>
      <trkpt lat="47.95212" lon="-3.90447">
        <ele>139.4</ele>
        <time>2022-12-07T10:29:12Z</time>
      </trkpt>
      <trkpt lat="47.95213" lon="-3.90449">
        <ele>139.6</ele>
        <time>2022-12-07T10:29:13Z</time>
      </trkpt>
      <trkpt lat="47.95213" lon="-3.90449">
        <ele>139.6</ele>
        <time>2022-12-07T10:29:14Z</time>
      </trkpt>
      <trkpt lat="47.95214" lon="-3.90449">
        <ele>139.7</ele>
        <time>2022-12-07T10:29:15Z</time>
      </trkpt>
      <trkpt lat="47.95214" lon="-3.90449">
        <ele>139.7</ele>
        <time>2022-12-07T10:29:17Z</time>
      </trkpt>
      <trkpt lat="47.95216" lon="-3.9045">
        <ele>139.9</ele>
        <time>2022-12-07T10:29:19Z</time>
      </trkpt>
      <trkpt lat="47.95216" lon="-3.9045">
        <ele>139.9</ele>
        <time>2022-12-07T10:29:20Z</time>
      </trkpt>
      <trkpt lat="47.95216" lon="-3.9045">
        <ele>139.9</ele>
        <time>2022-12-07T10:29:21Z</time>
      </trkpt>
      <trkpt lat="47.95217" lon="-3.90449">
        <ele>140</ele>
        <time>2022-12-07T10:29:22Z</time>
      </trkpt>
      <trkpt lat="47.95219" lon="-3.9045">
        <ele>140.3</ele>
        <time>2022-12-07T10:29:23Z</time>
      </trkpt>
      <trkpt lat="47.95222" lon="-3.90452">
        <ele>140.6</ele>
        <time>2022-12-07T10:29:24Z</time>
      </trkpt>
      <trkpt lat="47.95223" lon="-3.90452">
        <ele>140.6</ele>
        <time>2022-12-07T10:29:25Z</time>
      </trkpt>
      <trkpt lat="47.95226" lon="-3.9045">
        <ele>140.9</ele>
        <time>2022-12-07T10:29:26Z</time>
      </trkpt>
      <trkpt lat="47.95228" lon="-3.9045">
        <ele>141</ele>
        <time>2022-12-07T10:29:27Z</time>
      </trkpt>
      <trkpt lat="47.95231" lon="-3.90451">
        <ele>141.3</ele>
        <time>2022-12-07T10:29:28Z</time>
      </trkpt>
      <trkpt lat="47.95232" lon="-3.90451">
        <ele>141.4</ele>
        <time>2022-12-07T10:29:29Z</time>
      </trkpt>
      <trkpt lat="47.95235" lon="-3.90451">
        <ele>141.7</ele>
        <time>2022-12-07T10:29:30Z</time>
      </trkpt>
      <trkpt lat="47.95237" lon="-3.90451">
        <ele>141.8</ele>
        <time>2022-12-07T10:29:31Z</time>
      </trkpt>
      <trkpt lat="47.95239" lon="-3.90452">
        <ele>142</ele>
        <time>2022-12-07T10:29:33Z</time>
      </trkpt>
      <trkpt lat="47.95242" lon="-3.90451">
        <ele>142.2</ele>
        <time>2022-12-07T10:29:34Z</time>
      </trkpt>
      <trkpt lat="47.95246" lon="-3.90451">
        <ele>142.4</ele>
        <time>2022-12-07T10:29:35Z</time>
      </trkpt>
      <trkpt lat="47.95246" lon="-3.9045">
        <ele>142.5</ele>
        <time>2022-12-07T10:29:36Z</time>
      </trkpt>
      <trkpt lat="47.9525" lon="-3.90451">
        <ele>142.8</ele>
        <time>2022-12-07T10:29:37Z</time>
      </trkpt>
      <trkpt lat="47.95252" lon="-3.90451">
        <ele>142.9</ele>
        <time>2022-12-07T10:29:38Z</time>
      </trkpt>
      <trkpt lat="47.95255" lon="-3.90451">
        <ele>143.1</ele>
        <time>2022-12-07T10:29:39Z</time>
      </trkpt>
      <trkpt lat="47.95258" lon="-3.9045">
        <ele>143.2</ele>
        <time>2022-12-07T10:29:40Z</time>
      </trkpt>
      <trkpt lat="47.95261" lon="-3.9045">
        <ele>143.4</ele>
        <time>2022-12-07T10:29:41Z</time>
      </trkpt>
      <trkpt lat="47.95266" lon="-3.90451">
        <ele>143.6</ele>
        <time>2022-12-07T10:29:43Z</time>
      </trkpt>
      <trkpt lat="47.95268" lon="-3.90451">
        <ele>143.7</ele>
        <time>2022-12-07T10:29:44Z</time>
      </trkpt>
      <trkpt lat="47.95269" lon="-3.9045">
        <ele>143.8</ele>
        <time>2022-12-07T10:29:45Z</time>
      </trkpt>
      <trkpt lat="47.95273" lon="-3.9045">
        <ele>143.9</ele>
        <time>2022-12-07T10:29:46Z</time>
      </trkpt>
      <trkpt lat="47.95275" lon="-3.9045">
        <ele>144</ele>
        <time>2022-12-07T10:29:47Z</time>
      </trkpt>
      <trkpt lat="47.95278" lon="-3.9045">
        <ele>144</ele>
        <time>2022-12-07T10:29:48Z</time>
      </trkpt>
      <trkpt lat="47.95281" lon="-3.90449">
        <ele>144.2</ele>
        <time>2022-12-07T10:29:49Z</time>
      </trkpt>
      <trkpt lat="47.95283" lon="-3.90449">
        <ele>144.2</ele>
        <time>2022-12-07T10:29:50Z</time>
      </trkpt>
      <trkpt lat="47.95286" lon="-3.90449">
        <ele>144.3</ele>
        <time>2022-12-07T10:29:51Z</time>
      </trkpt>
      <trkpt lat="47.95287" lon="-3.90449">
        <ele>144.3</ele>
        <time>2022-12-07T10:29:52Z</time>
      </trkpt>
      <trkpt lat="47.9529" lon="-3.90449">
        <ele>144.4</ele>
        <time>2022-12-07T10:29:53Z</time>
      </trkpt>
      <trkpt lat="47.95294" lon="-3.9045">
        <ele>144.4</ele>
        <time>2022-12-07T10:29:54Z</time>
      </trkpt>
      <trkpt lat="47.95297" lon="-3.9045">
        <ele>144.5</ele>
        <time>2022-12-07T10:29:55Z</time>
      </trkpt>
      <trkpt lat="47.953" lon="-3.9045">
        <ele>144.5</ele>
        <time>2022-12-07T10:29:56Z</time>
      </trkpt>
      <trkpt lat="47.95305" lon="-3.90451">
        <ele>144.6</ele>
        <time>2022-12-07T10:29:58Z</time>
      </trkpt>
      <trkpt lat="47.95309" lon="-3.90451">
        <ele>144.7</ele>
        <time>2022-12-07T10:29:59Z</time>
      </trkpt>
      <trkpt lat="47.95311" lon="-3.90451">
        <ele>144.7</ele>
        <time>2022-12-07T10:30:00Z</time>
      </trkpt>
      <trkpt lat="47.95314" lon="-3.90451">
        <ele>144.7</ele>
        <time>2022-12-07T10:30:01Z</time>
      </trkpt>
      <trkpt lat="47.95318" lon="-3.90452">
        <ele>144.8</ele>
        <time>2022-12-07T10:30:02Z</time>
      </trkpt>
      <trkpt lat="47.95322" lon="-3.90452">
        <ele>144.8</ele>
        <time>2022-12-07T10:30:04Z</time>
      </trkpt>
      <trkpt lat="47.95326" lon="-3.90453">
        <ele>144.8</ele>
        <time>2022-12-07T10:30:05Z</time>
      </trkpt>
      <trkpt lat="47.95332" lon="-3.90453">
        <ele>144.8</ele>
        <time>2022-12-07T10:30:06Z</time>
      </trkpt>
      <trkpt lat="47.95338" lon="-3.90453">
        <ele>144.8</ele>
        <time>2022-12-07T10:30:08Z</time>
      </trkpt>
      <trkpt lat="47.95342" lon="-3.90453">
        <ele>144.8</ele>
        <time>2022-12-07T10:30:09Z</time>
      </trkpt>
      <trkpt lat="47.9535" lon="-3.90453">
        <ele>144.8</ele>
        <time>2022-12-07T10:30:11Z</time>
      </trkpt>
      <trkpt lat="47.95354" lon="-3.90453">
        <ele>144.8</ele>
        <time>2022-12-07T10:30:12Z</time>
      </trkpt>
      <trkpt lat="47.95359" lon="-3.90454">
        <ele>144.8</ele>
        <time>2022-12-07T10:30:13Z</time>
      </trkpt>
      <trkpt lat="47.95365" lon="-3.90454">
        <ele>144.8</ele>
        <time>2022-12-07T10:30:14Z</time>
      </trkpt>
      <trkpt lat="47.9537" lon="-3.90454">
        <ele>144.7</ele>
        <time>2022-12-07T10:30:15Z</time>
      </trkpt>
      <trkpt lat="47.95375" lon="-3.90454">
        <ele>144.6</ele>
        <time>2022-12-07T10:30:16Z</time>
      </trkpt>
      <trkpt lat="47.9538" lon="-3.90455">
        <ele>144.6</ele>
        <time>2022-12-07T10:30:17Z</time>
      </trkpt>
      <trkpt lat="47.95385" lon="-3.90455">
        <ele>144.5</ele>
        <time>2022-12-07T10:30:18Z</time>
      </trkpt>
      <trkpt lat="47.9539" lon="-3.90455">
        <ele>144.5</ele>
        <time>2022-12-07T10:30:19Z</time>
      </trkpt>
      <trkpt lat="47.95394" lon="-3.90455">
        <ele>144.4</ele>
        <time>2022-12-07T10:30:20Z</time>
      </trkpt>
      <trkpt lat="47.95399" lon="-3.90455">
        <ele>144.4</ele>
        <time>2022-12-07T10:30:21Z</time>
      </trkpt>
      <trkpt lat="47.95404" lon="-3.90455">
        <ele>144.4</ele>
        <time>2022-12-07T10:30:22Z</time>
      </trkpt>
      <trkpt lat="47.95409" lon="-3.90455">
        <ele>144.4</ele>
        <time>2022-12-07T10:30:23Z</time>
      </trkpt>
      <trkpt lat="47.95413" lon="-3.90456">
        <ele>144.4</ele>
        <time>2022-12-07T10:30:24Z</time>
      </trkpt>
      <trkpt lat="47.95418" lon="-3.90456">
        <ele>144.4</ele>
        <time>2022-12-07T10:30:25Z</time>
      </trkpt>
      <trkpt lat="47.9542" lon="-3.90456">
        <ele>144.4</ele>
        <time>2022-12-07T10:30:26Z</time>
      </trkpt>
      <trkpt lat="47.95427" lon="-3.90456">
        <ele>144.4</ele>
        <time>2022-12-07T10:30:28Z</time>
      </trkpt>
      <trkpt lat="47.95433" lon="-3.90456">
        <ele>144.3</ele>
        <time>2022-12-07T10:30:29Z</time>
      </trkpt>
      <trkpt lat="47.95438" lon="-3.90456">
        <ele>144.3</ele>
        <time>2022-12-07T10:30:30Z</time>
      </trkpt>
      <trkpt lat="47.95443" lon="-3.90456">
        <ele>144.2</ele>
        <time>2022-12-07T10:30:31Z</time>
      </trkpt>
      <trkpt lat="47.95447" lon="-3.90457">
        <ele>144.2</ele>
        <time>2022-12-07T10:30:32Z</time>
      </trkpt>
      <trkpt lat="47.95453" lon="-3.90457">
        <ele>144.1</ele>
        <time>2022-12-07T10:30:33Z</time>
      </trkpt>
      <trkpt lat="47.95458" lon="-3.90457">
        <ele>144.1</ele>
        <time>2022-12-07T10:30:34Z</time>
      </trkpt>
      <trkpt lat="47.95463" lon="-3.90458">
        <ele>144</ele>
        <time>2022-12-07T10:30:35Z</time>
      </trkpt>
      <trkpt lat="47.95467" lon="-3.90458">
        <ele>144</ele>
        <time>2022-12-07T10:30:36Z</time>
      </trkpt>
      <trkpt lat="47.95472" lon="-3.90458">
        <ele>143.9</ele>
        <time>2022-12-07T10:30:37Z</time>
      </trkpt>
      <trkpt lat="47.95477" lon="-3.90458">
        <ele>143.9</ele>
        <time>2022-12-07T10:30:38Z</time>
      </trkpt>
      <trkpt lat="47.95482" lon="-3.90457">
        <ele>143.8</ele>
        <time>2022-12-07T10:30:39Z</time>
      </trkpt>
      <trkpt lat="47.95486" lon="-3.90457">
        <ele>143.8</ele>
        <time>2022-12-07T10:30:40Z</time>
      </trkpt>
      <trkpt lat="47.95491" lon="-3.90457">
        <ele>143.7</ele>
        <time>2022-12-07T10:30:41Z</time>
      </trkpt>
      <trkpt lat="47.95495" lon="-3.90458">
        <ele>143.7</ele>
        <time>2022-12-07T10:30:42Z</time>
      </trkpt>
      <trkpt lat="47.955" lon="-3.90458">
        <ele>143.8</ele>
        <time>2022-12-07T10:30:43Z</time>
      </trkpt>
      <trkpt lat="47.95505" lon="-3.90459">
        <ele>143.8</ele>
        <time>2022-12-07T10:30:44Z</time>
      </trkpt>
      <trkpt lat="47.95509" lon="-3.90459">
        <ele>143.8</ele>
        <time>2022-12-07T10:30:45Z</time>
      </trkpt>
      <trkpt lat="47.95512" lon="-3.9046">
        <ele>143.8</ele>
        <time>2022-12-07T10:30:46Z</time>
      </trkpt>
      <trkpt lat="47.95518" lon="-3.90459">
        <ele>143.9</ele>
        <time>2022-12-07T10:30:47Z</time>
      </trkpt>
      <trkpt lat="47.95523" lon="-3.90458">
        <ele>143.9</ele>
        <time>2022-12-07T10:30:48Z</time>
      </trkpt>
      <trkpt lat="47.95529" lon="-3.90458">
        <ele>144</ele>
        <time>2022-12-07T10:30:49Z</time>
      </trkpt>
      <trkpt lat="47.95534" lon="-3.90458">
        <ele>144.1</ele>
        <time>2022-12-07T10:30:50Z</time>
      </trkpt>
      <trkpt lat="47.95539" lon="-3.90457">
        <ele>144.2</ele>
        <time>2022-12-07T10:30:51Z</time>
      </trkpt>
      <trkpt lat="47.95544" lon="-3.90458">
        <ele>144.3</ele>
        <time>2022-12-07T10:30:52Z</time>
      </trkpt>
      <trkpt lat="47.95549" lon="-3.90459">
        <ele>144.4</ele>
        <time>2022-12-07T10:30:53Z</time>
      </trkpt>
      <trkpt lat="47.95554" lon="-3.90459">
        <ele>144.5</ele>
        <time>2022-12-07T10:30:54Z</time>
      </trkpt>
      <trkpt lat="47.95559" lon="-3.90459">
        <ele>144.5</ele>
        <time>2022-12-07T10:30:55Z</time>
      </trkpt>
      <trkpt lat="47.95564" lon="-3.90459">
        <ele>144.6</ele>
        <time>2022-12-07T10:30:56Z</time>
      </trkpt>
      <trkpt lat="47.95569" lon="-3.90459">
        <ele>144.7</ele>
        <time>2022-12-07T10:30:57Z</time>
      </trkpt>
      <trkpt lat="47.95573" lon="-3.90459">
        <ele>144.7</ele>
        <time>2022-12-07T10:30:58Z</time>
      </trkpt>
      <trkpt lat="47.95578" lon="-3.90459">
        <ele>144.8</ele>
        <time>2022-12-07T10:30:59Z</time>
      </trkpt>
      <trkpt lat="47.95583" lon="-3.90459">
        <ele>144.8</ele>
        <time>2022-12-07T10:31:00Z</time>
      </trkpt>
      <trkpt lat="47.95588" lon="-3.90459">
        <ele>144.9</ele>
        <time>2022-12-07T10:31:01Z</time>
      </trkpt>
      <trkpt lat="47.95593" lon="-3.90459">
        <ele>144.9</ele>
        <time>2022-12-07T10:31:02Z</time>
      </trkpt>
      <trkpt lat="47.95597" lon="-3.90459">
        <ele>144.9</ele>
        <time>2022-12-07T10:31:03Z</time>
      </trkpt>
      <trkpt lat="47.95602" lon="-3.90459">
        <ele>144.9</ele>
        <time>2022-12-07T10:31:04Z</time>
      </trkpt>
      <trkpt lat="47.95607" lon="-3.9046">
        <ele>144.9</ele>
        <time>2022-12-07T10:31:05Z</time>
      </trkpt>
      <trkpt lat="47.95612" lon="-3.9046">
        <ele>144.9</ele>
        <time>2022-12-07T10:31:06Z</time>
      </trkpt>
      <trkpt lat="47.95617" lon="-3.9046">
        <ele>144.9</ele>
        <time>2022-12-07T10:31:07Z</time>
      </trkpt>
      <trkpt lat="47.95622" lon="-3.9046">
        <ele>144.9</ele>
        <time>2022-12-07T10:31:08Z</time>
      </trkpt>
      <trkpt lat="47.95627" lon="-3.90461">
        <ele>144.9</ele>
        <time>2022-12-07T10:31:09Z</time>
      </trkpt>
      <trkpt lat="47.95632" lon="-3.90461">
        <ele>144.9</ele>
        <time>2022-12-07T10:31:10Z</time>
      </trkpt>
      <trkpt lat="47.95637" lon="-3.9046">
        <ele>144.8</ele>
        <time>2022-12-07T10:31:11Z</time>
      </trkpt>
      <trkpt lat="47.95642" lon="-3.90461">
        <ele>144.7</ele>
        <time>2022-12-07T10:31:12Z</time>
      </trkpt>
      <trkpt lat="47.95647" lon="-3.90461">
        <ele>144.7</ele>
        <time>2022-12-07T10:31:13Z</time>
      </trkpt>
      <trkpt lat="47.95652" lon="-3.9046">
        <ele>144.6</ele>
        <time>2022-12-07T10:31:14Z</time>
      </trkpt>
      <trkpt lat="47.95657" lon="-3.9046">
        <ele>144.5</ele>
        <time>2022-12-07T10:31:15Z</time>
      </trkpt>
      <trkpt lat="47.95662" lon="-3.90461">
        <ele>144.4</ele>
        <time>2022-12-07T10:31:16Z</time>
      </trkpt>
      <trkpt lat="47.95667" lon="-3.90461">
        <ele>144.4</ele>
        <time>2022-12-07T10:31:17Z</time>
      </trkpt>
      <trkpt lat="47.95672" lon="-3.90461">
        <ele>144.2</ele>
        <time>2022-12-07T10:31:18Z</time>
      </trkpt>
      <trkpt lat="47.95675" lon="-3.90464">
        <ele>144.3</ele>
        <time>2022-12-07T10:31:19Z</time>
      </trkpt>
      <trkpt lat="47.95676" lon="-3.90466">
        <ele>144.3</ele>
        <time>2022-12-07T10:31:20Z</time>
      </trkpt>
      <trkpt lat="47.95678" lon="-3.90471">
        <ele>144.3</ele>
        <time>2022-12-07T10:31:21Z</time>
      </trkpt>
      <trkpt lat="47.95678" lon="-3.90478">
        <ele>144.3</ele>
        <time>2022-12-07T10:31:22Z</time>
      </trkpt>
      <trkpt lat="47.95677" lon="-3.90485">
        <ele>144.3</ele>
        <time>2022-12-07T10:31:23Z</time>
      </trkpt>
      <trkpt lat="47.95677" lon="-3.90493">
        <ele>144.4</ele>
        <time>2022-12-07T10:31:24Z</time>
      </trkpt>
      <trkpt lat="47.95676" lon="-3.905">
        <ele>144.4</ele>
        <time>2022-12-07T10:31:25Z</time>
      </trkpt>
      <trkpt lat="47.95675" lon="-3.90507">
        <ele>144.5</ele>
        <time>2022-12-07T10:31:26Z</time>
      </trkpt>
      <trkpt lat="47.95674" lon="-3.90515">
        <ele>144.6</ele>
        <time>2022-12-07T10:31:27Z</time>
      </trkpt>
      <trkpt lat="47.95672" lon="-3.90522">
        <ele>144.7</ele>
        <time>2022-12-07T10:31:28Z</time>
      </trkpt>
      <trkpt lat="47.95671" lon="-3.90529">
        <ele>144.7</ele>
        <time>2022-12-07T10:31:29Z</time>
      </trkpt>
      <trkpt lat="47.9567" lon="-3.90536">
        <ele>144.8</ele>
        <time>2022-12-07T10:31:30Z</time>
      </trkpt>
      <trkpt lat="47.95669" lon="-3.90543">
        <ele>144.8</ele>
        <time>2022-12-07T10:31:31Z</time>
      </trkpt>
      <trkpt lat="47.95669" lon="-3.9055">
        <ele>144.8</ele>
        <time>2022-12-07T10:31:32Z</time>
      </trkpt>
      <trkpt lat="47.95668" lon="-3.90557">
        <ele>144.9</ele>
        <time>2022-12-07T10:31:33Z</time>
      </trkpt>
      <trkpt lat="47.95667" lon="-3.90564">
        <ele>144.9</ele>
        <time>2022-12-07T10:31:34Z</time>
      </trkpt>
      <trkpt lat="47.95666" lon="-3.90571">
        <ele>144.9</ele>
        <time>2022-12-07T10:31:35Z</time>
      </trkpt>
      <trkpt lat="47.95665" lon="-3.90578">
        <ele>145</ele>
        <time>2022-12-07T10:31:36Z</time>
      </trkpt>
      <trkpt lat="47.95664" lon="-3.90585">
        <ele>145</ele>
        <time>2022-12-07T10:31:37Z</time>
      </trkpt>
      <trkpt lat="47.95663" lon="-3.90592">
        <ele>145.1</ele>
        <time>2022-12-07T10:31:38Z</time>
      </trkpt>
      <trkpt lat="47.95662" lon="-3.90599">
        <ele>145.1</ele>
        <time>2022-12-07T10:31:39Z</time>
      </trkpt>
      <trkpt lat="47.95661" lon="-3.90606">
        <ele>145.2</ele>
        <time>2022-12-07T10:31:40Z</time>
      </trkpt>
      <trkpt lat="47.9566" lon="-3.90614">
        <ele>145.2</ele>
        <time>2022-12-07T10:31:41Z</time>
      </trkpt>
      <trkpt lat="47.9566" lon="-3.90621">
        <ele>145.3</ele>
        <time>2022-12-07T10:31:42Z</time>
      </trkpt>
      <trkpt lat="47.95659" lon="-3.90629">
        <ele>145.3</ele>
        <time>2022-12-07T10:31:43Z</time>
      </trkpt>
      <trkpt lat="47.95659" lon="-3.90636">
        <ele>145.3</ele>
        <time>2022-12-07T10:31:44Z</time>
      </trkpt>
      <trkpt lat="47.95658" lon="-3.90644">
        <ele>145.3</ele>
        <time>2022-12-07T10:31:45Z</time>
      </trkpt>
      <trkpt lat="47.95657" lon="-3.90651">
        <ele>145.3</ele>
        <time>2022-12-07T10:31:46Z</time>
      </trkpt>
      <trkpt lat="47.95656" lon="-3.90659">
        <ele>145.2</ele>
        <time>2022-12-07T10:31:47Z</time>
      </trkpt>
      <trkpt lat="47.95655" lon="-3.90667">
        <ele>145.2</ele>
        <time>2022-12-07T10:31:48Z</time>
      </trkpt>
      <trkpt lat="47.95654" lon="-3.90674">
        <ele>145.2</ele>
        <time>2022-12-07T10:31:49Z</time>
      </trkpt>
      <trkpt lat="47.95654" lon="-3.90682">
        <ele>145.1</ele>
        <time>2022-12-07T10:31:50Z</time>
      </trkpt>
      <trkpt lat="47.95653" lon="-3.9069">
        <ele>145.1</ele>
        <time>2022-12-07T10:31:51Z</time>
      </trkpt>
      <trkpt lat="47.95653" lon="-3.90699">
        <ele>145.1</ele>
        <time>2022-12-07T10:31:52Z</time>
      </trkpt>
      <trkpt lat="47.95652" lon="-3.90707">
        <ele>145</ele>
        <time>2022-12-07T10:31:53Z</time>
      </trkpt>
      <trkpt lat="47.95652" lon="-3.90715">
        <ele>145</ele>
        <time>2022-12-07T10:31:54Z</time>
      </trkpt>
      <trkpt lat="47.95652" lon="-3.90724">
        <ele>144.9</ele>
        <time>2022-12-07T10:31:55Z</time>
      </trkpt>
      <trkpt lat="47.95651" lon="-3.90732">
        <ele>144.9</ele>
        <time>2022-12-07T10:31:56Z</time>
      </trkpt>
      <trkpt lat="47.95651" lon="-3.9074">
        <ele>144.9</ele>
        <time>2022-12-07T10:31:57Z</time>
      </trkpt>
      <trkpt lat="47.95651" lon="-3.90748">
        <ele>144.9</ele>
        <time>2022-12-07T10:31:58Z</time>
      </trkpt>
      <trkpt lat="47.95651" lon="-3.90756">
        <ele>144.9</ele>
        <time>2022-12-07T10:31:59Z</time>
      </trkpt>
      <trkpt lat="47.95651" lon="-3.90765">
        <ele>144.9</ele>
        <time>2022-12-07T10:32:00Z</time>
      </trkpt>
      <trkpt lat="47.95651" lon="-3.90773">
        <ele>144.9</ele>
        <time>2022-12-07T10:32:01Z</time>
      </trkpt>
      <trkpt lat="47.95651" lon="-3.9078">
        <ele>144.9</ele>
        <time>2022-12-07T10:32:02Z</time>
      </trkpt>
      <trkpt lat="47.95651" lon="-3.90788">
        <ele>144.9</ele>
        <time>2022-12-07T10:32:03Z</time>
      </trkpt>
      <trkpt lat="47.95651" lon="-3.90796">
        <ele>144.9</ele>
        <time>2022-12-07T10:32:04Z</time>
      </trkpt>
      <trkpt lat="47.95651" lon="-3.90804">
        <ele>145</ele>
        <time>2022-12-07T10:32:05Z</time>
      </trkpt>
      <trkpt lat="47.95651" lon="-3.90811">
        <ele>145</ele>
        <time>2022-12-07T10:32:06Z</time>
      </trkpt>
      <trkpt lat="47.95651" lon="-3.90816">
        <ele>145.1</ele>
        <time>2022-12-07T10:32:07Z</time>
      </trkpt>
      <trkpt lat="47.95651" lon="-3.90818">
        <ele>145.1</ele>
        <time>2022-12-07T10:32:08Z</time>
      </trkpt>
      <trkpt lat="47.95651" lon="-3.9082">
        <ele>145.1</ele>
        <time>2022-12-07T10:32:09Z</time>
      </trkpt>
      <trkpt lat="47.95651" lon="-3.90822">
        <ele>145.1</ele>
        <time>2022-12-07T10:32:10Z</time>
      </trkpt>
      <trkpt lat="47.95651" lon="-3.90823">
        <ele>145.1</ele>
        <time>2022-12-07T10:32:11Z</time>
      </trkpt>
      <trkpt lat="47.95651" lon="-3.90822">
        <ele>145.1</ele>
        <time>2022-12-07T10:32:12Z</time>
      </trkpt>
      <trkpt lat="47.95651" lon="-3.90822">
        <ele>145.1</ele>
        <time>2022-12-07T10:32:13Z</time>
      </trkpt>
      <trkpt lat="47.95651" lon="-3.90822">
        <ele>145.1</ele>
        <time>2022-12-07T10:32:14Z</time>
      </trkpt>
      <trkpt lat="47.95651" lon="-3.90822">
        <ele>145.1</ele>
        <time>2022-12-07T10:32:15Z</time>
      </trkpt>
      <trkpt lat="47.95651" lon="-3.90822">
        <ele>145.1</ele>
        <time>2022-12-07T10:32:16Z</time>
      </trkpt>
      <trkpt lat="47.95651" lon="-3.90822">
        <ele>145.1</ele>
        <time>2022-12-07T10:32:17Z</time>
      </trkpt>
      <trkpt lat="47.95651" lon="-3.90824">
        <ele>145.2</ele>
        <time>2022-12-07T10:32:18Z</time>
      </trkpt>
      <trkpt lat="47.95651" lon="-3.90825">
        <ele>145.2</ele>
        <time>2022-12-07T10:32:19Z</time>
      </trkpt>
      <trkpt lat="47.9565" lon="-3.90828">
        <ele>145.2</ele>
        <time>2022-12-07T10:32:20Z</time>
      </trkpt>
      <trkpt lat="47.9565" lon="-3.9083">
        <ele>145.2</ele>
        <time>2022-12-07T10:32:21Z</time>
      </trkpt>
      <trkpt lat="47.95649" lon="-3.90831">
        <ele>145.2</ele>
        <time>2022-12-07T10:32:22Z</time>
      </trkpt>
      <trkpt lat="47.95649" lon="-3.90837">
        <ele>145.3</ele>
        <time>2022-12-07T10:32:23Z</time>
      </trkpt>
      <trkpt lat="47.95649" lon="-3.9084">
        <ele>145.3</ele>
        <time>2022-12-07T10:32:24Z</time>
      </trkpt>
      <trkpt lat="47.9565" lon="-3.90843">
        <ele>145.3</ele>
        <time>2022-12-07T10:32:25Z</time>
      </trkpt>
      <trkpt lat="47.95648" lon="-3.90854">
        <ele>145.5</ele>
        <time>2022-12-07T10:32:27Z</time>
      </trkpt>
      <trkpt lat="47.95648" lon="-3.9086">
        <ele>145.5</ele>
        <time>2022-12-07T10:32:28Z</time>
      </trkpt>
      <trkpt lat="47.95647" lon="-3.90867">
        <ele>145.6</ele>
        <time>2022-12-07T10:32:29Z</time>
      </trkpt>
      <trkpt lat="47.95647" lon="-3.90874">
        <ele>145.7</ele>
        <time>2022-12-07T10:32:30Z</time>
      </trkpt>
      <trkpt lat="47.95647" lon="-3.90886">
        <ele>145.8</ele>
        <time>2022-12-07T10:32:32Z</time>
      </trkpt>
      <trkpt lat="47.95648" lon="-3.90893">
        <ele>145.9</ele>
        <time>2022-12-07T10:32:33Z</time>
      </trkpt>
      <trkpt lat="47.95649" lon="-3.909">
        <ele>146</ele>
        <time>2022-12-07T10:32:34Z</time>
      </trkpt>
      <trkpt lat="47.9565" lon="-3.90909">
        <ele>146.1</ele>
        <time>2022-12-07T10:32:35Z</time>
      </trkpt>
      <trkpt lat="47.9565" lon="-3.90916">
        <ele>146.2</ele>
        <time>2022-12-07T10:32:36Z</time>
      </trkpt>
      <trkpt lat="47.95651" lon="-3.90923">
        <ele>146.3</ele>
        <time>2022-12-07T10:32:37Z</time>
      </trkpt>
      <trkpt lat="47.95651" lon="-3.9093">
        <ele>146.3</ele>
        <time>2022-12-07T10:32:38Z</time>
      </trkpt>
      <trkpt lat="47.95652" lon="-3.90936">
        <ele>146.4</ele>
        <time>2022-12-07T10:32:39Z</time>
      </trkpt>
      <trkpt lat="47.95652" lon="-3.90943">
        <ele>146.5</ele>
        <time>2022-12-07T10:32:40Z</time>
      </trkpt>
      <trkpt lat="47.95653" lon="-3.9095">
        <ele>146.5</ele>
        <time>2022-12-07T10:32:41Z</time>
      </trkpt>
      <trkpt lat="47.95653" lon="-3.90957">
        <ele>146.6</ele>
        <time>2022-12-07T10:32:42Z</time>
      </trkpt>
      <trkpt lat="47.95654" lon="-3.90964">
        <ele>146.7</ele>
        <time>2022-12-07T10:32:43Z</time>
      </trkpt>
      <trkpt lat="47.95654" lon="-3.90971">
        <ele>146.7</ele>
        <time>2022-12-07T10:32:44Z</time>
      </trkpt>
      <trkpt lat="47.95655" lon="-3.90978">
        <ele>146.8</ele>
        <time>2022-12-07T10:32:45Z</time>
      </trkpt>
      <trkpt lat="47.95656" lon="-3.90985">
        <ele>146.8</ele>
        <time>2022-12-07T10:32:46Z</time>
      </trkpt>
      <trkpt lat="47.95656" lon="-3.90992">
        <ele>146.9</ele>
        <time>2022-12-07T10:32:47Z</time>
      </trkpt>
      <trkpt lat="47.95656" lon="-3.91">
        <ele>146.9</ele>
        <time>2022-12-07T10:32:48Z</time>
      </trkpt>
      <trkpt lat="47.95657" lon="-3.91007">
        <ele>147</ele>
        <time>2022-12-07T10:32:49Z</time>
      </trkpt>
      <trkpt lat="47.95658" lon="-3.91014">
        <ele>147.1</ele>
        <time>2022-12-07T10:32:50Z</time>
      </trkpt>
      <trkpt lat="47.95658" lon="-3.91021">
        <ele>147.2</ele>
        <time>2022-12-07T10:32:51Z</time>
      </trkpt>
      <trkpt lat="47.95658" lon="-3.91028">
        <ele>147.3</ele>
        <time>2022-12-07T10:32:52Z</time>
      </trkpt>
      <trkpt lat="47.95659" lon="-3.91035">
        <ele>147.4</ele>
        <time>2022-12-07T10:32:53Z</time>
      </trkpt>
      <trkpt lat="47.9566" lon="-3.91041">
        <ele>147.6</ele>
        <time>2022-12-07T10:32:54Z</time>
      </trkpt>
      <trkpt lat="47.9566" lon="-3.91048">
        <ele>147.7</ele>
        <time>2022-12-07T10:32:55Z</time>
      </trkpt>
      <trkpt lat="47.9566" lon="-3.91055">
        <ele>147.9</ele>
        <time>2022-12-07T10:32:56Z</time>
      </trkpt>
      <trkpt lat="47.95661" lon="-3.91063">
        <ele>148.1</ele>
        <time>2022-12-07T10:32:57Z</time>
      </trkpt>
      <trkpt lat="47.95661" lon="-3.9107">
        <ele>148.3</ele>
        <time>2022-12-07T10:32:58Z</time>
      </trkpt>
      <trkpt lat="47.95662" lon="-3.91077">
        <ele>148.6</ele>
        <time>2022-12-07T10:32:59Z</time>
      </trkpt>
      <trkpt lat="47.95662" lon="-3.91083">
        <ele>148.8</ele>
        <time>2022-12-07T10:33:00Z</time>
      </trkpt>
      <trkpt lat="47.95663" lon="-3.91089">
        <ele>149.1</ele>
        <time>2022-12-07T10:33:01Z</time>
      </trkpt>
      <trkpt lat="47.95664" lon="-3.91094">
        <ele>149.3</ele>
        <time>2022-12-07T10:33:02Z</time>
      </trkpt>
      <trkpt lat="47.95664" lon="-3.91101">
        <ele>149.5</ele>
        <time>2022-12-07T10:33:03Z</time>
      </trkpt>
      <trkpt lat="47.95664" lon="-3.91108">
        <ele>149.8</ele>
        <time>2022-12-07T10:33:04Z</time>
      </trkpt>
      <trkpt lat="47.95665" lon="-3.91112">
        <ele>149.9</ele>
        <time>2022-12-07T10:33:05Z</time>
      </trkpt>
      <trkpt lat="47.95665" lon="-3.91119">
        <ele>150.2</ele>
        <time>2022-12-07T10:33:06Z</time>
      </trkpt>
      <trkpt lat="47.95666" lon="-3.91127">
        <ele>150.5</ele>
        <time>2022-12-07T10:33:07Z</time>
      </trkpt>
      <trkpt lat="47.95666" lon="-3.91135">
        <ele>150.7</ele>
        <time>2022-12-07T10:33:08Z</time>
      </trkpt>
      <trkpt lat="47.95667" lon="-3.91142">
        <ele>151</ele>
        <time>2022-12-07T10:33:09Z</time>
      </trkpt>
      <trkpt lat="47.95667" lon="-3.9115">
        <ele>151.3</ele>
        <time>2022-12-07T10:33:10Z</time>
      </trkpt>
      <trkpt lat="47.95668" lon="-3.91156">
        <ele>151.6</ele>
        <time>2022-12-07T10:33:11Z</time>
      </trkpt>
      <trkpt lat="47.95668" lon="-3.91163">
        <ele>151.9</ele>
        <time>2022-12-07T10:33:12Z</time>
      </trkpt>
      <trkpt lat="47.95669" lon="-3.91171">
        <ele>152.2</ele>
        <time>2022-12-07T10:33:13Z</time>
      </trkpt>
      <trkpt lat="47.95669" lon="-3.91175">
        <ele>152.4</ele>
        <time>2022-12-07T10:33:14Z</time>
      </trkpt>
      <trkpt lat="47.95669" lon="-3.91186">
        <ele>152.9</ele>
        <time>2022-12-07T10:33:16Z</time>
      </trkpt>
      <trkpt lat="47.9567" lon="-3.91195">
        <ele>153.3</ele>
        <time>2022-12-07T10:33:17Z</time>
      </trkpt>
      <trkpt lat="47.95671" lon="-3.91201">
        <ele>153.6</ele>
        <time>2022-12-07T10:33:18Z</time>
      </trkpt>
      <trkpt lat="47.95672" lon="-3.91207">
        <ele>153.9</ele>
        <time>2022-12-07T10:33:19Z</time>
      </trkpt>
      <trkpt lat="47.95673" lon="-3.91215">
        <ele>154.2</ele>
        <time>2022-12-07T10:33:21Z</time>
      </trkpt>
      <trkpt lat="47.95674" lon="-3.91222">
        <ele>154.5</ele>
        <time>2022-12-07T10:33:22Z</time>
      </trkpt>
      <trkpt lat="47.95675" lon="-3.91228">
        <ele>154.7</ele>
        <time>2022-12-07T10:33:23Z</time>
      </trkpt>
      <trkpt lat="47.95677" lon="-3.9124">
        <ele>155.1</ele>
        <time>2022-12-07T10:33:25Z</time>
      </trkpt>
      <trkpt lat="47.95678" lon="-3.91244">
        <ele>155.3</ele>
        <time>2022-12-07T10:33:26Z</time>
      </trkpt>
      <trkpt lat="47.95679" lon="-3.91251">
        <ele>155.5</ele>
        <time>2022-12-07T10:33:27Z</time>
      </trkpt>
      <trkpt lat="47.9568" lon="-3.91256">
        <ele>155.6</ele>
        <time>2022-12-07T10:33:28Z</time>
      </trkpt>
      <trkpt lat="47.95683" lon="-3.91263">
        <ele>155.8</ele>
        <time>2022-12-07T10:33:29Z</time>
      </trkpt>
      <trkpt lat="47.95685" lon="-3.91268">
        <ele>155.9</ele>
        <time>2022-12-07T10:33:30Z</time>
      </trkpt>
      <trkpt lat="47.95688" lon="-3.91275">
        <ele>156.1</ele>
        <time>2022-12-07T10:33:31Z</time>
      </trkpt>
      <trkpt lat="47.95693" lon="-3.91283">
        <ele>156.2</ele>
        <time>2022-12-07T10:33:33Z</time>
      </trkpt>
      <trkpt lat="47.95696" lon="-3.91288">
        <ele>156.3</ele>
        <time>2022-12-07T10:33:34Z</time>
      </trkpt>
      <trkpt lat="47.95701" lon="-3.91297">
        <ele>156.5</ele>
        <time>2022-12-07T10:33:36Z</time>
      </trkpt>
      <trkpt lat="47.95705" lon="-3.91301">
        <ele>156.6</ele>
        <time>2022-12-07T10:33:37Z</time>
      </trkpt>
      <trkpt lat="47.95708" lon="-3.91305">
        <ele>156.7</ele>
        <time>2022-12-07T10:33:38Z</time>
      </trkpt>
      <trkpt lat="47.95715" lon="-3.91313">
        <ele>156.9</ele>
        <time>2022-12-07T10:33:40Z</time>
      </trkpt>
      <trkpt lat="47.95718" lon="-3.91317">
        <ele>156.9</ele>
        <time>2022-12-07T10:33:41Z</time>
      </trkpt>
      <trkpt lat="47.95722" lon="-3.91321">
        <ele>157</ele>
        <time>2022-12-07T10:33:42Z</time>
      </trkpt>
      <trkpt lat="47.95725" lon="-3.91325">
        <ele>157</ele>
        <time>2022-12-07T10:33:43Z</time>
      </trkpt>
      <trkpt lat="47.9573" lon="-3.91331">
        <ele>157.1</ele>
        <time>2022-12-07T10:33:44Z</time>
      </trkpt>
      <trkpt lat="47.95735" lon="-3.91337">
        <ele>157.1</ele>
        <time>2022-12-07T10:33:46Z</time>
      </trkpt>
      <trkpt lat="47.95737" lon="-3.91341">
        <ele>157.1</ele>
        <time>2022-12-07T10:33:47Z</time>
      </trkpt>
      <trkpt lat="47.95737" lon="-3.91348">
        <ele>157.1</ele>
        <time>2022-12-07T10:33:48Z</time>
      </trkpt>
      <trkpt lat="47.95732" lon="-3.91355">
        <ele>157.1</ele>
        <time>2022-12-07T10:33:49Z</time>
      </trkpt>
      <trkpt lat="47.95727" lon="-3.9136">
        <ele>157.1</ele>
        <time>2022-12-07T10:33:50Z</time>
      </trkpt>
      <trkpt lat="47.95724" lon="-3.91365">
        <ele>157.1</ele>
        <time>2022-12-07T10:33:51Z</time>
      </trkpt>
      <trkpt lat="47.9572" lon="-3.9137">
        <ele>157</ele>
        <time>2022-12-07T10:33:52Z</time>
      </trkpt>
      <trkpt lat="47.95716" lon="-3.91375">
        <ele>157</ele>
        <time>2022-12-07T10:33:53Z</time>
      </trkpt>
      <trkpt lat="47.95712" lon="-3.9138">
        <ele>157</ele>
        <time>2022-12-07T10:33:54Z</time>
      </trkpt>
      <trkpt lat="47.95709" lon="-3.91384">
        <ele>156.9</ele>
        <time>2022-12-07T10:33:55Z</time>
      </trkpt>
      <trkpt lat="47.95705" lon="-3.91389">
        <ele>156.9</ele>
        <time>2022-12-07T10:33:56Z</time>
      </trkpt>
      <trkpt lat="47.95704" lon="-3.91396">
        <ele>156.8</ele>
        <time>2022-12-07T10:33:57Z</time>
      </trkpt>
      <trkpt lat="47.95703" lon="-3.91403">
        <ele>156.8</ele>
        <time>2022-12-07T10:33:58Z</time>
      </trkpt>
      <trkpt lat="47.95703" lon="-3.9141">
        <ele>156.7</ele>
        <time>2022-12-07T10:33:59Z</time>
      </trkpt>
      <trkpt lat="47.95704" lon="-3.91417">
        <ele>156.6</ele>
        <time>2022-12-07T10:34:00Z</time>
      </trkpt>
      <trkpt lat="47.95706" lon="-3.91423">
        <ele>156.5</ele>
        <time>2022-12-07T10:34:01Z</time>
      </trkpt>
      <trkpt lat="47.95707" lon="-3.9143">
        <ele>156.4</ele>
        <time>2022-12-07T10:34:02Z</time>
      </trkpt>
      <trkpt lat="47.95709" lon="-3.91437">
        <ele>156.3</ele>
        <time>2022-12-07T10:34:03Z</time>
      </trkpt>
      <trkpt lat="47.9571" lon="-3.91445">
        <ele>156.1</ele>
        <time>2022-12-07T10:34:04Z</time>
      </trkpt>
      <trkpt lat="47.9571" lon="-3.91452">
        <ele>156</ele>
        <time>2022-12-07T10:34:05Z</time>
      </trkpt>
      <trkpt lat="47.95712" lon="-3.91459">
        <ele>155.8</ele>
        <time>2022-12-07T10:34:06Z</time>
      </trkpt>
      <trkpt lat="47.95714" lon="-3.91465">
        <ele>155.6</ele>
        <time>2022-12-07T10:34:07Z</time>
      </trkpt>
      <trkpt lat="47.95715" lon="-3.91472">
        <ele>155.5</ele>
        <time>2022-12-07T10:34:08Z</time>
      </trkpt>
      <trkpt lat="47.95716" lon="-3.91479">
        <ele>155.3</ele>
        <time>2022-12-07T10:34:09Z</time>
      </trkpt>
      <trkpt lat="47.95718" lon="-3.91487">
        <ele>155.1</ele>
        <time>2022-12-07T10:34:10Z</time>
      </trkpt>
      <trkpt lat="47.95719" lon="-3.91494">
        <ele>154.9</ele>
        <time>2022-12-07T10:34:11Z</time>
      </trkpt>
      <trkpt lat="47.9572" lon="-3.91502">
        <ele>154.7</ele>
        <time>2022-12-07T10:34:12Z</time>
      </trkpt>
      <trkpt lat="47.95721" lon="-3.91511">
        <ele>154.5</ele>
        <time>2022-12-07T10:34:13Z</time>
      </trkpt>
      <trkpt lat="47.95723" lon="-3.91519">
        <ele>154.4</ele>
        <time>2022-12-07T10:34:14Z</time>
      </trkpt>
      <trkpt lat="47.95725" lon="-3.91527">
        <ele>154.2</ele>
        <time>2022-12-07T10:34:15Z</time>
      </trkpt>
      <trkpt lat="47.95726" lon="-3.91534">
        <ele>154.1</ele>
        <time>2022-12-07T10:34:16Z</time>
      </trkpt>
      <trkpt lat="47.95727" lon="-3.91542">
        <ele>153.9</ele>
        <time>2022-12-07T10:34:17Z</time>
      </trkpt>
      <trkpt lat="47.95728" lon="-3.91551">
        <ele>153.7</ele>
        <time>2022-12-07T10:34:18Z</time>
      </trkpt>
      <trkpt lat="47.95729" lon="-3.91559">
        <ele>153.6</ele>
        <time>2022-12-07T10:34:19Z</time>
      </trkpt>
      <trkpt lat="47.9573" lon="-3.91567">
        <ele>153.4</ele>
        <time>2022-12-07T10:34:20Z</time>
      </trkpt>
      <trkpt lat="47.95731" lon="-3.91575">
        <ele>153.3</ele>
        <time>2022-12-07T10:34:21Z</time>
      </trkpt>
      <trkpt lat="47.95731" lon="-3.91583">
        <ele>153.1</ele>
        <time>2022-12-07T10:34:22Z</time>
      </trkpt>
      <trkpt lat="47.95732" lon="-3.91591">
        <ele>152.9</ele>
        <time>2022-12-07T10:34:23Z</time>
      </trkpt>
      <trkpt lat="47.95732" lon="-3.91599">
        <ele>152.8</ele>
        <time>2022-12-07T10:34:24Z</time>
      </trkpt>
      <trkpt lat="47.95733" lon="-3.91607">
        <ele>152.6</ele>
        <time>2022-12-07T10:34:25Z</time>
      </trkpt>
      <trkpt lat="47.95734" lon="-3.91616">
        <ele>152.5</ele>
        <time>2022-12-07T10:34:26Z</time>
      </trkpt>
      <trkpt lat="47.95735" lon="-3.91623">
        <ele>152.3</ele>
        <time>2022-12-07T10:34:27Z</time>
      </trkpt>
      <trkpt lat="47.95736" lon="-3.91631">
        <ele>152.2</ele>
        <time>2022-12-07T10:34:28Z</time>
      </trkpt>
      <trkpt lat="47.95737" lon="-3.9164">
        <ele>152</ele>
        <time>2022-12-07T10:34:29Z</time>
      </trkpt>
      <trkpt lat="47.95738" lon="-3.91648">
        <ele>151.9</ele>
        <time>2022-12-07T10:34:30Z</time>
      </trkpt>
      <trkpt lat="47.95738" lon="-3.91655">
        <ele>151.7</ele>
        <time>2022-12-07T10:34:31Z</time>
      </trkpt>
      <trkpt lat="47.95739" lon="-3.91663">
        <ele>151.6</ele>
        <time>2022-12-07T10:34:32Z</time>
      </trkpt>
      <trkpt lat="47.9574" lon="-3.9167">
        <ele>151.4</ele>
        <time>2022-12-07T10:34:33Z</time>
      </trkpt>
      <trkpt lat="47.9574" lon="-3.91678">
        <ele>151.3</ele>
        <time>2022-12-07T10:34:34Z</time>
      </trkpt>
      <trkpt lat="47.95741" lon="-3.91685">
        <ele>151.2</ele>
        <time>2022-12-07T10:34:35Z</time>
      </trkpt>
      <trkpt lat="47.95743" lon="-3.91693">
        <ele>151.1</ele>
        <time>2022-12-07T10:34:36Z</time>
      </trkpt>
      <trkpt lat="47.95744" lon="-3.91699">
        <ele>151</ele>
        <time>2022-12-07T10:34:37Z</time>
      </trkpt>
      <trkpt lat="47.95745" lon="-3.91706">
        <ele>150.9</ele>
        <time>2022-12-07T10:34:38Z</time>
      </trkpt>
      <trkpt lat="47.95745" lon="-3.91713">
        <ele>150.7</ele>
        <time>2022-12-07T10:34:39Z</time>
      </trkpt>
      <trkpt lat="47.95746" lon="-3.9172">
        <ele>150.6</ele>
        <time>2022-12-07T10:34:40Z</time>
      </trkpt>
      <trkpt lat="47.95747" lon="-3.91727">
        <ele>150.4</ele>
        <time>2022-12-07T10:34:41Z</time>
      </trkpt>
      <trkpt lat="47.95749" lon="-3.91734">
        <ele>150.2</ele>
        <time>2022-12-07T10:34:42Z</time>
      </trkpt>
      <trkpt lat="47.95751" lon="-3.91741">
        <ele>150.1</ele>
        <time>2022-12-07T10:34:43Z</time>
      </trkpt>
      <trkpt lat="47.95752" lon="-3.91748">
        <ele>149.9</ele>
        <time>2022-12-07T10:34:44Z</time>
      </trkpt>
      <trkpt lat="47.95751" lon="-3.91756">
        <ele>149.8</ele>
        <time>2022-12-07T10:34:45Z</time>
      </trkpt>
      <trkpt lat="47.9575" lon="-3.91764">
        <ele>149.7</ele>
        <time>2022-12-07T10:34:46Z</time>
      </trkpt>
      <trkpt lat="47.95749" lon="-3.91773">
        <ele>149.5</ele>
        <time>2022-12-07T10:34:47Z</time>
      </trkpt>
      <trkpt lat="47.95748" lon="-3.91782">
        <ele>149.4</ele>
        <time>2022-12-07T10:34:48Z</time>
      </trkpt>
      <trkpt lat="47.95747" lon="-3.91791">
        <ele>149.3</ele>
        <time>2022-12-07T10:34:49Z</time>
      </trkpt>
      <trkpt lat="47.95745" lon="-3.918">
        <ele>149.1</ele>
        <time>2022-12-07T10:34:50Z</time>
      </trkpt>
      <trkpt lat="47.95744" lon="-3.9181">
        <ele>148.9</ele>
        <time>2022-12-07T10:34:51Z</time>
      </trkpt>
      <trkpt lat="47.95742" lon="-3.91819">
        <ele>148.6</ele>
        <time>2022-12-07T10:34:52Z</time>
      </trkpt>
      <trkpt lat="47.9574" lon="-3.91829">
        <ele>148.4</ele>
        <time>2022-12-07T10:34:53Z</time>
      </trkpt>
      <trkpt lat="47.95739" lon="-3.91839">
        <ele>148.1</ele>
        <time>2022-12-07T10:34:54Z</time>
      </trkpt>
      <trkpt lat="47.95737" lon="-3.9185">
        <ele>147.9</ele>
        <time>2022-12-07T10:34:55Z</time>
      </trkpt>
      <trkpt lat="47.95735" lon="-3.9186">
        <ele>147.6</ele>
        <time>2022-12-07T10:34:56Z</time>
      </trkpt>
      <trkpt lat="47.95733" lon="-3.91871">
        <ele>147.3</ele>
        <time>2022-12-07T10:34:57Z</time>
      </trkpt>
      <trkpt lat="47.95731" lon="-3.91882">
        <ele>147</ele>
        <time>2022-12-07T10:34:58Z</time>
      </trkpt>
      <trkpt lat="47.9573" lon="-3.91893">
        <ele>146.7</ele>
        <time>2022-12-07T10:34:59Z</time>
      </trkpt>
      <trkpt lat="47.95728" lon="-3.91905">
        <ele>146.5</ele>
        <time>2022-12-07T10:35:00Z</time>
      </trkpt>
      <trkpt lat="47.95726" lon="-3.91916">
        <ele>146.2</ele>
        <time>2022-12-07T10:35:01Z</time>
      </trkpt>
      <trkpt lat="47.95725" lon="-3.91928">
        <ele>145.9</ele>
        <time>2022-12-07T10:35:02Z</time>
      </trkpt>
      <trkpt lat="47.95723" lon="-3.91939">
        <ele>145.6</ele>
        <time>2022-12-07T10:35:03Z</time>
      </trkpt>
      <trkpt lat="47.95721" lon="-3.91951">
        <ele>145.3</ele>
        <time>2022-12-07T10:35:04Z</time>
      </trkpt>
      <trkpt lat="47.95719" lon="-3.91963">
        <ele>145.1</ele>
        <time>2022-12-07T10:35:05Z</time>
      </trkpt>
      <trkpt lat="47.95717" lon="-3.91975">
        <ele>144.8</ele>
        <time>2022-12-07T10:35:06Z</time>
      </trkpt>
      <trkpt lat="47.95716" lon="-3.91987">
        <ele>144.5</ele>
        <time>2022-12-07T10:35:07Z</time>
      </trkpt>
      <trkpt lat="47.95714" lon="-3.91999">
        <ele>144.2</ele>
        <time>2022-12-07T10:35:08Z</time>
      </trkpt>
      <trkpt lat="47.95712" lon="-3.92011">
        <ele>143.9</ele>
        <time>2022-12-07T10:35:09Z</time>
      </trkpt>
      <trkpt lat="47.9571" lon="-3.92023">
        <ele>143.6</ele>
        <time>2022-12-07T10:35:10Z</time>
      </trkpt>
      <trkpt lat="47.95708" lon="-3.92035">
        <ele>143.3</ele>
        <time>2022-12-07T10:35:11Z</time>
      </trkpt>
      <trkpt lat="47.95706" lon="-3.92048">
        <ele>143</ele>
        <time>2022-12-07T10:35:12Z</time>
      </trkpt>
      <trkpt lat="47.95704" lon="-3.9206">
        <ele>142.7</ele>
        <time>2022-12-07T10:35:13Z</time>
      </trkpt>
      <trkpt lat="47.95701" lon="-3.92072">
        <ele>142.4</ele>
        <time>2022-12-07T10:35:14Z</time>
      </trkpt>
      <trkpt lat="47.95699" lon="-3.92085">
        <ele>142.1</ele>
        <time>2022-12-07T10:35:15Z</time>
      </trkpt>
      <trkpt lat="47.95696" lon="-3.92097">
        <ele>141.8</ele>
        <time>2022-12-07T10:35:16Z</time>
      </trkpt>
      <trkpt lat="47.95693" lon="-3.92109">
        <ele>141.5</ele>
        <time>2022-12-07T10:35:17Z</time>
      </trkpt>
      <trkpt lat="47.9569" lon="-3.92121">
        <ele>141.2</ele>
        <time>2022-12-07T10:35:18Z</time>
      </trkpt>
      <trkpt lat="47.95686" lon="-3.92133">
        <ele>140.9</ele>
        <time>2022-12-07T10:35:19Z</time>
      </trkpt>
      <trkpt lat="47.95682" lon="-3.92145">
        <ele>140.6</ele>
        <time>2022-12-07T10:35:20Z</time>
      </trkpt>
      <trkpt lat="47.95678" lon="-3.92157">
        <ele>140.2</ele>
        <time>2022-12-07T10:35:21Z</time>
      </trkpt>
      <trkpt lat="47.95674" lon="-3.92169">
        <ele>139.9</ele>
        <time>2022-12-07T10:35:22Z</time>
      </trkpt>
      <trkpt lat="47.95669" lon="-3.9218">
        <ele>139.4</ele>
        <time>2022-12-07T10:35:23Z</time>
      </trkpt>
      <trkpt lat="47.95664" lon="-3.92191">
        <ele>139</ele>
        <time>2022-12-07T10:35:24Z</time>
      </trkpt>
      <trkpt lat="47.95658" lon="-3.92202">
        <ele>138.5</ele>
        <time>2022-12-07T10:35:25Z</time>
      </trkpt>
      <trkpt lat="47.95653" lon="-3.92212">
        <ele>138</ele>
        <time>2022-12-07T10:35:26Z</time>
      </trkpt>
      <trkpt lat="47.95648" lon="-3.92221">
        <ele>137.5</ele>
        <time>2022-12-07T10:35:27Z</time>
      </trkpt>
      <trkpt lat="47.95644" lon="-3.92229">
        <ele>137.1</ele>
        <time>2022-12-07T10:35:28Z</time>
      </trkpt>
      <trkpt lat="47.95638" lon="-3.92237">
        <ele>136.6</ele>
        <time>2022-12-07T10:35:29Z</time>
      </trkpt>
      <trkpt lat="47.95634" lon="-3.92244">
        <ele>136.2</ele>
        <time>2022-12-07T10:35:30Z</time>
      </trkpt>
      <trkpt lat="47.95631" lon="-3.92248">
        <ele>136</ele>
        <time>2022-12-07T10:35:31Z</time>
      </trkpt>
      <trkpt lat="47.95629" lon="-3.92252">
        <ele>135.8</ele>
        <time>2022-12-07T10:35:32Z</time>
      </trkpt>
      <trkpt lat="47.95629" lon="-3.92253">
        <ele>135.8</ele>
        <time>2022-12-07T10:35:33Z</time>
      </trkpt>
      <trkpt lat="47.95631" lon="-3.92256">
        <ele>135.6</ele>
        <time>2022-12-07T10:35:34Z</time>
      </trkpt>
      <trkpt lat="47.95632" lon="-3.92257">
        <ele>135.1</ele>
        <time>2022-12-07T10:35:35Z</time>
      </trkpt>
      <trkpt lat="47.95635" lon="-3.92258">
        <ele>135.1</ele>
        <time>2022-12-07T10:35:36Z</time>
      </trkpt>
      <trkpt lat="47.95636" lon="-3.92258">
        <ele>135.1</ele>
        <time>2022-12-07T10:35:37Z</time>
      </trkpt>
      <trkpt lat="47.95638" lon="-3.92258">
        <ele>135.1</ele>
        <time>2022-12-07T10:35:38Z</time>
      </trkpt>
      <trkpt lat="47.9564" lon="-3.92257">
        <ele>135.1</ele>
        <time>2022-12-07T10:35:39Z</time>
      </trkpt>
      <trkpt lat="47.95641" lon="-3.92256">
        <ele>135</ele>
        <time>2022-12-07T10:35:40Z</time>
      </trkpt>
      <trkpt lat="47.95645" lon="-3.92254">
        <ele>135</ele>
        <time>2022-12-07T10:35:42Z</time>
      </trkpt>
      <trkpt lat="47.95647" lon="-3.92251">
        <ele>135</ele>
        <time>2022-12-07T10:35:43Z</time>
      </trkpt>
      <trkpt lat="47.95648" lon="-3.92249">
        <ele>135</ele>
        <time>2022-12-07T10:35:44Z</time>
      </trkpt>
      <trkpt lat="47.95649" lon="-3.92248">
        <ele>135</ele>
        <time>2022-12-07T10:35:45Z</time>
      </trkpt>
      <trkpt lat="47.9565" lon="-3.92247">
        <ele>135</ele>
        <time>2022-12-07T10:35:46Z</time>
      </trkpt>
      <trkpt lat="47.9565" lon="-3.92245">
        <ele>135</ele>
        <time>2022-12-07T10:35:47Z</time>
      </trkpt>
      <trkpt lat="47.9565" lon="-3.92245">
        <ele>135</ele>
        <time>2022-12-07T10:35:48Z</time>
      </trkpt>
      <trkpt lat="47.95651" lon="-3.92245">
        <ele>135</ele>
        <time>2022-12-07T10:35:49Z</time>
      </trkpt>
      <trkpt lat="47.95652" lon="-3.92245">
        <ele>135</ele>
        <time>2022-12-07T10:35:50Z</time>
      </trkpt>
      <trkpt lat="47.95652" lon="-3.92245">
        <ele>135</ele>
        <time>2022-12-07T10:35:51Z</time>
      </trkpt>
      <trkpt lat="47.95653" lon="-3.92244">
        <ele>135</ele>
        <time>2022-12-07T10:35:52Z</time>
      </trkpt>
      <trkpt lat="47.95653" lon="-3.92244">
        <ele>135</ele>
        <time>2022-12-07T10:35:54Z</time>
      </trkpt>
      <trkpt lat="47.95654" lon="-3.92244">
        <ele>135</ele>
        <time>2022-12-07T10:35:55Z</time>
      </trkpt>
      <trkpt lat="47.95655" lon="-3.92244">
        <ele>135</ele>
        <time>2022-12-07T10:35:56Z</time>
      </trkpt>
      <trkpt lat="47.95655" lon="-3.92244">
        <ele>135</ele>
        <time>2022-12-07T10:36:38Z</time>
      </trkpt>
      <trkpt lat="47.95656" lon="-3.92243">
        <ele>135</ele>
        <time>2022-12-07T10:36:39Z</time>
      </trkpt>
      <trkpt lat="47.95656" lon="-3.92243">
        <ele>135</ele>
        <time>2022-12-07T10:36:40Z</time>
      </trkpt>
      <trkpt lat="47.95659" lon="-3.92241">
        <ele>135</ele>
        <time>2022-12-07T10:36:41Z</time>
      </trkpt>
      <trkpt lat="47.95661" lon="-3.9224">
        <ele>135</ele>
        <time>2022-12-07T10:36:42Z</time>
      </trkpt>
      <trkpt lat="47.95664" lon="-3.92237">
        <ele>135</ele>
        <time>2022-12-07T10:36:43Z</time>
      </trkpt>
      <trkpt lat="47.95665" lon="-3.92236">
        <ele>135</ele>
        <time>2022-12-07T10:36:44Z</time>
      </trkpt>
      <trkpt lat="47.95668" lon="-3.92234">
        <ele>135.1</ele>
        <time>2022-12-07T10:36:45Z</time>
      </trkpt>
      <trkpt lat="47.95671" lon="-3.92231">
        <ele>135.2</ele>
        <time>2022-12-07T10:36:46Z</time>
      </trkpt>
      <trkpt lat="47.95673" lon="-3.9223">
        <ele>135.2</ele>
        <time>2022-12-07T10:36:47Z</time>
      </trkpt>
      <trkpt lat="47.95676" lon="-3.92228">
        <ele>135.3</ele>
        <time>2022-12-07T10:36:48Z</time>
      </trkpt>
      <trkpt lat="47.95677" lon="-3.92227">
        <ele>135.3</ele>
        <time>2022-12-07T10:36:49Z</time>
      </trkpt>
      <trkpt lat="47.95679" lon="-3.92224">
        <ele>135.4</ele>
        <time>2022-12-07T10:36:50Z</time>
      </trkpt>
      <trkpt lat="47.95682" lon="-3.92222">
        <ele>135.5</ele>
        <time>2022-12-07T10:36:51Z</time>
      </trkpt>
      <trkpt lat="47.95685" lon="-3.92219">
        <ele>135.6</ele>
        <time>2022-12-07T10:36:52Z</time>
      </trkpt>
      <trkpt lat="47.95686" lon="-3.92218">
        <ele>135.7</ele>
        <time>2022-12-07T10:36:53Z</time>
      </trkpt>
      <trkpt lat="47.95689" lon="-3.92215">
        <ele>135.8</ele>
        <time>2022-12-07T10:36:54Z</time>
      </trkpt>
      <trkpt lat="47.95689" lon="-3.92214">
        <ele>135.8</ele>
        <time>2022-12-07T10:36:55Z</time>
      </trkpt>
      <trkpt lat="47.95693" lon="-3.92212">
        <ele>135.9</ele>
        <time>2022-12-07T10:36:56Z</time>
      </trkpt>
      <trkpt lat="47.95696" lon="-3.9221">
        <ele>136</ele>
        <time>2022-12-07T10:36:57Z</time>
      </trkpt>
      <trkpt lat="47.95698" lon="-3.92209">
        <ele>136.1</ele>
        <time>2022-12-07T10:36:58Z</time>
      </trkpt>
      <trkpt lat="47.95701" lon="-3.92207">
        <ele>136.2</ele>
        <time>2022-12-07T10:36:59Z</time>
      </trkpt>
      <trkpt lat="47.95702" lon="-3.92207">
        <ele>136.3</ele>
        <time>2022-12-07T10:37:00Z</time>
      </trkpt>
      <trkpt lat="47.95705" lon="-3.92204">
        <ele>136.4</ele>
        <time>2022-12-07T10:37:02Z</time>
      </trkpt>
      <trkpt lat="47.95705" lon="-3.92202">
        <ele>136.5</ele>
        <time>2022-12-07T10:37:03Z</time>
      </trkpt>
      <trkpt lat="47.95708" lon="-3.922">
        <ele>136.6</ele>
        <time>2022-12-07T10:37:04Z</time>
      </trkpt>
      <trkpt lat="47.95709" lon="-3.92198">
        <ele>136.6</ele>
        <time>2022-12-07T10:37:05Z</time>
      </trkpt>
      <trkpt lat="47.95711" lon="-3.92194">
        <ele>136.7</ele>
        <time>2022-12-07T10:37:07Z</time>
      </trkpt>
      <trkpt lat="47.95713" lon="-3.92189">
        <ele>136.9</ele>
        <time>2022-12-07T10:37:08Z</time>
      </trkpt>
      <trkpt lat="47.95714" lon="-3.92187">
        <ele>136.9</ele>
        <time>2022-12-07T10:37:09Z</time>
      </trkpt>
      <trkpt lat="47.95715" lon="-3.92184">
        <ele>137</ele>
        <time>2022-12-07T10:37:10Z</time>
      </trkpt>
      <trkpt lat="47.95719" lon="-3.92178">
        <ele>137.2</ele>
        <time>2022-12-07T10:37:12Z</time>
      </trkpt>
      <trkpt lat="47.95722" lon="-3.92174">
        <ele>137.3</ele>
        <time>2022-12-07T10:37:13Z</time>
      </trkpt>
      <trkpt lat="47.95724" lon="-3.92171">
        <ele>137.4</ele>
        <time>2022-12-07T10:37:14Z</time>
      </trkpt>
      <trkpt lat="47.95727" lon="-3.92168">
        <ele>137.5</ele>
        <time>2022-12-07T10:37:15Z</time>
      </trkpt>
      <trkpt lat="47.95732" lon="-3.92163">
        <ele>137.7</ele>
        <time>2022-12-07T10:37:16Z</time>
      </trkpt>
      <trkpt lat="47.95737" lon="-3.92158">
        <ele>137.9</ele>
        <time>2022-12-07T10:37:18Z</time>
      </trkpt>
      <trkpt lat="47.95743" lon="-3.92154">
        <ele>138.1</ele>
        <time>2022-12-07T10:37:19Z</time>
      </trkpt>
      <trkpt lat="47.95746" lon="-3.9215">
        <ele>138.3</ele>
        <time>2022-12-07T10:37:20Z</time>
      </trkpt>
      <trkpt lat="47.9575" lon="-3.92148">
        <ele>138.5</ele>
        <time>2022-12-07T10:37:21Z</time>
      </trkpt>
      <trkpt lat="47.95753" lon="-3.92146">
        <ele>138.7</ele>
        <time>2022-12-07T10:37:22Z</time>
      </trkpt>
      <trkpt lat="47.95756" lon="-3.92142">
        <ele>138.9</ele>
        <time>2022-12-07T10:37:23Z</time>
      </trkpt>
      <trkpt lat="47.95758" lon="-3.92141">
        <ele>139</ele>
        <time>2022-12-07T10:37:24Z</time>
      </trkpt>
      <trkpt lat="47.95762" lon="-3.92137">
        <ele>139.2</ele>
        <time>2022-12-07T10:37:26Z</time>
      </trkpt>
      <trkpt lat="47.95764" lon="-3.92134">
        <ele>139.4</ele>
        <time>2022-12-07T10:37:27Z</time>
      </trkpt>
      <trkpt lat="47.95768" lon="-3.92132">
        <ele>139.5</ele>
        <time>2022-12-07T10:37:28Z</time>
      </trkpt>
      <trkpt lat="47.95772" lon="-3.92129">
        <ele>139.7</ele>
        <time>2022-12-07T10:37:30Z</time>
      </trkpt>
      <trkpt lat="47.95777" lon="-3.92127">
        <ele>139.9</ele>
        <time>2022-12-07T10:37:31Z</time>
      </trkpt>
      <trkpt lat="47.9578" lon="-3.92124">
        <ele>140.1</ele>
        <time>2022-12-07T10:37:32Z</time>
      </trkpt>
      <trkpt lat="47.95783" lon="-3.92122">
        <ele>140.2</ele>
        <time>2022-12-07T10:37:33Z</time>
      </trkpt>
      <trkpt lat="47.95787" lon="-3.9212">
        <ele>140.4</ele>
        <time>2022-12-07T10:37:34Z</time>
      </trkpt>
      <trkpt lat="47.95789" lon="-3.92118">
        <ele>140.5</ele>
        <time>2022-12-07T10:37:35Z</time>
      </trkpt>
      <trkpt lat="47.95794" lon="-3.92114">
        <ele>140.8</ele>
        <time>2022-12-07T10:37:37Z</time>
      </trkpt>
      <trkpt lat="47.95797" lon="-3.92111">
        <ele>140.9</ele>
        <time>2022-12-07T10:37:38Z</time>
      </trkpt>
      <trkpt lat="47.95799" lon="-3.92109">
        <ele>141.1</ele>
        <time>2022-12-07T10:37:39Z</time>
      </trkpt>
      <trkpt lat="47.95802" lon="-3.92107">
        <ele>141.3</ele>
        <time>2022-12-07T10:37:40Z</time>
      </trkpt>
      <trkpt lat="47.95805" lon="-3.92105">
        <ele>141.5</ele>
        <time>2022-12-07T10:37:41Z</time>
      </trkpt>
      <trkpt lat="47.95806" lon="-3.92104">
        <ele>141.6</ele>
        <time>2022-12-07T10:37:42Z</time>
      </trkpt>
      <trkpt lat="47.95808" lon="-3.92103">
        <ele>141.7</ele>
        <time>2022-12-07T10:37:43Z</time>
      </trkpt>
      <trkpt lat="47.95811" lon="-3.92102">
        <ele>141.9</ele>
        <time>2022-12-07T10:37:44Z</time>
      </trkpt>
      <trkpt lat="47.95814" lon="-3.92101">
        <ele>142.1</ele>
        <time>2022-12-07T10:37:45Z</time>
      </trkpt>
      <trkpt lat="47.95817" lon="-3.921">
        <ele>142.3</ele>
        <time>2022-12-07T10:37:46Z</time>
      </trkpt>
      <trkpt lat="47.95818" lon="-3.921">
        <ele>142.4</ele>
        <time>2022-12-07T10:37:47Z</time>
      </trkpt>
      <trkpt lat="47.95821" lon="-3.92098">
        <ele>142.7</ele>
        <time>2022-12-07T10:37:48Z</time>
      </trkpt>
      <trkpt lat="47.95822" lon="-3.92097">
        <ele>142.8</ele>
        <time>2022-12-07T10:37:49Z</time>
      </trkpt>
      <trkpt lat="47.95825" lon="-3.92094">
        <ele>143.1</ele>
        <time>2022-12-07T10:37:50Z</time>
      </trkpt>
      <trkpt lat="47.95826" lon="-3.92093">
        <ele>143.2</ele>
        <time>2022-12-07T10:37:51Z</time>
      </trkpt>
      <trkpt lat="47.95829" lon="-3.92091">
        <ele>143.5</ele>
        <time>2022-12-07T10:37:52Z</time>
      </trkpt>
      <trkpt lat="47.9583" lon="-3.9209">
        <ele>143.6</ele>
        <time>2022-12-07T10:37:53Z</time>
      </trkpt>
      <trkpt lat="47.95833" lon="-3.92088">
        <ele>143.8</ele>
        <time>2022-12-07T10:37:54Z</time>
      </trkpt>
      <trkpt lat="47.95835" lon="-3.92088">
        <ele>143.9</ele>
        <time>2022-12-07T10:37:55Z</time>
      </trkpt>
      <trkpt lat="47.95839" lon="-3.92085">
        <ele>144.2</ele>
        <time>2022-12-07T10:37:57Z</time>
      </trkpt>
      <trkpt lat="47.95842" lon="-3.92082">
        <ele>144.5</ele>
        <time>2022-12-07T10:37:58Z</time>
      </trkpt>
      <trkpt lat="47.95844" lon="-3.9208">
        <ele>144.7</ele>
        <time>2022-12-07T10:37:59Z</time>
      </trkpt>
      <trkpt lat="47.95848" lon="-3.92077">
        <ele>144.9</ele>
        <time>2022-12-07T10:38:01Z</time>
      </trkpt>
      <trkpt lat="47.95851" lon="-3.92074">
        <ele>145.1</ele>
        <time>2022-12-07T10:38:02Z</time>
      </trkpt>
      <trkpt lat="47.95854" lon="-3.92069">
        <ele>145.4</ele>
        <time>2022-12-07T10:38:04Z</time>
      </trkpt>
      <trkpt lat="47.95856" lon="-3.92065">
        <ele>145.5</ele>
        <time>2022-12-07T10:38:05Z</time>
      </trkpt>
      <trkpt lat="47.95859" lon="-3.92062">
        <ele>145.7</ele>
        <time>2022-12-07T10:38:06Z</time>
      </trkpt>
      <trkpt lat="47.95859" lon="-3.92061">
        <ele>145.7</ele>
        <time>2022-12-07T10:38:07Z</time>
      </trkpt>
      <trkpt lat="47.95861" lon="-3.92057">
        <ele>145.9</ele>
        <time>2022-12-07T10:38:08Z</time>
      </trkpt>
      <trkpt lat="47.95861" lon="-3.92056">
        <ele>145.9</ele>
        <time>2022-12-07T10:38:09Z</time>
      </trkpt>
      <trkpt lat="47.95864" lon="-3.92052">
        <ele>146.1</ele>
        <time>2022-12-07T10:38:10Z</time>
      </trkpt>
      <trkpt lat="47.95866" lon="-3.9205">
        <ele>146.2</ele>
        <time>2022-12-07T10:38:11Z</time>
      </trkpt>
      <trkpt lat="47.95868" lon="-3.92048">
        <ele>146.4</ele>
        <time>2022-12-07T10:38:13Z</time>
      </trkpt>
      <trkpt lat="47.9587" lon="-3.92046">
        <ele>146.5</ele>
        <time>2022-12-07T10:38:14Z</time>
      </trkpt>
      <trkpt lat="47.95873" lon="-3.92043">
        <ele>146.7</ele>
        <time>2022-12-07T10:38:16Z</time>
      </trkpt>
      <trkpt lat="47.95876" lon="-3.92038">
        <ele>146.9</ele>
        <time>2022-12-07T10:38:17Z</time>
      </trkpt>
      <trkpt lat="47.95877" lon="-3.92034">
        <ele>147</ele>
        <time>2022-12-07T10:38:18Z</time>
      </trkpt>
      <trkpt lat="47.95878" lon="-3.92033">
        <ele>147.1</ele>
        <time>2022-12-07T10:38:19Z</time>
      </trkpt>
      <trkpt lat="47.95882" lon="-3.92028">
        <ele>147.4</ele>
        <time>2022-12-07T10:38:20Z</time>
      </trkpt>
      <trkpt lat="47.95885" lon="-3.92025">
        <ele>147.6</ele>
        <time>2022-12-07T10:38:22Z</time>
      </trkpt>
      <trkpt lat="47.95888" lon="-3.92023">
        <ele>147.8</ele>
        <time>2022-12-07T10:38:23Z</time>
      </trkpt>
      <trkpt lat="47.9589" lon="-3.9202">
        <ele>148</ele>
        <time>2022-12-07T10:38:24Z</time>
      </trkpt>
      <trkpt lat="47.95893" lon="-3.92017">
        <ele>148.2</ele>
        <time>2022-12-07T10:38:25Z</time>
      </trkpt>
      <trkpt lat="47.95894" lon="-3.92017">
        <ele>148.3</ele>
        <time>2022-12-07T10:38:26Z</time>
      </trkpt>
      <trkpt lat="47.95896" lon="-3.92016">
        <ele>148.4</ele>
        <time>2022-12-07T10:38:27Z</time>
      </trkpt>
      <trkpt lat="47.95897" lon="-3.92015">
        <ele>148.5</ele>
        <time>2022-12-07T10:38:28Z</time>
      </trkpt>
      <trkpt lat="47.95901" lon="-3.92013">
        <ele>148.7</ele>
        <time>2022-12-07T10:38:29Z</time>
      </trkpt>
      <trkpt lat="47.95902" lon="-3.92012">
        <ele>148.8</ele>
        <time>2022-12-07T10:38:30Z</time>
      </trkpt>
      <trkpt lat="47.95905" lon="-3.92011">
        <ele>149</ele>
        <time>2022-12-07T10:38:31Z</time>
      </trkpt>
      <trkpt lat="47.95907" lon="-3.9201">
        <ele>149.1</ele>
        <time>2022-12-07T10:38:32Z</time>
      </trkpt>
      <trkpt lat="47.9591" lon="-3.92007">
        <ele>149.3</ele>
        <time>2022-12-07T10:38:33Z</time>
      </trkpt>
      <trkpt lat="47.95913" lon="-3.92005">
        <ele>149.5</ele>
        <time>2022-12-07T10:38:34Z</time>
      </trkpt>
      <trkpt lat="47.95916" lon="-3.92004">
        <ele>149.6</ele>
        <time>2022-12-07T10:38:35Z</time>
      </trkpt>
      <trkpt lat="47.9592" lon="-3.92001">
        <ele>149.8</ele>
        <time>2022-12-07T10:38:37Z</time>
      </trkpt>
      <trkpt lat="47.95923" lon="-3.92">
        <ele>149.9</ele>
        <time>2022-12-07T10:38:38Z</time>
      </trkpt>
      <trkpt lat="47.95926" lon="-3.91998">
        <ele>150.1</ele>
        <time>2022-12-07T10:38:39Z</time>
      </trkpt>
      <trkpt lat="47.95929" lon="-3.91997">
        <ele>150.2</ele>
        <time>2022-12-07T10:38:40Z</time>
      </trkpt>
      <trkpt lat="47.95934" lon="-3.91995">
        <ele>150.4</ele>
        <time>2022-12-07T10:38:42Z</time>
      </trkpt>
      <trkpt lat="47.95937" lon="-3.91994">
        <ele>150.6</ele>
        <time>2022-12-07T10:38:43Z</time>
      </trkpt>
      <trkpt lat="47.9594" lon="-3.91993">
        <ele>150.7</ele>
        <time>2022-12-07T10:38:44Z</time>
      </trkpt>
      <trkpt lat="47.95943" lon="-3.91991">
        <ele>150.8</ele>
        <time>2022-12-07T10:38:45Z</time>
      </trkpt>
      <trkpt lat="47.95948" lon="-3.9199">
        <ele>151</ele>
        <time>2022-12-07T10:38:46Z</time>
      </trkpt>
      <trkpt lat="47.95949" lon="-3.91989">
        <ele>151</ele>
        <time>2022-12-07T10:38:47Z</time>
      </trkpt>
      <trkpt lat="47.95953" lon="-3.91988">
        <ele>151.2</ele>
        <time>2022-12-07T10:38:48Z</time>
      </trkpt>
      <trkpt lat="47.95956" lon="-3.91988">
        <ele>151.2</ele>
        <time>2022-12-07T10:38:49Z</time>
      </trkpt>
      <trkpt lat="47.95959" lon="-3.91987">
        <ele>151.3</ele>
        <time>2022-12-07T10:38:50Z</time>
      </trkpt>
      <trkpt lat="47.95962" lon="-3.91986">
        <ele>151.4</ele>
        <time>2022-12-07T10:38:51Z</time>
      </trkpt>
      <trkpt lat="47.95965" lon="-3.91985">
        <ele>151.5</ele>
        <time>2022-12-07T10:38:52Z</time>
      </trkpt>
      <trkpt lat="47.95968" lon="-3.91985">
        <ele>151.6</ele>
        <time>2022-12-07T10:38:53Z</time>
      </trkpt>
      <trkpt lat="47.95971" lon="-3.91984">
        <ele>151.7</ele>
        <time>2022-12-07T10:38:54Z</time>
      </trkpt>
      <trkpt lat="47.95976" lon="-3.91982">
        <ele>151.9</ele>
        <time>2022-12-07T10:38:55Z</time>
      </trkpt>
      <trkpt lat="47.95978" lon="-3.91982">
        <ele>152</ele>
        <time>2022-12-07T10:38:56Z</time>
      </trkpt>
      <trkpt lat="47.95981" lon="-3.91981">
        <ele>152.1</ele>
        <time>2022-12-07T10:38:58Z</time>
      </trkpt>
      <trkpt lat="47.95985" lon="-3.9198">
        <ele>152.2</ele>
        <time>2022-12-07T10:38:59Z</time>
      </trkpt>
      <trkpt lat="47.95989" lon="-3.91979">
        <ele>152.4</ele>
        <time>2022-12-07T10:39:00Z</time>
      </trkpt>
      <trkpt lat="47.95994" lon="-3.91978">
        <ele>152.6</ele>
        <time>2022-12-07T10:39:01Z</time>
      </trkpt>
      <trkpt lat="47.95995" lon="-3.91977">
        <ele>152.7</ele>
        <time>2022-12-07T10:39:02Z</time>
      </trkpt>
      <trkpt lat="47.95998" lon="-3.91977">
        <ele>152.8</ele>
        <time>2022-12-07T10:39:03Z</time>
      </trkpt>
      <trkpt lat="47.96001" lon="-3.91975">
        <ele>152.9</ele>
        <time>2022-12-07T10:39:04Z</time>
      </trkpt>
      <trkpt lat="47.96003" lon="-3.91973">
        <ele>153.1</ele>
        <time>2022-12-07T10:39:05Z</time>
      </trkpt>
      <trkpt lat="47.96007" lon="-3.91972">
        <ele>153.2</ele>
        <time>2022-12-07T10:39:06Z</time>
      </trkpt>
      <trkpt lat="47.96009" lon="-3.91972">
        <ele>153.3</ele>
        <time>2022-12-07T10:39:07Z</time>
      </trkpt>
      <trkpt lat="47.96013" lon="-3.91971">
        <ele>153.5</ele>
        <time>2022-12-07T10:39:09Z</time>
      </trkpt>
      <trkpt lat="47.96017" lon="-3.91971">
        <ele>153.7</ele>
        <time>2022-12-07T10:39:10Z</time>
      </trkpt>
      <trkpt lat="47.96021" lon="-3.91973">
        <ele>153.9</ele>
        <time>2022-12-07T10:39:11Z</time>
      </trkpt>
      <trkpt lat="47.96022" lon="-3.91973">
        <ele>153.9</ele>
        <time>2022-12-07T10:39:12Z</time>
      </trkpt>
      <trkpt lat="47.96026" lon="-3.91973">
        <ele>154.1</ele>
        <time>2022-12-07T10:39:13Z</time>
      </trkpt>
      <trkpt lat="47.9603" lon="-3.91973">
        <ele>154.3</ele>
        <time>2022-12-07T10:39:14Z</time>
      </trkpt>
      <trkpt lat="47.96033" lon="-3.91973">
        <ele>154.5</ele>
        <time>2022-12-07T10:39:15Z</time>
      </trkpt>
      <trkpt lat="47.96036" lon="-3.91974">
        <ele>154.6</ele>
        <time>2022-12-07T10:39:16Z</time>
      </trkpt>
      <trkpt lat="47.9604" lon="-3.91974">
        <ele>154.8</ele>
        <time>2022-12-07T10:39:18Z</time>
      </trkpt>
      <trkpt lat="47.96044" lon="-3.91974">
        <ele>155.1</ele>
        <time>2022-12-07T10:39:19Z</time>
      </trkpt>
      <trkpt lat="47.96046" lon="-3.91973">
        <ele>155.1</ele>
        <time>2022-12-07T10:39:20Z</time>
      </trkpt>
      <trkpt lat="47.96049" lon="-3.91973">
        <ele>155.3</ele>
        <time>2022-12-07T10:39:21Z</time>
      </trkpt>
      <trkpt lat="47.96052" lon="-3.91973">
        <ele>155.5</ele>
        <time>2022-12-07T10:39:22Z</time>
      </trkpt>
      <trkpt lat="47.96056" lon="-3.91973">
        <ele>155.7</ele>
        <time>2022-12-07T10:39:23Z</time>
      </trkpt>
      <trkpt lat="47.96059" lon="-3.91972">
        <ele>155.9</ele>
        <time>2022-12-07T10:39:24Z</time>
      </trkpt>
      <trkpt lat="47.96062" lon="-3.91973">
        <ele>156.1</ele>
        <time>2022-12-07T10:39:25Z</time>
      </trkpt>
      <trkpt lat="47.96065" lon="-3.91973">
        <ele>156.2</ele>
        <time>2022-12-07T10:39:26Z</time>
      </trkpt>
      <trkpt lat="47.96068" lon="-3.91973">
        <ele>156.4</ele>
        <time>2022-12-07T10:39:27Z</time>
      </trkpt>
      <trkpt lat="47.96071" lon="-3.91974">
        <ele>156.6</ele>
        <time>2022-12-07T10:39:28Z</time>
      </trkpt>
      <trkpt lat="47.96074" lon="-3.91977">
        <ele>156.8</ele>
        <time>2022-12-07T10:39:29Z</time>
      </trkpt>
      <trkpt lat="47.96075" lon="-3.9198">
        <ele>156.9</ele>
        <time>2022-12-07T10:39:30Z</time>
      </trkpt>
      <trkpt lat="47.96075" lon="-3.91985">
        <ele>156.9</ele>
        <time>2022-12-07T10:39:31Z</time>
      </trkpt>
      <trkpt lat="47.96075" lon="-3.91991">
        <ele>157</ele>
        <time>2022-12-07T10:39:32Z</time>
      </trkpt>
      <trkpt lat="47.96075" lon="-3.91993">
        <ele>157</ele>
        <time>2022-12-07T10:39:33Z</time>
      </trkpt>
      <trkpt lat="47.96074" lon="-3.92">
        <ele>157</ele>
        <time>2022-12-07T10:39:34Z</time>
      </trkpt>
      <trkpt lat="47.96073" lon="-3.92008">
        <ele>157.1</ele>
        <time>2022-12-07T10:39:35Z</time>
      </trkpt>
      <trkpt lat="47.96072" lon="-3.92014">
        <ele>157.2</ele>
        <time>2022-12-07T10:39:37Z</time>
      </trkpt>
      <trkpt lat="47.96072" lon="-3.92021">
        <ele>157.2</ele>
        <time>2022-12-07T10:39:38Z</time>
      </trkpt>
      <trkpt lat="47.96072" lon="-3.9203">
        <ele>157.3</ele>
        <time>2022-12-07T10:39:39Z</time>
      </trkpt>
      <trkpt lat="47.9607" lon="-3.92041">
        <ele>157.5</ele>
        <time>2022-12-07T10:39:41Z</time>
      </trkpt>
      <trkpt lat="47.9607" lon="-3.92051">
        <ele>157.6</ele>
        <time>2022-12-07T10:39:42Z</time>
      </trkpt>
      <trkpt lat="47.96069" lon="-3.92059">
        <ele>157.7</ele>
        <time>2022-12-07T10:39:43Z</time>
      </trkpt>
      <trkpt lat="47.96069" lon="-3.92065">
        <ele>157.8</ele>
        <time>2022-12-07T10:39:44Z</time>
      </trkpt>
      <trkpt lat="47.96069" lon="-3.92073">
        <ele>157.9</ele>
        <time>2022-12-07T10:39:45Z</time>
      </trkpt>
      <trkpt lat="47.96068" lon="-3.9208">
        <ele>158</ele>
        <time>2022-12-07T10:39:46Z</time>
      </trkpt>
      <trkpt lat="47.96067" lon="-3.92087">
        <ele>158.1</ele>
        <time>2022-12-07T10:39:47Z</time>
      </trkpt>
      <trkpt lat="47.96067" lon="-3.92094">
        <ele>158.2</ele>
        <time>2022-12-07T10:39:48Z</time>
      </trkpt>
      <trkpt lat="47.96067" lon="-3.92101">
        <ele>158.3</ele>
        <time>2022-12-07T10:39:49Z</time>
      </trkpt>
      <trkpt lat="47.96066" lon="-3.92108">
        <ele>158.4</ele>
        <time>2022-12-07T10:39:50Z</time>
      </trkpt>
      <trkpt lat="47.96066" lon="-3.92115">
        <ele>158.6</ele>
        <time>2022-12-07T10:39:51Z</time>
      </trkpt>
      <trkpt lat="47.96066" lon="-3.92122">
        <ele>158.7</ele>
        <time>2022-12-07T10:39:52Z</time>
      </trkpt>
      <trkpt lat="47.96066" lon="-3.92129">
        <ele>158.8</ele>
        <time>2022-12-07T10:39:53Z</time>
      </trkpt>
      <trkpt lat="47.96065" lon="-3.92135">
        <ele>158.9</ele>
        <time>2022-12-07T10:39:54Z</time>
      </trkpt>
      <trkpt lat="47.96065" lon="-3.92142">
        <ele>159</ele>
        <time>2022-12-07T10:39:55Z</time>
      </trkpt>
      <trkpt lat="47.96065" lon="-3.9215">
        <ele>159.1</ele>
        <time>2022-12-07T10:39:56Z</time>
      </trkpt>
      <trkpt lat="47.96065" lon="-3.92157">
        <ele>159.2</ele>
        <time>2022-12-07T10:39:57Z</time>
      </trkpt>
      <trkpt lat="47.96064" lon="-3.92164">
        <ele>159.2</ele>
        <time>2022-12-07T10:39:58Z</time>
      </trkpt>
      <trkpt lat="47.96064" lon="-3.92172">
        <ele>159.3</ele>
        <time>2022-12-07T10:39:59Z</time>
      </trkpt>
      <trkpt lat="47.96064" lon="-3.92179">
        <ele>159.4</ele>
        <time>2022-12-07T10:40:00Z</time>
      </trkpt>
      <trkpt lat="47.96064" lon="-3.92187">
        <ele>159.5</ele>
        <time>2022-12-07T10:40:01Z</time>
      </trkpt>
      <trkpt lat="47.96064" lon="-3.92194">
        <ele>159.5</ele>
        <time>2022-12-07T10:40:02Z</time>
      </trkpt>
      <trkpt lat="47.96064" lon="-3.92202">
        <ele>159.6</ele>
        <time>2022-12-07T10:40:03Z</time>
      </trkpt>
      <trkpt lat="47.96063" lon="-3.92209">
        <ele>159.6</ele>
        <time>2022-12-07T10:40:04Z</time>
      </trkpt>
      <trkpt lat="47.96063" lon="-3.92217">
        <ele>159.7</ele>
        <time>2022-12-07T10:40:05Z</time>
      </trkpt>
      <trkpt lat="47.96063" lon="-3.92224">
        <ele>159.7</ele>
        <time>2022-12-07T10:40:06Z</time>
      </trkpt>
      <trkpt lat="47.96063" lon="-3.92232">
        <ele>159.8</ele>
        <time>2022-12-07T10:40:07Z</time>
      </trkpt>
      <trkpt lat="47.96062" lon="-3.92239">
        <ele>159.8</ele>
        <time>2022-12-07T10:40:08Z</time>
      </trkpt>
      <trkpt lat="47.96062" lon="-3.92247">
        <ele>159.9</ele>
        <time>2022-12-07T10:40:09Z</time>
      </trkpt>
      <trkpt lat="47.96061" lon="-3.92255">
        <ele>159.9</ele>
        <time>2022-12-07T10:40:10Z</time>
      </trkpt>
      <trkpt lat="47.96061" lon="-3.92263">
        <ele>159.9</ele>
        <time>2022-12-07T10:40:11Z</time>
      </trkpt>
      <trkpt lat="47.9606" lon="-3.92271">
        <ele>160</ele>
        <time>2022-12-07T10:40:12Z</time>
      </trkpt>
      <trkpt lat="47.9606" lon="-3.92279">
        <ele>160</ele>
        <time>2022-12-07T10:40:13Z</time>
      </trkpt>
      <trkpt lat="47.9606" lon="-3.92287">
        <ele>160</ele>
        <time>2022-12-07T10:40:14Z</time>
      </trkpt>
      <trkpt lat="47.96059" lon="-3.92295">
        <ele>160</ele>
        <time>2022-12-07T10:40:15Z</time>
      </trkpt>
      <trkpt lat="47.96059" lon="-3.92303">
        <ele>160</ele>
        <time>2022-12-07T10:40:16Z</time>
      </trkpt>
      <trkpt lat="47.96058" lon="-3.92311">
        <ele>160</ele>
        <time>2022-12-07T10:40:17Z</time>
      </trkpt>
      <trkpt lat="47.96058" lon="-3.92318">
        <ele>160</ele>
        <time>2022-12-07T10:40:18Z</time>
      </trkpt>
      <trkpt lat="47.96057" lon="-3.92326">
        <ele>160</ele>
        <time>2022-12-07T10:40:19Z</time>
      </trkpt>
      <trkpt lat="47.96056" lon="-3.92335">
        <ele>160</ele>
        <time>2022-12-07T10:40:20Z</time>
      </trkpt>
      <trkpt lat="47.96055" lon="-3.92342">
        <ele>160</ele>
        <time>2022-12-07T10:40:21Z</time>
      </trkpt>
      <trkpt lat="47.96055" lon="-3.92351">
        <ele>160</ele>
        <time>2022-12-07T10:40:22Z</time>
      </trkpt>
      <trkpt lat="47.96054" lon="-3.92359">
        <ele>160</ele>
        <time>2022-12-07T10:40:23Z</time>
      </trkpt>
      <trkpt lat="47.96053" lon="-3.92367">
        <ele>159.9</ele>
        <time>2022-12-07T10:40:24Z</time>
      </trkpt>
      <trkpt lat="47.96053" lon="-3.92376">
        <ele>159.9</ele>
        <time>2022-12-07T10:40:25Z</time>
      </trkpt>
      <trkpt lat="47.96052" lon="-3.92384">
        <ele>159.8</ele>
        <time>2022-12-07T10:40:26Z</time>
      </trkpt>
      <trkpt lat="47.96051" lon="-3.92393">
        <ele>159.7</ele>
        <time>2022-12-07T10:40:27Z</time>
      </trkpt>
      <trkpt lat="47.96051" lon="-3.92401">
        <ele>159.7</ele>
        <time>2022-12-07T10:40:28Z</time>
      </trkpt>
      <trkpt lat="47.9605" lon="-3.9241">
        <ele>159.6</ele>
        <time>2022-12-07T10:40:29Z</time>
      </trkpt>
      <trkpt lat="47.96049" lon="-3.92419">
        <ele>159.6</ele>
        <time>2022-12-07T10:40:30Z</time>
      </trkpt>
      <trkpt lat="47.96049" lon="-3.92428">
        <ele>159.5</ele>
        <time>2022-12-07T10:40:31Z</time>
      </trkpt>
      <trkpt lat="47.96048" lon="-3.92437">
        <ele>159.5</ele>
        <time>2022-12-07T10:40:32Z</time>
      </trkpt>
      <trkpt lat="47.96048" lon="-3.92446">
        <ele>159.4</ele>
        <time>2022-12-07T10:40:33Z</time>
      </trkpt>
      <trkpt lat="47.96047" lon="-3.92455">
        <ele>159.4</ele>
        <time>2022-12-07T10:40:34Z</time>
      </trkpt>
      <trkpt lat="47.96047" lon="-3.92464">
        <ele>159.3</ele>
        <time>2022-12-07T10:40:35Z</time>
      </trkpt>
      <trkpt lat="47.96046" lon="-3.92474">
        <ele>159.3</ele>
        <time>2022-12-07T10:40:36Z</time>
      </trkpt>
      <trkpt lat="47.96045" lon="-3.92483">
        <ele>159.2</ele>
        <time>2022-12-07T10:40:37Z</time>
      </trkpt>
      <trkpt lat="47.96045" lon="-3.92492">
        <ele>159.1</ele>
        <time>2022-12-07T10:40:38Z</time>
      </trkpt>
      <trkpt lat="47.96044" lon="-3.92502">
        <ele>159.1</ele>
        <time>2022-12-07T10:40:39Z</time>
      </trkpt>
      <trkpt lat="47.96043" lon="-3.92511">
        <ele>159</ele>
        <time>2022-12-07T10:40:40Z</time>
      </trkpt>
      <trkpt lat="47.96042" lon="-3.9252">
        <ele>158.9</ele>
        <time>2022-12-07T10:40:41Z</time>
      </trkpt>
      <trkpt lat="47.96041" lon="-3.9253">
        <ele>158.9</ele>
        <time>2022-12-07T10:40:42Z</time>
      </trkpt>
      <trkpt lat="47.9604" lon="-3.92539">
        <ele>158.8</ele>
        <time>2022-12-07T10:40:43Z</time>
      </trkpt>
      <trkpt lat="47.96038" lon="-3.92548">
        <ele>158.7</ele>
        <time>2022-12-07T10:40:44Z</time>
      </trkpt>
      <trkpt lat="47.96036" lon="-3.92557">
        <ele>158.6</ele>
        <time>2022-12-07T10:40:45Z</time>
      </trkpt>
      <trkpt lat="47.96033" lon="-3.92566">
        <ele>158.5</ele>
        <time>2022-12-07T10:40:46Z</time>
      </trkpt>
      <trkpt lat="47.96031" lon="-3.92575">
        <ele>158.5</ele>
        <time>2022-12-07T10:40:47Z</time>
      </trkpt>
      <trkpt lat="47.96028" lon="-3.92584">
        <ele>158.4</ele>
        <time>2022-12-07T10:40:48Z</time>
      </trkpt>
      <trkpt lat="47.96026" lon="-3.92594">
        <ele>158.3</ele>
        <time>2022-12-07T10:40:49Z</time>
      </trkpt>
      <trkpt lat="47.96024" lon="-3.92603">
        <ele>158.2</ele>
        <time>2022-12-07T10:40:50Z</time>
      </trkpt>
      <trkpt lat="47.96022" lon="-3.92613">
        <ele>158.1</ele>
        <time>2022-12-07T10:40:51Z</time>
      </trkpt>
      <trkpt lat="47.9602" lon="-3.92623">
        <ele>157.9</ele>
        <time>2022-12-07T10:40:52Z</time>
      </trkpt>
      <trkpt lat="47.96017" lon="-3.92632">
        <ele>157.8</ele>
        <time>2022-12-07T10:40:53Z</time>
      </trkpt>
      <trkpt lat="47.96014" lon="-3.92641">
        <ele>157.6</ele>
        <time>2022-12-07T10:40:54Z</time>
      </trkpt>
      <trkpt lat="47.96012" lon="-3.92651">
        <ele>157.5</ele>
        <time>2022-12-07T10:40:55Z</time>
      </trkpt>
      <trkpt lat="47.9601" lon="-3.9266">
        <ele>157.3</ele>
        <time>2022-12-07T10:40:56Z</time>
      </trkpt>
      <trkpt lat="47.96007" lon="-3.9267">
        <ele>157.2</ele>
        <time>2022-12-07T10:40:57Z</time>
      </trkpt>
      <trkpt lat="47.96005" lon="-3.92679">
        <ele>157</ele>
        <time>2022-12-07T10:40:58Z</time>
      </trkpt>
      <trkpt lat="47.96001" lon="-3.92688">
        <ele>156.9</ele>
        <time>2022-12-07T10:40:59Z</time>
      </trkpt>
      <trkpt lat="47.95998" lon="-3.92697">
        <ele>156.7</ele>
        <time>2022-12-07T10:41:00Z</time>
      </trkpt>
      <trkpt lat="47.95994" lon="-3.92706">
        <ele>156.5</ele>
        <time>2022-12-07T10:41:01Z</time>
      </trkpt>
      <trkpt lat="47.95991" lon="-3.92714">
        <ele>156.4</ele>
        <time>2022-12-07T10:41:02Z</time>
      </trkpt>
      <trkpt lat="47.95987" lon="-3.92722">
        <ele>156.2</ele>
        <time>2022-12-07T10:41:03Z</time>
      </trkpt>
      <trkpt lat="47.95983" lon="-3.9273">
        <ele>156.1</ele>
        <time>2022-12-07T10:41:04Z</time>
      </trkpt>
      <trkpt lat="47.95978" lon="-3.92738">
        <ele>155.9</ele>
        <time>2022-12-07T10:41:05Z</time>
      </trkpt>
      <trkpt lat="47.95974" lon="-3.92746">
        <ele>155.7</ele>
        <time>2022-12-07T10:41:06Z</time>
      </trkpt>
      <trkpt lat="47.9597" lon="-3.92754">
        <ele>155.5</ele>
        <time>2022-12-07T10:41:07Z</time>
      </trkpt>
      <trkpt lat="47.95967" lon="-3.92763">
        <ele>155.4</ele>
        <time>2022-12-07T10:41:08Z</time>
      </trkpt>
      <trkpt lat="47.95963" lon="-3.92772">
        <ele>155.2</ele>
        <time>2022-12-07T10:41:09Z</time>
      </trkpt>
      <trkpt lat="47.95959" lon="-3.92781">
        <ele>155</ele>
        <time>2022-12-07T10:41:10Z</time>
      </trkpt>
      <trkpt lat="47.95956" lon="-3.9279">
        <ele>154.8</ele>
        <time>2022-12-07T10:41:11Z</time>
      </trkpt>
      <trkpt lat="47.95954" lon="-3.92799">
        <ele>154.7</ele>
        <time>2022-12-07T10:41:12Z</time>
      </trkpt>
      <trkpt lat="47.95952" lon="-3.92809">
        <ele>154.5</ele>
        <time>2022-12-07T10:41:13Z</time>
      </trkpt>
      <trkpt lat="47.95949" lon="-3.92819">
        <ele>154.3</ele>
        <time>2022-12-07T10:41:14Z</time>
      </trkpt>
      <trkpt lat="47.95946" lon="-3.92829">
        <ele>154.1</ele>
        <time>2022-12-07T10:41:15Z</time>
      </trkpt>
      <trkpt lat="47.95944" lon="-3.92839">
        <ele>154</ele>
        <time>2022-12-07T10:41:16Z</time>
      </trkpt>
      <trkpt lat="47.95942" lon="-3.9285">
        <ele>153.9</ele>
        <time>2022-12-07T10:41:17Z</time>
      </trkpt>
      <trkpt lat="47.9594" lon="-3.9286">
        <ele>153.7</ele>
        <time>2022-12-07T10:41:18Z</time>
      </trkpt>
      <trkpt lat="47.95939" lon="-3.92871">
        <ele>153.6</ele>
        <time>2022-12-07T10:41:19Z</time>
      </trkpt>
      <trkpt lat="47.95937" lon="-3.92881">
        <ele>153.4</ele>
        <time>2022-12-07T10:41:20Z</time>
      </trkpt>
      <trkpt lat="47.95935" lon="-3.92892">
        <ele>153.3</ele>
        <time>2022-12-07T10:41:21Z</time>
      </trkpt>
      <trkpt lat="47.95933" lon="-3.92902">
        <ele>153.1</ele>
        <time>2022-12-07T10:41:22Z</time>
      </trkpt>
      <trkpt lat="47.95931" lon="-3.92913">
        <ele>152.9</ele>
        <time>2022-12-07T10:41:23Z</time>
      </trkpt>
      <trkpt lat="47.95929" lon="-3.92924">
        <ele>152.7</ele>
        <time>2022-12-07T10:41:24Z</time>
      </trkpt>
      <trkpt lat="47.95927" lon="-3.92935">
        <ele>152.5</ele>
        <time>2022-12-07T10:41:25Z</time>
      </trkpt>
      <trkpt lat="47.95926" lon="-3.92945">
        <ele>152.4</ele>
        <time>2022-12-07T10:41:26Z</time>
      </trkpt>
      <trkpt lat="47.95925" lon="-3.92954">
        <ele>152.2</ele>
        <time>2022-12-07T10:41:27Z</time>
      </trkpt>
      <trkpt lat="47.95924" lon="-3.92961">
        <ele>152.1</ele>
        <time>2022-12-07T10:41:28Z</time>
      </trkpt>
      <trkpt lat="47.95923" lon="-3.92966">
        <ele>152</ele>
        <time>2022-12-07T10:41:29Z</time>
      </trkpt>
      <trkpt lat="47.95923" lon="-3.92971">
        <ele>151.9</ele>
        <time>2022-12-07T10:41:30Z</time>
      </trkpt>
      <trkpt lat="47.95921" lon="-3.92976">
        <ele>151.7</ele>
        <time>2022-12-07T10:41:31Z</time>
      </trkpt>
      <trkpt lat="47.95918" lon="-3.92979">
        <ele>151.7</ele>
        <time>2022-12-07T10:41:32Z</time>
      </trkpt>
      <trkpt lat="47.95913" lon="-3.92982">
        <ele>151.5</ele>
        <time>2022-12-07T10:41:33Z</time>
      </trkpt>
      <trkpt lat="47.95908" lon="-3.92982">
        <ele>151.3</ele>
        <time>2022-12-07T10:41:34Z</time>
      </trkpt>
      <trkpt lat="47.95903" lon="-3.92979">
        <ele>151.2</ele>
        <time>2022-12-07T10:41:35Z</time>
      </trkpt>
      <trkpt lat="47.95901" lon="-3.92976">
        <ele>151.2</ele>
        <time>2022-12-07T10:41:36Z</time>
      </trkpt>
      <trkpt lat="47.95904" lon="-3.92974">
        <ele>151.1</ele>
        <time>2022-12-07T10:41:37Z</time>
      </trkpt>
      <trkpt lat="47.95905" lon="-3.92974">
        <ele>151.1</ele>
        <time>2022-12-07T10:41:38Z</time>
      </trkpt>
      <trkpt lat="47.95907" lon="-3.92977">
        <ele>151.1</ele>
        <time>2022-12-07T10:41:39Z</time>
      </trkpt>
      <trkpt lat="47.95908" lon="-3.92981">
        <ele>151</ele>
        <time>2022-12-07T10:41:40Z</time>
      </trkpt>
      <trkpt lat="47.95909" lon="-3.92987">
        <ele>151</ele>
        <time>2022-12-07T10:41:41Z</time>
      </trkpt>
      <trkpt lat="47.9591" lon="-3.92993">
        <ele>150.9</ele>
        <time>2022-12-07T10:41:42Z</time>
      </trkpt>
      <trkpt lat="47.95907" lon="-3.93001">
        <ele>150.8</ele>
        <time>2022-12-07T10:41:43Z</time>
      </trkpt>
      <trkpt lat="47.95904" lon="-3.93008">
        <ele>150.8</ele>
        <time>2022-12-07T10:41:44Z</time>
      </trkpt>
      <trkpt lat="47.95902" lon="-3.93015">
        <ele>150.7</ele>
        <time>2022-12-07T10:41:45Z</time>
      </trkpt>
      <trkpt lat="47.959" lon="-3.93023">
        <ele>150.6</ele>
        <time>2022-12-07T10:41:46Z</time>
      </trkpt>
      <trkpt lat="47.95898" lon="-3.9303">
        <ele>150.6</ele>
        <time>2022-12-07T10:41:47Z</time>
      </trkpt>
      <trkpt lat="47.95897" lon="-3.93038">
        <ele>150.6</ele>
        <time>2022-12-07T10:41:48Z</time>
      </trkpt>
      <trkpt lat="47.95895" lon="-3.93045">
        <ele>150.5</ele>
        <time>2022-12-07T10:41:49Z</time>
      </trkpt>
      <trkpt lat="47.95892" lon="-3.93053">
        <ele>150.5</ele>
        <time>2022-12-07T10:41:50Z</time>
      </trkpt>
      <trkpt lat="47.95889" lon="-3.9306">
        <ele>150.5</ele>
        <time>2022-12-07T10:41:51Z</time>
      </trkpt>
      <trkpt lat="47.95886" lon="-3.93067">
        <ele>150.5</ele>
        <time>2022-12-07T10:41:52Z</time>
      </trkpt>
      <trkpt lat="47.95882" lon="-3.93074">
        <ele>150.5</ele>
        <time>2022-12-07T10:41:53Z</time>
      </trkpt>
      <trkpt lat="47.9588" lon="-3.93081">
        <ele>150.5</ele>
        <time>2022-12-07T10:41:54Z</time>
      </trkpt>
      <trkpt lat="47.95876" lon="-3.93088">
        <ele>150.5</ele>
        <time>2022-12-07T10:41:55Z</time>
      </trkpt>
      <trkpt lat="47.95872" lon="-3.93095">
        <ele>150.4</ele>
        <time>2022-12-07T10:41:56Z</time>
      </trkpt>
      <trkpt lat="47.95869" lon="-3.93099">
        <ele>150.4</ele>
        <time>2022-12-07T10:41:57Z</time>
      </trkpt>
      <trkpt lat="47.95866" lon="-3.93101">
        <ele>150.4</ele>
        <time>2022-12-07T10:41:58Z</time>
      </trkpt>
      <trkpt lat="47.95865" lon="-3.93101">
        <ele>150.4</ele>
        <time>2022-12-07T10:41:59Z</time>
      </trkpt>
      <trkpt lat="47.95863" lon="-3.93101">
        <ele>150.4</ele>
        <time>2022-12-07T10:42:00Z</time>
      </trkpt>
      <trkpt lat="47.95862" lon="-3.93101">
        <ele>150.4</ele>
        <time>2022-12-07T10:42:01Z</time>
      </trkpt>
      <trkpt lat="47.95862" lon="-3.93101">
        <ele>150.4</ele>
        <time>2022-12-07T10:42:02Z</time>
      </trkpt>
      <trkpt lat="47.95862" lon="-3.93101">
        <ele>150.4</ele>
        <time>2022-12-07T10:42:03Z</time>
      </trkpt>
      <trkpt lat="47.95862" lon="-3.93101">
        <ele>150.4</ele>
        <time>2022-12-07T10:42:04Z</time>
      </trkpt>
      <trkpt lat="47.95861" lon="-3.931">
        <ele>150.4</ele>
        <time>2022-12-07T10:42:05Z</time>
      </trkpt>
      <trkpt lat="47.95861" lon="-3.931">
        <ele>150.4</ele>
        <time>2022-12-07T10:42:07Z</time>
      </trkpt>
      <trkpt lat="47.95861" lon="-3.93101">
        <ele>150.4</ele>
        <time>2022-12-07T10:42:08Z</time>
      </trkpt>
      <trkpt lat="47.95861" lon="-3.93101">
        <ele>150.4</ele>
        <time>2022-12-07T10:42:09Z</time>
      </trkpt>
      <trkpt lat="47.95861" lon="-3.93101">
        <ele>150.4</ele>
        <time>2022-12-07T10:42:11Z</time>
      </trkpt>
      <trkpt lat="47.95861" lon="-3.93101">
        <ele>150.4</ele>
        <time>2022-12-07T10:42:12Z</time>
      </trkpt>
      <trkpt lat="47.95862" lon="-3.93099">
        <ele>150.4</ele>
        <time>2022-12-07T10:42:13Z</time>
      </trkpt>
      <trkpt lat="47.95862" lon="-3.93099">
        <ele>150.4</ele>
        <time>2022-12-07T10:42:14Z</time>
      </trkpt>
      <trkpt lat="47.95863" lon="-3.93098">
        <ele>150.4</ele>
        <time>2022-12-07T10:42:15Z</time>
      </trkpt>
      <trkpt lat="47.95864" lon="-3.93099">
        <ele>150.4</ele>
        <time>2022-12-07T10:42:16Z</time>
      </trkpt>
      <trkpt lat="47.95864" lon="-3.93099">
        <ele>150.4</ele>
        <time>2022-12-07T10:42:17Z</time>
      </trkpt>
      <trkpt lat="47.95864" lon="-3.93099">
        <ele>150.4</ele>
        <time>2022-12-07T10:42:18Z</time>
      </trkpt>
      <trkpt lat="47.95864" lon="-3.93099">
        <ele>150.4</ele>
        <time>2022-12-07T10:42:19Z</time>
      </trkpt>
      <trkpt lat="47.95864" lon="-3.93099">
        <ele>150.4</ele>
        <time>2022-12-07T10:42:20Z</time>
      </trkpt>
      <trkpt lat="47.95864" lon="-3.93099">
        <ele>150.4</ele>
        <time>2022-12-07T10:42:21Z</time>
      </trkpt>
      <trkpt lat="47.95864" lon="-3.93099">
        <ele>150.4</ele>
        <time>2022-12-07T10:42:22Z</time>
      </trkpt>
      <trkpt lat="47.95864" lon="-3.93099">
        <ele>150.4</ele>
        <time>2022-12-07T10:42:23Z</time>
      </trkpt>
      <trkpt lat="47.95864" lon="-3.93098">
        <ele>150.4</ele>
        <time>2022-12-07T10:42:24Z</time>
      </trkpt>
      <trkpt lat="47.95864" lon="-3.93098">
        <ele>150.4</ele>
        <time>2022-12-07T10:42:25Z</time>
      </trkpt>
      <trkpt lat="47.95864" lon="-3.93098">
        <ele>150.4</ele>
        <time>2022-12-07T10:42:26Z</time>
      </trkpt>
      <trkpt lat="47.95864" lon="-3.93097">
        <ele>150.4</ele>
        <time>2022-12-07T10:42:27Z</time>
      </trkpt>
      <trkpt lat="47.95864" lon="-3.93096">
        <ele>150.4</ele>
        <time>2022-12-07T10:42:28Z</time>
      </trkpt>
      <trkpt lat="47.95865" lon="-3.93096">
        <ele>150.4</ele>
        <time>2022-12-07T10:42:29Z</time>
      </trkpt>
      <trkpt lat="47.95866" lon="-3.93096">
        <ele>150.4</ele>
        <time>2022-12-07T10:42:30Z</time>
      </trkpt>
      <trkpt lat="47.95867" lon="-3.93096">
        <ele>150.4</ele>
        <time>2022-12-07T10:42:31Z</time>
      </trkpt>
      <trkpt lat="47.95869" lon="-3.93096">
        <ele>150.4</ele>
        <time>2022-12-07T10:42:32Z</time>
      </trkpt>
      <trkpt lat="47.9587" lon="-3.93094">
        <ele>150.4</ele>
        <time>2022-12-07T10:42:33Z</time>
      </trkpt>
      <trkpt lat="47.9587" lon="-3.93095">
        <ele>150.4</ele>
        <time>2022-12-07T10:42:34Z</time>
      </trkpt>
      <trkpt lat="47.95869" lon="-3.93095">
        <ele>150.4</ele>
        <time>2022-12-07T10:42:35Z</time>
      </trkpt>
      <trkpt lat="47.95868" lon="-3.93095">
        <ele>150.4</ele>
        <time>2022-12-07T10:42:36Z</time>
      </trkpt>
      <trkpt lat="47.95867" lon="-3.93095">
        <ele>150.4</ele>
        <time>2022-12-07T10:42:37Z</time>
      </trkpt>
      <trkpt lat="47.95865" lon="-3.93096">
        <ele>150.4</ele>
        <time>2022-12-07T10:42:38Z</time>
      </trkpt>
      <trkpt lat="47.95865" lon="-3.93096">
        <ele>150.4</ele>
        <time>2022-12-07T10:42:39Z</time>
      </trkpt>
      <trkpt lat="47.95864" lon="-3.93096">
        <ele>150.4</ele>
        <time>2022-12-07T10:42:40Z</time>
      </trkpt>
      <trkpt lat="47.95864" lon="-3.93097">
        <ele>150.4</ele>
        <time>2022-12-07T10:42:41Z</time>
      </trkpt>
      <trkpt lat="47.95864" lon="-3.93097">
        <ele>150.4</ele>
        <time>2022-12-07T10:42:42Z</time>
      </trkpt>
      <trkpt lat="47.95863" lon="-3.93097">
        <ele>150.4</ele>
        <time>2022-12-07T10:42:43Z</time>
      </trkpt>
      <trkpt lat="47.95863" lon="-3.93098">
        <ele>150.4</ele>
        <time>2022-12-07T10:42:44Z</time>
      </trkpt>
      <trkpt lat="47.95863" lon="-3.93098">
        <ele>150.4</ele>
        <time>2022-12-07T10:42:45Z</time>
      </trkpt>
      <trkpt lat="47.95863" lon="-3.93098">
        <ele>150.4</ele>
        <time>2022-12-07T10:42:46Z</time>
      </trkpt>
      <trkpt lat="47.95864" lon="-3.93098">
        <ele>150.4</ele>
        <time>2022-12-07T10:42:47Z</time>
      </trkpt>
      <trkpt lat="47.95864" lon="-3.93098">
        <ele>150.4</ele>
        <time>2022-12-07T10:42:48Z</time>
      </trkpt>
      <trkpt lat="47.95863" lon="-3.93098">
        <ele>150.4</ele>
        <time>2022-12-07T10:42:49Z</time>
      </trkpt>
      <trkpt lat="47.95864" lon="-3.93098">
        <ele>150.4</ele>
        <time>2022-12-07T10:42:50Z</time>
      </trkpt>
      <trkpt lat="47.95864" lon="-3.93097">
        <ele>150.4</ele>
        <time>2022-12-07T10:42:51Z</time>
      </trkpt>
      <trkpt lat="47.95866" lon="-3.93096">
        <ele>150.4</ele>
        <time>2022-12-07T10:42:52Z</time>
      </trkpt>
      <trkpt lat="47.95867" lon="-3.93096">
        <ele>150.4</ele>
        <time>2022-12-07T10:42:53Z</time>
      </trkpt>
      <trkpt lat="47.95868" lon="-3.93095">
        <ele>150.4</ele>
        <time>2022-12-07T10:42:54Z</time>
      </trkpt>
      <trkpt lat="47.95868" lon="-3.93095">
        <ele>150.4</ele>
        <time>2022-12-07T10:42:55Z</time>
      </trkpt>
      <trkpt lat="47.95869" lon="-3.93095">
        <ele>150.4</ele>
        <time>2022-12-07T10:42:56Z</time>
      </trkpt>
      <trkpt lat="47.95869" lon="-3.93095">
        <ele>150.4</ele>
        <time>2022-12-07T10:42:57Z</time>
      </trkpt>
      <trkpt lat="47.95869" lon="-3.93096">
        <ele>150.4</ele>
        <time>2022-12-07T10:42:58Z</time>
      </trkpt>
      <trkpt lat="47.95869" lon="-3.93096">
        <ele>150.4</ele>
        <time>2022-12-07T10:42:59Z</time>
      </trkpt>
      <trkpt lat="47.95869" lon="-3.93096">
        <ele>150.4</ele>
        <time>2022-12-07T10:43:00Z</time>
      </trkpt>
      <trkpt lat="47.95869" lon="-3.93097">
        <ele>150.4</ele>
        <time>2022-12-07T10:43:01Z</time>
      </trkpt>
      <trkpt lat="47.95868" lon="-3.93097">
        <ele>150.4</ele>
        <time>2022-12-07T10:43:02Z</time>
      </trkpt>
      <trkpt lat="47.95868" lon="-3.93097">
        <ele>150.4</ele>
        <time>2022-12-07T10:43:03Z</time>
      </trkpt>
      <trkpt lat="47.95867" lon="-3.93098">
        <ele>150.4</ele>
        <time>2022-12-07T10:43:04Z</time>
      </trkpt>
      <trkpt lat="47.95867" lon="-3.93098">
        <ele>150.4</ele>
        <time>2022-12-07T10:43:05Z</time>
      </trkpt>
      <trkpt lat="47.95867" lon="-3.93098">
        <ele>150.4</ele>
        <time>2022-12-07T10:43:06Z</time>
      </trkpt>
      <trkpt lat="47.95867" lon="-3.93098">
        <ele>150.4</ele>
        <time>2022-12-07T10:43:07Z</time>
      </trkpt>
      <trkpt lat="47.95867" lon="-3.93098">
        <ele>150.4</ele>
        <time>2022-12-07T10:43:08Z</time>
      </trkpt>
      <trkpt lat="47.95867" lon="-3.93098">
        <ele>150.4</ele>
        <time>2022-12-07T10:43:09Z</time>
      </trkpt>
      <trkpt lat="47.95867" lon="-3.93098">
        <ele>150.4</ele>
        <time>2022-12-07T10:43:10Z</time>
      </trkpt>
      <trkpt lat="47.95867" lon="-3.93098">
        <ele>150.4</ele>
        <time>2022-12-07T10:43:11Z</time>
      </trkpt>
      <trkpt lat="47.95868" lon="-3.93098">
        <ele>150.4</ele>
        <time>2022-12-07T10:43:12Z</time>
      </trkpt>
      <trkpt lat="47.95864" lon="-3.93099">
        <ele>150.3</ele>
        <time>2022-12-07T10:43:23Z</time>
      </trkpt>
      <trkpt lat="47.95863" lon="-3.931">
        <ele>150.3</ele>
        <time>2022-12-07T10:43:24Z</time>
      </trkpt>
      <trkpt lat="47.95863" lon="-3.93101">
        <ele>150.3</ele>
        <time>2022-12-07T10:43:25Z</time>
      </trkpt>
      <trkpt lat="47.95862" lon="-3.93102">
        <ele>150.3</ele>
        <time>2022-12-07T10:43:26Z</time>
      </trkpt>
      <trkpt lat="47.95862" lon="-3.93102">
        <ele>150.3</ele>
        <time>2022-12-07T10:43:27Z</time>
      </trkpt>
      <trkpt lat="47.95862" lon="-3.93102">
        <ele>150.3</ele>
        <time>2022-12-07T10:43:28Z</time>
      </trkpt>
      <trkpt lat="47.95862" lon="-3.93102">
        <ele>150.3</ele>
        <time>2022-12-07T10:43:29Z</time>
      </trkpt>
      <trkpt lat="47.95863" lon="-3.93102">
        <ele>150.3</ele>
        <time>2022-12-07T10:43:30Z</time>
      </trkpt>
      <trkpt lat="47.95863" lon="-3.93102">
        <ele>150.3</ele>
        <time>2022-12-07T10:43:31Z</time>
      </trkpt>
      <trkpt lat="47.95863" lon="-3.93101">
        <ele>150.3</ele>
        <time>2022-12-07T10:43:32Z</time>
      </trkpt>
      <trkpt lat="47.95864" lon="-3.93101">
        <ele>150.3</ele>
        <time>2022-12-07T10:43:33Z</time>
      </trkpt>
      <trkpt lat="47.95864" lon="-3.93101">
        <ele>150.3</ele>
        <time>2022-12-07T10:43:34Z</time>
      </trkpt>
      <trkpt lat="47.95864" lon="-3.93101">
        <ele>150.3</ele>
        <time>2022-12-07T10:43:35Z</time>
      </trkpt>
      <trkpt lat="47.95865" lon="-3.93101">
        <ele>150.3</ele>
        <time>2022-12-07T10:43:36Z</time>
      </trkpt>
      <trkpt lat="47.95865" lon="-3.93101">
        <ele>150.3</ele>
        <time>2022-12-07T10:43:37Z</time>
      </trkpt>
      <trkpt lat="47.95865" lon="-3.931">
        <ele>150.3</ele>
        <time>2022-12-07T10:43:38Z</time>
      </trkpt>
      <trkpt lat="47.95865" lon="-3.931">
        <ele>150.3</ele>
        <time>2022-12-07T10:43:39Z</time>
      </trkpt>
      <trkpt lat="47.95866" lon="-3.931">
        <ele>150.3</ele>
        <time>2022-12-07T10:43:40Z</time>
      </trkpt>
      <trkpt lat="47.95866" lon="-3.931">
        <ele>150.3</ele>
        <time>2022-12-07T10:43:41Z</time>
      </trkpt>
      <trkpt lat="47.95866" lon="-3.931">
        <ele>150.3</ele>
        <time>2022-12-07T10:43:42Z</time>
      </trkpt>
      <trkpt lat="47.95867" lon="-3.931">
        <ele>150.3</ele>
        <time>2022-12-07T10:43:43Z</time>
      </trkpt>
      <trkpt lat="47.95867" lon="-3.93099">
        <ele>150.3</ele>
        <time>2022-12-07T10:43:44Z</time>
      </trkpt>
      <trkpt lat="47.95867" lon="-3.93099">
        <ele>150.3</ele>
        <time>2022-12-07T10:43:45Z</time>
      </trkpt>
      <trkpt lat="47.95868" lon="-3.93099">
        <ele>150.3</ele>
        <time>2022-12-07T10:43:46Z</time>
      </trkpt>
      <trkpt lat="47.95868" lon="-3.93099">
        <ele>150.3</ele>
        <time>2022-12-07T10:43:47Z</time>
      </trkpt>
      <trkpt lat="47.95868" lon="-3.93099">
        <ele>150.3</ele>
        <time>2022-12-07T10:43:48Z</time>
      </trkpt>
      <trkpt lat="47.95868" lon="-3.93098">
        <ele>150.3</ele>
        <time>2022-12-07T10:43:54Z</time>
      </trkpt>
      <trkpt lat="47.95869" lon="-3.93098">
        <ele>150.3</ele>
        <time>2022-12-07T10:43:56Z</time>
      </trkpt>
      <trkpt lat="47.95869" lon="-3.93098">
        <ele>150.3</ele>
        <time>2022-12-07T10:43:57Z</time>
      </trkpt>
      <trkpt lat="47.95873" lon="-3.93096">
        <ele>150.3</ele>
        <time>2022-12-07T10:43:58Z</time>
      </trkpt>
      <trkpt lat="47.95877" lon="-3.93091">
        <ele>150.4</ele>
        <time>2022-12-07T10:43:59Z</time>
      </trkpt>
      <trkpt lat="47.9588" lon="-3.93086">
        <ele>150.4</ele>
        <time>2022-12-07T10:44:00Z</time>
      </trkpt>
      <trkpt lat="47.95881" lon="-3.9308">
        <ele>150.5</ele>
        <time>2022-12-07T10:44:01Z</time>
      </trkpt>
      <trkpt lat="47.95883" lon="-3.93068">
        <ele>150.5</ele>
        <time>2022-12-07T10:44:03Z</time>
      </trkpt>
      <trkpt lat="47.95886" lon="-3.93058">
        <ele>150.5</ele>
        <time>2022-12-07T10:44:04Z</time>
      </trkpt>
      <trkpt lat="47.95888" lon="-3.93051">
        <ele>150.5</ele>
        <time>2022-12-07T10:44:05Z</time>
      </trkpt>
      <trkpt lat="47.9589" lon="-3.93045">
        <ele>150.6</ele>
        <time>2022-12-07T10:44:06Z</time>
      </trkpt>
      <trkpt lat="47.95892" lon="-3.93038">
        <ele>150.6</ele>
        <time>2022-12-07T10:44:07Z</time>
      </trkpt>
      <trkpt lat="47.95893" lon="-3.93031">
        <ele>150.6</ele>
        <time>2022-12-07T10:44:08Z</time>
      </trkpt>
      <trkpt lat="47.95895" lon="-3.93024">
        <ele>150.7</ele>
        <time>2022-12-07T10:44:09Z</time>
      </trkpt>
      <trkpt lat="47.95897" lon="-3.93017">
        <ele>150.8</ele>
        <time>2022-12-07T10:44:10Z</time>
      </trkpt>
      <trkpt lat="47.95898" lon="-3.93011">
        <ele>150.8</ele>
        <time>2022-12-07T10:44:11Z</time>
      </trkpt>
      <trkpt lat="47.959" lon="-3.93005">
        <ele>150.9</ele>
        <time>2022-12-07T10:44:12Z</time>
      </trkpt>
      <trkpt lat="47.95901" lon="-3.92999">
        <ele>151</ele>
        <time>2022-12-07T10:44:13Z</time>
      </trkpt>
      <trkpt lat="47.95902" lon="-3.92992">
        <ele>151.1</ele>
        <time>2022-12-07T10:44:14Z</time>
      </trkpt>
      <trkpt lat="47.95903" lon="-3.92985">
        <ele>151.8</ele>
        <time>2022-12-07T10:44:15Z</time>
      </trkpt>
      <trkpt lat="47.95901" lon="-3.92978">
        <ele>151.9</ele>
        <time>2022-12-07T10:44:16Z</time>
      </trkpt>
      <trkpt lat="47.95898" lon="-3.92972">
        <ele>152.1</ele>
        <time>2022-12-07T10:44:17Z</time>
      </trkpt>
      <trkpt lat="47.95894" lon="-3.92968">
        <ele>152.2</ele>
        <time>2022-12-07T10:44:18Z</time>
      </trkpt>
      <trkpt lat="47.9589" lon="-3.92964">
        <ele>152.3</ele>
        <time>2022-12-07T10:44:19Z</time>
      </trkpt>
      <trkpt lat="47.95886" lon="-3.9296">
        <ele>152.3</ele>
        <time>2022-12-07T10:44:20Z</time>
      </trkpt>
      <trkpt lat="47.95882" lon="-3.92955">
        <ele>152.4</ele>
        <time>2022-12-07T10:44:21Z</time>
      </trkpt>
      <trkpt lat="47.95879" lon="-3.9295">
        <ele>152.5</ele>
        <time>2022-12-07T10:44:22Z</time>
      </trkpt>
      <trkpt lat="47.95876" lon="-3.92945">
        <ele>152.5</ele>
        <time>2022-12-07T10:44:23Z</time>
      </trkpt>
      <trkpt lat="47.95873" lon="-3.92942">
        <ele>152.5</ele>
        <time>2022-12-07T10:44:24Z</time>
      </trkpt>
      <trkpt lat="47.9587" lon="-3.92938">
        <ele>152.5</ele>
        <time>2022-12-07T10:44:25Z</time>
      </trkpt>
      <trkpt lat="47.95867" lon="-3.92935">
        <ele>152.5</ele>
        <time>2022-12-07T10:44:26Z</time>
      </trkpt>
      <trkpt lat="47.95862" lon="-3.92929">
        <ele>152.5</ele>
        <time>2022-12-07T10:44:27Z</time>
      </trkpt>
      <trkpt lat="47.95857" lon="-3.92924">
        <ele>152.5</ele>
        <time>2022-12-07T10:44:28Z</time>
      </trkpt>
      <trkpt lat="47.95853" lon="-3.92919">
        <ele>152.5</ele>
        <time>2022-12-07T10:44:29Z</time>
      </trkpt>
      <trkpt lat="47.95849" lon="-3.92913">
        <ele>152.5</ele>
        <time>2022-12-07T10:44:30Z</time>
      </trkpt>
      <trkpt lat="47.95845" lon="-3.92907">
        <ele>152.5</ele>
        <time>2022-12-07T10:44:31Z</time>
      </trkpt>
      <trkpt lat="47.9584" lon="-3.92902">
        <ele>152.5</ele>
        <time>2022-12-07T10:44:32Z</time>
      </trkpt>
      <trkpt lat="47.95836" lon="-3.92896">
        <ele>152.4</ele>
        <time>2022-12-07T10:44:33Z</time>
      </trkpt>
      <trkpt lat="47.95832" lon="-3.92891">
        <ele>152.4</ele>
        <time>2022-12-07T10:44:34Z</time>
      </trkpt>
      <trkpt lat="47.95828" lon="-3.92885">
        <ele>152.4</ele>
        <time>2022-12-07T10:44:35Z</time>
      </trkpt>
      <trkpt lat="47.95824" lon="-3.9288">
        <ele>152.3</ele>
        <time>2022-12-07T10:44:36Z</time>
      </trkpt>
      <trkpt lat="47.9582" lon="-3.92874">
        <ele>152.3</ele>
        <time>2022-12-07T10:44:37Z</time>
      </trkpt>
      <trkpt lat="47.95815" lon="-3.92869">
        <ele>152.2</ele>
        <time>2022-12-07T10:44:38Z</time>
      </trkpt>
      <trkpt lat="47.9581" lon="-3.92864">
        <ele>152.1</ele>
        <time>2022-12-07T10:44:39Z</time>
      </trkpt>
      <trkpt lat="47.95805" lon="-3.92859">
        <ele>152</ele>
        <time>2022-12-07T10:44:40Z</time>
      </trkpt>
      <trkpt lat="47.958" lon="-3.92854">
        <ele>151.9</ele>
        <time>2022-12-07T10:44:41Z</time>
      </trkpt>
      <trkpt lat="47.95795" lon="-3.92849">
        <ele>151.8</ele>
        <time>2022-12-07T10:44:42Z</time>
      </trkpt>
      <trkpt lat="47.95791" lon="-3.92843">
        <ele>151.7</ele>
        <time>2022-12-07T10:44:43Z</time>
      </trkpt>
      <trkpt lat="47.95785" lon="-3.92838">
        <ele>151.6</ele>
        <time>2022-12-07T10:44:44Z</time>
      </trkpt>
      <trkpt lat="47.9578" lon="-3.92833">
        <ele>151.5</ele>
        <time>2022-12-07T10:44:45Z</time>
      </trkpt>
      <trkpt lat="47.95775" lon="-3.92828">
        <ele>151.4</ele>
        <time>2022-12-07T10:44:46Z</time>
      </trkpt>
      <trkpt lat="47.9577" lon="-3.92822">
        <ele>151.4</ele>
        <time>2022-12-07T10:44:47Z</time>
      </trkpt>
      <trkpt lat="47.95765" lon="-3.92817">
        <ele>151.3</ele>
        <time>2022-12-07T10:44:48Z</time>
      </trkpt>
      <trkpt lat="47.9576" lon="-3.92812">
        <ele>151.2</ele>
        <time>2022-12-07T10:44:49Z</time>
      </trkpt>
      <trkpt lat="47.95754" lon="-3.92808">
        <ele>151</ele>
        <time>2022-12-07T10:44:50Z</time>
      </trkpt>
      <trkpt lat="47.95748" lon="-3.92803">
        <ele>150.9</ele>
        <time>2022-12-07T10:44:51Z</time>
      </trkpt>
      <trkpt lat="47.95743" lon="-3.92799">
        <ele>150.7</ele>
        <time>2022-12-07T10:44:52Z</time>
      </trkpt>
      <trkpt lat="47.95737" lon="-3.92796">
        <ele>150.5</ele>
        <time>2022-12-07T10:44:53Z</time>
      </trkpt>
      <trkpt lat="47.95731" lon="-3.92791">
        <ele>150.4</ele>
        <time>2022-12-07T10:44:54Z</time>
      </trkpt>
      <trkpt lat="47.95724" lon="-3.92788">
        <ele>150.2</ele>
        <time>2022-12-07T10:44:55Z</time>
      </trkpt>
      <trkpt lat="47.95718" lon="-3.92782">
        <ele>150</ele>
        <time>2022-12-07T10:44:56Z</time>
      </trkpt>
      <trkpt lat="47.95712" lon="-3.92778">
        <ele>149.8</ele>
        <time>2022-12-07T10:44:57Z</time>
      </trkpt>
      <trkpt lat="47.95706" lon="-3.92772">
        <ele>149.7</ele>
        <time>2022-12-07T10:44:58Z</time>
      </trkpt>
      <trkpt lat="47.957" lon="-3.92767">
        <ele>149.5</ele>
        <time>2022-12-07T10:44:59Z</time>
      </trkpt>
      <trkpt lat="47.95695" lon="-3.92761">
        <ele>149.4</ele>
        <time>2022-12-07T10:45:00Z</time>
      </trkpt>
      <trkpt lat="47.95689" lon="-3.92755">
        <ele>149.2</ele>
        <time>2022-12-07T10:45:01Z</time>
      </trkpt>
      <trkpt lat="47.95684" lon="-3.92748">
        <ele>149.2</ele>
        <time>2022-12-07T10:45:02Z</time>
      </trkpt>
      <trkpt lat="47.95678" lon="-3.92741">
        <ele>149.1</ele>
        <time>2022-12-07T10:45:03Z</time>
      </trkpt>
      <trkpt lat="47.95674" lon="-3.92734">
        <ele>149</ele>
        <time>2022-12-07T10:45:04Z</time>
      </trkpt>
      <trkpt lat="47.9567" lon="-3.92725">
        <ele>149</ele>
        <time>2022-12-07T10:45:05Z</time>
      </trkpt>
      <trkpt lat="47.95666" lon="-3.92717">
        <ele>148.9</ele>
        <time>2022-12-07T10:45:06Z</time>
      </trkpt>
      <trkpt lat="47.95661" lon="-3.9271">
        <ele>148.8</ele>
        <time>2022-12-07T10:45:07Z</time>
      </trkpt>
      <trkpt lat="47.95656" lon="-3.92703">
        <ele>148.8</ele>
        <time>2022-12-07T10:45:08Z</time>
      </trkpt>
      <trkpt lat="47.95651" lon="-3.92697">
        <ele>148.7</ele>
        <time>2022-12-07T10:45:09Z</time>
      </trkpt>
      <trkpt lat="47.95647" lon="-3.9269">
        <ele>148.6</ele>
        <time>2022-12-07T10:45:10Z</time>
      </trkpt>
      <trkpt lat="47.95643" lon="-3.92682">
        <ele>148.5</ele>
        <time>2022-12-07T10:45:11Z</time>
      </trkpt>
      <trkpt lat="47.95639" lon="-3.92675">
        <ele>148.4</ele>
        <time>2022-12-07T10:45:12Z</time>
      </trkpt>
      <trkpt lat="47.95636" lon="-3.92668">
        <ele>148.3</ele>
        <time>2022-12-07T10:45:13Z</time>
      </trkpt>
      <trkpt lat="47.95632" lon="-3.92662">
        <ele>148.2</ele>
        <time>2022-12-07T10:45:14Z</time>
      </trkpt>
      <trkpt lat="47.95627" lon="-3.92656">
        <ele>148.1</ele>
        <time>2022-12-07T10:45:15Z</time>
      </trkpt>
      <trkpt lat="47.95622" lon="-3.92651">
        <ele>148</ele>
        <time>2022-12-07T10:45:16Z</time>
      </trkpt>
      <trkpt lat="47.95618" lon="-3.92646">
        <ele>147.9</ele>
        <time>2022-12-07T10:45:17Z</time>
      </trkpt>
      <trkpt lat="47.95614" lon="-3.92641">
        <ele>147.8</ele>
        <time>2022-12-07T10:45:18Z</time>
      </trkpt>
      <trkpt lat="47.95609" lon="-3.92636">
        <ele>147.6</ele>
        <time>2022-12-07T10:45:19Z</time>
      </trkpt>
      <trkpt lat="47.95605" lon="-3.9263">
        <ele>147.5</ele>
        <time>2022-12-07T10:45:20Z</time>
      </trkpt>
      <trkpt lat="47.95601" lon="-3.92626">
        <ele>147.4</ele>
        <time>2022-12-07T10:45:21Z</time>
      </trkpt>
      <trkpt lat="47.95597" lon="-3.92621">
        <ele>147.3</ele>
        <time>2022-12-07T10:45:22Z</time>
      </trkpt>
      <trkpt lat="47.95592" lon="-3.92616">
        <ele>147.1</ele>
        <time>2022-12-07T10:45:23Z</time>
      </trkpt>
      <trkpt lat="47.95586" lon="-3.92611">
        <ele>146.9</ele>
        <time>2022-12-07T10:45:24Z</time>
      </trkpt>
      <trkpt lat="47.9558" lon="-3.92608">
        <ele>146.8</ele>
        <time>2022-12-07T10:45:25Z</time>
      </trkpt>
      <trkpt lat="47.95575" lon="-3.92604">
        <ele>146.7</ele>
        <time>2022-12-07T10:45:26Z</time>
      </trkpt>
      <trkpt lat="47.9557" lon="-3.92601">
        <ele>146.5</ele>
        <time>2022-12-07T10:45:27Z</time>
      </trkpt>
      <trkpt lat="47.95565" lon="-3.92598">
        <ele>146.4</ele>
        <time>2022-12-07T10:45:28Z</time>
      </trkpt>
      <trkpt lat="47.95561" lon="-3.92593">
        <ele>146.3</ele>
        <time>2022-12-07T10:45:29Z</time>
      </trkpt>
      <trkpt lat="47.95559" lon="-3.92587">
        <ele>146.2</ele>
        <time>2022-12-07T10:45:30Z</time>
      </trkpt>
      <trkpt lat="47.95558" lon="-3.9258">
        <ele>146.1</ele>
        <time>2022-12-07T10:45:31Z</time>
      </trkpt>
      <trkpt lat="47.95557" lon="-3.92573">
        <ele>146</ele>
        <time>2022-12-07T10:45:32Z</time>
      </trkpt>
      <trkpt lat="47.95557" lon="-3.92569">
        <ele>146</ele>
        <time>2022-12-07T10:45:33Z</time>
      </trkpt>
      <trkpt lat="47.95556" lon="-3.92562">
        <ele>145.9</ele>
        <time>2022-12-07T10:45:34Z</time>
      </trkpt>
      <trkpt lat="47.95555" lon="-3.92555">
        <ele>145.8</ele>
        <time>2022-12-07T10:45:35Z</time>
      </trkpt>
      <trkpt lat="47.95554" lon="-3.92549">
        <ele>145.7</ele>
        <time>2022-12-07T10:45:36Z</time>
      </trkpt>
      <trkpt lat="47.95554" lon="-3.9254">
        <ele>145.7</ele>
        <time>2022-12-07T10:45:37Z</time>
      </trkpt>
      <trkpt lat="47.95553" lon="-3.92533">
        <ele>145.6</ele>
        <time>2022-12-07T10:45:38Z</time>
      </trkpt>
      <trkpt lat="47.95552" lon="-3.92525">
        <ele>145.4</ele>
        <time>2022-12-07T10:45:39Z</time>
      </trkpt>
      <trkpt lat="47.95552" lon="-3.92519">
        <ele>145.4</ele>
        <time>2022-12-07T10:45:40Z</time>
      </trkpt>
      <trkpt lat="47.9555" lon="-3.92515">
        <ele>145.3</ele>
        <time>2022-12-07T10:45:41Z</time>
      </trkpt>
      <trkpt lat="47.9555" lon="-3.92508">
        <ele>145.1</ele>
        <time>2022-12-07T10:45:42Z</time>
      </trkpt>
      <trkpt lat="47.95549" lon="-3.92497">
        <ele>144.8</ele>
        <time>2022-12-07T10:45:44Z</time>
      </trkpt>
      <trkpt lat="47.95545" lon="-3.92484">
        <ele>144.2</ele>
        <time>2022-12-07T10:45:45Z</time>
      </trkpt>
      <trkpt lat="47.95542" lon="-3.92477">
        <ele>143.9</ele>
        <time>2022-12-07T10:45:46Z</time>
      </trkpt>
      <trkpt lat="47.9554" lon="-3.92469">
        <ele>143.5</ele>
        <time>2022-12-07T10:45:47Z</time>
      </trkpt>
      <trkpt lat="47.95539" lon="-3.92462">
        <ele>143.1</ele>
        <time>2022-12-07T10:45:48Z</time>
      </trkpt>
      <trkpt lat="47.95538" lon="-3.92457">
        <ele>142.8</ele>
        <time>2022-12-07T10:45:49Z</time>
      </trkpt>
      <trkpt lat="47.95537" lon="-3.92454">
        <ele>142.6</ele>
        <time>2022-12-07T10:45:50Z</time>
      </trkpt>
      <trkpt lat="47.95537" lon="-3.92452">
        <ele>142.5</ele>
        <time>2022-12-07T10:45:51Z</time>
      </trkpt>
      <trkpt lat="47.95536" lon="-3.92448">
        <ele>142.1</ele>
        <time>2022-12-07T10:45:52Z</time>
      </trkpt>
      <trkpt lat="47.95536" lon="-3.92446">
        <ele>142</ele>
        <time>2022-12-07T10:45:53Z</time>
      </trkpt>
      <trkpt lat="47.95535" lon="-3.92441">
        <ele>141.5</ele>
        <time>2022-12-07T10:45:55Z</time>
      </trkpt>
      <trkpt lat="47.95535" lon="-3.92439">
        <ele>141.3</ele>
        <time>2022-12-07T10:45:56Z</time>
      </trkpt>
      <trkpt lat="47.95535" lon="-3.92437">
        <ele>141.2</ele>
        <time>2022-12-07T10:45:57Z</time>
      </trkpt>
      <trkpt lat="47.95535" lon="-3.92435">
        <ele>140.9</ele>
        <time>2022-12-07T10:45:58Z</time>
      </trkpt>
      <trkpt lat="47.95535" lon="-3.9243">
        <ele>140.4</ele>
        <time>2022-12-07T10:45:59Z</time>
      </trkpt>
      <trkpt lat="47.95535" lon="-3.92428">
        <ele>140.2</ele>
        <time>2022-12-07T10:46:00Z</time>
      </trkpt>
      <trkpt lat="47.95534" lon="-3.92425">
        <ele>139.7</ele>
        <time>2022-12-07T10:46:01Z</time>
      </trkpt>
      <trkpt lat="47.95534" lon="-3.92423">
        <ele>139.5</ele>
        <time>2022-12-07T10:46:02Z</time>
      </trkpt>
      <trkpt lat="47.95533" lon="-3.92419">
        <ele>139</ele>
        <time>2022-12-07T10:46:03Z</time>
      </trkpt>
      <trkpt lat="47.95533" lon="-3.92418">
        <ele>138.8</ele>
        <time>2022-12-07T10:46:04Z</time>
      </trkpt>
      <trkpt lat="47.95532" lon="-3.92413">
        <ele>138.2</ele>
        <time>2022-12-07T10:46:05Z</time>
      </trkpt>
      <trkpt lat="47.95532" lon="-3.92412">
        <ele>138</ele>
        <time>2022-12-07T10:46:06Z</time>
      </trkpt>
      <trkpt lat="47.9553" lon="-3.92408">
        <ele>137.3</ele>
        <time>2022-12-07T10:46:08Z</time>
      </trkpt>
      <trkpt lat="47.9553" lon="-3.92406">
        <ele>137</ele>
        <time>2022-12-07T10:46:09Z</time>
      </trkpt>
      <trkpt lat="47.9553" lon="-3.92401">
        <ele>136.3</ele>
        <time>2022-12-07T10:46:11Z</time>
      </trkpt>
      <trkpt lat="47.95529" lon="-3.924">
        <ele>136</ele>
        <time>2022-12-07T10:46:12Z</time>
      </trkpt>
      <trkpt lat="47.95528" lon="-3.92398">
        <ele>135.7</ele>
        <time>2022-12-07T10:46:13Z</time>
      </trkpt>
      <trkpt lat="47.95529" lon="-3.92396">
        <ele>135.4</ele>
        <time>2022-12-07T10:46:14Z</time>
      </trkpt>
      <trkpt lat="47.95528" lon="-3.92391">
        <ele>134.7</ele>
        <time>2022-12-07T10:46:15Z</time>
      </trkpt>
      <trkpt lat="47.95528" lon="-3.9239">
        <ele>134.4</ele>
        <time>2022-12-07T10:46:16Z</time>
      </trkpt>
      <trkpt lat="47.95527" lon="-3.92385">
        <ele>133.7</ele>
        <time>2022-12-07T10:46:17Z</time>
      </trkpt>
      <trkpt lat="47.95526" lon="-3.92383">
        <ele>133.4</ele>
        <time>2022-12-07T10:46:18Z</time>
      </trkpt>
      <trkpt lat="47.95525" lon="-3.92379">
        <ele>132.8</ele>
        <time>2022-12-07T10:46:19Z</time>
      </trkpt>
      <trkpt lat="47.95525" lon="-3.92378">
        <ele>131</ele>
        <time>2022-12-07T10:46:20Z</time>
      </trkpt>
      <trkpt lat="47.95523" lon="-3.92375">
        <ele>130.9</ele>
        <time>2022-12-07T10:46:21Z</time>
      </trkpt>
      <trkpt lat="47.95519" lon="-3.92375">
        <ele>130.8</ele>
        <time>2022-12-07T10:46:22Z</time>
      </trkpt>
      <trkpt lat="47.95514" lon="-3.92379">
        <ele>130.6</ele>
        <time>2022-12-07T10:46:23Z</time>
      </trkpt>
      <trkpt lat="47.9551" lon="-3.92385">
        <ele>130.5</ele>
        <time>2022-12-07T10:46:24Z</time>
      </trkpt>
      <trkpt lat="47.95505" lon="-3.92389">
        <ele>130.4</ele>
        <time>2022-12-07T10:46:25Z</time>
      </trkpt>
      <trkpt lat="47.955" lon="-3.92393">
        <ele>130.3</ele>
        <time>2022-12-07T10:46:26Z</time>
      </trkpt>
      <trkpt lat="47.95496" lon="-3.92397">
        <ele>130.2</ele>
        <time>2022-12-07T10:46:27Z</time>
      </trkpt>
      <trkpt lat="47.9549" lon="-3.92401">
        <ele>130.2</ele>
        <time>2022-12-07T10:46:28Z</time>
      </trkpt>
      <trkpt lat="47.95486" lon="-3.92404">
        <ele>130.2</ele>
        <time>2022-12-07T10:46:29Z</time>
      </trkpt>
      <trkpt lat="47.95481" lon="-3.92406">
        <ele>130.2</ele>
        <time>2022-12-07T10:46:30Z</time>
      </trkpt>
      <trkpt lat="47.95476" lon="-3.92409">
        <ele>130.2</ele>
        <time>2022-12-07T10:46:31Z</time>
      </trkpt>
      <trkpt lat="47.95472" lon="-3.92413">
        <ele>130.3</ele>
        <time>2022-12-07T10:46:32Z</time>
      </trkpt>
      <trkpt lat="47.95467" lon="-3.92416">
        <ele>130.3</ele>
        <time>2022-12-07T10:46:33Z</time>
      </trkpt>
      <trkpt lat="47.95463" lon="-3.92419">
        <ele>130.4</ele>
        <time>2022-12-07T10:46:34Z</time>
      </trkpt>
      <trkpt lat="47.95458" lon="-3.92421">
        <ele>130.5</ele>
        <time>2022-12-07T10:46:35Z</time>
      </trkpt>
      <trkpt lat="47.95453" lon="-3.92423">
        <ele>130.6</ele>
        <time>2022-12-07T10:46:36Z</time>
      </trkpt>
      <trkpt lat="47.95448" lon="-3.92423">
        <ele>130.7</ele>
        <time>2022-12-07T10:46:37Z</time>
      </trkpt>
      <trkpt lat="47.95444" lon="-3.92422">
        <ele>130.8</ele>
        <time>2022-12-07T10:46:38Z</time>
      </trkpt>
      <trkpt lat="47.9544" lon="-3.92421">
        <ele>130.5</ele>
        <time>2022-12-07T10:46:39Z</time>
      </trkpt>
      <trkpt lat="47.95437" lon="-3.92421">
        <ele>130.4</ele>
        <time>2022-12-07T10:46:40Z</time>
      </trkpt>
      <trkpt lat="47.9543" lon="-3.9242">
        <ele>129.8</ele>
        <time>2022-12-07T10:46:41Z</time>
      </trkpt>
      <trkpt lat="47.95422" lon="-3.9242">
        <ele>129.3</ele>
        <time>2022-12-07T10:46:42Z</time>
      </trkpt>
      <trkpt lat="47.95414" lon="-3.92421">
        <ele>128.7</ele>
        <time>2022-12-07T10:46:43Z</time>
      </trkpt>
      <trkpt lat="47.95406" lon="-3.92422">
        <ele>128.3</ele>
        <time>2022-12-07T10:46:44Z</time>
      </trkpt>
      <trkpt lat="47.95399" lon="-3.92422">
        <ele>127.9</ele>
        <time>2022-12-07T10:46:45Z</time>
      </trkpt>
      <trkpt lat="47.95391" lon="-3.92423">
        <ele>127.6</ele>
        <time>2022-12-07T10:46:46Z</time>
      </trkpt>
      <trkpt lat="47.95385" lon="-3.92424">
        <ele>127.3</ele>
        <time>2022-12-07T10:46:47Z</time>
      </trkpt>
      <trkpt lat="47.95379" lon="-3.92424">
        <ele>127</ele>
        <time>2022-12-07T10:46:48Z</time>
      </trkpt>
      <trkpt lat="47.95373" lon="-3.92424">
        <ele>126.8</ele>
        <time>2022-12-07T10:46:49Z</time>
      </trkpt>
      <trkpt lat="47.95368" lon="-3.92425">
        <ele>126.6</ele>
        <time>2022-12-07T10:46:50Z</time>
      </trkpt>
      <trkpt lat="47.95362" lon="-3.92425">
        <ele>126.4</ele>
        <time>2022-12-07T10:46:51Z</time>
      </trkpt>
      <trkpt lat="47.95358" lon="-3.92424">
        <ele>126.2</ele>
        <time>2022-12-07T10:46:52Z</time>
      </trkpt>
      <trkpt lat="47.95352" lon="-3.92422">
        <ele>125.9</ele>
        <time>2022-12-07T10:46:53Z</time>
      </trkpt>
      <trkpt lat="47.95346" lon="-3.92422">
        <ele>125.6</ele>
        <time>2022-12-07T10:46:54Z</time>
      </trkpt>
      <trkpt lat="47.95341" lon="-3.92421">
        <ele>125.2</ele>
        <time>2022-12-07T10:46:55Z</time>
      </trkpt>
      <trkpt lat="47.95335" lon="-3.92421">
        <ele>124.9</ele>
        <time>2022-12-07T10:46:56Z</time>
      </trkpt>
      <trkpt lat="47.95331" lon="-3.92422">
        <ele>124.6</ele>
        <time>2022-12-07T10:46:57Z</time>
      </trkpt>
      <trkpt lat="47.95329" lon="-3.92422">
        <ele>124.3</ele>
        <time>2022-12-07T10:46:58Z</time>
      </trkpt>
      <trkpt lat="47.95325" lon="-3.92423">
        <ele>124</ele>
        <time>2022-12-07T10:46:59Z</time>
      </trkpt>
      <trkpt lat="47.95321" lon="-3.92424">
        <ele>123.8</ele>
        <time>2022-12-07T10:47:00Z</time>
      </trkpt>
      <trkpt lat="47.95317" lon="-3.92424">
        <ele>123.4</ele>
        <time>2022-12-07T10:47:01Z</time>
      </trkpt>
      <trkpt lat="47.95314" lon="-3.92425">
        <ele>123.2</ele>
        <time>2022-12-07T10:47:02Z</time>
      </trkpt>
      <trkpt lat="47.95308" lon="-3.92427">
        <ele>122.8</ele>
        <time>2022-12-07T10:47:03Z</time>
      </trkpt>
      <trkpt lat="47.95303" lon="-3.92428">
        <ele>122.4</ele>
        <time>2022-12-07T10:47:04Z</time>
      </trkpt>
      <trkpt lat="47.95297" lon="-3.92429">
        <ele>121.9</ele>
        <time>2022-12-07T10:47:05Z</time>
      </trkpt>
      <trkpt lat="47.95291" lon="-3.92429">
        <ele>121.5</ele>
        <time>2022-12-07T10:47:06Z</time>
      </trkpt>
      <trkpt lat="47.95286" lon="-3.9243">
        <ele>121</ele>
        <time>2022-12-07T10:47:07Z</time>
      </trkpt>
      <trkpt lat="47.9528" lon="-3.9243">
        <ele>120.5</ele>
        <time>2022-12-07T10:47:08Z</time>
      </trkpt>
      <trkpt lat="47.95274" lon="-3.92432">
        <ele>119.9</ele>
        <time>2022-12-07T10:47:09Z</time>
      </trkpt>
      <trkpt lat="47.95267" lon="-3.92435">
        <ele>119.2</ele>
        <time>2022-12-07T10:47:10Z</time>
      </trkpt>
      <trkpt lat="47.9526" lon="-3.92438">
        <ele>118.5</ele>
        <time>2022-12-07T10:47:11Z</time>
      </trkpt>
      <trkpt lat="47.95253" lon="-3.92442">
        <ele>117.8</ele>
        <time>2022-12-07T10:47:12Z</time>
      </trkpt>
      <trkpt lat="47.95246" lon="-3.92445">
        <ele>117</ele>
        <time>2022-12-07T10:47:13Z</time>
      </trkpt>
      <trkpt lat="47.9524" lon="-3.92448">
        <ele>116.4</ele>
        <time>2022-12-07T10:47:14Z</time>
      </trkpt>
      <trkpt lat="47.95234" lon="-3.9245">
        <ele>115.9</ele>
        <time>2022-12-07T10:47:15Z</time>
      </trkpt>
      <trkpt lat="47.95229" lon="-3.92451">
        <ele>115.5</ele>
        <time>2022-12-07T10:47:16Z</time>
      </trkpt>
      <trkpt lat="47.95224" lon="-3.92451">
        <ele>115.2</ele>
        <time>2022-12-07T10:47:17Z</time>
      </trkpt>
      <trkpt lat="47.95218" lon="-3.92451">
        <ele>114.9</ele>
        <time>2022-12-07T10:47:18Z</time>
      </trkpt>
      <trkpt lat="47.95213" lon="-3.92449">
        <ele>114.8</ele>
        <time>2022-12-07T10:47:19Z</time>
      </trkpt>
      <trkpt lat="47.95209" lon="-3.92446">
        <ele>114.6</ele>
        <time>2022-12-07T10:47:20Z</time>
      </trkpt>
      <trkpt lat="47.95206" lon="-3.92444">
        <ele>114.5</ele>
        <time>2022-12-07T10:47:21Z</time>
      </trkpt>
      <trkpt lat="47.95201" lon="-3.92442">
        <ele>114.2</ele>
        <time>2022-12-07T10:47:22Z</time>
      </trkpt>
      <trkpt lat="47.95198" lon="-3.92442">
        <ele>114.1</ele>
        <time>2022-12-07T10:47:23Z</time>
      </trkpt>
      <trkpt lat="47.95193" lon="-3.92444">
        <ele>113.9</ele>
        <time>2022-12-07T10:47:24Z</time>
      </trkpt>
      <trkpt lat="47.95188" lon="-3.92445">
        <ele>113.7</ele>
        <time>2022-12-07T10:47:25Z</time>
      </trkpt>
      <trkpt lat="47.95183" lon="-3.92447">
        <ele>113.4</ele>
        <time>2022-12-07T10:47:26Z</time>
      </trkpt>
      <trkpt lat="47.95178" lon="-3.92448">
        <ele>113.2</ele>
        <time>2022-12-07T10:47:27Z</time>
      </trkpt>
      <trkpt lat="47.95173" lon="-3.92448">
        <ele>113</ele>
        <time>2022-12-07T10:47:28Z</time>
      </trkpt>
      <trkpt lat="47.95168" lon="-3.92448">
        <ele>112.8</ele>
        <time>2022-12-07T10:47:29Z</time>
      </trkpt>
      <trkpt lat="47.95162" lon="-3.92448">
        <ele>112.6</ele>
        <time>2022-12-07T10:47:30Z</time>
      </trkpt>
      <trkpt lat="47.95156" lon="-3.92448">
        <ele>112.4</ele>
        <time>2022-12-07T10:47:31Z</time>
      </trkpt>
      <trkpt lat="47.9515" lon="-3.92447">
        <ele>112.1</ele>
        <time>2022-12-07T10:47:32Z</time>
      </trkpt>
      <trkpt lat="47.95144" lon="-3.92446">
        <ele>111.8</ele>
        <time>2022-12-07T10:47:33Z</time>
      </trkpt>
      <trkpt lat="47.95137" lon="-3.92446">
        <ele>111.5</ele>
        <time>2022-12-07T10:47:34Z</time>
      </trkpt>
      <trkpt lat="47.95131" lon="-3.92446">
        <ele>111.2</ele>
        <time>2022-12-07T10:47:35Z</time>
      </trkpt>
      <trkpt lat="47.95124" lon="-3.92447">
        <ele>110.9</ele>
        <time>2022-12-07T10:47:36Z</time>
      </trkpt>
      <trkpt lat="47.95117" lon="-3.92448">
        <ele>110.5</ele>
        <time>2022-12-07T10:47:37Z</time>
      </trkpt>
      <trkpt lat="47.9511" lon="-3.92451">
        <ele>110.1</ele>
        <time>2022-12-07T10:47:38Z</time>
      </trkpt>
      <trkpt lat="47.95103" lon="-3.92455">
        <ele>109.5</ele>
        <time>2022-12-07T10:47:39Z</time>
      </trkpt>
      <trkpt lat="47.95096" lon="-3.92461">
        <ele>108.9</ele>
        <time>2022-12-07T10:47:40Z</time>
      </trkpt>
      <trkpt lat="47.95089" lon="-3.92468">
        <ele>108.1</ele>
        <time>2022-12-07T10:47:41Z</time>
      </trkpt>
      <trkpt lat="47.95081" lon="-3.92474">
        <ele>107.4</ele>
        <time>2022-12-07T10:47:42Z</time>
      </trkpt>
      <trkpt lat="47.95073" lon="-3.92481">
        <ele>106.5</ele>
        <time>2022-12-07T10:47:43Z</time>
      </trkpt>
      <trkpt lat="47.95066" lon="-3.92488">
        <ele>105.6</ele>
        <time>2022-12-07T10:47:44Z</time>
      </trkpt>
      <trkpt lat="47.95058" lon="-3.92495">
        <ele>104.7</ele>
        <time>2022-12-07T10:47:45Z</time>
      </trkpt>
      <trkpt lat="47.95051" lon="-3.925">
        <ele>103.7</ele>
        <time>2022-12-07T10:47:46Z</time>
      </trkpt>
      <trkpt lat="47.95044" lon="-3.92506">
        <ele>102.9</ele>
        <time>2022-12-07T10:47:47Z</time>
      </trkpt>
      <trkpt lat="47.95038" lon="-3.92512">
        <ele>102.2</ele>
        <time>2022-12-07T10:47:48Z</time>
      </trkpt>
      <trkpt lat="47.95032" lon="-3.92517">
        <ele>101.7</ele>
        <time>2022-12-07T10:47:49Z</time>
      </trkpt>
      <trkpt lat="47.95029" lon="-3.92521">
        <ele>101.3</ele>
        <time>2022-12-07T10:47:50Z</time>
      </trkpt>
      <trkpt lat="47.95026" lon="-3.92524">
        <ele>101.1</ele>
        <time>2022-12-07T10:47:51Z</time>
      </trkpt>
      <trkpt lat="47.95023" lon="-3.92526">
        <ele>100.8</ele>
        <time>2022-12-07T10:47:52Z</time>
      </trkpt>
      <trkpt lat="47.95021" lon="-3.92526">
        <ele>100.7</ele>
        <time>2022-12-07T10:47:53Z</time>
      </trkpt>
      <trkpt lat="47.95017" lon="-3.92525">
        <ele>100.6</ele>
        <time>2022-12-07T10:47:54Z</time>
      </trkpt>
      <trkpt lat="47.95012" lon="-3.92524">
        <ele>100.6</ele>
        <time>2022-12-07T10:47:55Z</time>
      </trkpt>
      <trkpt lat="47.9501" lon="-3.92524">
        <ele>100.7</ele>
        <time>2022-12-07T10:47:56Z</time>
      </trkpt>
      <trkpt lat="47.95004" lon="-3.92524">
        <ele>100.8</ele>
        <time>2022-12-07T10:47:57Z</time>
      </trkpt>
      <trkpt lat="47.94999" lon="-3.92526">
        <ele>100.4</ele>
        <time>2022-12-07T10:47:58Z</time>
      </trkpt>
      <trkpt lat="47.94993" lon="-3.92529">
        <ele>100.4</ele>
        <time>2022-12-07T10:47:59Z</time>
      </trkpt>
      <trkpt lat="47.94987" lon="-3.92531">
        <ele>100.2</ele>
        <time>2022-12-07T10:48:00Z</time>
      </trkpt>
      <trkpt lat="47.9498" lon="-3.92533">
        <ele>100.1</ele>
        <time>2022-12-07T10:48:01Z</time>
      </trkpt>
      <trkpt lat="47.94973" lon="-3.92535">
        <ele>100.2</ele>
        <time>2022-12-07T10:48:02Z</time>
      </trkpt>
      <trkpt lat="47.94966" lon="-3.92537">
        <ele>100.1</ele>
        <time>2022-12-07T10:48:03Z</time>
      </trkpt>
      <trkpt lat="47.94959" lon="-3.92539">
        <ele>99.8</ele>
        <time>2022-12-07T10:48:04Z</time>
      </trkpt>
      <trkpt lat="47.94952" lon="-3.92543">
        <ele>99.7</ele>
        <time>2022-12-07T10:48:05Z</time>
      </trkpt>
      <trkpt lat="47.94945" lon="-3.92547">
        <ele>99.5</ele>
        <time>2022-12-07T10:48:06Z</time>
      </trkpt>
      <trkpt lat="47.94938" lon="-3.92552">
        <ele>99.6</ele>
        <time>2022-12-07T10:48:07Z</time>
      </trkpt>
      <trkpt lat="47.94932" lon="-3.9256">
        <ele>99.3</ele>
        <time>2022-12-07T10:48:08Z</time>
      </trkpt>
      <trkpt lat="47.94927" lon="-3.92568">
        <ele>99.4</ele>
        <time>2022-12-07T10:48:09Z</time>
      </trkpt>
      <trkpt lat="47.94924" lon="-3.92575">
        <ele>99.5</ele>
        <time>2022-12-07T10:48:10Z</time>
      </trkpt>
      <trkpt lat="47.94921" lon="-3.92581">
        <ele>99.4</ele>
        <time>2022-12-07T10:48:11Z</time>
      </trkpt>
      <trkpt lat="47.9492" lon="-3.92586">
        <ele>99.5</ele>
        <time>2022-12-07T10:48:12Z</time>
      </trkpt>
      <trkpt lat="47.9492" lon="-3.9259">
        <ele>99.6</ele>
        <time>2022-12-07T10:48:13Z</time>
      </trkpt>
      <trkpt lat="47.94921" lon="-3.92595">
        <ele>99.7</ele>
        <time>2022-12-07T10:48:14Z</time>
      </trkpt>
      <trkpt lat="47.94922" lon="-3.92599">
        <ele>99.8</ele>
        <time>2022-12-07T10:48:15Z</time>
      </trkpt>
      <trkpt lat="47.94922" lon="-3.92604">
        <ele>99.8</ele>
        <time>2022-12-07T10:48:16Z</time>
      </trkpt>
      <trkpt lat="47.94921" lon="-3.92605">
        <ele>99.9</ele>
        <time>2022-12-07T10:48:17Z</time>
      </trkpt>
      <trkpt lat="47.94921" lon="-3.9261">
        <ele>100.1</ele>
        <time>2022-12-07T10:48:19Z</time>
      </trkpt>
      <trkpt lat="47.9492" lon="-3.92612">
        <ele>100.2</ele>
        <time>2022-12-07T10:48:20Z</time>
      </trkpt>
      <trkpt lat="47.94921" lon="-3.92614">
        <ele>100.2</ele>
        <time>2022-12-07T10:48:22Z</time>
      </trkpt>
      <trkpt lat="47.9492" lon="-3.92617">
        <ele>100.3</ele>
        <time>2022-12-07T10:48:23Z</time>
      </trkpt>
      <trkpt lat="47.9492" lon="-3.9262">
        <ele>100.4</ele>
        <time>2022-12-07T10:48:25Z</time>
      </trkpt>
      <trkpt lat="47.9492" lon="-3.92624">
        <ele>100.5</ele>
        <time>2022-12-07T10:48:27Z</time>
      </trkpt>
      <trkpt lat="47.9492" lon="-3.92624">
        <ele>100.8</ele>
        <time>2022-12-07T10:48:28Z</time>
      </trkpt>
      <trkpt lat="47.9492" lon="-3.92626">
        <ele>100.9</ele>
        <time>2022-12-07T10:48:29Z</time>
      </trkpt>
      <trkpt lat="47.94921" lon="-3.92627">
        <ele>101</ele>
        <time>2022-12-07T10:48:31Z</time>
      </trkpt>
      <trkpt lat="47.94921" lon="-3.92628">
        <ele>101</ele>
        <time>2022-12-07T10:48:32Z</time>
      </trkpt>
      <trkpt lat="47.94921" lon="-3.92629">
        <ele>101.1</ele>
        <time>2022-12-07T10:48:33Z</time>
      </trkpt>
      <trkpt lat="47.94921" lon="-3.92631">
        <ele>101.2</ele>
        <time>2022-12-07T10:48:34Z</time>
      </trkpt>
      <trkpt lat="47.94921" lon="-3.92632">
        <ele>101.3</ele>
        <time>2022-12-07T10:48:35Z</time>
      </trkpt>
      <trkpt lat="47.9492" lon="-3.92634">
        <ele>101.3</ele>
        <time>2022-12-07T10:48:36Z</time>
      </trkpt>
      <trkpt lat="47.9492" lon="-3.92635">
        <ele>101.4</ele>
        <time>2022-12-07T10:48:37Z</time>
      </trkpt>
      <trkpt lat="47.9492" lon="-3.92637">
        <ele>101.5</ele>
        <time>2022-12-07T10:48:38Z</time>
      </trkpt>
      <trkpt lat="47.9492" lon="-3.92642">
        <ele>102.2</ele>
        <time>2022-12-07T10:48:40Z</time>
      </trkpt>
      <trkpt lat="47.9492" lon="-3.92643">
        <ele>102.3</ele>
        <time>2022-12-07T10:48:41Z</time>
      </trkpt>
      <trkpt lat="47.94919" lon="-3.92645">
        <ele>102.3</ele>
        <time>2022-12-07T10:48:42Z</time>
      </trkpt>
      <trkpt lat="47.94918" lon="-3.92647">
        <ele>102.4</ele>
        <time>2022-12-07T10:48:43Z</time>
      </trkpt>
      <trkpt lat="47.94917" lon="-3.92651">
        <ele>102.5</ele>
        <time>2022-12-07T10:48:44Z</time>
      </trkpt>
      <trkpt lat="47.94916" lon="-3.92652">
        <ele>102.6</ele>
        <time>2022-12-07T10:48:45Z</time>
      </trkpt>
      <trkpt lat="47.94914" lon="-3.92655">
        <ele>102.6</ele>
        <time>2022-12-07T10:48:46Z</time>
      </trkpt>
      <trkpt lat="47.94911" lon="-3.92656">
        <ele>102.6</ele>
        <time>2022-12-07T10:48:47Z</time>
      </trkpt>
      <trkpt lat="47.94908" lon="-3.92656">
        <ele>102.5</ele>
        <time>2022-12-07T10:48:48Z</time>
      </trkpt>
      <trkpt lat="47.94905" lon="-3.92656">
        <ele>102.4</ele>
        <time>2022-12-07T10:48:49Z</time>
      </trkpt>
      <trkpt lat="47.94901" lon="-3.92656">
        <ele>102.3</ele>
        <time>2022-12-07T10:48:50Z</time>
      </trkpt>
      <trkpt lat="47.94897" lon="-3.92656">
        <ele>102.3</ele>
        <time>2022-12-07T10:48:51Z</time>
      </trkpt>
      <trkpt lat="47.94892" lon="-3.92656">
        <ele>102.2</ele>
        <time>2022-12-07T10:48:52Z</time>
      </trkpt>
      <trkpt lat="47.94887" lon="-3.92655">
        <ele>102.2</ele>
        <time>2022-12-07T10:48:53Z</time>
      </trkpt>
      <trkpt lat="47.94883" lon="-3.92654">
        <ele>102.2</ele>
        <time>2022-12-07T10:48:54Z</time>
      </trkpt>
      <trkpt lat="47.94879" lon="-3.92654">
        <ele>102.2</ele>
        <time>2022-12-07T10:48:55Z</time>
      </trkpt>
      <trkpt lat="47.94875" lon="-3.92654">
        <ele>102.3</ele>
        <time>2022-12-07T10:48:56Z</time>
      </trkpt>
      <trkpt lat="47.94871" lon="-3.92653">
        <ele>102.3</ele>
        <time>2022-12-07T10:48:57Z</time>
      </trkpt>
      <trkpt lat="47.94867" lon="-3.92652">
        <ele>102.4</ele>
        <time>2022-12-07T10:48:58Z</time>
      </trkpt>
      <trkpt lat="47.94863" lon="-3.92651">
        <ele>102.6</ele>
        <time>2022-12-07T10:48:59Z</time>
      </trkpt>
      <trkpt lat="47.94859" lon="-3.92651">
        <ele>102.7</ele>
        <time>2022-12-07T10:49:00Z</time>
      </trkpt>
      <trkpt lat="47.94856" lon="-3.9265">
        <ele>102.8</ele>
        <time>2022-12-07T10:49:01Z</time>
      </trkpt>
      <trkpt lat="47.94852" lon="-3.92648">
        <ele>103</ele>
        <time>2022-12-07T10:49:02Z</time>
      </trkpt>
      <trkpt lat="47.94849" lon="-3.92647">
        <ele>103.2</ele>
        <time>2022-12-07T10:49:03Z</time>
      </trkpt>
      <trkpt lat="47.94845" lon="-3.92646">
        <ele>103.3</ele>
        <time>2022-12-07T10:49:04Z</time>
      </trkpt>
      <trkpt lat="47.94842" lon="-3.92646">
        <ele>103.5</ele>
        <time>2022-12-07T10:49:05Z</time>
      </trkpt>
      <trkpt lat="47.94839" lon="-3.92645">
        <ele>103.7</ele>
        <time>2022-12-07T10:49:06Z</time>
      </trkpt>
      <trkpt lat="47.94835" lon="-3.92644">
        <ele>103.9</ele>
        <time>2022-12-07T10:49:07Z</time>
      </trkpt>
      <trkpt lat="47.94832" lon="-3.92643">
        <ele>104.1</ele>
        <time>2022-12-07T10:49:08Z</time>
      </trkpt>
      <trkpt lat="47.94829" lon="-3.92644">
        <ele>104.3</ele>
        <time>2022-12-07T10:49:09Z</time>
      </trkpt>
      <trkpt lat="47.94824" lon="-3.92647">
        <ele>104.5</ele>
        <time>2022-12-07T10:49:11Z</time>
      </trkpt>
      <trkpt lat="47.9482" lon="-3.92651">
        <ele>104.7</ele>
        <time>2022-12-07T10:49:12Z</time>
      </trkpt>
      <trkpt lat="47.94819" lon="-3.92652">
        <ele>104.7</ele>
        <time>2022-12-07T10:49:13Z</time>
      </trkpt>
      <trkpt lat="47.94816" lon="-3.92656">
        <ele>104.9</ele>
        <time>2022-12-07T10:49:14Z</time>
      </trkpt>
      <trkpt lat="47.94813" lon="-3.92659">
        <ele>104.9</ele>
        <time>2022-12-07T10:49:15Z</time>
      </trkpt>
      <trkpt lat="47.9481" lon="-3.92662">
        <ele>105</ele>
        <time>2022-12-07T10:49:16Z</time>
      </trkpt>
      <trkpt lat="47.94808" lon="-3.92667">
        <ele>105.1</ele>
        <time>2022-12-07T10:49:17Z</time>
      </trkpt>
      <trkpt lat="47.94808" lon="-3.92674">
        <ele>105.2</ele>
        <time>2022-12-07T10:49:18Z</time>
      </trkpt>
      <trkpt lat="47.94809" lon="-3.9268">
        <ele>105.3</ele>
        <time>2022-12-07T10:49:19Z</time>
      </trkpt>
      <trkpt lat="47.94813" lon="-3.92691">
        <ele>105.4</ele>
        <time>2022-12-07T10:49:21Z</time>
      </trkpt>
      <trkpt lat="47.94814" lon="-3.92697">
        <ele>105.5</ele>
        <time>2022-12-07T10:49:22Z</time>
      </trkpt>
      <trkpt lat="47.94815" lon="-3.92702">
        <ele>105.5</ele>
        <time>2022-12-07T10:49:23Z</time>
      </trkpt>
      <trkpt lat="47.94815" lon="-3.92708">
        <ele>105.5</ele>
        <time>2022-12-07T10:49:24Z</time>
      </trkpt>
      <trkpt lat="47.94816" lon="-3.92714">
        <ele>105.6</ele>
        <time>2022-12-07T10:49:25Z</time>
      </trkpt>
      <trkpt lat="47.94817" lon="-3.9272">
        <ele>105.6</ele>
        <time>2022-12-07T10:49:26Z</time>
      </trkpt>
      <trkpt lat="47.94817" lon="-3.92726">
        <ele>105.6</ele>
        <time>2022-12-07T10:49:27Z</time>
      </trkpt>
      <trkpt lat="47.94817" lon="-3.92733">
        <ele>105.6</ele>
        <time>2022-12-07T10:49:28Z</time>
      </trkpt>
      <trkpt lat="47.94817" lon="-3.92739">
        <ele>105.7</ele>
        <time>2022-12-07T10:49:29Z</time>
      </trkpt>
      <trkpt lat="47.94818" lon="-3.92752">
        <ele>105.7</ele>
        <time>2022-12-07T10:49:31Z</time>
      </trkpt>
      <trkpt lat="47.94818" lon="-3.92759">
        <ele>105.8</ele>
        <time>2022-12-07T10:49:32Z</time>
      </trkpt>
      <trkpt lat="47.94818" lon="-3.92772">
        <ele>105.9</ele>
        <time>2022-12-07T10:49:34Z</time>
      </trkpt>
      <trkpt lat="47.94819" lon="-3.92778">
        <ele>106</ele>
        <time>2022-12-07T10:49:35Z</time>
      </trkpt>
      <trkpt lat="47.94819" lon="-3.92784">
        <ele>106.1</ele>
        <time>2022-12-07T10:49:36Z</time>
      </trkpt>
      <trkpt lat="47.94821" lon="-3.92793">
        <ele>106.2</ele>
        <time>2022-12-07T10:49:38Z</time>
      </trkpt>
      <trkpt lat="47.94822" lon="-3.92798">
        <ele>106.3</ele>
        <time>2022-12-07T10:49:39Z</time>
      </trkpt>
      <trkpt lat="47.94825" lon="-3.92806">
        <ele>106.4</ele>
        <time>2022-12-07T10:49:40Z</time>
      </trkpt>
      <trkpt lat="47.94826" lon="-3.92812">
        <ele>106.5</ele>
        <time>2022-12-07T10:49:41Z</time>
      </trkpt>
      <trkpt lat="47.94827" lon="-3.92817">
        <ele>106.7</ele>
        <time>2022-12-07T10:49:42Z</time>
      </trkpt>
      <trkpt lat="47.9483" lon="-3.92827">
        <ele>106.9</ele>
        <time>2022-12-07T10:49:44Z</time>
      </trkpt>
      <trkpt lat="47.94832" lon="-3.92832">
        <ele>107.1</ele>
        <time>2022-12-07T10:49:45Z</time>
      </trkpt>
      <trkpt lat="47.94834" lon="-3.92838">
        <ele>107.2</ele>
        <time>2022-12-07T10:49:46Z</time>
      </trkpt>
      <trkpt lat="47.94836" lon="-3.92842">
        <ele>107.4</ele>
        <time>2022-12-07T10:49:47Z</time>
      </trkpt>
      <trkpt lat="47.94838" lon="-3.92847">
        <ele>107.6</ele>
        <time>2022-12-07T10:49:48Z</time>
      </trkpt>
      <trkpt lat="47.94839" lon="-3.92852">
        <ele>107.7</ele>
        <time>2022-12-07T10:49:49Z</time>
      </trkpt>
      <trkpt lat="47.94841" lon="-3.92857">
        <ele>107.9</ele>
        <time>2022-12-07T10:49:50Z</time>
      </trkpt>
      <trkpt lat="47.94843" lon="-3.92862">
        <ele>108.1</ele>
        <time>2022-12-07T10:49:51Z</time>
      </trkpt>
      <trkpt lat="47.94845" lon="-3.92866">
        <ele>108.3</ele>
        <time>2022-12-07T10:49:52Z</time>
      </trkpt>
      <trkpt lat="47.94847" lon="-3.92871">
        <ele>108.5</ele>
        <time>2022-12-07T10:49:53Z</time>
      </trkpt>
      <trkpt lat="47.94849" lon="-3.92876">
        <ele>108.6</ele>
        <time>2022-12-07T10:49:54Z</time>
      </trkpt>
      <trkpt lat="47.94852" lon="-3.92881">
        <ele>108.8</ele>
        <time>2022-12-07T10:49:55Z</time>
      </trkpt>
      <trkpt lat="47.94854" lon="-3.92886">
        <ele>109</ele>
        <time>2022-12-07T10:49:56Z</time>
      </trkpt>
      <trkpt lat="47.94855" lon="-3.92891">
        <ele>109.2</ele>
        <time>2022-12-07T10:49:57Z</time>
      </trkpt>
      <trkpt lat="47.94856" lon="-3.92897">
        <ele>109.3</ele>
        <time>2022-12-07T10:49:58Z</time>
      </trkpt>
      <trkpt lat="47.94856" lon="-3.92902">
        <ele>109.5</ele>
        <time>2022-12-07T10:49:59Z</time>
      </trkpt>
      <trkpt lat="47.94857" lon="-3.92908">
        <ele>109.6</ele>
        <time>2022-12-07T10:50:00Z</time>
      </trkpt>
      <trkpt lat="47.94858" lon="-3.92913">
        <ele>109.7</ele>
        <time>2022-12-07T10:50:01Z</time>
      </trkpt>
      <trkpt lat="47.94859" lon="-3.92919">
        <ele>109.8</ele>
        <time>2022-12-07T10:50:02Z</time>
      </trkpt>
      <trkpt lat="47.9486" lon="-3.92925">
        <ele>110</ele>
        <time>2022-12-07T10:50:03Z</time>
      </trkpt>
      <trkpt lat="47.9486" lon="-3.92931">
        <ele>110.1</ele>
        <time>2022-12-07T10:50:04Z</time>
      </trkpt>
      <trkpt lat="47.94861" lon="-3.92937">
        <ele>110.1</ele>
        <time>2022-12-07T10:50:05Z</time>
      </trkpt>
      <trkpt lat="47.94862" lon="-3.92943">
        <ele>110.2</ele>
        <time>2022-12-07T10:50:06Z</time>
      </trkpt>
      <trkpt lat="47.94863" lon="-3.92949">
        <ele>110.3</ele>
        <time>2022-12-07T10:50:07Z</time>
      </trkpt>
      <trkpt lat="47.94864" lon="-3.92956">
        <ele>110.4</ele>
        <time>2022-12-07T10:50:08Z</time>
      </trkpt>
      <trkpt lat="47.94866" lon="-3.92962">
        <ele>110.5</ele>
        <time>2022-12-07T10:50:09Z</time>
      </trkpt>
      <trkpt lat="47.94867" lon="-3.92967">
        <ele>110.6</ele>
        <time>2022-12-07T10:50:10Z</time>
      </trkpt>
      <trkpt lat="47.94868" lon="-3.92973">
        <ele>110.7</ele>
        <time>2022-12-07T10:50:11Z</time>
      </trkpt>
      <trkpt lat="47.94869" lon="-3.92979">
        <ele>110.7</ele>
        <time>2022-12-07T10:50:12Z</time>
      </trkpt>
      <trkpt lat="47.94871" lon="-3.92985">
        <ele>110.8</ele>
        <time>2022-12-07T10:50:13Z</time>
      </trkpt>
      <trkpt lat="47.94872" lon="-3.9299">
        <ele>110.8</ele>
        <time>2022-12-07T10:50:14Z</time>
      </trkpt>
      <trkpt lat="47.94873" lon="-3.92997">
        <ele>110.9</ele>
        <time>2022-12-07T10:50:15Z</time>
      </trkpt>
      <trkpt lat="47.94876" lon="-3.93007">
        <ele>111</ele>
        <time>2022-12-07T10:50:17Z</time>
      </trkpt>
      <trkpt lat="47.94878" lon="-3.93016">
        <ele>111</ele>
        <time>2022-12-07T10:50:18Z</time>
      </trkpt>
      <trkpt lat="47.94879" lon="-3.93022">
        <ele>111.1</ele>
        <time>2022-12-07T10:50:19Z</time>
      </trkpt>
      <trkpt lat="47.9488" lon="-3.93032">
        <ele>111.1</ele>
        <time>2022-12-07T10:50:21Z</time>
      </trkpt>
      <trkpt lat="47.94881" lon="-3.93039">
        <ele>111.2</ele>
        <time>2022-12-07T10:50:22Z</time>
      </trkpt>
      <trkpt lat="47.94883" lon="-3.93052">
        <ele>111.3</ele>
        <time>2022-12-07T10:50:24Z</time>
      </trkpt>
      <trkpt lat="47.94883" lon="-3.93057">
        <ele>111.3</ele>
        <time>2022-12-07T10:50:25Z</time>
      </trkpt>
      <trkpt lat="47.94881" lon="-3.93066">
        <ele>111.4</ele>
        <time>2022-12-07T10:50:26Z</time>
      </trkpt>
      <trkpt lat="47.94877" lon="-3.9307">
        <ele>111.2</ele>
        <time>2022-12-07T10:50:28Z</time>
      </trkpt>
      <trkpt lat="47.94869" lon="-3.93071">
        <ele>111</ele>
        <time>2022-12-07T10:50:29Z</time>
      </trkpt>
      <trkpt lat="47.94863" lon="-3.93073">
        <ele>110.9</ele>
        <time>2022-12-07T10:50:30Z</time>
      </trkpt>
      <trkpt lat="47.94858" lon="-3.93074">
        <ele>110.7</ele>
        <time>2022-12-07T10:50:31Z</time>
      </trkpt>
      <trkpt lat="47.94852" lon="-3.93076">
        <ele>110.5</ele>
        <time>2022-12-07T10:50:32Z</time>
      </trkpt>
      <trkpt lat="47.94847" lon="-3.93078">
        <ele>110.4</ele>
        <time>2022-12-07T10:50:33Z</time>
      </trkpt>
      <trkpt lat="47.94841" lon="-3.9308">
        <ele>110.2</ele>
        <time>2022-12-07T10:50:34Z</time>
      </trkpt>
      <trkpt lat="47.94835" lon="-3.93081">
        <ele>109.9</ele>
        <time>2022-12-07T10:50:35Z</time>
      </trkpt>
      <trkpt lat="47.94829" lon="-3.93084">
        <ele>109.7</ele>
        <time>2022-12-07T10:50:36Z</time>
      </trkpt>
      <trkpt lat="47.94823" lon="-3.93086">
        <ele>109.4</ele>
        <time>2022-12-07T10:50:37Z</time>
      </trkpt>
      <trkpt lat="47.94816" lon="-3.93088">
        <ele>109.2</ele>
        <time>2022-12-07T10:50:38Z</time>
      </trkpt>
      <trkpt lat="47.9481" lon="-3.93089">
        <ele>108.9</ele>
        <time>2022-12-07T10:50:39Z</time>
      </trkpt>
      <trkpt lat="47.94803" lon="-3.93091">
        <ele>108.6</ele>
        <time>2022-12-07T10:50:40Z</time>
      </trkpt>
      <trkpt lat="47.94796" lon="-3.93094">
        <ele>108.3</ele>
        <time>2022-12-07T10:50:41Z</time>
      </trkpt>
      <trkpt lat="47.94788" lon="-3.93096">
        <ele>107.9</ele>
        <time>2022-12-07T10:50:42Z</time>
      </trkpt>
      <trkpt lat="47.94781" lon="-3.93097">
        <ele>107.5</ele>
        <time>2022-12-07T10:50:43Z</time>
      </trkpt>
      <trkpt lat="47.94773" lon="-3.93098">
        <ele>107.1</ele>
        <time>2022-12-07T10:50:44Z</time>
      </trkpt>
      <trkpt lat="47.94765" lon="-3.93098">
        <ele>106.8</ele>
        <time>2022-12-07T10:50:45Z</time>
      </trkpt>
      <trkpt lat="47.94758" lon="-3.93098">
        <ele>106.4</ele>
        <time>2022-12-07T10:50:46Z</time>
      </trkpt>
      <trkpt lat="47.94751" lon="-3.93097">
        <ele>106.2</ele>
        <time>2022-12-07T10:50:47Z</time>
      </trkpt>
      <trkpt lat="47.94744" lon="-3.93099">
        <ele>105.9</ele>
        <time>2022-12-07T10:50:48Z</time>
      </trkpt>
      <trkpt lat="47.94739" lon="-3.93105">
        <ele>105.7</ele>
        <time>2022-12-07T10:50:49Z</time>
      </trkpt>
      <trkpt lat="47.94735" lon="-3.93115">
        <ele>105.3</ele>
        <time>2022-12-07T10:50:50Z</time>
      </trkpt>
      <trkpt lat="47.94734" lon="-3.93125">
        <ele>105.2</ele>
        <time>2022-12-07T10:50:51Z</time>
      </trkpt>
      <trkpt lat="47.94735" lon="-3.93134">
        <ele>105.2</ele>
        <time>2022-12-07T10:50:52Z</time>
      </trkpt>
      <trkpt lat="47.94736" lon="-3.93144">
        <ele>105.2</ele>
        <time>2022-12-07T10:50:53Z</time>
      </trkpt>
      <trkpt lat="47.94737" lon="-3.93152">
        <ele>105.3</ele>
        <time>2022-12-07T10:50:54Z</time>
      </trkpt>
      <trkpt lat="47.94738" lon="-3.93161">
        <ele>105.3</ele>
        <time>2022-12-07T10:50:55Z</time>
      </trkpt>
      <trkpt lat="47.94738" lon="-3.9317">
        <ele>105.4</ele>
        <time>2022-12-07T10:50:56Z</time>
      </trkpt>
      <trkpt lat="47.94739" lon="-3.93179">
        <ele>105.5</ele>
        <time>2022-12-07T10:50:57Z</time>
      </trkpt>
      <trkpt lat="47.9474" lon="-3.93188">
        <ele>105.5</ele>
        <time>2022-12-07T10:50:58Z</time>
      </trkpt>
      <trkpt lat="47.94741" lon="-3.93198">
        <ele>105.6</ele>
        <time>2022-12-07T10:50:59Z</time>
      </trkpt>
      <trkpt lat="47.94742" lon="-3.93207">
        <ele>105.7</ele>
        <time>2022-12-07T10:51:00Z</time>
      </trkpt>
      <trkpt lat="47.94742" lon="-3.93216">
        <ele>105.8</ele>
        <time>2022-12-07T10:51:01Z</time>
      </trkpt>
      <trkpt lat="47.94743" lon="-3.93225">
        <ele>105.9</ele>
        <time>2022-12-07T10:51:02Z</time>
      </trkpt>
      <trkpt lat="47.94744" lon="-3.93234">
        <ele>106</ele>
        <time>2022-12-07T10:51:03Z</time>
      </trkpt>
      <trkpt lat="47.94744" lon="-3.93242">
        <ele>106.1</ele>
        <time>2022-12-07T10:51:04Z</time>
      </trkpt>
      <trkpt lat="47.94745" lon="-3.93251">
        <ele>106.2</ele>
        <time>2022-12-07T10:51:05Z</time>
      </trkpt>
      <trkpt lat="47.94745" lon="-3.93259">
        <ele>106.3</ele>
        <time>2022-12-07T10:51:06Z</time>
      </trkpt>
      <trkpt lat="47.94746" lon="-3.93267">
        <ele>106.4</ele>
        <time>2022-12-07T10:51:07Z</time>
      </trkpt>
      <trkpt lat="47.94747" lon="-3.93275">
        <ele>106.5</ele>
        <time>2022-12-07T10:51:08Z</time>
      </trkpt>
      <trkpt lat="47.94747" lon="-3.93284">
        <ele>106.6</ele>
        <time>2022-12-07T10:51:09Z</time>
      </trkpt>
      <trkpt lat="47.94748" lon="-3.93292">
        <ele>106.7</ele>
        <time>2022-12-07T10:51:10Z</time>
      </trkpt>
      <trkpt lat="47.94748" lon="-3.933">
        <ele>106.8</ele>
        <time>2022-12-07T10:51:11Z</time>
      </trkpt>
      <trkpt lat="47.94749" lon="-3.93308">
        <ele>106.9</ele>
        <time>2022-12-07T10:51:12Z</time>
      </trkpt>
      <trkpt lat="47.94749" lon="-3.93317">
        <ele>106.9</ele>
        <time>2022-12-07T10:51:13Z</time>
      </trkpt>
      <trkpt lat="47.9475" lon="-3.93326">
        <ele>107</ele>
        <time>2022-12-07T10:51:14Z</time>
      </trkpt>
      <trkpt lat="47.9475" lon="-3.93334">
        <ele>107</ele>
        <time>2022-12-07T10:51:15Z</time>
      </trkpt>
      <trkpt lat="47.94751" lon="-3.93343">
        <ele>107</ele>
        <time>2022-12-07T10:51:16Z</time>
      </trkpt>
      <trkpt lat="47.94751" lon="-3.93352">
        <ele>107</ele>
        <time>2022-12-07T10:51:17Z</time>
      </trkpt>
      <trkpt lat="47.94752" lon="-3.9336">
        <ele>107</ele>
        <time>2022-12-07T10:51:18Z</time>
      </trkpt>
      <trkpt lat="47.94752" lon="-3.93369">
        <ele>107</ele>
        <time>2022-12-07T10:51:19Z</time>
      </trkpt>
      <trkpt lat="47.94752" lon="-3.93378">
        <ele>106.9</ele>
        <time>2022-12-07T10:51:20Z</time>
      </trkpt>
      <trkpt lat="47.94752" lon="-3.93387">
        <ele>106.8</ele>
        <time>2022-12-07T10:51:21Z</time>
      </trkpt>
      <trkpt lat="47.94751" lon="-3.93396">
        <ele>106.7</ele>
        <time>2022-12-07T10:51:22Z</time>
      </trkpt>
      <trkpt lat="47.94748" lon="-3.93406">
        <ele>106.6</ele>
        <time>2022-12-07T10:51:23Z</time>
      </trkpt>
      <trkpt lat="47.94745" lon="-3.93415">
        <ele>106.5</ele>
        <time>2022-12-07T10:51:24Z</time>
      </trkpt>
      <trkpt lat="47.9474" lon="-3.93424">
        <ele>106.3</ele>
        <time>2022-12-07T10:51:25Z</time>
      </trkpt>
      <trkpt lat="47.94736" lon="-3.93432">
        <ele>106.2</ele>
        <time>2022-12-07T10:51:26Z</time>
      </trkpt>
      <trkpt lat="47.94731" lon="-3.93439">
        <ele>106.2</ele>
        <time>2022-12-07T10:51:27Z</time>
      </trkpt>
      <trkpt lat="47.94726" lon="-3.93447">
        <ele>106.2</ele>
        <time>2022-12-07T10:51:28Z</time>
      </trkpt>
      <trkpt lat="47.94721" lon="-3.93454">
        <ele>106.2</ele>
        <time>2022-12-07T10:51:29Z</time>
      </trkpt>
      <trkpt lat="47.94717" lon="-3.93462">
        <ele>106.3</ele>
        <time>2022-12-07T10:51:30Z</time>
      </trkpt>
      <trkpt lat="47.94712" lon="-3.93469">
        <ele>106.4</ele>
        <time>2022-12-07T10:51:31Z</time>
      </trkpt>
      <trkpt lat="47.94708" lon="-3.93476">
        <ele>106.5</ele>
        <time>2022-12-07T10:51:32Z</time>
      </trkpt>
      <trkpt lat="47.94703" lon="-3.93482">
        <ele>106.5</ele>
        <time>2022-12-07T10:51:33Z</time>
      </trkpt>
      <trkpt lat="47.94699" lon="-3.93489">
        <ele>106.6</ele>
        <time>2022-12-07T10:51:34Z</time>
      </trkpt>
      <trkpt lat="47.94694" lon="-3.93496">
        <ele>106.6</ele>
        <time>2022-12-07T10:51:35Z</time>
      </trkpt>
      <trkpt lat="47.9469" lon="-3.93502">
        <ele>106.6</ele>
        <time>2022-12-07T10:51:36Z</time>
      </trkpt>
      <trkpt lat="47.94686" lon="-3.93509">
        <ele>106.6</ele>
        <time>2022-12-07T10:51:37Z</time>
      </trkpt>
      <trkpt lat="47.94681" lon="-3.93515">
        <ele>106.7</ele>
        <time>2022-12-07T10:51:38Z</time>
      </trkpt>
      <trkpt lat="47.94677" lon="-3.93521">
        <ele>106.7</ele>
        <time>2022-12-07T10:51:39Z</time>
      </trkpt>
      <trkpt lat="47.94672" lon="-3.93529">
        <ele>106.7</ele>
        <time>2022-12-07T10:51:40Z</time>
      </trkpt>
      <trkpt lat="47.94668" lon="-3.93536">
        <ele>106.6</ele>
        <time>2022-12-07T10:51:41Z</time>
      </trkpt>
      <trkpt lat="47.94664" lon="-3.93543">
        <ele>106.6</ele>
        <time>2022-12-07T10:51:42Z</time>
      </trkpt>
      <trkpt lat="47.94659" lon="-3.93549">
        <ele>106.5</ele>
        <time>2022-12-07T10:51:43Z</time>
      </trkpt>
      <trkpt lat="47.94655" lon="-3.93557">
        <ele>106.4</ele>
        <time>2022-12-07T10:51:44Z</time>
      </trkpt>
      <trkpt lat="47.9465" lon="-3.93563">
        <ele>106.3</ele>
        <time>2022-12-07T10:51:45Z</time>
      </trkpt>
      <trkpt lat="47.94646" lon="-3.9357">
        <ele>106.2</ele>
        <time>2022-12-07T10:51:46Z</time>
      </trkpt>
      <trkpt lat="47.94642" lon="-3.93577">
        <ele>106.2</ele>
        <time>2022-12-07T10:51:47Z</time>
      </trkpt>
      <trkpt lat="47.94637" lon="-3.93584">
        <ele>106.1</ele>
        <time>2022-12-07T10:51:48Z</time>
      </trkpt>
      <trkpt lat="47.94632" lon="-3.93591">
        <ele>106</ele>
        <time>2022-12-07T10:51:49Z</time>
      </trkpt>
      <trkpt lat="47.94628" lon="-3.93598">
        <ele>105.8</ele>
        <time>2022-12-07T10:51:50Z</time>
      </trkpt>
      <trkpt lat="47.94623" lon="-3.93605">
        <ele>105.7</ele>
        <time>2022-12-07T10:51:51Z</time>
      </trkpt>
      <trkpt lat="47.94618" lon="-3.93612">
        <ele>105.5</ele>
        <time>2022-12-07T10:51:52Z</time>
      </trkpt>
      <trkpt lat="47.94613" lon="-3.93619">
        <ele>105.2</ele>
        <time>2022-12-07T10:51:53Z</time>
      </trkpt>
      <trkpt lat="47.94608" lon="-3.93627">
        <ele>104.7</ele>
        <time>2022-12-07T10:51:54Z</time>
      </trkpt>
      <trkpt lat="47.94603" lon="-3.93635">
        <ele>104.3</ele>
        <time>2022-12-07T10:51:55Z</time>
      </trkpt>
      <trkpt lat="47.94597" lon="-3.93643">
        <ele>103.7</ele>
        <time>2022-12-07T10:51:56Z</time>
      </trkpt>
      <trkpt lat="47.94591" lon="-3.93652">
        <ele>103.1</ele>
        <time>2022-12-07T10:51:57Z</time>
      </trkpt>
      <trkpt lat="47.94585" lon="-3.93661">
        <ele>102.5</ele>
        <time>2022-12-07T10:51:58Z</time>
      </trkpt>
      <trkpt lat="47.94579" lon="-3.93671">
        <ele>101.8</ele>
        <time>2022-12-07T10:51:59Z</time>
      </trkpt>
      <trkpt lat="47.94572" lon="-3.93681">
        <ele>101.1</ele>
        <time>2022-12-07T10:52:00Z</time>
      </trkpt>
      <trkpt lat="47.94566" lon="-3.93691">
        <ele>100.4</ele>
        <time>2022-12-07T10:52:01Z</time>
      </trkpt>
      <trkpt lat="47.94559" lon="-3.93702">
        <ele>99.7</ele>
        <time>2022-12-07T10:52:02Z</time>
      </trkpt>
      <trkpt lat="47.94552" lon="-3.93714">
        <ele>99.1</ele>
        <time>2022-12-07T10:52:03Z</time>
      </trkpt>
      <trkpt lat="47.94547" lon="-3.93726">
        <ele>98.6</ele>
        <time>2022-12-07T10:52:04Z</time>
      </trkpt>
      <trkpt lat="47.94542" lon="-3.93739">
        <ele>98.2</ele>
        <time>2022-12-07T10:52:05Z</time>
      </trkpt>
      <trkpt lat="47.94537" lon="-3.93752">
        <ele>97.9</ele>
        <time>2022-12-07T10:52:06Z</time>
      </trkpt>
      <trkpt lat="47.94534" lon="-3.93765">
        <ele>97.6</ele>
        <time>2022-12-07T10:52:07Z</time>
      </trkpt>
      <trkpt lat="47.94531" lon="-3.93779">
        <ele>97.5</ele>
        <time>2022-12-07T10:52:08Z</time>
      </trkpt>
      <trkpt lat="47.94529" lon="-3.93792">
        <ele>97.4</ele>
        <time>2022-12-07T10:52:09Z</time>
      </trkpt>
      <trkpt lat="47.94528" lon="-3.93805">
        <ele>97.4</ele>
        <time>2022-12-07T10:52:10Z</time>
      </trkpt>
      <trkpt lat="47.94527" lon="-3.93818">
        <ele>97.5</ele>
        <time>2022-12-07T10:52:11Z</time>
      </trkpt>
      <trkpt lat="47.94526" lon="-3.9383">
        <ele>97.6</ele>
        <time>2022-12-07T10:52:12Z</time>
      </trkpt>
      <trkpt lat="47.94523" lon="-3.93841">
        <ele>97.7</ele>
        <time>2022-12-07T10:52:13Z</time>
      </trkpt>
      <trkpt lat="47.94521" lon="-3.93852">
        <ele>97.8</ele>
        <time>2022-12-07T10:52:14Z</time>
      </trkpt>
      <trkpt lat="47.94517" lon="-3.93861">
        <ele>97.8</ele>
        <time>2022-12-07T10:52:15Z</time>
      </trkpt>
      <trkpt lat="47.94512" lon="-3.9387">
        <ele>97.8</ele>
        <time>2022-12-07T10:52:16Z</time>
      </trkpt>
      <trkpt lat="47.94507" lon="-3.93877">
        <ele>97.8</ele>
        <time>2022-12-07T10:52:17Z</time>
      </trkpt>
      <trkpt lat="47.945" lon="-3.93882">
        <ele>97.7</ele>
        <time>2022-12-07T10:52:18Z</time>
      </trkpt>
      <trkpt lat="47.94492" lon="-3.93885">
        <ele>97.7</ele>
        <time>2022-12-07T10:52:19Z</time>
      </trkpt>
      <trkpt lat="47.94485" lon="-3.93887">
        <ele>97.6</ele>
        <time>2022-12-07T10:52:20Z</time>
      </trkpt>
      <trkpt lat="47.94478" lon="-3.93889">
        <ele>97.5</ele>
        <time>2022-12-07T10:52:21Z</time>
      </trkpt>
      <trkpt lat="47.9447" lon="-3.93891">
        <ele>97.5</ele>
        <time>2022-12-07T10:52:22Z</time>
      </trkpt>
      <trkpt lat="47.94462" lon="-3.93893">
        <ele>97.4</ele>
        <time>2022-12-07T10:52:23Z</time>
      </trkpt>
      <trkpt lat="47.94455" lon="-3.93895">
        <ele>97.4</ele>
        <time>2022-12-07T10:52:24Z</time>
      </trkpt>
      <trkpt lat="47.94447" lon="-3.93897">
        <ele>97.4</ele>
        <time>2022-12-07T10:52:25Z</time>
      </trkpt>
      <trkpt lat="47.9444" lon="-3.93899">
        <ele>97.4</ele>
        <time>2022-12-07T10:52:26Z</time>
      </trkpt>
      <trkpt lat="47.94433" lon="-3.93901">
        <ele>97.4</ele>
        <time>2022-12-07T10:52:27Z</time>
      </trkpt>
      <trkpt lat="47.94426" lon="-3.93903">
        <ele>97.4</ele>
        <time>2022-12-07T10:52:28Z</time>
      </trkpt>
      <trkpt lat="47.94418" lon="-3.93906">
        <ele>97.4</ele>
        <time>2022-12-07T10:52:29Z</time>
      </trkpt>
      <trkpt lat="47.94411" lon="-3.93908">
        <ele>97.4</ele>
        <time>2022-12-07T10:52:30Z</time>
      </trkpt>
      <trkpt lat="47.94404" lon="-3.9391">
        <ele>97.5</ele>
        <time>2022-12-07T10:52:31Z</time>
      </trkpt>
      <trkpt lat="47.94397" lon="-3.93911">
        <ele>97.5</ele>
        <time>2022-12-07T10:52:32Z</time>
      </trkpt>
      <trkpt lat="47.94391" lon="-3.93913">
        <ele>97.5</ele>
        <time>2022-12-07T10:52:33Z</time>
      </trkpt>
      <trkpt lat="47.94384" lon="-3.93915">
        <ele>97.4</ele>
        <time>2022-12-07T10:52:34Z</time>
      </trkpt>
      <trkpt lat="47.94378" lon="-3.93918">
        <ele>97.4</ele>
        <time>2022-12-07T10:52:35Z</time>
      </trkpt>
      <trkpt lat="47.94372" lon="-3.93923">
        <ele>97.3</ele>
        <time>2022-12-07T10:52:36Z</time>
      </trkpt>
      <trkpt lat="47.94367" lon="-3.93929">
        <ele>97.3</ele>
        <time>2022-12-07T10:52:37Z</time>
      </trkpt>
      <trkpt lat="47.94362" lon="-3.93936">
        <ele>97.2</ele>
        <time>2022-12-07T10:52:38Z</time>
      </trkpt>
      <trkpt lat="47.94358" lon="-3.93944">
        <ele>97.1</ele>
        <time>2022-12-07T10:52:39Z</time>
      </trkpt>
      <trkpt lat="47.94355" lon="-3.93954">
        <ele>97</ele>
        <time>2022-12-07T10:52:40Z</time>
      </trkpt>
      <trkpt lat="47.94353" lon="-3.93963">
        <ele>96.9</ele>
        <time>2022-12-07T10:52:41Z</time>
      </trkpt>
      <trkpt lat="47.94352" lon="-3.93973">
        <ele>96.7</ele>
        <time>2022-12-07T10:52:42Z</time>
      </trkpt>
      <trkpt lat="47.9435" lon="-3.93983">
        <ele>96.5</ele>
        <time>2022-12-07T10:52:43Z</time>
      </trkpt>
      <trkpt lat="47.94349" lon="-3.93993">
        <ele>96.3</ele>
        <time>2022-12-07T10:52:44Z</time>
      </trkpt>
      <trkpt lat="47.94347" lon="-3.94003">
        <ele>96.1</ele>
        <time>2022-12-07T10:52:45Z</time>
      </trkpt>
      <trkpt lat="47.94346" lon="-3.94014">
        <ele>95.9</ele>
        <time>2022-12-07T10:52:46Z</time>
      </trkpt>
      <trkpt lat="47.94345" lon="-3.94025">
        <ele>95.7</ele>
        <time>2022-12-07T10:52:47Z</time>
      </trkpt>
      <trkpt lat="47.94344" lon="-3.94035">
        <ele>95.4</ele>
        <time>2022-12-07T10:52:48Z</time>
      </trkpt>
      <trkpt lat="47.94343" lon="-3.94046">
        <ele>95.1</ele>
        <time>2022-12-07T10:52:49Z</time>
      </trkpt>
      <trkpt lat="47.94341" lon="-3.94057">
        <ele>94.9</ele>
        <time>2022-12-07T10:52:50Z</time>
      </trkpt>
      <trkpt lat="47.9434" lon="-3.94068">
        <ele>94.6</ele>
        <time>2022-12-07T10:52:51Z</time>
      </trkpt>
      <trkpt lat="47.94338" lon="-3.94079">
        <ele>94.3</ele>
        <time>2022-12-07T10:52:52Z</time>
      </trkpt>
      <trkpt lat="47.94336" lon="-3.94089">
        <ele>94.1</ele>
        <time>2022-12-07T10:52:53Z</time>
      </trkpt>
      <trkpt lat="47.94332" lon="-3.941">
        <ele>93.8</ele>
        <time>2022-12-07T10:52:54Z</time>
      </trkpt>
      <trkpt lat="47.94327" lon="-3.94109">
        <ele>93.5</ele>
        <time>2022-12-07T10:52:55Z</time>
      </trkpt>
      <trkpt lat="47.94322" lon="-3.94118">
        <ele>93.2</ele>
        <time>2022-12-07T10:52:56Z</time>
      </trkpt>
      <trkpt lat="47.94315" lon="-3.94123">
        <ele>93</ele>
        <time>2022-12-07T10:52:57Z</time>
      </trkpt>
      <trkpt lat="47.94308" lon="-3.94127">
        <ele>92.7</ele>
        <time>2022-12-07T10:52:58Z</time>
      </trkpt>
      <trkpt lat="47.943" lon="-3.94129">
        <ele>92.4</ele>
        <time>2022-12-07T10:52:59Z</time>
      </trkpt>
      <trkpt lat="47.94292" lon="-3.94131">
        <ele>92.1</ele>
        <time>2022-12-07T10:53:00Z</time>
      </trkpt>
      <trkpt lat="47.94283" lon="-3.94133">
        <ele>91.9</ele>
        <time>2022-12-07T10:53:01Z</time>
      </trkpt>
      <trkpt lat="47.94275" lon="-3.94134">
        <ele>91.6</ele>
        <time>2022-12-07T10:53:02Z</time>
      </trkpt>
      <trkpt lat="47.94268" lon="-3.94136">
        <ele>91.3</ele>
        <time>2022-12-07T10:53:03Z</time>
      </trkpt>
      <trkpt lat="47.9426" lon="-3.94138">
        <ele>91</ele>
        <time>2022-12-07T10:53:04Z</time>
      </trkpt>
      <trkpt lat="47.94252" lon="-3.94141">
        <ele>90.7</ele>
        <time>2022-12-07T10:53:05Z</time>
      </trkpt>
      <trkpt lat="47.94245" lon="-3.94144">
        <ele>90.4</ele>
        <time>2022-12-07T10:53:06Z</time>
      </trkpt>
      <trkpt lat="47.94238" lon="-3.94148">
        <ele>90.3</ele>
        <time>2022-12-07T10:53:07Z</time>
      </trkpt>
      <trkpt lat="47.9423" lon="-3.94155">
        <ele>90.1</ele>
        <time>2022-12-07T10:53:08Z</time>
      </trkpt>
      <trkpt lat="47.94225" lon="-3.94166">
        <ele>89.9</ele>
        <time>2022-12-07T10:53:09Z</time>
      </trkpt>
      <trkpt lat="47.94222" lon="-3.94179">
        <ele>89.5</ele>
        <time>2022-12-07T10:53:10Z</time>
      </trkpt>
      <trkpt lat="47.9422" lon="-3.94191">
        <ele>89.2</ele>
        <time>2022-12-07T10:53:11Z</time>
      </trkpt>
      <trkpt lat="47.94218" lon="-3.94202">
        <ele>88.9</ele>
        <time>2022-12-07T10:53:12Z</time>
      </trkpt>
      <trkpt lat="47.94217" lon="-3.94213">
        <ele>88.7</ele>
        <time>2022-12-07T10:53:13Z</time>
      </trkpt>
      <trkpt lat="47.94215" lon="-3.94227">
        <ele>88.3</ele>
        <time>2022-12-07T10:53:14Z</time>
      </trkpt>
      <trkpt lat="47.94215" lon="-3.94242">
        <ele>88</ele>
        <time>2022-12-07T10:53:15Z</time>
      </trkpt>
      <trkpt lat="47.94214" lon="-3.94255">
        <ele>87.7</ele>
        <time>2022-12-07T10:53:16Z</time>
      </trkpt>
      <trkpt lat="47.94212" lon="-3.94264">
        <ele>87.5</ele>
        <time>2022-12-07T10:53:17Z</time>
      </trkpt>
      <trkpt lat="47.94211" lon="-3.9427">
        <ele>87.3</ele>
        <time>2022-12-07T10:53:18Z</time>
      </trkpt>
      <trkpt lat="47.94209" lon="-3.94275">
        <ele>87.2</ele>
        <time>2022-12-07T10:53:19Z</time>
      </trkpt>
      <trkpt lat="47.94208" lon="-3.94281">
        <ele>87</ele>
        <time>2022-12-07T10:53:20Z</time>
      </trkpt>
      <trkpt lat="47.94207" lon="-3.94284">
        <ele>86.9</ele>
        <time>2022-12-07T10:53:21Z</time>
      </trkpt>
      <trkpt lat="47.94206" lon="-3.9429">
        <ele>86.6</ele>
        <time>2022-12-07T10:53:22Z</time>
      </trkpt>
      <trkpt lat="47.94204" lon="-3.94299">
        <ele>86.4</ele>
        <time>2022-12-07T10:53:23Z</time>
      </trkpt>
      <trkpt lat="47.94202" lon="-3.94307">
        <ele>86.2</ele>
        <time>2022-12-07T10:53:24Z</time>
      </trkpt>
      <trkpt lat="47.94201" lon="-3.94314">
        <ele>86</ele>
        <time>2022-12-07T10:53:25Z</time>
      </trkpt>
      <trkpt lat="47.942" lon="-3.94321">
        <ele>85.8</ele>
        <time>2022-12-07T10:53:26Z</time>
      </trkpt>
      <trkpt lat="47.94199" lon="-3.94328">
        <ele>85.7</ele>
        <time>2022-12-07T10:53:27Z</time>
      </trkpt>
      <trkpt lat="47.94197" lon="-3.94335">
        <ele>85.5</ele>
        <time>2022-12-07T10:53:28Z</time>
      </trkpt>
      <trkpt lat="47.94195" lon="-3.94342">
        <ele>85.3</ele>
        <time>2022-12-07T10:53:29Z</time>
      </trkpt>
      <trkpt lat="47.94193" lon="-3.94348">
        <ele>85.2</ele>
        <time>2022-12-07T10:53:30Z</time>
      </trkpt>
      <trkpt lat="47.94192" lon="-3.94355">
        <ele>85.1</ele>
        <time>2022-12-07T10:53:31Z</time>
      </trkpt>
      <trkpt lat="47.9419" lon="-3.94362">
        <ele>85</ele>
        <time>2022-12-07T10:53:32Z</time>
      </trkpt>
      <trkpt lat="47.94189" lon="-3.94369">
        <ele>84.9</ele>
        <time>2022-12-07T10:53:33Z</time>
      </trkpt>
      <trkpt lat="47.94187" lon="-3.94376">
        <ele>84.8</ele>
        <time>2022-12-07T10:53:34Z</time>
      </trkpt>
      <trkpt lat="47.94185" lon="-3.94383">
        <ele>84.8</ele>
        <time>2022-12-07T10:53:35Z</time>
      </trkpt>
      <trkpt lat="47.94184" lon="-3.9439">
        <ele>84.8</ele>
        <time>2022-12-07T10:53:36Z</time>
      </trkpt>
      <trkpt lat="47.94182" lon="-3.94398">
        <ele>84.8</ele>
        <time>2022-12-07T10:53:37Z</time>
      </trkpt>
      <trkpt lat="47.94181" lon="-3.94406">
        <ele>84.8</ele>
        <time>2022-12-07T10:53:38Z</time>
      </trkpt>
      <trkpt lat="47.94179" lon="-3.94413">
        <ele>84.8</ele>
        <time>2022-12-07T10:53:39Z</time>
      </trkpt>
      <trkpt lat="47.94177" lon="-3.9442">
        <ele>84.9</ele>
        <time>2022-12-07T10:53:40Z</time>
      </trkpt>
      <trkpt lat="47.94176" lon="-3.94427">
        <ele>84.9</ele>
        <time>2022-12-07T10:53:41Z</time>
      </trkpt>
      <trkpt lat="47.94173" lon="-3.94435">
        <ele>85</ele>
        <time>2022-12-07T10:53:42Z</time>
      </trkpt>
      <trkpt lat="47.94172" lon="-3.94441">
        <ele>85.1</ele>
        <time>2022-12-07T10:53:43Z</time>
      </trkpt>
      <trkpt lat="47.9417" lon="-3.94448">
        <ele>85.1</ele>
        <time>2022-12-07T10:53:44Z</time>
      </trkpt>
      <trkpt lat="47.94168" lon="-3.94454">
        <ele>85.2</ele>
        <time>2022-12-07T10:53:45Z</time>
      </trkpt>
      <trkpt lat="47.94166" lon="-3.9446">
        <ele>85.3</ele>
        <time>2022-12-07T10:53:46Z</time>
      </trkpt>
      <trkpt lat="47.94164" lon="-3.94467">
        <ele>85.4</ele>
        <time>2022-12-07T10:53:47Z</time>
      </trkpt>
      <trkpt lat="47.94163" lon="-3.94474">
        <ele>85.5</ele>
        <time>2022-12-07T10:53:48Z</time>
      </trkpt>
      <trkpt lat="47.94161" lon="-3.94479">
        <ele>85.6</ele>
        <time>2022-12-07T10:53:49Z</time>
      </trkpt>
      <trkpt lat="47.94159" lon="-3.94485">
        <ele>85.7</ele>
        <time>2022-12-07T10:53:50Z</time>
      </trkpt>
      <trkpt lat="47.94157" lon="-3.94493">
        <ele>85.9</ele>
        <time>2022-12-07T10:53:51Z</time>
      </trkpt>
      <trkpt lat="47.94156" lon="-3.945">
        <ele>86</ele>
        <time>2022-12-07T10:53:52Z</time>
      </trkpt>
      <trkpt lat="47.94154" lon="-3.94507">
        <ele>86.2</ele>
        <time>2022-12-07T10:53:53Z</time>
      </trkpt>
      <trkpt lat="47.94153" lon="-3.94513">
        <ele>86.4</ele>
        <time>2022-12-07T10:53:54Z</time>
      </trkpt>
      <trkpt lat="47.94152" lon="-3.94522">
        <ele>86.6</ele>
        <time>2022-12-07T10:53:55Z</time>
      </trkpt>
      <trkpt lat="47.94152" lon="-3.94527">
        <ele>86.7</ele>
        <time>2022-12-07T10:53:56Z</time>
      </trkpt>
      <trkpt lat="47.9415" lon="-3.94532">
        <ele>86.9</ele>
        <time>2022-12-07T10:53:57Z</time>
      </trkpt>
      <trkpt lat="47.94148" lon="-3.94541">
        <ele>87.2</ele>
        <time>2022-12-07T10:53:59Z</time>
      </trkpt>
      <trkpt lat="47.94146" lon="-3.94547">
        <ele>87.4</ele>
        <time>2022-12-07T10:54:00Z</time>
      </trkpt>
      <trkpt lat="47.94144" lon="-3.94556">
        <ele>87.7</ele>
        <time>2022-12-07T10:54:02Z</time>
      </trkpt>
      <trkpt lat="47.94143" lon="-3.94562">
        <ele>87.9</ele>
        <time>2022-12-07T10:54:03Z</time>
      </trkpt>
      <trkpt lat="47.94142" lon="-3.94569">
        <ele>88.1</ele>
        <time>2022-12-07T10:54:04Z</time>
      </trkpt>
      <trkpt lat="47.9414" lon="-3.94574">
        <ele>88.3</ele>
        <time>2022-12-07T10:54:05Z</time>
      </trkpt>
      <trkpt lat="47.94139" lon="-3.94579">
        <ele>88.4</ele>
        <time>2022-12-07T10:54:06Z</time>
      </trkpt>
      <trkpt lat="47.94138" lon="-3.94585">
        <ele>88.5</ele>
        <time>2022-12-07T10:54:07Z</time>
      </trkpt>
      <trkpt lat="47.94136" lon="-3.94589">
        <ele>88.5</ele>
        <time>2022-12-07T10:54:08Z</time>
      </trkpt>
      <trkpt lat="47.94134" lon="-3.94595">
        <ele>88.5</ele>
        <time>2022-12-07T10:54:09Z</time>
      </trkpt>
      <trkpt lat="47.94133" lon="-3.94599">
        <ele>88.5</ele>
        <time>2022-12-07T10:54:10Z</time>
      </trkpt>
      <trkpt lat="47.9413" lon="-3.94608">
        <ele>88.5</ele>
        <time>2022-12-07T10:54:11Z</time>
      </trkpt>
      <trkpt lat="47.94128" lon="-3.94616">
        <ele>88.3</ele>
        <time>2022-12-07T10:54:13Z</time>
      </trkpt>
      <trkpt lat="47.94127" lon="-3.9462">
        <ele>88.2</ele>
        <time>2022-12-07T10:54:14Z</time>
      </trkpt>
      <trkpt lat="47.94127" lon="-3.9462">
        <ele>88.1</ele>
        <time>2022-12-07T10:54:15Z</time>
      </trkpt>
      <trkpt lat="47.94127" lon="-3.94621">
        <ele>88.1</ele>
        <time>2022-12-07T10:54:16Z</time>
      </trkpt>
      <trkpt lat="47.94126" lon="-3.94621">
        <ele>88.1</ele>
        <time>2022-12-07T10:54:17Z</time>
      </trkpt>
      <trkpt lat="47.94126" lon="-3.94622">
        <ele>88.1</ele>
        <time>2022-12-07T10:54:18Z</time>
      </trkpt>
      <trkpt lat="47.94126" lon="-3.94622">
        <ele>88.1</ele>
        <time>2022-12-07T10:54:19Z</time>
      </trkpt>
      <trkpt lat="47.94126" lon="-3.94623">
        <ele>88</ele>
        <time>2022-12-07T10:54:20Z</time>
      </trkpt>
      <trkpt lat="47.94126" lon="-3.94623">
        <ele>88</ele>
        <time>2022-12-07T10:54:21Z</time>
      </trkpt>
      <trkpt lat="47.94126" lon="-3.94624">
        <ele>88</ele>
        <time>2022-12-07T10:54:22Z</time>
      </trkpt>
      <trkpt lat="47.94126" lon="-3.94624">
        <ele>88</ele>
        <time>2022-12-07T10:54:23Z</time>
      </trkpt>
      <trkpt lat="47.94126" lon="-3.94625">
        <ele>88</ele>
        <time>2022-12-07T10:54:24Z</time>
      </trkpt>
      <trkpt lat="47.94125" lon="-3.94625">
        <ele>87.9</ele>
        <time>2022-12-07T10:55:44Z</time>
      </trkpt>
      <trkpt lat="47.94125" lon="-3.94626">
        <ele>87.9</ele>
        <time>2022-12-07T10:55:45Z</time>
      </trkpt>
      <trkpt lat="47.94125" lon="-3.94626">
        <ele>87.9</ele>
        <time>2022-12-07T10:55:46Z</time>
      </trkpt>
      <trkpt lat="47.94124" lon="-3.9463">
        <ele>87.7</ele>
        <time>2022-12-07T10:55:47Z</time>
      </trkpt>
      <trkpt lat="47.94122" lon="-3.94635">
        <ele>87.4</ele>
        <time>2022-12-07T10:55:48Z</time>
      </trkpt>
      <trkpt lat="47.94122" lon="-3.94637">
        <ele>87.3</ele>
        <time>2022-12-07T10:55:49Z</time>
      </trkpt>
      <trkpt lat="47.94119" lon="-3.94644">
        <ele>86.9</ele>
        <time>2022-12-07T10:55:50Z</time>
      </trkpt>
      <trkpt lat="47.94116" lon="-3.94653">
        <ele>86.3</ele>
        <time>2022-12-07T10:55:51Z</time>
      </trkpt>
      <trkpt lat="47.94112" lon="-3.94661">
        <ele>85.8</ele>
        <time>2022-12-07T10:55:52Z</time>
      </trkpt>
      <trkpt lat="47.94108" lon="-3.94668">
        <ele>85.2</ele>
        <time>2022-12-07T10:55:53Z</time>
      </trkpt>
      <trkpt lat="47.94104" lon="-3.94675">
        <ele>84.6</ele>
        <time>2022-12-07T10:55:54Z</time>
      </trkpt>
      <trkpt lat="47.941" lon="-3.94683">
        <ele>84.1</ele>
        <time>2022-12-07T10:55:55Z</time>
      </trkpt>
      <trkpt lat="47.94098" lon="-3.9469">
        <ele>83.8</ele>
        <time>2022-12-07T10:55:56Z</time>
      </trkpt>
      <trkpt lat="47.94097" lon="-3.94697">
        <ele>83.5</ele>
        <time>2022-12-07T10:55:57Z</time>
      </trkpt>
      <trkpt lat="47.94096" lon="-3.94705">
        <ele>83.3</ele>
        <time>2022-12-07T10:55:58Z</time>
      </trkpt>
      <trkpt lat="47.94095" lon="-3.94713">
        <ele>83.2</ele>
        <time>2022-12-07T10:55:59Z</time>
      </trkpt>
      <trkpt lat="47.94095" lon="-3.9472">
        <ele>83.2</ele>
        <time>2022-12-07T10:56:00Z</time>
      </trkpt>
      <trkpt lat="47.94094" lon="-3.94728">
        <ele>83.2</ele>
        <time>2022-12-07T10:56:01Z</time>
      </trkpt>
      <trkpt lat="47.94093" lon="-3.94735">
        <ele>83.3</ele>
        <time>2022-12-07T10:56:02Z</time>
      </trkpt>
      <trkpt lat="47.94092" lon="-3.94742">
        <ele>83.4</ele>
        <time>2022-12-07T10:56:03Z</time>
      </trkpt>
      <trkpt lat="47.94089" lon="-3.94749">
        <ele>83.6</ele>
        <time>2022-12-07T10:56:04Z</time>
      </trkpt>
      <trkpt lat="47.94087" lon="-3.94755">
        <ele>83.8</ele>
        <time>2022-12-07T10:56:05Z</time>
      </trkpt>
      <trkpt lat="47.94086" lon="-3.94762">
        <ele>84.1</ele>
        <time>2022-12-07T10:56:06Z</time>
      </trkpt>
      <trkpt lat="47.94084" lon="-3.94767">
        <ele>84.4</ele>
        <time>2022-12-07T10:56:07Z</time>
      </trkpt>
      <trkpt lat="47.94083" lon="-3.94772">
        <ele>84.7</ele>
        <time>2022-12-07T10:56:08Z</time>
      </trkpt>
      <trkpt lat="47.94081" lon="-3.94779">
        <ele>85.1</ele>
        <time>2022-12-07T10:56:09Z</time>
      </trkpt>
      <trkpt lat="47.94081" lon="-3.94782">
        <ele>85.3</ele>
        <time>2022-12-07T10:56:10Z</time>
      </trkpt>
      <trkpt lat="47.94079" lon="-3.94787">
        <ele>85.7</ele>
        <time>2022-12-07T10:56:11Z</time>
      </trkpt>
      <trkpt lat="47.94079" lon="-3.94793">
        <ele>86.1</ele>
        <time>2022-12-07T10:56:12Z</time>
      </trkpt>
      <trkpt lat="47.94079" lon="-3.94795">
        <ele>86.3</ele>
        <time>2022-12-07T10:56:13Z</time>
      </trkpt>
      <trkpt lat="47.94077" lon="-3.94799">
        <ele>86.6</ele>
        <time>2022-12-07T10:56:14Z</time>
      </trkpt>
      <trkpt lat="47.94077" lon="-3.94801">
        <ele>86.7</ele>
        <time>2022-12-07T10:56:15Z</time>
      </trkpt>
      <trkpt lat="47.94079" lon="-3.94809">
        <ele>87.4</ele>
        <time>2022-12-07T10:56:16Z</time>
      </trkpt>
      <trkpt lat="47.94081" lon="-3.94815">
        <ele>87.8</ele>
        <time>2022-12-07T10:56:17Z</time>
      </trkpt>
      <trkpt lat="47.94084" lon="-3.94822">
        <ele>88.4</ele>
        <time>2022-12-07T10:56:19Z</time>
      </trkpt>
      <trkpt lat="47.94085" lon="-3.94827">
        <ele>88.7</ele>
        <time>2022-12-07T10:56:20Z</time>
      </trkpt>
      <trkpt lat="47.94087" lon="-3.94831">
        <ele>88.9</ele>
        <time>2022-12-07T10:56:21Z</time>
      </trkpt>
      <trkpt lat="47.94088" lon="-3.94835">
        <ele>89.2</ele>
        <time>2022-12-07T10:56:22Z</time>
      </trkpt>
      <trkpt lat="47.9409" lon="-3.94841">
        <ele>89.4</ele>
        <time>2022-12-07T10:56:23Z</time>
      </trkpt>
      <trkpt lat="47.94091" lon="-3.94847">
        <ele>89.7</ele>
        <time>2022-12-07T10:56:25Z</time>
      </trkpt>
      <trkpt lat="47.94093" lon="-3.94854">
        <ele>89.9</ele>
        <time>2022-12-07T10:56:26Z</time>
      </trkpt>
      <trkpt lat="47.94094" lon="-3.9486">
        <ele>90</ele>
        <time>2022-12-07T10:56:27Z</time>
      </trkpt>
      <trkpt lat="47.94094" lon="-3.94865">
        <ele>90.1</ele>
        <time>2022-12-07T10:56:28Z</time>
      </trkpt>
      <trkpt lat="47.94095" lon="-3.9487">
        <ele>90.2</ele>
        <time>2022-12-07T10:56:29Z</time>
      </trkpt>
      <trkpt lat="47.94096" lon="-3.94875">
        <ele>90.4</ele>
        <time>2022-12-07T10:56:30Z</time>
      </trkpt>
      <trkpt lat="47.94097" lon="-3.9488">
        <ele>90.5</ele>
        <time>2022-12-07T10:56:31Z</time>
      </trkpt>
      <trkpt lat="47.94098" lon="-3.94886">
        <ele>90.6</ele>
        <time>2022-12-07T10:56:32Z</time>
      </trkpt>
      <trkpt lat="47.941" lon="-3.94892">
        <ele>90.8</ele>
        <time>2022-12-07T10:56:33Z</time>
      </trkpt>
      <trkpt lat="47.94101" lon="-3.94898">
        <ele>90.9</ele>
        <time>2022-12-07T10:56:34Z</time>
      </trkpt>
      <trkpt lat="47.94102" lon="-3.94903">
        <ele>91</ele>
        <time>2022-12-07T10:56:35Z</time>
      </trkpt>
      <trkpt lat="47.94103" lon="-3.94909">
        <ele>91.1</ele>
        <time>2022-12-07T10:56:36Z</time>
      </trkpt>
      <trkpt lat="47.94103" lon="-3.94915">
        <ele>91.3</ele>
        <time>2022-12-07T10:56:37Z</time>
      </trkpt>
      <trkpt lat="47.94104" lon="-3.9492">
        <ele>91.4</ele>
        <time>2022-12-07T10:56:38Z</time>
      </trkpt>
      <trkpt lat="47.94106" lon="-3.94925">
        <ele>91.5</ele>
        <time>2022-12-07T10:56:39Z</time>
      </trkpt>
      <trkpt lat="47.94107" lon="-3.94929">
        <ele>91.6</ele>
        <time>2022-12-07T10:56:40Z</time>
      </trkpt>
      <trkpt lat="47.94108" lon="-3.94934">
        <ele>91.8</ele>
        <time>2022-12-07T10:56:41Z</time>
      </trkpt>
      <trkpt lat="47.9411" lon="-3.9494">
        <ele>91.9</ele>
        <time>2022-12-07T10:56:42Z</time>
      </trkpt>
      <trkpt lat="47.94111" lon="-3.94945">
        <ele>92.1</ele>
        <time>2022-12-07T10:56:43Z</time>
      </trkpt>
      <trkpt lat="47.94112" lon="-3.94951">
        <ele>92.2</ele>
        <time>2022-12-07T10:56:44Z</time>
      </trkpt>
      <trkpt lat="47.94113" lon="-3.94956">
        <ele>92.3</ele>
        <time>2022-12-07T10:56:45Z</time>
      </trkpt>
      <trkpt lat="47.94114" lon="-3.94962">
        <ele>92.4</ele>
        <time>2022-12-07T10:56:46Z</time>
      </trkpt>
      <trkpt lat="47.94114" lon="-3.94968">
        <ele>92.6</ele>
        <time>2022-12-07T10:56:47Z</time>
      </trkpt>
      <trkpt lat="47.94115" lon="-3.94973">
        <ele>92.7</ele>
        <time>2022-12-07T10:56:48Z</time>
      </trkpt>
      <trkpt lat="47.94116" lon="-3.94978">
        <ele>92.8</ele>
        <time>2022-12-07T10:56:49Z</time>
      </trkpt>
      <trkpt lat="47.94117" lon="-3.94985">
        <ele>92.9</ele>
        <time>2022-12-07T10:56:50Z</time>
      </trkpt>
      <trkpt lat="47.94117" lon="-3.94988">
        <ele>93</ele>
        <time>2022-12-07T10:56:51Z</time>
      </trkpt>
      <trkpt lat="47.94118" lon="-3.94993">
        <ele>93.1</ele>
        <time>2022-12-07T10:56:52Z</time>
      </trkpt>
      <trkpt lat="47.94119" lon="-3.94999">
        <ele>93.2</ele>
        <time>2022-12-07T10:56:53Z</time>
      </trkpt>
      <trkpt lat="47.94119" lon="-3.95005">
        <ele>93.3</ele>
        <time>2022-12-07T10:56:54Z</time>
      </trkpt>
      <trkpt lat="47.9412" lon="-3.95011">
        <ele>93.4</ele>
        <time>2022-12-07T10:56:55Z</time>
      </trkpt>
      <trkpt lat="47.94121" lon="-3.95016">
        <ele>93.5</ele>
        <time>2022-12-07T10:56:56Z</time>
      </trkpt>
      <trkpt lat="47.94122" lon="-3.95023">
        <ele>93.6</ele>
        <time>2022-12-07T10:56:57Z</time>
      </trkpt>
      <trkpt lat="47.94123" lon="-3.95028">
        <ele>93.6</ele>
        <time>2022-12-07T10:56:58Z</time>
      </trkpt>
      <trkpt lat="47.94124" lon="-3.95035">
        <ele>93.7</ele>
        <time>2022-12-07T10:56:59Z</time>
      </trkpt>
      <trkpt lat="47.94125" lon="-3.95039">
        <ele>93.8</ele>
        <time>2022-12-07T10:57:00Z</time>
      </trkpt>
      <trkpt lat="47.94126" lon="-3.95045">
        <ele>93.9</ele>
        <time>2022-12-07T10:57:01Z</time>
      </trkpt>
      <trkpt lat="47.94128" lon="-3.95054">
        <ele>94</ele>
        <time>2022-12-07T10:57:03Z</time>
      </trkpt>
      <trkpt lat="47.94129" lon="-3.9506">
        <ele>94.1</ele>
        <time>2022-12-07T10:57:04Z</time>
      </trkpt>
      <trkpt lat="47.94133" lon="-3.95069">
        <ele>94.3</ele>
        <time>2022-12-07T10:57:06Z</time>
      </trkpt>
      <trkpt lat="47.94138" lon="-3.95075">
        <ele>94.4</ele>
        <time>2022-12-07T10:57:07Z</time>
      </trkpt>
      <trkpt lat="47.94141" lon="-3.95081">
        <ele>94.4</ele>
        <time>2022-12-07T10:57:08Z</time>
      </trkpt>
      <trkpt lat="47.94143" lon="-3.95089">
        <ele>94.5</ele>
        <time>2022-12-07T10:57:09Z</time>
      </trkpt>
      <trkpt lat="47.94144" lon="-3.95097">
        <ele>94.5</ele>
        <time>2022-12-07T10:57:10Z</time>
      </trkpt>
      <trkpt lat="47.94144" lon="-3.95105">
        <ele>94.6</ele>
        <time>2022-12-07T10:57:11Z</time>
      </trkpt>
      <trkpt lat="47.94143" lon="-3.95112">
        <ele>94.6</ele>
        <time>2022-12-07T10:57:12Z</time>
      </trkpt>
      <trkpt lat="47.94143" lon="-3.9512">
        <ele>94.6</ele>
        <time>2022-12-07T10:57:13Z</time>
      </trkpt>
      <trkpt lat="47.94142" lon="-3.95127">
        <ele>94.7</ele>
        <time>2022-12-07T10:57:14Z</time>
      </trkpt>
      <trkpt lat="47.94142" lon="-3.95135">
        <ele>94.7</ele>
        <time>2022-12-07T10:57:15Z</time>
      </trkpt>
      <trkpt lat="47.94141" lon="-3.95142">
        <ele>94.7</ele>
        <time>2022-12-07T10:57:16Z</time>
      </trkpt>
      <trkpt lat="47.94141" lon="-3.95149">
        <ele>94.8</ele>
        <time>2022-12-07T10:57:17Z</time>
      </trkpt>
      <trkpt lat="47.94141" lon="-3.95156">
        <ele>94.8</ele>
        <time>2022-12-07T10:57:18Z</time>
      </trkpt>
      <trkpt lat="47.94141" lon="-3.95163">
        <ele>94.8</ele>
        <time>2022-12-07T10:57:19Z</time>
      </trkpt>
      <trkpt lat="47.94141" lon="-3.9517">
        <ele>94.8</ele>
        <time>2022-12-07T10:57:20Z</time>
      </trkpt>
      <trkpt lat="47.94141" lon="-3.95177">
        <ele>94.8</ele>
        <time>2022-12-07T10:57:21Z</time>
      </trkpt>
      <trkpt lat="47.94141" lon="-3.95184">
        <ele>94.8</ele>
        <time>2022-12-07T10:57:22Z</time>
      </trkpt>
      <trkpt lat="47.94141" lon="-3.95191">
        <ele>94.8</ele>
        <time>2022-12-07T10:57:23Z</time>
      </trkpt>
      <trkpt lat="47.94141" lon="-3.95198">
        <ele>94.8</ele>
        <time>2022-12-07T10:57:24Z</time>
      </trkpt>
      <trkpt lat="47.94141" lon="-3.95205">
        <ele>94.8</ele>
        <time>2022-12-07T10:57:25Z</time>
      </trkpt>
      <trkpt lat="47.9414" lon="-3.95213">
        <ele>94.8</ele>
        <time>2022-12-07T10:57:26Z</time>
      </trkpt>
      <trkpt lat="47.9414" lon="-3.95221">
        <ele>94.8</ele>
        <time>2022-12-07T10:57:27Z</time>
      </trkpt>
      <trkpt lat="47.94141" lon="-3.95229">
        <ele>94.8</ele>
        <time>2022-12-07T10:57:28Z</time>
      </trkpt>
      <trkpt lat="47.94141" lon="-3.95237">
        <ele>94.7</ele>
        <time>2022-12-07T10:57:29Z</time>
      </trkpt>
      <trkpt lat="47.94141" lon="-3.95245">
        <ele>94.7</ele>
        <time>2022-12-07T10:57:30Z</time>
      </trkpt>
      <trkpt lat="47.94141" lon="-3.95253">
        <ele>94.6</ele>
        <time>2022-12-07T10:57:31Z</time>
      </trkpt>
      <trkpt lat="47.94141" lon="-3.95261">
        <ele>94.6</ele>
        <time>2022-12-07T10:57:32Z</time>
      </trkpt>
      <trkpt lat="47.94142" lon="-3.95269">
        <ele>94.5</ele>
        <time>2022-12-07T10:57:33Z</time>
      </trkpt>
      <trkpt lat="47.94142" lon="-3.95278">
        <ele>94.4</ele>
        <time>2022-12-07T10:57:34Z</time>
      </trkpt>
      <trkpt lat="47.94143" lon="-3.95286">
        <ele>94.3</ele>
        <time>2022-12-07T10:57:35Z</time>
      </trkpt>
      <trkpt lat="47.94144" lon="-3.95295">
        <ele>94.2</ele>
        <time>2022-12-07T10:57:36Z</time>
      </trkpt>
      <trkpt lat="47.94146" lon="-3.95304">
        <ele>94.1</ele>
        <time>2022-12-07T10:57:37Z</time>
      </trkpt>
      <trkpt lat="47.94148" lon="-3.95313">
        <ele>94</ele>
        <time>2022-12-07T10:57:38Z</time>
      </trkpt>
      <trkpt lat="47.9415" lon="-3.95321">
        <ele>93.9</ele>
        <time>2022-12-07T10:57:39Z</time>
      </trkpt>
      <trkpt lat="47.94152" lon="-3.9533">
        <ele>93.8</ele>
        <time>2022-12-07T10:57:40Z</time>
      </trkpt>
      <trkpt lat="47.94154" lon="-3.95339">
        <ele>93.7</ele>
        <time>2022-12-07T10:57:41Z</time>
      </trkpt>
      <trkpt lat="47.94157" lon="-3.95347">
        <ele>93.6</ele>
        <time>2022-12-07T10:57:42Z</time>
      </trkpt>
      <trkpt lat="47.94159" lon="-3.95355">
        <ele>93.6</ele>
        <time>2022-12-07T10:57:43Z</time>
      </trkpt>
      <trkpt lat="47.94162" lon="-3.95364">
        <ele>93.6</ele>
        <time>2022-12-07T10:57:44Z</time>
      </trkpt>
      <trkpt lat="47.94164" lon="-3.95372">
        <ele>93.5</ele>
        <time>2022-12-07T10:57:45Z</time>
      </trkpt>
      <trkpt lat="47.94167" lon="-3.9538">
        <ele>93.5</ele>
        <time>2022-12-07T10:57:46Z</time>
      </trkpt>
      <trkpt lat="47.94169" lon="-3.95388">
        <ele>93.5</ele>
        <time>2022-12-07T10:57:47Z</time>
      </trkpt>
      <trkpt lat="47.94171" lon="-3.95396">
        <ele>93.4</ele>
        <time>2022-12-07T10:57:48Z</time>
      </trkpt>
      <trkpt lat="47.94174" lon="-3.95404">
        <ele>93.3</ele>
        <time>2022-12-07T10:57:49Z</time>
      </trkpt>
      <trkpt lat="47.94177" lon="-3.95413">
        <ele>93.2</ele>
        <time>2022-12-07T10:57:50Z</time>
      </trkpt>
      <trkpt lat="47.94179" lon="-3.9542">
        <ele>93.1</ele>
        <time>2022-12-07T10:57:51Z</time>
      </trkpt>
      <trkpt lat="47.94182" lon="-3.95429">
        <ele>93</ele>
        <time>2022-12-07T10:57:52Z</time>
      </trkpt>
      <trkpt lat="47.94184" lon="-3.95438">
        <ele>92.9</ele>
        <time>2022-12-07T10:57:53Z</time>
      </trkpt>
      <trkpt lat="47.94187" lon="-3.95446">
        <ele>92.8</ele>
        <time>2022-12-07T10:57:54Z</time>
      </trkpt>
      <trkpt lat="47.94189" lon="-3.95455">
        <ele>92.6</ele>
        <time>2022-12-07T10:57:55Z</time>
      </trkpt>
      <trkpt lat="47.94191" lon="-3.95463">
        <ele>92.4</ele>
        <time>2022-12-07T10:57:56Z</time>
      </trkpt>
      <trkpt lat="47.94195" lon="-3.95471">
        <ele>92.1</ele>
        <time>2022-12-07T10:57:57Z</time>
      </trkpt>
      <trkpt lat="47.94198" lon="-3.95481">
        <ele>91.8</ele>
        <time>2022-12-07T10:57:58Z</time>
      </trkpt>
      <trkpt lat="47.94201" lon="-3.9549">
        <ele>91.5</ele>
        <time>2022-12-07T10:57:59Z</time>
      </trkpt>
      <trkpt lat="47.94203" lon="-3.955">
        <ele>91.2</ele>
        <time>2022-12-07T10:58:00Z</time>
      </trkpt>
      <trkpt lat="47.94205" lon="-3.95509">
        <ele>90.9</ele>
        <time>2022-12-07T10:58:01Z</time>
      </trkpt>
      <trkpt lat="47.94208" lon="-3.95519">
        <ele>90.6</ele>
        <time>2022-12-07T10:58:02Z</time>
      </trkpt>
      <trkpt lat="47.9421" lon="-3.95529">
        <ele>90.2</ele>
        <time>2022-12-07T10:58:03Z</time>
      </trkpt>
      <trkpt lat="47.94213" lon="-3.95538">
        <ele>89.9</ele>
        <time>2022-12-07T10:58:04Z</time>
      </trkpt>
      <trkpt lat="47.94215" lon="-3.95547">
        <ele>89.7</ele>
        <time>2022-12-07T10:58:05Z</time>
      </trkpt>
      <trkpt lat="47.94218" lon="-3.95555">
        <ele>89.5</ele>
        <time>2022-12-07T10:58:06Z</time>
      </trkpt>
      <trkpt lat="47.9422" lon="-3.95564">
        <ele>89.3</ele>
        <time>2022-12-07T10:58:07Z</time>
      </trkpt>
      <trkpt lat="47.94221" lon="-3.95573">
        <ele>89.1</ele>
        <time>2022-12-07T10:58:08Z</time>
      </trkpt>
      <trkpt lat="47.94222" lon="-3.95582">
        <ele>88.9</ele>
        <time>2022-12-07T10:58:09Z</time>
      </trkpt>
      <trkpt lat="47.94223" lon="-3.9559">
        <ele>88.8</ele>
        <time>2022-12-07T10:58:10Z</time>
      </trkpt>
      <trkpt lat="47.94224" lon="-3.95599">
        <ele>88.6</ele>
        <time>2022-12-07T10:58:11Z</time>
      </trkpt>
      <trkpt lat="47.94226" lon="-3.95608">
        <ele>88.4</ele>
        <time>2022-12-07T10:58:12Z</time>
      </trkpt>
      <trkpt lat="47.94228" lon="-3.95616">
        <ele>88.2</ele>
        <time>2022-12-07T10:58:13Z</time>
      </trkpt>
      <trkpt lat="47.94229" lon="-3.95625">
        <ele>88</ele>
        <time>2022-12-07T10:58:14Z</time>
      </trkpt>
      <trkpt lat="47.9423" lon="-3.95634">
        <ele>87.7</ele>
        <time>2022-12-07T10:58:15Z</time>
      </trkpt>
      <trkpt lat="47.94232" lon="-3.95641">
        <ele>87.5</ele>
        <time>2022-12-07T10:58:16Z</time>
      </trkpt>
      <trkpt lat="47.94236" lon="-3.95647">
        <ele>87.1</ele>
        <time>2022-12-07T10:58:17Z</time>
      </trkpt>
      <trkpt lat="47.94242" lon="-3.95653">
        <ele>86.7</ele>
        <time>2022-12-07T10:58:18Z</time>
      </trkpt>
      <trkpt lat="47.94247" lon="-3.9566">
        <ele>86.3</ele>
        <time>2022-12-07T10:58:19Z</time>
      </trkpt>
      <trkpt lat="47.94252" lon="-3.95668">
        <ele>85.8</ele>
        <time>2022-12-07T10:58:20Z</time>
      </trkpt>
      <trkpt lat="47.94258" lon="-3.95675">
        <ele>85.3</ele>
        <time>2022-12-07T10:58:21Z</time>
      </trkpt>
      <trkpt lat="47.94264" lon="-3.95682">
        <ele>84.7</ele>
        <time>2022-12-07T10:58:22Z</time>
      </trkpt>
      <trkpt lat="47.94272" lon="-3.95685">
        <ele>84.1</ele>
        <time>2022-12-07T10:58:23Z</time>
      </trkpt>
      <trkpt lat="47.94278" lon="-3.95684">
        <ele>83.6</ele>
        <time>2022-12-07T10:58:24Z</time>
      </trkpt>
      <trkpt lat="47.94284" lon="-3.95683">
        <ele>83.1</ele>
        <time>2022-12-07T10:58:25Z</time>
      </trkpt>
      <trkpt lat="47.9429" lon="-3.95683">
        <ele>82.8</ele>
        <time>2022-12-07T10:58:26Z</time>
      </trkpt>
      <trkpt lat="47.94295" lon="-3.95684">
        <ele>82.4</ele>
        <time>2022-12-07T10:58:27Z</time>
      </trkpt>
      <trkpt lat="47.94301" lon="-3.95685">
        <ele>82</ele>
        <time>2022-12-07T10:58:28Z</time>
      </trkpt>
      <trkpt lat="47.94308" lon="-3.95686">
        <ele>81.6</ele>
        <time>2022-12-07T10:58:29Z</time>
      </trkpt>
      <trkpt lat="47.94316" lon="-3.95686">
        <ele>81.2</ele>
        <time>2022-12-07T10:58:30Z</time>
      </trkpt>
      <trkpt lat="47.94322" lon="-3.95685">
        <ele>80.9</ele>
        <time>2022-12-07T10:58:31Z</time>
      </trkpt>
      <trkpt lat="47.94329" lon="-3.95686">
        <ele>80.6</ele>
        <time>2022-12-07T10:58:32Z</time>
      </trkpt>
      <trkpt lat="47.94335" lon="-3.95688">
        <ele>80.3</ele>
        <time>2022-12-07T10:58:33Z</time>
      </trkpt>
      <trkpt lat="47.9434" lon="-3.9569">
        <ele>79.9</ele>
        <time>2022-12-07T10:58:34Z</time>
      </trkpt>
      <trkpt lat="47.94344" lon="-3.95693">
        <ele>79.6</ele>
        <time>2022-12-07T10:58:35Z</time>
      </trkpt>
      <trkpt lat="47.94347" lon="-3.95697">
        <ele>79.2</ele>
        <time>2022-12-07T10:58:36Z</time>
      </trkpt>
      <trkpt lat="47.9435" lon="-3.95702">
        <ele>78.9</ele>
        <time>2022-12-07T10:58:37Z</time>
      </trkpt>
      <trkpt lat="47.94353" lon="-3.95711">
        <ele>78.2</ele>
        <time>2022-12-07T10:58:38Z</time>
      </trkpt>
      <trkpt lat="47.94356" lon="-3.95719">
        <ele>77.6</ele>
        <time>2022-12-07T10:58:39Z</time>
      </trkpt>
      <trkpt lat="47.94358" lon="-3.95727">
        <ele>77.1</ele>
        <time>2022-12-07T10:58:40Z</time>
      </trkpt>
      <trkpt lat="47.94359" lon="-3.95732">
        <ele>76.7</ele>
        <time>2022-12-07T10:58:41Z</time>
      </trkpt>
      <trkpt lat="47.94358" lon="-3.95737">
        <ele>76.3</ele>
        <time>2022-12-07T10:58:42Z</time>
      </trkpt>
      <trkpt lat="47.94359" lon="-3.95747">
        <ele>75.6</ele>
        <time>2022-12-07T10:58:43Z</time>
      </trkpt>
      <trkpt lat="47.94361" lon="-3.95754">
        <ele>75</ele>
        <time>2022-12-07T10:58:44Z</time>
      </trkpt>
      <trkpt lat="47.94361" lon="-3.95758">
        <ele>74.7</ele>
        <time>2022-12-07T10:58:45Z</time>
      </trkpt>
      <trkpt lat="47.94362" lon="-3.95765">
        <ele>74.1</ele>
        <time>2022-12-07T10:58:46Z</time>
      </trkpt>
      <trkpt lat="47.94363" lon="-3.95769">
        <ele>73.8</ele>
        <time>2022-12-07T10:58:47Z</time>
      </trkpt>
      <trkpt lat="47.94363" lon="-3.95773">
        <ele>73.5</ele>
        <time>2022-12-07T10:58:49Z</time>
      </trkpt>
      <trkpt lat="47.94365" lon="-3.95776">
        <ele>73.2</ele>
        <time>2022-12-07T10:58:50Z</time>
      </trkpt>
      <trkpt lat="47.94365" lon="-3.95778">
        <ele>73.1</ele>
        <time>2022-12-07T10:58:51Z</time>
      </trkpt>
      <trkpt lat="47.94361" lon="-3.95786">
        <ele>72.6</ele>
        <time>2022-12-07T10:58:53Z</time>
      </trkpt>
      <trkpt lat="47.94359" lon="-3.95794">
        <ele>72.4</ele>
        <time>2022-12-07T10:58:54Z</time>
      </trkpt>
      <trkpt lat="47.94358" lon="-3.95802">
        <ele>72.2</ele>
        <time>2022-12-07T10:58:55Z</time>
      </trkpt>
      <trkpt lat="47.94358" lon="-3.9581">
        <ele>72</ele>
        <time>2022-12-07T10:58:56Z</time>
      </trkpt>
      <trkpt lat="47.94359" lon="-3.95818">
        <ele>71.9</ele>
        <time>2022-12-07T10:58:57Z</time>
      </trkpt>
      <trkpt lat="47.9436" lon="-3.95827">
        <ele>71.8</ele>
        <time>2022-12-07T10:58:58Z</time>
      </trkpt>
      <trkpt lat="47.94361" lon="-3.95835">
        <ele>71.7</ele>
        <time>2022-12-07T10:58:59Z</time>
      </trkpt>
      <trkpt lat="47.94362" lon="-3.95842">
        <ele>71.7</ele>
        <time>2022-12-07T10:59:00Z</time>
      </trkpt>
      <trkpt lat="47.94364" lon="-3.9585">
        <ele>71.7</ele>
        <time>2022-12-07T10:59:01Z</time>
      </trkpt>
      <trkpt lat="47.94365" lon="-3.95858">
        <ele>71.7</ele>
        <time>2022-12-07T10:59:02Z</time>
      </trkpt>
      <trkpt lat="47.94366" lon="-3.95863">
        <ele>71.8</ele>
        <time>2022-12-07T10:59:03Z</time>
      </trkpt>
      <trkpt lat="47.94368" lon="-3.95869">
        <ele>71.8</ele>
        <time>2022-12-07T10:59:05Z</time>
      </trkpt>
      <trkpt lat="47.94368" lon="-3.95873">
        <ele>71.8</ele>
        <time>2022-12-07T10:59:06Z</time>
      </trkpt>
      <trkpt lat="47.94372" lon="-3.9588">
        <ele>71.9</ele>
        <time>2022-12-07T10:59:08Z</time>
      </trkpt>
      <trkpt lat="47.94373" lon="-3.95884">
        <ele>72</ele>
        <time>2022-12-07T10:59:09Z</time>
      </trkpt>
      <trkpt lat="47.94375" lon="-3.95889">
        <ele>72.1</ele>
        <time>2022-12-07T10:59:10Z</time>
      </trkpt>
      <trkpt lat="47.94376" lon="-3.95893">
        <ele>72.2</ele>
        <time>2022-12-07T10:59:11Z</time>
      </trkpt>
      <trkpt lat="47.94378" lon="-3.95895">
        <ele>72.3</ele>
        <time>2022-12-07T10:59:12Z</time>
      </trkpt>
      <trkpt lat="47.9438" lon="-3.95902">
        <ele>72.5</ele>
        <time>2022-12-07T10:59:14Z</time>
      </trkpt>
      <trkpt lat="47.94381" lon="-3.95906">
        <ele>72.6</ele>
        <time>2022-12-07T10:59:15Z</time>
      </trkpt>
      <trkpt lat="47.94381" lon="-3.95908">
        <ele>72.6</ele>
        <time>2022-12-07T10:59:16Z</time>
      </trkpt>
      <trkpt lat="47.94383" lon="-3.95912">
        <ele>72.8</ele>
        <time>2022-12-07T10:59:17Z</time>
      </trkpt>
      <trkpt lat="47.94383" lon="-3.95914">
        <ele>72.8</ele>
        <time>2022-12-07T10:59:18Z</time>
      </trkpt>
      <trkpt lat="47.94386" lon="-3.95919">
        <ele>73</ele>
        <time>2022-12-07T10:59:19Z</time>
      </trkpt>
      <trkpt lat="47.94387" lon="-3.95924">
        <ele>73.1</ele>
        <time>2022-12-07T10:59:21Z</time>
      </trkpt>
      <trkpt lat="47.94388" lon="-3.95928">
        <ele>73.2</ele>
        <time>2022-12-07T10:59:22Z</time>
      </trkpt>
      <trkpt lat="47.9439" lon="-3.95932">
        <ele>73.4</ele>
        <time>2022-12-07T10:59:23Z</time>
      </trkpt>
      <trkpt lat="47.94392" lon="-3.95938">
        <ele>73.5</ele>
        <time>2022-12-07T10:59:24Z</time>
      </trkpt>
      <trkpt lat="47.94393" lon="-3.95941">
        <ele>73.6</ele>
        <time>2022-12-07T10:59:25Z</time>
      </trkpt>
      <trkpt lat="47.94394" lon="-3.95946">
        <ele>73.7</ele>
        <time>2022-12-07T10:59:26Z</time>
      </trkpt>
      <trkpt lat="47.94395" lon="-3.95951">
        <ele>73.8</ele>
        <time>2022-12-07T10:59:28Z</time>
      </trkpt>
      <trkpt lat="47.94397" lon="-3.95956">
        <ele>73.9</ele>
        <time>2022-12-07T10:59:29Z</time>
      </trkpt>
      <trkpt lat="47.94399" lon="-3.95961">
        <ele>74</ele>
        <time>2022-12-07T10:59:30Z</time>
      </trkpt>
      <trkpt lat="47.94399" lon="-3.95962">
        <ele>74</ele>
        <time>2022-12-07T10:59:31Z</time>
      </trkpt>
      <trkpt lat="47.944" lon="-3.95967">
        <ele>74.1</ele>
        <time>2022-12-07T10:59:32Z</time>
      </trkpt>
      <trkpt lat="47.944" lon="-3.95972">
        <ele>74.2</ele>
        <time>2022-12-07T10:59:33Z</time>
      </trkpt>
      <trkpt lat="47.94401" lon="-3.95976">
        <ele>74.3</ele>
        <time>2022-12-07T10:59:35Z</time>
      </trkpt>
      <trkpt lat="47.94402" lon="-3.95981">
        <ele>74.4</ele>
        <time>2022-12-07T10:59:36Z</time>
      </trkpt>
      <trkpt lat="47.94403" lon="-3.95986">
        <ele>74.5</ele>
        <time>2022-12-07T10:59:37Z</time>
      </trkpt>
      <trkpt lat="47.94403" lon="-3.95987">
        <ele>74.5</ele>
        <time>2022-12-07T10:59:38Z</time>
      </trkpt>
      <trkpt lat="47.94405" lon="-3.95991">
        <ele>74.6</ele>
        <time>2022-12-07T10:59:39Z</time>
      </trkpt>
      <trkpt lat="47.94406" lon="-3.95995">
        <ele>74.7</ele>
        <time>2022-12-07T10:59:40Z</time>
      </trkpt>
      <trkpt lat="47.94408" lon="-3.95999">
        <ele>74.8</ele>
        <time>2022-12-07T10:59:41Z</time>
      </trkpt>
      <trkpt lat="47.9441" lon="-3.96004">
        <ele>74.9</ele>
        <time>2022-12-07T10:59:42Z</time>
      </trkpt>
      <trkpt lat="47.9441" lon="-3.96005">
        <ele>74.9</ele>
        <time>2022-12-07T10:59:43Z</time>
      </trkpt>
      <trkpt lat="47.94412" lon="-3.96009">
        <ele>75</ele>
        <time>2022-12-07T10:59:44Z</time>
      </trkpt>
      <trkpt lat="47.94412" lon="-3.9601">
        <ele>75</ele>
        <time>2022-12-07T10:59:45Z</time>
      </trkpt>
      <trkpt lat="47.94414" lon="-3.96015">
        <ele>75.2</ele>
        <time>2022-12-07T10:59:46Z</time>
      </trkpt>
      <trkpt lat="47.94415" lon="-3.96016">
        <ele>75.2</ele>
        <time>2022-12-07T10:59:47Z</time>
      </trkpt>
      <trkpt lat="47.94416" lon="-3.9602">
        <ele>75.3</ele>
        <time>2022-12-07T10:59:48Z</time>
      </trkpt>
      <trkpt lat="47.94416" lon="-3.96022">
        <ele>75.3</ele>
        <time>2022-12-07T10:59:49Z</time>
      </trkpt>
      <trkpt lat="47.94419" lon="-3.96027">
        <ele>75.4</ele>
        <time>2022-12-07T10:59:50Z</time>
      </trkpt>
      <trkpt lat="47.94419" lon="-3.96029">
        <ele>75.5</ele>
        <time>2022-12-07T10:59:51Z</time>
      </trkpt>
      <trkpt lat="47.94421" lon="-3.96033">
        <ele>75.6</ele>
        <time>2022-12-07T10:59:52Z</time>
      </trkpt>
      <trkpt lat="47.94421" lon="-3.96035">
        <ele>75.6</ele>
        <time>2022-12-07T10:59:53Z</time>
      </trkpt>
      <trkpt lat="47.94422" lon="-3.9604">
        <ele>75.7</ele>
        <time>2022-12-07T10:59:54Z</time>
      </trkpt>
      <trkpt lat="47.94423" lon="-3.96042">
        <ele>75.7</ele>
        <time>2022-12-07T10:59:55Z</time>
      </trkpt>
      <trkpt lat="47.94425" lon="-3.96047">
        <ele>75.9</ele>
        <time>2022-12-07T10:59:56Z</time>
      </trkpt>
      <trkpt lat="47.94426" lon="-3.96052">
        <ele>76</ele>
        <time>2022-12-07T10:59:57Z</time>
      </trkpt>
      <trkpt lat="47.94426" lon="-3.96054">
        <ele>76</ele>
        <time>2022-12-07T10:59:58Z</time>
      </trkpt>
      <trkpt lat="47.94429" lon="-3.96058">
        <ele>76.1</ele>
        <time>2022-12-07T10:59:59Z</time>
      </trkpt>
      <trkpt lat="47.9443" lon="-3.96059">
        <ele>76.2</ele>
        <time>2022-12-07T11:00:00Z</time>
      </trkpt>
      <trkpt lat="47.94431" lon="-3.96062">
        <ele>76.3</ele>
        <time>2022-12-07T11:00:01Z</time>
      </trkpt>
      <trkpt lat="47.94433" lon="-3.96067">
        <ele>76.4</ele>
        <time>2022-12-07T11:00:02Z</time>
      </trkpt>
      <trkpt lat="47.94435" lon="-3.96071">
        <ele>76.5</ele>
        <time>2022-12-07T11:00:03Z</time>
      </trkpt>
      <trkpt lat="47.94436" lon="-3.96075">
        <ele>76.6</ele>
        <time>2022-12-07T11:00:04Z</time>
      </trkpt>
      <trkpt lat="47.94437" lon="-3.96079">
        <ele>76.7</ele>
        <time>2022-12-07T11:00:05Z</time>
      </trkpt>
      <trkpt lat="47.94439" lon="-3.96086">
        <ele>76.9</ele>
        <time>2022-12-07T11:00:06Z</time>
      </trkpt>
      <trkpt lat="47.9444" lon="-3.96091">
        <ele>77</ele>
        <time>2022-12-07T11:00:07Z</time>
      </trkpt>
      <trkpt lat="47.94442" lon="-3.96096">
        <ele>77.2</ele>
        <time>2022-12-07T11:00:09Z</time>
      </trkpt>
      <trkpt lat="47.94444" lon="-3.96102">
        <ele>77.3</ele>
        <time>2022-12-07T11:00:10Z</time>
      </trkpt>
      <trkpt lat="47.94445" lon="-3.96109">
        <ele>77.5</ele>
        <time>2022-12-07T11:00:12Z</time>
      </trkpt>
      <trkpt lat="47.94446" lon="-3.96116">
        <ele>77.7</ele>
        <time>2022-12-07T11:00:13Z</time>
      </trkpt>
      <trkpt lat="47.94446" lon="-3.96121">
        <ele>77.9</ele>
        <time>2022-12-07T11:00:14Z</time>
      </trkpt>
      <trkpt lat="47.94447" lon="-3.96128">
        <ele>78.1</ele>
        <time>2022-12-07T11:00:16Z</time>
      </trkpt>
      <trkpt lat="47.94448" lon="-3.96132">
        <ele>78.2</ele>
        <time>2022-12-07T11:00:17Z</time>
      </trkpt>
      <trkpt lat="47.94449" lon="-3.96137">
        <ele>78.4</ele>
        <time>2022-12-07T11:00:18Z</time>
      </trkpt>
      <trkpt lat="47.9445" lon="-3.96141">
        <ele>78.6</ele>
        <time>2022-12-07T11:00:19Z</time>
      </trkpt>
      <trkpt lat="47.94451" lon="-3.96146">
        <ele>78.7</ele>
        <time>2022-12-07T11:00:20Z</time>
      </trkpt>
      <trkpt lat="47.94452" lon="-3.96151">
        <ele>78.9</ele>
        <time>2022-12-07T11:00:21Z</time>
      </trkpt>
      <trkpt lat="47.94453" lon="-3.96157">
        <ele>79</ele>
        <time>2022-12-07T11:00:23Z</time>
      </trkpt>
      <trkpt lat="47.94454" lon="-3.96164">
        <ele>79.2</ele>
        <time>2022-12-07T11:00:24Z</time>
      </trkpt>
      <trkpt lat="47.94455" lon="-3.96169">
        <ele>79.3</ele>
        <time>2022-12-07T11:00:25Z</time>
      </trkpt>
      <trkpt lat="47.94457" lon="-3.96174">
        <ele>79.4</ele>
        <time>2022-12-07T11:00:26Z</time>
      </trkpt>
      <trkpt lat="47.94458" lon="-3.96183">
        <ele>79.6</ele>
        <time>2022-12-07T11:00:28Z</time>
      </trkpt>
      <trkpt lat="47.94459" lon="-3.96188">
        <ele>79.6</ele>
        <time>2022-12-07T11:00:29Z</time>
      </trkpt>
      <trkpt lat="47.9446" lon="-3.96192">
        <ele>79.7</ele>
        <time>2022-12-07T11:00:30Z</time>
      </trkpt>
      <trkpt lat="47.94462" lon="-3.962">
        <ele>79.9</ele>
        <time>2022-12-07T11:00:32Z</time>
      </trkpt>
      <trkpt lat="47.94463" lon="-3.96204">
        <ele>80</ele>
        <time>2022-12-07T11:00:33Z</time>
      </trkpt>
      <trkpt lat="47.94463" lon="-3.96206">
        <ele>80</ele>
        <time>2022-12-07T11:00:34Z</time>
      </trkpt>
      <trkpt lat="47.94464" lon="-3.96211">
        <ele>80.1</ele>
        <time>2022-12-07T11:00:35Z</time>
      </trkpt>
      <trkpt lat="47.94464" lon="-3.96213">
        <ele>80.2</ele>
        <time>2022-12-07T11:00:36Z</time>
      </trkpt>
      <trkpt lat="47.94466" lon="-3.96218">
        <ele>80.3</ele>
        <time>2022-12-07T11:00:37Z</time>
      </trkpt>
      <trkpt lat="47.94468" lon="-3.96223">
        <ele>80.4</ele>
        <time>2022-12-07T11:00:38Z</time>
      </trkpt>
      <trkpt lat="47.9447" lon="-3.96229">
        <ele>80.6</ele>
        <time>2022-12-07T11:00:39Z</time>
      </trkpt>
      <trkpt lat="47.94472" lon="-3.96234">
        <ele>80.8</ele>
        <time>2022-12-07T11:00:40Z</time>
      </trkpt>
      <trkpt lat="47.94473" lon="-3.96238">
        <ele>81</ele>
        <time>2022-12-07T11:00:41Z</time>
      </trkpt>
      <trkpt lat="47.94474" lon="-3.96243">
        <ele>81.2</ele>
        <time>2022-12-07T11:00:42Z</time>
      </trkpt>
      <trkpt lat="47.94475" lon="-3.96248">
        <ele>81.4</ele>
        <time>2022-12-07T11:00:43Z</time>
      </trkpt>
      <trkpt lat="47.94476" lon="-3.9625">
        <ele>81.5</ele>
        <time>2022-12-07T11:00:44Z</time>
      </trkpt>
      <trkpt lat="47.94477" lon="-3.96254">
        <ele>81.6</ele>
        <time>2022-12-07T11:00:45Z</time>
      </trkpt>
      <trkpt lat="47.94478" lon="-3.96258">
        <ele>81.8</ele>
        <time>2022-12-07T11:00:46Z</time>
      </trkpt>
      <trkpt lat="47.94479" lon="-3.96264">
        <ele>82.1</ele>
        <time>2022-12-07T11:00:47Z</time>
      </trkpt>
      <trkpt lat="47.94479" lon="-3.96268">
        <ele>82.3</ele>
        <time>2022-12-07T11:00:48Z</time>
      </trkpt>
      <trkpt lat="47.94481" lon="-3.96274">
        <ele>82.6</ele>
        <time>2022-12-07T11:00:49Z</time>
      </trkpt>
      <trkpt lat="47.94481" lon="-3.96276">
        <ele>82.7</ele>
        <time>2022-12-07T11:00:50Z</time>
      </trkpt>
      <trkpt lat="47.94483" lon="-3.96279">
        <ele>82.8</ele>
        <time>2022-12-07T11:00:51Z</time>
      </trkpt>
      <trkpt lat="47.94484" lon="-3.96285">
        <ele>83.1</ele>
        <time>2022-12-07T11:00:52Z</time>
      </trkpt>
      <trkpt lat="47.94485" lon="-3.96288">
        <ele>83.2</ele>
        <time>2022-12-07T11:00:53Z</time>
      </trkpt>
      <trkpt lat="47.94486" lon="-3.96294">
        <ele>83.4</ele>
        <time>2022-12-07T11:00:54Z</time>
      </trkpt>
      <trkpt lat="47.94486" lon="-3.96301">
        <ele>83.6</ele>
        <time>2022-12-07T11:00:55Z</time>
      </trkpt>
      <trkpt lat="47.94487" lon="-3.96305">
        <ele>83.7</ele>
        <time>2022-12-07T11:00:56Z</time>
      </trkpt>
      <trkpt lat="47.94487" lon="-3.96309">
        <ele>83.8</ele>
        <time>2022-12-07T11:00:57Z</time>
      </trkpt>
      <trkpt lat="47.94488" lon="-3.96317">
        <ele>84</ele>
        <time>2022-12-07T11:00:59Z</time>
      </trkpt>
      <trkpt lat="47.9449" lon="-3.96322">
        <ele>84.2</ele>
        <time>2022-12-07T11:01:00Z</time>
      </trkpt>
      <trkpt lat="47.94491" lon="-3.96328">
        <ele>84.4</ele>
        <time>2022-12-07T11:01:01Z</time>
      </trkpt>
      <trkpt lat="47.94493" lon="-3.96336">
        <ele>84.5</ele>
        <time>2022-12-07T11:01:03Z</time>
      </trkpt>
      <trkpt lat="47.94495" lon="-3.9634">
        <ele>84.6</ele>
        <time>2022-12-07T11:01:04Z</time>
      </trkpt>
      <trkpt lat="47.94496" lon="-3.96345">
        <ele>84.7</ele>
        <time>2022-12-07T11:01:05Z</time>
      </trkpt>
      <trkpt lat="47.94497" lon="-3.96351">
        <ele>84.8</ele>
        <time>2022-12-07T11:01:06Z</time>
      </trkpt>
      <trkpt lat="47.94498" lon="-3.96353">
        <ele>84.9</ele>
        <time>2022-12-07T11:01:07Z</time>
      </trkpt>
      <trkpt lat="47.94499" lon="-3.96358">
        <ele>84.9</ele>
        <time>2022-12-07T11:01:08Z</time>
      </trkpt>
      <trkpt lat="47.945" lon="-3.96365">
        <ele>85</ele>
        <time>2022-12-07T11:01:09Z</time>
      </trkpt>
      <trkpt lat="47.94502" lon="-3.96372">
        <ele>85.1</ele>
        <time>2022-12-07T11:01:11Z</time>
      </trkpt>
      <trkpt lat="47.94503" lon="-3.96377">
        <ele>85.1</ele>
        <time>2022-12-07T11:01:12Z</time>
      </trkpt>
      <trkpt lat="47.94504" lon="-3.96384">
        <ele>85.2</ele>
        <time>2022-12-07T11:01:13Z</time>
      </trkpt>
      <trkpt lat="47.94505" lon="-3.96388">
        <ele>85.2</ele>
        <time>2022-12-07T11:01:14Z</time>
      </trkpt>
      <trkpt lat="47.94505" lon="-3.96393">
        <ele>85.3</ele>
        <time>2022-12-07T11:01:15Z</time>
      </trkpt>
      <trkpt lat="47.94505" lon="-3.96398">
        <ele>85.3</ele>
        <time>2022-12-07T11:01:16Z</time>
      </trkpt>
      <trkpt lat="47.94504" lon="-3.96403">
        <ele>85.3</ele>
        <time>2022-12-07T11:01:17Z</time>
      </trkpt>
      <trkpt lat="47.94504" lon="-3.96408">
        <ele>85.4</ele>
        <time>2022-12-07T11:01:18Z</time>
      </trkpt>
      <trkpt lat="47.94506" lon="-3.96413">
        <ele>85.4</ele>
        <time>2022-12-07T11:01:19Z</time>
      </trkpt>
      <trkpt lat="47.94508" lon="-3.96418">
        <ele>85.5</ele>
        <time>2022-12-07T11:01:20Z</time>
      </trkpt>
      <trkpt lat="47.94509" lon="-3.96423">
        <ele>85.5</ele>
        <time>2022-12-07T11:01:21Z</time>
      </trkpt>
      <trkpt lat="47.9451" lon="-3.96427">
        <ele>85.6</ele>
        <time>2022-12-07T11:01:22Z</time>
      </trkpt>
      <trkpt lat="47.94512" lon="-3.96433">
        <ele>85.6</ele>
        <time>2022-12-07T11:01:23Z</time>
      </trkpt>
      <trkpt lat="47.94515" lon="-3.96438">
        <ele>85.7</ele>
        <time>2022-12-07T11:01:24Z</time>
      </trkpt>
      <trkpt lat="47.94517" lon="-3.96442">
        <ele>85.7</ele>
        <time>2022-12-07T11:01:25Z</time>
      </trkpt>
      <trkpt lat="47.94518" lon="-3.96447">
        <ele>85.8</ele>
        <time>2022-12-07T11:01:26Z</time>
      </trkpt>
      <trkpt lat="47.9452" lon="-3.96452">
        <ele>85.8</ele>
        <time>2022-12-07T11:01:28Z</time>
      </trkpt>
      <trkpt lat="47.94521" lon="-3.96457">
        <ele>85.9</ele>
        <time>2022-12-07T11:01:29Z</time>
      </trkpt>
      <trkpt lat="47.94522" lon="-3.9646">
        <ele>85.9</ele>
        <time>2022-12-07T11:01:30Z</time>
      </trkpt>
      <trkpt lat="47.94525" lon="-3.96466">
        <ele>86</ele>
        <time>2022-12-07T11:01:31Z</time>
      </trkpt>
      <trkpt lat="47.94526" lon="-3.9647">
        <ele>86.1</ele>
        <time>2022-12-07T11:01:32Z</time>
      </trkpt>
      <trkpt lat="47.94528" lon="-3.96475">
        <ele>86.2</ele>
        <time>2022-12-07T11:01:33Z</time>
      </trkpt>
      <trkpt lat="47.94529" lon="-3.96477">
        <ele>86.2</ele>
        <time>2022-12-07T11:01:34Z</time>
      </trkpt>
      <trkpt lat="47.9453" lon="-3.96482">
        <ele>86.3</ele>
        <time>2022-12-07T11:01:35Z</time>
      </trkpt>
      <trkpt lat="47.94531" lon="-3.96485">
        <ele>86.4</ele>
        <time>2022-12-07T11:01:36Z</time>
      </trkpt>
      <trkpt lat="47.94534" lon="-3.96488">
        <ele>86.5</ele>
        <time>2022-12-07T11:01:37Z</time>
      </trkpt>
      <trkpt lat="47.94537" lon="-3.9649">
        <ele>86.6</ele>
        <time>2022-12-07T11:01:38Z</time>
      </trkpt>
      <trkpt lat="47.9454" lon="-3.96494">
        <ele>86.6</ele>
        <time>2022-12-07T11:01:39Z</time>
      </trkpt>
      <trkpt lat="47.94541" lon="-3.96495">
        <ele>86.6</ele>
        <time>2022-12-07T11:01:40Z</time>
      </trkpt>
      <trkpt lat="47.94545" lon="-3.96499">
        <ele>86.7</ele>
        <time>2022-12-07T11:01:41Z</time>
      </trkpt>
      <trkpt lat="47.94547" lon="-3.96501">
        <ele>86.7</ele>
        <time>2022-12-07T11:01:42Z</time>
      </trkpt>
      <trkpt lat="47.94549" lon="-3.96505">
        <ele>86.7</ele>
        <time>2022-12-07T11:01:43Z</time>
      </trkpt>
      <trkpt lat="47.94552" lon="-3.9651">
        <ele>86.6</ele>
        <time>2022-12-07T11:01:44Z</time>
      </trkpt>
      <trkpt lat="47.94555" lon="-3.96515">
        <ele>86.6</ele>
        <time>2022-12-07T11:01:45Z</time>
      </trkpt>
      <trkpt lat="47.94558" lon="-3.9652">
        <ele>86.6</ele>
        <time>2022-12-07T11:01:46Z</time>
      </trkpt>
      <trkpt lat="47.9456" lon="-3.96524">
        <ele>86.6</ele>
        <time>2022-12-07T11:01:47Z</time>
      </trkpt>
      <trkpt lat="47.94563" lon="-3.96529">
        <ele>86.6</ele>
        <time>2022-12-07T11:01:48Z</time>
      </trkpt>
      <trkpt lat="47.94565" lon="-3.96533">
        <ele>86.6</ele>
        <time>2022-12-07T11:01:49Z</time>
      </trkpt>
      <trkpt lat="47.94568" lon="-3.96539">
        <ele>86.6</ele>
        <time>2022-12-07T11:01:50Z</time>
      </trkpt>
      <trkpt lat="47.9457" lon="-3.96543">
        <ele>86.6</ele>
        <time>2022-12-07T11:01:51Z</time>
      </trkpt>
      <trkpt lat="47.94573" lon="-3.96549">
        <ele>86.7</ele>
        <time>2022-12-07T11:01:52Z</time>
      </trkpt>
      <trkpt lat="47.94575" lon="-3.96555">
        <ele>86.8</ele>
        <time>2022-12-07T11:01:53Z</time>
      </trkpt>
      <trkpt lat="47.94578" lon="-3.96562">
        <ele>86.9</ele>
        <time>2022-12-07T11:01:55Z</time>
      </trkpt>
      <trkpt lat="47.9458" lon="-3.96567">
        <ele>87</ele>
        <time>2022-12-07T11:01:56Z</time>
      </trkpt>
      <trkpt lat="47.94581" lon="-3.96573">
        <ele>87.1</ele>
        <time>2022-12-07T11:01:57Z</time>
      </trkpt>
      <trkpt lat="47.94583" lon="-3.96578">
        <ele>87.2</ele>
        <time>2022-12-07T11:01:58Z</time>
      </trkpt>
      <trkpt lat="47.94584" lon="-3.96584">
        <ele>87.4</ele>
        <time>2022-12-07T11:02:00Z</time>
      </trkpt>
      <trkpt lat="47.94586" lon="-3.9659">
        <ele>87.7</ele>
        <time>2022-12-07T11:02:01Z</time>
      </trkpt>
      <trkpt lat="47.94588" lon="-3.96595">
        <ele>87.8</ele>
        <time>2022-12-07T11:02:02Z</time>
      </trkpt>
      <trkpt lat="47.9459" lon="-3.96599">
        <ele>88.1</ele>
        <time>2022-12-07T11:02:04Z</time>
      </trkpt>
      <trkpt lat="47.94592" lon="-3.96604">
        <ele>88.4</ele>
        <time>2022-12-07T11:02:05Z</time>
      </trkpt>
      <trkpt lat="47.94595" lon="-3.96607">
        <ele>88.7</ele>
        <time>2022-12-07T11:02:06Z</time>
      </trkpt>
      <trkpt lat="47.94598" lon="-3.96607">
        <ele>89</ele>
        <time>2022-12-07T11:02:07Z</time>
      </trkpt>
      <trkpt lat="47.94602" lon="-3.96606">
        <ele>89.7</ele>
        <time>2022-12-07T11:02:08Z</time>
      </trkpt>
      <trkpt lat="47.94604" lon="-3.96602">
        <ele>89.7</ele>
        <time>2022-12-07T11:02:09Z</time>
      </trkpt>
      <trkpt lat="47.94607" lon="-3.96597">
        <ele>89.7</ele>
        <time>2022-12-07T11:02:10Z</time>
      </trkpt>
      <trkpt lat="47.94609" lon="-3.96592">
        <ele>89.7</ele>
        <time>2022-12-07T11:02:11Z</time>
      </trkpt>
      <trkpt lat="47.94611" lon="-3.96588">
        <ele>89.7</ele>
        <time>2022-12-07T11:02:12Z</time>
      </trkpt>
      <trkpt lat="47.94614" lon="-3.96584">
        <ele>89.7</ele>
        <time>2022-12-07T11:02:13Z</time>
      </trkpt>
      <trkpt lat="47.94616" lon="-3.9658">
        <ele>89.7</ele>
        <time>2022-12-07T11:02:14Z</time>
      </trkpt>
      <trkpt lat="47.94621" lon="-3.96571">
        <ele>89.8</ele>
        <time>2022-12-07T11:02:16Z</time>
      </trkpt>
      <trkpt lat="47.94624" lon="-3.96568">
        <ele>89.8</ele>
        <time>2022-12-07T11:02:17Z</time>
      </trkpt>
      <trkpt lat="47.94627" lon="-3.96563">
        <ele>89.9</ele>
        <time>2022-12-07T11:02:18Z</time>
      </trkpt>
      <trkpt lat="47.9463" lon="-3.9656">
        <ele>90</ele>
        <time>2022-12-07T11:02:19Z</time>
      </trkpt>
      <trkpt lat="47.94633" lon="-3.96555">
        <ele>90.1</ele>
        <time>2022-12-07T11:02:20Z</time>
      </trkpt>
      <trkpt lat="47.94636" lon="-3.96551">
        <ele>90.2</ele>
        <time>2022-12-07T11:02:21Z</time>
      </trkpt>
      <trkpt lat="47.94639" lon="-3.96547">
        <ele>90.4</ele>
        <time>2022-12-07T11:02:22Z</time>
      </trkpt>
      <trkpt lat="47.94641" lon="-3.96542">
        <ele>90.5</ele>
        <time>2022-12-07T11:02:23Z</time>
      </trkpt>
      <trkpt lat="47.94644" lon="-3.96537">
        <ele>90.6</ele>
        <time>2022-12-07T11:02:24Z</time>
      </trkpt>
      <trkpt lat="47.94647" lon="-3.96534">
        <ele>90.8</ele>
        <time>2022-12-07T11:02:25Z</time>
      </trkpt>
      <trkpt lat="47.9465" lon="-3.9653">
        <ele>90.9</ele>
        <time>2022-12-07T11:02:26Z</time>
      </trkpt>
      <trkpt lat="47.94653" lon="-3.96526">
        <ele>91.1</ele>
        <time>2022-12-07T11:02:27Z</time>
      </trkpt>
      <trkpt lat="47.94656" lon="-3.96522">
        <ele>91.2</ele>
        <time>2022-12-07T11:02:28Z</time>
      </trkpt>
      <trkpt lat="47.94659" lon="-3.96519">
        <ele>91.3</ele>
        <time>2022-12-07T11:02:29Z</time>
      </trkpt>
      <trkpt lat="47.94662" lon="-3.96515">
        <ele>91.5</ele>
        <time>2022-12-07T11:02:30Z</time>
      </trkpt>
      <trkpt lat="47.94664" lon="-3.96511">
        <ele>91.7</ele>
        <time>2022-12-07T11:02:31Z</time>
      </trkpt>
      <trkpt lat="47.94667" lon="-3.96507">
        <ele>91.9</ele>
        <time>2022-12-07T11:02:32Z</time>
      </trkpt>
      <trkpt lat="47.94669" lon="-3.96504">
        <ele>92.1</ele>
        <time>2022-12-07T11:02:33Z</time>
      </trkpt>
      <trkpt lat="47.94672" lon="-3.965">
        <ele>92.3</ele>
        <time>2022-12-07T11:02:34Z</time>
      </trkpt>
      <trkpt lat="47.94674" lon="-3.96496">
        <ele>92.4</ele>
        <time>2022-12-07T11:02:35Z</time>
      </trkpt>
      <trkpt lat="47.94677" lon="-3.96492">
        <ele>92.6</ele>
        <time>2022-12-07T11:02:36Z</time>
      </trkpt>
      <trkpt lat="47.9468" lon="-3.96489">
        <ele>92.8</ele>
        <time>2022-12-07T11:02:37Z</time>
      </trkpt>
      <trkpt lat="47.94683" lon="-3.96485">
        <ele>93</ele>
        <time>2022-12-07T11:02:38Z</time>
      </trkpt>
      <trkpt lat="47.94686" lon="-3.96481">
        <ele>93.1</ele>
        <time>2022-12-07T11:02:39Z</time>
      </trkpt>
      <trkpt lat="47.94689" lon="-3.96477">
        <ele>93.3</ele>
        <time>2022-12-07T11:02:40Z</time>
      </trkpt>
      <trkpt lat="47.94691" lon="-3.96473">
        <ele>93.5</ele>
        <time>2022-12-07T11:02:41Z</time>
      </trkpt>
      <trkpt lat="47.94694" lon="-3.96469">
        <ele>93.6</ele>
        <time>2022-12-07T11:02:42Z</time>
      </trkpt>
      <trkpt lat="47.94697" lon="-3.96465">
        <ele>93.8</ele>
        <time>2022-12-07T11:02:43Z</time>
      </trkpt>
      <trkpt lat="47.947" lon="-3.96461">
        <ele>93.9</ele>
        <time>2022-12-07T11:02:44Z</time>
      </trkpt>
      <trkpt lat="47.94703" lon="-3.96457">
        <ele>94.1</ele>
        <time>2022-12-07T11:02:45Z</time>
      </trkpt>
      <trkpt lat="47.94706" lon="-3.96453">
        <ele>94.2</ele>
        <time>2022-12-07T11:02:46Z</time>
      </trkpt>
      <trkpt lat="47.94708" lon="-3.96449">
        <ele>94.3</ele>
        <time>2022-12-07T11:02:47Z</time>
      </trkpt>
      <trkpt lat="47.94711" lon="-3.96445">
        <ele>94.5</ele>
        <time>2022-12-07T11:02:48Z</time>
      </trkpt>
      <trkpt lat="47.94714" lon="-3.96441">
        <ele>94.6</ele>
        <time>2022-12-07T11:02:49Z</time>
      </trkpt>
      <trkpt lat="47.94717" lon="-3.96436">
        <ele>94.8</ele>
        <time>2022-12-07T11:02:50Z</time>
      </trkpt>
      <trkpt lat="47.9472" lon="-3.96432">
        <ele>94.9</ele>
        <time>2022-12-07T11:02:51Z</time>
      </trkpt>
      <trkpt lat="47.94723" lon="-3.96427">
        <ele>95.1</ele>
        <time>2022-12-07T11:02:52Z</time>
      </trkpt>
      <trkpt lat="47.94726" lon="-3.96423">
        <ele>95.3</ele>
        <time>2022-12-07T11:02:53Z</time>
      </trkpt>
      <trkpt lat="47.94729" lon="-3.96419">
        <ele>95.4</ele>
        <time>2022-12-07T11:02:54Z</time>
      </trkpt>
      <trkpt lat="47.94732" lon="-3.96415">
        <ele>95.6</ele>
        <time>2022-12-07T11:02:55Z</time>
      </trkpt>
      <trkpt lat="47.94735" lon="-3.96411">
        <ele>95.7</ele>
        <time>2022-12-07T11:02:56Z</time>
      </trkpt>
      <trkpt lat="47.94737" lon="-3.96407">
        <ele>95.9</ele>
        <time>2022-12-07T11:02:57Z</time>
      </trkpt>
      <trkpt lat="47.9474" lon="-3.96403">
        <ele>96.1</ele>
        <time>2022-12-07T11:02:58Z</time>
      </trkpt>
      <trkpt lat="47.94743" lon="-3.96399">
        <ele>96.2</ele>
        <time>2022-12-07T11:02:59Z</time>
      </trkpt>
      <trkpt lat="47.94745" lon="-3.96395">
        <ele>96.4</ele>
        <time>2022-12-07T11:03:00Z</time>
      </trkpt>
      <trkpt lat="47.94748" lon="-3.96391">
        <ele>96.5</ele>
        <time>2022-12-07T11:03:01Z</time>
      </trkpt>
      <trkpt lat="47.94751" lon="-3.96387">
        <ele>96.7</ele>
        <time>2022-12-07T11:03:02Z</time>
      </trkpt>
      <trkpt lat="47.94753" lon="-3.96383">
        <ele>96.9</ele>
        <time>2022-12-07T11:03:03Z</time>
      </trkpt>
      <trkpt lat="47.94756" lon="-3.9638">
        <ele>97.1</ele>
        <time>2022-12-07T11:03:04Z</time>
      </trkpt>
      <trkpt lat="47.94759" lon="-3.96376">
        <ele>97.3</ele>
        <time>2022-12-07T11:03:05Z</time>
      </trkpt>
      <trkpt lat="47.94762" lon="-3.96372">
        <ele>97.5</ele>
        <time>2022-12-07T11:03:06Z</time>
      </trkpt>
      <trkpt lat="47.94764" lon="-3.96368">
        <ele>97.7</ele>
        <time>2022-12-07T11:03:07Z</time>
      </trkpt>
      <trkpt lat="47.94767" lon="-3.96365">
        <ele>97.9</ele>
        <time>2022-12-07T11:03:08Z</time>
      </trkpt>
      <trkpt lat="47.9477" lon="-3.96361">
        <ele>98.1</ele>
        <time>2022-12-07T11:03:09Z</time>
      </trkpt>
      <trkpt lat="47.94772" lon="-3.96357">
        <ele>98.3</ele>
        <time>2022-12-07T11:03:10Z</time>
      </trkpt>
      <trkpt lat="47.94775" lon="-3.96353">
        <ele>98.5</ele>
        <time>2022-12-07T11:03:11Z</time>
      </trkpt>
      <trkpt lat="47.94778" lon="-3.96349">
        <ele>98.7</ele>
        <time>2022-12-07T11:03:12Z</time>
      </trkpt>
      <trkpt lat="47.94781" lon="-3.96345">
        <ele>98.9</ele>
        <time>2022-12-07T11:03:13Z</time>
      </trkpt>
      <trkpt lat="47.94784" lon="-3.96341">
        <ele>99</ele>
        <time>2022-12-07T11:03:14Z</time>
      </trkpt>
      <trkpt lat="47.94786" lon="-3.96337">
        <ele>99.2</ele>
        <time>2022-12-07T11:03:15Z</time>
      </trkpt>
      <trkpt lat="47.9479" lon="-3.96331">
        <ele>99.5</ele>
        <time>2022-12-07T11:03:16Z</time>
      </trkpt>
      <trkpt lat="47.94793" lon="-3.96328">
        <ele>99.7</ele>
        <time>2022-12-07T11:03:17Z</time>
      </trkpt>
      <trkpt lat="47.94795" lon="-3.96324">
        <ele>99.8</ele>
        <time>2022-12-07T11:03:18Z</time>
      </trkpt>
      <trkpt lat="47.94798" lon="-3.96321">
        <ele>100</ele>
        <time>2022-12-07T11:03:19Z</time>
      </trkpt>
      <trkpt lat="47.94801" lon="-3.96317">
        <ele>100.2</ele>
        <time>2022-12-07T11:03:20Z</time>
      </trkpt>
      <trkpt lat="47.94804" lon="-3.96313">
        <ele>100.4</ele>
        <time>2022-12-07T11:03:21Z</time>
      </trkpt>
      <trkpt lat="47.94807" lon="-3.96309">
        <ele>100.6</ele>
        <time>2022-12-07T11:03:22Z</time>
      </trkpt>
      <trkpt lat="47.9481" lon="-3.96304">
        <ele>100.8</ele>
        <time>2022-12-07T11:03:23Z</time>
      </trkpt>
      <trkpt lat="47.94813" lon="-3.963">
        <ele>100.9</ele>
        <time>2022-12-07T11:03:24Z</time>
      </trkpt>
      <trkpt lat="47.94816" lon="-3.96296">
        <ele>101.1</ele>
        <time>2022-12-07T11:03:25Z</time>
      </trkpt>
      <trkpt lat="47.94819" lon="-3.96292">
        <ele>101.3</ele>
        <time>2022-12-07T11:03:26Z</time>
      </trkpt>
      <trkpt lat="47.94822" lon="-3.96287">
        <ele>101.5</ele>
        <time>2022-12-07T11:03:27Z</time>
      </trkpt>
      <trkpt lat="47.94824" lon="-3.96283">
        <ele>101.6</ele>
        <time>2022-12-07T11:03:28Z</time>
      </trkpt>
      <trkpt lat="47.94827" lon="-3.96279">
        <ele>101.8</ele>
        <time>2022-12-07T11:03:29Z</time>
      </trkpt>
      <trkpt lat="47.9483" lon="-3.96275">
        <ele>101.9</ele>
        <time>2022-12-07T11:03:30Z</time>
      </trkpt>
      <trkpt lat="47.94833" lon="-3.96271">
        <ele>102.1</ele>
        <time>2022-12-07T11:03:31Z</time>
      </trkpt>
      <trkpt lat="47.94836" lon="-3.96267">
        <ele>102.3</ele>
        <time>2022-12-07T11:03:32Z</time>
      </trkpt>
      <trkpt lat="47.94838" lon="-3.96263">
        <ele>102.4</ele>
        <time>2022-12-07T11:03:33Z</time>
      </trkpt>
      <trkpt lat="47.94841" lon="-3.9626">
        <ele>102.5</ele>
        <time>2022-12-07T11:03:34Z</time>
      </trkpt>
      <trkpt lat="47.94844" lon="-3.96256">
        <ele>102.7</ele>
        <time>2022-12-07T11:03:35Z</time>
      </trkpt>
      <trkpt lat="47.94846" lon="-3.96252">
        <ele>102.9</ele>
        <time>2022-12-07T11:03:36Z</time>
      </trkpt>
      <trkpt lat="47.94849" lon="-3.96248">
        <ele>103</ele>
        <time>2022-12-07T11:03:37Z</time>
      </trkpt>
      <trkpt lat="47.94852" lon="-3.96244">
        <ele>103.2</ele>
        <time>2022-12-07T11:03:38Z</time>
      </trkpt>
      <trkpt lat="47.94855" lon="-3.9624">
        <ele>103.4</ele>
        <time>2022-12-07T11:03:39Z</time>
      </trkpt>
      <trkpt lat="47.94858" lon="-3.96236">
        <ele>103.5</ele>
        <time>2022-12-07T11:03:40Z</time>
      </trkpt>
      <trkpt lat="47.94861" lon="-3.96231">
        <ele>103.7</ele>
        <time>2022-12-07T11:03:41Z</time>
      </trkpt>
      <trkpt lat="47.94865" lon="-3.96227">
        <ele>103.8</ele>
        <time>2022-12-07T11:03:42Z</time>
      </trkpt>
      <trkpt lat="47.94868" lon="-3.96223">
        <ele>103.9</ele>
        <time>2022-12-07T11:03:43Z</time>
      </trkpt>
      <trkpt lat="47.94871" lon="-3.96219">
        <ele>104.1</ele>
        <time>2022-12-07T11:03:44Z</time>
      </trkpt>
      <trkpt lat="47.94874" lon="-3.96215">
        <ele>104.2</ele>
        <time>2022-12-07T11:03:45Z</time>
      </trkpt>
      <trkpt lat="47.94877" lon="-3.96211">
        <ele>104.3</ele>
        <time>2022-12-07T11:03:46Z</time>
      </trkpt>
      <trkpt lat="47.9488" lon="-3.96207">
        <ele>104.4</ele>
        <time>2022-12-07T11:03:47Z</time>
      </trkpt>
      <trkpt lat="47.94883" lon="-3.96202">
        <ele>104.5</ele>
        <time>2022-12-07T11:03:48Z</time>
      </trkpt>
      <trkpt lat="47.94886" lon="-3.96198">
        <ele>104.6</ele>
        <time>2022-12-07T11:03:49Z</time>
      </trkpt>
      <trkpt lat="47.94889" lon="-3.96194">
        <ele>104.7</ele>
        <time>2022-12-07T11:03:50Z</time>
      </trkpt>
      <trkpt lat="47.94892" lon="-3.96189">
        <ele>104.8</ele>
        <time>2022-12-07T11:03:51Z</time>
      </trkpt>
      <trkpt lat="47.94895" lon="-3.96185">
        <ele>104.9</ele>
        <time>2022-12-07T11:03:52Z</time>
      </trkpt>
      <trkpt lat="47.94899" lon="-3.9618">
        <ele>105</ele>
        <time>2022-12-07T11:03:53Z</time>
      </trkpt>
      <trkpt lat="47.94902" lon="-3.96176">
        <ele>105.2</ele>
        <time>2022-12-07T11:03:54Z</time>
      </trkpt>
      <trkpt lat="47.94905" lon="-3.96171">
        <ele>105.3</ele>
        <time>2022-12-07T11:03:55Z</time>
      </trkpt>
      <trkpt lat="47.94908" lon="-3.96167">
        <ele>105.4</ele>
        <time>2022-12-07T11:03:56Z</time>
      </trkpt>
      <trkpt lat="47.94911" lon="-3.96162">
        <ele>105.6</ele>
        <time>2022-12-07T11:03:57Z</time>
      </trkpt>
      <trkpt lat="47.94914" lon="-3.96158">
        <ele>105.7</ele>
        <time>2022-12-07T11:03:58Z</time>
      </trkpt>
      <trkpt lat="47.94918" lon="-3.96154">
        <ele>105.8</ele>
        <time>2022-12-07T11:03:59Z</time>
      </trkpt>
      <trkpt lat="47.94921" lon="-3.96149">
        <ele>106</ele>
        <time>2022-12-07T11:04:00Z</time>
      </trkpt>
      <trkpt lat="47.94924" lon="-3.96144">
        <ele>106.1</ele>
        <time>2022-12-07T11:04:01Z</time>
      </trkpt>
      <trkpt lat="47.94927" lon="-3.9614">
        <ele>106.2</ele>
        <time>2022-12-07T11:04:02Z</time>
      </trkpt>
      <trkpt lat="47.9493" lon="-3.96135">
        <ele>106.3</ele>
        <time>2022-12-07T11:04:03Z</time>
      </trkpt>
      <trkpt lat="47.94933" lon="-3.96131">
        <ele>106.4</ele>
        <time>2022-12-07T11:04:04Z</time>
      </trkpt>
      <trkpt lat="47.94937" lon="-3.96126">
        <ele>106.5</ele>
        <time>2022-12-07T11:04:05Z</time>
      </trkpt>
      <trkpt lat="47.9494" lon="-3.96122">
        <ele>106.6</ele>
        <time>2022-12-07T11:04:06Z</time>
      </trkpt>
      <trkpt lat="47.94943" lon="-3.96117">
        <ele>106.7</ele>
        <time>2022-12-07T11:04:07Z</time>
      </trkpt>
      <trkpt lat="47.94947" lon="-3.96113">
        <ele>106.8</ele>
        <time>2022-12-07T11:04:08Z</time>
      </trkpt>
      <trkpt lat="47.9495" lon="-3.96108">
        <ele>106.9</ele>
        <time>2022-12-07T11:04:09Z</time>
      </trkpt>
      <trkpt lat="47.94953" lon="-3.96103">
        <ele>107</ele>
        <time>2022-12-07T11:04:10Z</time>
      </trkpt>
      <trkpt lat="47.94956" lon="-3.96098">
        <ele>107.1</ele>
        <time>2022-12-07T11:04:11Z</time>
      </trkpt>
      <trkpt lat="47.94959" lon="-3.96093">
        <ele>107.2</ele>
        <time>2022-12-07T11:04:12Z</time>
      </trkpt>
      <trkpt lat="47.94962" lon="-3.96088">
        <ele>107.2</ele>
        <time>2022-12-07T11:04:13Z</time>
      </trkpt>
      <trkpt lat="47.94964" lon="-3.96083">
        <ele>107.2</ele>
        <time>2022-12-07T11:04:14Z</time>
      </trkpt>
      <trkpt lat="47.94967" lon="-3.96078">
        <ele>107.2</ele>
        <time>2022-12-07T11:04:15Z</time>
      </trkpt>
      <trkpt lat="47.94969" lon="-3.96073">
        <ele>107.2</ele>
        <time>2022-12-07T11:04:16Z</time>
      </trkpt>
      <trkpt lat="47.94972" lon="-3.96069">
        <ele>107.2</ele>
        <time>2022-12-07T11:04:17Z</time>
      </trkpt>
      <trkpt lat="47.94976" lon="-3.96064">
        <ele>107.2</ele>
        <time>2022-12-07T11:04:18Z</time>
      </trkpt>
      <trkpt lat="47.9498" lon="-3.96061">
        <ele>107.3</ele>
        <time>2022-12-07T11:04:19Z</time>
      </trkpt>
      <trkpt lat="47.94984" lon="-3.96059">
        <ele>107.4</ele>
        <time>2022-12-07T11:04:20Z</time>
      </trkpt>
      <trkpt lat="47.94988" lon="-3.96057">
        <ele>107.5</ele>
        <time>2022-12-07T11:04:21Z</time>
      </trkpt>
      <trkpt lat="47.94992" lon="-3.96056">
        <ele>107.5</ele>
        <time>2022-12-07T11:04:22Z</time>
      </trkpt>
      <trkpt lat="47.94997" lon="-3.96054">
        <ele>107.6</ele>
        <time>2022-12-07T11:04:23Z</time>
      </trkpt>
      <trkpt lat="47.95001" lon="-3.96052">
        <ele>107.7</ele>
        <time>2022-12-07T11:04:24Z</time>
      </trkpt>
      <trkpt lat="47.95006" lon="-3.9605">
        <ele>107.8</ele>
        <time>2022-12-07T11:04:25Z</time>
      </trkpt>
      <trkpt lat="47.95011" lon="-3.96048">
        <ele>107.9</ele>
        <time>2022-12-07T11:04:26Z</time>
      </trkpt>
      <trkpt lat="47.95015" lon="-3.96046">
        <ele>108</ele>
        <time>2022-12-07T11:04:27Z</time>
      </trkpt>
      <trkpt lat="47.95018" lon="-3.96043">
        <ele>108.1</ele>
        <time>2022-12-07T11:04:28Z</time>
      </trkpt>
      <trkpt lat="47.95019" lon="-3.96041">
        <ele>108.1</ele>
        <time>2022-12-07T11:04:29Z</time>
      </trkpt>
      <trkpt lat="47.95023" lon="-3.96037">
        <ele>108.1</ele>
        <time>2022-12-07T11:04:30Z</time>
      </trkpt>
      <trkpt lat="47.95026" lon="-3.96034">
        <ele>108.2</ele>
        <time>2022-12-07T11:04:31Z</time>
      </trkpt>
      <trkpt lat="47.9503" lon="-3.9603">
        <ele>108.3</ele>
        <time>2022-12-07T11:04:32Z</time>
      </trkpt>
      <trkpt lat="47.95034" lon="-3.96026">
        <ele>108.3</ele>
        <time>2022-12-07T11:04:33Z</time>
      </trkpt>
      <trkpt lat="47.95038" lon="-3.96022">
        <ele>108.4</ele>
        <time>2022-12-07T11:04:34Z</time>
      </trkpt>
      <trkpt lat="47.95041" lon="-3.96018">
        <ele>108.4</ele>
        <time>2022-12-07T11:04:35Z</time>
      </trkpt>
      <trkpt lat="47.95045" lon="-3.96014">
        <ele>108.5</ele>
        <time>2022-12-07T11:04:36Z</time>
      </trkpt>
      <trkpt lat="47.95048" lon="-3.9601">
        <ele>108.6</ele>
        <time>2022-12-07T11:04:37Z</time>
      </trkpt>
      <trkpt lat="47.95052" lon="-3.96006">
        <ele>108.6</ele>
        <time>2022-12-07T11:04:38Z</time>
      </trkpt>
      <trkpt lat="47.95055" lon="-3.96003">
        <ele>108.7</ele>
        <time>2022-12-07T11:04:39Z</time>
      </trkpt>
      <trkpt lat="47.95063" lon="-3.95995">
        <ele>108.8</ele>
        <time>2022-12-07T11:04:41Z</time>
      </trkpt>
      <trkpt lat="47.95066" lon="-3.95991">
        <ele>108.9</ele>
        <time>2022-12-07T11:04:42Z</time>
      </trkpt>
      <trkpt lat="47.9507" lon="-3.95987">
        <ele>108.9</ele>
        <time>2022-12-07T11:04:43Z</time>
      </trkpt>
      <trkpt lat="47.95075" lon="-3.95983">
        <ele>109</ele>
        <time>2022-12-07T11:04:44Z</time>
      </trkpt>
      <trkpt lat="47.95079" lon="-3.95979">
        <ele>109</ele>
        <time>2022-12-07T11:04:45Z</time>
      </trkpt>
      <trkpt lat="47.95083" lon="-3.95975">
        <ele>109</ele>
        <time>2022-12-07T11:04:46Z</time>
      </trkpt>
      <trkpt lat="47.95087" lon="-3.95971">
        <ele>109</ele>
        <time>2022-12-07T11:04:47Z</time>
      </trkpt>
      <trkpt lat="47.95091" lon="-3.95966">
        <ele>109</ele>
        <time>2022-12-07T11:04:48Z</time>
      </trkpt>
      <trkpt lat="47.95095" lon="-3.95962">
        <ele>109</ele>
        <time>2022-12-07T11:04:49Z</time>
      </trkpt>
      <trkpt lat="47.95099" lon="-3.95957">
        <ele>108.9</ele>
        <time>2022-12-07T11:04:50Z</time>
      </trkpt>
      <trkpt lat="47.95103" lon="-3.95953">
        <ele>108.9</ele>
        <time>2022-12-07T11:04:51Z</time>
      </trkpt>
      <trkpt lat="47.95107" lon="-3.95949">
        <ele>108.8</ele>
        <time>2022-12-07T11:04:52Z</time>
      </trkpt>
      <trkpt lat="47.95111" lon="-3.95945">
        <ele>108.8</ele>
        <time>2022-12-07T11:04:53Z</time>
      </trkpt>
      <trkpt lat="47.95116" lon="-3.95941">
        <ele>108.6</ele>
        <time>2022-12-07T11:04:54Z</time>
      </trkpt>
      <trkpt lat="47.9512" lon="-3.95936">
        <ele>108.5</ele>
        <time>2022-12-07T11:04:55Z</time>
      </trkpt>
      <trkpt lat="47.95124" lon="-3.95932">
        <ele>108.4</ele>
        <time>2022-12-07T11:04:56Z</time>
      </trkpt>
      <trkpt lat="47.95129" lon="-3.95927">
        <ele>108.2</ele>
        <time>2022-12-07T11:04:57Z</time>
      </trkpt>
      <trkpt lat="47.95134" lon="-3.95922">
        <ele>108</ele>
        <time>2022-12-07T11:04:58Z</time>
      </trkpt>
      <trkpt lat="47.95138" lon="-3.95918">
        <ele>107.8</ele>
        <time>2022-12-07T11:04:59Z</time>
      </trkpt>
      <trkpt lat="47.95143" lon="-3.95913">
        <ele>107.6</ele>
        <time>2022-12-07T11:05:00Z</time>
      </trkpt>
      <trkpt lat="47.95148" lon="-3.95908">
        <ele>107.4</ele>
        <time>2022-12-07T11:05:01Z</time>
      </trkpt>
      <trkpt lat="47.95154" lon="-3.95903">
        <ele>107.1</ele>
        <time>2022-12-07T11:05:02Z</time>
      </trkpt>
      <trkpt lat="47.95159" lon="-3.95897">
        <ele>106.9</ele>
        <time>2022-12-07T11:05:03Z</time>
      </trkpt>
      <trkpt lat="47.95164" lon="-3.95891">
        <ele>106.5</ele>
        <time>2022-12-07T11:05:04Z</time>
      </trkpt>
      <trkpt lat="47.9517" lon="-3.95885">
        <ele>106.2</ele>
        <time>2022-12-07T11:05:05Z</time>
      </trkpt>
      <trkpt lat="47.95175" lon="-3.9588">
        <ele>105.9</ele>
        <time>2022-12-07T11:05:06Z</time>
      </trkpt>
      <trkpt lat="47.95181" lon="-3.95875">
        <ele>105.7</ele>
        <time>2022-12-07T11:05:07Z</time>
      </trkpt>
      <trkpt lat="47.95186" lon="-3.95869">
        <ele>105.4</ele>
        <time>2022-12-07T11:05:08Z</time>
      </trkpt>
      <trkpt lat="47.95192" lon="-3.95863">
        <ele>105.2</ele>
        <time>2022-12-07T11:05:09Z</time>
      </trkpt>
      <trkpt lat="47.95197" lon="-3.95858">
        <ele>105</ele>
        <time>2022-12-07T11:05:10Z</time>
      </trkpt>
      <trkpt lat="47.95203" lon="-3.95852">
        <ele>104.8</ele>
        <time>2022-12-07T11:05:11Z</time>
      </trkpt>
      <trkpt lat="47.95208" lon="-3.95846">
        <ele>104.6</ele>
        <time>2022-12-07T11:05:12Z</time>
      </trkpt>
      <trkpt lat="47.95214" lon="-3.9584">
        <ele>104.5</ele>
        <time>2022-12-07T11:05:13Z</time>
      </trkpt>
      <trkpt lat="47.9522" lon="-3.95834">
        <ele>104.2</ele>
        <time>2022-12-07T11:05:14Z</time>
      </trkpt>
      <trkpt lat="47.95225" lon="-3.95828">
        <ele>104.2</ele>
        <time>2022-12-07T11:05:15Z</time>
      </trkpt>
      <trkpt lat="47.9523" lon="-3.95823">
        <ele>104.3</ele>
        <time>2022-12-07T11:05:16Z</time>
      </trkpt>
      <trkpt lat="47.95235" lon="-3.95818">
        <ele>104.3</ele>
        <time>2022-12-07T11:05:17Z</time>
      </trkpt>
      <trkpt lat="47.9524" lon="-3.95813">
        <ele>104.4</ele>
        <time>2022-12-07T11:05:18Z</time>
      </trkpt>
      <trkpt lat="47.95244" lon="-3.95808">
        <ele>104.5</ele>
        <time>2022-12-07T11:05:19Z</time>
      </trkpt>
      <trkpt lat="47.95248" lon="-3.95803">
        <ele>104.5</ele>
        <time>2022-12-07T11:05:20Z</time>
      </trkpt>
      <trkpt lat="47.95252" lon="-3.958">
        <ele>104.6</ele>
        <time>2022-12-07T11:05:21Z</time>
      </trkpt>
      <trkpt lat="47.95255" lon="-3.95796">
        <ele>104.7</ele>
        <time>2022-12-07T11:05:22Z</time>
      </trkpt>
      <trkpt lat="47.95258" lon="-3.95794">
        <ele>104.7</ele>
        <time>2022-12-07T11:05:23Z</time>
      </trkpt>
      <trkpt lat="47.95261" lon="-3.9579">
        <ele>104.8</ele>
        <time>2022-12-07T11:05:24Z</time>
      </trkpt>
      <trkpt lat="47.95265" lon="-3.95786">
        <ele>105</ele>
        <time>2022-12-07T11:05:25Z</time>
      </trkpt>
      <trkpt lat="47.95268" lon="-3.95783">
        <ele>105.1</ele>
        <time>2022-12-07T11:05:26Z</time>
      </trkpt>
      <trkpt lat="47.95271" lon="-3.9578">
        <ele>105.2</ele>
        <time>2022-12-07T11:05:27Z</time>
      </trkpt>
      <trkpt lat="47.95272" lon="-3.9578">
        <ele>105.3</ele>
        <time>2022-12-07T11:05:28Z</time>
      </trkpt>
      <trkpt lat="47.95274" lon="-3.95778">
        <ele>105.2</ele>
        <time>2022-12-07T11:05:29Z</time>
      </trkpt>
      <trkpt lat="47.95275" lon="-3.95777">
        <ele>105.2</ele>
        <time>2022-12-07T11:05:30Z</time>
      </trkpt>
      <trkpt lat="47.95276" lon="-3.95775">
        <ele>105.2</ele>
        <time>2022-12-07T11:05:31Z</time>
      </trkpt>
      <trkpt lat="47.95278" lon="-3.95774">
        <ele>105.2</ele>
        <time>2022-12-07T11:05:32Z</time>
      </trkpt>
      <trkpt lat="47.95278" lon="-3.95772">
        <ele>105.2</ele>
        <time>2022-12-07T11:05:33Z</time>
      </trkpt>
      <trkpt lat="47.95279" lon="-3.95771">
        <ele>105.1</ele>
        <time>2022-12-07T11:05:34Z</time>
      </trkpt>
      <trkpt lat="47.95279" lon="-3.9577">
        <ele>105.1</ele>
        <time>2022-12-07T11:05:35Z</time>
      </trkpt>
      <trkpt lat="47.9528" lon="-3.95769">
        <ele>105.1</ele>
        <time>2022-12-07T11:05:36Z</time>
      </trkpt>
      <trkpt lat="47.95281" lon="-3.95771">
        <ele>105.1</ele>
        <time>2022-12-07T11:05:37Z</time>
      </trkpt>
      <trkpt lat="47.95281" lon="-3.95773">
        <ele>105.1</ele>
        <time>2022-12-07T11:05:38Z</time>
      </trkpt>
      <trkpt lat="47.9528" lon="-3.95773">
        <ele>105.1</ele>
        <time>2022-12-07T11:05:39Z</time>
      </trkpt>
      <trkpt lat="47.95277" lon="-3.95774">
        <ele>105</ele>
        <time>2022-12-07T11:05:40Z</time>
      </trkpt>
      <trkpt lat="47.95273" lon="-3.95777">
        <ele>105</ele>
        <time>2022-12-07T11:05:41Z</time>
      </trkpt>
      <trkpt lat="47.95272" lon="-3.95778">
        <ele>105</ele>
        <time>2022-12-07T11:05:42Z</time>
      </trkpt>
      <trkpt lat="47.95269" lon="-3.95781">
        <ele>104.9</ele>
        <time>2022-12-07T11:05:43Z</time>
      </trkpt>
      <trkpt lat="47.95268" lon="-3.95782">
        <ele>104.9</ele>
        <time>2022-12-07T11:05:44Z</time>
      </trkpt>
      <trkpt lat="47.95267" lon="-3.95783">
        <ele>104.9</ele>
        <time>2022-12-07T11:05:45Z</time>
      </trkpt>
      <trkpt lat="47.95266" lon="-3.95785">
        <ele>104.9</ele>
        <time>2022-12-07T11:05:46Z</time>
      </trkpt>
      <trkpt lat="47.95265" lon="-3.95786">
        <ele>104.9</ele>
        <time>2022-12-07T11:05:47Z</time>
      </trkpt>
      <trkpt lat="47.95264" lon="-3.95788">
        <ele>104.9</ele>
        <time>2022-12-07T11:05:48Z</time>
      </trkpt>
      <trkpt lat="47.9526" lon="-3.9579">
        <ele>104.8</ele>
        <time>2022-12-07T11:05:49Z</time>
      </trkpt>
      <trkpt lat="47.95259" lon="-3.95791">
        <ele>104.8</ele>
        <time>2022-12-07T11:05:50Z</time>
      </trkpt>
      <trkpt lat="47.95259" lon="-3.95795">
        <ele>104.9</ele>
        <time>2022-12-07T11:05:51Z</time>
      </trkpt>
      <trkpt lat="47.9526" lon="-3.95797">
        <ele>104.9</ele>
        <time>2022-12-07T11:05:52Z</time>
      </trkpt>
      <trkpt lat="47.95264" lon="-3.95798">
        <ele>105</ele>
        <time>2022-12-07T11:05:53Z</time>
      </trkpt>
      <trkpt lat="47.95266" lon="-3.95799">
        <ele>105</ele>
        <time>2022-12-07T11:05:54Z</time>
      </trkpt>
      <trkpt lat="47.95269" lon="-3.958">
        <ele>105.1</ele>
        <time>2022-12-07T11:05:55Z</time>
      </trkpt>
      <trkpt lat="47.95273" lon="-3.95804">
        <ele>105.2</ele>
        <time>2022-12-07T11:05:57Z</time>
      </trkpt>
      <trkpt lat="47.95277" lon="-3.95807">
        <ele>105.4</ele>
        <time>2022-12-07T11:05:58Z</time>
      </trkpt>
      <trkpt lat="47.95279" lon="-3.9581">
        <ele>105.5</ele>
        <time>2022-12-07T11:05:59Z</time>
      </trkpt>
      <trkpt lat="47.9528" lon="-3.95811">
        <ele>105.5</ele>
        <time>2022-12-07T11:06:00Z</time>
      </trkpt>
      <trkpt lat="47.95284" lon="-3.95812">
        <ele>105.6</ele>
        <time>2022-12-07T11:06:01Z</time>
      </trkpt>
      <trkpt lat="47.95286" lon="-3.95813">
        <ele>105.7</ele>
        <time>2022-12-07T11:06:02Z</time>
      </trkpt>
      <trkpt lat="47.95289" lon="-3.95814">
        <ele>105.8</ele>
        <time>2022-12-07T11:06:03Z</time>
      </trkpt>
      <trkpt lat="47.95292" lon="-3.95816">
        <ele>105.9</ele>
        <time>2022-12-07T11:06:04Z</time>
      </trkpt>
      <trkpt lat="47.95296" lon="-3.95818">
        <ele>106</ele>
        <time>2022-12-07T11:06:05Z</time>
      </trkpt>
      <trkpt lat="47.95298" lon="-3.95818">
        <ele>106</ele>
        <time>2022-12-07T11:06:06Z</time>
      </trkpt>
      <trkpt lat="47.953" lon="-3.95819">
        <ele>106.1</ele>
        <time>2022-12-07T11:06:07Z</time>
      </trkpt>
      <trkpt lat="47.95304" lon="-3.95822">
        <ele>106.2</ele>
        <time>2022-12-07T11:06:08Z</time>
      </trkpt>
      <trkpt lat="47.95306" lon="-3.95824">
        <ele>106.2</ele>
        <time>2022-12-07T11:06:09Z</time>
      </trkpt>
      <trkpt lat="47.95311" lon="-3.95825">
        <ele>106.2</ele>
        <time>2022-12-07T11:06:10Z</time>
      </trkpt>
      <trkpt lat="47.95314" lon="-3.95827">
        <ele>106.2</ele>
        <time>2022-12-07T11:06:11Z</time>
      </trkpt>
      <trkpt lat="47.95316" lon="-3.95832">
        <ele>106.3</ele>
        <time>2022-12-07T11:06:12Z</time>
      </trkpt>
      <trkpt lat="47.95316" lon="-3.95835">
        <ele>106.3</ele>
        <time>2022-12-07T11:06:13Z</time>
      </trkpt>
      <trkpt lat="47.95316" lon="-3.95842">
        <ele>106.3</ele>
        <time>2022-12-07T11:06:14Z</time>
      </trkpt>
      <trkpt lat="47.95317" lon="-3.95849">
        <ele>106.3</ele>
        <time>2022-12-07T11:06:15Z</time>
      </trkpt>
      <trkpt lat="47.95319" lon="-3.95854">
        <ele>106.3</ele>
        <time>2022-12-07T11:06:16Z</time>
      </trkpt>
      <trkpt lat="47.95322" lon="-3.9586">
        <ele>106.3</ele>
        <time>2022-12-07T11:06:17Z</time>
      </trkpt>
      <trkpt lat="47.95323" lon="-3.95865">
        <ele>106.3</ele>
        <time>2022-12-07T11:06:18Z</time>
      </trkpt>
      <trkpt lat="47.95324" lon="-3.95871">
        <ele>106.3</ele>
        <time>2022-12-07T11:06:19Z</time>
      </trkpt>
      <trkpt lat="47.95325" lon="-3.95876">
        <ele>106.3</ele>
        <time>2022-12-07T11:06:20Z</time>
      </trkpt>
      <trkpt lat="47.95326" lon="-3.95882">
        <ele>106.3</ele>
        <time>2022-12-07T11:06:21Z</time>
      </trkpt>
      <trkpt lat="47.95327" lon="-3.95888">
        <ele>106.2</ele>
        <time>2022-12-07T11:06:22Z</time>
      </trkpt>
      <trkpt lat="47.95327" lon="-3.95895">
        <ele>106.2</ele>
        <time>2022-12-07T11:06:23Z</time>
      </trkpt>
      <trkpt lat="47.9533" lon="-3.959">
        <ele>106.2</ele>
        <time>2022-12-07T11:06:24Z</time>
      </trkpt>
      <trkpt lat="47.95331" lon="-3.95904">
        <ele>106.2</ele>
        <time>2022-12-07T11:06:25Z</time>
      </trkpt>
      <trkpt lat="47.95333" lon="-3.95909">
        <ele>106.1</ele>
        <time>2022-12-07T11:06:26Z</time>
      </trkpt>
      <trkpt lat="47.95336" lon="-3.95914">
        <ele>106.1</ele>
        <time>2022-12-07T11:06:28Z</time>
      </trkpt>
      <trkpt lat="47.95339" lon="-3.95919">
        <ele>106.1</ele>
        <time>2022-12-07T11:06:29Z</time>
      </trkpt>
      <trkpt lat="47.95343" lon="-3.95925">
        <ele>106</ele>
        <time>2022-12-07T11:06:30Z</time>
      </trkpt>
      <trkpt lat="47.95345" lon="-3.95933">
        <ele>105.9</ele>
        <time>2022-12-07T11:06:32Z</time>
      </trkpt>
      <trkpt lat="47.95347" lon="-3.95939">
        <ele>105.8</ele>
        <time>2022-12-07T11:06:33Z</time>
      </trkpt>
      <trkpt lat="47.95349" lon="-3.95949">
        <ele>105.7</ele>
        <time>2022-12-07T11:06:34Z</time>
      </trkpt>
      <trkpt lat="47.95351" lon="-3.95957">
        <ele>105.6</ele>
        <time>2022-12-07T11:06:35Z</time>
      </trkpt>
      <trkpt lat="47.95353" lon="-3.95964">
        <ele>105.5</ele>
        <time>2022-12-07T11:06:37Z</time>
      </trkpt>
      <trkpt lat="47.95355" lon="-3.95974">
        <ele>105.4</ele>
        <time>2022-12-07T11:06:38Z</time>
      </trkpt>
      <trkpt lat="47.95358" lon="-3.9598">
        <ele>105.4</ele>
        <time>2022-12-07T11:06:39Z</time>
      </trkpt>
      <trkpt lat="47.95361" lon="-3.95983">
        <ele>105.3</ele>
        <time>2022-12-07T11:06:40Z</time>
      </trkpt>
      <trkpt lat="47.95365" lon="-3.9599">
        <ele>105.1</ele>
        <time>2022-12-07T11:06:42Z</time>
      </trkpt>
      <trkpt lat="47.95368" lon="-3.95997">
        <ele>104.9</ele>
        <time>2022-12-07T11:06:43Z</time>
      </trkpt>
      <trkpt lat="47.95369" lon="-3.96004">
        <ele>104.8</ele>
        <time>2022-12-07T11:06:44Z</time>
      </trkpt>
      <trkpt lat="47.95371" lon="-3.96009">
        <ele>104.6</ele>
        <time>2022-12-07T11:06:45Z</time>
      </trkpt>
      <trkpt lat="47.95371" lon="-3.96016">
        <ele>104.5</ele>
        <time>2022-12-07T11:06:46Z</time>
      </trkpt>
      <trkpt lat="47.9537" lon="-3.96023">
        <ele>104.3</ele>
        <time>2022-12-07T11:06:47Z</time>
      </trkpt>
      <trkpt lat="47.95368" lon="-3.96029">
        <ele>104.1</ele>
        <time>2022-12-07T11:06:48Z</time>
      </trkpt>
      <trkpt lat="47.95367" lon="-3.96034">
        <ele>104</ele>
        <time>2022-12-07T11:06:49Z</time>
      </trkpt>
      <trkpt lat="47.95366" lon="-3.96039">
        <ele>103.8</ele>
        <time>2022-12-07T11:06:50Z</time>
      </trkpt>
      <trkpt lat="47.95366" lon="-3.96044">
        <ele>103.7</ele>
        <time>2022-12-07T11:06:51Z</time>
      </trkpt>
      <trkpt lat="47.95368" lon="-3.96049">
        <ele>103.6</ele>
        <time>2022-12-07T11:06:52Z</time>
      </trkpt>
      <trkpt lat="47.95369" lon="-3.9605">
        <ele>103.5</ele>
        <time>2022-12-07T11:06:53Z</time>
      </trkpt>
      <trkpt lat="47.95372" lon="-3.96055">
        <ele>103.3</ele>
        <time>2022-12-07T11:06:54Z</time>
      </trkpt>
      <trkpt lat="47.95375" lon="-3.96058">
        <ele>103.2</ele>
        <time>2022-12-07T11:06:55Z</time>
      </trkpt>
      <trkpt lat="47.95378" lon="-3.96061">
        <ele>103</ele>
        <time>2022-12-07T11:06:56Z</time>
      </trkpt>
      <trkpt lat="47.95381" lon="-3.96062">
        <ele>102.9</ele>
        <time>2022-12-07T11:06:57Z</time>
      </trkpt>
      <trkpt lat="47.95384" lon="-3.96065">
        <ele>102.7</ele>
        <time>2022-12-07T11:06:58Z</time>
      </trkpt>
      <trkpt lat="47.95385" lon="-3.9607">
        <ele>102.5</ele>
        <time>2022-12-07T11:06:59Z</time>
      </trkpt>
      <trkpt lat="47.95387" lon="-3.96076">
        <ele>102.3</ele>
        <time>2022-12-07T11:07:00Z</time>
      </trkpt>
      <trkpt lat="47.95388" lon="-3.96083">
        <ele>102.1</ele>
        <time>2022-12-07T11:07:01Z</time>
      </trkpt>
      <trkpt lat="47.95388" lon="-3.9609">
        <ele>101.8</ele>
        <time>2022-12-07T11:07:02Z</time>
      </trkpt>
      <trkpt lat="47.95387" lon="-3.96095">
        <ele>101.6</ele>
        <time>2022-12-07T11:07:03Z</time>
      </trkpt>
      <trkpt lat="47.95386" lon="-3.961">
        <ele>101.5</ele>
        <time>2022-12-07T11:07:04Z</time>
      </trkpt>
      <trkpt lat="47.95386" lon="-3.96106">
        <ele>101.3</ele>
        <time>2022-12-07T11:07:05Z</time>
      </trkpt>
      <trkpt lat="47.95386" lon="-3.96112">
        <ele>101.1</ele>
        <time>2022-12-07T11:07:06Z</time>
      </trkpt>
      <trkpt lat="47.95388" lon="-3.96115">
        <ele>100.9</ele>
        <time>2022-12-07T11:07:07Z</time>
      </trkpt>
      <trkpt lat="47.9539" lon="-3.9612">
        <ele>100.7</ele>
        <time>2022-12-07T11:07:08Z</time>
      </trkpt>
      <trkpt lat="47.95392" lon="-3.96125">
        <ele>100.5</ele>
        <time>2022-12-07T11:07:09Z</time>
      </trkpt>
      <trkpt lat="47.95394" lon="-3.96127">
        <ele>100.4</ele>
        <time>2022-12-07T11:07:10Z</time>
      </trkpt>
      <trkpt lat="47.95396" lon="-3.96132">
        <ele>100.2</ele>
        <time>2022-12-07T11:07:12Z</time>
      </trkpt>
      <trkpt lat="47.95396" lon="-3.96138">
        <ele>99.9</ele>
        <time>2022-12-07T11:07:13Z</time>
      </trkpt>
      <trkpt lat="47.95396" lon="-3.96141">
        <ele>99.8</ele>
        <time>2022-12-07T11:07:14Z</time>
      </trkpt>
      <trkpt lat="47.95399" lon="-3.96145">
        <ele>99.6</ele>
        <time>2022-12-07T11:07:16Z</time>
      </trkpt>
      <trkpt lat="47.95399" lon="-3.9615">
        <ele>99.4</ele>
        <time>2022-12-07T11:07:17Z</time>
      </trkpt>
      <trkpt lat="47.95399" lon="-3.96152">
        <ele>99.3</ele>
        <time>2022-12-07T11:07:18Z</time>
      </trkpt>
      <trkpt lat="47.95398" lon="-3.96155">
        <ele>99.2</ele>
        <time>2022-12-07T11:07:19Z</time>
      </trkpt>
      <trkpt lat="47.95398" lon="-3.96161">
        <ele>98.9</ele>
        <time>2022-12-07T11:07:21Z</time>
      </trkpt>
      <trkpt lat="47.95399" lon="-3.96166">
        <ele>98.7</ele>
        <time>2022-12-07T11:07:22Z</time>
      </trkpt>
      <trkpt lat="47.95401" lon="-3.96173">
        <ele>98.3</ele>
        <time>2022-12-07T11:07:23Z</time>
      </trkpt>
      <trkpt lat="47.95402" lon="-3.96179">
        <ele>98.1</ele>
        <time>2022-12-07T11:07:24Z</time>
      </trkpt>
      <trkpt lat="47.95404" lon="-3.96184">
        <ele>97.8</ele>
        <time>2022-12-07T11:07:25Z</time>
      </trkpt>
      <trkpt lat="47.95406" lon="-3.96188">
        <ele>97.6</ele>
        <time>2022-12-07T11:07:27Z</time>
      </trkpt>
      <trkpt lat="47.95405" lon="-3.96192">
        <ele>97.3</ele>
        <time>2022-12-07T11:07:28Z</time>
      </trkpt>
      <trkpt lat="47.95405" lon="-3.96198">
        <ele>97.1</ele>
        <time>2022-12-07T11:07:29Z</time>
      </trkpt>
      <trkpt lat="47.95405" lon="-3.962">
        <ele>96.9</ele>
        <time>2022-12-07T11:07:30Z</time>
      </trkpt>
      <trkpt lat="47.95405" lon="-3.96206">
        <ele>96.6</ele>
        <time>2022-12-07T11:07:31Z</time>
      </trkpt>
      <trkpt lat="47.95405" lon="-3.9621">
        <ele>96.4</ele>
        <time>2022-12-07T11:07:32Z</time>
      </trkpt>
      <trkpt lat="47.95406" lon="-3.96214">
        <ele>96.2</ele>
        <time>2022-12-07T11:07:33Z</time>
      </trkpt>
      <trkpt lat="47.95407" lon="-3.96218">
        <ele>95.9</ele>
        <time>2022-12-07T11:07:34Z</time>
      </trkpt>
      <trkpt lat="47.95409" lon="-3.96222">
        <ele>95.6</ele>
        <time>2022-12-07T11:07:35Z</time>
      </trkpt>
      <trkpt lat="47.95409" lon="-3.96226">
        <ele>95.4</ele>
        <time>2022-12-07T11:07:36Z</time>
      </trkpt>
      <trkpt lat="47.95409" lon="-3.96228">
        <ele>95.3</ele>
        <time>2022-12-07T11:07:37Z</time>
      </trkpt>
      <trkpt lat="47.95408" lon="-3.96233">
        <ele>94.9</ele>
        <time>2022-12-07T11:07:38Z</time>
      </trkpt>
      <trkpt lat="47.95408" lon="-3.96237">
        <ele>94.7</ele>
        <time>2022-12-07T11:07:39Z</time>
      </trkpt>
      <trkpt lat="47.95408" lon="-3.96243">
        <ele>94.3</ele>
        <time>2022-12-07T11:07:41Z</time>
      </trkpt>
      <trkpt lat="47.95409" lon="-3.96247">
        <ele>94</ele>
        <time>2022-12-07T11:07:42Z</time>
      </trkpt>
      <trkpt lat="47.95408" lon="-3.96254">
        <ele>93.5</ele>
        <time>2022-12-07T11:07:43Z</time>
      </trkpt>
      <trkpt lat="47.95405" lon="-3.96262">
        <ele>92.9</ele>
        <time>2022-12-07T11:07:44Z</time>
      </trkpt>
      <trkpt lat="47.95405" lon="-3.96268">
        <ele>92.6</ele>
        <time>2022-12-07T11:07:45Z</time>
      </trkpt>
      <trkpt lat="47.95405" lon="-3.96279">
        <ele>91.9</ele>
        <time>2022-12-07T11:07:46Z</time>
      </trkpt>
      <trkpt lat="47.95403" lon="-3.9629">
        <ele>91.4</ele>
        <time>2022-12-07T11:07:47Z</time>
      </trkpt>
      <trkpt lat="47.95402" lon="-3.96299">
        <ele>91.2</ele>
        <time>2022-12-07T11:07:48Z</time>
      </trkpt>
      <trkpt lat="47.95401" lon="-3.96304">
        <ele>91.1</ele>
        <time>2022-12-07T11:07:49Z</time>
      </trkpt>
      <trkpt lat="47.95399" lon="-3.96311">
        <ele>91.1</ele>
        <time>2022-12-07T11:07:50Z</time>
      </trkpt>
      <trkpt lat="47.95397" lon="-3.96318">
        <ele>91.2</ele>
        <time>2022-12-07T11:07:52Z</time>
      </trkpt>
      <trkpt lat="47.95395" lon="-3.96321">
        <ele>91.3</ele>
        <time>2022-12-07T11:07:53Z</time>
      </trkpt>
      <trkpt lat="47.95394" lon="-3.96326">
        <ele>91.3</ele>
        <time>2022-12-07T11:07:54Z</time>
      </trkpt>
      <trkpt lat="47.95394" lon="-3.96328">
        <ele>91.3</ele>
        <time>2022-12-07T11:07:55Z</time>
      </trkpt>
      <trkpt lat="47.95394" lon="-3.96333">
        <ele>91.3</ele>
        <time>2022-12-07T11:07:56Z</time>
      </trkpt>
      <trkpt lat="47.95394" lon="-3.96336">
        <ele>91.3</ele>
        <time>2022-12-07T11:07:57Z</time>
      </trkpt>
      <trkpt lat="47.95395" lon="-3.9634">
        <ele>91.2</ele>
        <time>2022-12-07T11:07:58Z</time>
      </trkpt>
      <trkpt lat="47.95395" lon="-3.96343">
        <ele>91.2</ele>
        <time>2022-12-07T11:07:59Z</time>
      </trkpt>
      <trkpt lat="47.95394" lon="-3.96348">
        <ele>91.1</ele>
        <time>2022-12-07T11:08:01Z</time>
      </trkpt>
      <trkpt lat="47.95393" lon="-3.96354">
        <ele>91</ele>
        <time>2022-12-07T11:08:02Z</time>
      </trkpt>
      <trkpt lat="47.95391" lon="-3.96362">
        <ele>90.8</ele>
        <time>2022-12-07T11:08:04Z</time>
      </trkpt>
      <trkpt lat="47.95392" lon="-3.96367">
        <ele>90.7</ele>
        <time>2022-12-07T11:08:05Z</time>
      </trkpt>
      <trkpt lat="47.95392" lon="-3.96372">
        <ele>90.6</ele>
        <time>2022-12-07T11:08:06Z</time>
      </trkpt>
      <trkpt lat="47.9539" lon="-3.9638">
        <ele>90.4</ele>
        <time>2022-12-07T11:08:07Z</time>
      </trkpt>
      <trkpt lat="47.95388" lon="-3.96388">
        <ele>90.2</ele>
        <time>2022-12-07T11:08:09Z</time>
      </trkpt>
      <trkpt lat="47.95388" lon="-3.96395">
        <ele>90.1</ele>
        <time>2022-12-07T11:08:10Z</time>
      </trkpt>
      <trkpt lat="47.95389" lon="-3.96401">
        <ele>90</ele>
        <time>2022-12-07T11:08:11Z</time>
      </trkpt>
      <trkpt lat="47.95392" lon="-3.96406">
        <ele>90</ele>
        <time>2022-12-07T11:08:13Z</time>
      </trkpt>
      <trkpt lat="47.95397" lon="-3.96409">
        <ele>89.4</ele>
        <time>2022-12-07T11:08:14Z</time>
      </trkpt>
      <trkpt lat="47.954" lon="-3.9641">
        <ele>89.4</ele>
        <time>2022-12-07T11:08:15Z</time>
      </trkpt>
      <trkpt lat="47.95407" lon="-3.96415">
        <ele>89</ele>
        <time>2022-12-07T11:08:16Z</time>
      </trkpt>
      <trkpt lat="47.95413" lon="-3.96419">
        <ele>88.7</ele>
        <time>2022-12-07T11:08:17Z</time>
      </trkpt>
      <trkpt lat="47.95422" lon="-3.96422">
        <ele>88.5</ele>
        <time>2022-12-07T11:08:18Z</time>
      </trkpt>
      <trkpt lat="47.9543" lon="-3.96422">
        <ele>88.4</ele>
        <time>2022-12-07T11:08:19Z</time>
      </trkpt>
      <trkpt lat="47.95436" lon="-3.96423">
        <ele>88.4</ele>
        <time>2022-12-07T11:08:20Z</time>
      </trkpt>
      <trkpt lat="47.95439" lon="-3.96422">
        <ele>88.4</ele>
        <time>2022-12-07T11:08:21Z</time>
      </trkpt>
      <trkpt lat="47.95441" lon="-3.96418">
        <ele>88.5</ele>
        <time>2022-12-07T11:08:22Z</time>
      </trkpt>
      <trkpt lat="47.95442" lon="-3.96411">
        <ele>88.8</ele>
        <time>2022-12-07T11:08:24Z</time>
      </trkpt>
      <trkpt lat="47.95442" lon="-3.96406">
        <ele>88.8</ele>
        <time>2022-12-07T11:08:25Z</time>
      </trkpt>
      <trkpt lat="47.95443" lon="-3.96401">
        <ele>88.8</ele>
        <time>2022-12-07T11:08:26Z</time>
      </trkpt>
      <trkpt lat="47.95444" lon="-3.96396">
        <ele>89.1</ele>
        <time>2022-12-07T11:08:27Z</time>
      </trkpt>
      <trkpt lat="47.95444" lon="-3.9639">
        <ele>89.1</ele>
        <time>2022-12-07T11:08:28Z</time>
      </trkpt>
      <trkpt lat="47.95443" lon="-3.9638">
        <ele>89.3</ele>
        <time>2022-12-07T11:08:30Z</time>
      </trkpt>
      <trkpt lat="47.95442" lon="-3.96374">
        <ele>89.3</ele>
        <time>2022-12-07T11:08:31Z</time>
      </trkpt>
      <trkpt lat="47.95444" lon="-3.96363">
        <ele>89.5</ele>
        <time>2022-12-07T11:08:33Z</time>
      </trkpt>
      <trkpt lat="47.95445" lon="-3.96359">
        <ele>89.5</ele>
        <time>2022-12-07T11:08:34Z</time>
      </trkpt>
      <trkpt lat="47.95446" lon="-3.96353">
        <ele>89.5</ele>
        <time>2022-12-07T11:08:35Z</time>
      </trkpt>
      <trkpt lat="47.95448" lon="-3.96345">
        <ele>89.6</ele>
        <time>2022-12-07T11:08:36Z</time>
      </trkpt>
      <trkpt lat="47.95449" lon="-3.96337">
        <ele>89.6</ele>
        <time>2022-12-07T11:08:38Z</time>
      </trkpt>
      <trkpt lat="47.9545" lon="-3.96332">
        <ele>89.6</ele>
        <time>2022-12-07T11:08:39Z</time>
      </trkpt>
      <trkpt lat="47.9545" lon="-3.96324">
        <ele>89.9</ele>
        <time>2022-12-07T11:08:40Z</time>
      </trkpt>
      <trkpt lat="47.95451" lon="-3.9632">
        <ele>89.9</ele>
        <time>2022-12-07T11:08:41Z</time>
      </trkpt>
      <trkpt lat="47.95453" lon="-3.96314">
        <ele>90.8</ele>
        <time>2022-12-07T11:08:42Z</time>
      </trkpt>
      <trkpt lat="47.95454" lon="-3.96312">
        <ele>90.8</ele>
        <time>2022-12-07T11:08:43Z</time>
      </trkpt>
      <trkpt lat="47.95456" lon="-3.96309">
        <ele>90.8</ele>
        <time>2022-12-07T11:08:44Z</time>
      </trkpt>
      <trkpt lat="47.95458" lon="-3.96304">
        <ele>90.8</ele>
        <time>2022-12-07T11:08:46Z</time>
      </trkpt>
      <trkpt lat="47.95459" lon="-3.96298">
        <ele>90.8</ele>
        <time>2022-12-07T11:08:47Z</time>
      </trkpt>
      <trkpt lat="47.9546" lon="-3.96297">
        <ele>91.9</ele>
        <time>2022-12-07T11:08:48Z</time>
      </trkpt>
      <trkpt lat="47.95461" lon="-3.96293">
        <ele>91.9</ele>
        <time>2022-12-07T11:08:49Z</time>
      </trkpt>
      <trkpt lat="47.95461" lon="-3.96287">
        <ele>91.9</ele>
        <time>2022-12-07T11:08:50Z</time>
      </trkpt>
      <trkpt lat="47.95461" lon="-3.96286">
        <ele>91.9</ele>
        <time>2022-12-07T11:08:51Z</time>
      </trkpt>
      <trkpt lat="47.95462" lon="-3.96281">
        <ele>92</ele>
        <time>2022-12-07T11:08:52Z</time>
      </trkpt>
      <trkpt lat="47.95462" lon="-3.96279">
        <ele>93.4</ele>
        <time>2022-12-07T11:08:53Z</time>
      </trkpt>
      <trkpt lat="47.95461" lon="-3.96275">
        <ele>93.4</ele>
        <time>2022-12-07T11:08:54Z</time>
      </trkpt>
      <trkpt lat="47.95461" lon="-3.96274">
        <ele>93.4</ele>
        <time>2022-12-07T11:08:55Z</time>
      </trkpt>
      <trkpt lat="47.95457" lon="-3.96275">
        <ele>93.4</ele>
        <time>2022-12-07T11:08:56Z</time>
      </trkpt>
      <trkpt lat="47.95452" lon="-3.96278">
        <ele>92.5</ele>
        <time>2022-12-07T11:08:57Z</time>
      </trkpt>
      <trkpt lat="47.95449" lon="-3.96279">
        <ele>92.5</ele>
        <time>2022-12-07T11:08:58Z</time>
      </trkpt>
      <trkpt lat="47.95446" lon="-3.96279">
        <ele>92.5</ele>
        <time>2022-12-07T11:08:59Z</time>
      </trkpt>
      <trkpt lat="47.95442" lon="-3.96277">
        <ele>92.5</ele>
        <time>2022-12-07T11:09:00Z</time>
      </trkpt>
      <trkpt lat="47.95438" lon="-3.96274">
        <ele>91.6</ele>
        <time>2022-12-07T11:09:01Z</time>
      </trkpt>
      <trkpt lat="47.95435" lon="-3.96273">
        <ele>91.6</ele>
        <time>2022-12-07T11:09:02Z</time>
      </trkpt>
      <trkpt lat="47.95434" lon="-3.96271">
        <ele>91.6</ele>
        <time>2022-12-07T11:09:03Z</time>
      </trkpt>
      <trkpt lat="47.95432" lon="-3.96269">
        <ele>91.7</ele>
        <time>2022-12-07T11:09:05Z</time>
      </trkpt>
      <trkpt lat="47.95429" lon="-3.96267">
        <ele>91.1</ele>
        <time>2022-12-07T11:09:06Z</time>
      </trkpt>
      <trkpt lat="47.95428" lon="-3.96267">
        <ele>91.1</ele>
        <time>2022-12-07T11:09:07Z</time>
      </trkpt>
      <trkpt lat="47.95424" lon="-3.96265">
        <ele>91.1</ele>
        <time>2022-12-07T11:09:08Z</time>
      </trkpt>
      <trkpt lat="47.9542" lon="-3.96264">
        <ele>91.1</ele>
        <time>2022-12-07T11:09:10Z</time>
      </trkpt>
      <trkpt lat="47.95417" lon="-3.96263">
        <ele>91</ele>
        <time>2022-12-07T11:09:11Z</time>
      </trkpt>
      <trkpt lat="47.95414" lon="-3.96263">
        <ele>92.1</ele>
        <time>2022-12-07T11:09:12Z</time>
      </trkpt>
      <trkpt lat="47.95411" lon="-3.96261">
        <ele>92.2</ele>
        <time>2022-12-07T11:09:13Z</time>
      </trkpt>
      <trkpt lat="47.95409" lon="-3.96261">
        <ele>92.2</ele>
        <time>2022-12-07T11:09:14Z</time>
      </trkpt>
      <trkpt lat="47.95407" lon="-3.96259">
        <ele>92.2</ele>
        <time>2022-12-07T11:09:15Z</time>
      </trkpt>
      <trkpt lat="47.95404" lon="-3.96258">
        <ele>92.3</ele>
        <time>2022-12-07T11:09:16Z</time>
      </trkpt>
      <trkpt lat="47.95401" lon="-3.96257">
        <ele>92.3</ele>
        <time>2022-12-07T11:09:17Z</time>
      </trkpt>
      <trkpt lat="47.95396" lon="-3.96254">
        <ele>92.7</ele>
        <time>2022-12-07T11:09:19Z</time>
      </trkpt>
      <trkpt lat="47.95392" lon="-3.96254">
        <ele>92.9</ele>
        <time>2022-12-07T11:09:20Z</time>
      </trkpt>
      <trkpt lat="47.95389" lon="-3.96253">
        <ele>93.1</ele>
        <time>2022-12-07T11:09:21Z</time>
      </trkpt>
      <trkpt lat="47.95386" lon="-3.96251">
        <ele>93.3</ele>
        <time>2022-12-07T11:09:22Z</time>
      </trkpt>
      <trkpt lat="47.95382" lon="-3.96248">
        <ele>93.6</ele>
        <time>2022-12-07T11:09:23Z</time>
      </trkpt>
      <trkpt lat="47.95379" lon="-3.96245">
        <ele>93.8</ele>
        <time>2022-12-07T11:09:24Z</time>
      </trkpt>
      <trkpt lat="47.95376" lon="-3.96243">
        <ele>94</ele>
        <time>2022-12-07T11:09:26Z</time>
      </trkpt>
      <trkpt lat="47.95374" lon="-3.9624">
        <ele>94.2</ele>
        <time>2022-12-07T11:09:27Z</time>
      </trkpt>
      <trkpt lat="47.9537" lon="-3.96237">
        <ele>94.4</ele>
        <time>2022-12-07T11:09:28Z</time>
      </trkpt>
      <trkpt lat="47.95366" lon="-3.96235">
        <ele>94.7</ele>
        <time>2022-12-07T11:09:29Z</time>
      </trkpt>
      <trkpt lat="47.95365" lon="-3.96234">
        <ele>94.8</ele>
        <time>2022-12-07T11:09:30Z</time>
      </trkpt>
      <trkpt lat="47.95362" lon="-3.96232">
        <ele>95</ele>
        <time>2022-12-07T11:09:31Z</time>
      </trkpt>
      <trkpt lat="47.95361" lon="-3.96232">
        <ele>95</ele>
        <time>2022-12-07T11:09:32Z</time>
      </trkpt>
      <trkpt lat="47.95359" lon="-3.96229">
        <ele>95.2</ele>
        <time>2022-12-07T11:09:33Z</time>
      </trkpt>
      <trkpt lat="47.95356" lon="-3.96227">
        <ele>95.4</ele>
        <time>2022-12-07T11:09:34Z</time>
      </trkpt>
      <trkpt lat="47.95353" lon="-3.96226">
        <ele>95.5</ele>
        <time>2022-12-07T11:09:35Z</time>
      </trkpt>
      <trkpt lat="47.9535" lon="-3.96226">
        <ele>95.7</ele>
        <time>2022-12-07T11:09:36Z</time>
      </trkpt>
      <trkpt lat="47.95347" lon="-3.96225">
        <ele>95.9</ele>
        <time>2022-12-07T11:09:37Z</time>
      </trkpt>
      <trkpt lat="47.95343" lon="-3.96224">
        <ele>96.1</ele>
        <time>2022-12-07T11:09:38Z</time>
      </trkpt>
      <trkpt lat="47.9534" lon="-3.96224">
        <ele>96.2</ele>
        <time>2022-12-07T11:09:39Z</time>
      </trkpt>
      <trkpt lat="47.95338" lon="-3.96223">
        <ele>96.2</ele>
        <time>2022-12-07T11:09:40Z</time>
      </trkpt>
      <trkpt lat="47.95337" lon="-3.96222">
        <ele>96.3</ele>
        <time>2022-12-07T11:09:41Z</time>
      </trkpt>
      <trkpt lat="47.95336" lon="-3.96221">
        <ele>96.3</ele>
        <time>2022-12-07T11:09:42Z</time>
      </trkpt>
      <trkpt lat="47.95334" lon="-3.96218">
        <ele>96.3</ele>
        <time>2022-12-07T11:09:43Z</time>
      </trkpt>
      <trkpt lat="47.95331" lon="-3.96215">
        <ele>96.3</ele>
        <time>2022-12-07T11:09:44Z</time>
      </trkpt>
      <trkpt lat="47.95331" lon="-3.96215">
        <ele>96.3</ele>
        <time>2022-12-07T11:09:45Z</time>
      </trkpt>
      <trkpt lat="47.95326" lon="-3.96215">
        <ele>96.3</ele>
        <time>2022-12-07T11:09:46Z</time>
      </trkpt>
      <trkpt lat="47.95323" lon="-3.96215">
        <ele>96.3</ele>
        <time>2022-12-07T11:09:47Z</time>
      </trkpt>
      <trkpt lat="47.9532" lon="-3.96209">
        <ele>96.3</ele>
        <time>2022-12-07T11:09:49Z</time>
      </trkpt>
      <trkpt lat="47.95317" lon="-3.96205">
        <ele>96.4</ele>
        <time>2022-12-07T11:09:50Z</time>
      </trkpt>
      <trkpt lat="47.95314" lon="-3.96199">
        <ele>96.4</ele>
        <time>2022-12-07T11:09:51Z</time>
      </trkpt>
      <trkpt lat="47.95311" lon="-3.96195">
        <ele>96.4</ele>
        <time>2022-12-07T11:09:52Z</time>
      </trkpt>
      <trkpt lat="47.95308" lon="-3.96191">
        <ele>96.4</ele>
        <time>2022-12-07T11:09:53Z</time>
      </trkpt>
      <trkpt lat="47.95305" lon="-3.96184">
        <ele>96.4</ele>
        <time>2022-12-07T11:09:55Z</time>
      </trkpt>
      <trkpt lat="47.95303" lon="-3.9618">
        <ele>96.5</ele>
        <time>2022-12-07T11:09:56Z</time>
      </trkpt>
      <trkpt lat="47.953" lon="-3.96175">
        <ele>96.5</ele>
        <time>2022-12-07T11:09:57Z</time>
      </trkpt>
      <trkpt lat="47.95297" lon="-3.96172">
        <ele>96.6</ele>
        <time>2022-12-07T11:09:58Z</time>
      </trkpt>
      <trkpt lat="47.95295" lon="-3.96168">
        <ele>96.7</ele>
        <time>2022-12-07T11:09:59Z</time>
      </trkpt>
      <trkpt lat="47.95293" lon="-3.96164">
        <ele>96.7</ele>
        <time>2022-12-07T11:10:00Z</time>
      </trkpt>
      <trkpt lat="47.95291" lon="-3.96162">
        <ele>96.8</ele>
        <time>2022-12-07T11:10:01Z</time>
      </trkpt>
      <trkpt lat="47.95288" lon="-3.96158">
        <ele>96.9</ele>
        <time>2022-12-07T11:10:02Z</time>
      </trkpt>
      <trkpt lat="47.95286" lon="-3.96154">
        <ele>97</ele>
        <time>2022-12-07T11:10:03Z</time>
      </trkpt>
      <trkpt lat="47.95284" lon="-3.96149">
        <ele>97.2</ele>
        <time>2022-12-07T11:10:04Z</time>
      </trkpt>
      <trkpt lat="47.95283" lon="-3.96145">
        <ele>97.3</ele>
        <time>2022-12-07T11:10:05Z</time>
      </trkpt>
      <trkpt lat="47.95283" lon="-3.96139">
        <ele>97.5</ele>
        <time>2022-12-07T11:10:06Z</time>
      </trkpt>
      <trkpt lat="47.95283" lon="-3.96137">
        <ele>97.6</ele>
        <time>2022-12-07T11:10:07Z</time>
      </trkpt>
      <trkpt lat="47.95282" lon="-3.96133">
        <ele>97.7</ele>
        <time>2022-12-07T11:10:08Z</time>
      </trkpt>
      <trkpt lat="47.95283" lon="-3.96128">
        <ele>97.9</ele>
        <time>2022-12-07T11:10:09Z</time>
      </trkpt>
      <trkpt lat="47.95283" lon="-3.96122">
        <ele>98.1</ele>
        <time>2022-12-07T11:10:10Z</time>
      </trkpt>
      <trkpt lat="47.95283" lon="-3.9612">
        <ele>98.2</ele>
        <time>2022-12-07T11:10:11Z</time>
      </trkpt>
      <trkpt lat="47.95284" lon="-3.96115">
        <ele>98.4</ele>
        <time>2022-12-07T11:10:12Z</time>
      </trkpt>
      <trkpt lat="47.95284" lon="-3.96109">
        <ele>98.6</ele>
        <time>2022-12-07T11:10:13Z</time>
      </trkpt>
      <trkpt lat="47.95285" lon="-3.96107">
        <ele>98.7</ele>
        <time>2022-12-07T11:10:14Z</time>
      </trkpt>
      <trkpt lat="47.95286" lon="-3.96102">
        <ele>99</ele>
        <time>2022-12-07T11:10:15Z</time>
      </trkpt>
      <trkpt lat="47.95286" lon="-3.961">
        <ele>99.1</ele>
        <time>2022-12-07T11:10:16Z</time>
      </trkpt>
      <trkpt lat="47.95287" lon="-3.96094">
        <ele>99.4</ele>
        <time>2022-12-07T11:10:17Z</time>
      </trkpt>
      <trkpt lat="47.95288" lon="-3.96092">
        <ele>99.5</ele>
        <time>2022-12-07T11:10:18Z</time>
      </trkpt>
      <trkpt lat="47.95288" lon="-3.96086">
        <ele>99.8</ele>
        <time>2022-12-07T11:10:20Z</time>
      </trkpt>
      <trkpt lat="47.95288" lon="-3.96083">
        <ele>99.9</ele>
        <time>2022-12-07T11:10:21Z</time>
      </trkpt>
      <trkpt lat="47.95288" lon="-3.96081">
        <ele>100</ele>
        <time>2022-12-07T11:10:22Z</time>
      </trkpt>
      <trkpt lat="47.95288" lon="-3.96076">
        <ele>100.3</ele>
        <time>2022-12-07T11:10:23Z</time>
      </trkpt>
      <trkpt lat="47.95288" lon="-3.96075">
        <ele>100.4</ele>
        <time>2022-12-07T11:10:24Z</time>
      </trkpt>
      <trkpt lat="47.95288" lon="-3.9607">
        <ele>100.6</ele>
        <time>2022-12-07T11:10:25Z</time>
      </trkpt>
      <trkpt lat="47.95288" lon="-3.96066">
        <ele>100.8</ele>
        <time>2022-12-07T11:10:26Z</time>
      </trkpt>
      <trkpt lat="47.95288" lon="-3.96059">
        <ele>101.1</ele>
        <time>2022-12-07T11:10:28Z</time>
      </trkpt>
      <trkpt lat="47.95286" lon="-3.96055">
        <ele>101.3</ele>
        <time>2022-12-07T11:10:29Z</time>
      </trkpt>
      <trkpt lat="47.95285" lon="-3.9605">
        <ele>101.5</ele>
        <time>2022-12-07T11:10:30Z</time>
      </trkpt>
      <trkpt lat="47.95284" lon="-3.96048">
        <ele>101.5</ele>
        <time>2022-12-07T11:10:31Z</time>
      </trkpt>
      <trkpt lat="47.95284" lon="-3.96044">
        <ele>101.7</ele>
        <time>2022-12-07T11:10:32Z</time>
      </trkpt>
      <trkpt lat="47.95284" lon="-3.96037">
        <ele>101.9</ele>
        <time>2022-12-07T11:10:33Z</time>
      </trkpt>
      <trkpt lat="47.95284" lon="-3.96031">
        <ele>102</ele>
        <time>2022-12-07T11:10:35Z</time>
      </trkpt>
      <trkpt lat="47.95284" lon="-3.96026">
        <ele>102.2</ele>
        <time>2022-12-07T11:10:36Z</time>
      </trkpt>
      <trkpt lat="47.95283" lon="-3.96021">
        <ele>102.3</ele>
        <time>2022-12-07T11:10:37Z</time>
      </trkpt>
      <trkpt lat="47.95283" lon="-3.96015">
        <ele>102.4</ele>
        <time>2022-12-07T11:10:38Z</time>
      </trkpt>
      <trkpt lat="47.95283" lon="-3.96012">
        <ele>102.4</ele>
        <time>2022-12-07T11:10:39Z</time>
      </trkpt>
      <trkpt lat="47.95282" lon="-3.96007">
        <ele>102.5</ele>
        <time>2022-12-07T11:10:41Z</time>
      </trkpt>
      <trkpt lat="47.95282" lon="-3.96006">
        <ele>102.5</ele>
        <time>2022-12-07T11:10:42Z</time>
      </trkpt>
      <trkpt lat="47.95282" lon="-3.96007">
        <ele>102.5</ele>
        <time>2022-12-07T11:10:43Z</time>
      </trkpt>
      <trkpt lat="47.95282" lon="-3.96007">
        <ele>102.5</ele>
        <time>2022-12-07T11:10:45Z</time>
      </trkpt>
      <trkpt lat="47.95282" lon="-3.96006">
        <ele>102.5</ele>
        <time>2022-12-07T11:10:46Z</time>
      </trkpt>
      <trkpt lat="47.95282" lon="-3.96006">
        <ele>102.5</ele>
        <time>2022-12-07T11:10:47Z</time>
      </trkpt>
      <trkpt lat="47.95282" lon="-3.96006">
        <ele>102.5</ele>
        <time>2022-12-07T11:10:49Z</time>
      </trkpt>
      <trkpt lat="47.95282" lon="-3.96005">
        <ele>102.5</ele>
        <time>2022-12-07T11:10:50Z</time>
      </trkpt>
      <trkpt lat="47.95282" lon="-3.96005">
        <ele>102.5</ele>
        <time>2022-12-07T11:10:51Z</time>
      </trkpt>
      <trkpt lat="47.9528" lon="-3.95997">
        <ele>102.5</ele>
        <time>2022-12-07T11:11:16Z</time>
      </trkpt>
      <trkpt lat="47.9528" lon="-3.95996">
        <ele>102.5</ele>
        <time>2022-12-07T11:11:17Z</time>
      </trkpt>
      <trkpt lat="47.95279" lon="-3.95993">
        <ele>102.5</ele>
        <time>2022-12-07T11:11:18Z</time>
      </trkpt>
      <trkpt lat="47.95277" lon="-3.95989">
        <ele>102.5</ele>
        <time>2022-12-07T11:11:19Z</time>
      </trkpt>
      <trkpt lat="47.95276" lon="-3.95985">
        <ele>102.5</ele>
        <time>2022-12-07T11:11:20Z</time>
      </trkpt>
      <trkpt lat="47.95275" lon="-3.95981">
        <ele>102.4</ele>
        <time>2022-12-07T11:11:21Z</time>
      </trkpt>
      <trkpt lat="47.95272" lon="-3.95977">
        <ele>102.4</ele>
        <time>2022-12-07T11:11:22Z</time>
      </trkpt>
      <trkpt lat="47.95269" lon="-3.95973">
        <ele>102.4</ele>
        <time>2022-12-07T11:11:23Z</time>
      </trkpt>
      <trkpt lat="47.95268" lon="-3.95972">
        <ele>102.3</ele>
        <time>2022-12-07T11:11:24Z</time>
      </trkpt>
      <trkpt lat="47.95267" lon="-3.95969">
        <ele>102.3</ele>
        <time>2022-12-07T11:11:25Z</time>
      </trkpt>
      <trkpt lat="47.95265" lon="-3.95964">
        <ele>102.3</ele>
        <time>2022-12-07T11:11:26Z</time>
      </trkpt>
      <trkpt lat="47.95263" lon="-3.9596">
        <ele>102.2</ele>
        <time>2022-12-07T11:11:27Z</time>
      </trkpt>
      <trkpt lat="47.95261" lon="-3.95954">
        <ele>102.2</ele>
        <time>2022-12-07T11:11:28Z</time>
      </trkpt>
      <trkpt lat="47.95257" lon="-3.95947">
        <ele>102.1</ele>
        <time>2022-12-07T11:11:29Z</time>
      </trkpt>
      <trkpt lat="47.95253" lon="-3.9594">
        <ele>102.1</ele>
        <time>2022-12-07T11:11:31Z</time>
      </trkpt>
      <trkpt lat="47.95251" lon="-3.95936">
        <ele>102.1</ele>
        <time>2022-12-07T11:11:32Z</time>
      </trkpt>
      <trkpt lat="47.95248" lon="-3.95931">
        <ele>102</ele>
        <time>2022-12-07T11:11:33Z</time>
      </trkpt>
      <trkpt lat="47.95247" lon="-3.95928">
        <ele>102</ele>
        <time>2022-12-07T11:11:34Z</time>
      </trkpt>
      <trkpt lat="47.95245" lon="-3.95924">
        <ele>102</ele>
        <time>2022-12-07T11:11:35Z</time>
      </trkpt>
      <trkpt lat="47.95243" lon="-3.95919">
        <ele>102</ele>
        <time>2022-12-07T11:11:36Z</time>
      </trkpt>
      <trkpt lat="47.95241" lon="-3.95916">
        <ele>102.1</ele>
        <time>2022-12-07T11:11:37Z</time>
      </trkpt>
      <trkpt lat="47.95238" lon="-3.95911">
        <ele>102.1</ele>
        <time>2022-12-07T11:11:38Z</time>
      </trkpt>
      <trkpt lat="47.95237" lon="-3.95909">
        <ele>102.1</ele>
        <time>2022-12-07T11:11:39Z</time>
      </trkpt>
      <trkpt lat="47.95234" lon="-3.95903">
        <ele>102.1</ele>
        <time>2022-12-07T11:11:40Z</time>
      </trkpt>
      <trkpt lat="47.95232" lon="-3.95897">
        <ele>102.2</ele>
        <time>2022-12-07T11:11:42Z</time>
      </trkpt>
      <trkpt lat="47.95228" lon="-3.95888">
        <ele>102.4</ele>
        <time>2022-12-07T11:11:44Z</time>
      </trkpt>
      <trkpt lat="47.95225" lon="-3.95884">
        <ele>102.5</ele>
        <time>2022-12-07T11:11:45Z</time>
      </trkpt>
      <trkpt lat="47.95224" lon="-3.9588">
        <ele>102.6</ele>
        <time>2022-12-07T11:11:46Z</time>
      </trkpt>
      <trkpt lat="47.95221" lon="-3.95875">
        <ele>102.7</ele>
        <time>2022-12-07T11:11:47Z</time>
      </trkpt>
      <trkpt lat="47.95218" lon="-3.95869">
        <ele>103</ele>
        <time>2022-12-07T11:11:49Z</time>
      </trkpt>
      <trkpt lat="47.95217" lon="-3.95864">
        <ele>103.1</ele>
        <time>2022-12-07T11:11:50Z</time>
      </trkpt>
      <trkpt lat="47.95216" lon="-3.9586">
        <ele>103.3</ele>
        <time>2022-12-07T11:11:52Z</time>
      </trkpt>
      <trkpt lat="47.95215" lon="-3.95854">
        <ele>103.4</ele>
        <time>2022-12-07T11:11:53Z</time>
      </trkpt>
      <trkpt lat="47.95217" lon="-3.95847">
        <ele>103.7</ele>
        <time>2022-12-07T11:11:55Z</time>
      </trkpt>
      <trkpt lat="47.95215" lon="-3.95842">
        <ele>103.9</ele>
        <time>2022-12-07T11:11:56Z</time>
      </trkpt>
      <trkpt lat="47.95214" lon="-3.95842">
        <ele>104.3</ele>
        <time>2022-12-07T11:11:57Z</time>
      </trkpt>
      <trkpt lat="47.95211" lon="-3.95843">
        <ele>104.4</ele>
        <time>2022-12-07T11:11:58Z</time>
      </trkpt>
      <trkpt lat="47.95205" lon="-3.9585">
        <ele>104.5</ele>
        <time>2022-12-07T11:12:00Z</time>
      </trkpt>
      <trkpt lat="47.95201" lon="-3.95854">
        <ele>104.6</ele>
        <time>2022-12-07T11:12:01Z</time>
      </trkpt>
      <trkpt lat="47.95199" lon="-3.95858">
        <ele>104.7</ele>
        <time>2022-12-07T11:12:02Z</time>
      </trkpt>
      <trkpt lat="47.95195" lon="-3.95862">
        <ele>104.8</ele>
        <time>2022-12-07T11:12:03Z</time>
      </trkpt>
      <trkpt lat="47.95192" lon="-3.95865">
        <ele>105</ele>
        <time>2022-12-07T11:12:04Z</time>
      </trkpt>
      <trkpt lat="47.95188" lon="-3.95869">
        <ele>105.1</ele>
        <time>2022-12-07T11:12:05Z</time>
      </trkpt>
      <trkpt lat="47.95185" lon="-3.95872">
        <ele>105.3</ele>
        <time>2022-12-07T11:12:06Z</time>
      </trkpt>
      <trkpt lat="47.95182" lon="-3.95875">
        <ele>105.5</ele>
        <time>2022-12-07T11:12:07Z</time>
      </trkpt>
      <trkpt lat="47.95179" lon="-3.95879">
        <ele>105.6</ele>
        <time>2022-12-07T11:12:08Z</time>
      </trkpt>
      <trkpt lat="47.95176" lon="-3.95883">
        <ele>105.8</ele>
        <time>2022-12-07T11:12:09Z</time>
      </trkpt>
      <trkpt lat="47.95172" lon="-3.95886">
        <ele>106</ele>
        <time>2022-12-07T11:12:10Z</time>
      </trkpt>
      <trkpt lat="47.95168" lon="-3.9589">
        <ele>106.2</ele>
        <time>2022-12-07T11:12:11Z</time>
      </trkpt>
      <trkpt lat="47.95165" lon="-3.95894">
        <ele>106.4</ele>
        <time>2022-12-07T11:12:12Z</time>
      </trkpt>
      <trkpt lat="47.95161" lon="-3.95897">
        <ele>106.6</ele>
        <time>2022-12-07T11:12:13Z</time>
      </trkpt>
      <trkpt lat="47.95157" lon="-3.95901">
        <ele>106.8</ele>
        <time>2022-12-07T11:12:14Z</time>
      </trkpt>
      <trkpt lat="47.95153" lon="-3.95904">
        <ele>107</ele>
        <time>2022-12-07T11:12:15Z</time>
      </trkpt>
      <trkpt lat="47.9515" lon="-3.95908">
        <ele>107.2</ele>
        <time>2022-12-07T11:12:16Z</time>
      </trkpt>
      <trkpt lat="47.95147" lon="-3.95911">
        <ele>107.4</ele>
        <time>2022-12-07T11:12:17Z</time>
      </trkpt>
      <trkpt lat="47.95145" lon="-3.95915">
        <ele>107.5</ele>
        <time>2022-12-07T11:12:18Z</time>
      </trkpt>
      <trkpt lat="47.95141" lon="-3.95919">
        <ele>107.8</ele>
        <time>2022-12-07T11:12:19Z</time>
      </trkpt>
      <trkpt lat="47.95137" lon="-3.95922">
        <ele>107.9</ele>
        <time>2022-12-07T11:12:20Z</time>
      </trkpt>
      <trkpt lat="47.95133" lon="-3.95925">
        <ele>108.2</ele>
        <time>2022-12-07T11:12:21Z</time>
      </trkpt>
      <trkpt lat="47.9513" lon="-3.95927">
        <ele>108.3</ele>
        <time>2022-12-07T11:12:22Z</time>
      </trkpt>
      <trkpt lat="47.95127" lon="-3.9593">
        <ele>108.4</ele>
        <time>2022-12-07T11:12:23Z</time>
      </trkpt>
      <trkpt lat="47.95124" lon="-3.95934">
        <ele>108.6</ele>
        <time>2022-12-07T11:12:24Z</time>
      </trkpt>
      <trkpt lat="47.9512" lon="-3.95938">
        <ele>108.7</ele>
        <time>2022-12-07T11:12:25Z</time>
      </trkpt>
      <trkpt lat="47.95117" lon="-3.95942">
        <ele>108.8</ele>
        <time>2022-12-07T11:12:26Z</time>
      </trkpt>
      <trkpt lat="47.95114" lon="-3.95945">
        <ele>108.9</ele>
        <time>2022-12-07T11:12:27Z</time>
      </trkpt>
      <trkpt lat="47.9511" lon="-3.95948">
        <ele>109</ele>
        <time>2022-12-07T11:12:28Z</time>
      </trkpt>
      <trkpt lat="47.95106" lon="-3.95952">
        <ele>109.1</ele>
        <time>2022-12-07T11:12:29Z</time>
      </trkpt>
      <trkpt lat="47.95102" lon="-3.95956">
        <ele>109.1</ele>
        <time>2022-12-07T11:12:30Z</time>
      </trkpt>
      <trkpt lat="47.95095" lon="-3.95962">
        <ele>109.2</ele>
        <time>2022-12-07T11:12:32Z</time>
      </trkpt>
      <trkpt lat="47.95091" lon="-3.95967">
        <ele>109.3</ele>
        <time>2022-12-07T11:12:33Z</time>
      </trkpt>
      <trkpt lat="47.95087" lon="-3.95971">
        <ele>109.3</ele>
        <time>2022-12-07T11:12:34Z</time>
      </trkpt>
      <trkpt lat="47.95082" lon="-3.95975">
        <ele>109.4</ele>
        <time>2022-12-07T11:12:35Z</time>
      </trkpt>
      <trkpt lat="47.95078" lon="-3.95979">
        <ele>109.4</ele>
        <time>2022-12-07T11:12:36Z</time>
      </trkpt>
      <trkpt lat="47.95075" lon="-3.95983">
        <ele>109.4</ele>
        <time>2022-12-07T11:12:37Z</time>
      </trkpt>
      <trkpt lat="47.95071" lon="-3.95988">
        <ele>109.4</ele>
        <time>2022-12-07T11:12:38Z</time>
      </trkpt>
      <trkpt lat="47.95068" lon="-3.95992">
        <ele>109.4</ele>
        <time>2022-12-07T11:12:39Z</time>
      </trkpt>
      <trkpt lat="47.95064" lon="-3.95997">
        <ele>109.4</ele>
        <time>2022-12-07T11:12:40Z</time>
      </trkpt>
      <trkpt lat="47.9506" lon="-3.96001">
        <ele>109.3</ele>
        <time>2022-12-07T11:12:41Z</time>
      </trkpt>
      <trkpt lat="47.95056" lon="-3.96005">
        <ele>109.2</ele>
        <time>2022-12-07T11:12:42Z</time>
      </trkpt>
      <trkpt lat="47.95052" lon="-3.96009">
        <ele>109.2</ele>
        <time>2022-12-07T11:12:43Z</time>
      </trkpt>
      <trkpt lat="47.95048" lon="-3.96013">
        <ele>109.1</ele>
        <time>2022-12-07T11:12:44Z</time>
      </trkpt>
      <trkpt lat="47.95044" lon="-3.96018">
        <ele>109</ele>
        <time>2022-12-07T11:12:45Z</time>
      </trkpt>
      <trkpt lat="47.9504" lon="-3.96022">
        <ele>108.9</ele>
        <time>2022-12-07T11:12:46Z</time>
      </trkpt>
      <trkpt lat="47.95035" lon="-3.96027">
        <ele>108.8</ele>
        <time>2022-12-07T11:12:47Z</time>
      </trkpt>
      <trkpt lat="47.95031" lon="-3.96031">
        <ele>108.7</ele>
        <time>2022-12-07T11:12:48Z</time>
      </trkpt>
      <trkpt lat="47.95026" lon="-3.96036">
        <ele>108.6</ele>
        <time>2022-12-07T11:12:49Z</time>
      </trkpt>
      <trkpt lat="47.95021" lon="-3.96041">
        <ele>108.4</ele>
        <time>2022-12-07T11:12:50Z</time>
      </trkpt>
      <trkpt lat="47.95016" lon="-3.96046">
        <ele>108.3</ele>
        <time>2022-12-07T11:12:51Z</time>
      </trkpt>
      <trkpt lat="47.95011" lon="-3.96052">
        <ele>108.1</ele>
        <time>2022-12-07T11:12:52Z</time>
      </trkpt>
      <trkpt lat="47.95007" lon="-3.96058">
        <ele>107.9</ele>
        <time>2022-12-07T11:12:53Z</time>
      </trkpt>
      <trkpt lat="47.95003" lon="-3.96065">
        <ele>107.8</ele>
        <time>2022-12-07T11:12:54Z</time>
      </trkpt>
      <trkpt lat="47.94999" lon="-3.96072">
        <ele>107.8</ele>
        <time>2022-12-07T11:12:55Z</time>
      </trkpt>
      <trkpt lat="47.94997" lon="-3.96081">
        <ele>107.7</ele>
        <time>2022-12-07T11:12:56Z</time>
      </trkpt>
      <trkpt lat="47.94995" lon="-3.96089">
        <ele>107.6</ele>
        <time>2022-12-07T11:12:57Z</time>
      </trkpt>
      <trkpt lat="47.94993" lon="-3.96098">
        <ele>107.5</ele>
        <time>2022-12-07T11:12:58Z</time>
      </trkpt>
      <trkpt lat="47.9499" lon="-3.96106">
        <ele>107.4</ele>
        <time>2022-12-07T11:12:59Z</time>
      </trkpt>
      <trkpt lat="47.94988" lon="-3.96114">
        <ele>107.4</ele>
        <time>2022-12-07T11:13:00Z</time>
      </trkpt>
      <trkpt lat="47.94987" lon="-3.9612">
        <ele>107.3</ele>
        <time>2022-12-07T11:13:01Z</time>
      </trkpt>
      <trkpt lat="47.94984" lon="-3.96123">
        <ele>107.3</ele>
        <time>2022-12-07T11:13:02Z</time>
      </trkpt>
      <trkpt lat="47.9498" lon="-3.9612">
        <ele>107.3</ele>
        <time>2022-12-07T11:13:03Z</time>
      </trkpt>
      <trkpt lat="47.94979" lon="-3.96118">
        <ele>107.3</ele>
        <time>2022-12-07T11:13:04Z</time>
      </trkpt>
      <trkpt lat="47.94977" lon="-3.96111">
        <ele>107.3</ele>
        <time>2022-12-07T11:13:05Z</time>
      </trkpt>
      <trkpt lat="47.94977" lon="-3.96104">
        <ele>107.3</ele>
        <time>2022-12-07T11:13:06Z</time>
      </trkpt>
      <trkpt lat="47.94975" lon="-3.96097">
        <ele>107.3</ele>
        <time>2022-12-07T11:13:07Z</time>
      </trkpt>
      <trkpt lat="47.94971" lon="-3.96093">
        <ele>107.3</ele>
        <time>2022-12-07T11:13:08Z</time>
      </trkpt>
      <trkpt lat="47.94967" lon="-3.96095">
        <ele>107.2</ele>
        <time>2022-12-07T11:13:09Z</time>
      </trkpt>
      <trkpt lat="47.94963" lon="-3.96099">
        <ele>107.2</ele>
        <time>2022-12-07T11:13:10Z</time>
      </trkpt>
      <trkpt lat="47.94959" lon="-3.96105">
        <ele>107.1</ele>
        <time>2022-12-07T11:13:11Z</time>
      </trkpt>
      <trkpt lat="47.94955" lon="-3.96111">
        <ele>107</ele>
        <time>2022-12-07T11:13:12Z</time>
      </trkpt>
      <trkpt lat="47.94951" lon="-3.96116">
        <ele>106.9</ele>
        <time>2022-12-07T11:13:13Z</time>
      </trkpt>
      <trkpt lat="47.94947" lon="-3.96123">
        <ele>106.8</ele>
        <time>2022-12-07T11:13:14Z</time>
      </trkpt>
      <trkpt lat="47.94943" lon="-3.96129">
        <ele>106.6</ele>
        <time>2022-12-07T11:13:15Z</time>
      </trkpt>
      <trkpt lat="47.94938" lon="-3.96135">
        <ele>106.5</ele>
        <time>2022-12-07T11:13:16Z</time>
      </trkpt>
      <trkpt lat="47.94933" lon="-3.96141">
        <ele>106.3</ele>
        <time>2022-12-07T11:13:17Z</time>
      </trkpt>
      <trkpt lat="47.94928" lon="-3.96148">
        <ele>106.1</ele>
        <time>2022-12-07T11:13:18Z</time>
      </trkpt>
      <trkpt lat="47.94923" lon="-3.96155">
        <ele>105.9</ele>
        <time>2022-12-07T11:13:19Z</time>
      </trkpt>
      <trkpt lat="47.94918" lon="-3.96162">
        <ele>105.7</ele>
        <time>2022-12-07T11:13:20Z</time>
      </trkpt>
      <trkpt lat="47.94913" lon="-3.9617">
        <ele>105.5</ele>
        <time>2022-12-07T11:13:21Z</time>
      </trkpt>
      <trkpt lat="47.94907" lon="-3.96178">
        <ele>105.3</ele>
        <time>2022-12-07T11:13:22Z</time>
      </trkpt>
      <trkpt lat="47.94902" lon="-3.96186">
        <ele>105</ele>
        <time>2022-12-07T11:13:23Z</time>
      </trkpt>
      <trkpt lat="47.94897" lon="-3.96194">
        <ele>104.8</ele>
        <time>2022-12-07T11:13:24Z</time>
      </trkpt>
      <trkpt lat="47.94892" lon="-3.96202">
        <ele>104.6</ele>
        <time>2022-12-07T11:13:25Z</time>
      </trkpt>
      <trkpt lat="47.94886" lon="-3.96209">
        <ele>104.5</ele>
        <time>2022-12-07T11:13:26Z</time>
      </trkpt>
      <trkpt lat="47.94881" lon="-3.96217">
        <ele>104.3</ele>
        <time>2022-12-07T11:13:27Z</time>
      </trkpt>
      <trkpt lat="47.94875" lon="-3.96225">
        <ele>104.1</ele>
        <time>2022-12-07T11:13:28Z</time>
      </trkpt>
      <trkpt lat="47.9487" lon="-3.96233">
        <ele>103.8</ele>
        <time>2022-12-07T11:13:29Z</time>
      </trkpt>
      <trkpt lat="47.94864" lon="-3.96241">
        <ele>103.6</ele>
        <time>2022-12-07T11:13:30Z</time>
      </trkpt>
      <trkpt lat="47.94858" lon="-3.96248">
        <ele>103.3</ele>
        <time>2022-12-07T11:13:31Z</time>
      </trkpt>
      <trkpt lat="47.94853" lon="-3.96256">
        <ele>103</ele>
        <time>2022-12-07T11:13:32Z</time>
      </trkpt>
      <trkpt lat="47.94847" lon="-3.96265">
        <ele>102.6</ele>
        <time>2022-12-07T11:13:33Z</time>
      </trkpt>
      <trkpt lat="47.94841" lon="-3.96273">
        <ele>102.3</ele>
        <time>2022-12-07T11:13:34Z</time>
      </trkpt>
      <trkpt lat="47.94835" lon="-3.96281">
        <ele>102</ele>
        <time>2022-12-07T11:13:35Z</time>
      </trkpt>
      <trkpt lat="47.94829" lon="-3.96289">
        <ele>101.6</ele>
        <time>2022-12-07T11:13:36Z</time>
      </trkpt>
      <trkpt lat="47.94823" lon="-3.96298">
        <ele>101.3</ele>
        <time>2022-12-07T11:13:37Z</time>
      </trkpt>
      <trkpt lat="47.94817" lon="-3.96307">
        <ele>100.9</ele>
        <time>2022-12-07T11:13:38Z</time>
      </trkpt>
      <trkpt lat="47.94811" lon="-3.96315">
        <ele>100.6</ele>
        <time>2022-12-07T11:13:39Z</time>
      </trkpt>
      <trkpt lat="47.94804" lon="-3.96324">
        <ele>100.2</ele>
        <time>2022-12-07T11:13:40Z</time>
      </trkpt>
      <trkpt lat="47.94798" lon="-3.96332">
        <ele>99.8</ele>
        <time>2022-12-07T11:13:41Z</time>
      </trkpt>
      <trkpt lat="47.94792" lon="-3.96341">
        <ele>99.3</ele>
        <time>2022-12-07T11:13:42Z</time>
      </trkpt>
      <trkpt lat="47.94785" lon="-3.9635">
        <ele>98.9</ele>
        <time>2022-12-07T11:13:43Z</time>
      </trkpt>
      <trkpt lat="47.94779" lon="-3.9636">
        <ele>98.5</ele>
        <time>2022-12-07T11:13:44Z</time>
      </trkpt>
      <trkpt lat="47.94772" lon="-3.96369">
        <ele>98</ele>
        <time>2022-12-07T11:13:45Z</time>
      </trkpt>
      <trkpt lat="47.94765" lon="-3.96379">
        <ele>97.5</ele>
        <time>2022-12-07T11:13:46Z</time>
      </trkpt>
      <trkpt lat="47.94758" lon="-3.96389">
        <ele>96.9</ele>
        <time>2022-12-07T11:13:47Z</time>
      </trkpt>
      <trkpt lat="47.94751" lon="-3.96399">
        <ele>96.5</ele>
        <time>2022-12-07T11:13:48Z</time>
      </trkpt>
      <trkpt lat="47.94744" lon="-3.96409">
        <ele>96.1</ele>
        <time>2022-12-07T11:13:49Z</time>
      </trkpt>
      <trkpt lat="47.94737" lon="-3.96419">
        <ele>95.7</ele>
        <time>2022-12-07T11:13:50Z</time>
      </trkpt>
      <trkpt lat="47.9473" lon="-3.96429">
        <ele>95.3</ele>
        <time>2022-12-07T11:13:51Z</time>
      </trkpt>
      <trkpt lat="47.94723" lon="-3.96439">
        <ele>94.9</ele>
        <time>2022-12-07T11:13:52Z</time>
      </trkpt>
      <trkpt lat="47.94716" lon="-3.96449">
        <ele>94.5</ele>
        <time>2022-12-07T11:13:53Z</time>
      </trkpt>
      <trkpt lat="47.94709" lon="-3.96459">
        <ele>94.2</ele>
        <time>2022-12-07T11:13:54Z</time>
      </trkpt>
      <trkpt lat="47.94703" lon="-3.96469">
        <ele>93.8</ele>
        <time>2022-12-07T11:13:55Z</time>
      </trkpt>
      <trkpt lat="47.94696" lon="-3.96478">
        <ele>93.5</ele>
        <time>2022-12-07T11:13:56Z</time>
      </trkpt>
      <trkpt lat="47.94689" lon="-3.96488">
        <ele>93.1</ele>
        <time>2022-12-07T11:13:57Z</time>
      </trkpt>
      <trkpt lat="47.94682" lon="-3.96498">
        <ele>92.7</ele>
        <time>2022-12-07T11:13:58Z</time>
      </trkpt>
      <trkpt lat="47.94675" lon="-3.96508">
        <ele>92.2</ele>
        <time>2022-12-07T11:13:59Z</time>
      </trkpt>
      <trkpt lat="47.94668" lon="-3.96518">
        <ele>91.7</ele>
        <time>2022-12-07T11:14:00Z</time>
      </trkpt>
      <trkpt lat="47.94662" lon="-3.96528">
        <ele>91.2</ele>
        <time>2022-12-07T11:14:01Z</time>
      </trkpt>
      <trkpt lat="47.94655" lon="-3.96538">
        <ele>90.9</ele>
        <time>2022-12-07T11:14:02Z</time>
      </trkpt>
      <trkpt lat="47.94647" lon="-3.96549">
        <ele>90.5</ele>
        <time>2022-12-07T11:14:03Z</time>
      </trkpt>
      <trkpt lat="47.9464" lon="-3.96559">
        <ele>90.2</ele>
        <time>2022-12-07T11:14:04Z</time>
      </trkpt>
      <trkpt lat="47.94633" lon="-3.9657">
        <ele>89.9</ele>
        <time>2022-12-07T11:14:05Z</time>
      </trkpt>
      <trkpt lat="47.94626" lon="-3.96582">
        <ele>89.7</ele>
        <time>2022-12-07T11:14:06Z</time>
      </trkpt>
      <trkpt lat="47.94619" lon="-3.96594">
        <ele>89.7</ele>
        <time>2022-12-07T11:14:07Z</time>
      </trkpt>
      <trkpt lat="47.94612" lon="-3.96605">
        <ele>89.7</ele>
        <time>2022-12-07T11:14:08Z</time>
      </trkpt>
      <trkpt lat="47.94606" lon="-3.96617">
        <ele>89.7</ele>
        <time>2022-12-07T11:14:09Z</time>
      </trkpt>
      <trkpt lat="47.946" lon="-3.96628">
        <ele>89.6</ele>
        <time>2022-12-07T11:14:10Z</time>
      </trkpt>
      <trkpt lat="47.94595" lon="-3.96639">
        <ele>89.5</ele>
        <time>2022-12-07T11:14:11Z</time>
      </trkpt>
      <trkpt lat="47.94589" lon="-3.9665">
        <ele>89.6</ele>
        <time>2022-12-07T11:14:12Z</time>
      </trkpt>
      <trkpt lat="47.94585" lon="-3.9666">
        <ele>89.6</ele>
        <time>2022-12-07T11:14:13Z</time>
      </trkpt>
      <trkpt lat="47.94581" lon="-3.96671">
        <ele>89.8</ele>
        <time>2022-12-07T11:14:14Z</time>
      </trkpt>
      <trkpt lat="47.94577" lon="-3.9668">
        <ele>90</ele>
        <time>2022-12-07T11:14:15Z</time>
      </trkpt>
      <trkpt lat="47.94574" lon="-3.96689">
        <ele>90.1</ele>
        <time>2022-12-07T11:14:16Z</time>
      </trkpt>
      <trkpt lat="47.94571" lon="-3.96698">
        <ele>90.3</ele>
        <time>2022-12-07T11:14:17Z</time>
      </trkpt>
      <trkpt lat="47.94568" lon="-3.96706">
        <ele>90.5</ele>
        <time>2022-12-07T11:14:18Z</time>
      </trkpt>
      <trkpt lat="47.94566" lon="-3.96714">
        <ele>90.6</ele>
        <time>2022-12-07T11:14:19Z</time>
      </trkpt>
      <trkpt lat="47.94563" lon="-3.96721">
        <ele>90.8</ele>
        <time>2022-12-07T11:14:20Z</time>
      </trkpt>
      <trkpt lat="47.9456" lon="-3.96728">
        <ele>90.9</ele>
        <time>2022-12-07T11:14:21Z</time>
      </trkpt>
      <trkpt lat="47.94558" lon="-3.96734">
        <ele>91.1</ele>
        <time>2022-12-07T11:14:22Z</time>
      </trkpt>
      <trkpt lat="47.94556" lon="-3.9674">
        <ele>91.2</ele>
        <time>2022-12-07T11:14:23Z</time>
      </trkpt>
      <trkpt lat="47.94553" lon="-3.96747">
        <ele>91.2</ele>
        <time>2022-12-07T11:14:24Z</time>
      </trkpt>
      <trkpt lat="47.94551" lon="-3.96753">
        <ele>91.3</ele>
        <time>2022-12-07T11:14:25Z</time>
      </trkpt>
      <trkpt lat="47.94548" lon="-3.96759">
        <ele>91.3</ele>
        <time>2022-12-07T11:14:26Z</time>
      </trkpt>
      <trkpt lat="47.94545" lon="-3.96765">
        <ele>91.3</ele>
        <time>2022-12-07T11:14:27Z</time>
      </trkpt>
      <trkpt lat="47.94542" lon="-3.96771">
        <ele>91.3</ele>
        <time>2022-12-07T11:14:28Z</time>
      </trkpt>
      <trkpt lat="47.94539" lon="-3.96777">
        <ele>91.3</ele>
        <time>2022-12-07T11:14:29Z</time>
      </trkpt>
      <trkpt lat="47.94536" lon="-3.96782">
        <ele>91.3</ele>
        <time>2022-12-07T11:14:30Z</time>
      </trkpt>
      <trkpt lat="47.94531" lon="-3.96788">
        <ele>91.3</ele>
        <time>2022-12-07T11:14:31Z</time>
      </trkpt>
      <trkpt lat="47.94527" lon="-3.96793">
        <ele>91.3</ele>
        <time>2022-12-07T11:14:32Z</time>
      </trkpt>
      <trkpt lat="47.94523" lon="-3.96799">
        <ele>91.1</ele>
        <time>2022-12-07T11:14:33Z</time>
      </trkpt>
      <trkpt lat="47.94518" lon="-3.96804">
        <ele>91</ele>
        <time>2022-12-07T11:14:34Z</time>
      </trkpt>
      <trkpt lat="47.94512" lon="-3.96809">
        <ele>90.8</ele>
        <time>2022-12-07T11:14:35Z</time>
      </trkpt>
      <trkpt lat="47.94507" lon="-3.96814">
        <ele>90.5</ele>
        <time>2022-12-07T11:14:36Z</time>
      </trkpt>
      <trkpt lat="47.94501" lon="-3.9682">
        <ele>90.2</ele>
        <time>2022-12-07T11:14:37Z</time>
      </trkpt>
      <trkpt lat="47.94494" lon="-3.96826">
        <ele>89.9</ele>
        <time>2022-12-07T11:14:38Z</time>
      </trkpt>
      <trkpt lat="47.94487" lon="-3.96832">
        <ele>89.5</ele>
        <time>2022-12-07T11:14:39Z</time>
      </trkpt>
      <trkpt lat="47.9448" lon="-3.96838">
        <ele>89.1</ele>
        <time>2022-12-07T11:14:40Z</time>
      </trkpt>
      <trkpt lat="47.94473" lon="-3.96845">
        <ele>88.6</ele>
        <time>2022-12-07T11:14:41Z</time>
      </trkpt>
      <trkpt lat="47.94466" lon="-3.96851">
        <ele>88.2</ele>
        <time>2022-12-07T11:14:42Z</time>
      </trkpt>
      <trkpt lat="47.94459" lon="-3.96857">
        <ele>87.8</ele>
        <time>2022-12-07T11:14:43Z</time>
      </trkpt>
      <trkpt lat="47.94451" lon="-3.96864">
        <ele>87.4</ele>
        <time>2022-12-07T11:14:44Z</time>
      </trkpt>
      <trkpt lat="47.94444" lon="-3.9687">
        <ele>87.1</ele>
        <time>2022-12-07T11:14:45Z</time>
      </trkpt>
      <trkpt lat="47.94436" lon="-3.96877">
        <ele>86.8</ele>
        <time>2022-12-07T11:14:46Z</time>
      </trkpt>
      <trkpt lat="47.94428" lon="-3.96884">
        <ele>86.6</ele>
        <time>2022-12-07T11:14:47Z</time>
      </trkpt>
      <trkpt lat="47.9442" lon="-3.96891">
        <ele>86.3</ele>
        <time>2022-12-07T11:14:48Z</time>
      </trkpt>
      <trkpt lat="47.94412" lon="-3.96898">
        <ele>86.1</ele>
        <time>2022-12-07T11:14:49Z</time>
      </trkpt>
      <trkpt lat="47.94405" lon="-3.96904">
        <ele>85.8</ele>
        <time>2022-12-07T11:14:50Z</time>
      </trkpt>
      <trkpt lat="47.94397" lon="-3.96911">
        <ele>85.7</ele>
        <time>2022-12-07T11:14:51Z</time>
      </trkpt>
      <trkpt lat="47.94389" lon="-3.96917">
        <ele>85.5</ele>
        <time>2022-12-07T11:14:52Z</time>
      </trkpt>
      <trkpt lat="47.94382" lon="-3.96923">
        <ele>85.4</ele>
        <time>2022-12-07T11:14:53Z</time>
      </trkpt>
      <trkpt lat="47.94374" lon="-3.96928">
        <ele>85.3</ele>
        <time>2022-12-07T11:14:54Z</time>
      </trkpt>
      <trkpt lat="47.94366" lon="-3.96933">
        <ele>85.2</ele>
        <time>2022-12-07T11:14:55Z</time>
      </trkpt>
      <trkpt lat="47.94358" lon="-3.96937">
        <ele>85.1</ele>
        <time>2022-12-07T11:14:56Z</time>
      </trkpt>
      <trkpt lat="47.94351" lon="-3.96941">
        <ele>85</ele>
        <time>2022-12-07T11:14:57Z</time>
      </trkpt>
      <trkpt lat="47.94343" lon="-3.96944">
        <ele>85.1</ele>
        <time>2022-12-07T11:14:58Z</time>
      </trkpt>
      <trkpt lat="47.94336" lon="-3.96947">
        <ele>85.1</ele>
        <time>2022-12-07T11:14:59Z</time>
      </trkpt>
      <trkpt lat="47.94329" lon="-3.96949">
        <ele>85.1</ele>
        <time>2022-12-07T11:15:00Z</time>
      </trkpt>
      <trkpt lat="47.94322" lon="-3.96951">
        <ele>85.2</ele>
        <time>2022-12-07T11:15:01Z</time>
      </trkpt>
      <trkpt lat="47.94315" lon="-3.96952">
        <ele>85.3</ele>
        <time>2022-12-07T11:15:02Z</time>
      </trkpt>
      <trkpt lat="47.94309" lon="-3.96953">
        <ele>85.5</ele>
        <time>2022-12-07T11:15:03Z</time>
      </trkpt>
      <trkpt lat="47.94303" lon="-3.96955">
        <ele>85.6</ele>
        <time>2022-12-07T11:15:04Z</time>
      </trkpt>
      <trkpt lat="47.94297" lon="-3.96956">
        <ele>85.8</ele>
        <time>2022-12-07T11:15:05Z</time>
      </trkpt>
      <trkpt lat="47.94291" lon="-3.96956">
        <ele>86</ele>
        <time>2022-12-07T11:15:06Z</time>
      </trkpt>
      <trkpt lat="47.94285" lon="-3.96957">
        <ele>86.2</ele>
        <time>2022-12-07T11:15:07Z</time>
      </trkpt>
      <trkpt lat="47.9428" lon="-3.96959">
        <ele>86.4</ele>
        <time>2022-12-07T11:15:08Z</time>
      </trkpt>
      <trkpt lat="47.94275" lon="-3.96961">
        <ele>86.6</ele>
        <time>2022-12-07T11:15:09Z</time>
      </trkpt>
      <trkpt lat="47.9427" lon="-3.96962">
        <ele>86.7</ele>
        <time>2022-12-07T11:15:10Z</time>
      </trkpt>
      <trkpt lat="47.94265" lon="-3.96965">
        <ele>86.9</ele>
        <time>2022-12-07T11:15:11Z</time>
      </trkpt>
      <trkpt lat="47.94261" lon="-3.96968">
        <ele>87.1</ele>
        <time>2022-12-07T11:15:12Z</time>
      </trkpt>
      <trkpt lat="47.94257" lon="-3.96972">
        <ele>87.5</ele>
        <time>2022-12-07T11:15:13Z</time>
      </trkpt>
      <trkpt lat="47.94252" lon="-3.96976">
        <ele>87.8</ele>
        <time>2022-12-07T11:15:14Z</time>
      </trkpt>
      <trkpt lat="47.94249" lon="-3.9698">
        <ele>88.1</ele>
        <time>2022-12-07T11:15:15Z</time>
      </trkpt>
      <trkpt lat="47.94245" lon="-3.96985">
        <ele>88.5</ele>
        <time>2022-12-07T11:15:16Z</time>
      </trkpt>
      <trkpt lat="47.94242" lon="-3.96991">
        <ele>88.9</ele>
        <time>2022-12-07T11:15:17Z</time>
      </trkpt>
      <trkpt lat="47.94239" lon="-3.96997">
        <ele>92.1</ele>
        <time>2022-12-07T11:15:18Z</time>
      </trkpt>
      <trkpt lat="47.94236" lon="-3.97004">
        <ele>92.1</ele>
        <time>2022-12-07T11:15:19Z</time>
      </trkpt>
      <trkpt lat="47.94234" lon="-3.97009">
        <ele>93.9</ele>
        <time>2022-12-07T11:15:20Z</time>
      </trkpt>
      <trkpt lat="47.94231" lon="-3.97015">
        <ele>94.5</ele>
        <time>2022-12-07T11:15:21Z</time>
      </trkpt>
      <trkpt lat="47.94228" lon="-3.97019">
        <ele>95.1</ele>
        <time>2022-12-07T11:15:22Z</time>
      </trkpt>
      <trkpt lat="47.94225" lon="-3.9702">
        <ele>95.5</ele>
        <time>2022-12-07T11:15:23Z</time>
      </trkpt>
      <trkpt lat="47.94222" lon="-3.97015">
        <ele>96.1</ele>
        <time>2022-12-07T11:15:24Z</time>
      </trkpt>
      <trkpt lat="47.94221" lon="-3.97013">
        <ele>96.3</ele>
        <time>2022-12-07T11:15:25Z</time>
      </trkpt>
      <trkpt lat="47.94221" lon="-3.97007">
        <ele>96.8</ele>
        <time>2022-12-07T11:15:26Z</time>
      </trkpt>
      <trkpt lat="47.94221" lon="-3.97003">
        <ele>97.2</ele>
        <time>2022-12-07T11:15:27Z</time>
      </trkpt>
      <trkpt lat="47.94221" lon="-3.96995">
        <ele>97.8</ele>
        <time>2022-12-07T11:15:28Z</time>
      </trkpt>
      <trkpt lat="47.9422" lon="-3.96991">
        <ele>98.2</ele>
        <time>2022-12-07T11:15:29Z</time>
      </trkpt>
      <trkpt lat="47.94217" lon="-3.96989">
        <ele>98.6</ele>
        <time>2022-12-07T11:15:30Z</time>
      </trkpt>
      <trkpt lat="47.94216" lon="-3.96988">
        <ele>98.7</ele>
        <time>2022-12-07T11:15:31Z</time>
      </trkpt>
      <trkpt lat="47.94213" lon="-3.96989">
        <ele>99.1</ele>
        <time>2022-12-07T11:15:32Z</time>
      </trkpt>
      <trkpt lat="47.94212" lon="-3.96989">
        <ele>99.2</ele>
        <time>2022-12-07T11:15:33Z</time>
      </trkpt>
      <trkpt lat="47.9421" lon="-3.96991">
        <ele>99.4</ele>
        <time>2022-12-07T11:15:34Z</time>
      </trkpt>
      <trkpt lat="47.94208" lon="-3.96992">
        <ele>99.6</ele>
        <time>2022-12-07T11:15:36Z</time>
      </trkpt>
      <trkpt lat="47.94205" lon="-3.96993">
        <ele>99.8</ele>
        <time>2022-12-07T11:15:37Z</time>
      </trkpt>
      <trkpt lat="47.94204" lon="-3.96993">
        <ele>99.9</ele>
        <time>2022-12-07T11:15:38Z</time>
      </trkpt>
      <trkpt lat="47.94201" lon="-3.96994">
        <ele>100.2</ele>
        <time>2022-12-07T11:15:39Z</time>
      </trkpt>
      <trkpt lat="47.942" lon="-3.96994">
        <ele>100.2</ele>
        <time>2022-12-07T11:15:40Z</time>
      </trkpt>
      <trkpt lat="47.94197" lon="-3.96995">
        <ele>100.4</ele>
        <time>2022-12-07T11:15:41Z</time>
      </trkpt>
      <trkpt lat="47.94196" lon="-3.96995">
        <ele>100.5</ele>
        <time>2022-12-07T11:15:42Z</time>
      </trkpt>
      <trkpt lat="47.94194" lon="-3.96995">
        <ele>100.6</ele>
        <time>2022-12-07T11:15:43Z</time>
      </trkpt>
      <trkpt lat="47.94193" lon="-3.96995">
        <ele>100.7</ele>
        <time>2022-12-07T11:15:44Z</time>
      </trkpt>
      <trkpt lat="47.9419" lon="-3.96996">
        <ele>100.9</ele>
        <time>2022-12-07T11:15:46Z</time>
      </trkpt>
      <trkpt lat="47.94187" lon="-3.96997">
        <ele>101.1</ele>
        <time>2022-12-07T11:15:47Z</time>
      </trkpt>
      <trkpt lat="47.94185" lon="-3.96997">
        <ele>101.2</ele>
        <time>2022-12-07T11:15:48Z</time>
      </trkpt>
      <trkpt lat="47.94184" lon="-3.96997">
        <ele>101.3</ele>
        <time>2022-12-07T11:15:49Z</time>
      </trkpt>
      <trkpt lat="47.94181" lon="-3.96998">
        <ele>101.4</ele>
        <time>2022-12-07T11:15:50Z</time>
      </trkpt>
      <trkpt lat="47.94179" lon="-3.96998">
        <ele>101.5</ele>
        <time>2022-12-07T11:15:51Z</time>
      </trkpt>
      <trkpt lat="47.94177" lon="-3.97">
        <ele>101.6</ele>
        <time>2022-12-07T11:15:52Z</time>
      </trkpt>
      <trkpt lat="47.94176" lon="-3.97">
        <ele>101.7</ele>
        <time>2022-12-07T11:15:53Z</time>
      </trkpt>
      <trkpt lat="47.94173" lon="-3.97">
        <ele>101.8</ele>
        <time>2022-12-07T11:15:54Z</time>
      </trkpt>
      <trkpt lat="47.94172" lon="-3.97">
        <ele>101.8</ele>
        <time>2022-12-07T11:15:55Z</time>
      </trkpt>
      <trkpt lat="47.94169" lon="-3.97001">
        <ele>101.9</ele>
        <time>2022-12-07T11:15:56Z</time>
      </trkpt>
      <trkpt lat="47.94168" lon="-3.97001">
        <ele>102</ele>
        <time>2022-12-07T11:15:57Z</time>
      </trkpt>
      <trkpt lat="47.94165" lon="-3.97002">
        <ele>102.1</ele>
        <time>2022-12-07T11:15:58Z</time>
      </trkpt>
      <trkpt lat="47.94164" lon="-3.97002">
        <ele>102.1</ele>
        <time>2022-12-07T11:15:59Z</time>
      </trkpt>
      <trkpt lat="47.94161" lon="-3.97001">
        <ele>102.2</ele>
        <time>2022-12-07T11:16:00Z</time>
      </trkpt>
      <trkpt lat="47.9416" lon="-3.97001">
        <ele>102.2</ele>
        <time>2022-12-07T11:16:01Z</time>
      </trkpt>
      <trkpt lat="47.94156" lon="-3.97002">
        <ele>102.2</ele>
        <time>2022-12-07T11:16:02Z</time>
      </trkpt>
      <trkpt lat="47.94155" lon="-3.97003">
        <ele>102.2</ele>
        <time>2022-12-07T11:16:03Z</time>
      </trkpt>
      <trkpt lat="47.94151" lon="-3.97003">
        <ele>102.3</ele>
        <time>2022-12-07T11:16:05Z</time>
      </trkpt>
      <trkpt lat="47.94149" lon="-3.97003">
        <ele>102.3</ele>
        <time>2022-12-07T11:16:06Z</time>
      </trkpt>
      <trkpt lat="47.94145" lon="-3.97003">
        <ele>102.3</ele>
        <time>2022-12-07T11:16:07Z</time>
      </trkpt>
      <trkpt lat="47.94142" lon="-3.97004">
        <ele>102.3</ele>
        <time>2022-12-07T11:16:08Z</time>
      </trkpt>
      <trkpt lat="47.94137" lon="-3.97004">
        <ele>102.2</ele>
        <time>2022-12-07T11:16:10Z</time>
      </trkpt>
      <trkpt lat="47.94133" lon="-3.97004">
        <ele>102.2</ele>
        <time>2022-12-07T11:16:11Z</time>
      </trkpt>
      <trkpt lat="47.9413" lon="-3.97003">
        <ele>102.2</ele>
        <time>2022-12-07T11:16:12Z</time>
      </trkpt>
      <trkpt lat="47.94127" lon="-3.97003">
        <ele>102.1</ele>
        <time>2022-12-07T11:16:13Z</time>
      </trkpt>
      <trkpt lat="47.94124" lon="-3.97002">
        <ele>102.1</ele>
        <time>2022-12-07T11:16:14Z</time>
      </trkpt>
      <trkpt lat="47.94121" lon="-3.97003">
        <ele>102.1</ele>
        <time>2022-12-07T11:16:15Z</time>
      </trkpt>
      <trkpt lat="47.94121" lon="-3.97003">
        <ele>102.1</ele>
        <time>2022-12-07T11:16:16Z</time>
      </trkpt>
      <trkpt lat="47.9412" lon="-3.97003">
        <ele>102.1</ele>
        <time>2022-12-07T11:16:17Z</time>
      </trkpt>
      <trkpt lat="47.9412" lon="-3.97003">
        <ele>102.1</ele>
        <time>2022-12-07T11:16:18Z</time>
      </trkpt>
      <trkpt lat="47.9412" lon="-3.97003">
        <ele>102.1</ele>
        <time>2022-12-07T11:16:19Z</time>
      </trkpt>
      <trkpt lat="47.9412" lon="-3.97002">
        <ele>102.1</ele>
        <time>2022-12-07T11:16:20Z</time>
      </trkpt>
      <trkpt lat="47.94119" lon="-3.97002">
        <ele>102.1</ele>
        <time>2022-12-07T11:16:21Z</time>
      </trkpt>
      <trkpt lat="47.94119" lon="-3.97002">
        <ele>102.1</ele>
        <time>2022-12-07T11:16:22Z</time>
      </trkpt>
      <trkpt lat="47.94119" lon="-3.97002">
        <ele>102.1</ele>
        <time>2022-12-07T11:16:23Z</time>
      </trkpt>
      <trkpt lat="47.94119" lon="-3.97002">
        <ele>102.1</ele>
        <time>2022-12-07T11:16:24Z</time>
      </trkpt>
      <trkpt lat="47.94118" lon="-3.97002">
        <ele>102.1</ele>
        <time>2022-12-07T11:16:25Z</time>
      </trkpt>
      <trkpt lat="47.94118" lon="-3.97002">
        <ele>102.1</ele>
        <time>2022-12-07T11:16:26Z</time>
      </trkpt>
      <trkpt lat="47.94118" lon="-3.97002">
        <ele>102.1</ele>
        <time>2022-12-07T11:16:27Z</time>
      </trkpt>
      <trkpt lat="47.94115" lon="-3.97003">
        <ele>102</ele>
        <time>2022-12-07T11:16:28Z</time>
      </trkpt>
      <trkpt lat="47.94111" lon="-3.97005">
        <ele>102</ele>
        <time>2022-12-07T11:16:29Z</time>
      </trkpt>
      <trkpt lat="47.94108" lon="-3.97005">
        <ele>101.9</ele>
        <time>2022-12-07T11:16:30Z</time>
      </trkpt>
      <trkpt lat="47.94105" lon="-3.97006">
        <ele>101.9</ele>
        <time>2022-12-07T11:16:31Z</time>
      </trkpt>
      <trkpt lat="47.94101" lon="-3.97005">
        <ele>101.8</ele>
        <time>2022-12-07T11:16:32Z</time>
      </trkpt>
      <trkpt lat="47.94097" lon="-3.97005">
        <ele>101.8</ele>
        <time>2022-12-07T11:16:33Z</time>
      </trkpt>
      <trkpt lat="47.94094" lon="-3.97005">
        <ele>101.8</ele>
        <time>2022-12-07T11:16:34Z</time>
      </trkpt>
      <trkpt lat="47.94084" lon="-3.97002">
        <ele>101.6</ele>
        <time>2022-12-07T11:16:35Z</time>
      </trkpt>
      <trkpt lat="47.9408" lon="-3.97002">
        <ele>101.6</ele>
        <time>2022-12-07T11:16:36Z</time>
      </trkpt>
      <trkpt lat="47.94076" lon="-3.97002">
        <ele>101.5</ele>
        <time>2022-12-07T11:16:37Z</time>
      </trkpt>
      <trkpt lat="47.94074" lon="-3.97001">
        <ele>101.5</ele>
        <time>2022-12-07T11:16:38Z</time>
      </trkpt>
      <trkpt lat="47.94069" lon="-3.97">
        <ele>101.4</ele>
        <time>2022-12-07T11:16:40Z</time>
      </trkpt>
      <trkpt lat="47.94066" lon="-3.96999">
        <ele>101.3</ele>
        <time>2022-12-07T11:16:41Z</time>
      </trkpt>
      <trkpt lat="47.94061" lon="-3.96997">
        <ele>101.2</ele>
        <time>2022-12-07T11:16:42Z</time>
      </trkpt>
      <trkpt lat="47.94054" lon="-3.96996">
        <ele>101.2</ele>
        <time>2022-12-07T11:16:44Z</time>
      </trkpt>
      <trkpt lat="47.9405" lon="-3.96997">
        <ele>101.1</ele>
        <time>2022-12-07T11:16:45Z</time>
      </trkpt>
      <trkpt lat="47.94046" lon="-3.96998">
        <ele>101.1</ele>
        <time>2022-12-07T11:16:46Z</time>
      </trkpt>
      <trkpt lat="47.94044" lon="-3.96998">
        <ele>101.1</ele>
        <time>2022-12-07T11:16:47Z</time>
      </trkpt>
      <trkpt lat="47.94042" lon="-3.96998">
        <ele>101.1</ele>
        <time>2022-12-07T11:16:48Z</time>
      </trkpt>
      <trkpt lat="47.9404" lon="-3.96999">
        <ele>101.1</ele>
        <time>2022-12-07T11:16:49Z</time>
      </trkpt>
      <trkpt lat="47.94036" lon="-3.96999">
        <ele>101.1</ele>
        <time>2022-12-07T11:16:50Z</time>
      </trkpt>
      <trkpt lat="47.94032" lon="-3.97">
        <ele>101.1</ele>
        <time>2022-12-07T11:16:51Z</time>
      </trkpt>
      <trkpt lat="47.94027" lon="-3.97">
        <ele>101.1</ele>
        <time>2022-12-07T11:16:52Z</time>
      </trkpt>
      <trkpt lat="47.94022" lon="-3.97">
        <ele>101</ele>
        <time>2022-12-07T11:16:53Z</time>
      </trkpt>
      <trkpt lat="47.94018" lon="-3.96999">
        <ele>101</ele>
        <time>2022-12-07T11:16:54Z</time>
      </trkpt>
      <trkpt lat="47.94009" lon="-3.96997">
        <ele>101</ele>
        <time>2022-12-07T11:16:56Z</time>
      </trkpt>
      <trkpt lat="47.94003" lon="-3.96998">
        <ele>101</ele>
        <time>2022-12-07T11:16:57Z</time>
      </trkpt>
      <trkpt lat="47.93999" lon="-3.96997">
        <ele>101</ele>
        <time>2022-12-07T11:16:58Z</time>
      </trkpt>
      <trkpt lat="47.93993" lon="-3.96996">
        <ele>101</ele>
        <time>2022-12-07T11:16:59Z</time>
      </trkpt>
      <trkpt lat="47.93989" lon="-3.96996">
        <ele>101</ele>
        <time>2022-12-07T11:17:00Z</time>
      </trkpt>
      <trkpt lat="47.93984" lon="-3.96996">
        <ele>101</ele>
        <time>2022-12-07T11:17:02Z</time>
      </trkpt>
      <trkpt lat="47.93974" lon="-3.96994">
        <ele>101</ele>
        <time>2022-12-07T11:17:03Z</time>
      </trkpt>
      <trkpt lat="47.9397" lon="-3.96993">
        <ele>101.1</ele>
        <time>2022-12-07T11:17:04Z</time>
      </trkpt>
      <trkpt lat="47.93962" lon="-3.96994">
        <ele>101.1</ele>
        <time>2022-12-07T11:17:06Z</time>
      </trkpt>
      <trkpt lat="47.93957" lon="-3.96994">
        <ele>101.2</ele>
        <time>2022-12-07T11:17:07Z</time>
      </trkpt>
      <trkpt lat="47.93954" lon="-3.96994">
        <ele>101.2</ele>
        <time>2022-12-07T11:17:08Z</time>
      </trkpt>
      <trkpt lat="47.9395" lon="-3.96998">
        <ele>101.2</ele>
        <time>2022-12-07T11:17:09Z</time>
      </trkpt>
      <trkpt lat="47.93946" lon="-3.97004">
        <ele>101.2</ele>
        <time>2022-12-07T11:17:10Z</time>
      </trkpt>
      <trkpt lat="47.93941" lon="-3.97008">
        <ele>101.1</ele>
        <time>2022-12-07T11:17:11Z</time>
      </trkpt>
      <trkpt lat="47.93937" lon="-3.97011">
        <ele>101.1</ele>
        <time>2022-12-07T11:17:12Z</time>
      </trkpt>
      <trkpt lat="47.93932" lon="-3.97013">
        <ele>101</ele>
        <time>2022-12-07T11:17:13Z</time>
      </trkpt>
      <trkpt lat="47.93927" lon="-3.97016">
        <ele>100.8</ele>
        <time>2022-12-07T11:17:15Z</time>
      </trkpt>
      <trkpt lat="47.93921" lon="-3.97016">
        <ele>100.6</ele>
        <time>2022-12-07T11:17:16Z</time>
      </trkpt>
      <trkpt lat="47.93916" lon="-3.97018">
        <ele>100.3</ele>
        <time>2022-12-07T11:17:17Z</time>
      </trkpt>
      <trkpt lat="47.9391" lon="-3.97019">
        <ele>100</ele>
        <time>2022-12-07T11:17:18Z</time>
      </trkpt>
      <trkpt lat="47.93904" lon="-3.97018">
        <ele>99.6</ele>
        <time>2022-12-07T11:17:19Z</time>
      </trkpt>
      <trkpt lat="47.93899" lon="-3.97019">
        <ele>99.2</ele>
        <time>2022-12-07T11:17:20Z</time>
      </trkpt>
      <trkpt lat="47.93894" lon="-3.9702">
        <ele>98.8</ele>
        <time>2022-12-07T11:17:21Z</time>
      </trkpt>
      <trkpt lat="47.93889" lon="-3.9702">
        <ele>98.3</ele>
        <time>2022-12-07T11:17:22Z</time>
      </trkpt>
      <trkpt lat="47.93884" lon="-3.9702">
        <ele>97.8</ele>
        <time>2022-12-07T11:17:23Z</time>
      </trkpt>
      <trkpt lat="47.93879" lon="-3.97019">
        <ele>97.3</ele>
        <time>2022-12-07T11:17:24Z</time>
      </trkpt>
      <trkpt lat="47.93874" lon="-3.97017">
        <ele>96.9</ele>
        <time>2022-12-07T11:17:25Z</time>
      </trkpt>
      <trkpt lat="47.9387" lon="-3.97015">
        <ele>96.5</ele>
        <time>2022-12-07T11:17:26Z</time>
      </trkpt>
      <trkpt lat="47.93867" lon="-3.97014">
        <ele>96.2</ele>
        <time>2022-12-07T11:17:27Z</time>
      </trkpt>
      <trkpt lat="47.93862" lon="-3.97013">
        <ele>95.8</ele>
        <time>2022-12-07T11:17:28Z</time>
      </trkpt>
      <trkpt lat="47.93857" lon="-3.97017">
        <ele>95.4</ele>
        <time>2022-12-07T11:17:29Z</time>
      </trkpt>
      <trkpt lat="47.93852" lon="-3.97023">
        <ele>94.9</ele>
        <time>2022-12-07T11:17:30Z</time>
      </trkpt>
      <trkpt lat="47.93849" lon="-3.97031">
        <ele>94.5</ele>
        <time>2022-12-07T11:17:31Z</time>
      </trkpt>
      <trkpt lat="47.93846" lon="-3.97039">
        <ele>94.1</ele>
        <time>2022-12-07T11:17:32Z</time>
      </trkpt>
      <trkpt lat="47.93843" lon="-3.97046">
        <ele>93.9</ele>
        <time>2022-12-07T11:17:33Z</time>
      </trkpt>
      <trkpt lat="47.93839" lon="-3.97054">
        <ele>93.6</ele>
        <time>2022-12-07T11:17:34Z</time>
      </trkpt>
      <trkpt lat="47.93836" lon="-3.97062">
        <ele>93.4</ele>
        <time>2022-12-07T11:17:35Z</time>
      </trkpt>
      <trkpt lat="47.93833" lon="-3.97072">
        <ele>93.1</ele>
        <time>2022-12-07T11:17:36Z</time>
      </trkpt>
      <trkpt lat="47.93832" lon="-3.97082">
        <ele>92.8</ele>
        <time>2022-12-07T11:17:37Z</time>
      </trkpt>
      <trkpt lat="47.93831" lon="-3.97092">
        <ele>92.5</ele>
        <time>2022-12-07T11:17:38Z</time>
      </trkpt>
      <trkpt lat="47.93828" lon="-3.97103">
        <ele>92</ele>
        <time>2022-12-07T11:17:39Z</time>
      </trkpt>
      <trkpt lat="47.93824" lon="-3.97112">
        <ele>91.5</ele>
        <time>2022-12-07T11:17:40Z</time>
      </trkpt>
      <trkpt lat="47.93818" lon="-3.97117">
        <ele>91</ele>
        <time>2022-12-07T11:17:41Z</time>
      </trkpt>
      <trkpt lat="47.9381" lon="-3.97119">
        <ele>90.5</ele>
        <time>2022-12-07T11:17:42Z</time>
      </trkpt>
      <trkpt lat="47.93803" lon="-3.97118">
        <ele>90</ele>
        <time>2022-12-07T11:17:43Z</time>
      </trkpt>
      <trkpt lat="47.93795" lon="-3.97118">
        <ele>89.6</ele>
        <time>2022-12-07T11:17:44Z</time>
      </trkpt>
      <trkpt lat="47.93788" lon="-3.97117">
        <ele>89.1</ele>
        <time>2022-12-07T11:17:45Z</time>
      </trkpt>
      <trkpt lat="47.93781" lon="-3.97117">
        <ele>88.6</ele>
        <time>2022-12-07T11:17:46Z</time>
      </trkpt>
      <trkpt lat="47.93773" lon="-3.97116">
        <ele>88.1</ele>
        <time>2022-12-07T11:17:47Z</time>
      </trkpt>
      <trkpt lat="47.93765" lon="-3.97115">
        <ele>87.6</ele>
        <time>2022-12-07T11:17:48Z</time>
      </trkpt>
      <trkpt lat="47.93757" lon="-3.97115">
        <ele>87.2</ele>
        <time>2022-12-07T11:17:49Z</time>
      </trkpt>
      <trkpt lat="47.93749" lon="-3.97115">
        <ele>86.8</ele>
        <time>2022-12-07T11:17:50Z</time>
      </trkpt>
      <trkpt lat="47.93742" lon="-3.97115">
        <ele>86.5</ele>
        <time>2022-12-07T11:17:51Z</time>
      </trkpt>
      <trkpt lat="47.93734" lon="-3.97115">
        <ele>86.2</ele>
        <time>2022-12-07T11:17:52Z</time>
      </trkpt>
      <trkpt lat="47.93727" lon="-3.97115">
        <ele>85.8</ele>
        <time>2022-12-07T11:17:53Z</time>
      </trkpt>
      <trkpt lat="47.93719" lon="-3.97115">
        <ele>85.5</ele>
        <time>2022-12-07T11:17:54Z</time>
      </trkpt>
      <trkpt lat="47.93711" lon="-3.97115">
        <ele>85.2</ele>
        <time>2022-12-07T11:17:55Z</time>
      </trkpt>
      <trkpt lat="47.93703" lon="-3.97116">
        <ele>84.8</ele>
        <time>2022-12-07T11:17:56Z</time>
      </trkpt>
      <trkpt lat="47.93696" lon="-3.97116">
        <ele>84.3</ele>
        <time>2022-12-07T11:17:57Z</time>
      </trkpt>
      <trkpt lat="47.93688" lon="-3.97116">
        <ele>83.9</ele>
        <time>2022-12-07T11:17:58Z</time>
      </trkpt>
      <trkpt lat="47.93681" lon="-3.97116">
        <ele>83.4</ele>
        <time>2022-12-07T11:17:59Z</time>
      </trkpt>
      <trkpt lat="47.93673" lon="-3.97117">
        <ele>82.9</ele>
        <time>2022-12-07T11:18:00Z</time>
      </trkpt>
      <trkpt lat="47.93666" lon="-3.97116">
        <ele>82.6</ele>
        <time>2022-12-07T11:18:01Z</time>
      </trkpt>
      <trkpt lat="47.93659" lon="-3.97114">
        <ele>82.2</ele>
        <time>2022-12-07T11:18:02Z</time>
      </trkpt>
      <trkpt lat="47.93651" lon="-3.9711">
        <ele>81.8</ele>
        <time>2022-12-07T11:18:03Z</time>
      </trkpt>
      <trkpt lat="47.93644" lon="-3.97107">
        <ele>81.5</ele>
        <time>2022-12-07T11:18:04Z</time>
      </trkpt>
      <trkpt lat="47.93637" lon="-3.97103">
        <ele>81.2</ele>
        <time>2022-12-07T11:18:05Z</time>
      </trkpt>
      <trkpt lat="47.9363" lon="-3.971">
        <ele>80.9</ele>
        <time>2022-12-07T11:18:06Z</time>
      </trkpt>
      <trkpt lat="47.93623" lon="-3.97097">
        <ele>80.6</ele>
        <time>2022-12-07T11:18:07Z</time>
      </trkpt>
      <trkpt lat="47.93616" lon="-3.97094">
        <ele>80.4</ele>
        <time>2022-12-07T11:18:08Z</time>
      </trkpt>
      <trkpt lat="47.9361" lon="-3.97092">
        <ele>80.2</ele>
        <time>2022-12-07T11:18:09Z</time>
      </trkpt>
      <trkpt lat="47.93603" lon="-3.97089">
        <ele>80</ele>
        <time>2022-12-07T11:18:10Z</time>
      </trkpt>
      <trkpt lat="47.93596" lon="-3.97086">
        <ele>79.9</ele>
        <time>2022-12-07T11:18:11Z</time>
      </trkpt>
      <trkpt lat="47.93589" lon="-3.97083">
        <ele>79.7</ele>
        <time>2022-12-07T11:18:12Z</time>
      </trkpt>
      <trkpt lat="47.93583" lon="-3.97079">
        <ele>79.6</ele>
        <time>2022-12-07T11:18:13Z</time>
      </trkpt>
      <trkpt lat="47.93577" lon="-3.97074">
        <ele>79.5</ele>
        <time>2022-12-07T11:18:14Z</time>
      </trkpt>
      <trkpt lat="47.93571" lon="-3.9707">
        <ele>79.4</ele>
        <time>2022-12-07T11:18:15Z</time>
      </trkpt>
      <trkpt lat="47.93565" lon="-3.97066">
        <ele>79.3</ele>
        <time>2022-12-07T11:18:16Z</time>
      </trkpt>
      <trkpt lat="47.9356" lon="-3.97062">
        <ele>79.2</ele>
        <time>2022-12-07T11:18:17Z</time>
      </trkpt>
      <trkpt lat="47.93554" lon="-3.97059">
        <ele>79.2</ele>
        <time>2022-12-07T11:18:18Z</time>
      </trkpt>
      <trkpt lat="47.93548" lon="-3.97056">
        <ele>79.2</ele>
        <time>2022-12-07T11:18:19Z</time>
      </trkpt>
      <trkpt lat="47.93542" lon="-3.97054">
        <ele>79.1</ele>
        <time>2022-12-07T11:18:20Z</time>
      </trkpt>
      <trkpt lat="47.93537" lon="-3.9705">
        <ele>79.1</ele>
        <time>2022-12-07T11:18:21Z</time>
      </trkpt>
      <trkpt lat="47.93531" lon="-3.97047">
        <ele>79.2</ele>
        <time>2022-12-07T11:18:22Z</time>
      </trkpt>
      <trkpt lat="47.93526" lon="-3.97044">
        <ele>79.2</ele>
        <time>2022-12-07T11:18:23Z</time>
      </trkpt>
      <trkpt lat="47.9352" lon="-3.9704">
        <ele>79.1</ele>
        <time>2022-12-07T11:18:24Z</time>
      </trkpt>
      <trkpt lat="47.93514" lon="-3.97037">
        <ele>79.1</ele>
        <time>2022-12-07T11:18:25Z</time>
      </trkpt>
      <trkpt lat="47.93508" lon="-3.97034">
        <ele>79.1</ele>
        <time>2022-12-07T11:18:26Z</time>
      </trkpt>
      <trkpt lat="47.93503" lon="-3.97031">
        <ele>79.1</ele>
        <time>2022-12-07T11:18:27Z</time>
      </trkpt>
      <trkpt lat="47.93497" lon="-3.97029">
        <ele>79.1</ele>
        <time>2022-12-07T11:18:28Z</time>
      </trkpt>
      <trkpt lat="47.93492" lon="-3.97026">
        <ele>79.1</ele>
        <time>2022-12-07T11:18:29Z</time>
      </trkpt>
      <trkpt lat="47.93487" lon="-3.97023">
        <ele>79.2</ele>
        <time>2022-12-07T11:18:30Z</time>
      </trkpt>
      <trkpt lat="47.93482" lon="-3.9702">
        <ele>79.3</ele>
        <time>2022-12-07T11:18:31Z</time>
      </trkpt>
      <trkpt lat="47.93477" lon="-3.97018">
        <ele>79.4</ele>
        <time>2022-12-07T11:18:32Z</time>
      </trkpt>
      <trkpt lat="47.93471" lon="-3.97015">
        <ele>79.5</ele>
        <time>2022-12-07T11:18:33Z</time>
      </trkpt>
      <trkpt lat="47.93467" lon="-3.97012">
        <ele>79.6</ele>
        <time>2022-12-07T11:18:34Z</time>
      </trkpt>
      <trkpt lat="47.93463" lon="-3.97009">
        <ele>79.7</ele>
        <time>2022-12-07T11:18:35Z</time>
      </trkpt>
      <trkpt lat="47.93459" lon="-3.97006">
        <ele>79.7</ele>
        <time>2022-12-07T11:18:36Z</time>
      </trkpt>
      <trkpt lat="47.93453" lon="-3.97003">
        <ele>79.8</ele>
        <time>2022-12-07T11:18:37Z</time>
      </trkpt>
      <trkpt lat="47.93448" lon="-3.97">
        <ele>79.8</ele>
        <time>2022-12-07T11:18:38Z</time>
      </trkpt>
      <trkpt lat="47.93443" lon="-3.96998">
        <ele>79.8</ele>
        <time>2022-12-07T11:18:39Z</time>
      </trkpt>
      <trkpt lat="47.93438" lon="-3.96997">
        <ele>79.8</ele>
        <time>2022-12-07T11:18:40Z</time>
      </trkpt>
      <trkpt lat="47.93432" lon="-3.96997">
        <ele>79.8</ele>
        <time>2022-12-07T11:18:41Z</time>
      </trkpt>
      <trkpt lat="47.93427" lon="-3.96998">
        <ele>79.7</ele>
        <time>2022-12-07T11:18:42Z</time>
      </trkpt>
      <trkpt lat="47.9342" lon="-3.96999">
        <ele>79.6</ele>
        <time>2022-12-07T11:18:43Z</time>
      </trkpt>
      <trkpt lat="47.93414" lon="-3.97001">
        <ele>79.5</ele>
        <time>2022-12-07T11:18:44Z</time>
      </trkpt>
      <trkpt lat="47.93408" lon="-3.97003">
        <ele>79.4</ele>
        <time>2022-12-07T11:18:45Z</time>
      </trkpt>
      <trkpt lat="47.93402" lon="-3.97005">
        <ele>79.3</ele>
        <time>2022-12-07T11:18:46Z</time>
      </trkpt>
      <trkpt lat="47.93397" lon="-3.97007">
        <ele>79.1</ele>
        <time>2022-12-07T11:18:47Z</time>
      </trkpt>
      <trkpt lat="47.9339" lon="-3.97008">
        <ele>79</ele>
        <time>2022-12-07T11:18:48Z</time>
      </trkpt>
      <trkpt lat="47.93384" lon="-3.9701">
        <ele>78.8</ele>
        <time>2022-12-07T11:18:49Z</time>
      </trkpt>
      <trkpt lat="47.93378" lon="-3.97012">
        <ele>78.6</ele>
        <time>2022-12-07T11:18:50Z</time>
      </trkpt>
      <trkpt lat="47.93372" lon="-3.97014">
        <ele>78.4</ele>
        <time>2022-12-07T11:18:51Z</time>
      </trkpt>
      <trkpt lat="47.93365" lon="-3.97016">
        <ele>78.2</ele>
        <time>2022-12-07T11:18:52Z</time>
      </trkpt>
      <trkpt lat="47.93359" lon="-3.97018">
        <ele>78</ele>
        <time>2022-12-07T11:18:53Z</time>
      </trkpt>
      <trkpt lat="47.93353" lon="-3.9702">
        <ele>77.8</ele>
        <time>2022-12-07T11:18:54Z</time>
      </trkpt>
      <trkpt lat="47.93347" lon="-3.97022">
        <ele>77.6</ele>
        <time>2022-12-07T11:18:55Z</time>
      </trkpt>
      <trkpt lat="47.93341" lon="-3.97024">
        <ele>77.3</ele>
        <time>2022-12-07T11:18:56Z</time>
      </trkpt>
      <trkpt lat="47.93334" lon="-3.97026">
        <ele>77</ele>
        <time>2022-12-07T11:18:57Z</time>
      </trkpt>
      <trkpt lat="47.93328" lon="-3.97029">
        <ele>76.7</ele>
        <time>2022-12-07T11:18:58Z</time>
      </trkpt>
      <trkpt lat="47.93321" lon="-3.97031">
        <ele>76.4</ele>
        <time>2022-12-07T11:18:59Z</time>
      </trkpt>
      <trkpt lat="47.93314" lon="-3.97034">
        <ele>76.1</ele>
        <time>2022-12-07T11:19:00Z</time>
      </trkpt>
      <trkpt lat="47.93308" lon="-3.97034">
        <ele>75.8</ele>
        <time>2022-12-07T11:19:01Z</time>
      </trkpt>
      <trkpt lat="47.933" lon="-3.97033">
        <ele>75.2</ele>
        <time>2022-12-07T11:19:02Z</time>
      </trkpt>
      <trkpt lat="47.93292" lon="-3.97031">
        <ele>74.7</ele>
        <time>2022-12-07T11:19:03Z</time>
      </trkpt>
      <trkpt lat="47.93285" lon="-3.97028">
        <ele>74.2</ele>
        <time>2022-12-07T11:19:04Z</time>
      </trkpt>
      <trkpt lat="47.93278" lon="-3.97024">
        <ele>73.6</ele>
        <time>2022-12-07T11:19:05Z</time>
      </trkpt>
      <trkpt lat="47.9327" lon="-3.9702">
        <ele>73</ele>
        <time>2022-12-07T11:19:06Z</time>
      </trkpt>
      <trkpt lat="47.93263" lon="-3.97016">
        <ele>72.3</ele>
        <time>2022-12-07T11:19:07Z</time>
      </trkpt>
      <trkpt lat="47.93255" lon="-3.97012">
        <ele>71.6</ele>
        <time>2022-12-07T11:19:08Z</time>
      </trkpt>
      <trkpt lat="47.93246" lon="-3.97008">
        <ele>70.9</ele>
        <time>2022-12-07T11:19:09Z</time>
      </trkpt>
      <trkpt lat="47.93238" lon="-3.97004">
        <ele>70.2</ele>
        <time>2022-12-07T11:19:10Z</time>
      </trkpt>
      <trkpt lat="47.93229" lon="-3.97001">
        <ele>69.5</ele>
        <time>2022-12-07T11:19:11Z</time>
      </trkpt>
      <trkpt lat="47.93221" lon="-3.96997">
        <ele>68.9</ele>
        <time>2022-12-07T11:19:12Z</time>
      </trkpt>
      <trkpt lat="47.93212" lon="-3.96993">
        <ele>68.3</ele>
        <time>2022-12-07T11:19:13Z</time>
      </trkpt>
      <trkpt lat="47.93202" lon="-3.9699">
        <ele>67.7</ele>
        <time>2022-12-07T11:19:14Z</time>
      </trkpt>
      <trkpt lat="47.93193" lon="-3.96986">
        <ele>67.1</ele>
        <time>2022-12-07T11:19:15Z</time>
      </trkpt>
      <trkpt lat="47.93184" lon="-3.96982">
        <ele>66.6</ele>
        <time>2022-12-07T11:19:16Z</time>
      </trkpt>
      <trkpt lat="47.93175" lon="-3.96978">
        <ele>66.2</ele>
        <time>2022-12-07T11:19:17Z</time>
      </trkpt>
      <trkpt lat="47.93168" lon="-3.96974">
        <ele>65.8</ele>
        <time>2022-12-07T11:19:18Z</time>
      </trkpt>
      <trkpt lat="47.93163" lon="-3.96969">
        <ele>65.6</ele>
        <time>2022-12-07T11:19:19Z</time>
      </trkpt>
      <trkpt lat="47.93158" lon="-3.96963">
        <ele>65.4</ele>
        <time>2022-12-07T11:19:20Z</time>
      </trkpt>
      <trkpt lat="47.93155" lon="-3.96955">
        <ele>65.3</ele>
        <time>2022-12-07T11:19:21Z</time>
      </trkpt>
      <trkpt lat="47.93154" lon="-3.96946">
        <ele>65.3</ele>
        <time>2022-12-07T11:19:22Z</time>
      </trkpt>
      <trkpt lat="47.93154" lon="-3.96936">
        <ele>65.4</ele>
        <time>2022-12-07T11:19:23Z</time>
      </trkpt>
      <trkpt lat="47.93154" lon="-3.96927">
        <ele>65.5</ele>
        <time>2022-12-07T11:19:24Z</time>
      </trkpt>
      <trkpt lat="47.93154" lon="-3.96918">
        <ele>65.5</ele>
        <time>2022-12-07T11:19:25Z</time>
      </trkpt>
      <trkpt lat="47.93153" lon="-3.96908">
        <ele>65.6</ele>
        <time>2022-12-07T11:19:26Z</time>
      </trkpt>
      <trkpt lat="47.93153" lon="-3.96899">
        <ele>65.7</ele>
        <time>2022-12-07T11:19:27Z</time>
      </trkpt>
      <trkpt lat="47.93152" lon="-3.9689">
        <ele>65.8</ele>
        <time>2022-12-07T11:19:28Z</time>
      </trkpt>
      <trkpt lat="47.93151" lon="-3.9688">
        <ele>65.8</ele>
        <time>2022-12-07T11:19:29Z</time>
      </trkpt>
      <trkpt lat="47.93151" lon="-3.96871">
        <ele>65.9</ele>
        <time>2022-12-07T11:19:30Z</time>
      </trkpt>
      <trkpt lat="47.9315" lon="-3.96862">
        <ele>66</ele>
        <time>2022-12-07T11:19:31Z</time>
      </trkpt>
      <trkpt lat="47.9315" lon="-3.96852">
        <ele>66</ele>
        <time>2022-12-07T11:19:32Z</time>
      </trkpt>
      <trkpt lat="47.93149" lon="-3.96843">
        <ele>66</ele>
        <time>2022-12-07T11:19:33Z</time>
      </trkpt>
      <trkpt lat="47.93149" lon="-3.96833">
        <ele>66.1</ele>
        <time>2022-12-07T11:19:34Z</time>
      </trkpt>
      <trkpt lat="47.93148" lon="-3.96824">
        <ele>66.1</ele>
        <time>2022-12-07T11:19:35Z</time>
      </trkpt>
      <trkpt lat="47.93149" lon="-3.96816">
        <ele>66.1</ele>
        <time>2022-12-07T11:19:36Z</time>
      </trkpt>
      <trkpt lat="47.93149" lon="-3.96807">
        <ele>66.1</ele>
        <time>2022-12-07T11:19:37Z</time>
      </trkpt>
      <trkpt lat="47.93148" lon="-3.96799">
        <ele>66.2</ele>
        <time>2022-12-07T11:19:38Z</time>
      </trkpt>
      <trkpt lat="47.93146" lon="-3.96791">
        <ele>66.2</ele>
        <time>2022-12-07T11:19:39Z</time>
      </trkpt>
      <trkpt lat="47.93146" lon="-3.96782">
        <ele>66.2</ele>
        <time>2022-12-07T11:19:40Z</time>
      </trkpt>
      <trkpt lat="47.93146" lon="-3.96773">
        <ele>66.2</ele>
        <time>2022-12-07T11:19:41Z</time>
      </trkpt>
      <trkpt lat="47.93145" lon="-3.96765">
        <ele>66.2</ele>
        <time>2022-12-07T11:19:42Z</time>
      </trkpt>
      <trkpt lat="47.93146" lon="-3.96757">
        <ele>66.2</ele>
        <time>2022-12-07T11:19:43Z</time>
      </trkpt>
      <trkpt lat="47.93145" lon="-3.96748">
        <ele>66.2</ele>
        <time>2022-12-07T11:19:44Z</time>
      </trkpt>
      <trkpt lat="47.93144" lon="-3.96739">
        <ele>66.2</ele>
        <time>2022-12-07T11:19:45Z</time>
      </trkpt>
      <trkpt lat="47.93143" lon="-3.9673">
        <ele>66.2</ele>
        <time>2022-12-07T11:19:46Z</time>
      </trkpt>
      <trkpt lat="47.93142" lon="-3.96722">
        <ele>66.1</ele>
        <time>2022-12-07T11:19:47Z</time>
      </trkpt>
      <trkpt lat="47.93141" lon="-3.96712">
        <ele>66.1</ele>
        <time>2022-12-07T11:19:48Z</time>
      </trkpt>
      <trkpt lat="47.9314" lon="-3.96703">
        <ele>66</ele>
        <time>2022-12-07T11:19:49Z</time>
      </trkpt>
      <trkpt lat="47.9314" lon="-3.96694">
        <ele>66</ele>
        <time>2022-12-07T11:19:50Z</time>
      </trkpt>
      <trkpt lat="47.93139" lon="-3.96684">
        <ele>65.9</ele>
        <time>2022-12-07T11:19:51Z</time>
      </trkpt>
      <trkpt lat="47.93139" lon="-3.96673">
        <ele>65.9</ele>
        <time>2022-12-07T11:19:52Z</time>
      </trkpt>
      <trkpt lat="47.93139" lon="-3.96664">
        <ele>65.8</ele>
        <time>2022-12-07T11:19:53Z</time>
      </trkpt>
      <trkpt lat="47.93139" lon="-3.96654">
        <ele>65.7</ele>
        <time>2022-12-07T11:19:54Z</time>
      </trkpt>
      <trkpt lat="47.93138" lon="-3.96644">
        <ele>65.5</ele>
        <time>2022-12-07T11:19:55Z</time>
      </trkpt>
      <trkpt lat="47.93137" lon="-3.96635">
        <ele>65.3</ele>
        <time>2022-12-07T11:19:56Z</time>
      </trkpt>
      <trkpt lat="47.93136" lon="-3.96625">
        <ele>64.9</ele>
        <time>2022-12-07T11:19:57Z</time>
      </trkpt>
      <trkpt lat="47.93135" lon="-3.96615">
        <ele>64.6</ele>
        <time>2022-12-07T11:19:58Z</time>
      </trkpt>
      <trkpt lat="47.93134" lon="-3.96605">
        <ele>64.3</ele>
        <time>2022-12-07T11:19:59Z</time>
      </trkpt>
      <trkpt lat="47.93133" lon="-3.96596">
        <ele>63.9</ele>
        <time>2022-12-07T11:20:00Z</time>
      </trkpt>
      <trkpt lat="47.93132" lon="-3.96586">
        <ele>63.6</ele>
        <time>2022-12-07T11:20:01Z</time>
      </trkpt>
      <trkpt lat="47.93131" lon="-3.96576">
        <ele>63.2</ele>
        <time>2022-12-07T11:20:02Z</time>
      </trkpt>
      <trkpt lat="47.93129" lon="-3.96566">
        <ele>62.8</ele>
        <time>2022-12-07T11:20:03Z</time>
      </trkpt>
      <trkpt lat="47.93128" lon="-3.96555">
        <ele>62.4</ele>
        <time>2022-12-07T11:20:04Z</time>
      </trkpt>
      <trkpt lat="47.93126" lon="-3.96544">
        <ele>61.9</ele>
        <time>2022-12-07T11:20:05Z</time>
      </trkpt>
      <trkpt lat="47.93124" lon="-3.96534">
        <ele>61.5</ele>
        <time>2022-12-07T11:20:06Z</time>
      </trkpt>
      <trkpt lat="47.93122" lon="-3.96523">
        <ele>61</ele>
        <time>2022-12-07T11:20:07Z</time>
      </trkpt>
      <trkpt lat="47.9312" lon="-3.96512">
        <ele>60.4</ele>
        <time>2022-12-07T11:20:08Z</time>
      </trkpt>
      <trkpt lat="47.93119" lon="-3.96502">
        <ele>59.8</ele>
        <time>2022-12-07T11:20:09Z</time>
      </trkpt>
      <trkpt lat="47.93117" lon="-3.96491">
        <ele>59.2</ele>
        <time>2022-12-07T11:20:10Z</time>
      </trkpt>
      <trkpt lat="47.93115" lon="-3.9648">
        <ele>58.4</ele>
        <time>2022-12-07T11:20:11Z</time>
      </trkpt>
      <trkpt lat="47.93113" lon="-3.96469">
        <ele>57.7</ele>
        <time>2022-12-07T11:20:12Z</time>
      </trkpt>
      <trkpt lat="47.93111" lon="-3.96458">
        <ele>57</ele>
        <time>2022-12-07T11:20:13Z</time>
      </trkpt>
      <trkpt lat="47.93109" lon="-3.96446">
        <ele>56.5</ele>
        <time>2022-12-07T11:20:14Z</time>
      </trkpt>
      <trkpt lat="47.93107" lon="-3.96434">
        <ele>56</ele>
        <time>2022-12-07T11:20:15Z</time>
      </trkpt>
      <trkpt lat="47.93104" lon="-3.96422">
        <ele>55.6</ele>
        <time>2022-12-07T11:20:16Z</time>
      </trkpt>
      <trkpt lat="47.93102" lon="-3.96409">
        <ele>55.4</ele>
        <time>2022-12-07T11:20:17Z</time>
      </trkpt>
      <trkpt lat="47.93099" lon="-3.96396">
        <ele>55.3</ele>
        <time>2022-12-07T11:20:18Z</time>
      </trkpt>
      <trkpt lat="47.93096" lon="-3.96384">
        <ele>55.5</ele>
        <time>2022-12-07T11:20:19Z</time>
      </trkpt>
      <trkpt lat="47.93094" lon="-3.96373">
        <ele>55.7</ele>
        <time>2022-12-07T11:20:20Z</time>
      </trkpt>
      <trkpt lat="47.93093" lon="-3.96363">
        <ele>56.2</ele>
        <time>2022-12-07T11:20:21Z</time>
      </trkpt>
      <trkpt lat="47.93092" lon="-3.96354">
        <ele>56.6</ele>
        <time>2022-12-07T11:20:22Z</time>
      </trkpt>
      <trkpt lat="47.93091" lon="-3.96344">
        <ele>57.2</ele>
        <time>2022-12-07T11:20:23Z</time>
      </trkpt>
      <trkpt lat="47.9309" lon="-3.96335">
        <ele>57.8</ele>
        <time>2022-12-07T11:20:24Z</time>
      </trkpt>
      <trkpt lat="47.9309" lon="-3.96328">
        <ele>58.4</ele>
        <time>2022-12-07T11:20:25Z</time>
      </trkpt>
      <trkpt lat="47.93091" lon="-3.96322">
        <ele>58.8</ele>
        <time>2022-12-07T11:20:26Z</time>
      </trkpt>
      <trkpt lat="47.93091" lon="-3.96318">
        <ele>59.2</ele>
        <time>2022-12-07T11:20:27Z</time>
      </trkpt>
      <trkpt lat="47.93092" lon="-3.96311">
        <ele>59.8</ele>
        <time>2022-12-07T11:20:28Z</time>
      </trkpt>
      <trkpt lat="47.93093" lon="-3.96305">
        <ele>60.4</ele>
        <time>2022-12-07T11:20:29Z</time>
      </trkpt>
      <trkpt lat="47.93094" lon="-3.96299">
        <ele>60.9</ele>
        <time>2022-12-07T11:20:30Z</time>
      </trkpt>
      <trkpt lat="47.93095" lon="-3.96293">
        <ele>61.4</ele>
        <time>2022-12-07T11:20:31Z</time>
      </trkpt>
      <trkpt lat="47.93095" lon="-3.96288">
        <ele>61.9</ele>
        <time>2022-12-07T11:20:32Z</time>
      </trkpt>
      <trkpt lat="47.93096" lon="-3.96282">
        <ele>62.4</ele>
        <time>2022-12-07T11:20:33Z</time>
      </trkpt>
      <trkpt lat="47.93097" lon="-3.96277">
        <ele>62.8</ele>
        <time>2022-12-07T11:20:34Z</time>
      </trkpt>
      <trkpt lat="47.93098" lon="-3.96275">
        <ele>63</ele>
        <time>2022-12-07T11:20:35Z</time>
      </trkpt>
      <trkpt lat="47.931" lon="-3.96269">
        <ele>63.5</ele>
        <time>2022-12-07T11:20:36Z</time>
      </trkpt>
      <trkpt lat="47.93102" lon="-3.96258">
        <ele>64.3</ele>
        <time>2022-12-07T11:20:38Z</time>
      </trkpt>
      <trkpt lat="47.93104" lon="-3.96253">
        <ele>64.7</ele>
        <time>2022-12-07T11:20:39Z</time>
      </trkpt>
      <trkpt lat="47.93106" lon="-3.96247">
        <ele>65</ele>
        <time>2022-12-07T11:20:40Z</time>
      </trkpt>
      <trkpt lat="47.93108" lon="-3.96241">
        <ele>65.4</ele>
        <time>2022-12-07T11:20:41Z</time>
      </trkpt>
      <trkpt lat="47.9311" lon="-3.96235">
        <ele>65.6</ele>
        <time>2022-12-07T11:20:42Z</time>
      </trkpt>
      <trkpt lat="47.93111" lon="-3.96229">
        <ele>65.9</ele>
        <time>2022-12-07T11:20:43Z</time>
      </trkpt>
      <trkpt lat="47.93113" lon="-3.96223">
        <ele>66</ele>
        <time>2022-12-07T11:20:44Z</time>
      </trkpt>
      <trkpt lat="47.93115" lon="-3.96217">
        <ele>66.2</ele>
        <time>2022-12-07T11:20:45Z</time>
      </trkpt>
      <trkpt lat="47.93117" lon="-3.96212">
        <ele>66.4</ele>
        <time>2022-12-07T11:20:46Z</time>
      </trkpt>
      <trkpt lat="47.93119" lon="-3.96207">
        <ele>66.5</ele>
        <time>2022-12-07T11:20:47Z</time>
      </trkpt>
      <trkpt lat="47.93121" lon="-3.96202">
        <ele>66.6</ele>
        <time>2022-12-07T11:20:48Z</time>
      </trkpt>
      <trkpt lat="47.93125" lon="-3.96191">
        <ele>66.7</ele>
        <time>2022-12-07T11:20:50Z</time>
      </trkpt>
      <trkpt lat="47.93127" lon="-3.96185">
        <ele>66.7</ele>
        <time>2022-12-07T11:20:51Z</time>
      </trkpt>
      <trkpt lat="47.93128" lon="-3.9618">
        <ele>66.7</ele>
        <time>2022-12-07T11:20:52Z</time>
      </trkpt>
      <trkpt lat="47.93129" lon="-3.96172">
        <ele>66.7</ele>
        <time>2022-12-07T11:20:53Z</time>
      </trkpt>
      <trkpt lat="47.93129" lon="-3.96166">
        <ele>66.4</ele>
        <time>2022-12-07T11:20:54Z</time>
      </trkpt>
      <trkpt lat="47.93128" lon="-3.96158">
        <ele>66.2</ele>
        <time>2022-12-07T11:20:55Z</time>
      </trkpt>
      <trkpt lat="47.93126" lon="-3.96151">
        <ele>66</ele>
        <time>2022-12-07T11:20:56Z</time>
      </trkpt>
      <trkpt lat="47.93124" lon="-3.96144">
        <ele>65.8</ele>
        <time>2022-12-07T11:20:57Z</time>
      </trkpt>
      <trkpt lat="47.9312" lon="-3.96137">
        <ele>65.6</ele>
        <time>2022-12-07T11:20:58Z</time>
      </trkpt>
      <trkpt lat="47.93116" lon="-3.96131">
        <ele>65.3</ele>
        <time>2022-12-07T11:20:59Z</time>
      </trkpt>
      <trkpt lat="47.93112" lon="-3.96127">
        <ele>65</ele>
        <time>2022-12-07T11:21:00Z</time>
      </trkpt>
      <trkpt lat="47.93107" lon="-3.96122">
        <ele>64.7</ele>
        <time>2022-12-07T11:21:01Z</time>
      </trkpt>
      <trkpt lat="47.93101" lon="-3.96119">
        <ele>64.4</ele>
        <time>2022-12-07T11:21:02Z</time>
      </trkpt>
      <trkpt lat="47.93096" lon="-3.96115">
        <ele>64.1</ele>
        <time>2022-12-07T11:21:03Z</time>
      </trkpt>
      <trkpt lat="47.9309" lon="-3.96112">
        <ele>63.8</ele>
        <time>2022-12-07T11:21:04Z</time>
      </trkpt>
      <trkpt lat="47.93084" lon="-3.96108">
        <ele>63.5</ele>
        <time>2022-12-07T11:21:05Z</time>
      </trkpt>
      <trkpt lat="47.93078" lon="-3.96106">
        <ele>63.3</ele>
        <time>2022-12-07T11:21:06Z</time>
      </trkpt>
      <trkpt lat="47.93071" lon="-3.96103">
        <ele>63.1</ele>
        <time>2022-12-07T11:21:07Z</time>
      </trkpt>
      <trkpt lat="47.93064" lon="-3.96101">
        <ele>62.9</ele>
        <time>2022-12-07T11:21:08Z</time>
      </trkpt>
      <trkpt lat="47.93058" lon="-3.961">
        <ele>62.7</ele>
        <time>2022-12-07T11:21:09Z</time>
      </trkpt>
      <trkpt lat="47.93052" lon="-3.96099">
        <ele>62.6</ele>
        <time>2022-12-07T11:21:10Z</time>
      </trkpt>
      <trkpt lat="47.93046" lon="-3.96099">
        <ele>62.5</ele>
        <time>2022-12-07T11:21:11Z</time>
      </trkpt>
      <trkpt lat="47.93039" lon="-3.96099">
        <ele>62.4</ele>
        <time>2022-12-07T11:21:12Z</time>
      </trkpt>
      <trkpt lat="47.93033" lon="-3.96099">
        <ele>62.3</ele>
        <time>2022-12-07T11:21:13Z</time>
      </trkpt>
      <trkpt lat="47.93027" lon="-3.96099">
        <ele>62.3</ele>
        <time>2022-12-07T11:21:14Z</time>
      </trkpt>
      <trkpt lat="47.93022" lon="-3.96099">
        <ele>62.2</ele>
        <time>2022-12-07T11:21:15Z</time>
      </trkpt>
      <trkpt lat="47.93015" lon="-3.96098">
        <ele>62.1</ele>
        <time>2022-12-07T11:21:16Z</time>
      </trkpt>
      <trkpt lat="47.93009" lon="-3.96095">
        <ele>61.9</ele>
        <time>2022-12-07T11:21:17Z</time>
      </trkpt>
      <trkpt lat="47.93004" lon="-3.9609">
        <ele>61.7</ele>
        <time>2022-12-07T11:21:18Z</time>
      </trkpt>
      <trkpt lat="47.92999" lon="-3.96083">
        <ele>61.6</ele>
        <time>2022-12-07T11:21:19Z</time>
      </trkpt>
      <trkpt lat="47.92995" lon="-3.96076">
        <ele>61.4</ele>
        <time>2022-12-07T11:21:20Z</time>
      </trkpt>
      <trkpt lat="47.92992" lon="-3.96068">
        <ele>61.3</ele>
        <time>2022-12-07T11:21:21Z</time>
      </trkpt>
      <trkpt lat="47.92988" lon="-3.96061">
        <ele>61.1</ele>
        <time>2022-12-07T11:21:22Z</time>
      </trkpt>
      <trkpt lat="47.92984" lon="-3.96053">
        <ele>61</ele>
        <time>2022-12-07T11:21:23Z</time>
      </trkpt>
      <trkpt lat="47.9298" lon="-3.96045">
        <ele>60.8</ele>
        <time>2022-12-07T11:21:24Z</time>
      </trkpt>
      <trkpt lat="47.92976" lon="-3.96037">
        <ele>60.6</ele>
        <time>2022-12-07T11:21:25Z</time>
      </trkpt>
      <trkpt lat="47.92972" lon="-3.96029">
        <ele>60.4</ele>
        <time>2022-12-07T11:21:26Z</time>
      </trkpt>
      <trkpt lat="47.92968" lon="-3.96021">
        <ele>60.2</ele>
        <time>2022-12-07T11:21:27Z</time>
      </trkpt>
      <trkpt lat="47.92964" lon="-3.96012">
        <ele>60</ele>
        <time>2022-12-07T11:21:28Z</time>
      </trkpt>
      <trkpt lat="47.92962" lon="-3.96002">
        <ele>59.8</ele>
        <time>2022-12-07T11:21:29Z</time>
      </trkpt>
      <trkpt lat="47.9296" lon="-3.95992">
        <ele>59.5</ele>
        <time>2022-12-07T11:21:30Z</time>
      </trkpt>
      <trkpt lat="47.9296" lon="-3.95981">
        <ele>59</ele>
        <time>2022-12-07T11:21:31Z</time>
      </trkpt>
      <trkpt lat="47.92959" lon="-3.95971">
        <ele>58.5</ele>
        <time>2022-12-07T11:21:32Z</time>
      </trkpt>
      <trkpt lat="47.92958" lon="-3.9596">
        <ele>58</ele>
        <time>2022-12-07T11:21:33Z</time>
      </trkpt>
      <trkpt lat="47.92958" lon="-3.9595">
        <ele>57.4</ele>
        <time>2022-12-07T11:21:34Z</time>
      </trkpt>
      <trkpt lat="47.92957" lon="-3.95939">
        <ele>56.9</ele>
        <time>2022-12-07T11:21:35Z</time>
      </trkpt>
      <trkpt lat="47.92957" lon="-3.95929">
        <ele>56.3</ele>
        <time>2022-12-07T11:21:36Z</time>
      </trkpt>
      <trkpt lat="47.92956" lon="-3.95919">
        <ele>55.9</ele>
        <time>2022-12-07T11:21:37Z</time>
      </trkpt>
      <trkpt lat="47.92955" lon="-3.9591">
        <ele>55.7</ele>
        <time>2022-12-07T11:21:38Z</time>
      </trkpt>
      <trkpt lat="47.92953" lon="-3.95901">
        <ele>55.4</ele>
        <time>2022-12-07T11:21:39Z</time>
      </trkpt>
      <trkpt lat="47.92952" lon="-3.95892">
        <ele>55.2</ele>
        <time>2022-12-07T11:21:40Z</time>
      </trkpt>
      <trkpt lat="47.9295" lon="-3.95884">
        <ele>55</ele>
        <time>2022-12-07T11:21:41Z</time>
      </trkpt>
      <trkpt lat="47.92947" lon="-3.95877">
        <ele>54.8</ele>
        <time>2022-12-07T11:21:42Z</time>
      </trkpt>
      <trkpt lat="47.92945" lon="-3.9587">
        <ele>54.6</ele>
        <time>2022-12-07T11:21:43Z</time>
      </trkpt>
      <trkpt lat="47.92943" lon="-3.95864">
        <ele>54.4</ele>
        <time>2022-12-07T11:21:44Z</time>
      </trkpt>
      <trkpt lat="47.92941" lon="-3.95857">
        <ele>54.2</ele>
        <time>2022-12-07T11:21:45Z</time>
      </trkpt>
      <trkpt lat="47.92939" lon="-3.95848">
        <ele>53.9</ele>
        <time>2022-12-07T11:21:46Z</time>
      </trkpt>
      <trkpt lat="47.92938" lon="-3.95838">
        <ele>53.7</ele>
        <time>2022-12-07T11:21:47Z</time>
      </trkpt>
      <trkpt lat="47.92937" lon="-3.95828">
        <ele>53.4</ele>
        <time>2022-12-07T11:21:48Z</time>
      </trkpt>
      <trkpt lat="47.92936" lon="-3.95818">
        <ele>53.3</ele>
        <time>2022-12-07T11:21:49Z</time>
      </trkpt>
      <trkpt lat="47.92935" lon="-3.95809">
        <ele>53.1</ele>
        <time>2022-12-07T11:21:50Z</time>
      </trkpt>
      <trkpt lat="47.92933" lon="-3.958">
        <ele>53</ele>
        <time>2022-12-07T11:21:51Z</time>
      </trkpt>
      <trkpt lat="47.9293" lon="-3.95794">
        <ele>53</ele>
        <time>2022-12-07T11:21:52Z</time>
      </trkpt>
      <trkpt lat="47.92926" lon="-3.9579">
        <ele>52.9</ele>
        <time>2022-12-07T11:21:53Z</time>
      </trkpt>
      <trkpt lat="47.92924" lon="-3.95789">
        <ele>52.9</ele>
        <time>2022-12-07T11:21:54Z</time>
      </trkpt>
      <trkpt lat="47.9292" lon="-3.95787">
        <ele>52.8</ele>
        <time>2022-12-07T11:21:55Z</time>
      </trkpt>
      <trkpt lat="47.92916" lon="-3.95784">
        <ele>52.8</ele>
        <time>2022-12-07T11:21:56Z</time>
      </trkpt>
      <trkpt lat="47.92914" lon="-3.95783">
        <ele>52.8</ele>
        <time>2022-12-07T11:21:57Z</time>
      </trkpt>
      <trkpt lat="47.92911" lon="-3.95779">
        <ele>52.7</ele>
        <time>2022-12-07T11:21:58Z</time>
      </trkpt>
      <trkpt lat="47.92907" lon="-3.95776">
        <ele>52.7</ele>
        <time>2022-12-07T11:21:59Z</time>
      </trkpt>
      <trkpt lat="47.92903" lon="-3.95772">
        <ele>52.6</ele>
        <time>2022-12-07T11:22:00Z</time>
      </trkpt>
      <trkpt lat="47.92901" lon="-3.95768">
        <ele>52.5</ele>
        <time>2022-12-07T11:22:01Z</time>
      </trkpt>
      <trkpt lat="47.929" lon="-3.95767">
        <ele>52.5</ele>
        <time>2022-12-07T11:22:02Z</time>
      </trkpt>
      <trkpt lat="47.92895" lon="-3.95764">
        <ele>52.4</ele>
        <time>2022-12-07T11:22:03Z</time>
      </trkpt>
      <trkpt lat="47.9289" lon="-3.9576">
        <ele>52.2</ele>
        <time>2022-12-07T11:22:04Z</time>
      </trkpt>
      <trkpt lat="47.92886" lon="-3.95756">
        <ele>52.1</ele>
        <time>2022-12-07T11:22:06Z</time>
      </trkpt>
      <trkpt lat="47.92883" lon="-3.95754">
        <ele>52.1</ele>
        <time>2022-12-07T11:22:07Z</time>
      </trkpt>
      <trkpt lat="47.92882" lon="-3.95754">
        <ele>52</ele>
        <time>2022-12-07T11:22:08Z</time>
      </trkpt>
      <trkpt lat="47.92881" lon="-3.95754">
        <ele>52</ele>
        <time>2022-12-07T11:22:09Z</time>
      </trkpt>
      <trkpt lat="47.92881" lon="-3.95753">
        <ele>52</ele>
        <time>2022-12-07T11:22:10Z</time>
      </trkpt>
      <trkpt lat="47.9288" lon="-3.95753">
        <ele>52</ele>
        <time>2022-12-07T11:22:11Z</time>
      </trkpt>
      <trkpt lat="47.9288" lon="-3.95752">
        <ele>52</ele>
        <time>2022-12-07T11:22:12Z</time>
      </trkpt>
      <trkpt lat="47.9288" lon="-3.95752">
        <ele>52</ele>
        <time>2022-12-07T11:22:13Z</time>
      </trkpt>
      <trkpt lat="47.92879" lon="-3.95751">
        <ele>52</ele>
        <time>2022-12-07T11:22:14Z</time>
      </trkpt>
      <trkpt lat="47.92879" lon="-3.95751">
        <ele>52</ele>
        <time>2022-12-07T11:22:15Z</time>
      </trkpt>
      <trkpt lat="47.92878" lon="-3.9575">
        <ele>52</ele>
        <time>2022-12-07T11:22:16Z</time>
      </trkpt>
      <trkpt lat="47.92878" lon="-3.9575">
        <ele>52</ele>
        <time>2022-12-07T11:22:17Z</time>
      </trkpt>
      <trkpt lat="47.92878" lon="-3.95749">
        <ele>51.9</ele>
        <time>2022-12-07T11:22:18Z</time>
      </trkpt>
      <trkpt lat="47.92877" lon="-3.95749">
        <ele>51.9</ele>
        <time>2022-12-07T11:22:57Z</time>
      </trkpt>
      <trkpt lat="47.92877" lon="-3.95749">
        <ele>51.9</ele>
        <time>2022-12-07T11:22:58Z</time>
      </trkpt>
      <trkpt lat="47.92876" lon="-3.95748">
        <ele>51.9</ele>
        <time>2022-12-07T11:22:59Z</time>
      </trkpt>
      <trkpt lat="47.92873" lon="-3.95746">
        <ele>51.9</ele>
        <time>2022-12-07T11:23:00Z</time>
      </trkpt>
      <trkpt lat="47.92871" lon="-3.95744">
        <ele>51.8</ele>
        <time>2022-12-07T11:23:01Z</time>
      </trkpt>
      <trkpt lat="47.92868" lon="-3.95742">
        <ele>51.7</ele>
        <time>2022-12-07T11:23:02Z</time>
      </trkpt>
      <trkpt lat="47.92865" lon="-3.95738">
        <ele>51.7</ele>
        <time>2022-12-07T11:23:03Z</time>
      </trkpt>
      <trkpt lat="47.9286" lon="-3.95734">
        <ele>51.5</ele>
        <time>2022-12-07T11:23:05Z</time>
      </trkpt>
      <trkpt lat="47.92856" lon="-3.95731">
        <ele>51.4</ele>
        <time>2022-12-07T11:23:06Z</time>
      </trkpt>
      <trkpt lat="47.92853" lon="-3.95728">
        <ele>51.3</ele>
        <time>2022-12-07T11:23:07Z</time>
      </trkpt>
      <trkpt lat="47.92848" lon="-3.95723">
        <ele>51.2</ele>
        <time>2022-12-07T11:23:08Z</time>
      </trkpt>
      <trkpt lat="47.92844" lon="-3.9572">
        <ele>51.1</ele>
        <time>2022-12-07T11:23:10Z</time>
      </trkpt>
      <trkpt lat="47.92842" lon="-3.95717">
        <ele>51</ele>
        <time>2022-12-07T11:23:11Z</time>
      </trkpt>
      <trkpt lat="47.92835" lon="-3.95712">
        <ele>50.8</ele>
        <time>2022-12-07T11:23:13Z</time>
      </trkpt>
      <trkpt lat="47.92828" lon="-3.95708">
        <ele>50.6</ele>
        <time>2022-12-07T11:23:14Z</time>
      </trkpt>
      <trkpt lat="47.92824" lon="-3.95703">
        <ele>50.4</ele>
        <time>2022-12-07T11:23:15Z</time>
      </trkpt>
      <trkpt lat="47.9282" lon="-3.95698">
        <ele>50.2</ele>
        <time>2022-12-07T11:23:16Z</time>
      </trkpt>
      <trkpt lat="47.92816" lon="-3.95694">
        <ele>49.9</ele>
        <time>2022-12-07T11:23:18Z</time>
      </trkpt>
      <trkpt lat="47.92811" lon="-3.9569">
        <ele>49.7</ele>
        <time>2022-12-07T11:23:19Z</time>
      </trkpt>
      <trkpt lat="47.92806" lon="-3.95686">
        <ele>49.5</ele>
        <time>2022-12-07T11:23:20Z</time>
      </trkpt>
      <trkpt lat="47.92803" lon="-3.95682">
        <ele>49.3</ele>
        <time>2022-12-07T11:23:21Z</time>
      </trkpt>
      <trkpt lat="47.92797" lon="-3.95677">
        <ele>49</ele>
        <time>2022-12-07T11:23:22Z</time>
      </trkpt>
      <trkpt lat="47.92792" lon="-3.95673">
        <ele>48.7</ele>
        <time>2022-12-07T11:23:23Z</time>
      </trkpt>
      <trkpt lat="47.92788" lon="-3.95668">
        <ele>48.5</ele>
        <time>2022-12-07T11:23:24Z</time>
      </trkpt>
      <trkpt lat="47.92783" lon="-3.95664">
        <ele>48.2</ele>
        <time>2022-12-07T11:23:25Z</time>
      </trkpt>
      <trkpt lat="47.92778" lon="-3.95659">
        <ele>47.9</ele>
        <time>2022-12-07T11:23:26Z</time>
      </trkpt>
      <trkpt lat="47.92773" lon="-3.95654">
        <ele>47.5</ele>
        <time>2022-12-07T11:23:27Z</time>
      </trkpt>
      <trkpt lat="47.92768" lon="-3.95649">
        <ele>47</ele>
        <time>2022-12-07T11:23:28Z</time>
      </trkpt>
      <trkpt lat="47.92763" lon="-3.95643">
        <ele>46.5</ele>
        <time>2022-12-07T11:23:29Z</time>
      </trkpt>
      <trkpt lat="47.92758" lon="-3.95637">
        <ele>46.2</ele>
        <time>2022-12-07T11:23:30Z</time>
      </trkpt>
      <trkpt lat="47.92753" lon="-3.95632">
        <ele>45.8</ele>
        <time>2022-12-07T11:23:31Z</time>
      </trkpt>
      <trkpt lat="47.92749" lon="-3.95627">
        <ele>45.6</ele>
        <time>2022-12-07T11:23:32Z</time>
      </trkpt>
      <trkpt lat="47.92746" lon="-3.95623">
        <ele>45.4</ele>
        <time>2022-12-07T11:23:33Z</time>
      </trkpt>
      <trkpt lat="47.92744" lon="-3.95619">
        <ele>45.3</ele>
        <time>2022-12-07T11:23:34Z</time>
      </trkpt>
      <trkpt lat="47.92742" lon="-3.95613">
        <ele>45</ele>
        <time>2022-12-07T11:23:35Z</time>
      </trkpt>
      <trkpt lat="47.92742" lon="-3.95608">
        <ele>44.2</ele>
        <time>2022-12-07T11:23:36Z</time>
      </trkpt>
      <trkpt lat="47.92744" lon="-3.95603">
        <ele>43.9</ele>
        <time>2022-12-07T11:23:37Z</time>
      </trkpt>
      <trkpt lat="47.92745" lon="-3.95597">
        <ele>43.7</ele>
        <time>2022-12-07T11:23:38Z</time>
      </trkpt>
      <trkpt lat="47.92748" lon="-3.95591">
        <ele>43.4</ele>
        <time>2022-12-07T11:23:39Z</time>
      </trkpt>
      <trkpt lat="47.9275" lon="-3.95583">
        <ele>43</ele>
        <time>2022-12-07T11:23:40Z</time>
      </trkpt>
      <trkpt lat="47.92753" lon="-3.95575">
        <ele>42.6</ele>
        <time>2022-12-07T11:23:41Z</time>
      </trkpt>
      <trkpt lat="47.92755" lon="-3.95568">
        <ele>42.2</ele>
        <time>2022-12-07T11:23:42Z</time>
      </trkpt>
      <trkpt lat="47.92757" lon="-3.9556">
        <ele>41.7</ele>
        <time>2022-12-07T11:23:43Z</time>
      </trkpt>
      <trkpt lat="47.92759" lon="-3.95555">
        <ele>41.4</ele>
        <time>2022-12-07T11:23:44Z</time>
      </trkpt>
      <trkpt lat="47.92761" lon="-3.95546">
        <ele>40.9</ele>
        <time>2022-12-07T11:23:45Z</time>
      </trkpt>
      <trkpt lat="47.92762" lon="-3.95539">
        <ele>40.4</ele>
        <time>2022-12-07T11:23:46Z</time>
      </trkpt>
      <trkpt lat="47.92764" lon="-3.95532">
        <ele>40.1</ele>
        <time>2022-12-07T11:23:47Z</time>
      </trkpt>
      <trkpt lat="47.92763" lon="-3.95529">
        <ele>39.8</ele>
        <time>2022-12-07T11:23:48Z</time>
      </trkpt>
      <trkpt lat="47.92762" lon="-3.95527">
        <ele>39.7</ele>
        <time>2022-12-07T11:23:49Z</time>
      </trkpt>
      <trkpt lat="47.92767" lon="-3.95517">
        <ele>39</ele>
        <time>2022-12-07T11:23:50Z</time>
      </trkpt>
      <trkpt lat="47.92769" lon="-3.95513">
        <ele>38.7</ele>
        <time>2022-12-07T11:23:51Z</time>
      </trkpt>
      <trkpt lat="47.9277" lon="-3.95508">
        <ele>38.3</ele>
        <time>2022-12-07T11:23:52Z</time>
      </trkpt>
      <trkpt lat="47.92771" lon="-3.95502">
        <ele>37.8</ele>
        <time>2022-12-07T11:23:54Z</time>
      </trkpt>
      <trkpt lat="47.92772" lon="-3.95496">
        <ele>37.4</ele>
        <time>2022-12-07T11:23:55Z</time>
      </trkpt>
      <trkpt lat="47.92771" lon="-3.95494">
        <ele>37.2</ele>
        <time>2022-12-07T11:23:56Z</time>
      </trkpt>
      <trkpt lat="47.92771" lon="-3.95489">
        <ele>36.1</ele>
        <time>2022-12-07T11:23:57Z</time>
      </trkpt>
      <trkpt lat="47.92771" lon="-3.95483">
        <ele>35.6</ele>
        <time>2022-12-07T11:23:58Z</time>
      </trkpt>
      <trkpt lat="47.92769" lon="-3.9548">
        <ele>35.2</ele>
        <time>2022-12-07T11:23:59Z</time>
      </trkpt>
      <trkpt lat="47.92765" lon="-3.95476">
        <ele>34.6</ele>
        <time>2022-12-07T11:24:01Z</time>
      </trkpt>
      <trkpt lat="47.92764" lon="-3.95475">
        <ele>34.4</ele>
        <time>2022-12-07T11:24:02Z</time>
      </trkpt>
      <trkpt lat="47.92762" lon="-3.95475">
        <ele>34.3</ele>
        <time>2022-12-07T11:24:03Z</time>
      </trkpt>
      <trkpt lat="47.92758" lon="-3.95474">
        <ele>33.7</ele>
        <time>2022-12-07T11:24:05Z</time>
      </trkpt>
      <trkpt lat="47.92755" lon="-3.95474">
        <ele>33.3</ele>
        <time>2022-12-07T11:24:07Z</time>
      </trkpt>
      <trkpt lat="47.92752" lon="-3.95474">
        <ele>33</ele>
        <time>2022-12-07T11:24:08Z</time>
      </trkpt>
      <trkpt lat="47.92749" lon="-3.95475">
        <ele>32.6</ele>
        <time>2022-12-07T11:24:09Z</time>
      </trkpt>
      <trkpt lat="47.92745" lon="-3.95475">
        <ele>32.2</ele>
        <time>2022-12-07T11:24:10Z</time>
      </trkpt>
      <trkpt lat="47.92739" lon="-3.95475">
        <ele>31.6</ele>
        <time>2022-12-07T11:24:11Z</time>
      </trkpt>
      <trkpt lat="47.92734" lon="-3.95475">
        <ele>31.1</ele>
        <time>2022-12-07T11:24:12Z</time>
      </trkpt>
      <trkpt lat="47.92729" lon="-3.95475">
        <ele>30.8</ele>
        <time>2022-12-07T11:24:13Z</time>
      </trkpt>
      <trkpt lat="47.92725" lon="-3.95475">
        <ele>30.5</ele>
        <time>2022-12-07T11:24:14Z</time>
      </trkpt>
      <trkpt lat="47.92721" lon="-3.95475">
        <ele>30.3</ele>
        <time>2022-12-07T11:24:15Z</time>
      </trkpt>
      <trkpt lat="47.92717" lon="-3.95476">
        <ele>30.1</ele>
        <time>2022-12-07T11:24:16Z</time>
      </trkpt>
      <trkpt lat="47.92713" lon="-3.95478">
        <ele>30</ele>
        <time>2022-12-07T11:24:17Z</time>
      </trkpt>
      <trkpt lat="47.9271" lon="-3.9548">
        <ele>29.9</ele>
        <time>2022-12-07T11:24:18Z</time>
      </trkpt>
      <trkpt lat="47.92707" lon="-3.95481">
        <ele>29.8</ele>
        <time>2022-12-07T11:24:19Z</time>
      </trkpt>
      <trkpt lat="47.927" lon="-3.95479">
        <ele>29.6</ele>
        <time>2022-12-07T11:24:21Z</time>
      </trkpt>
      <trkpt lat="47.92696" lon="-3.95479">
        <ele>29.5</ele>
        <time>2022-12-07T11:24:22Z</time>
      </trkpt>
      <trkpt lat="47.92691" lon="-3.95481">
        <ele>29.3</ele>
        <time>2022-12-07T11:24:23Z</time>
      </trkpt>
      <trkpt lat="47.92685" lon="-3.95483">
        <ele>29.1</ele>
        <time>2022-12-07T11:24:24Z</time>
      </trkpt>
      <trkpt lat="47.9268" lon="-3.95483">
        <ele>29</ele>
        <time>2022-12-07T11:24:25Z</time>
      </trkpt>
      <trkpt lat="47.92675" lon="-3.95484">
        <ele>28.9</ele>
        <time>2022-12-07T11:24:26Z</time>
      </trkpt>
      <trkpt lat="47.92671" lon="-3.95486">
        <ele>28.7</ele>
        <time>2022-12-07T11:24:27Z</time>
      </trkpt>
      <trkpt lat="47.92666" lon="-3.95489">
        <ele>28.6</ele>
        <time>2022-12-07T11:24:28Z</time>
      </trkpt>
      <trkpt lat="47.92662" lon="-3.95492">
        <ele>28.6</ele>
        <time>2022-12-07T11:24:29Z</time>
      </trkpt>
      <trkpt lat="47.92657" lon="-3.95494">
        <ele>28.5</ele>
        <time>2022-12-07T11:24:30Z</time>
      </trkpt>
      <trkpt lat="47.92654" lon="-3.95497">
        <ele>28.5</ele>
        <time>2022-12-07T11:24:31Z</time>
      </trkpt>
      <trkpt lat="47.92653" lon="-3.95499">
        <ele>28.5</ele>
        <time>2022-12-07T11:24:32Z</time>
      </trkpt>
      <trkpt lat="47.92649" lon="-3.95507">
        <ele>28.4</ele>
        <time>2022-12-07T11:24:33Z</time>
      </trkpt>
      <trkpt lat="47.92647" lon="-3.95513">
        <ele>28.4</ele>
        <time>2022-12-07T11:24:35Z</time>
      </trkpt>
      <trkpt lat="47.92644" lon="-3.95517">
        <ele>28.4</ele>
        <time>2022-12-07T11:24:36Z</time>
      </trkpt>
      <trkpt lat="47.92641" lon="-3.95517">
        <ele>28.3</ele>
        <time>2022-12-07T11:24:37Z</time>
      </trkpt>
      <trkpt lat="47.92638" lon="-3.95513">
        <ele>28.3</ele>
        <time>2022-12-07T11:24:38Z</time>
      </trkpt>
      <trkpt lat="47.92637" lon="-3.95506">
        <ele>28.2</ele>
        <time>2022-12-07T11:24:39Z</time>
      </trkpt>
      <trkpt lat="47.92637" lon="-3.95498">
        <ele>28.1</ele>
        <time>2022-12-07T11:24:40Z</time>
      </trkpt>
      <trkpt lat="47.92637" lon="-3.95489">
        <ele>27.8</ele>
        <time>2022-12-07T11:24:41Z</time>
      </trkpt>
      <trkpt lat="47.92636" lon="-3.95481">
        <ele>27.6</ele>
        <time>2022-12-07T11:24:42Z</time>
      </trkpt>
      <trkpt lat="47.92634" lon="-3.95474">
        <ele>27.4</ele>
        <time>2022-12-07T11:24:43Z</time>
      </trkpt>
      <trkpt lat="47.92633" lon="-3.95466">
        <ele>27.1</ele>
        <time>2022-12-07T11:24:44Z</time>
      </trkpt>
      <trkpt lat="47.92631" lon="-3.95459">
        <ele>27</ele>
        <time>2022-12-07T11:24:45Z</time>
      </trkpt>
      <trkpt lat="47.92628" lon="-3.95453">
        <ele>26.8</ele>
        <time>2022-12-07T11:24:46Z</time>
      </trkpt>
      <trkpt lat="47.92625" lon="-3.95446">
        <ele>26.6</ele>
        <time>2022-12-07T11:24:47Z</time>
      </trkpt>
      <trkpt lat="47.92621" lon="-3.95441">
        <ele>26.4</ele>
        <time>2022-12-07T11:24:48Z</time>
      </trkpt>
      <trkpt lat="47.92617" lon="-3.95436">
        <ele>26.3</ele>
        <time>2022-12-07T11:24:49Z</time>
      </trkpt>
      <trkpt lat="47.92614" lon="-3.95432">
        <ele>26.2</ele>
        <time>2022-12-07T11:24:50Z</time>
      </trkpt>
      <trkpt lat="47.9261" lon="-3.95428">
        <ele>26.2</ele>
        <time>2022-12-07T11:24:51Z</time>
      </trkpt>
      <trkpt lat="47.92605" lon="-3.95426">
        <ele>26.2</ele>
        <time>2022-12-07T11:24:52Z</time>
      </trkpt>
      <trkpt lat="47.92601" lon="-3.95423">
        <ele>26.2</ele>
        <time>2022-12-07T11:24:53Z</time>
      </trkpt>
      <trkpt lat="47.92597" lon="-3.95421">
        <ele>26.3</ele>
        <time>2022-12-07T11:24:54Z</time>
      </trkpt>
      <trkpt lat="47.92593" lon="-3.95419">
        <ele>26.3</ele>
        <time>2022-12-07T11:24:55Z</time>
      </trkpt>
      <trkpt lat="47.92588" lon="-3.95417">
        <ele>26.5</ele>
        <time>2022-12-07T11:24:56Z</time>
      </trkpt>
      <trkpt lat="47.92585" lon="-3.95416">
        <ele>26.6</ele>
        <time>2022-12-07T11:24:57Z</time>
      </trkpt>
      <trkpt lat="47.92581" lon="-3.95413">
        <ele>26.8</ele>
        <time>2022-12-07T11:24:58Z</time>
      </trkpt>
      <trkpt lat="47.92577" lon="-3.95411">
        <ele>26.9</ele>
        <time>2022-12-07T11:24:59Z</time>
      </trkpt>
      <trkpt lat="47.92573" lon="-3.95407">
        <ele>27.2</ele>
        <time>2022-12-07T11:25:00Z</time>
      </trkpt>
      <trkpt lat="47.92569" lon="-3.95403">
        <ele>27.4</ele>
        <time>2022-12-07T11:25:01Z</time>
      </trkpt>
      <trkpt lat="47.92566" lon="-3.954">
        <ele>27.7</ele>
        <time>2022-12-07T11:25:02Z</time>
      </trkpt>
      <trkpt lat="47.92561" lon="-3.95393">
        <ele>28.1</ele>
        <time>2022-12-07T11:25:04Z</time>
      </trkpt>
      <trkpt lat="47.92558" lon="-3.95389">
        <ele>28.4</ele>
        <time>2022-12-07T11:25:05Z</time>
      </trkpt>
      <trkpt lat="47.92555" lon="-3.95384">
        <ele>28.7</ele>
        <time>2022-12-07T11:25:06Z</time>
      </trkpt>
      <trkpt lat="47.92549" lon="-3.95376">
        <ele>29.2</ele>
        <time>2022-12-07T11:25:08Z</time>
      </trkpt>
      <trkpt lat="47.92546" lon="-3.95371">
        <ele>29.5</ele>
        <time>2022-12-07T11:25:09Z</time>
      </trkpt>
      <trkpt lat="47.92544" lon="-3.95367">
        <ele>29.8</ele>
        <time>2022-12-07T11:25:10Z</time>
      </trkpt>
      <trkpt lat="47.92542" lon="-3.95362">
        <ele>30.1</ele>
        <time>2022-12-07T11:25:11Z</time>
      </trkpt>
      <trkpt lat="47.9254" lon="-3.95354">
        <ele>30.5</ele>
        <time>2022-12-07T11:25:12Z</time>
      </trkpt>
      <trkpt lat="47.92538" lon="-3.95347">
        <ele>30.9</ele>
        <time>2022-12-07T11:25:14Z</time>
      </trkpt>
      <trkpt lat="47.92536" lon="-3.9534">
        <ele>31.3</ele>
        <time>2022-12-07T11:25:15Z</time>
      </trkpt>
      <trkpt lat="47.92536" lon="-3.95334">
        <ele>31.6</ele>
        <time>2022-12-07T11:25:16Z</time>
      </trkpt>
      <trkpt lat="47.92537" lon="-3.95329">
        <ele>31.8</ele>
        <time>2022-12-07T11:25:17Z</time>
      </trkpt>
      <trkpt lat="47.92539" lon="-3.9532">
        <ele>32.3</ele>
        <time>2022-12-07T11:25:19Z</time>
      </trkpt>
      <trkpt lat="47.9254" lon="-3.95315">
        <ele>32.5</ele>
        <time>2022-12-07T11:25:20Z</time>
      </trkpt>
      <trkpt lat="47.92542" lon="-3.95309">
        <ele>32.8</ele>
        <time>2022-12-07T11:25:21Z</time>
      </trkpt>
      <trkpt lat="47.92545" lon="-3.95305">
        <ele>33.1</ele>
        <time>2022-12-07T11:25:22Z</time>
      </trkpt>
      <trkpt lat="47.92546" lon="-3.95303">
        <ele>33.2</ele>
        <time>2022-12-07T11:25:23Z</time>
      </trkpt>
      <trkpt lat="47.92549" lon="-3.953">
        <ele>33.5</ele>
        <time>2022-12-07T11:25:24Z</time>
      </trkpt>
      <trkpt lat="47.92554" lon="-3.95294">
        <ele>34</ele>
        <time>2022-12-07T11:25:26Z</time>
      </trkpt>
      <trkpt lat="47.92557" lon="-3.95291">
        <ele>34.2</ele>
        <time>2022-12-07T11:25:27Z</time>
      </trkpt>
      <trkpt lat="47.9256" lon="-3.95287">
        <ele>34.5</ele>
        <time>2022-12-07T11:25:28Z</time>
      </trkpt>
      <trkpt lat="47.92563" lon="-3.95282">
        <ele>34.8</ele>
        <time>2022-12-07T11:25:29Z</time>
      </trkpt>
      <trkpt lat="47.92568" lon="-3.95277">
        <ele>35.2</ele>
        <time>2022-12-07T11:25:31Z</time>
      </trkpt>
      <trkpt lat="47.9257" lon="-3.95274">
        <ele>35.4</ele>
        <time>2022-12-07T11:25:32Z</time>
      </trkpt>
      <trkpt lat="47.92572" lon="-3.9527">
        <ele>35.6</ele>
        <time>2022-12-07T11:25:33Z</time>
      </trkpt>
      <trkpt lat="47.92575" lon="-3.95267">
        <ele>35.9</ele>
        <time>2022-12-07T11:25:34Z</time>
      </trkpt>
      <trkpt lat="47.92577" lon="-3.95263">
        <ele>36.1</ele>
        <time>2022-12-07T11:25:35Z</time>
      </trkpt>
      <trkpt lat="47.92578" lon="-3.95259">
        <ele>36.4</ele>
        <time>2022-12-07T11:25:36Z</time>
      </trkpt>
      <trkpt lat="47.92579" lon="-3.95255">
        <ele>36.6</ele>
        <time>2022-12-07T11:25:37Z</time>
      </trkpt>
      <trkpt lat="47.9258" lon="-3.95253">
        <ele>36.8</ele>
        <time>2022-12-07T11:25:38Z</time>
      </trkpt>
      <trkpt lat="47.92581" lon="-3.95252">
        <ele>36.9</ele>
        <time>2022-12-07T11:25:39Z</time>
      </trkpt>
      <trkpt lat="47.92582" lon="-3.95249">
        <ele>37.1</ele>
        <time>2022-12-07T11:25:40Z</time>
      </trkpt>
      <trkpt lat="47.92583" lon="-3.95247">
        <ele>37.2</ele>
        <time>2022-12-07T11:25:41Z</time>
      </trkpt>
      <trkpt lat="47.92583" lon="-3.95239">
        <ele>37.7</ele>
        <time>2022-12-07T11:25:43Z</time>
      </trkpt>
      <trkpt lat="47.92584" lon="-3.95237">
        <ele>37.8</ele>
        <time>2022-12-07T11:25:44Z</time>
      </trkpt>
      <trkpt lat="47.92585" lon="-3.95235">
        <ele>37.9</ele>
        <time>2022-12-07T11:25:45Z</time>
      </trkpt>
      <trkpt lat="47.92587" lon="-3.95228">
        <ele>38.3</ele>
        <time>2022-12-07T11:25:46Z</time>
      </trkpt>
      <trkpt lat="47.92589" lon="-3.95223">
        <ele>38.7</ele>
        <time>2022-12-07T11:25:47Z</time>
      </trkpt>
      <trkpt lat="47.92591" lon="-3.95218">
        <ele>39.1</ele>
        <time>2022-12-07T11:25:48Z</time>
      </trkpt>
      <trkpt lat="47.92593" lon="-3.95214">
        <ele>39.3</ele>
        <time>2022-12-07T11:25:49Z</time>
      </trkpt>
      <trkpt lat="47.92593" lon="-3.95209">
        <ele>39.5</ele>
        <time>2022-12-07T11:25:50Z</time>
      </trkpt>
      <trkpt lat="47.92592" lon="-3.95207">
        <ele>39.4</ele>
        <time>2022-12-07T11:25:51Z</time>
      </trkpt>
      <trkpt lat="47.9259" lon="-3.95207">
        <ele>39.3</ele>
        <time>2022-12-07T11:25:52Z</time>
      </trkpt>
      <trkpt lat="47.9259" lon="-3.95209">
        <ele>39.2</ele>
        <time>2022-12-07T11:25:53Z</time>
      </trkpt>
      <trkpt lat="47.92589" lon="-3.9521">
        <ele>39.1</ele>
        <time>2022-12-07T11:25:54Z</time>
      </trkpt>
      <trkpt lat="47.92588" lon="-3.95211">
        <ele>39</ele>
        <time>2022-12-07T11:25:55Z</time>
      </trkpt>
      <trkpt lat="47.92587" lon="-3.95213">
        <ele>38.8</ele>
        <time>2022-12-07T11:25:56Z</time>
      </trkpt>
      <trkpt lat="47.92585" lon="-3.95217">
        <ele>38.6</ele>
        <time>2022-12-07T11:25:57Z</time>
      </trkpt>
      <trkpt lat="47.92582" lon="-3.9522">
        <ele>38.2</ele>
        <time>2022-12-07T11:25:58Z</time>
      </trkpt>
      <trkpt lat="47.92581" lon="-3.95221">
        <ele>38.1</ele>
        <time>2022-12-07T11:25:59Z</time>
      </trkpt>
      <trkpt lat="47.92578" lon="-3.95223">
        <ele>37.8</ele>
        <time>2022-12-07T11:26:00Z</time>
      </trkpt>
      <trkpt lat="47.92572" lon="-3.95224">
        <ele>37.4</ele>
        <time>2022-12-07T11:26:01Z</time>
      </trkpt>
      <trkpt lat="47.92566" lon="-3.95229">
        <ele>36.8</ele>
        <time>2022-12-07T11:26:03Z</time>
      </trkpt>
      <trkpt lat="47.92562" lon="-3.95235">
        <ele>36.3</ele>
        <time>2022-12-07T11:26:04Z</time>
      </trkpt>
      <trkpt lat="47.92558" lon="-3.9524">
        <ele>35.9</ele>
        <time>2022-12-07T11:26:05Z</time>
      </trkpt>
      <trkpt lat="47.92556" lon="-3.95245">
        <ele>35.6</ele>
        <time>2022-12-07T11:26:06Z</time>
      </trkpt>
      <trkpt lat="47.9255" lon="-3.95252">
        <ele>35.1</ele>
        <time>2022-12-07T11:26:07Z</time>
      </trkpt>
      <trkpt lat="47.92545" lon="-3.95257">
        <ele>34.7</ele>
        <time>2022-12-07T11:26:09Z</time>
      </trkpt>
      <trkpt lat="47.92543" lon="-3.95261">
        <ele>34.5</ele>
        <time>2022-12-07T11:26:10Z</time>
      </trkpt>
      <trkpt lat="47.9254" lon="-3.95266">
        <ele>34.2</ele>
        <time>2022-12-07T11:26:11Z</time>
      </trkpt>
      <trkpt lat="47.92535" lon="-3.95271">
        <ele>33.8</ele>
        <time>2022-12-07T11:26:12Z</time>
      </trkpt>
      <trkpt lat="47.92529" lon="-3.95278">
        <ele>33.2</ele>
        <time>2022-12-07T11:26:13Z</time>
      </trkpt>
      <trkpt lat="47.92525" lon="-3.9528">
        <ele>32.9</ele>
        <time>2022-12-07T11:26:14Z</time>
      </trkpt>
      <trkpt lat="47.92521" lon="-3.95286">
        <ele>32.5</ele>
        <time>2022-12-07T11:26:16Z</time>
      </trkpt>
      <trkpt lat="47.92519" lon="-3.9529">
        <ele>32.2</ele>
        <time>2022-12-07T11:26:17Z</time>
      </trkpt>
      <trkpt lat="47.92515" lon="-3.95291">
        <ele>33.4</ele>
        <time>2022-12-07T11:26:18Z</time>
      </trkpt>
      <trkpt lat="47.92513" lon="-3.95292">
        <ele>33.4</ele>
        <time>2022-12-07T11:26:19Z</time>
      </trkpt>
      <trkpt lat="47.9251" lon="-3.95295">
        <ele>33.5</ele>
        <time>2022-12-07T11:26:20Z</time>
      </trkpt>
      <trkpt lat="47.92505" lon="-3.95301">
        <ele>33.6</ele>
        <time>2022-12-07T11:26:21Z</time>
      </trkpt>
      <trkpt lat="47.92501" lon="-3.95308">
        <ele>34</ele>
        <time>2022-12-07T11:26:23Z</time>
      </trkpt>
      <trkpt lat="47.92499" lon="-3.95314">
        <ele>34.2</ele>
        <time>2022-12-07T11:26:24Z</time>
      </trkpt>
      <trkpt lat="47.92496" lon="-3.95319">
        <ele>34.5</ele>
        <time>2022-12-07T11:26:25Z</time>
      </trkpt>
      <trkpt lat="47.92492" lon="-3.95324">
        <ele>34.8</ele>
        <time>2022-12-07T11:26:26Z</time>
      </trkpt>
      <trkpt lat="47.92489" lon="-3.9533">
        <ele>35.2</ele>
        <time>2022-12-07T11:26:27Z</time>
      </trkpt>
      <trkpt lat="47.92485" lon="-3.95334">
        <ele>35.5</ele>
        <time>2022-12-07T11:26:29Z</time>
      </trkpt>
      <trkpt lat="47.92484" lon="-3.95333">
        <ele>35.6</ele>
        <time>2022-12-07T11:26:30Z</time>
      </trkpt>
      <trkpt lat="47.92483" lon="-3.95333">
        <ele>35.7</ele>
        <time>2022-12-07T11:26:31Z</time>
      </trkpt>
      <trkpt lat="47.92482" lon="-3.95333">
        <ele>35.7</ele>
        <time>2022-12-07T11:26:32Z</time>
      </trkpt>
      <trkpt lat="47.92482" lon="-3.95333">
        <ele>35.8</ele>
        <time>2022-12-07T11:26:33Z</time>
      </trkpt>
      <trkpt lat="47.92481" lon="-3.95332">
        <ele>35.9</ele>
        <time>2022-12-07T11:26:34Z</time>
      </trkpt>
      <trkpt lat="47.92481" lon="-3.9533">
        <ele>35.9</ele>
        <time>2022-12-07T11:26:35Z</time>
      </trkpt>
      <trkpt lat="47.92481" lon="-3.95329">
        <ele>36</ele>
        <time>2022-12-07T11:26:36Z</time>
      </trkpt>
      <trkpt lat="47.92481" lon="-3.95328">
        <ele>36.1</ele>
        <time>2022-12-07T11:26:37Z</time>
      </trkpt>
      <trkpt lat="47.92481" lon="-3.95328">
        <ele>36.1</ele>
        <time>2022-12-07T11:26:38Z</time>
      </trkpt>
      <trkpt lat="47.92481" lon="-3.95328">
        <ele>36.1</ele>
        <time>2022-12-07T11:26:39Z</time>
      </trkpt>
      <trkpt lat="47.92481" lon="-3.95328">
        <ele>36.1</ele>
        <time>2022-12-07T11:26:40Z</time>
      </trkpt>
      <trkpt lat="47.92482" lon="-3.95329">
        <ele>36.2</ele>
        <time>2022-12-07T11:26:41Z</time>
      </trkpt>
      <trkpt lat="47.92482" lon="-3.95329">
        <ele>36.2</ele>
        <time>2022-12-07T11:26:42Z</time>
      </trkpt>
      <trkpt lat="47.92482" lon="-3.95329">
        <ele>36.2</ele>
        <time>2022-12-07T11:26:43Z</time>
      </trkpt>
      <trkpt lat="47.92482" lon="-3.95329">
        <ele>36.2</ele>
        <time>2022-12-07T11:26:44Z</time>
      </trkpt>
      <trkpt lat="47.92481" lon="-3.95329">
        <ele>36.3</ele>
        <time>2022-12-07T11:26:45Z</time>
      </trkpt>
      <trkpt lat="47.92479" lon="-3.95327">
        <ele>36.4</ele>
        <time>2022-12-07T11:26:46Z</time>
      </trkpt>
      <trkpt lat="47.92478" lon="-3.95327">
        <ele>36.5</ele>
        <time>2022-12-07T11:26:47Z</time>
      </trkpt>
      <trkpt lat="47.92475" lon="-3.95324">
        <ele>36.8</ele>
        <time>2022-12-07T11:26:48Z</time>
      </trkpt>
      <trkpt lat="47.92472" lon="-3.95322">
        <ele>37.1</ele>
        <time>2022-12-07T11:26:49Z</time>
      </trkpt>
      <trkpt lat="47.92468" lon="-3.95321">
        <ele>37.5</ele>
        <time>2022-12-07T11:26:50Z</time>
      </trkpt>
      <trkpt lat="47.92465" lon="-3.95321">
        <ele>37.8</ele>
        <time>2022-12-07T11:26:51Z</time>
      </trkpt>
      <trkpt lat="47.92462" lon="-3.95321">
        <ele>38.2</ele>
        <time>2022-12-07T11:26:52Z</time>
      </trkpt>
      <trkpt lat="47.92461" lon="-3.95321">
        <ele>38.3</ele>
        <time>2022-12-07T11:26:53Z</time>
      </trkpt>
      <trkpt lat="47.92458" lon="-3.95321">
        <ele>38.6</ele>
        <time>2022-12-07T11:26:54Z</time>
      </trkpt>
      <trkpt lat="47.92457" lon="-3.95321">
        <ele>38.7</ele>
        <time>2022-12-07T11:26:55Z</time>
      </trkpt>
      <trkpt lat="47.92456" lon="-3.95321">
        <ele>38.9</ele>
        <time>2022-12-07T11:26:56Z</time>
      </trkpt>
      <trkpt lat="47.92454" lon="-3.95323">
        <ele>39.4</ele>
        <time>2022-12-07T11:26:58Z</time>
      </trkpt>
      <trkpt lat="47.92451" lon="-3.95325">
        <ele>39.4</ele>
        <time>2022-12-07T11:26:59Z</time>
      </trkpt>
      <trkpt lat="47.92449" lon="-3.95328">
        <ele>39.5</ele>
        <time>2022-12-07T11:27:00Z</time>
      </trkpt>
      <trkpt lat="47.92449" lon="-3.9533">
        <ele>39.5</ele>
        <time>2022-12-07T11:27:01Z</time>
      </trkpt>
      <trkpt lat="47.92448" lon="-3.95334">
        <ele>39.6</ele>
        <time>2022-12-07T11:27:02Z</time>
      </trkpt>
      <trkpt lat="47.92447" lon="-3.95336">
        <ele>39.6</ele>
        <time>2022-12-07T11:27:03Z</time>
      </trkpt>
      <trkpt lat="47.92446" lon="-3.95338">
        <ele>39.7</ele>
        <time>2022-12-07T11:27:05Z</time>
      </trkpt>
      <trkpt lat="47.92445" lon="-3.95342">
        <ele>39.9</ele>
        <time>2022-12-07T11:27:06Z</time>
      </trkpt>
      <trkpt lat="47.92444" lon="-3.95343">
        <ele>40</ele>
        <time>2022-12-07T11:27:07Z</time>
      </trkpt>
      <trkpt lat="47.92443" lon="-3.95346">
        <ele>40.1</ele>
        <time>2022-12-07T11:27:09Z</time>
      </trkpt>
      <trkpt lat="47.92442" lon="-3.95348">
        <ele>40.2</ele>
        <time>2022-12-07T11:27:10Z</time>
      </trkpt>
      <trkpt lat="47.9244" lon="-3.9535">
        <ele>40.4</ele>
        <time>2022-12-07T11:27:12Z</time>
      </trkpt>
      <trkpt lat="47.92439" lon="-3.95351">
        <ele>40.4</ele>
        <time>2022-12-07T11:27:13Z</time>
      </trkpt>
      <trkpt lat="47.92439" lon="-3.95352">
        <ele>40.5</ele>
        <time>2022-12-07T11:27:14Z</time>
      </trkpt>
      <trkpt lat="47.92439" lon="-3.95353">
        <ele>40.5</ele>
        <time>2022-12-07T11:27:15Z</time>
      </trkpt>
      <trkpt lat="47.9244" lon="-3.95355">
        <ele>40.6</ele>
        <time>2022-12-07T11:27:16Z</time>
      </trkpt>
      <trkpt lat="47.92439" lon="-3.95357">
        <ele>40.7</ele>
        <time>2022-12-07T11:27:17Z</time>
      </trkpt>
      <trkpt lat="47.92439" lon="-3.95359">
        <ele>40.8</ele>
        <time>2022-12-07T11:27:18Z</time>
      </trkpt>
      <trkpt lat="47.92439" lon="-3.95361">
        <ele>40.9</ele>
        <time>2022-12-07T11:27:19Z</time>
      </trkpt>
      <trkpt lat="47.92439" lon="-3.95364">
        <ele>41</ele>
        <time>2022-12-07T11:27:20Z</time>
      </trkpt>
      <trkpt lat="47.92438" lon="-3.95366">
        <ele>41.1</ele>
        <time>2022-12-07T11:27:21Z</time>
      </trkpt>
      <trkpt lat="47.92438" lon="-3.95369">
        <ele>41.2</ele>
        <time>2022-12-07T11:27:22Z</time>
      </trkpt>
      <trkpt lat="47.92438" lon="-3.9537">
        <ele>41.2</ele>
        <time>2022-12-07T11:27:23Z</time>
      </trkpt>
      <trkpt lat="47.92438" lon="-3.95371">
        <ele>41.3</ele>
        <time>2022-12-07T11:27:24Z</time>
      </trkpt>
      <trkpt lat="47.92438" lon="-3.95373">
        <ele>41.3</ele>
        <time>2022-12-07T11:27:25Z</time>
      </trkpt>
      <trkpt lat="47.92437" lon="-3.95374">
        <ele>41.4</ele>
        <time>2022-12-07T11:27:26Z</time>
      </trkpt>
      <trkpt lat="47.92436" lon="-3.95377">
        <ele>41.5</ele>
        <time>2022-12-07T11:27:28Z</time>
      </trkpt>
      <trkpt lat="47.92436" lon="-3.95381">
        <ele>41.7</ele>
        <time>2022-12-07T11:27:29Z</time>
      </trkpt>
      <trkpt lat="47.92435" lon="-3.95382">
        <ele>41.8</ele>
        <time>2022-12-07T11:27:30Z</time>
      </trkpt>
      <trkpt lat="47.92435" lon="-3.95384">
        <ele>41.8</ele>
        <time>2022-12-07T11:27:31Z</time>
      </trkpt>
      <trkpt lat="47.92432" lon="-3.9539">
        <ele>42.1</ele>
        <time>2022-12-07T11:27:34Z</time>
      </trkpt>
      <trkpt lat="47.92432" lon="-3.95391">
        <ele>42.2</ele>
        <time>2022-12-07T11:27:35Z</time>
      </trkpt>
      <trkpt lat="47.92432" lon="-3.95392">
        <ele>42.3</ele>
        <time>2022-12-07T11:27:36Z</time>
      </trkpt>
      <trkpt lat="47.92431" lon="-3.95394">
        <ele>42.3</ele>
        <time>2022-12-07T11:27:37Z</time>
      </trkpt>
      <trkpt lat="47.92431" lon="-3.95396">
        <ele>42.4</ele>
        <time>2022-12-07T11:27:38Z</time>
      </trkpt>
      <trkpt lat="47.92431" lon="-3.95397">
        <ele>42.5</ele>
        <time>2022-12-07T11:27:39Z</time>
      </trkpt>
      <trkpt lat="47.92431" lon="-3.95397">
        <ele>42.5</ele>
        <time>2022-12-07T11:27:40Z</time>
      </trkpt>
      <trkpt lat="47.92431" lon="-3.95398">
        <ele>42.5</ele>
        <time>2022-12-07T11:27:41Z</time>
      </trkpt>
      <trkpt lat="47.92431" lon="-3.95399">
        <ele>42.6</ele>
        <time>2022-12-07T11:27:42Z</time>
      </trkpt>
      <trkpt lat="47.92431" lon="-3.954">
        <ele>42.6</ele>
        <time>2022-12-07T11:27:43Z</time>
      </trkpt>
      <trkpt lat="47.92431" lon="-3.95401">
        <ele>42.7</ele>
        <time>2022-12-07T11:27:44Z</time>
      </trkpt>
      <trkpt lat="47.92431" lon="-3.95402">
        <ele>42.7</ele>
        <time>2022-12-07T11:27:45Z</time>
      </trkpt>
      <trkpt lat="47.9243" lon="-3.95404">
        <ele>42.8</ele>
        <time>2022-12-07T11:27:46Z</time>
      </trkpt>
      <trkpt lat="47.9243" lon="-3.95405">
        <ele>42.9</ele>
        <time>2022-12-07T11:27:47Z</time>
      </trkpt>
      <trkpt lat="47.92429" lon="-3.95408">
        <ele>43</ele>
        <time>2022-12-07T11:27:48Z</time>
      </trkpt>
      <trkpt lat="47.92428" lon="-3.9541">
        <ele>43.2</ele>
        <time>2022-12-07T11:27:49Z</time>
      </trkpt>
      <trkpt lat="47.92428" lon="-3.95411">
        <ele>43.2</ele>
        <time>2022-12-07T11:27:50Z</time>
      </trkpt>
      <trkpt lat="47.92428" lon="-3.95412">
        <ele>43.3</ele>
        <time>2022-12-07T11:27:51Z</time>
      </trkpt>
      <trkpt lat="47.92427" lon="-3.95413">
        <ele>43.3</ele>
        <time>2022-12-07T11:27:52Z</time>
      </trkpt>
      <trkpt lat="47.92427" lon="-3.95416">
        <ele>43.5</ele>
        <time>2022-12-07T11:27:53Z</time>
      </trkpt>
      <trkpt lat="47.92427" lon="-3.95417">
        <ele>43.6</ele>
        <time>2022-12-07T11:27:54Z</time>
      </trkpt>
      <trkpt lat="47.92427" lon="-3.95418">
        <ele>43.6</ele>
        <time>2022-12-07T11:27:55Z</time>
      </trkpt>
      <trkpt lat="47.92427" lon="-3.95421">
        <ele>43.8</ele>
        <time>2022-12-07T11:27:56Z</time>
      </trkpt>
      <trkpt lat="47.92427" lon="-3.95422">
        <ele>43.9</ele>
        <time>2022-12-07T11:27:57Z</time>
      </trkpt>
      <trkpt lat="47.92427" lon="-3.95424">
        <ele>44</ele>
        <time>2022-12-07T11:27:58Z</time>
      </trkpt>
      <trkpt lat="47.92427" lon="-3.95425">
        <ele>44.1</ele>
        <time>2022-12-07T11:27:59Z</time>
      </trkpt>
      <trkpt lat="47.92427" lon="-3.95426">
        <ele>44.2</ele>
        <time>2022-12-07T11:28:00Z</time>
      </trkpt>
      <trkpt lat="47.92427" lon="-3.95426">
        <ele>44.2</ele>
        <time>2022-12-07T11:28:01Z</time>
      </trkpt>
      <trkpt lat="47.92427" lon="-3.95428">
        <ele>44.3</ele>
        <time>2022-12-07T11:28:02Z</time>
      </trkpt>
      <trkpt lat="47.92426" lon="-3.95431">
        <ele>44.6</ele>
        <time>2022-12-07T11:28:04Z</time>
      </trkpt>
      <trkpt lat="47.92425" lon="-3.95431">
        <ele>44.7</ele>
        <time>2022-12-07T11:28:05Z</time>
      </trkpt>
      <trkpt lat="47.92425" lon="-3.95432">
        <ele>44.8</ele>
        <time>2022-12-07T11:28:06Z</time>
      </trkpt>
      <trkpt lat="47.92424" lon="-3.95434">
        <ele>44.9</ele>
        <time>2022-12-07T11:28:07Z</time>
      </trkpt>
      <trkpt lat="47.92423" lon="-3.95437">
        <ele>45.2</ele>
        <time>2022-12-07T11:28:09Z</time>
      </trkpt>
      <trkpt lat="47.92422" lon="-3.95438">
        <ele>45.4</ele>
        <time>2022-12-07T11:28:10Z</time>
      </trkpt>
      <trkpt lat="47.92422" lon="-3.9544">
        <ele>45.5</ele>
        <time>2022-12-07T11:28:11Z</time>
      </trkpt>
      <trkpt lat="47.92421" lon="-3.95441">
        <ele>45.6</ele>
        <time>2022-12-07T11:28:12Z</time>
      </trkpt>
      <trkpt lat="47.9242" lon="-3.95443">
        <ele>45.9</ele>
        <time>2022-12-07T11:28:14Z</time>
      </trkpt>
      <trkpt lat="47.9242" lon="-3.95444">
        <ele>46</ele>
        <time>2022-12-07T11:28:15Z</time>
      </trkpt>
      <trkpt lat="47.92419" lon="-3.95446">
        <ele>46.1</ele>
        <time>2022-12-07T11:28:16Z</time>
      </trkpt>
      <trkpt lat="47.92419" lon="-3.95447">
        <ele>46.3</ele>
        <time>2022-12-07T11:28:17Z</time>
      </trkpt>
      <trkpt lat="47.92419" lon="-3.95448">
        <ele>46.3</ele>
        <time>2022-12-07T11:28:19Z</time>
      </trkpt>
      <trkpt lat="47.92419" lon="-3.95449">
        <ele>46.4</ele>
        <time>2022-12-07T11:28:20Z</time>
      </trkpt>
      <trkpt lat="47.92418" lon="-3.95451">
        <ele>46.6</ele>
        <time>2022-12-07T11:28:21Z</time>
      </trkpt>
      <trkpt lat="47.92418" lon="-3.95453">
        <ele>46.8</ele>
        <time>2022-12-07T11:28:22Z</time>
      </trkpt>
      <trkpt lat="47.92417" lon="-3.95455">
        <ele>47</ele>
        <time>2022-12-07T11:28:24Z</time>
      </trkpt>
      <trkpt lat="47.92417" lon="-3.95457">
        <ele>47.2</ele>
        <time>2022-12-07T11:28:25Z</time>
      </trkpt>
      <trkpt lat="47.92417" lon="-3.95459">
        <ele>47.3</ele>
        <time>2022-12-07T11:28:26Z</time>
      </trkpt>
      <trkpt lat="47.92416" lon="-3.9546">
        <ele>47.4</ele>
        <time>2022-12-07T11:28:27Z</time>
      </trkpt>
      <trkpt lat="47.92416" lon="-3.95462">
        <ele>47.6</ele>
        <time>2022-12-07T11:28:28Z</time>
      </trkpt>
      <trkpt lat="47.92416" lon="-3.95463">
        <ele>47.7</ele>
        <time>2022-12-07T11:28:29Z</time>
      </trkpt>
      <trkpt lat="47.92416" lon="-3.95464">
        <ele>47.8</ele>
        <time>2022-12-07T11:28:30Z</time>
      </trkpt>
      <trkpt lat="47.92415" lon="-3.95465">
        <ele>47.9</ele>
        <time>2022-12-07T11:28:31Z</time>
      </trkpt>
      <trkpt lat="47.92415" lon="-3.95466">
        <ele>48</ele>
        <time>2022-12-07T11:28:32Z</time>
      </trkpt>
      <trkpt lat="47.92414" lon="-3.95467">
        <ele>48.2</ele>
        <time>2022-12-07T11:28:33Z</time>
      </trkpt>
      <trkpt lat="47.92414" lon="-3.95468">
        <ele>48.2</ele>
        <time>2022-12-07T11:28:34Z</time>
      </trkpt>
      <trkpt lat="47.92413" lon="-3.95469">
        <ele>48.3</ele>
        <time>2022-12-07T11:28:35Z</time>
      </trkpt>
      <trkpt lat="47.92412" lon="-3.95469">
        <ele>48.4</ele>
        <time>2022-12-07T11:28:36Z</time>
      </trkpt>
      <trkpt lat="47.92412" lon="-3.9547">
        <ele>48.5</ele>
        <time>2022-12-07T11:28:37Z</time>
      </trkpt>
      <trkpt lat="47.92411" lon="-3.95472">
        <ele>48.7</ele>
        <time>2022-12-07T11:28:38Z</time>
      </trkpt>
      <trkpt lat="47.9241" lon="-3.95473">
        <ele>48.8</ele>
        <time>2022-12-07T11:28:40Z</time>
      </trkpt>
      <trkpt lat="47.9241" lon="-3.95475">
        <ele>48.9</ele>
        <time>2022-12-07T11:28:41Z</time>
      </trkpt>
      <trkpt lat="47.92409" lon="-3.9548">
        <ele>49.3</ele>
        <time>2022-12-07T11:28:44Z</time>
      </trkpt>
      <trkpt lat="47.92408" lon="-3.95482">
        <ele>49.4</ele>
        <time>2022-12-07T11:28:45Z</time>
      </trkpt>
      <trkpt lat="47.92407" lon="-3.95484">
        <ele>49.6</ele>
        <time>2022-12-07T11:28:47Z</time>
      </trkpt>
      <trkpt lat="47.92406" lon="-3.95488">
        <ele>49.9</ele>
        <time>2022-12-07T11:28:49Z</time>
      </trkpt>
      <trkpt lat="47.92406" lon="-3.9549">
        <ele>50</ele>
        <time>2022-12-07T11:28:50Z</time>
      </trkpt>
      <trkpt lat="47.92405" lon="-3.95494">
        <ele>50.3</ele>
        <time>2022-12-07T11:28:52Z</time>
      </trkpt>
      <trkpt lat="47.92403" lon="-3.95495">
        <ele>50.5</ele>
        <time>2022-12-07T11:28:53Z</time>
      </trkpt>
      <trkpt lat="47.92402" lon="-3.95496">
        <ele>50.6</ele>
        <time>2022-12-07T11:28:54Z</time>
      </trkpt>
      <trkpt lat="47.92402" lon="-3.95499">
        <ele>50.8</ele>
        <time>2022-12-07T11:28:56Z</time>
      </trkpt>
      <trkpt lat="47.92401" lon="-3.955">
        <ele>50.9</ele>
        <time>2022-12-07T11:28:57Z</time>
      </trkpt>
      <trkpt lat="47.92401" lon="-3.95502">
        <ele>51.1</ele>
        <time>2022-12-07T11:28:58Z</time>
      </trkpt>
      <trkpt lat="47.924" lon="-3.95504">
        <ele>51.2</ele>
        <time>2022-12-07T11:28:59Z</time>
      </trkpt>
      <trkpt lat="47.924" lon="-3.95506">
        <ele>51.4</ele>
        <time>2022-12-07T11:29:00Z</time>
      </trkpt>
      <trkpt lat="47.924" lon="-3.95509">
        <ele>51.6</ele>
        <time>2022-12-07T11:29:01Z</time>
      </trkpt>
      <trkpt lat="47.92399" lon="-3.9551">
        <ele>51.7</ele>
        <time>2022-12-07T11:29:02Z</time>
      </trkpt>
      <trkpt lat="47.92399" lon="-3.95511">
        <ele>51.8</ele>
        <time>2022-12-07T11:29:03Z</time>
      </trkpt>
      <trkpt lat="47.92398" lon="-3.95512">
        <ele>51.8</ele>
        <time>2022-12-07T11:29:04Z</time>
      </trkpt>
      <trkpt lat="47.92398" lon="-3.95513">
        <ele>51.9</ele>
        <time>2022-12-07T11:29:05Z</time>
      </trkpt>
      <trkpt lat="47.92397" lon="-3.95514">
        <ele>52</ele>
        <time>2022-12-07T11:29:06Z</time>
      </trkpt>
      <trkpt lat="47.92397" lon="-3.95517">
        <ele>52.2</ele>
        <time>2022-12-07T11:29:07Z</time>
      </trkpt>
      <trkpt lat="47.92396" lon="-3.95518">
        <ele>52.3</ele>
        <time>2022-12-07T11:29:09Z</time>
      </trkpt>
      <trkpt lat="47.92396" lon="-3.95519">
        <ele>52.4</ele>
        <time>2022-12-07T11:29:10Z</time>
      </trkpt>
      <trkpt lat="47.92394" lon="-3.95521">
        <ele>52.6</ele>
        <time>2022-12-07T11:29:12Z</time>
      </trkpt>
      <trkpt lat="47.92394" lon="-3.95522">
        <ele>52.7</ele>
        <time>2022-12-07T11:29:13Z</time>
      </trkpt>
      <trkpt lat="47.92393" lon="-3.95523">
        <ele>52.8</ele>
        <time>2022-12-07T11:29:14Z</time>
      </trkpt>
      <trkpt lat="47.92392" lon="-3.95526">
        <ele>53</ele>
        <time>2022-12-07T11:29:15Z</time>
      </trkpt>
      <trkpt lat="47.92392" lon="-3.95528">
        <ele>53.2</ele>
        <time>2022-12-07T11:29:17Z</time>
      </trkpt>
      <trkpt lat="47.92392" lon="-3.95529">
        <ele>53.2</ele>
        <time>2022-12-07T11:29:18Z</time>
      </trkpt>
      <trkpt lat="47.92391" lon="-3.95529">
        <ele>53.3</ele>
        <time>2022-12-07T11:29:19Z</time>
      </trkpt>
      <trkpt lat="47.92391" lon="-3.9553">
        <ele>53.3</ele>
        <time>2022-12-07T11:29:20Z</time>
      </trkpt>
      <trkpt lat="47.92389" lon="-3.9553">
        <ele>53.5</ele>
        <time>2022-12-07T11:29:21Z</time>
      </trkpt>
      <trkpt lat="47.92389" lon="-3.95531">
        <ele>53.5</ele>
        <time>2022-12-07T11:29:22Z</time>
      </trkpt>
      <trkpt lat="47.92389" lon="-3.95532">
        <ele>53.6</ele>
        <time>2022-12-07T11:29:24Z</time>
      </trkpt>
      <trkpt lat="47.92388" lon="-3.95533">
        <ele>53.7</ele>
        <time>2022-12-07T11:29:25Z</time>
      </trkpt>
      <trkpt lat="47.92387" lon="-3.95535">
        <ele>53.8</ele>
        <time>2022-12-07T11:29:26Z</time>
      </trkpt>
      <trkpt lat="47.92387" lon="-3.95535">
        <ele>53.8</ele>
        <time>2022-12-07T11:29:27Z</time>
      </trkpt>
      <trkpt lat="47.92387" lon="-3.95536">
        <ele>53.9</ele>
        <time>2022-12-07T11:29:28Z</time>
      </trkpt>
      <trkpt lat="47.92386" lon="-3.95537">
        <ele>54</ele>
        <time>2022-12-07T11:29:29Z</time>
      </trkpt>
      <trkpt lat="47.92386" lon="-3.95538">
        <ele>54</ele>
        <time>2022-12-07T11:29:30Z</time>
      </trkpt>
      <trkpt lat="47.92385" lon="-3.95539">
        <ele>54.1</ele>
        <time>2022-12-07T11:29:31Z</time>
      </trkpt>
      <trkpt lat="47.92385" lon="-3.9554">
        <ele>54.1</ele>
        <time>2022-12-07T11:29:32Z</time>
      </trkpt>
      <trkpt lat="47.92384" lon="-3.95541">
        <ele>54.2</ele>
        <time>2022-12-07T11:29:33Z</time>
      </trkpt>
      <trkpt lat="47.92384" lon="-3.95542">
        <ele>54.2</ele>
        <time>2022-12-07T11:29:34Z</time>
      </trkpt>
      <trkpt lat="47.92383" lon="-3.95543">
        <ele>54.3</ele>
        <time>2022-12-07T11:29:35Z</time>
      </trkpt>
      <trkpt lat="47.92382" lon="-3.95545">
        <ele>54.4</ele>
        <time>2022-12-07T11:29:36Z</time>
      </trkpt>
      <trkpt lat="47.92382" lon="-3.95546">
        <ele>54.4</ele>
        <time>2022-12-07T11:29:37Z</time>
      </trkpt>
      <trkpt lat="47.92381" lon="-3.95547">
        <ele>55.7</ele>
        <time>2022-12-07T11:29:38Z</time>
      </trkpt>
      <trkpt lat="47.92381" lon="-3.95548">
        <ele>55.8</ele>
        <time>2022-12-07T11:29:39Z</time>
      </trkpt>
      <trkpt lat="47.9238" lon="-3.95549">
        <ele>55.9</ele>
        <time>2022-12-07T11:29:40Z</time>
      </trkpt>
      <trkpt lat="47.9238" lon="-3.95551">
        <ele>56.1</ele>
        <time>2022-12-07T11:29:41Z</time>
      </trkpt>
      <trkpt lat="47.92379" lon="-3.95552">
        <ele>56.2</ele>
        <time>2022-12-07T11:29:43Z</time>
      </trkpt>
      <trkpt lat="47.92378" lon="-3.95552">
        <ele>56.3</ele>
        <time>2022-12-07T11:29:44Z</time>
      </trkpt>
      <trkpt lat="47.92376" lon="-3.95553">
        <ele>56.5</ele>
        <time>2022-12-07T11:29:46Z</time>
      </trkpt>
      <trkpt lat="47.92375" lon="-3.95554">
        <ele>56.7</ele>
        <time>2022-12-07T11:29:48Z</time>
      </trkpt>
      <trkpt lat="47.92374" lon="-3.95555">
        <ele>56.8</ele>
        <time>2022-12-07T11:29:49Z</time>
      </trkpt>
      <trkpt lat="47.92373" lon="-3.95556">
        <ele>56.9</ele>
        <time>2022-12-07T11:29:50Z</time>
      </trkpt>
      <trkpt lat="47.92372" lon="-3.95558">
        <ele>57.1</ele>
        <time>2022-12-07T11:29:52Z</time>
      </trkpt>
      <trkpt lat="47.92371" lon="-3.95558">
        <ele>57.2</ele>
        <time>2022-12-07T11:29:53Z</time>
      </trkpt>
      <trkpt lat="47.92371" lon="-3.95559">
        <ele>57.3</ele>
        <time>2022-12-07T11:29:54Z</time>
      </trkpt>
      <trkpt lat="47.92371" lon="-3.9556">
        <ele>57.3</ele>
        <time>2022-12-07T11:29:55Z</time>
      </trkpt>
      <trkpt lat="47.92369" lon="-3.95561">
        <ele>58.6</ele>
        <time>2022-12-07T11:29:57Z</time>
      </trkpt>
      <trkpt lat="47.92368" lon="-3.9556">
        <ele>58.7</ele>
        <time>2022-12-07T11:29:58Z</time>
      </trkpt>
      <trkpt lat="47.92366" lon="-3.95559">
        <ele>58.8</ele>
        <time>2022-12-07T11:29:59Z</time>
      </trkpt>
      <trkpt lat="47.92366" lon="-3.95558">
        <ele>58.9</ele>
        <time>2022-12-07T11:30:00Z</time>
      </trkpt>
      <trkpt lat="47.92366" lon="-3.95556">
        <ele>59</ele>
        <time>2022-12-07T11:30:02Z</time>
      </trkpt>
      <trkpt lat="47.92366" lon="-3.95556">
        <ele>59.1</ele>
        <time>2022-12-07T11:30:03Z</time>
      </trkpt>
      <trkpt lat="47.92366" lon="-3.95555">
        <ele>59.1</ele>
        <time>2022-12-07T11:30:04Z</time>
      </trkpt>
      <trkpt lat="47.92366" lon="-3.95554">
        <ele>59.2</ele>
        <time>2022-12-07T11:30:05Z</time>
      </trkpt>
      <trkpt lat="47.92365" lon="-3.95548">
        <ele>59.5</ele>
        <time>2022-12-07T11:30:07Z</time>
      </trkpt>
      <trkpt lat="47.92364" lon="-3.95546">
        <ele>59.6</ele>
        <time>2022-12-07T11:30:08Z</time>
      </trkpt>
      <trkpt lat="47.92362" lon="-3.95544">
        <ele>59.8</ele>
        <time>2022-12-07T11:30:09Z</time>
      </trkpt>
      <trkpt lat="47.92359" lon="-3.95541">
        <ele>60.2</ele>
        <time>2022-12-07T11:30:10Z</time>
      </trkpt>
      <trkpt lat="47.92358" lon="-3.95539">
        <ele>60.3</ele>
        <time>2022-12-07T11:30:11Z</time>
      </trkpt>
      <trkpt lat="47.92355" lon="-3.95537">
        <ele>60.6</ele>
        <time>2022-12-07T11:30:13Z</time>
      </trkpt>
      <trkpt lat="47.92353" lon="-3.95537">
        <ele>60.8</ele>
        <time>2022-12-07T11:30:14Z</time>
      </trkpt>
      <trkpt lat="47.92351" lon="-3.95536">
        <ele>60.9</ele>
        <time>2022-12-07T11:30:15Z</time>
      </trkpt>
      <trkpt lat="47.9235" lon="-3.95535">
        <ele>61.1</ele>
        <time>2022-12-07T11:30:16Z</time>
      </trkpt>
      <trkpt lat="47.92348" lon="-3.95534">
        <ele>61.3</ele>
        <time>2022-12-07T11:30:17Z</time>
      </trkpt>
      <trkpt lat="47.92347" lon="-3.95533">
        <ele>61.4</ele>
        <time>2022-12-07T11:30:18Z</time>
      </trkpt>
      <trkpt lat="47.92346" lon="-3.95533">
        <ele>61.5</ele>
        <time>2022-12-07T11:30:19Z</time>
      </trkpt>
      <trkpt lat="47.92343" lon="-3.95531">
        <ele>61.8</ele>
        <time>2022-12-07T11:30:20Z</time>
      </trkpt>
      <trkpt lat="47.92342" lon="-3.9553">
        <ele>61.9</ele>
        <time>2022-12-07T11:30:21Z</time>
      </trkpt>
      <trkpt lat="47.92341" lon="-3.95529">
        <ele>61.9</ele>
        <time>2022-12-07T11:30:22Z</time>
      </trkpt>
      <trkpt lat="47.9234" lon="-3.95528">
        <ele>62.1</ele>
        <time>2022-12-07T11:30:23Z</time>
      </trkpt>
      <trkpt lat="47.92336" lon="-3.95526">
        <ele>62.4</ele>
        <time>2022-12-07T11:30:24Z</time>
      </trkpt>
      <trkpt lat="47.92335" lon="-3.95526">
        <ele>62.5</ele>
        <time>2022-12-07T11:30:25Z</time>
      </trkpt>
      <trkpt lat="47.92332" lon="-3.95525">
        <ele>62.8</ele>
        <time>2022-12-07T11:30:26Z</time>
      </trkpt>
      <trkpt lat="47.92329" lon="-3.95524">
        <ele>63</ele>
        <time>2022-12-07T11:30:27Z</time>
      </trkpt>
      <trkpt lat="47.92327" lon="-3.95522">
        <ele>63.3</ele>
        <time>2022-12-07T11:30:28Z</time>
      </trkpt>
      <trkpt lat="47.92326" lon="-3.95521">
        <ele>63.3</ele>
        <time>2022-12-07T11:30:29Z</time>
      </trkpt>
      <trkpt lat="47.92323" lon="-3.9552">
        <ele>63.6</ele>
        <time>2022-12-07T11:30:30Z</time>
      </trkpt>
      <trkpt lat="47.92322" lon="-3.95519">
        <ele>63.7</ele>
        <time>2022-12-07T11:30:31Z</time>
      </trkpt>
      <trkpt lat="47.92318" lon="-3.95517">
        <ele>64.1</ele>
        <time>2022-12-07T11:30:33Z</time>
      </trkpt>
      <trkpt lat="47.92315" lon="-3.95515">
        <ele>64.4</ele>
        <time>2022-12-07T11:30:34Z</time>
      </trkpt>
      <trkpt lat="47.92314" lon="-3.95515">
        <ele>64.5</ele>
        <time>2022-12-07T11:30:35Z</time>
      </trkpt>
      <trkpt lat="47.92312" lon="-3.95513">
        <ele>64.7</ele>
        <time>2022-12-07T11:30:36Z</time>
      </trkpt>
      <trkpt lat="47.92309" lon="-3.95511">
        <ele>64.9</ele>
        <time>2022-12-07T11:30:38Z</time>
      </trkpt>
      <trkpt lat="47.92306" lon="-3.95509">
        <ele>65.2</ele>
        <time>2022-12-07T11:30:39Z</time>
      </trkpt>
      <trkpt lat="47.92304" lon="-3.95508">
        <ele>65.4</ele>
        <time>2022-12-07T11:30:40Z</time>
      </trkpt>
      <trkpt lat="47.92301" lon="-3.95506">
        <ele>65.7</ele>
        <time>2022-12-07T11:30:42Z</time>
      </trkpt>
      <trkpt lat="47.92298" lon="-3.95503">
        <ele>66</ele>
        <time>2022-12-07T11:30:43Z</time>
      </trkpt>
      <trkpt lat="47.92297" lon="-3.95502">
        <ele>66.1</ele>
        <time>2022-12-07T11:30:44Z</time>
      </trkpt>
      <trkpt lat="47.92294" lon="-3.955">
        <ele>66.4</ele>
        <time>2022-12-07T11:30:45Z</time>
      </trkpt>
      <trkpt lat="47.92293" lon="-3.955">
        <ele>66.5</ele>
        <time>2022-12-07T11:30:46Z</time>
      </trkpt>
      <trkpt lat="47.92291" lon="-3.95497">
        <ele>66.7</ele>
        <time>2022-12-07T11:30:47Z</time>
      </trkpt>
      <trkpt lat="47.9229" lon="-3.95496">
        <ele>66.8</ele>
        <time>2022-12-07T11:30:48Z</time>
      </trkpt>
      <trkpt lat="47.92287" lon="-3.95494">
        <ele>67</ele>
        <time>2022-12-07T11:30:49Z</time>
      </trkpt>
      <trkpt lat="47.92286" lon="-3.95493">
        <ele>67.2</ele>
        <time>2022-12-07T11:30:51Z</time>
      </trkpt>
      <trkpt lat="47.92283" lon="-3.9549">
        <ele>67.4</ele>
        <time>2022-12-07T11:30:52Z</time>
      </trkpt>
      <trkpt lat="47.9228" lon="-3.95488">
        <ele>67.6</ele>
        <time>2022-12-07T11:30:53Z</time>
      </trkpt>
      <trkpt lat="47.92279" lon="-3.95488">
        <ele>67.9</ele>
        <time>2022-12-07T11:30:54Z</time>
      </trkpt>
      <trkpt lat="47.92278" lon="-3.9549">
        <ele>68</ele>
        <time>2022-12-07T11:30:55Z</time>
      </trkpt>
      <trkpt lat="47.92278" lon="-3.95493">
        <ele>68</ele>
        <time>2022-12-07T11:30:57Z</time>
      </trkpt>
      <trkpt lat="47.9228" lon="-3.95491">
        <ele>68.1</ele>
        <time>2022-12-07T11:30:58Z</time>
      </trkpt>
      <trkpt lat="47.92281" lon="-3.95489">
        <ele>68.2</ele>
        <time>2022-12-07T11:30:59Z</time>
      </trkpt>
      <trkpt lat="47.92281" lon="-3.95484">
        <ele>68.3</ele>
        <time>2022-12-07T11:31:01Z</time>
      </trkpt>
      <trkpt lat="47.9228" lon="-3.95479">
        <ele>68.4</ele>
        <time>2022-12-07T11:31:02Z</time>
      </trkpt>
      <trkpt lat="47.92279" lon="-3.95474">
        <ele>68.4</ele>
        <time>2022-12-07T11:31:03Z</time>
      </trkpt>
      <trkpt lat="47.92279" lon="-3.95472">
        <ele>68.5</ele>
        <time>2022-12-07T11:31:04Z</time>
      </trkpt>
      <trkpt lat="47.92278" lon="-3.95466">
        <ele>68.6</ele>
        <time>2022-12-07T11:31:06Z</time>
      </trkpt>
      <trkpt lat="47.92278" lon="-3.95464">
        <ele>68.6</ele>
        <time>2022-12-07T11:31:07Z</time>
      </trkpt>
      <trkpt lat="47.92278" lon="-3.95459">
        <ele>68.7</ele>
        <time>2022-12-07T11:31:08Z</time>
      </trkpt>
      <trkpt lat="47.92277" lon="-3.95454">
        <ele>68.7</ele>
        <time>2022-12-07T11:31:09Z</time>
      </trkpt>
      <trkpt lat="47.92277" lon="-3.95453">
        <ele>68.7</ele>
        <time>2022-12-07T11:31:10Z</time>
      </trkpt>
      <trkpt lat="47.92276" lon="-3.95448">
        <ele>68.8</ele>
        <time>2022-12-07T11:31:11Z</time>
      </trkpt>
      <trkpt lat="47.92276" lon="-3.95446">
        <ele>68.8</ele>
        <time>2022-12-07T11:31:12Z</time>
      </trkpt>
      <trkpt lat="47.92275" lon="-3.95441">
        <ele>68.8</ele>
        <time>2022-12-07T11:31:13Z</time>
      </trkpt>
      <trkpt lat="47.92275" lon="-3.95439">
        <ele>68.8</ele>
        <time>2022-12-07T11:31:14Z</time>
      </trkpt>
      <trkpt lat="47.92275" lon="-3.95435">
        <ele>68.7</ele>
        <time>2022-12-07T11:31:15Z</time>
      </trkpt>
      <trkpt lat="47.92275" lon="-3.95434">
        <ele>68.7</ele>
        <time>2022-12-07T11:31:16Z</time>
      </trkpt>
      <trkpt lat="47.92274" lon="-3.95429">
        <ele>68.7</ele>
        <time>2022-12-07T11:31:17Z</time>
      </trkpt>
      <trkpt lat="47.92274" lon="-3.95424">
        <ele>68.6</ele>
        <time>2022-12-07T11:31:18Z</time>
      </trkpt>
      <trkpt lat="47.92274" lon="-3.95419">
        <ele>68.6</ele>
        <time>2022-12-07T11:31:20Z</time>
      </trkpt>
      <trkpt lat="47.92273" lon="-3.95414">
        <ele>68.5</ele>
        <time>2022-12-07T11:31:21Z</time>
      </trkpt>
      <trkpt lat="47.92273" lon="-3.95408">
        <ele>68.4</ele>
        <time>2022-12-07T11:31:22Z</time>
      </trkpt>
      <trkpt lat="47.92272" lon="-3.954">
        <ele>68.3</ele>
        <time>2022-12-07T11:31:24Z</time>
      </trkpt>
      <trkpt lat="47.92272" lon="-3.95395">
        <ele>68.1</ele>
        <time>2022-12-07T11:31:25Z</time>
      </trkpt>
      <trkpt lat="47.92272" lon="-3.9539">
        <ele>68</ele>
        <time>2022-12-07T11:31:26Z</time>
      </trkpt>
      <trkpt lat="47.92272" lon="-3.95379">
        <ele>67.7</ele>
        <time>2022-12-07T11:31:28Z</time>
      </trkpt>
      <trkpt lat="47.92273" lon="-3.95374">
        <ele>67.5</ele>
        <time>2022-12-07T11:31:29Z</time>
      </trkpt>
      <trkpt lat="47.92272" lon="-3.95368">
        <ele>67.4</ele>
        <time>2022-12-07T11:31:30Z</time>
      </trkpt>
      <trkpt lat="47.92272" lon="-3.95362">
        <ele>67.2</ele>
        <time>2022-12-07T11:31:31Z</time>
      </trkpt>
      <trkpt lat="47.92272" lon="-3.95356">
        <ele>67.1</ele>
        <time>2022-12-07T11:31:32Z</time>
      </trkpt>
      <trkpt lat="47.92272" lon="-3.9535">
        <ele>66.9</ele>
        <time>2022-12-07T11:31:33Z</time>
      </trkpt>
      <trkpt lat="47.9227" lon="-3.95343">
        <ele>66.7</ele>
        <time>2022-12-07T11:31:34Z</time>
      </trkpt>
      <trkpt lat="47.92266" lon="-3.95339">
        <ele>66.6</ele>
        <time>2022-12-07T11:31:35Z</time>
      </trkpt>
      <trkpt lat="47.9226" lon="-3.95334">
        <ele>66.4</ele>
        <time>2022-12-07T11:31:37Z</time>
      </trkpt>
      <trkpt lat="47.92257" lon="-3.95333">
        <ele>66.3</ele>
        <time>2022-12-07T11:31:38Z</time>
      </trkpt>
      <trkpt lat="47.92252" lon="-3.95332">
        <ele>66.1</ele>
        <time>2022-12-07T11:31:39Z</time>
      </trkpt>
      <trkpt lat="47.92246" lon="-3.95332">
        <ele>65.9</ele>
        <time>2022-12-07T11:31:40Z</time>
      </trkpt>
      <trkpt lat="47.92241" lon="-3.95332">
        <ele>65.7</ele>
        <time>2022-12-07T11:31:41Z</time>
      </trkpt>
      <trkpt lat="47.92237" lon="-3.95332">
        <ele>65.5</ele>
        <time>2022-12-07T11:31:42Z</time>
      </trkpt>
      <trkpt lat="47.92233" lon="-3.95332">
        <ele>65.3</ele>
        <time>2022-12-07T11:31:43Z</time>
      </trkpt>
      <trkpt lat="47.9223" lon="-3.95331">
        <ele>65.1</ele>
        <time>2022-12-07T11:31:44Z</time>
      </trkpt>
      <trkpt lat="47.92223" lon="-3.95329">
        <ele>64.8</ele>
        <time>2022-12-07T11:31:45Z</time>
      </trkpt>
      <trkpt lat="47.92218" lon="-3.95328">
        <ele>64.6</ele>
        <time>2022-12-07T11:31:46Z</time>
      </trkpt>
      <trkpt lat="47.92213" lon="-3.95326">
        <ele>64.3</ele>
        <time>2022-12-07T11:31:47Z</time>
      </trkpt>
      <trkpt lat="47.92208" lon="-3.95324">
        <ele>64</ele>
        <time>2022-12-07T11:31:48Z</time>
      </trkpt>
      <trkpt lat="47.92203" lon="-3.95323">
        <ele>63.7</ele>
        <time>2022-12-07T11:31:49Z</time>
      </trkpt>
      <trkpt lat="47.92197" lon="-3.95321">
        <ele>63.4</ele>
        <time>2022-12-07T11:31:50Z</time>
      </trkpt>
      <trkpt lat="47.92191" lon="-3.95319">
        <ele>63.1</ele>
        <time>2022-12-07T11:31:51Z</time>
      </trkpt>
      <trkpt lat="47.92185" lon="-3.95317">
        <ele>62.9</ele>
        <time>2022-12-07T11:31:52Z</time>
      </trkpt>
      <trkpt lat="47.92179" lon="-3.95315">
        <ele>62.8</ele>
        <time>2022-12-07T11:31:53Z</time>
      </trkpt>
      <trkpt lat="47.92174" lon="-3.95315">
        <ele>62.9</ele>
        <time>2022-12-07T11:31:54Z</time>
      </trkpt>
      <trkpt lat="47.92169" lon="-3.95314">
        <ele>63</ele>
        <time>2022-12-07T11:31:55Z</time>
      </trkpt>
      <trkpt lat="47.92165" lon="-3.95313">
        <ele>63.3</ele>
        <time>2022-12-07T11:31:56Z</time>
      </trkpt>
      <trkpt lat="47.92161" lon="-3.95312">
        <ele>63.5</ele>
        <time>2022-12-07T11:31:57Z</time>
      </trkpt>
      <trkpt lat="47.92159" lon="-3.95312">
        <ele>63.7</ele>
        <time>2022-12-07T11:31:58Z</time>
      </trkpt>
      <trkpt lat="47.92158" lon="-3.95311">
        <ele>63.8</ele>
        <time>2022-12-07T11:31:59Z</time>
      </trkpt>
      <trkpt lat="47.92154" lon="-3.95311">
        <ele>64</ele>
        <time>2022-12-07T11:32:00Z</time>
      </trkpt>
      <trkpt lat="47.92151" lon="-3.9531">
        <ele>64.2</ele>
        <time>2022-12-07T11:32:01Z</time>
      </trkpt>
      <trkpt lat="47.92148" lon="-3.9531">
        <ele>64.5</ele>
        <time>2022-12-07T11:32:02Z</time>
      </trkpt>
      <trkpt lat="47.92144" lon="-3.9531">
        <ele>64.7</ele>
        <time>2022-12-07T11:32:03Z</time>
      </trkpt>
      <trkpt lat="47.92142" lon="-3.9531">
        <ele>64.8</ele>
        <time>2022-12-07T11:32:04Z</time>
      </trkpt>
      <trkpt lat="47.92138" lon="-3.95308">
        <ele>65.1</ele>
        <time>2022-12-07T11:32:06Z</time>
      </trkpt>
      <trkpt lat="47.92134" lon="-3.95308">
        <ele>65.3</ele>
        <time>2022-12-07T11:32:07Z</time>
      </trkpt>
      <trkpt lat="47.92131" lon="-3.95307">
        <ele>65.4</ele>
        <time>2022-12-07T11:32:08Z</time>
      </trkpt>
      <trkpt lat="47.92129" lon="-3.95306">
        <ele>65.5</ele>
        <time>2022-12-07T11:32:09Z</time>
      </trkpt>
      <trkpt lat="47.92125" lon="-3.95305">
        <ele>65.7</ele>
        <time>2022-12-07T11:32:10Z</time>
      </trkpt>
      <trkpt lat="47.92123" lon="-3.95304">
        <ele>65.7</ele>
        <time>2022-12-07T11:32:11Z</time>
      </trkpt>
      <trkpt lat="47.92119" lon="-3.95303">
        <ele>65.8</ele>
        <time>2022-12-07T11:32:13Z</time>
      </trkpt>
      <trkpt lat="47.92115" lon="-3.95302">
        <ele>66</ele>
        <time>2022-12-07T11:32:14Z</time>
      </trkpt>
      <trkpt lat="47.92112" lon="-3.953">
        <ele>66.1</ele>
        <time>2022-12-07T11:32:15Z</time>
      </trkpt>
      <trkpt lat="47.92107" lon="-3.953">
        <ele>66.2</ele>
        <time>2022-12-07T11:32:16Z</time>
      </trkpt>
      <trkpt lat="47.92101" lon="-3.95302">
        <ele>66.3</ele>
        <time>2022-12-07T11:32:18Z</time>
      </trkpt>
      <trkpt lat="47.92099" lon="-3.95304">
        <ele>66.4</ele>
        <time>2022-12-07T11:32:19Z</time>
      </trkpt>
      <trkpt lat="47.92097" lon="-3.95309">
        <ele>66.4</ele>
        <time>2022-12-07T11:32:20Z</time>
      </trkpt>
      <trkpt lat="47.92096" lon="-3.95313">
        <ele>66.5</ele>
        <time>2022-12-07T11:32:21Z</time>
      </trkpt>
      <trkpt lat="47.92096" lon="-3.95318">
        <ele>66.6</ele>
        <time>2022-12-07T11:32:22Z</time>
      </trkpt>
      <trkpt lat="47.92097" lon="-3.95322">
        <ele>66.6</ele>
        <time>2022-12-07T11:32:23Z</time>
      </trkpt>
      <trkpt lat="47.92098" lon="-3.95324">
        <ele>66.6</ele>
        <time>2022-12-07T11:32:24Z</time>
      </trkpt>
      <trkpt lat="47.92098" lon="-3.95328">
        <ele>66.7</ele>
        <time>2022-12-07T11:32:25Z</time>
      </trkpt>
      <trkpt lat="47.92099" lon="-3.95333">
        <ele>66.7</ele>
        <time>2022-12-07T11:32:26Z</time>
      </trkpt>
      <trkpt lat="47.92099" lon="-3.95335">
        <ele>66.7</ele>
        <time>2022-12-07T11:32:27Z</time>
      </trkpt>
      <trkpt lat="47.92098" lon="-3.9534">
        <ele>66.7</ele>
        <time>2022-12-07T11:32:28Z</time>
      </trkpt>
      <trkpt lat="47.92096" lon="-3.95344">
        <ele>66.7</ele>
        <time>2022-12-07T11:32:29Z</time>
      </trkpt>
      <trkpt lat="47.92095" lon="-3.95347">
        <ele>66.6</ele>
        <time>2022-12-07T11:32:30Z</time>
      </trkpt>
      <trkpt lat="47.92093" lon="-3.9535">
        <ele>66.5</ele>
        <time>2022-12-07T11:32:31Z</time>
      </trkpt>
      <trkpt lat="47.92091" lon="-3.95353">
        <ele>66.4</ele>
        <time>2022-12-07T11:32:32Z</time>
      </trkpt>
      <trkpt lat="47.92088" lon="-3.95356">
        <ele>66.2</ele>
        <time>2022-12-07T11:32:33Z</time>
      </trkpt>
      <trkpt lat="47.92084" lon="-3.95358">
        <ele>65.9</ele>
        <time>2022-12-07T11:32:34Z</time>
      </trkpt>
      <trkpt lat="47.92082" lon="-3.9536">
        <ele>65.7</ele>
        <time>2022-12-07T11:32:35Z</time>
      </trkpt>
      <trkpt lat="47.92078" lon="-3.95361">
        <ele>65.4</ele>
        <time>2022-12-07T11:32:36Z</time>
      </trkpt>
      <trkpt lat="47.92074" lon="-3.95363">
        <ele>65</ele>
        <time>2022-12-07T11:32:37Z</time>
      </trkpt>
      <trkpt lat="47.92068" lon="-3.95364">
        <ele>64.5</ele>
        <time>2022-12-07T11:32:38Z</time>
      </trkpt>
      <trkpt lat="47.92062" lon="-3.95366">
        <ele>63.9</ele>
        <time>2022-12-07T11:32:39Z</time>
      </trkpt>
      <trkpt lat="47.92056" lon="-3.95368">
        <ele>63.4</ele>
        <time>2022-12-07T11:32:40Z</time>
      </trkpt>
      <trkpt lat="47.9205" lon="-3.9537">
        <ele>62.9</ele>
        <time>2022-12-07T11:32:41Z</time>
      </trkpt>
      <trkpt lat="47.92043" lon="-3.95372">
        <ele>62.5</ele>
        <time>2022-12-07T11:32:42Z</time>
      </trkpt>
      <trkpt lat="47.92036" lon="-3.95374">
        <ele>62.2</ele>
        <time>2022-12-07T11:32:43Z</time>
      </trkpt>
      <trkpt lat="47.92029" lon="-3.95377">
        <ele>62</ele>
        <time>2022-12-07T11:32:44Z</time>
      </trkpt>
      <trkpt lat="47.92022" lon="-3.95379">
        <ele>61.9</ele>
        <time>2022-12-07T11:32:45Z</time>
      </trkpt>
      <trkpt lat="47.92015" lon="-3.95382">
        <ele>61.9</ele>
        <time>2022-12-07T11:32:46Z</time>
      </trkpt>
      <trkpt lat="47.92007" lon="-3.95384">
        <ele>61.9</ele>
        <time>2022-12-07T11:32:47Z</time>
      </trkpt>
      <trkpt lat="47.92001" lon="-3.95383">
        <ele>61.9</ele>
        <time>2022-12-07T11:32:48Z</time>
      </trkpt>
      <trkpt lat="47.91995" lon="-3.95381">
        <ele>62</ele>
        <time>2022-12-07T11:32:49Z</time>
      </trkpt>
      <trkpt lat="47.9199" lon="-3.95378">
        <ele>62</ele>
        <time>2022-12-07T11:32:50Z</time>
      </trkpt>
      <trkpt lat="47.91985" lon="-3.95377">
        <ele>62.1</ele>
        <time>2022-12-07T11:32:51Z</time>
      </trkpt>
      <trkpt lat="47.91981" lon="-3.95376">
        <ele>62.1</ele>
        <time>2022-12-07T11:32:52Z</time>
      </trkpt>
      <trkpt lat="47.91977" lon="-3.95375">
        <ele>62.2</ele>
        <time>2022-12-07T11:32:53Z</time>
      </trkpt>
      <trkpt lat="47.91972" lon="-3.95374">
        <ele>62.4</ele>
        <time>2022-12-07T11:32:54Z</time>
      </trkpt>
      <trkpt lat="47.9197" lon="-3.95374">
        <ele>62.4</ele>
        <time>2022-12-07T11:32:55Z</time>
      </trkpt>
      <trkpt lat="47.91966" lon="-3.95375">
        <ele>62.6</ele>
        <time>2022-12-07T11:32:56Z</time>
      </trkpt>
      <trkpt lat="47.91962" lon="-3.95376">
        <ele>62.8</ele>
        <time>2022-12-07T11:32:57Z</time>
      </trkpt>
      <trkpt lat="47.91959" lon="-3.95378">
        <ele>62.9</ele>
        <time>2022-12-07T11:32:58Z</time>
      </trkpt>
      <trkpt lat="47.91956" lon="-3.95381">
        <ele>63</ele>
        <time>2022-12-07T11:32:59Z</time>
      </trkpt>
      <trkpt lat="47.91955" lon="-3.95382">
        <ele>63</ele>
        <time>2022-12-07T11:33:00Z</time>
      </trkpt>
      <trkpt lat="47.91949" lon="-3.95385">
        <ele>63.1</ele>
        <time>2022-12-07T11:33:02Z</time>
      </trkpt>
      <trkpt lat="47.91946" lon="-3.95388">
        <ele>63.2</ele>
        <time>2022-12-07T11:33:03Z</time>
      </trkpt>
      <trkpt lat="47.91944" lon="-3.95391">
        <ele>63.2</ele>
        <time>2022-12-07T11:33:04Z</time>
      </trkpt>
      <trkpt lat="47.91941" lon="-3.95395">
        <ele>63.3</ele>
        <time>2022-12-07T11:33:05Z</time>
      </trkpt>
      <trkpt lat="47.91939" lon="-3.95398">
        <ele>63.3</ele>
        <time>2022-12-07T11:33:06Z</time>
      </trkpt>
      <trkpt lat="47.91936" lon="-3.95404">
        <ele>63.3</ele>
        <time>2022-12-07T11:33:08Z</time>
      </trkpt>
      <trkpt lat="47.91933" lon="-3.9541">
        <ele>63.4</ele>
        <time>2022-12-07T11:33:09Z</time>
      </trkpt>
      <trkpt lat="47.91931" lon="-3.95417">
        <ele>63.4</ele>
        <time>2022-12-07T11:33:11Z</time>
      </trkpt>
      <trkpt lat="47.9193" lon="-3.95422">
        <ele>63.5</ele>
        <time>2022-12-07T11:33:12Z</time>
      </trkpt>
      <trkpt lat="47.91928" lon="-3.95426">
        <ele>63.5</ele>
        <time>2022-12-07T11:33:13Z</time>
      </trkpt>
      <trkpt lat="47.91928" lon="-3.95432">
        <ele>63.5</ele>
        <time>2022-12-07T11:33:14Z</time>
      </trkpt>
      <trkpt lat="47.91928" lon="-3.95436">
        <ele>63.5</ele>
        <time>2022-12-07T11:33:15Z</time>
      </trkpt>
      <trkpt lat="47.91928" lon="-3.95441">
        <ele>63.6</ele>
        <time>2022-12-07T11:33:16Z</time>
      </trkpt>
      <trkpt lat="47.91928" lon="-3.95447">
        <ele>63.6</ele>
        <time>2022-12-07T11:33:17Z</time>
      </trkpt>
      <trkpt lat="47.91928" lon="-3.95451">
        <ele>63.6</ele>
        <time>2022-12-07T11:33:18Z</time>
      </trkpt>
      <trkpt lat="47.91928" lon="-3.95456">
        <ele>63.6</ele>
        <time>2022-12-07T11:33:19Z</time>
      </trkpt>
      <trkpt lat="47.91928" lon="-3.95461">
        <ele>63.6</ele>
        <time>2022-12-07T11:33:20Z</time>
      </trkpt>
      <trkpt lat="47.91928" lon="-3.95465">
        <ele>63.6</ele>
        <time>2022-12-07T11:33:21Z</time>
      </trkpt>
      <trkpt lat="47.91928" lon="-3.95471">
        <ele>63.7</ele>
        <time>2022-12-07T11:33:22Z</time>
      </trkpt>
      <trkpt lat="47.91928" lon="-3.95475">
        <ele>63.7</ele>
        <time>2022-12-07T11:33:23Z</time>
      </trkpt>
      <trkpt lat="47.91928" lon="-3.9548">
        <ele>63.7</ele>
        <time>2022-12-07T11:33:24Z</time>
      </trkpt>
      <trkpt lat="47.91927" lon="-3.95486">
        <ele>63.7</ele>
        <time>2022-12-07T11:33:25Z</time>
      </trkpt>
      <trkpt lat="47.91926" lon="-3.9549">
        <ele>63.7</ele>
        <time>2022-12-07T11:33:26Z</time>
      </trkpt>
      <trkpt lat="47.91925" lon="-3.95495">
        <ele>63.7</ele>
        <time>2022-12-07T11:33:27Z</time>
      </trkpt>
      <trkpt lat="47.91924" lon="-3.95501">
        <ele>63.8</ele>
        <time>2022-12-07T11:33:28Z</time>
      </trkpt>
      <trkpt lat="47.91924" lon="-3.95507">
        <ele>63.8</ele>
        <time>2022-12-07T11:33:29Z</time>
      </trkpt>
      <trkpt lat="47.91923" lon="-3.95512">
        <ele>63.8</ele>
        <time>2022-12-07T11:33:30Z</time>
      </trkpt>
      <trkpt lat="47.91923" lon="-3.95519">
        <ele>63.9</ele>
        <time>2022-12-07T11:33:31Z</time>
      </trkpt>
      <trkpt lat="47.91922" lon="-3.95526">
        <ele>63.9</ele>
        <time>2022-12-07T11:33:33Z</time>
      </trkpt>
      <trkpt lat="47.91921" lon="-3.9553">
        <ele>64</ele>
        <time>2022-12-07T11:33:34Z</time>
      </trkpt>
      <trkpt lat="47.91919" lon="-3.95534">
        <ele>64</ele>
        <time>2022-12-07T11:33:35Z</time>
      </trkpt>
      <trkpt lat="47.91918" lon="-3.95539">
        <ele>64.1</ele>
        <time>2022-12-07T11:33:36Z</time>
      </trkpt>
      <trkpt lat="47.91918" lon="-3.95545">
        <ele>64.1</ele>
        <time>2022-12-07T11:33:37Z</time>
      </trkpt>
      <trkpt lat="47.91918" lon="-3.95553">
        <ele>64.1</ele>
        <time>2022-12-07T11:33:38Z</time>
      </trkpt>
      <trkpt lat="47.91918" lon="-3.95556">
        <ele>64.1</ele>
        <time>2022-12-07T11:33:39Z</time>
      </trkpt>
      <trkpt lat="47.91915" lon="-3.95566">
        <ele>64.1</ele>
        <time>2022-12-07T11:33:41Z</time>
      </trkpt>
      <trkpt lat="47.91913" lon="-3.95571">
        <ele>64.1</ele>
        <time>2022-12-07T11:33:42Z</time>
      </trkpt>
      <trkpt lat="47.91912" lon="-3.95576">
        <ele>64.1</ele>
        <time>2022-12-07T11:33:44Z</time>
      </trkpt>
      <trkpt lat="47.91909" lon="-3.95583">
        <ele>64.1</ele>
        <time>2022-12-07T11:33:45Z</time>
      </trkpt>
      <trkpt lat="47.91908" lon="-3.95588">
        <ele>64.2</ele>
        <time>2022-12-07T11:33:46Z</time>
      </trkpt>
      <trkpt lat="47.91906" lon="-3.95593">
        <ele>64.2</ele>
        <time>2022-12-07T11:33:47Z</time>
      </trkpt>
      <trkpt lat="47.91905" lon="-3.95598">
        <ele>64.2</ele>
        <time>2022-12-07T11:33:48Z</time>
      </trkpt>
      <trkpt lat="47.91903" lon="-3.95601">
        <ele>64.2</ele>
        <time>2022-12-07T11:33:49Z</time>
      </trkpt>
      <trkpt lat="47.91901" lon="-3.95605">
        <ele>64.2</ele>
        <time>2022-12-07T11:33:50Z</time>
      </trkpt>
      <trkpt lat="47.91899" lon="-3.9561">
        <ele>64.2</ele>
        <time>2022-12-07T11:33:51Z</time>
      </trkpt>
      <trkpt lat="47.91896" lon="-3.95614">
        <ele>64.2</ele>
        <time>2022-12-07T11:33:52Z</time>
      </trkpt>
      <trkpt lat="47.91895" lon="-3.95618">
        <ele>64.2</ele>
        <time>2022-12-07T11:33:53Z</time>
      </trkpt>
      <trkpt lat="47.91891" lon="-3.95624">
        <ele>64.2</ele>
        <time>2022-12-07T11:33:54Z</time>
      </trkpt>
      <trkpt lat="47.91888" lon="-3.95629">
        <ele>64.2</ele>
        <time>2022-12-07T11:33:56Z</time>
      </trkpt>
      <trkpt lat="47.91886" lon="-3.95634">
        <ele>64.2</ele>
        <time>2022-12-07T11:33:57Z</time>
      </trkpt>
      <trkpt lat="47.91884" lon="-3.95638">
        <ele>64.3</ele>
        <time>2022-12-07T11:33:58Z</time>
      </trkpt>
      <trkpt lat="47.91882" lon="-3.95642">
        <ele>64.3</ele>
        <time>2022-12-07T11:33:59Z</time>
      </trkpt>
      <trkpt lat="47.91879" lon="-3.95648">
        <ele>64.3</ele>
        <time>2022-12-07T11:34:00Z</time>
      </trkpt>
      <trkpt lat="47.91878" lon="-3.95651">
        <ele>64.3</ele>
        <time>2022-12-07T11:34:01Z</time>
      </trkpt>
      <trkpt lat="47.91876" lon="-3.95657">
        <ele>64.3</ele>
        <time>2022-12-07T11:34:02Z</time>
      </trkpt>
      <trkpt lat="47.91875" lon="-3.95661">
        <ele>64.3</ele>
        <time>2022-12-07T11:34:03Z</time>
      </trkpt>
      <trkpt lat="47.91873" lon="-3.95665">
        <ele>64.2</ele>
        <time>2022-12-07T11:34:04Z</time>
      </trkpt>
      <trkpt lat="47.91871" lon="-3.9567">
        <ele>64.2</ele>
        <time>2022-12-07T11:34:05Z</time>
      </trkpt>
      <trkpt lat="47.91869" lon="-3.95675">
        <ele>64.1</ele>
        <time>2022-12-07T11:34:06Z</time>
      </trkpt>
      <trkpt lat="47.91867" lon="-3.95679">
        <ele>64.1</ele>
        <time>2022-12-07T11:34:07Z</time>
      </trkpt>
      <trkpt lat="47.91866" lon="-3.95683">
        <ele>64</ele>
        <time>2022-12-07T11:34:08Z</time>
      </trkpt>
      <trkpt lat="47.91865" lon="-3.95684">
        <ele>64</ele>
        <time>2022-12-07T11:34:09Z</time>
      </trkpt>
      <trkpt lat="47.91863" lon="-3.95691">
        <ele>64</ele>
        <time>2022-12-07T11:34:10Z</time>
      </trkpt>
      <trkpt lat="47.9186" lon="-3.95696">
        <ele>64</ele>
        <time>2022-12-07T11:34:12Z</time>
      </trkpt>
      <trkpt lat="47.91858" lon="-3.95701">
        <ele>64</ele>
        <time>2022-12-07T11:34:13Z</time>
      </trkpt>
      <trkpt lat="47.91856" lon="-3.95706">
        <ele>64</ele>
        <time>2022-12-07T11:34:14Z</time>
      </trkpt>
      <trkpt lat="47.91854" lon="-3.95711">
        <ele>64</ele>
        <time>2022-12-07T11:34:15Z</time>
      </trkpt>
      <trkpt lat="47.91851" lon="-3.95717">
        <ele>64.1</ele>
        <time>2022-12-07T11:34:16Z</time>
      </trkpt>
      <trkpt lat="47.91848" lon="-3.95724">
        <ele>64.1</ele>
        <time>2022-12-07T11:34:17Z</time>
      </trkpt>
      <trkpt lat="47.91844" lon="-3.95732">
        <ele>64.1</ele>
        <time>2022-12-07T11:34:19Z</time>
      </trkpt>
      <trkpt lat="47.91842" lon="-3.95737">
        <ele>64.1</ele>
        <time>2022-12-07T11:34:20Z</time>
      </trkpt>
      <trkpt lat="47.91839" lon="-3.95743">
        <ele>64.1</ele>
        <time>2022-12-07T11:34:21Z</time>
      </trkpt>
      <trkpt lat="47.91837" lon="-3.95749">
        <ele>64.1</ele>
        <time>2022-12-07T11:34:22Z</time>
      </trkpt>
      <trkpt lat="47.91835" lon="-3.95754">
        <ele>64.1</ele>
        <time>2022-12-07T11:34:23Z</time>
      </trkpt>
      <trkpt lat="47.91832" lon="-3.95758">
        <ele>64.2</ele>
        <time>2022-12-07T11:34:24Z</time>
      </trkpt>
      <trkpt lat="47.9183" lon="-3.95762">
        <ele>64.2</ele>
        <time>2022-12-07T11:34:25Z</time>
      </trkpt>
      <trkpt lat="47.91828" lon="-3.95768">
        <ele>64.2</ele>
        <time>2022-12-07T11:34:26Z</time>
      </trkpt>
      <trkpt lat="47.91826" lon="-3.95773">
        <ele>64.3</ele>
        <time>2022-12-07T11:34:27Z</time>
      </trkpt>
      <trkpt lat="47.91824" lon="-3.95778">
        <ele>64.3</ele>
        <time>2022-12-07T11:34:28Z</time>
      </trkpt>
      <trkpt lat="47.91822" lon="-3.95783">
        <ele>64.3</ele>
        <time>2022-12-07T11:34:29Z</time>
      </trkpt>
      <trkpt lat="47.9182" lon="-3.95787">
        <ele>64.4</ele>
        <time>2022-12-07T11:34:30Z</time>
      </trkpt>
      <trkpt lat="47.91818" lon="-3.95792">
        <ele>64.4</ele>
        <time>2022-12-07T11:34:31Z</time>
      </trkpt>
      <trkpt lat="47.91816" lon="-3.95796">
        <ele>64.5</ele>
        <time>2022-12-07T11:34:32Z</time>
      </trkpt>
      <trkpt lat="47.91813" lon="-3.95803">
        <ele>64.6</ele>
        <time>2022-12-07T11:34:33Z</time>
      </trkpt>
      <trkpt lat="47.91811" lon="-3.9581">
        <ele>64.6</ele>
        <time>2022-12-07T11:34:35Z</time>
      </trkpt>
      <trkpt lat="47.91809" lon="-3.95815">
        <ele>64.7</ele>
        <time>2022-12-07T11:34:36Z</time>
      </trkpt>
      <trkpt lat="47.91807" lon="-3.95819">
        <ele>64.8</ele>
        <time>2022-12-07T11:34:37Z</time>
      </trkpt>
      <trkpt lat="47.91805" lon="-3.95822">
        <ele>64.8</ele>
        <time>2022-12-07T11:34:38Z</time>
      </trkpt>
      <trkpt lat="47.91804" lon="-3.95827">
        <ele>64.9</ele>
        <time>2022-12-07T11:34:39Z</time>
      </trkpt>
      <trkpt lat="47.91802" lon="-3.95832">
        <ele>65.1</ele>
        <time>2022-12-07T11:34:40Z</time>
      </trkpt>
      <trkpt lat="47.918" lon="-3.95836">
        <ele>65.1</ele>
        <time>2022-12-07T11:34:41Z</time>
      </trkpt>
      <trkpt lat="47.91798" lon="-3.9584">
        <ele>65.2</ele>
        <time>2022-12-07T11:34:42Z</time>
      </trkpt>
      <trkpt lat="47.91796" lon="-3.95845">
        <ele>65.3</ele>
        <time>2022-12-07T11:34:43Z</time>
      </trkpt>
      <trkpt lat="47.91794" lon="-3.95849">
        <ele>65.3</ele>
        <time>2022-12-07T11:34:44Z</time>
      </trkpt>
      <trkpt lat="47.91791" lon="-3.95852">
        <ele>65.3</ele>
        <time>2022-12-07T11:34:45Z</time>
      </trkpt>
      <trkpt lat="47.91788" lon="-3.95853">
        <ele>65.3</ele>
        <time>2022-12-07T11:34:46Z</time>
      </trkpt>
      <trkpt lat="47.91786" lon="-3.95852">
        <ele>65.3</ele>
        <time>2022-12-07T11:34:47Z</time>
      </trkpt>
      <trkpt lat="47.91785" lon="-3.95851">
        <ele>65.3</ele>
        <time>2022-12-07T11:34:48Z</time>
      </trkpt>
      <trkpt lat="47.91785" lon="-3.9585">
        <ele>65.3</ele>
        <time>2022-12-07T11:34:49Z</time>
      </trkpt>
      <trkpt lat="47.91784" lon="-3.95848">
        <ele>65.1</ele>
        <time>2022-12-07T11:34:50Z</time>
      </trkpt>
      <trkpt lat="47.91783" lon="-3.95846">
        <ele>65.1</ele>
        <time>2022-12-07T11:34:51Z</time>
      </trkpt>
      <trkpt lat="47.9178" lon="-3.95843">
        <ele>65</ele>
        <time>2022-12-07T11:34:52Z</time>
      </trkpt>
      <trkpt lat="47.91778" lon="-3.95837">
        <ele>65</ele>
        <time>2022-12-07T11:34:53Z</time>
      </trkpt>
      <trkpt lat="47.91778" lon="-3.9583">
        <ele>64.9</ele>
        <time>2022-12-07T11:34:54Z</time>
      </trkpt>
      <trkpt lat="47.91778" lon="-3.95822">
        <ele>64.8</ele>
        <time>2022-12-07T11:34:55Z</time>
      </trkpt>
      <trkpt lat="47.91779" lon="-3.95814">
        <ele>64.7</ele>
        <time>2022-12-07T11:34:56Z</time>
      </trkpt>
      <trkpt lat="47.9178" lon="-3.95807">
        <ele>64.7</ele>
        <time>2022-12-07T11:34:57Z</time>
      </trkpt>
      <trkpt lat="47.91781" lon="-3.95801">
        <ele>64.6</ele>
        <time>2022-12-07T11:34:58Z</time>
      </trkpt>
      <trkpt lat="47.91784" lon="-3.95795">
        <ele>64.5</ele>
        <time>2022-12-07T11:34:59Z</time>
      </trkpt>
      <trkpt lat="47.91786" lon="-3.9579">
        <ele>64.4</ele>
        <time>2022-12-07T11:35:00Z</time>
      </trkpt>
      <trkpt lat="47.91787" lon="-3.95783">
        <ele>64.3</ele>
        <time>2022-12-07T11:35:01Z</time>
      </trkpt>
      <trkpt lat="47.91787" lon="-3.95778">
        <ele>64.2</ele>
        <time>2022-12-07T11:35:02Z</time>
      </trkpt>
      <trkpt lat="47.91788" lon="-3.95771">
        <ele>64.1</ele>
        <time>2022-12-07T11:35:03Z</time>
      </trkpt>
      <trkpt lat="47.91787" lon="-3.95764">
        <ele>64</ele>
        <time>2022-12-07T11:35:05Z</time>
      </trkpt>
      <trkpt lat="47.91787" lon="-3.95756">
        <ele>63.9</ele>
        <time>2022-12-07T11:35:06Z</time>
      </trkpt>
      <trkpt lat="47.91787" lon="-3.95751">
        <ele>63.8</ele>
        <time>2022-12-07T11:35:07Z</time>
      </trkpt>
      <trkpt lat="47.91787" lon="-3.95747">
        <ele>63.7</ele>
        <time>2022-12-07T11:35:08Z</time>
      </trkpt>
      <trkpt lat="47.91786" lon="-3.9574">
        <ele>63.6</ele>
        <time>2022-12-07T11:35:09Z</time>
      </trkpt>
      <trkpt lat="47.91786" lon="-3.95734">
        <ele>63.4</ele>
        <time>2022-12-07T11:35:10Z</time>
      </trkpt>
      <trkpt lat="47.91785" lon="-3.95728">
        <ele>63.3</ele>
        <time>2022-12-07T11:35:12Z</time>
      </trkpt>
      <trkpt lat="47.91784" lon="-3.9572">
        <ele>63.1</ele>
        <time>2022-12-07T11:35:13Z</time>
      </trkpt>
      <trkpt lat="47.91783" lon="-3.95715">
        <ele>63</ele>
        <time>2022-12-07T11:35:14Z</time>
      </trkpt>
      <trkpt lat="47.91783" lon="-3.9571">
        <ele>62.9</ele>
        <time>2022-12-07T11:35:15Z</time>
      </trkpt>
      <trkpt lat="47.91782" lon="-3.95703">
        <ele>62.7</ele>
        <time>2022-12-07T11:35:16Z</time>
      </trkpt>
      <trkpt lat="47.91782" lon="-3.95697">
        <ele>62.6</ele>
        <time>2022-12-07T11:35:17Z</time>
      </trkpt>
      <trkpt lat="47.9178" lon="-3.95691">
        <ele>62.4</ele>
        <time>2022-12-07T11:35:19Z</time>
      </trkpt>
      <trkpt lat="47.91779" lon="-3.95684">
        <ele>62.3</ele>
        <time>2022-12-07T11:35:20Z</time>
      </trkpt>
      <trkpt lat="47.91778" lon="-3.95678">
        <ele>62.1</ele>
        <time>2022-12-07T11:35:21Z</time>
      </trkpt>
      <trkpt lat="47.91777" lon="-3.95673">
        <ele>62</ele>
        <time>2022-12-07T11:35:22Z</time>
      </trkpt>
      <trkpt lat="47.91775" lon="-3.95667">
        <ele>61.8</ele>
        <time>2022-12-07T11:35:23Z</time>
      </trkpt>
      <trkpt lat="47.91774" lon="-3.95663">
        <ele>61.7</ele>
        <time>2022-12-07T11:35:24Z</time>
      </trkpt>
      <trkpt lat="47.91773" lon="-3.95657">
        <ele>61.5</ele>
        <time>2022-12-07T11:35:25Z</time>
      </trkpt>
      <trkpt lat="47.91772" lon="-3.95651">
        <ele>61.3</ele>
        <time>2022-12-07T11:35:26Z</time>
      </trkpt>
      <trkpt lat="47.91771" lon="-3.95647">
        <ele>61.2</ele>
        <time>2022-12-07T11:35:27Z</time>
      </trkpt>
      <trkpt lat="47.9177" lon="-3.95642">
        <ele>61.1</ele>
        <time>2022-12-07T11:35:28Z</time>
      </trkpt>
      <trkpt lat="47.91771" lon="-3.95636">
        <ele>60.9</ele>
        <time>2022-12-07T11:35:29Z</time>
      </trkpt>
      <trkpt lat="47.91774" lon="-3.9563">
        <ele>60.1</ele>
        <time>2022-12-07T11:35:30Z</time>
      </trkpt>
      <trkpt lat="47.91778" lon="-3.95624">
        <ele>59.6</ele>
        <time>2022-12-07T11:35:31Z</time>
      </trkpt>
      <trkpt lat="47.91782" lon="-3.95618">
        <ele>59.1</ele>
        <time>2022-12-07T11:35:32Z</time>
      </trkpt>
      <trkpt lat="47.91784" lon="-3.95609">
        <ele>58.7</ele>
        <time>2022-12-07T11:35:33Z</time>
      </trkpt>
      <trkpt lat="47.91784" lon="-3.95599">
        <ele>58.6</ele>
        <time>2022-12-07T11:35:34Z</time>
      </trkpt>
      <trkpt lat="47.91782" lon="-3.95589">
        <ele>58.6</ele>
        <time>2022-12-07T11:35:35Z</time>
      </trkpt>
      <trkpt lat="47.91781" lon="-3.9558">
        <ele>58.6</ele>
        <time>2022-12-07T11:35:36Z</time>
      </trkpt>
      <trkpt lat="47.91779" lon="-3.95574">
        <ele>58.7</ele>
        <time>2022-12-07T11:35:37Z</time>
      </trkpt>
      <trkpt lat="47.91775" lon="-3.95572">
        <ele>58.6</ele>
        <time>2022-12-07T11:35:38Z</time>
      </trkpt>
      <trkpt lat="47.91771" lon="-3.95573">
        <ele>58.5</ele>
        <time>2022-12-07T11:35:39Z</time>
      </trkpt>
      <trkpt lat="47.91766" lon="-3.95575">
        <ele>58.4</ele>
        <time>2022-12-07T11:35:40Z</time>
      </trkpt>
      <trkpt lat="47.91761" lon="-3.95577">
        <ele>58.3</ele>
        <time>2022-12-07T11:35:41Z</time>
      </trkpt>
      <trkpt lat="47.91756" lon="-3.95581">
        <ele>58.2</ele>
        <time>2022-12-07T11:35:42Z</time>
      </trkpt>
      <trkpt lat="47.91752" lon="-3.95585">
        <ele>58.2</ele>
        <time>2022-12-07T11:35:43Z</time>
      </trkpt>
      <trkpt lat="47.91748" lon="-3.95589">
        <ele>58</ele>
        <time>2022-12-07T11:35:44Z</time>
      </trkpt>
      <trkpt lat="47.91745" lon="-3.95593">
        <ele>57.9</ele>
        <time>2022-12-07T11:35:45Z</time>
      </trkpt>
      <trkpt lat="47.91741" lon="-3.95598">
        <ele>57.7</ele>
        <time>2022-12-07T11:35:46Z</time>
      </trkpt>
      <trkpt lat="47.91739" lon="-3.956">
        <ele>57.6</ele>
        <time>2022-12-07T11:35:47Z</time>
      </trkpt>
      <trkpt lat="47.91731" lon="-3.95607">
        <ele>57.3</ele>
        <time>2022-12-07T11:35:48Z</time>
      </trkpt>
      <trkpt lat="47.91726" lon="-3.95613">
        <ele>57.2</ele>
        <time>2022-12-07T11:35:49Z</time>
      </trkpt>
      <trkpt lat="47.91722" lon="-3.95617">
        <ele>57.1</ele>
        <time>2022-12-07T11:35:50Z</time>
      </trkpt>
      <trkpt lat="47.91718" lon="-3.95622">
        <ele>57.1</ele>
        <time>2022-12-07T11:35:51Z</time>
      </trkpt>
      <trkpt lat="47.91718" lon="-3.95622">
        <ele>57</ele>
        <time>2022-12-07T11:35:52Z</time>
      </trkpt>
      <trkpt lat="47.91713" lon="-3.95622">
        <ele>57</ele>
        <time>2022-12-07T11:35:54Z</time>
      </trkpt>
      <trkpt lat="47.91712" lon="-3.95619">
        <ele>57</ele>
        <time>2022-12-07T11:35:55Z</time>
      </trkpt>
      <trkpt lat="47.91711" lon="-3.95619">
        <ele>57</ele>
        <time>2022-12-07T11:35:56Z</time>
      </trkpt>
      <trkpt lat="47.9171" lon="-3.95618">
        <ele>57</ele>
        <time>2022-12-07T11:35:57Z</time>
      </trkpt>
      <trkpt lat="47.9171" lon="-3.95617">
        <ele>57</ele>
        <time>2022-12-07T11:35:58Z</time>
      </trkpt>
      <trkpt lat="47.9171" lon="-3.95616">
        <ele>57</ele>
        <time>2022-12-07T11:35:59Z</time>
      </trkpt>
      <trkpt lat="47.9171" lon="-3.95615">
        <ele>57.1</ele>
        <time>2022-12-07T11:36:00Z</time>
      </trkpt>
      <trkpt lat="47.91709" lon="-3.95614">
        <ele>57.1</ele>
        <time>2022-12-07T11:36:01Z</time>
      </trkpt>
      <trkpt lat="47.91709" lon="-3.95613">
        <ele>57.1</ele>
        <time>2022-12-07T11:36:02Z</time>
      </trkpt>
      <trkpt lat="47.91709" lon="-3.95612">
        <ele>57.1</ele>
        <time>2022-12-07T11:36:03Z</time>
      </trkpt>
      <trkpt lat="47.91709" lon="-3.95612">
        <ele>57.1</ele>
        <time>2022-12-07T11:36:04Z</time>
      </trkpt>
      <trkpt lat="47.91709" lon="-3.95611">
        <ele>56.7</ele>
        <time>2022-12-07T11:36:05Z</time>
      </trkpt>
      <trkpt lat="47.91707" lon="-3.95605">
        <ele>56.8</ele>
        <time>2022-12-07T11:36:06Z</time>
      </trkpt>
      <trkpt lat="47.91703" lon="-3.95596">
        <ele>56.7</ele>
        <time>2022-12-07T11:36:07Z</time>
      </trkpt>
      <trkpt lat="47.91699" lon="-3.95588">
        <ele>56.3</ele>
        <time>2022-12-07T11:36:08Z</time>
      </trkpt>
      <trkpt lat="47.91696" lon="-3.95582">
        <ele>56.3</ele>
        <time>2022-12-07T11:36:09Z</time>
      </trkpt>
      <trkpt lat="47.91694" lon="-3.95576">
        <ele>55.9</ele>
        <time>2022-12-07T11:36:10Z</time>
      </trkpt>
      <trkpt lat="47.91692" lon="-3.9557">
        <ele>55.9</ele>
        <time>2022-12-07T11:36:11Z</time>
      </trkpt>
      <trkpt lat="47.91692" lon="-3.95568">
        <ele>55.9</ele>
        <time>2022-12-07T11:36:12Z</time>
      </trkpt>
      <trkpt lat="47.91688" lon="-3.95555">
        <ele>55.1</ele>
        <time>2022-12-07T11:36:14Z</time>
      </trkpt>
      <trkpt lat="47.91686" lon="-3.95549">
        <ele>55.2</ele>
        <time>2022-12-07T11:36:15Z</time>
      </trkpt>
      <trkpt lat="47.91684" lon="-3.95546">
        <ele>55.2</ele>
        <time>2022-12-07T11:36:16Z</time>
      </trkpt>
      <trkpt lat="47.91683" lon="-3.95545">
        <ele>55.2</ele>
        <time>2022-12-07T11:36:17Z</time>
      </trkpt>
      <trkpt lat="47.91681" lon="-3.95541">
        <ele>54.7</ele>
        <time>2022-12-07T11:36:19Z</time>
      </trkpt>
      <trkpt lat="47.9168" lon="-3.95539">
        <ele>54.7</ele>
        <time>2022-12-07T11:36:20Z</time>
      </trkpt>
      <trkpt lat="47.91677" lon="-3.95538">
        <ele>54.5</ele>
        <time>2022-12-07T11:36:21Z</time>
      </trkpt>
      <trkpt lat="47.91674" lon="-3.95537">
        <ele>54.3</ele>
        <time>2022-12-07T11:36:22Z</time>
      </trkpt>
      <trkpt lat="47.91673" lon="-3.95533">
        <ele>54.2</ele>
        <time>2022-12-07T11:36:23Z</time>
      </trkpt>
      <trkpt lat="47.91673" lon="-3.9553">
        <ele>54.1</ele>
        <time>2022-12-07T11:36:24Z</time>
      </trkpt>
      <trkpt lat="47.91673" lon="-3.95523">
        <ele>53.8</ele>
        <time>2022-12-07T11:36:26Z</time>
      </trkpt>
      <trkpt lat="47.91672" lon="-3.95519">
        <ele>53.7</ele>
        <time>2022-12-07T11:36:27Z</time>
      </trkpt>
      <trkpt lat="47.91671" lon="-3.95516">
        <ele>53.6</ele>
        <time>2022-12-07T11:36:28Z</time>
      </trkpt>
      <trkpt lat="47.91669" lon="-3.95515">
        <ele>53.5</ele>
        <time>2022-12-07T11:36:30Z</time>
      </trkpt>
      <trkpt lat="47.91668" lon="-3.95515">
        <ele>53.4</ele>
        <time>2022-12-07T11:36:31Z</time>
      </trkpt>
      <trkpt lat="47.91668" lon="-3.95514">
        <ele>53.4</ele>
        <time>2022-12-07T11:36:32Z</time>
      </trkpt>
      <trkpt lat="47.91668" lon="-3.95514">
        <ele>53.4</ele>
        <time>2022-12-07T11:36:33Z</time>
      </trkpt>
      <trkpt lat="47.91668" lon="-3.95514">
        <ele>53.4</ele>
        <time>2022-12-07T11:36:34Z</time>
      </trkpt>
      <trkpt lat="47.91667" lon="-3.95514">
        <ele>53.4</ele>
        <time>2022-12-07T11:36:35Z</time>
      </trkpt>
      <trkpt lat="47.91667" lon="-3.95514">
        <ele>53.4</ele>
        <time>2022-12-07T11:36:36Z</time>
      </trkpt>
      <trkpt lat="47.91667" lon="-3.95514">
        <ele>53.4</ele>
        <time>2022-12-07T11:36:37Z</time>
      </trkpt>
      <trkpt lat="47.91667" lon="-3.95514">
        <ele>53.4</ele>
        <time>2022-12-07T11:36:38Z</time>
      </trkpt>
      <trkpt lat="47.91667" lon="-3.95514">
        <ele>53.4</ele>
        <time>2022-12-07T11:36:39Z</time>
      </trkpt>
      <trkpt lat="47.91667" lon="-3.95514">
        <ele>53.4</ele>
        <time>2022-12-07T11:36:40Z</time>
      </trkpt>
      <trkpt lat="47.91664" lon="-3.9551">
        <ele>53.1</ele>
        <time>2022-12-07T11:36:45Z</time>
      </trkpt>
      <trkpt lat="47.91661" lon="-3.95505">
        <ele>53</ele>
        <time>2022-12-07T11:36:46Z</time>
      </trkpt>
      <trkpt lat="47.91659" lon="-3.95501">
        <ele>52.8</ele>
        <time>2022-12-07T11:36:48Z</time>
      </trkpt>
      <trkpt lat="47.91656" lon="-3.95498">
        <ele>52.6</ele>
        <time>2022-12-07T11:36:49Z</time>
      </trkpt>
      <trkpt lat="47.91652" lon="-3.95497">
        <ele>52.4</ele>
        <time>2022-12-07T11:36:50Z</time>
      </trkpt>
      <trkpt lat="47.91649" lon="-3.95497">
        <ele>52.2</ele>
        <time>2022-12-07T11:36:51Z</time>
      </trkpt>
      <trkpt lat="47.91645" lon="-3.95497">
        <ele>52.1</ele>
        <time>2022-12-07T11:36:52Z</time>
      </trkpt>
      <trkpt lat="47.91644" lon="-3.95497">
        <ele>52</ele>
        <time>2022-12-07T11:36:53Z</time>
      </trkpt>
      <trkpt lat="47.91643" lon="-3.95497">
        <ele>52</ele>
        <time>2022-12-07T11:36:54Z</time>
      </trkpt>
      <trkpt lat="47.91643" lon="-3.95497">
        <ele>52</ele>
        <time>2022-12-07T11:36:55Z</time>
      </trkpt>
      <trkpt lat="47.91643" lon="-3.95497">
        <ele>52</ele>
        <time>2022-12-07T11:36:56Z</time>
      </trkpt>
      <trkpt lat="47.91643" lon="-3.95497">
        <ele>52</ele>
        <time>2022-12-07T11:36:57Z</time>
      </trkpt>
      <trkpt lat="47.91643" lon="-3.95497">
        <ele>51.9</ele>
        <time>2022-12-07T11:36:58Z</time>
      </trkpt>
      <trkpt lat="47.91643" lon="-3.95497">
        <ele>51.9</ele>
        <time>2022-12-07T11:36:59Z</time>
      </trkpt>
      <trkpt lat="47.91643" lon="-3.95496">
        <ele>51.9</ele>
        <time>2022-12-07T11:37:00Z</time>
      </trkpt>
      <trkpt lat="47.91642" lon="-3.95494">
        <ele>51.8</ele>
        <time>2022-12-07T11:37:01Z</time>
      </trkpt>
      <trkpt lat="47.91641" lon="-3.95492">
        <ele>51.8</ele>
        <time>2022-12-07T11:37:02Z</time>
      </trkpt>
      <trkpt lat="47.9164" lon="-3.95489">
        <ele>51.6</ele>
        <time>2022-12-07T11:37:03Z</time>
      </trkpt>
      <trkpt lat="47.91639" lon="-3.95488">
        <ele>51.6</ele>
        <time>2022-12-07T11:37:04Z</time>
      </trkpt>
      <trkpt lat="47.91636" lon="-3.95489">
        <ele>51.4</ele>
        <time>2022-12-07T11:37:05Z</time>
      </trkpt>
      <trkpt lat="47.91633" lon="-3.9549">
        <ele>51.3</ele>
        <time>2022-12-07T11:37:06Z</time>
      </trkpt>
      <trkpt lat="47.91632" lon="-3.95491">
        <ele>51.2</ele>
        <time>2022-12-07T11:37:07Z</time>
      </trkpt>
      <trkpt lat="47.91631" lon="-3.95492">
        <ele>51.2</ele>
        <time>2022-12-07T11:37:08Z</time>
      </trkpt>
      <trkpt lat="47.91629" lon="-3.95492">
        <ele>51.1</ele>
        <time>2022-12-07T11:37:09Z</time>
      </trkpt>
      <trkpt lat="47.91625" lon="-3.95492">
        <ele>50.9</ele>
        <time>2022-12-07T11:37:10Z</time>
      </trkpt>
      <trkpt lat="47.91624" lon="-3.95492">
        <ele>50.8</ele>
        <time>2022-12-07T11:37:11Z</time>
      </trkpt>
      <trkpt lat="47.91623" lon="-3.95492">
        <ele>50.8</ele>
        <time>2022-12-07T11:37:12Z</time>
      </trkpt>
      <trkpt lat="47.91621" lon="-3.95493">
        <ele>50.7</ele>
        <time>2022-12-07T11:37:13Z</time>
      </trkpt>
      <trkpt lat="47.9162" lon="-3.95493">
        <ele>50.6</ele>
        <time>2022-12-07T11:37:14Z</time>
      </trkpt>
      <trkpt lat="47.91618" lon="-3.95492">
        <ele>50.5</ele>
        <time>2022-12-07T11:37:15Z</time>
      </trkpt>
      <trkpt lat="47.91616" lon="-3.95489">
        <ele>50.4</ele>
        <time>2022-12-07T11:37:16Z</time>
      </trkpt>
      <trkpt lat="47.91616" lon="-3.95488">
        <ele>50.3</ele>
        <time>2022-12-07T11:37:17Z</time>
      </trkpt>
      <trkpt lat="47.91615" lon="-3.95486">
        <ele>50.3</ele>
        <time>2022-12-07T11:37:18Z</time>
      </trkpt>
      <trkpt lat="47.91616" lon="-3.95481">
        <ele>50.1</ele>
        <time>2022-12-07T11:37:19Z</time>
      </trkpt>
      <trkpt lat="47.91616" lon="-3.95479">
        <ele>50</ele>
        <time>2022-12-07T11:37:20Z</time>
      </trkpt>
      <trkpt lat="47.91615" lon="-3.95473">
        <ele>49.8</ele>
        <time>2022-12-07T11:37:21Z</time>
      </trkpt>
      <trkpt lat="47.91613" lon="-3.95469">
        <ele>49.7</ele>
        <time>2022-12-07T11:37:22Z</time>
      </trkpt>
      <trkpt lat="47.91612" lon="-3.95465">
        <ele>49.5</ele>
        <time>2022-12-07T11:37:23Z</time>
      </trkpt>
      <trkpt lat="47.91611" lon="-3.95463">
        <ele>49.4</ele>
        <time>2022-12-07T11:37:24Z</time>
      </trkpt>
      <trkpt lat="47.91608" lon="-3.95461">
        <ele>49.3</ele>
        <time>2022-12-07T11:37:25Z</time>
      </trkpt>
      <trkpt lat="47.91606" lon="-3.95462">
        <ele>49.2</ele>
        <time>2022-12-07T11:37:26Z</time>
      </trkpt>
      <trkpt lat="47.91605" lon="-3.95463">
        <ele>49.2</ele>
        <time>2022-12-07T11:37:27Z</time>
      </trkpt>
      <trkpt lat="47.91603" lon="-3.95465">
        <ele>49</ele>
        <time>2022-12-07T11:37:29Z</time>
      </trkpt>
      <trkpt lat="47.916" lon="-3.95463">
        <ele>48.9</ele>
        <time>2022-12-07T11:37:30Z</time>
      </trkpt>
      <trkpt lat="47.91597" lon="-3.9546">
        <ele>48.7</ele>
        <time>2022-12-07T11:37:31Z</time>
      </trkpt>
      <trkpt lat="47.91596" lon="-3.95459">
        <ele>48.7</ele>
        <time>2022-12-07T11:37:32Z</time>
      </trkpt>
      <trkpt lat="47.91593" lon="-3.95456">
        <ele>48.5</ele>
        <time>2022-12-07T11:37:34Z</time>
      </trkpt>
      <trkpt lat="47.91593" lon="-3.95454">
        <ele>48.4</ele>
        <time>2022-12-07T11:37:35Z</time>
      </trkpt>
      <trkpt lat="47.9159" lon="-3.9545">
        <ele>48.2</ele>
        <time>2022-12-07T11:37:36Z</time>
      </trkpt>
      <trkpt lat="47.91589" lon="-3.95449">
        <ele>48.2</ele>
        <time>2022-12-07T11:37:37Z</time>
      </trkpt>
      <trkpt lat="47.91587" lon="-3.95445">
        <ele>48</ele>
        <time>2022-12-07T11:37:38Z</time>
      </trkpt>
      <trkpt lat="47.91587" lon="-3.95442">
        <ele>47.9</ele>
        <time>2022-12-07T11:37:40Z</time>
      </trkpt>
      <trkpt lat="47.91587" lon="-3.9544">
        <ele>47.8</ele>
        <time>2022-12-07T11:37:41Z</time>
      </trkpt>
      <trkpt lat="47.91587" lon="-3.95437">
        <ele>47.7</ele>
        <time>2022-12-07T11:37:42Z</time>
      </trkpt>
      <trkpt lat="47.91585" lon="-3.95434">
        <ele>47.6</ele>
        <time>2022-12-07T11:37:43Z</time>
      </trkpt>
      <trkpt lat="47.91583" lon="-3.95433">
        <ele>47.5</ele>
        <time>2022-12-07T11:37:44Z</time>
      </trkpt>
      <trkpt lat="47.9158" lon="-3.9543">
        <ele>47.3</ele>
        <time>2022-12-07T11:37:46Z</time>
      </trkpt>
      <trkpt lat="47.91577" lon="-3.95427">
        <ele>47.2</ele>
        <time>2022-12-07T11:37:47Z</time>
      </trkpt>
      <trkpt lat="47.91577" lon="-3.95425">
        <ele>47.1</ele>
        <time>2022-12-07T11:37:48Z</time>
      </trkpt>
      <trkpt lat="47.91577" lon="-3.95421">
        <ele>47</ele>
        <time>2022-12-07T11:37:49Z</time>
      </trkpt>
      <trkpt lat="47.91578" lon="-3.95416">
        <ele>46.8</ele>
        <time>2022-12-07T11:37:50Z</time>
      </trkpt>
      <trkpt lat="47.91578" lon="-3.95415">
        <ele>46.8</ele>
        <time>2022-12-07T11:37:51Z</time>
      </trkpt>
      <trkpt lat="47.91578" lon="-3.95409">
        <ele>46.6</ele>
        <time>2022-12-07T11:37:52Z</time>
      </trkpt>
      <trkpt lat="47.91578" lon="-3.95404">
        <ele>46.4</ele>
        <time>2022-12-07T11:37:53Z</time>
      </trkpt>
      <trkpt lat="47.91577" lon="-3.954">
        <ele>46.3</ele>
        <time>2022-12-07T11:37:54Z</time>
      </trkpt>
      <trkpt lat="47.91577" lon="-3.95399">
        <ele>46.2</ele>
        <time>2022-12-07T11:37:55Z</time>
      </trkpt>
      <trkpt lat="47.91577" lon="-3.95396">
        <ele>46.1</ele>
        <time>2022-12-07T11:37:56Z</time>
      </trkpt>
      <trkpt lat="47.91575" lon="-3.95395">
        <ele>46</ele>
        <time>2022-12-07T11:37:57Z</time>
      </trkpt>
      <trkpt lat="47.91572" lon="-3.95395">
        <ele>45.9</ele>
        <time>2022-12-07T11:37:58Z</time>
      </trkpt>
      <trkpt lat="47.91568" lon="-3.95394">
        <ele>45.7</ele>
        <time>2022-12-07T11:37:59Z</time>
      </trkpt>
      <trkpt lat="47.91565" lon="-3.95391">
        <ele>45.5</ele>
        <time>2022-12-07T11:38:00Z</time>
      </trkpt>
      <trkpt lat="47.91562" lon="-3.95389">
        <ele>45.4</ele>
        <time>2022-12-07T11:38:01Z</time>
      </trkpt>
      <trkpt lat="47.91561" lon="-3.95388">
        <ele>45.3</ele>
        <time>2022-12-07T11:38:02Z</time>
      </trkpt>
      <trkpt lat="47.91561" lon="-3.95387">
        <ele>45.2</ele>
        <time>2022-12-07T11:38:03Z</time>
      </trkpt>
      <trkpt lat="47.91561" lon="-3.95385">
        <ele>45.1</ele>
        <time>2022-12-07T11:38:04Z</time>
      </trkpt>
      <trkpt lat="47.91561" lon="-3.9538">
        <ele>45</ele>
        <time>2022-12-07T11:38:05Z</time>
      </trkpt>
      <trkpt lat="47.9156" lon="-3.95378">
        <ele>44.9</ele>
        <time>2022-12-07T11:38:06Z</time>
      </trkpt>
      <trkpt lat="47.91557" lon="-3.95372">
        <ele>44.6</ele>
        <time>2022-12-07T11:38:07Z</time>
      </trkpt>
      <trkpt lat="47.91556" lon="-3.95369">
        <ele>44.5</ele>
        <time>2022-12-07T11:38:08Z</time>
      </trkpt>
      <trkpt lat="47.91555" lon="-3.95363">
        <ele>44.3</ele>
        <time>2022-12-07T11:38:09Z</time>
      </trkpt>
      <trkpt lat="47.91555" lon="-3.95361">
        <ele>44.2</ele>
        <time>2022-12-07T11:38:10Z</time>
      </trkpt>
      <trkpt lat="47.91553" lon="-3.95354">
        <ele>43.9</ele>
        <time>2022-12-07T11:38:11Z</time>
      </trkpt>
      <trkpt lat="47.91551" lon="-3.95351">
        <ele>43.7</ele>
        <time>2022-12-07T11:38:12Z</time>
      </trkpt>
      <trkpt lat="47.91548" lon="-3.95346">
        <ele>43.5</ele>
        <time>2022-12-07T11:38:13Z</time>
      </trkpt>
      <trkpt lat="47.91547" lon="-3.9534">
        <ele>43.3</ele>
        <time>2022-12-07T11:38:14Z</time>
      </trkpt>
      <trkpt lat="47.91545" lon="-3.95334">
        <ele>43</ele>
        <time>2022-12-07T11:38:16Z</time>
      </trkpt>
      <trkpt lat="47.91545" lon="-3.95329">
        <ele>42.9</ele>
        <time>2022-12-07T11:38:17Z</time>
      </trkpt>
      <trkpt lat="47.91545" lon="-3.95328">
        <ele>42.8</ele>
        <time>2022-12-07T11:38:18Z</time>
      </trkpt>
      <trkpt lat="47.91545" lon="-3.95326">
        <ele>42.7</ele>
        <time>2022-12-07T11:38:19Z</time>
      </trkpt>
      <trkpt lat="47.91543" lon="-3.95324">
        <ele>42.6</ele>
        <time>2022-12-07T11:38:20Z</time>
      </trkpt>
      <trkpt lat="47.91541" lon="-3.95318">
        <ele>42.4</ele>
        <time>2022-12-07T11:38:21Z</time>
      </trkpt>
      <trkpt lat="47.91541" lon="-3.95311">
        <ele>42.2</ele>
        <time>2022-12-07T11:38:23Z</time>
      </trkpt>
      <trkpt lat="47.91541" lon="-3.95306">
        <ele>42</ele>
        <time>2022-12-07T11:38:24Z</time>
      </trkpt>
      <trkpt lat="47.91539" lon="-3.95301">
        <ele>41.8</ele>
        <time>2022-12-07T11:38:25Z</time>
      </trkpt>
      <trkpt lat="47.91536" lon="-3.95296">
        <ele>41.6</ele>
        <time>2022-12-07T11:38:26Z</time>
      </trkpt>
      <trkpt lat="47.91533" lon="-3.95292">
        <ele>41.4</ele>
        <time>2022-12-07T11:38:27Z</time>
      </trkpt>
      <trkpt lat="47.91532" lon="-3.95285">
        <ele>41.1</ele>
        <time>2022-12-07T11:38:29Z</time>
      </trkpt>
      <trkpt lat="47.91532" lon="-3.95281">
        <ele>41</ele>
        <time>2022-12-07T11:38:30Z</time>
      </trkpt>
      <trkpt lat="47.91533" lon="-3.95276">
        <ele>40.8</ele>
        <time>2022-12-07T11:38:31Z</time>
      </trkpt>
      <trkpt lat="47.91532" lon="-3.95275">
        <ele>40.8</ele>
        <time>2022-12-07T11:38:32Z</time>
      </trkpt>
      <trkpt lat="47.91531" lon="-3.95274">
        <ele>40.7</ele>
        <time>2022-12-07T11:38:33Z</time>
      </trkpt>
      <trkpt lat="47.9153" lon="-3.95274">
        <ele>40.7</ele>
        <time>2022-12-07T11:38:34Z</time>
      </trkpt>
      <trkpt lat="47.9153" lon="-3.95274">
        <ele>40.6</ele>
        <time>2022-12-07T11:38:35Z</time>
      </trkpt>
      <trkpt lat="47.9153" lon="-3.95273">
        <ele>40.6</ele>
        <time>2022-12-07T11:38:37Z</time>
      </trkpt>
      <trkpt lat="47.9153" lon="-3.95273">
        <ele>40.6</ele>
        <time>2022-12-07T11:38:38Z</time>
      </trkpt>
      <trkpt lat="47.9153" lon="-3.95273">
        <ele>40.6</ele>
        <time>2022-12-07T11:38:39Z</time>
      </trkpt>
      <trkpt lat="47.91529" lon="-3.95273">
        <ele>40.6</ele>
        <time>2022-12-07T11:38:40Z</time>
      </trkpt>
      <trkpt lat="47.91529" lon="-3.95272">
        <ele>40.5</ele>
        <time>2022-12-07T11:38:42Z</time>
      </trkpt>
      <trkpt lat="47.91528" lon="-3.95269">
        <ele>40.6</ele>
        <time>2022-12-07T11:38:43Z</time>
      </trkpt>
      <trkpt lat="47.91526" lon="-3.95266">
        <ele>40.3</ele>
        <time>2022-12-07T11:38:44Z</time>
      </trkpt>
      <trkpt lat="47.91525" lon="-3.95264">
        <ele>40.4</ele>
        <time>2022-12-07T11:38:45Z</time>
      </trkpt>
      <trkpt lat="47.91522" lon="-3.95263">
        <ele>40.6</ele>
        <time>2022-12-07T11:38:46Z</time>
      </trkpt>
      <trkpt lat="47.9152" lon="-3.95261">
        <ele>40.7</ele>
        <time>2022-12-07T11:38:47Z</time>
      </trkpt>
      <trkpt lat="47.91517" lon="-3.9526">
        <ele>40.9</ele>
        <time>2022-12-07T11:38:48Z</time>
      </trkpt>
      <trkpt lat="47.91512" lon="-3.95258">
        <ele>41.1</ele>
        <time>2022-12-07T11:38:50Z</time>
      </trkpt>
      <trkpt lat="47.91511" lon="-3.95257">
        <ele>41.2</ele>
        <time>2022-12-07T11:38:51Z</time>
      </trkpt>
      <trkpt lat="47.91509" lon="-3.95256">
        <ele>41.3</ele>
        <time>2022-12-07T11:38:52Z</time>
      </trkpt>
      <trkpt lat="47.91507" lon="-3.95253">
        <ele>42</ele>
        <time>2022-12-07T11:38:53Z</time>
      </trkpt>
      <trkpt lat="47.91506" lon="-3.95252">
        <ele>42.1</ele>
        <time>2022-12-07T11:38:54Z</time>
      </trkpt>
      <trkpt lat="47.91504" lon="-3.95249">
        <ele>41.9</ele>
        <time>2022-12-07T11:38:55Z</time>
      </trkpt>
      <trkpt lat="47.91503" lon="-3.95248">
        <ele>42</ele>
        <time>2022-12-07T11:38:56Z</time>
      </trkpt>
      <trkpt lat="47.91499" lon="-3.95248">
        <ele>42.1</ele>
        <time>2022-12-07T11:38:57Z</time>
      </trkpt>
      <trkpt lat="47.91499" lon="-3.95248">
        <ele>42.2</ele>
        <time>2022-12-07T11:38:58Z</time>
      </trkpt>
      <trkpt lat="47.91496" lon="-3.95245">
        <ele>43.5</ele>
        <time>2022-12-07T11:38:59Z</time>
      </trkpt>
      <trkpt lat="47.91495" lon="-3.95244">
        <ele>43.6</ele>
        <time>2022-12-07T11:39:00Z</time>
      </trkpt>
      <trkpt lat="47.91493" lon="-3.9524">
        <ele>43.7</ele>
        <time>2022-12-07T11:39:01Z</time>
      </trkpt>
      <trkpt lat="47.91493" lon="-3.95238">
        <ele>43.8</ele>
        <time>2022-12-07T11:39:02Z</time>
      </trkpt>
      <trkpt lat="47.9149" lon="-3.95235">
        <ele>44</ele>
        <time>2022-12-07T11:39:03Z</time>
      </trkpt>
      <trkpt lat="47.91488" lon="-3.95234">
        <ele>44.1</ele>
        <time>2022-12-07T11:39:04Z</time>
      </trkpt>
      <trkpt lat="47.91484" lon="-3.95233">
        <ele>45</ele>
        <time>2022-12-07T11:39:06Z</time>
      </trkpt>
      <trkpt lat="47.91484" lon="-3.95231">
        <ele>45.1</ele>
        <time>2022-12-07T11:39:07Z</time>
      </trkpt>
      <trkpt lat="47.91483" lon="-3.9523">
        <ele>45.2</ele>
        <time>2022-12-07T11:39:08Z</time>
      </trkpt>
      <trkpt lat="47.91483" lon="-3.95229">
        <ele>45.3</ele>
        <time>2022-12-07T11:39:09Z</time>
      </trkpt>
      <trkpt lat="47.91483" lon="-3.95228">
        <ele>45.4</ele>
        <time>2022-12-07T11:39:10Z</time>
      </trkpt>
      <trkpt lat="47.91482" lon="-3.95227">
        <ele>45.5</ele>
        <time>2022-12-07T11:39:11Z</time>
      </trkpt>
      <trkpt lat="47.91483" lon="-3.95222">
        <ele>45.7</ele>
        <time>2022-12-07T11:39:13Z</time>
      </trkpt>
      <trkpt lat="47.91483" lon="-3.95221">
        <ele>45.8</ele>
        <time>2022-12-07T11:39:14Z</time>
      </trkpt>
      <trkpt lat="47.91481" lon="-3.95218">
        <ele>45.9</ele>
        <time>2022-12-07T11:39:15Z</time>
      </trkpt>
      <trkpt lat="47.9148" lon="-3.95217">
        <ele>46</ele>
        <time>2022-12-07T11:39:16Z</time>
      </trkpt>
      <trkpt lat="47.91479" lon="-3.95215">
        <ele>45.4</ele>
        <time>2022-12-07T11:39:17Z</time>
      </trkpt>
      <trkpt lat="47.91478" lon="-3.95214">
        <ele>45.5</ele>
        <time>2022-12-07T11:39:18Z</time>
      </trkpt>
      <trkpt lat="47.91478" lon="-3.95213">
        <ele>45.6</ele>
        <time>2022-12-07T11:39:19Z</time>
      </trkpt>
      <trkpt lat="47.91476" lon="-3.95209">
        <ele>45.8</ele>
        <time>2022-12-07T11:39:20Z</time>
      </trkpt>
      <trkpt lat="47.91476" lon="-3.95207">
        <ele>45.9</ele>
        <time>2022-12-07T11:39:21Z</time>
      </trkpt>
      <trkpt lat="47.91475" lon="-3.95203">
        <ele>46</ele>
        <time>2022-12-07T11:39:22Z</time>
      </trkpt>
      <trkpt lat="47.91475" lon="-3.95202">
        <ele>46.1</ele>
        <time>2022-12-07T11:39:23Z</time>
      </trkpt>
      <trkpt lat="47.91475" lon="-3.952">
        <ele>46.2</ele>
        <time>2022-12-07T11:39:24Z</time>
      </trkpt>
      <trkpt lat="47.91475" lon="-3.95197">
        <ele>45.2</ele>
        <time>2022-12-07T11:39:25Z</time>
      </trkpt>
      <trkpt lat="47.91473" lon="-3.95193">
        <ele>45.3</ele>
        <time>2022-12-07T11:39:26Z</time>
      </trkpt>
      <trkpt lat="47.91472" lon="-3.95193">
        <ele>46.3</ele>
        <time>2022-12-07T11:39:27Z</time>
      </trkpt>
      <trkpt lat="47.91469" lon="-3.95193">
        <ele>46.4</ele>
        <time>2022-12-07T11:39:28Z</time>
      </trkpt>
      <trkpt lat="47.91468" lon="-3.95193">
        <ele>46.6</ele>
        <time>2022-12-07T11:39:29Z</time>
      </trkpt>
      <trkpt lat="47.91467" lon="-3.95191">
        <ele>46.7</ele>
        <time>2022-12-07T11:39:30Z</time>
      </trkpt>
      <trkpt lat="47.91467" lon="-3.9519">
        <ele>46.8</ele>
        <time>2022-12-07T11:39:31Z</time>
      </trkpt>
      <trkpt lat="47.91467" lon="-3.95189">
        <ele>46.9</ele>
        <time>2022-12-07T11:39:32Z</time>
      </trkpt>
      <trkpt lat="47.91467" lon="-3.95187">
        <ele>47</ele>
        <time>2022-12-07T11:39:33Z</time>
      </trkpt>
      <trkpt lat="47.91467" lon="-3.95186">
        <ele>47.1</ele>
        <time>2022-12-07T11:39:34Z</time>
      </trkpt>
      <trkpt lat="47.91465" lon="-3.95184">
        <ele>47.2</ele>
        <time>2022-12-07T11:39:35Z</time>
      </trkpt>
      <trkpt lat="47.91464" lon="-3.95182">
        <ele>47.3</ele>
        <time>2022-12-07T11:39:36Z</time>
      </trkpt>
      <trkpt lat="47.91462" lon="-3.95182">
        <ele>47.5</ele>
        <time>2022-12-07T11:39:37Z</time>
      </trkpt>
      <trkpt lat="47.91461" lon="-3.95182">
        <ele>47.7</ele>
        <time>2022-12-07T11:39:38Z</time>
      </trkpt>
      <trkpt lat="47.9146" lon="-3.95181">
        <ele>47.9</ele>
        <time>2022-12-07T11:39:39Z</time>
      </trkpt>
      <trkpt lat="47.91459" lon="-3.9518">
        <ele>48</ele>
        <time>2022-12-07T11:39:40Z</time>
      </trkpt>
      <trkpt lat="47.91457" lon="-3.95177">
        <ele>48.1</ele>
        <time>2022-12-07T11:39:41Z</time>
      </trkpt>
      <trkpt lat="47.91457" lon="-3.95175">
        <ele>48.2</ele>
        <time>2022-12-07T11:39:42Z</time>
      </trkpt>
      <trkpt lat="47.91456" lon="-3.95175">
        <ele>48.3</ele>
        <time>2022-12-07T11:39:43Z</time>
      </trkpt>
      <trkpt lat="47.91455" lon="-3.95174">
        <ele>48.4</ele>
        <time>2022-12-07T11:39:44Z</time>
      </trkpt>
      <trkpt lat="47.91454" lon="-3.95174">
        <ele>48.5</ele>
        <time>2022-12-07T11:39:45Z</time>
      </trkpt>
      <trkpt lat="47.91451" lon="-3.95173">
        <ele>48.7</ele>
        <time>2022-12-07T11:39:46Z</time>
      </trkpt>
      <trkpt lat="47.9145" lon="-3.95172">
        <ele>50.5</ele>
        <time>2022-12-07T11:39:47Z</time>
      </trkpt>
      <trkpt lat="47.91448" lon="-3.95171">
        <ele>50.6</ele>
        <time>2022-12-07T11:39:48Z</time>
      </trkpt>
      <trkpt lat="47.91447" lon="-3.95171">
        <ele>50.8</ele>
        <time>2022-12-07T11:39:49Z</time>
      </trkpt>
      <trkpt lat="47.91446" lon="-3.9517">
        <ele>50.9</ele>
        <time>2022-12-07T11:39:50Z</time>
      </trkpt>
      <trkpt lat="47.91445" lon="-3.9517">
        <ele>51</ele>
        <time>2022-12-07T11:39:51Z</time>
      </trkpt>
      <trkpt lat="47.91444" lon="-3.9517">
        <ele>51.1</ele>
        <time>2022-12-07T11:39:52Z</time>
      </trkpt>
      <trkpt lat="47.91443" lon="-3.9517">
        <ele>51.2</ele>
        <time>2022-12-07T11:39:53Z</time>
      </trkpt>
      <trkpt lat="47.91442" lon="-3.9517">
        <ele>51.3</ele>
        <time>2022-12-07T11:39:54Z</time>
      </trkpt>
      <trkpt lat="47.91441" lon="-3.9517">
        <ele>51.4</ele>
        <time>2022-12-07T11:39:55Z</time>
      </trkpt>
      <trkpt lat="47.9144" lon="-3.9517">
        <ele>51.6</ele>
        <time>2022-12-07T11:39:56Z</time>
      </trkpt>
      <trkpt lat="47.91439" lon="-3.9517">
        <ele>51.7</ele>
        <time>2022-12-07T11:39:57Z</time>
      </trkpt>
      <trkpt lat="47.91438" lon="-3.9517">
        <ele>53.6</ele>
        <time>2022-12-07T11:39:58Z</time>
      </trkpt>
      <trkpt lat="47.91437" lon="-3.95169">
        <ele>53.7</ele>
        <time>2022-12-07T11:39:59Z</time>
      </trkpt>
      <trkpt lat="47.91437" lon="-3.95169">
        <ele>53.8</ele>
        <time>2022-12-07T11:40:00Z</time>
      </trkpt>
      <trkpt lat="47.91436" lon="-3.95168">
        <ele>54</ele>
        <time>2022-12-07T11:40:01Z</time>
      </trkpt>
      <trkpt lat="47.91436" lon="-3.95168">
        <ele>54.1</ele>
        <time>2022-12-07T11:40:02Z</time>
      </trkpt>
      <trkpt lat="47.91436" lon="-3.95167">
        <ele>54.2</ele>
        <time>2022-12-07T11:40:03Z</time>
      </trkpt>
      <trkpt lat="47.91436" lon="-3.95167">
        <ele>54.3</ele>
        <time>2022-12-07T11:40:04Z</time>
      </trkpt>
      <trkpt lat="47.91435" lon="-3.95166">
        <ele>54.4</ele>
        <time>2022-12-07T11:40:05Z</time>
      </trkpt>
      <trkpt lat="47.91434" lon="-3.95165">
        <ele>54.5</ele>
        <time>2022-12-07T11:40:06Z</time>
      </trkpt>
      <trkpt lat="47.91433" lon="-3.95166">
        <ele>54.6</ele>
        <time>2022-12-07T11:40:07Z</time>
      </trkpt>
      <trkpt lat="47.91431" lon="-3.95166">
        <ele>54.7</ele>
        <time>2022-12-07T11:40:08Z</time>
      </trkpt>
      <trkpt lat="47.91431" lon="-3.95165">
        <ele>54.9</ele>
        <time>2022-12-07T11:40:10Z</time>
      </trkpt>
      <trkpt lat="47.9143" lon="-3.95165">
        <ele>55</ele>
        <time>2022-12-07T11:40:11Z</time>
      </trkpt>
      <trkpt lat="47.91427" lon="-3.95164">
        <ele>55.1</ele>
        <time>2022-12-07T11:40:13Z</time>
      </trkpt>
      <trkpt lat="47.91427" lon="-3.95164">
        <ele>55.1</ele>
        <time>2022-12-07T11:40:14Z</time>
      </trkpt>
      <trkpt lat="47.91426" lon="-3.95164">
        <ele>55.1</ele>
        <time>2022-12-07T11:40:15Z</time>
      </trkpt>
      <trkpt lat="47.91426" lon="-3.95164">
        <ele>55.1</ele>
        <time>2022-12-07T11:40:16Z</time>
      </trkpt>
      <trkpt lat="47.91423" lon="-3.95165">
        <ele>55.2</ele>
        <time>2022-12-07T11:40:17Z</time>
      </trkpt>
      <trkpt lat="47.9142" lon="-3.95163">
        <ele>55.4</ele>
        <time>2022-12-07T11:40:19Z</time>
      </trkpt>
      <trkpt lat="47.91419" lon="-3.95163">
        <ele>55.4</ele>
        <time>2022-12-07T11:40:20Z</time>
      </trkpt>
      <trkpt lat="47.91416" lon="-3.95162">
        <ele>55.7</ele>
        <time>2022-12-07T11:40:21Z</time>
      </trkpt>
      <trkpt lat="47.91414" lon="-3.95161">
        <ele>55.8</ele>
        <time>2022-12-07T11:40:23Z</time>
      </trkpt>
      <trkpt lat="47.91413" lon="-3.9516">
        <ele>55.9</ele>
        <time>2022-12-07T11:40:24Z</time>
      </trkpt>
      <trkpt lat="47.91412" lon="-3.9516">
        <ele>56.1</ele>
        <time>2022-12-07T11:40:25Z</time>
      </trkpt>
      <trkpt lat="47.91409" lon="-3.95158">
        <ele>56.4</ele>
        <time>2022-12-07T11:40:26Z</time>
      </trkpt>
      <trkpt lat="47.91408" lon="-3.95158">
        <ele>56.4</ele>
        <time>2022-12-07T11:40:27Z</time>
      </trkpt>
      <trkpt lat="47.91407" lon="-3.95157">
        <ele>56.6</ele>
        <time>2022-12-07T11:40:28Z</time>
      </trkpt>
      <trkpt lat="47.91405" lon="-3.95156">
        <ele>56.8</ele>
        <time>2022-12-07T11:40:29Z</time>
      </trkpt>
      <trkpt lat="47.91402" lon="-3.95155">
        <ele>57.1</ele>
        <time>2022-12-07T11:40:30Z</time>
      </trkpt>
      <trkpt lat="47.91401" lon="-3.95154">
        <ele>57.2</ele>
        <time>2022-12-07T11:40:31Z</time>
      </trkpt>
      <trkpt lat="47.91399" lon="-3.95153">
        <ele>57.4</ele>
        <time>2022-12-07T11:40:32Z</time>
      </trkpt>
      <trkpt lat="47.91397" lon="-3.95152">
        <ele>57.6</ele>
        <time>2022-12-07T11:40:34Z</time>
      </trkpt>
      <trkpt lat="47.91396" lon="-3.95151">
        <ele>57.8</ele>
        <time>2022-12-07T11:40:35Z</time>
      </trkpt>
      <trkpt lat="47.91395" lon="-3.9515">
        <ele>57.9</ele>
        <time>2022-12-07T11:40:36Z</time>
      </trkpt>
      <trkpt lat="47.91392" lon="-3.95148">
        <ele>58.2</ele>
        <time>2022-12-07T11:40:38Z</time>
      </trkpt>
      <trkpt lat="47.91389" lon="-3.95146">
        <ele>58.5</ele>
        <time>2022-12-07T11:40:39Z</time>
      </trkpt>
      <trkpt lat="47.91388" lon="-3.95146">
        <ele>58.6</ele>
        <time>2022-12-07T11:40:40Z</time>
      </trkpt>
      <trkpt lat="47.91387" lon="-3.95144">
        <ele>58.8</ele>
        <time>2022-12-07T11:40:41Z</time>
      </trkpt>
      <trkpt lat="47.91386" lon="-3.95143">
        <ele>58.8</ele>
        <time>2022-12-07T11:40:42Z</time>
      </trkpt>
      <trkpt lat="47.91385" lon="-3.95142">
        <ele>58.9</ele>
        <time>2022-12-07T11:40:43Z</time>
      </trkpt>
      <trkpt lat="47.91384" lon="-3.95141">
        <ele>59</ele>
        <time>2022-12-07T11:40:44Z</time>
      </trkpt>
      <trkpt lat="47.91383" lon="-3.9514">
        <ele>59.2</ele>
        <time>2022-12-07T11:40:45Z</time>
      </trkpt>
      <trkpt lat="47.91379" lon="-3.95138">
        <ele>59.5</ele>
        <time>2022-12-07T11:40:46Z</time>
      </trkpt>
      <trkpt lat="47.91377" lon="-3.95137">
        <ele>59.6</ele>
        <time>2022-12-07T11:40:47Z</time>
      </trkpt>
      <trkpt lat="47.91376" lon="-3.95137">
        <ele>59.7</ele>
        <time>2022-12-07T11:40:48Z</time>
      </trkpt>
      <trkpt lat="47.91375" lon="-3.95136">
        <ele>59.9</ele>
        <time>2022-12-07T11:40:49Z</time>
      </trkpt>
      <trkpt lat="47.91372" lon="-3.95133">
        <ele>60.1</ele>
        <time>2022-12-07T11:40:50Z</time>
      </trkpt>
      <trkpt lat="47.91371" lon="-3.95133">
        <ele>60.2</ele>
        <time>2022-12-07T11:40:51Z</time>
      </trkpt>
      <trkpt lat="47.91368" lon="-3.95132">
        <ele>60.5</ele>
        <time>2022-12-07T11:40:52Z</time>
      </trkpt>
      <trkpt lat="47.91365" lon="-3.95133">
        <ele>60.8</ele>
        <time>2022-12-07T11:40:53Z</time>
      </trkpt>
      <trkpt lat="47.91364" lon="-3.95133">
        <ele>60.9</ele>
        <time>2022-12-07T11:40:54Z</time>
      </trkpt>
      <trkpt lat="47.91362" lon="-3.95132">
        <ele>61.1</ele>
        <time>2022-12-07T11:40:55Z</time>
      </trkpt>
      <trkpt lat="47.91361" lon="-3.95131">
        <ele>61.2</ele>
        <time>2022-12-07T11:40:56Z</time>
      </trkpt>
      <trkpt lat="47.91359" lon="-3.9513">
        <ele>61.4</ele>
        <time>2022-12-07T11:40:57Z</time>
      </trkpt>
      <trkpt lat="47.91358" lon="-3.95131">
        <ele>61.5</ele>
        <time>2022-12-07T11:40:58Z</time>
      </trkpt>
      <trkpt lat="47.91356" lon="-3.9513">
        <ele>61.7</ele>
        <time>2022-12-07T11:40:59Z</time>
      </trkpt>
      <trkpt lat="47.91354" lon="-3.95129">
        <ele>61.8</ele>
        <time>2022-12-07T11:41:00Z</time>
      </trkpt>
      <trkpt lat="47.91353" lon="-3.95129">
        <ele>62</ele>
        <time>2022-12-07T11:41:01Z</time>
      </trkpt>
      <trkpt lat="47.91351" lon="-3.95128">
        <ele>62.1</ele>
        <time>2022-12-07T11:41:02Z</time>
      </trkpt>
      <trkpt lat="47.91348" lon="-3.95128">
        <ele>62.4</ele>
        <time>2022-12-07T11:41:03Z</time>
      </trkpt>
      <trkpt lat="47.91347" lon="-3.95127">
        <ele>62.5</ele>
        <time>2022-12-07T11:41:04Z</time>
      </trkpt>
      <trkpt lat="47.91343" lon="-3.95126">
        <ele>62.8</ele>
        <time>2022-12-07T11:41:06Z</time>
      </trkpt>
      <trkpt lat="47.91339" lon="-3.95125">
        <ele>63.1</ele>
        <time>2022-12-07T11:41:07Z</time>
      </trkpt>
      <trkpt lat="47.91337" lon="-3.95124">
        <ele>63.2</ele>
        <time>2022-12-07T11:41:08Z</time>
      </trkpt>
      <trkpt lat="47.91333" lon="-3.95122">
        <ele>63.5</ele>
        <time>2022-12-07T11:41:10Z</time>
      </trkpt>
      <trkpt lat="47.91331" lon="-3.95121">
        <ele>63.6</ele>
        <time>2022-12-07T11:41:11Z</time>
      </trkpt>
      <trkpt lat="47.9133" lon="-3.95121">
        <ele>63.6</ele>
        <time>2022-12-07T11:41:12Z</time>
      </trkpt>
      <trkpt lat="47.91327" lon="-3.95118">
        <ele>63.8</ele>
        <time>2022-12-07T11:41:13Z</time>
      </trkpt>
      <trkpt lat="47.91326" lon="-3.95117">
        <ele>63.9</ele>
        <time>2022-12-07T11:41:14Z</time>
      </trkpt>
      <trkpt lat="47.91323" lon="-3.95116">
        <ele>64.1</ele>
        <time>2022-12-07T11:41:15Z</time>
      </trkpt>
      <trkpt lat="47.91322" lon="-3.95115">
        <ele>64.2</ele>
        <time>2022-12-07T11:41:16Z</time>
      </trkpt>
      <trkpt lat="47.91318" lon="-3.95115">
        <ele>64.4</ele>
        <time>2022-12-07T11:41:17Z</time>
      </trkpt>
      <trkpt lat="47.91317" lon="-3.95114">
        <ele>64.5</ele>
        <time>2022-12-07T11:41:18Z</time>
      </trkpt>
      <trkpt lat="47.91315" lon="-3.95113">
        <ele>64.6</ele>
        <time>2022-12-07T11:41:19Z</time>
      </trkpt>
      <trkpt lat="47.9131" lon="-3.95111">
        <ele>64.8</ele>
        <time>2022-12-07T11:41:21Z</time>
      </trkpt>
      <trkpt lat="47.91308" lon="-3.95109">
        <ele>65</ele>
        <time>2022-12-07T11:41:22Z</time>
      </trkpt>
      <trkpt lat="47.91305" lon="-3.95107">
        <ele>65.1</ele>
        <time>2022-12-07T11:41:23Z</time>
      </trkpt>
      <trkpt lat="47.91303" lon="-3.95105">
        <ele>65.2</ele>
        <time>2022-12-07T11:41:24Z</time>
      </trkpt>
      <trkpt lat="47.913" lon="-3.95103">
        <ele>65.3</ele>
        <time>2022-12-07T11:41:26Z</time>
      </trkpt>
      <trkpt lat="47.91296" lon="-3.95101">
        <ele>65.4</ele>
        <time>2022-12-07T11:41:27Z</time>
      </trkpt>
      <trkpt lat="47.91295" lon="-3.951">
        <ele>65.5</ele>
        <time>2022-12-07T11:41:28Z</time>
      </trkpt>
      <trkpt lat="47.91292" lon="-3.95098">
        <ele>65.6</ele>
        <time>2022-12-07T11:41:29Z</time>
      </trkpt>
      <trkpt lat="47.91289" lon="-3.95096">
        <ele>65.6</ele>
        <time>2022-12-07T11:41:30Z</time>
      </trkpt>
      <trkpt lat="47.91286" lon="-3.95094">
        <ele>65.7</ele>
        <time>2022-12-07T11:41:31Z</time>
      </trkpt>
      <trkpt lat="47.91284" lon="-3.95093">
        <ele>65.7</ele>
        <time>2022-12-07T11:41:32Z</time>
      </trkpt>
      <trkpt lat="47.91281" lon="-3.95091">
        <ele>65.8</ele>
        <time>2022-12-07T11:41:33Z</time>
      </trkpt>
      <trkpt lat="47.91278" lon="-3.95089">
        <ele>65.8</ele>
        <time>2022-12-07T11:41:34Z</time>
      </trkpt>
      <trkpt lat="47.91275" lon="-3.95086">
        <ele>65.8</ele>
        <time>2022-12-07T11:41:35Z</time>
      </trkpt>
      <trkpt lat="47.91273" lon="-3.95084">
        <ele>65.7</ele>
        <time>2022-12-07T11:41:37Z</time>
      </trkpt>
      <trkpt lat="47.91269" lon="-3.95082">
        <ele>65.7</ele>
        <time>2022-12-07T11:41:38Z</time>
      </trkpt>
      <trkpt lat="47.91266" lon="-3.9508">
        <ele>65.7</ele>
        <time>2022-12-07T11:41:39Z</time>
      </trkpt>
      <trkpt lat="47.91262" lon="-3.95077">
        <ele>65.6</ele>
        <time>2022-12-07T11:41:40Z</time>
      </trkpt>
      <trkpt lat="47.91256" lon="-3.95074">
        <ele>65.5</ele>
        <time>2022-12-07T11:41:41Z</time>
      </trkpt>
      <trkpt lat="47.9125" lon="-3.95073">
        <ele>65.5</ele>
        <time>2022-12-07T11:41:43Z</time>
      </trkpt>
      <trkpt lat="47.91245" lon="-3.95072">
        <ele>65.4</ele>
        <time>2022-12-07T11:41:44Z</time>
      </trkpt>
      <trkpt lat="47.91236" lon="-3.9507">
        <ele>65.5</ele>
        <time>2022-12-07T11:41:46Z</time>
      </trkpt>
      <trkpt lat="47.91228" lon="-3.95067">
        <ele>65.5</ele>
        <time>2022-12-07T11:41:48Z</time>
      </trkpt>
      <trkpt lat="47.9122" lon="-3.95065">
        <ele>65.5</ele>
        <time>2022-12-07T11:41:49Z</time>
      </trkpt>
      <trkpt lat="47.91216" lon="-3.95065">
        <ele>65.5</ele>
        <time>2022-12-07T11:41:50Z</time>
      </trkpt>
      <trkpt lat="47.91214" lon="-3.95064">
        <ele>65.6</ele>
        <time>2022-12-07T11:41:51Z</time>
      </trkpt>
      <trkpt lat="47.91205" lon="-3.95063">
        <ele>65.7</ele>
        <time>2022-12-07T11:41:53Z</time>
      </trkpt>
      <trkpt lat="47.912" lon="-3.95062">
        <ele>65.8</ele>
        <time>2022-12-07T11:41:54Z</time>
      </trkpt>
      <trkpt lat="47.91194" lon="-3.95061">
        <ele>65.8</ele>
        <time>2022-12-07T11:41:56Z</time>
      </trkpt>
      <trkpt lat="47.91188" lon="-3.9506">
        <ele>65.9</ele>
        <time>2022-12-07T11:41:57Z</time>
      </trkpt>
      <trkpt lat="47.91182" lon="-3.95059">
        <ele>66</ele>
        <time>2022-12-07T11:41:58Z</time>
      </trkpt>
      <trkpt lat="47.91175" lon="-3.95058">
        <ele>66.1</ele>
        <time>2022-12-07T11:42:00Z</time>
      </trkpt>
      <trkpt lat="47.91169" lon="-3.95056">
        <ele>66.2</ele>
        <time>2022-12-07T11:42:01Z</time>
      </trkpt>
      <trkpt lat="47.91164" lon="-3.95055">
        <ele>66.3</ele>
        <time>2022-12-07T11:42:03Z</time>
      </trkpt>
      <trkpt lat="47.9116" lon="-3.95054">
        <ele>66.4</ele>
        <time>2022-12-07T11:42:04Z</time>
      </trkpt>
      <trkpt lat="47.91154" lon="-3.95053">
        <ele>66.6</ele>
        <time>2022-12-07T11:42:05Z</time>
      </trkpt>
      <trkpt lat="47.9115" lon="-3.95052">
        <ele>66.7</ele>
        <time>2022-12-07T11:42:06Z</time>
      </trkpt>
      <trkpt lat="47.91145" lon="-3.95052">
        <ele>66.8</ele>
        <time>2022-12-07T11:42:07Z</time>
      </trkpt>
      <trkpt lat="47.91141" lon="-3.95052">
        <ele>67.1</ele>
        <time>2022-12-07T11:42:08Z</time>
      </trkpt>
      <trkpt lat="47.91136" lon="-3.95053">
        <ele>67.4</ele>
        <time>2022-12-07T11:42:09Z</time>
      </trkpt>
      <trkpt lat="47.91132" lon="-3.95056">
        <ele>67.6</ele>
        <time>2022-12-07T11:42:10Z</time>
      </trkpt>
      <trkpt lat="47.91128" lon="-3.95059">
        <ele>67.9</ele>
        <time>2022-12-07T11:42:11Z</time>
      </trkpt>
      <trkpt lat="47.91125" lon="-3.95063">
        <ele>68.2</ele>
        <time>2022-12-07T11:42:12Z</time>
      </trkpt>
      <trkpt lat="47.91121" lon="-3.95066">
        <ele>68.4</ele>
        <time>2022-12-07T11:42:13Z</time>
      </trkpt>
      <trkpt lat="47.91117" lon="-3.95069">
        <ele>68.6</ele>
        <time>2022-12-07T11:42:14Z</time>
      </trkpt>
      <trkpt lat="47.91113" lon="-3.95071">
        <ele>68.9</ele>
        <time>2022-12-07T11:42:15Z</time>
      </trkpt>
      <trkpt lat="47.91109" lon="-3.95074">
        <ele>69.1</ele>
        <time>2022-12-07T11:42:16Z</time>
      </trkpt>
      <trkpt lat="47.91106" lon="-3.95076">
        <ele>69.2</ele>
        <time>2022-12-07T11:42:17Z</time>
      </trkpt>
      <trkpt lat="47.91102" lon="-3.95079">
        <ele>69.3</ele>
        <time>2022-12-07T11:42:18Z</time>
      </trkpt>
      <trkpt lat="47.91098" lon="-3.95082">
        <ele>69.4</ele>
        <time>2022-12-07T11:42:20Z</time>
      </trkpt>
      <trkpt lat="47.91094" lon="-3.95086">
        <ele>69.6</ele>
        <time>2022-12-07T11:42:21Z</time>
      </trkpt>
      <trkpt lat="47.9109" lon="-3.95091">
        <ele>69.7</ele>
        <time>2022-12-07T11:42:22Z</time>
      </trkpt>
      <trkpt lat="47.91083" lon="-3.95098">
        <ele>69.9</ele>
        <time>2022-12-07T11:42:24Z</time>
      </trkpt>
      <trkpt lat="47.91079" lon="-3.95101">
        <ele>70</ele>
        <time>2022-12-07T11:42:25Z</time>
      </trkpt>
      <trkpt lat="47.91075" lon="-3.95105">
        <ele>70.1</ele>
        <time>2022-12-07T11:42:26Z</time>
      </trkpt>
      <trkpt lat="47.91072" lon="-3.95109">
        <ele>70.2</ele>
        <time>2022-12-07T11:42:27Z</time>
      </trkpt>
      <trkpt lat="47.91068" lon="-3.95112">
        <ele>70.2</ele>
        <time>2022-12-07T11:42:28Z</time>
      </trkpt>
      <trkpt lat="47.91064" lon="-3.95116">
        <ele>70.3</ele>
        <time>2022-12-07T11:42:29Z</time>
      </trkpt>
      <trkpt lat="47.9106" lon="-3.95119">
        <ele>70.3</ele>
        <time>2022-12-07T11:42:30Z</time>
      </trkpt>
      <trkpt lat="47.91057" lon="-3.95121">
        <ele>70.4</ele>
        <time>2022-12-07T11:42:31Z</time>
      </trkpt>
      <trkpt lat="47.91053" lon="-3.95126">
        <ele>70.4</ele>
        <time>2022-12-07T11:42:32Z</time>
      </trkpt>
      <trkpt lat="47.91048" lon="-3.9513">
        <ele>70.3</ele>
        <time>2022-12-07T11:42:33Z</time>
      </trkpt>
      <trkpt lat="47.91044" lon="-3.95134">
        <ele>70.1</ele>
        <time>2022-12-07T11:42:34Z</time>
      </trkpt>
      <trkpt lat="47.9104" lon="-3.95137">
        <ele>70</ele>
        <time>2022-12-07T11:42:35Z</time>
      </trkpt>
      <trkpt lat="47.91036" lon="-3.95141">
        <ele>69.8</ele>
        <time>2022-12-07T11:42:36Z</time>
      </trkpt>
      <trkpt lat="47.91032" lon="-3.95145">
        <ele>69.6</ele>
        <time>2022-12-07T11:42:37Z</time>
      </trkpt>
      <trkpt lat="47.91028" lon="-3.95149">
        <ele>69.4</ele>
        <time>2022-12-07T11:42:38Z</time>
      </trkpt>
      <trkpt lat="47.91025" lon="-3.95154">
        <ele>69.2</ele>
        <time>2022-12-07T11:42:39Z</time>
      </trkpt>
      <trkpt lat="47.91021" lon="-3.95159">
        <ele>68.9</ele>
        <time>2022-12-07T11:42:40Z</time>
      </trkpt>
      <trkpt lat="47.91017" lon="-3.95163">
        <ele>68.7</ele>
        <time>2022-12-07T11:42:41Z</time>
      </trkpt>
      <trkpt lat="47.91013" lon="-3.95168">
        <ele>68.4</ele>
        <time>2022-12-07T11:42:42Z</time>
      </trkpt>
      <trkpt lat="47.91009" lon="-3.95173">
        <ele>68.1</ele>
        <time>2022-12-07T11:42:43Z</time>
      </trkpt>
      <trkpt lat="47.91004" lon="-3.95178">
        <ele>67.9</ele>
        <time>2022-12-07T11:42:44Z</time>
      </trkpt>
      <trkpt lat="47.91" lon="-3.95184">
        <ele>67.6</ele>
        <time>2022-12-07T11:42:45Z</time>
      </trkpt>
      <trkpt lat="47.90996" lon="-3.9519">
        <ele>67.2</ele>
        <time>2022-12-07T11:42:46Z</time>
      </trkpt>
      <trkpt lat="47.90992" lon="-3.95196">
        <ele>66.9</ele>
        <time>2022-12-07T11:42:47Z</time>
      </trkpt>
      <trkpt lat="47.90988" lon="-3.95203">
        <ele>66.7</ele>
        <time>2022-12-07T11:42:48Z</time>
      </trkpt>
      <trkpt lat="47.90984" lon="-3.95209">
        <ele>66.4</ele>
        <time>2022-12-07T11:42:49Z</time>
      </trkpt>
      <trkpt lat="47.9098" lon="-3.95216">
        <ele>66.1</ele>
        <time>2022-12-07T11:42:50Z</time>
      </trkpt>
      <trkpt lat="47.90976" lon="-3.95223">
        <ele>65.8</ele>
        <time>2022-12-07T11:42:51Z</time>
      </trkpt>
      <trkpt lat="47.90972" lon="-3.9523">
        <ele>65.5</ele>
        <time>2022-12-07T11:42:52Z</time>
      </trkpt>
      <trkpt lat="47.90968" lon="-3.95237">
        <ele>65.3</ele>
        <time>2022-12-07T11:42:53Z</time>
      </trkpt>
      <trkpt lat="47.90964" lon="-3.95244">
        <ele>65</ele>
        <time>2022-12-07T11:42:54Z</time>
      </trkpt>
      <trkpt lat="47.9096" lon="-3.95251">
        <ele>64.8</ele>
        <time>2022-12-07T11:42:55Z</time>
      </trkpt>
      <trkpt lat="47.90957" lon="-3.95259">
        <ele>64.6</ele>
        <time>2022-12-07T11:42:56Z</time>
      </trkpt>
      <trkpt lat="47.90953" lon="-3.95266">
        <ele>64.4</ele>
        <time>2022-12-07T11:42:57Z</time>
      </trkpt>
      <trkpt lat="47.9095" lon="-3.95273">
        <ele>64.3</ele>
        <time>2022-12-07T11:42:58Z</time>
      </trkpt>
      <trkpt lat="47.90947" lon="-3.9528">
        <ele>64.2</ele>
        <time>2022-12-07T11:42:59Z</time>
      </trkpt>
      <trkpt lat="47.90944" lon="-3.95286">
        <ele>64</ele>
        <time>2022-12-07T11:43:00Z</time>
      </trkpt>
      <trkpt lat="47.90941" lon="-3.95293">
        <ele>63.9</ele>
        <time>2022-12-07T11:43:01Z</time>
      </trkpt>
      <trkpt lat="47.90938" lon="-3.95298">
        <ele>63.8</ele>
        <time>2022-12-07T11:43:02Z</time>
      </trkpt>
      <trkpt lat="47.90937" lon="-3.95304">
        <ele>63.7</ele>
        <time>2022-12-07T11:43:03Z</time>
      </trkpt>
      <trkpt lat="47.90937" lon="-3.95308">
        <ele>63.7</ele>
        <time>2022-12-07T11:43:04Z</time>
      </trkpt>
      <trkpt lat="47.90937" lon="-3.95313">
        <ele>63.6</ele>
        <time>2022-12-07T11:43:05Z</time>
      </trkpt>
      <trkpt lat="47.90936" lon="-3.95318">
        <ele>63.6</ele>
        <time>2022-12-07T11:43:06Z</time>
      </trkpt>
      <trkpt lat="47.90933" lon="-3.95322">
        <ele>63.7</ele>
        <time>2022-12-07T11:43:07Z</time>
      </trkpt>
      <trkpt lat="47.9093" lon="-3.95325">
        <ele>63.8</ele>
        <time>2022-12-07T11:43:08Z</time>
      </trkpt>
      <trkpt lat="47.90926" lon="-3.95328">
        <ele>63.8</ele>
        <time>2022-12-07T11:43:09Z</time>
      </trkpt>
      <trkpt lat="47.90921" lon="-3.9533">
        <ele>63.8</ele>
        <time>2022-12-07T11:43:10Z</time>
      </trkpt>
      <trkpt lat="47.90917" lon="-3.95333">
        <ele>63.7</ele>
        <time>2022-12-07T11:43:11Z</time>
      </trkpt>
      <trkpt lat="47.90912" lon="-3.95336">
        <ele>63.7</ele>
        <time>2022-12-07T11:43:12Z</time>
      </trkpt>
      <trkpt lat="47.90908" lon="-3.9534">
        <ele>63.6</ele>
        <time>2022-12-07T11:43:13Z</time>
      </trkpt>
      <trkpt lat="47.90903" lon="-3.95343">
        <ele>63.5</ele>
        <time>2022-12-07T11:43:14Z</time>
      </trkpt>
      <trkpt lat="47.90899" lon="-3.95345">
        <ele>63.3</ele>
        <time>2022-12-07T11:43:15Z</time>
      </trkpt>
      <trkpt lat="47.90895" lon="-3.95344">
        <ele>63.3</ele>
        <time>2022-12-07T11:43:16Z</time>
      </trkpt>
      <trkpt lat="47.90893" lon="-3.95341">
        <ele>63.2</ele>
        <time>2022-12-07T11:43:17Z</time>
      </trkpt>
      <trkpt lat="47.90892" lon="-3.95337">
        <ele>63.2</ele>
        <time>2022-12-07T11:43:18Z</time>
      </trkpt>
      <trkpt lat="47.90891" lon="-3.95332">
        <ele>63.2</ele>
        <time>2022-12-07T11:43:19Z</time>
      </trkpt>
      <trkpt lat="47.90892" lon="-3.95327">
        <ele>63.2</ele>
        <time>2022-12-07T11:43:20Z</time>
      </trkpt>
      <trkpt lat="47.90893" lon="-3.95325">
        <ele>63.1</ele>
        <time>2022-12-07T11:43:21Z</time>
      </trkpt>
      <trkpt lat="47.90895" lon="-3.9532">
        <ele>63.1</ele>
        <time>2022-12-07T11:43:22Z</time>
      </trkpt>
      <trkpt lat="47.90897" lon="-3.95308">
        <ele>63</ele>
        <time>2022-12-07T11:43:24Z</time>
      </trkpt>
      <trkpt lat="47.90896" lon="-3.95302">
        <ele>62.9</ele>
        <time>2022-12-07T11:43:25Z</time>
      </trkpt>
      <trkpt lat="47.90895" lon="-3.95296">
        <ele>62.9</ele>
        <time>2022-12-07T11:43:26Z</time>
      </trkpt>
      <trkpt lat="47.90896" lon="-3.95287">
        <ele>62.8</ele>
        <time>2022-12-07T11:43:27Z</time>
      </trkpt>
      <trkpt lat="47.90896" lon="-3.95279">
        <ele>62.7</ele>
        <time>2022-12-07T11:43:28Z</time>
      </trkpt>
      <trkpt lat="47.90897" lon="-3.95272">
        <ele>62.6</ele>
        <time>2022-12-07T11:43:29Z</time>
      </trkpt>
      <trkpt lat="47.90897" lon="-3.95264">
        <ele>62.5</ele>
        <time>2022-12-07T11:43:30Z</time>
      </trkpt>
      <trkpt lat="47.90898" lon="-3.95256">
        <ele>62.3</ele>
        <time>2022-12-07T11:43:31Z</time>
      </trkpt>
      <trkpt lat="47.90898" lon="-3.95248">
        <ele>62.1</ele>
        <time>2022-12-07T11:43:32Z</time>
      </trkpt>
      <trkpt lat="47.90898" lon="-3.95241">
        <ele>61.9</ele>
        <time>2022-12-07T11:43:33Z</time>
      </trkpt>
      <trkpt lat="47.90897" lon="-3.95233">
        <ele>61.6</ele>
        <time>2022-12-07T11:43:34Z</time>
      </trkpt>
      <trkpt lat="47.90897" lon="-3.95225">
        <ele>61.3</ele>
        <time>2022-12-07T11:43:35Z</time>
      </trkpt>
      <trkpt lat="47.90895" lon="-3.95217">
        <ele>61</ele>
        <time>2022-12-07T11:43:36Z</time>
      </trkpt>
      <trkpt lat="47.90893" lon="-3.95208">
        <ele>60.5</ele>
        <time>2022-12-07T11:43:37Z</time>
      </trkpt>
      <trkpt lat="47.90891" lon="-3.95199">
        <ele>59.9</ele>
        <time>2022-12-07T11:43:38Z</time>
      </trkpt>
      <trkpt lat="47.90889" lon="-3.9519">
        <ele>59.3</ele>
        <time>2022-12-07T11:43:39Z</time>
      </trkpt>
      <trkpt lat="47.90886" lon="-3.9518">
        <ele>58.6</ele>
        <time>2022-12-07T11:43:40Z</time>
      </trkpt>
      <trkpt lat="47.90883" lon="-3.9517">
        <ele>57.8</ele>
        <time>2022-12-07T11:43:41Z</time>
      </trkpt>
      <trkpt lat="47.9088" lon="-3.9516">
        <ele>57</ele>
        <time>2022-12-07T11:43:42Z</time>
      </trkpt>
      <trkpt lat="47.90877" lon="-3.9515">
        <ele>56.2</ele>
        <time>2022-12-07T11:43:43Z</time>
      </trkpt>
      <trkpt lat="47.90874" lon="-3.9514">
        <ele>55.3</ele>
        <time>2022-12-07T11:43:44Z</time>
      </trkpt>
      <trkpt lat="47.90872" lon="-3.95129">
        <ele>54.4</ele>
        <time>2022-12-07T11:43:45Z</time>
      </trkpt>
      <trkpt lat="47.9087" lon="-3.95118">
        <ele>53.5</ele>
        <time>2022-12-07T11:43:46Z</time>
      </trkpt>
      <trkpt lat="47.9087" lon="-3.95107">
        <ele>52.6</ele>
        <time>2022-12-07T11:43:47Z</time>
      </trkpt>
      <trkpt lat="47.90871" lon="-3.95096">
        <ele>51.5</ele>
        <time>2022-12-07T11:43:48Z</time>
      </trkpt>
      <trkpt lat="47.90874" lon="-3.95084">
        <ele>50.3</ele>
        <time>2022-12-07T11:43:49Z</time>
      </trkpt>
      <trkpt lat="47.90878" lon="-3.95073">
        <ele>49.1</ele>
        <time>2022-12-07T11:43:50Z</time>
      </trkpt>
      <trkpt lat="47.90883" lon="-3.95062">
        <ele>47.8</ele>
        <time>2022-12-07T11:43:51Z</time>
      </trkpt>
      <trkpt lat="47.90888" lon="-3.95051">
        <ele>46.4</ele>
        <time>2022-12-07T11:43:52Z</time>
      </trkpt>
      <trkpt lat="47.90893" lon="-3.95038">
        <ele>44.8</ele>
        <time>2022-12-07T11:43:53Z</time>
      </trkpt>
      <trkpt lat="47.90899" lon="-3.95025">
        <ele>43.1</ele>
        <time>2022-12-07T11:43:54Z</time>
      </trkpt>
      <trkpt lat="47.90904" lon="-3.95013">
        <ele>41.7</ele>
        <time>2022-12-07T11:43:55Z</time>
      </trkpt>
      <trkpt lat="47.90908" lon="-3.95002">
        <ele>40.5</ele>
        <time>2022-12-07T11:43:56Z</time>
      </trkpt>
      <trkpt lat="47.90909" lon="-3.9499">
        <ele>39.3</ele>
        <time>2022-12-07T11:43:57Z</time>
      </trkpt>
      <trkpt lat="47.9091" lon="-3.94978">
        <ele>38.1</ele>
        <time>2022-12-07T11:43:58Z</time>
      </trkpt>
      <trkpt lat="47.90909" lon="-3.94966">
        <ele>36.9</ele>
        <time>2022-12-07T11:43:59Z</time>
      </trkpt>
      <trkpt lat="47.90909" lon="-3.94955">
        <ele>35.8</ele>
        <time>2022-12-07T11:44:00Z</time>
      </trkpt>
      <trkpt lat="47.90907" lon="-3.94944">
        <ele>34.5</ele>
        <time>2022-12-07T11:44:01Z</time>
      </trkpt>
      <trkpt lat="47.90904" lon="-3.94935">
        <ele>33.3</ele>
        <time>2022-12-07T11:44:02Z</time>
      </trkpt>
      <trkpt lat="47.90902" lon="-3.94926">
        <ele>32.3</ele>
        <time>2022-12-07T11:44:03Z</time>
      </trkpt>
      <trkpt lat="47.909" lon="-3.94918">
        <ele>31.2</ele>
        <time>2022-12-07T11:44:04Z</time>
      </trkpt>
      <trkpt lat="47.90896" lon="-3.94911">
        <ele>30.2</ele>
        <time>2022-12-07T11:44:05Z</time>
      </trkpt>
      <trkpt lat="47.90891" lon="-3.94903">
        <ele>28.9</ele>
        <time>2022-12-07T11:44:06Z</time>
      </trkpt>
      <trkpt lat="47.90885" lon="-3.94896">
        <ele>27.5</ele>
        <time>2022-12-07T11:44:07Z</time>
      </trkpt>
      <trkpt lat="47.90878" lon="-3.9489">
        <ele>26.2</ele>
        <time>2022-12-07T11:44:08Z</time>
      </trkpt>
      <trkpt lat="47.90871" lon="-3.94884">
        <ele>24.9</ele>
        <time>2022-12-07T11:44:09Z</time>
      </trkpt>
      <trkpt lat="47.90864" lon="-3.94878">
        <ele>23.7</ele>
        <time>2022-12-07T11:44:10Z</time>
      </trkpt>
      <trkpt lat="47.90856" lon="-3.94871">
        <ele>22.5</ele>
        <time>2022-12-07T11:44:11Z</time>
      </trkpt>
      <trkpt lat="47.90849" lon="-3.94863">
        <ele>21.4</ele>
        <time>2022-12-07T11:44:12Z</time>
      </trkpt>
      <trkpt lat="47.90843" lon="-3.94857">
        <ele>20.4</ele>
        <time>2022-12-07T11:44:13Z</time>
      </trkpt>
      <trkpt lat="47.90837" lon="-3.94851">
        <ele>19.6</ele>
        <time>2022-12-07T11:44:14Z</time>
      </trkpt>
      <trkpt lat="47.90831" lon="-3.94847">
        <ele>18.8</ele>
        <time>2022-12-07T11:44:15Z</time>
      </trkpt>
      <trkpt lat="47.90826" lon="-3.94843">
        <ele>18.1</ele>
        <time>2022-12-07T11:44:16Z</time>
      </trkpt>
      <trkpt lat="47.90822" lon="-3.94839">
        <ele>17.5</ele>
        <time>2022-12-07T11:44:17Z</time>
      </trkpt>
      <trkpt lat="47.90818" lon="-3.94836">
        <ele>16.9</ele>
        <time>2022-12-07T11:44:18Z</time>
      </trkpt>
      <trkpt lat="47.90813" lon="-3.94833">
        <ele>16.3</ele>
        <time>2022-12-07T11:44:19Z</time>
      </trkpt>
      <trkpt lat="47.9081" lon="-3.94829">
        <ele>15.7</ele>
        <time>2022-12-07T11:44:20Z</time>
      </trkpt>
      <trkpt lat="47.90806" lon="-3.94825">
        <ele>15.1</ele>
        <time>2022-12-07T11:44:21Z</time>
      </trkpt>
      <trkpt lat="47.90801" lon="-3.94822">
        <ele>14.5</ele>
        <time>2022-12-07T11:44:22Z</time>
      </trkpt>
      <trkpt lat="47.90796" lon="-3.94818">
        <ele>13.7</ele>
        <time>2022-12-07T11:44:23Z</time>
      </trkpt>
      <trkpt lat="47.9079" lon="-3.94812">
        <ele>12.9</ele>
        <time>2022-12-07T11:44:24Z</time>
      </trkpt>
      <trkpt lat="47.90784" lon="-3.94806">
        <ele>12.2</ele>
        <time>2022-12-07T11:44:25Z</time>
      </trkpt>
      <trkpt lat="47.90778" lon="-3.94801">
        <ele>11.4</ele>
        <time>2022-12-07T11:44:26Z</time>
      </trkpt>
      <trkpt lat="47.90771" lon="-3.94795">
        <ele>10.7</ele>
        <time>2022-12-07T11:44:27Z</time>
      </trkpt>
      <trkpt lat="47.90765" lon="-3.94788">
        <ele>10.1</ele>
        <time>2022-12-07T11:44:28Z</time>
      </trkpt>
      <trkpt lat="47.90759" lon="-3.94781">
        <ele>9.6</ele>
        <time>2022-12-07T11:44:29Z</time>
      </trkpt>
      <trkpt lat="47.90753" lon="-3.94774">
        <ele>9.3</ele>
        <time>2022-12-07T11:44:30Z</time>
      </trkpt>
      <trkpt lat="47.90748" lon="-3.94769">
        <ele>9</ele>
        <time>2022-12-07T11:44:31Z</time>
      </trkpt>
      <trkpt lat="47.90741" lon="-3.94766">
        <ele>8.8</ele>
        <time>2022-12-07T11:44:32Z</time>
      </trkpt>
      <trkpt lat="47.90735" lon="-3.94763">
        <ele>8.6</ele>
        <time>2022-12-07T11:44:33Z</time>
      </trkpt>
      <trkpt lat="47.9073" lon="-3.94759">
        <ele>8.5</ele>
        <time>2022-12-07T11:44:34Z</time>
      </trkpt>
      <trkpt lat="47.90724" lon="-3.94753">
        <ele>8.4</ele>
        <time>2022-12-07T11:44:35Z</time>
      </trkpt>
      <trkpt lat="47.90719" lon="-3.94747">
        <ele>8.4</ele>
        <time>2022-12-07T11:44:36Z</time>
      </trkpt>
      <trkpt lat="47.90716" lon="-3.94741">
        <ele>8.3</ele>
        <time>2022-12-07T11:44:37Z</time>
      </trkpt>
      <trkpt lat="47.90715" lon="-3.94735">
        <ele>8.3</ele>
        <time>2022-12-07T11:44:38Z</time>
      </trkpt>
      <trkpt lat="47.90713" lon="-3.94731">
        <ele>8.3</ele>
        <time>2022-12-07T11:44:39Z</time>
      </trkpt>
      <trkpt lat="47.9071" lon="-3.9473">
        <ele>8.3</ele>
        <time>2022-12-07T11:44:40Z</time>
      </trkpt>
      <trkpt lat="47.90705" lon="-3.9473">
        <ele>8.3</ele>
        <time>2022-12-07T11:44:41Z</time>
      </trkpt>
      <trkpt lat="47.90701" lon="-3.9473">
        <ele>8.3</ele>
        <time>2022-12-07T11:44:42Z</time>
      </trkpt>
      <trkpt lat="47.90696" lon="-3.94729">
        <ele>8.3</ele>
        <time>2022-12-07T11:44:43Z</time>
      </trkpt>
      <trkpt lat="47.90692" lon="-3.94726">
        <ele>8.3</ele>
        <time>2022-12-07T11:44:44Z</time>
      </trkpt>
      <trkpt lat="47.90687" lon="-3.94724">
        <ele>8.3</ele>
        <time>2022-12-07T11:44:45Z</time>
      </trkpt>
      <trkpt lat="47.90681" lon="-3.94721">
        <ele>8.3</ele>
        <time>2022-12-07T11:44:46Z</time>
      </trkpt>
      <trkpt lat="47.90677" lon="-3.94719">
        <ele>8.4</ele>
        <time>2022-12-07T11:44:47Z</time>
      </trkpt>
      <trkpt lat="47.90673" lon="-3.94716">
        <ele>8.4</ele>
        <time>2022-12-07T11:44:48Z</time>
      </trkpt>
      <trkpt lat="47.90669" lon="-3.94712">
        <ele>8.5</ele>
        <time>2022-12-07T11:44:49Z</time>
      </trkpt>
      <trkpt lat="47.90665" lon="-3.94709">
        <ele>8.6</ele>
        <time>2022-12-07T11:44:50Z</time>
      </trkpt>
      <trkpt lat="47.90661" lon="-3.94705">
        <ele>8.7</ele>
        <time>2022-12-07T11:44:51Z</time>
      </trkpt>
      <trkpt lat="47.90657" lon="-3.94702">
        <ele>8.8</ele>
        <time>2022-12-07T11:44:52Z</time>
      </trkpt>
      <trkpt lat="47.90652" lon="-3.94699">
        <ele>8.9</ele>
        <time>2022-12-07T11:44:53Z</time>
      </trkpt>
      <trkpt lat="47.90648" lon="-3.94695">
        <ele>9.1</ele>
        <time>2022-12-07T11:44:54Z</time>
      </trkpt>
      <trkpt lat="47.90644" lon="-3.94692">
        <ele>9.2</ele>
        <time>2022-12-07T11:44:55Z</time>
      </trkpt>
      <trkpt lat="47.90639" lon="-3.94689">
        <ele>9.4</ele>
        <time>2022-12-07T11:44:56Z</time>
      </trkpt>
      <trkpt lat="47.90635" lon="-3.94686">
        <ele>9.5</ele>
        <time>2022-12-07T11:44:57Z</time>
      </trkpt>
      <trkpt lat="47.90631" lon="-3.94683">
        <ele>9.6</ele>
        <time>2022-12-07T11:44:58Z</time>
      </trkpt>
      <trkpt lat="47.90627" lon="-3.94679">
        <ele>9.7</ele>
        <time>2022-12-07T11:44:59Z</time>
      </trkpt>
      <trkpt lat="47.90623" lon="-3.94676">
        <ele>9.8</ele>
        <time>2022-12-07T11:45:00Z</time>
      </trkpt>
      <trkpt lat="47.90619" lon="-3.94673">
        <ele>9.8</ele>
        <time>2022-12-07T11:45:01Z</time>
      </trkpt>
      <trkpt lat="47.90615" lon="-3.94668">
        <ele>9.9</ele>
        <time>2022-12-07T11:45:02Z</time>
      </trkpt>
      <trkpt lat="47.90611" lon="-3.94664">
        <ele>9.9</ele>
        <time>2022-12-07T11:45:03Z</time>
      </trkpt>
      <trkpt lat="47.90607" lon="-3.94659">
        <ele>9.9</ele>
        <time>2022-12-07T11:45:04Z</time>
      </trkpt>
      <trkpt lat="47.90603" lon="-3.94655">
        <ele>9.8</ele>
        <time>2022-12-07T11:45:05Z</time>
      </trkpt>
      <trkpt lat="47.90599" lon="-3.94651">
        <ele>9.8</ele>
        <time>2022-12-07T11:45:06Z</time>
      </trkpt>
      <trkpt lat="47.90594" lon="-3.94646">
        <ele>9.7</ele>
        <time>2022-12-07T11:45:07Z</time>
      </trkpt>
      <trkpt lat="47.9059" lon="-3.94641">
        <ele>9.6</ele>
        <time>2022-12-07T11:45:08Z</time>
      </trkpt>
      <trkpt lat="47.90585" lon="-3.94636">
        <ele>9.4</ele>
        <time>2022-12-07T11:45:09Z</time>
      </trkpt>
      <trkpt lat="47.9058" lon="-3.94631">
        <ele>9.2</ele>
        <time>2022-12-07T11:45:10Z</time>
      </trkpt>
      <trkpt lat="47.90575" lon="-3.94626">
        <ele>9.1</ele>
        <time>2022-12-07T11:45:11Z</time>
      </trkpt>
      <trkpt lat="47.9057" lon="-3.94621">
        <ele>8.9</ele>
        <time>2022-12-07T11:45:12Z</time>
      </trkpt>
      <trkpt lat="47.90565" lon="-3.94615">
        <ele>8.7</ele>
        <time>2022-12-07T11:45:13Z</time>
      </trkpt>
      <trkpt lat="47.9056" lon="-3.94609">
        <ele>8.5</ele>
        <time>2022-12-07T11:45:14Z</time>
      </trkpt>
      <trkpt lat="47.90554" lon="-3.94603">
        <ele>8.3</ele>
        <time>2022-12-07T11:45:15Z</time>
      </trkpt>
      <trkpt lat="47.90549" lon="-3.94597">
        <ele>8.1</ele>
        <time>2022-12-07T11:45:16Z</time>
      </trkpt>
      <trkpt lat="47.90543" lon="-3.94591">
        <ele>8</ele>
        <time>2022-12-07T11:45:17Z</time>
      </trkpt>
      <trkpt lat="47.90538" lon="-3.94585">
        <ele>7.8</ele>
        <time>2022-12-07T11:45:18Z</time>
      </trkpt>
      <trkpt lat="47.90532" lon="-3.94578">
        <ele>7.7</ele>
        <time>2022-12-07T11:45:19Z</time>
      </trkpt>
      <trkpt lat="47.90527" lon="-3.94572">
        <ele>7.6</ele>
        <time>2022-12-07T11:45:20Z</time>
      </trkpt>
      <trkpt lat="47.90521" lon="-3.94566">
        <ele>7.6</ele>
        <time>2022-12-07T11:45:21Z</time>
      </trkpt>
      <trkpt lat="47.90515" lon="-3.94562">
        <ele>7.7</ele>
        <time>2022-12-07T11:45:22Z</time>
      </trkpt>
      <trkpt lat="47.90509" lon="-3.94557">
        <ele>7.7</ele>
        <time>2022-12-07T11:45:23Z</time>
      </trkpt>
      <trkpt lat="47.90504" lon="-3.94553">
        <ele>7.7</ele>
        <time>2022-12-07T11:45:24Z</time>
      </trkpt>
      <trkpt lat="47.905" lon="-3.9455">
        <ele>7.8</ele>
        <time>2022-12-07T11:45:25Z</time>
      </trkpt>
      <trkpt lat="47.90496" lon="-3.94548">
        <ele>7.9</ele>
        <time>2022-12-07T11:45:26Z</time>
      </trkpt>
      <trkpt lat="47.90492" lon="-3.94545">
        <ele>8</ele>
        <time>2022-12-07T11:45:27Z</time>
      </trkpt>
      <trkpt lat="47.90492" lon="-3.94541">
        <ele>8</ele>
        <time>2022-12-07T11:45:28Z</time>
      </trkpt>
      <trkpt lat="47.90493" lon="-3.9454">
        <ele>8</ele>
        <time>2022-12-07T11:45:29Z</time>
      </trkpt>
      <trkpt lat="47.90496" lon="-3.94541">
        <ele>7.9</ele>
        <time>2022-12-07T11:45:30Z</time>
      </trkpt>
      <trkpt lat="47.905" lon="-3.94541">
        <ele>7.8</ele>
        <time>2022-12-07T11:45:31Z</time>
      </trkpt>
      <trkpt lat="47.90502" lon="-3.94542">
        <ele>7.8</ele>
        <time>2022-12-07T11:45:32Z</time>
      </trkpt>
      <trkpt lat="47.90505" lon="-3.94545">
        <ele>7.8</ele>
        <time>2022-12-07T11:45:33Z</time>
      </trkpt>
      <trkpt lat="47.90509" lon="-3.94552">
        <ele>7.7</ele>
        <time>2022-12-07T11:45:34Z</time>
      </trkpt>
      <trkpt lat="47.90512" lon="-3.94558">
        <ele>7.7</ele>
        <time>2022-12-07T11:45:35Z</time>
      </trkpt>
      <trkpt lat="47.90516" lon="-3.94562">
        <ele>7.7</ele>
        <time>2022-12-07T11:45:36Z</time>
      </trkpt>
      <trkpt lat="47.9052" lon="-3.94566">
        <ele>7.6</ele>
        <time>2022-12-07T11:45:37Z</time>
      </trkpt>
      <trkpt lat="47.90524" lon="-3.94569">
        <ele>7.6</ele>
        <time>2022-12-07T11:45:38Z</time>
      </trkpt>
      <trkpt lat="47.90528" lon="-3.94573">
        <ele>7.6</ele>
        <time>2022-12-07T11:45:39Z</time>
      </trkpt>
      <trkpt lat="47.90532" lon="-3.94577">
        <ele>7.7</ele>
        <time>2022-12-07T11:45:40Z</time>
      </trkpt>
      <trkpt lat="47.90535" lon="-3.94581">
        <ele>7.7</ele>
        <time>2022-12-07T11:45:41Z</time>
      </trkpt>
      <trkpt lat="47.90532" lon="-3.94583">
        <ele>7.7</ele>
        <time>2022-12-07T11:45:42Z</time>
      </trkpt>
      <trkpt lat="47.90531" lon="-3.94583">
        <ele>7.7</ele>
        <time>2022-12-07T11:45:43Z</time>
      </trkpt>
      <trkpt lat="47.90528" lon="-3.94582">
        <ele>7.7</ele>
        <time>2022-12-07T11:45:44Z</time>
      </trkpt>
      <trkpt lat="47.90527" lon="-3.94581">
        <ele>7.7</ele>
        <time>2022-12-07T11:45:45Z</time>
      </trkpt>
      <trkpt lat="47.90522" lon="-3.94578">
        <ele>7.7</ele>
        <time>2022-12-07T11:45:46Z</time>
      </trkpt>
      <trkpt lat="47.9052" lon="-3.94576">
        <ele>7.6</ele>
        <time>2022-12-07T11:45:47Z</time>
      </trkpt>
      <trkpt lat="47.90518" lon="-3.94576">
        <ele>7.6</ele>
        <time>2022-12-07T11:45:48Z</time>
      </trkpt>
      <trkpt lat="47.90516" lon="-3.94576">
        <ele>7.6</ele>
        <time>2022-12-07T11:45:49Z</time>
      </trkpt>
      <trkpt lat="47.90515" lon="-3.94578">
        <ele>7.6</ele>
        <time>2022-12-07T11:45:50Z</time>
      </trkpt>
      <trkpt lat="47.90515" lon="-3.94581">
        <ele>7.6</ele>
        <time>2022-12-07T11:45:51Z</time>
      </trkpt>
      <trkpt lat="47.90514" lon="-3.94584">
        <ele>7.6</ele>
        <time>2022-12-07T11:45:53Z</time>
      </trkpt>
      <trkpt lat="47.90514" lon="-3.94585">
        <ele>7.6</ele>
        <time>2022-12-07T11:45:54Z</time>
      </trkpt>
      <trkpt lat="47.90514" lon="-3.94585">
        <ele>7.6</ele>
        <time>2022-12-07T11:45:55Z</time>
      </trkpt>
      <trkpt lat="47.90514" lon="-3.94585">
        <ele>7.6</ele>
        <time>2022-12-07T11:45:57Z</time>
      </trkpt>
      <trkpt lat="47.90514" lon="-3.94585">
        <ele>7.6</ele>
        <time>2022-12-07T11:45:58Z</time>
      </trkpt>
      <trkpt lat="47.90514" lon="-3.94584">
        <ele>7.6</ele>
        <time>2022-12-07T11:45:59Z</time>
      </trkpt>
      <trkpt lat="47.90514" lon="-3.94584">
        <ele>7.6</ele>
        <time>2022-12-07T11:46:01Z</time>
      </trkpt>
      <trkpt lat="47.90515" lon="-3.94584">
        <ele>7.6</ele>
        <time>2022-12-07T11:46:02Z</time>
      </trkpt>
      <trkpt lat="47.90515" lon="-3.94584">
        <ele>7.6</ele>
        <time>2022-12-07T11:46:03Z</time>
      </trkpt>
      <trkpt lat="47.90515" lon="-3.94584">
        <ele>7.6</ele>
        <time>2022-12-07T11:46:04Z</time>
      </trkpt>
      <trkpt lat="47.90515" lon="-3.94583">
        <ele>7.6</ele>
        <time>2022-12-07T11:46:06Z</time>
      </trkpt>
      <trkpt lat="47.90515" lon="-3.94583">
        <ele>7.6</ele>
        <time>2022-12-07T11:46:08Z</time>
      </trkpt>
      <trkpt lat="47.90515" lon="-3.94583">
        <ele>7.6</ele>
        <time>2022-12-07T11:46:32Z</time>
      </trkpt>
      <trkpt lat="47.90515" lon="-3.94583">
        <ele>7.6</ele>
        <time>2022-12-07T11:46:33Z</time>
      </trkpt>
      <trkpt lat="47.90516" lon="-3.94582">
        <ele>7.6</ele>
        <time>2022-12-07T11:46:34Z</time>
      </trkpt>
      <trkpt lat="47.90516" lon="-3.94582">
        <ele>7.6</ele>
        <time>2022-12-07T11:46:35Z</time>
      </trkpt>
      <trkpt lat="47.90516" lon="-3.94582">
        <ele>7.6</ele>
        <time>2022-12-07T11:46:36Z</time>
      </trkpt>
      <trkpt lat="47.90516" lon="-3.94582">
        <ele>7.6</ele>
        <time>2022-12-07T11:46:37Z</time>
      </trkpt>
      <trkpt lat="47.90516" lon="-3.94582">
        <ele>7.6</ele>
        <time>2022-12-07T11:46:38Z</time>
      </trkpt>
      <trkpt lat="47.90516" lon="-3.94581">
        <ele>7.6</ele>
        <time>2022-12-07T11:46:39Z</time>
      </trkpt>
      <trkpt lat="47.90516" lon="-3.94581">
        <ele>7.6</ele>
        <time>2022-12-07T11:46:40Z</time>
      </trkpt>
      <trkpt lat="47.90517" lon="-3.94581">
        <ele>7.6</ele>
        <time>2022-12-07T11:46:41Z</time>
      </trkpt>
      <trkpt lat="47.90517" lon="-3.94581">
        <ele>7.6</ele>
        <time>2022-12-07T11:46:42Z</time>
      </trkpt>
      <trkpt lat="47.90517" lon="-3.94581">
        <ele>7.6</ele>
        <time>2022-12-07T11:46:43Z</time>
      </trkpt>
      <trkpt lat="47.90517" lon="-3.9458">
        <ele>7.6</ele>
        <time>2022-12-07T11:46:44Z</time>
      </trkpt>
      <trkpt lat="47.90517" lon="-3.9458">
        <ele>7.6</ele>
        <time>2022-12-07T11:46:45Z</time>
      </trkpt>
      <trkpt lat="47.90517" lon="-3.9458">
        <ele>7.6</ele>
        <time>2022-12-07T11:46:46Z</time>
      </trkpt>
      <trkpt lat="47.90517" lon="-3.9458">
        <ele>7.6</ele>
        <time>2022-12-07T11:46:47Z</time>
      </trkpt>
      <trkpt lat="47.90518" lon="-3.94579">
        <ele>7.6</ele>
        <time>2022-12-07T11:46:48Z</time>
      </trkpt>
      <trkpt lat="47.90518" lon="-3.94579">
        <ele>7.6</ele>
        <time>2022-12-07T11:46:49Z</time>
      </trkpt>
      <trkpt lat="47.90518" lon="-3.94579">
        <ele>7.6</ele>
        <time>2022-12-07T11:46:50Z</time>
      </trkpt>
      <trkpt lat="47.90518" lon="-3.94579">
        <ele>7.6</ele>
        <time>2022-12-07T11:46:51Z</time>
      </trkpt>
      <trkpt lat="47.90518" lon="-3.94579">
        <ele>7.6</ele>
        <time>2022-12-07T11:46:55Z</time>
      </trkpt>
      <trkpt lat="47.90518" lon="-3.94578">
        <ele>7.6</ele>
        <time>2022-12-07T11:46:56Z</time>
      </trkpt>
      <trkpt lat="47.90519" lon="-3.94578">
        <ele>7.6</ele>
        <time>2022-12-07T11:46:57Z</time>
      </trkpt>
      <trkpt lat="47.90519" lon="-3.94578">
        <ele>7.6</ele>
        <time>2022-12-07T11:46:58Z</time>
      </trkpt>
      <trkpt lat="47.90521" lon="-3.94579">
        <ele>7.6</ele>
        <time>2022-12-07T11:46:59Z</time>
      </trkpt>
      <trkpt lat="47.90523" lon="-3.94579">
        <ele>7.6</ele>
        <time>2022-12-07T11:47:01Z</time>
      </trkpt>
      <trkpt lat="47.90525" lon="-3.94582">
        <ele>7.6</ele>
        <time>2022-12-07T11:47:02Z</time>
      </trkpt>
      <trkpt lat="47.90526" lon="-3.94583">
        <ele>7.6</ele>
        <time>2022-12-07T11:47:03Z</time>
      </trkpt>
      <trkpt lat="47.90528" lon="-3.94585">
        <ele>7.6</ele>
        <time>2022-12-07T11:47:04Z</time>
      </trkpt>
      <trkpt lat="47.90528" lon="-3.94586">
        <ele>7.6</ele>
        <time>2022-12-07T11:47:05Z</time>
      </trkpt>
      <trkpt lat="47.90529" lon="-3.94587">
        <ele>7.6</ele>
        <time>2022-12-07T11:47:06Z</time>
      </trkpt>
      <trkpt lat="47.9053" lon="-3.94586">
        <ele>7.6</ele>
        <time>2022-12-07T11:47:07Z</time>
      </trkpt>
      <trkpt lat="47.90531" lon="-3.94584">
        <ele>7.6</ele>
        <time>2022-12-07T11:47:08Z</time>
      </trkpt>
      <trkpt lat="47.9053" lon="-3.94582">
        <ele>7.6</ele>
        <time>2022-12-07T11:47:09Z</time>
      </trkpt>
      <trkpt lat="47.9053" lon="-3.94582">
        <ele>7.6</ele>
        <time>2022-12-07T11:47:10Z</time>
      </trkpt>
      <trkpt lat="47.90529" lon="-3.94581">
        <ele>7.6</ele>
        <time>2022-12-07T11:47:11Z</time>
      </trkpt>
      <trkpt lat="47.90528" lon="-3.94579">
        <ele>7.6</ele>
        <time>2022-12-07T11:47:12Z</time>
      </trkpt>
      <trkpt lat="47.90525" lon="-3.94576">
        <ele>7.6</ele>
        <time>2022-12-07T11:47:13Z</time>
      </trkpt>
      <trkpt lat="47.90524" lon="-3.94575">
        <ele>7.6</ele>
        <time>2022-12-07T11:47:14Z</time>
      </trkpt>
      <trkpt lat="47.90521" lon="-3.94573">
        <ele>7.6</ele>
        <time>2022-12-07T11:47:15Z</time>
      </trkpt>
      <trkpt lat="47.90518" lon="-3.94572">
        <ele>7.6</ele>
        <time>2022-12-07T11:47:16Z</time>
      </trkpt>
      <trkpt lat="47.90515" lon="-3.9457">
        <ele>7.7</ele>
        <time>2022-12-07T11:47:17Z</time>
      </trkpt>
      <trkpt lat="47.90511" lon="-3.94568">
        <ele>7.7</ele>
        <time>2022-12-07T11:47:18Z</time>
      </trkpt>
      <trkpt lat="47.90507" lon="-3.94566">
        <ele>7.7</ele>
        <time>2022-12-07T11:47:19Z</time>
      </trkpt>
      <trkpt lat="47.90503" lon="-3.94564">
        <ele>7.7</ele>
        <time>2022-12-07T11:47:20Z</time>
      </trkpt>
      <trkpt lat="47.90499" lon="-3.9456">
        <ele>7.8</ele>
        <time>2022-12-07T11:47:21Z</time>
      </trkpt>
      <trkpt lat="47.90496" lon="-3.94557">
        <ele>7.8</ele>
        <time>2022-12-07T11:47:22Z</time>
      </trkpt>
      <trkpt lat="47.90492" lon="-3.94554">
        <ele>7.9</ele>
        <time>2022-12-07T11:47:23Z</time>
      </trkpt>
      <trkpt lat="47.90487" lon="-3.94552">
        <ele>8</ele>
        <time>2022-12-07T11:47:24Z</time>
      </trkpt>
      <trkpt lat="47.90483" lon="-3.94549">
        <ele>8.1</ele>
        <time>2022-12-07T11:47:25Z</time>
      </trkpt>
      <trkpt lat="47.90479" lon="-3.94546">
        <ele>8.3</ele>
        <time>2022-12-07T11:47:26Z</time>
      </trkpt>
      <trkpt lat="47.90475" lon="-3.94543">
        <ele>8.4</ele>
        <time>2022-12-07T11:47:27Z</time>
      </trkpt>
      <trkpt lat="47.90473" lon="-3.94539">
        <ele>8.5</ele>
        <time>2022-12-07T11:47:28Z</time>
      </trkpt>
      <trkpt lat="47.9047" lon="-3.94536">
        <ele>8.7</ele>
        <time>2022-12-07T11:47:29Z</time>
      </trkpt>
      <trkpt lat="47.90467" lon="-3.94534">
        <ele>8.8</ele>
        <time>2022-12-07T11:47:30Z</time>
      </trkpt>
      <trkpt lat="47.90463" lon="-3.94533">
        <ele>8.9</ele>
        <time>2022-12-07T11:47:31Z</time>
      </trkpt>
      <trkpt lat="47.9046" lon="-3.94531">
        <ele>9</ele>
        <time>2022-12-07T11:47:32Z</time>
      </trkpt>
      <trkpt lat="47.90456" lon="-3.9453">
        <ele>9.2</ele>
        <time>2022-12-07T11:47:33Z</time>
      </trkpt>
      <trkpt lat="47.90452" lon="-3.9453">
        <ele>9.3</ele>
        <time>2022-12-07T11:47:34Z</time>
      </trkpt>
      <trkpt lat="47.90448" lon="-3.94528">
        <ele>9.4</ele>
        <time>2022-12-07T11:47:35Z</time>
      </trkpt>
      <trkpt lat="47.90444" lon="-3.94526">
        <ele>9.6</ele>
        <time>2022-12-07T11:47:36Z</time>
      </trkpt>
      <trkpt lat="47.90439" lon="-3.94524">
        <ele>9.7</ele>
        <time>2022-12-07T11:47:37Z</time>
      </trkpt>
      <trkpt lat="47.90435" lon="-3.94522">
        <ele>9.9</ele>
        <time>2022-12-07T11:47:38Z</time>
      </trkpt>
      <trkpt lat="47.90431" lon="-3.94522">
        <ele>10</ele>
        <time>2022-12-07T11:47:39Z</time>
      </trkpt>
      <trkpt lat="47.90426" lon="-3.94521">
        <ele>10.2</ele>
        <time>2022-12-07T11:47:40Z</time>
      </trkpt>
      <trkpt lat="47.90421" lon="-3.9452">
        <ele>10.4</ele>
        <time>2022-12-07T11:47:41Z</time>
      </trkpt>
      <trkpt lat="47.90416" lon="-3.94519">
        <ele>10.6</ele>
        <time>2022-12-07T11:47:42Z</time>
      </trkpt>
      <trkpt lat="47.90411" lon="-3.94517">
        <ele>10.8</ele>
        <time>2022-12-07T11:47:43Z</time>
      </trkpt>
      <trkpt lat="47.90407" lon="-3.94516">
        <ele>11</ele>
        <time>2022-12-07T11:47:44Z</time>
      </trkpt>
      <trkpt lat="47.90402" lon="-3.94515">
        <ele>11.2</ele>
        <time>2022-12-07T11:47:45Z</time>
      </trkpt>
      <trkpt lat="47.90398" lon="-3.94514">
        <ele>11.4</ele>
        <time>2022-12-07T11:47:46Z</time>
      </trkpt>
      <trkpt lat="47.90393" lon="-3.94513">
        <ele>11.6</ele>
        <time>2022-12-07T11:47:47Z</time>
      </trkpt>
      <trkpt lat="47.90389" lon="-3.94511">
        <ele>11.9</ele>
        <time>2022-12-07T11:47:48Z</time>
      </trkpt>
      <trkpt lat="47.90386" lon="-3.94509">
        <ele>12.1</ele>
        <time>2022-12-07T11:47:49Z</time>
      </trkpt>
      <trkpt lat="47.90382" lon="-3.94508">
        <ele>12.3</ele>
        <time>2022-12-07T11:47:50Z</time>
      </trkpt>
      <trkpt lat="47.90378" lon="-3.94506">
        <ele>12.6</ele>
        <time>2022-12-07T11:47:51Z</time>
      </trkpt>
      <trkpt lat="47.90375" lon="-3.94505">
        <ele>12.8</ele>
        <time>2022-12-07T11:47:52Z</time>
      </trkpt>
      <trkpt lat="47.90372" lon="-3.94504">
        <ele>13.1</ele>
        <time>2022-12-07T11:47:53Z</time>
      </trkpt>
      <trkpt lat="47.90369" lon="-3.94503">
        <ele>13.3</ele>
        <time>2022-12-07T11:47:54Z</time>
      </trkpt>
      <trkpt lat="47.90365" lon="-3.94501">
        <ele>13.6</ele>
        <time>2022-12-07T11:47:55Z</time>
      </trkpt>
      <trkpt lat="47.90361" lon="-3.945">
        <ele>13.9</ele>
        <time>2022-12-07T11:47:56Z</time>
      </trkpt>
      <trkpt lat="47.9036" lon="-3.94499">
        <ele>14.1</ele>
        <time>2022-12-07T11:47:57Z</time>
      </trkpt>
      <trkpt lat="47.90357" lon="-3.94498">
        <ele>14.4</ele>
        <time>2022-12-07T11:47:58Z</time>
      </trkpt>
      <trkpt lat="47.90354" lon="-3.94496">
        <ele>14.7</ele>
        <time>2022-12-07T11:47:59Z</time>
      </trkpt>
      <trkpt lat="47.9035" lon="-3.94494">
        <ele>15.1</ele>
        <time>2022-12-07T11:48:00Z</time>
      </trkpt>
      <trkpt lat="47.90347" lon="-3.94493">
        <ele>15.3</ele>
        <time>2022-12-07T11:48:01Z</time>
      </trkpt>
      <trkpt lat="47.90345" lon="-3.94491">
        <ele>15.6</ele>
        <time>2022-12-07T11:48:02Z</time>
      </trkpt>
      <trkpt lat="47.90342" lon="-3.94489">
        <ele>16</ele>
        <time>2022-12-07T11:48:03Z</time>
      </trkpt>
      <trkpt lat="47.90339" lon="-3.94488">
        <ele>16.3</ele>
        <time>2022-12-07T11:48:04Z</time>
      </trkpt>
      <trkpt lat="47.90336" lon="-3.94486">
        <ele>16.6</ele>
        <time>2022-12-07T11:48:05Z</time>
      </trkpt>
      <trkpt lat="47.90333" lon="-3.94485">
        <ele>16.9</ele>
        <time>2022-12-07T11:48:06Z</time>
      </trkpt>
      <trkpt lat="47.9033" lon="-3.94484">
        <ele>17.2</ele>
        <time>2022-12-07T11:48:07Z</time>
      </trkpt>
      <trkpt lat="47.90327" lon="-3.94482">
        <ele>17.5</ele>
        <time>2022-12-07T11:48:08Z</time>
      </trkpt>
      <trkpt lat="47.90325" lon="-3.94481">
        <ele>17.8</ele>
        <time>2022-12-07T11:48:09Z</time>
      </trkpt>
      <trkpt lat="47.90321" lon="-3.94478">
        <ele>18.2</ele>
        <time>2022-12-07T11:48:10Z</time>
      </trkpt>
      <trkpt lat="47.9032" lon="-3.94477">
        <ele>18.3</ele>
        <time>2022-12-07T11:48:11Z</time>
      </trkpt>
      <trkpt lat="47.90317" lon="-3.94476">
        <ele>18.6</ele>
        <time>2022-12-07T11:48:12Z</time>
      </trkpt>
      <trkpt lat="47.90315" lon="-3.94475">
        <ele>18.9</ele>
        <time>2022-12-07T11:48:13Z</time>
      </trkpt>
      <trkpt lat="47.90312" lon="-3.94473">
        <ele>19.2</ele>
        <time>2022-12-07T11:48:14Z</time>
      </trkpt>
      <trkpt lat="47.90309" lon="-3.94472">
        <ele>19.4</ele>
        <time>2022-12-07T11:48:15Z</time>
      </trkpt>
      <trkpt lat="47.90308" lon="-3.94471">
        <ele>19.5</ele>
        <time>2022-12-07T11:48:16Z</time>
      </trkpt>
      <trkpt lat="47.90305" lon="-3.94468">
        <ele>19.9</ele>
        <time>2022-12-07T11:48:17Z</time>
      </trkpt>
      <trkpt lat="47.90304" lon="-3.94467">
        <ele>20</ele>
        <time>2022-12-07T11:48:18Z</time>
      </trkpt>
      <trkpt lat="47.90301" lon="-3.94466">
        <ele>20.2</ele>
        <time>2022-12-07T11:48:19Z</time>
      </trkpt>
      <trkpt lat="47.90298" lon="-3.94464">
        <ele>20.6</ele>
        <time>2022-12-07T11:48:20Z</time>
      </trkpt>
      <trkpt lat="47.90297" lon="-3.94463">
        <ele>20.7</ele>
        <time>2022-12-07T11:48:21Z</time>
      </trkpt>
      <trkpt lat="47.90293" lon="-3.94461">
        <ele>21</ele>
        <time>2022-12-07T11:48:22Z</time>
      </trkpt>
      <trkpt lat="47.90292" lon="-3.9446">
        <ele>21.2</ele>
        <time>2022-12-07T11:48:23Z</time>
      </trkpt>
      <trkpt lat="47.90289" lon="-3.94458">
        <ele>21.5</ele>
        <time>2022-12-07T11:48:24Z</time>
      </trkpt>
      <trkpt lat="47.90286" lon="-3.94456">
        <ele>21.8</ele>
        <time>2022-12-07T11:48:25Z</time>
      </trkpt>
      <trkpt lat="47.90285" lon="-3.94455">
        <ele>21.9</ele>
        <time>2022-12-07T11:48:26Z</time>
      </trkpt>
      <trkpt lat="47.90282" lon="-3.94454">
        <ele>22.1</ele>
        <time>2022-12-07T11:48:27Z</time>
      </trkpt>
      <trkpt lat="47.90278" lon="-3.94452">
        <ele>22.5</ele>
        <time>2022-12-07T11:48:28Z</time>
      </trkpt>
      <trkpt lat="47.90276" lon="-3.94451">
        <ele>22.6</ele>
        <time>2022-12-07T11:48:29Z</time>
      </trkpt>
      <trkpt lat="47.90273" lon="-3.94449">
        <ele>22.9</ele>
        <time>2022-12-07T11:48:30Z</time>
      </trkpt>
      <trkpt lat="47.90272" lon="-3.94449">
        <ele>23</ele>
        <time>2022-12-07T11:48:31Z</time>
      </trkpt>
      <trkpt lat="47.90269" lon="-3.94447">
        <ele>23.4</ele>
        <time>2022-12-07T11:48:32Z</time>
      </trkpt>
      <trkpt lat="47.90267" lon="-3.94446">
        <ele>23.5</ele>
        <time>2022-12-07T11:48:33Z</time>
      </trkpt>
      <trkpt lat="47.90264" lon="-3.94444">
        <ele>23.8</ele>
        <time>2022-12-07T11:48:34Z</time>
      </trkpt>
      <trkpt lat="47.9026" lon="-3.94441">
        <ele>24.2</ele>
        <time>2022-12-07T11:48:35Z</time>
      </trkpt>
      <trkpt lat="47.90259" lon="-3.9444">
        <ele>24.3</ele>
        <time>2022-12-07T11:48:36Z</time>
      </trkpt>
      <trkpt lat="47.90257" lon="-3.94438">
        <ele>24.5</ele>
        <time>2022-12-07T11:48:37Z</time>
      </trkpt>
      <trkpt lat="47.90253" lon="-3.94436">
        <ele>24.9</ele>
        <time>2022-12-07T11:48:38Z</time>
      </trkpt>
      <trkpt lat="47.90251" lon="-3.94435">
        <ele>25</ele>
        <time>2022-12-07T11:48:39Z</time>
      </trkpt>
      <trkpt lat="47.90248" lon="-3.94433">
        <ele>25.3</ele>
        <time>2022-12-07T11:48:40Z</time>
      </trkpt>
      <trkpt lat="47.90247" lon="-3.94433">
        <ele>25.4</ele>
        <time>2022-12-07T11:48:41Z</time>
      </trkpt>
      <trkpt lat="47.90243" lon="-3.94431">
        <ele>25.7</ele>
        <time>2022-12-07T11:48:42Z</time>
      </trkpt>
      <trkpt lat="47.90242" lon="-3.9443">
        <ele>25.8</ele>
        <time>2022-12-07T11:48:43Z</time>
      </trkpt>
      <trkpt lat="47.90238" lon="-3.94428">
        <ele>26.1</ele>
        <time>2022-12-07T11:48:44Z</time>
      </trkpt>
      <trkpt lat="47.90237" lon="-3.94427">
        <ele>26.2</ele>
        <time>2022-12-07T11:48:45Z</time>
      </trkpt>
      <trkpt lat="47.90234" lon="-3.94426">
        <ele>26.4</ele>
        <time>2022-12-07T11:48:46Z</time>
      </trkpt>
      <trkpt lat="47.90232" lon="-3.94424">
        <ele>26.6</ele>
        <time>2022-12-07T11:48:47Z</time>
      </trkpt>
      <trkpt lat="47.90229" lon="-3.94423">
        <ele>26.9</ele>
        <time>2022-12-07T11:48:48Z</time>
      </trkpt>
      <trkpt lat="47.90226" lon="-3.94422">
        <ele>27.1</ele>
        <time>2022-12-07T11:48:49Z</time>
      </trkpt>
      <trkpt lat="47.90223" lon="-3.94421">
        <ele>27.4</ele>
        <time>2022-12-07T11:48:50Z</time>
      </trkpt>
      <trkpt lat="47.9022" lon="-3.94419">
        <ele>27.6</ele>
        <time>2022-12-07T11:48:51Z</time>
      </trkpt>
      <trkpt lat="47.90217" lon="-3.94418">
        <ele>27.9</ele>
        <time>2022-12-07T11:48:52Z</time>
      </trkpt>
      <trkpt lat="47.90216" lon="-3.94417">
        <ele>28</ele>
        <time>2022-12-07T11:48:53Z</time>
      </trkpt>
      <trkpt lat="47.90214" lon="-3.94416">
        <ele>28.2</ele>
        <time>2022-12-07T11:48:54Z</time>
      </trkpt>
      <trkpt lat="47.90214" lon="-3.94416">
        <ele>28.2</ele>
        <time>2022-12-07T11:48:55Z</time>
      </trkpt>
      <trkpt lat="47.90214" lon="-3.94416">
        <ele>28.2</ele>
        <time>2022-12-07T11:48:56Z</time>
      </trkpt>
      <trkpt lat="47.90213" lon="-3.94416">
        <ele>28.2</ele>
        <time>2022-12-07T11:48:57Z</time>
      </trkpt>
      <trkpt lat="47.90213" lon="-3.94416">
        <ele>28.3</ele>
        <time>2022-12-07T11:48:58Z</time>
      </trkpt>
      <trkpt lat="47.90213" lon="-3.94416">
        <ele>28.3</ele>
        <time>2022-12-07T11:48:59Z</time>
      </trkpt>
      <trkpt lat="47.90213" lon="-3.94416">
        <ele>28.3</ele>
        <time>2022-12-07T11:49:00Z</time>
      </trkpt>
      <trkpt lat="47.90212" lon="-3.94415">
        <ele>28.3</ele>
        <time>2022-12-07T11:49:01Z</time>
      </trkpt>
      <trkpt lat="47.90212" lon="-3.94415">
        <ele>28.4</ele>
        <time>2022-12-07T11:49:02Z</time>
      </trkpt>
      <trkpt lat="47.90212" lon="-3.94415">
        <ele>28.4</ele>
        <time>2022-12-07T11:49:03Z</time>
      </trkpt>
      <trkpt lat="47.90211" lon="-3.94415">
        <ele>28.4</ele>
        <time>2022-12-07T11:49:04Z</time>
      </trkpt>
      <trkpt lat="47.90211" lon="-3.94415">
        <ele>28.4</ele>
        <time>2022-12-07T11:49:05Z</time>
      </trkpt>
      <trkpt lat="47.90211" lon="-3.94415">
        <ele>28.5</ele>
        <time>2022-12-07T11:49:21Z</time>
      </trkpt>
      <trkpt lat="47.9021" lon="-3.94415">
        <ele>28.5</ele>
        <time>2022-12-07T11:49:22Z</time>
      </trkpt>
      <trkpt lat="47.9021" lon="-3.94415">
        <ele>28.5</ele>
        <time>2022-12-07T11:49:23Z</time>
      </trkpt>
      <trkpt lat="47.9021" lon="-3.94415">
        <ele>28.5</ele>
        <time>2022-12-07T11:49:24Z</time>
      </trkpt>
      <trkpt lat="47.90207" lon="-3.94412">
        <ele>28.8</ele>
        <time>2022-12-07T11:49:25Z</time>
      </trkpt>
      <trkpt lat="47.90206" lon="-3.94411">
        <ele>28.9</ele>
        <time>2022-12-07T11:49:26Z</time>
      </trkpt>
      <trkpt lat="47.90204" lon="-3.9441">
        <ele>29.1</ele>
        <time>2022-12-07T11:49:27Z</time>
      </trkpt>
      <trkpt lat="47.902" lon="-3.94408">
        <ele>29.4</ele>
        <time>2022-12-07T11:49:28Z</time>
      </trkpt>
      <trkpt lat="47.90197" lon="-3.94406">
        <ele>29.7</ele>
        <time>2022-12-07T11:49:29Z</time>
      </trkpt>
      <trkpt lat="47.90195" lon="-3.94404">
        <ele>30</ele>
        <time>2022-12-07T11:49:30Z</time>
      </trkpt>
      <trkpt lat="47.90192" lon="-3.94403">
        <ele>30.2</ele>
        <time>2022-12-07T11:49:31Z</time>
      </trkpt>
      <trkpt lat="47.90188" lon="-3.94401">
        <ele>30.5</ele>
        <time>2022-12-07T11:49:32Z</time>
      </trkpt>
      <trkpt lat="47.90184" lon="-3.944">
        <ele>30.8</ele>
        <time>2022-12-07T11:49:33Z</time>
      </trkpt>
      <trkpt lat="47.90182" lon="-3.94399">
        <ele>31</ele>
        <time>2022-12-07T11:49:34Z</time>
      </trkpt>
      <trkpt lat="47.90179" lon="-3.94398">
        <ele>31.3</ele>
        <time>2022-12-07T11:49:35Z</time>
      </trkpt>
      <trkpt lat="47.90176" lon="-3.94397">
        <ele>31.5</ele>
        <time>2022-12-07T11:49:36Z</time>
      </trkpt>
      <trkpt lat="47.90173" lon="-3.94396">
        <ele>31.7</ele>
        <time>2022-12-07T11:49:37Z</time>
      </trkpt>
      <trkpt lat="47.90171" lon="-3.94394">
        <ele>31.9</ele>
        <time>2022-12-07T11:49:38Z</time>
      </trkpt>
      <trkpt lat="47.90167" lon="-3.94391">
        <ele>32.2</ele>
        <time>2022-12-07T11:49:39Z</time>
      </trkpt>
      <trkpt lat="47.90166" lon="-3.9439">
        <ele>32.3</ele>
        <time>2022-12-07T11:49:40Z</time>
      </trkpt>
      <trkpt lat="47.90163" lon="-3.94387">
        <ele>32.5</ele>
        <time>2022-12-07T11:49:41Z</time>
      </trkpt>
      <trkpt lat="47.90161" lon="-3.94385">
        <ele>32.7</ele>
        <time>2022-12-07T11:49:42Z</time>
      </trkpt>
      <trkpt lat="47.90159" lon="-3.94382">
        <ele>32.9</ele>
        <time>2022-12-07T11:49:43Z</time>
      </trkpt>
      <trkpt lat="47.90157" lon="-3.94379">
        <ele>33.1</ele>
        <time>2022-12-07T11:49:44Z</time>
      </trkpt>
      <trkpt lat="47.90154" lon="-3.94375">
        <ele>33.4</ele>
        <time>2022-12-07T11:49:45Z</time>
      </trkpt>
      <trkpt lat="47.90153" lon="-3.94373">
        <ele>33.5</ele>
        <time>2022-12-07T11:49:46Z</time>
      </trkpt>
      <trkpt lat="47.90147" lon="-3.94373">
        <ele>33.9</ele>
        <time>2022-12-07T11:49:48Z</time>
      </trkpt>
      <trkpt lat="47.90143" lon="-3.94374">
        <ele>34.1</ele>
        <time>2022-12-07T11:49:49Z</time>
      </trkpt>
      <trkpt lat="47.90138" lon="-3.94376">
        <ele>34.5</ele>
        <time>2022-12-07T11:49:51Z</time>
      </trkpt>
      <trkpt lat="47.90134" lon="-3.94377">
        <ele>34.6</ele>
        <time>2022-12-07T11:49:52Z</time>
      </trkpt>
      <trkpt lat="47.9013" lon="-3.94378">
        <ele>34.8</ele>
        <time>2022-12-07T11:49:53Z</time>
      </trkpt>
      <trkpt lat="47.90126" lon="-3.94379">
        <ele>35</ele>
        <time>2022-12-07T11:49:54Z</time>
      </trkpt>
      <trkpt lat="47.90122" lon="-3.94378">
        <ele>35.2</ele>
        <time>2022-12-07T11:49:55Z</time>
      </trkpt>
      <trkpt lat="47.90118" lon="-3.94378">
        <ele>35.3</ele>
        <time>2022-12-07T11:49:56Z</time>
      </trkpt>
      <trkpt lat="47.90115" lon="-3.94377">
        <ele>35.5</ele>
        <time>2022-12-07T11:49:57Z</time>
      </trkpt>
      <trkpt lat="47.90111" lon="-3.94377">
        <ele>35.6</ele>
        <time>2022-12-07T11:49:58Z</time>
      </trkpt>
      <trkpt lat="47.90108" lon="-3.94376">
        <ele>35.8</ele>
        <time>2022-12-07T11:49:59Z</time>
      </trkpt>
      <trkpt lat="47.90104" lon="-3.94375">
        <ele>35.9</ele>
        <time>2022-12-07T11:50:00Z</time>
      </trkpt>
      <trkpt lat="47.901" lon="-3.94374">
        <ele>36</ele>
        <time>2022-12-07T11:50:01Z</time>
      </trkpt>
      <trkpt lat="47.90097" lon="-3.94373">
        <ele>36.1</ele>
        <time>2022-12-07T11:50:02Z</time>
      </trkpt>
      <trkpt lat="47.90093" lon="-3.94372">
        <ele>36.3</ele>
        <time>2022-12-07T11:50:03Z</time>
      </trkpt>
      <trkpt lat="47.9009" lon="-3.94371">
        <ele>36.4</ele>
        <time>2022-12-07T11:50:04Z</time>
      </trkpt>
      <trkpt lat="47.90086" lon="-3.94371">
        <ele>36.5</ele>
        <time>2022-12-07T11:50:05Z</time>
      </trkpt>
      <trkpt lat="47.90082" lon="-3.94371">
        <ele>36.6</ele>
        <time>2022-12-07T11:50:06Z</time>
      </trkpt>
      <trkpt lat="47.90079" lon="-3.9437">
        <ele>36.7</ele>
        <time>2022-12-07T11:50:07Z</time>
      </trkpt>
      <trkpt lat="47.90074" lon="-3.94369">
        <ele>36.8</ele>
        <time>2022-12-07T11:50:08Z</time>
      </trkpt>
      <trkpt lat="47.90067" lon="-3.94369">
        <ele>36.9</ele>
        <time>2022-12-07T11:50:10Z</time>
      </trkpt>
      <trkpt lat="47.90063" lon="-3.94368">
        <ele>37</ele>
        <time>2022-12-07T11:50:11Z</time>
      </trkpt>
      <trkpt lat="47.90059" lon="-3.94367">
        <ele>37.1</ele>
        <time>2022-12-07T11:50:12Z</time>
      </trkpt>
      <trkpt lat="47.90055" lon="-3.94367">
        <ele>37.2</ele>
        <time>2022-12-07T11:50:13Z</time>
      </trkpt>
      <trkpt lat="47.90051" lon="-3.94367">
        <ele>37.3</ele>
        <time>2022-12-07T11:50:14Z</time>
      </trkpt>
      <trkpt lat="47.90047" lon="-3.94367">
        <ele>37.4</ele>
        <time>2022-12-07T11:50:15Z</time>
      </trkpt>
      <trkpt lat="47.90043" lon="-3.94366">
        <ele>37.4</ele>
        <time>2022-12-07T11:50:16Z</time>
      </trkpt>
      <trkpt lat="47.90038" lon="-3.94366">
        <ele>37.5</ele>
        <time>2022-12-07T11:50:17Z</time>
      </trkpt>
      <trkpt lat="47.90034" lon="-3.94366">
        <ele>37.5</ele>
        <time>2022-12-07T11:50:18Z</time>
      </trkpt>
      <trkpt lat="47.9003" lon="-3.94366">
        <ele>37.6</ele>
        <time>2022-12-07T11:50:19Z</time>
      </trkpt>
      <trkpt lat="47.90026" lon="-3.94365">
        <ele>37.6</ele>
        <time>2022-12-07T11:50:20Z</time>
      </trkpt>
      <trkpt lat="47.90022" lon="-3.94364">
        <ele>37.6</ele>
        <time>2022-12-07T11:50:21Z</time>
      </trkpt>
      <trkpt lat="47.90017" lon="-3.94363">
        <ele>37.7</ele>
        <time>2022-12-07T11:50:22Z</time>
      </trkpt>
      <trkpt lat="47.90012" lon="-3.94363">
        <ele>37.7</ele>
        <time>2022-12-07T11:50:23Z</time>
      </trkpt>
      <trkpt lat="47.90008" lon="-3.94362">
        <ele>37.7</ele>
        <time>2022-12-07T11:50:24Z</time>
      </trkpt>
      <trkpt lat="47.90004" lon="-3.94361">
        <ele>37.7</ele>
        <time>2022-12-07T11:50:25Z</time>
      </trkpt>
      <trkpt lat="47.89999" lon="-3.9436">
        <ele>37.7</ele>
        <time>2022-12-07T11:50:26Z</time>
      </trkpt>
      <trkpt lat="47.89994" lon="-3.94359">
        <ele>37.6</ele>
        <time>2022-12-07T11:50:27Z</time>
      </trkpt>
      <trkpt lat="47.89989" lon="-3.94359">
        <ele>37.6</ele>
        <time>2022-12-07T11:50:28Z</time>
      </trkpt>
      <trkpt lat="47.89984" lon="-3.94358">
        <ele>37.6</ele>
        <time>2022-12-07T11:50:29Z</time>
      </trkpt>
      <trkpt lat="47.89979" lon="-3.94358">
        <ele>37.5</ele>
        <time>2022-12-07T11:50:30Z</time>
      </trkpt>
      <trkpt lat="47.89975" lon="-3.94358">
        <ele>37.5</ele>
        <time>2022-12-07T11:50:31Z</time>
      </trkpt>
      <trkpt lat="47.8997" lon="-3.94358">
        <ele>37.4</ele>
        <time>2022-12-07T11:50:32Z</time>
      </trkpt>
      <trkpt lat="47.89965" lon="-3.94357">
        <ele>37.4</ele>
        <time>2022-12-07T11:50:33Z</time>
      </trkpt>
      <trkpt lat="47.89959" lon="-3.94357">
        <ele>37.3</ele>
        <time>2022-12-07T11:50:34Z</time>
      </trkpt>
      <trkpt lat="47.89954" lon="-3.94356">
        <ele>37.3</ele>
        <time>2022-12-07T11:50:35Z</time>
      </trkpt>
      <trkpt lat="47.89948" lon="-3.94355">
        <ele>37.2</ele>
        <time>2022-12-07T11:50:36Z</time>
      </trkpt>
      <trkpt lat="47.89943" lon="-3.94355">
        <ele>37.2</ele>
        <time>2022-12-07T11:50:37Z</time>
      </trkpt>
      <trkpt lat="47.89937" lon="-3.94354">
        <ele>37.1</ele>
        <time>2022-12-07T11:50:38Z</time>
      </trkpt>
      <trkpt lat="47.89931" lon="-3.94353">
        <ele>37.1</ele>
        <time>2022-12-07T11:50:39Z</time>
      </trkpt>
      <trkpt lat="47.89925" lon="-3.94352">
        <ele>37.1</ele>
        <time>2022-12-07T11:50:40Z</time>
      </trkpt>
      <trkpt lat="47.89919" lon="-3.94351">
        <ele>37</ele>
        <time>2022-12-07T11:50:41Z</time>
      </trkpt>
      <trkpt lat="47.89913" lon="-3.94351">
        <ele>37</ele>
        <time>2022-12-07T11:50:42Z</time>
      </trkpt>
      <trkpt lat="47.89907" lon="-3.9435">
        <ele>36.9</ele>
        <time>2022-12-07T11:50:43Z</time>
      </trkpt>
      <trkpt lat="47.89901" lon="-3.94348">
        <ele>36.9</ele>
        <time>2022-12-07T11:50:44Z</time>
      </trkpt>
      <trkpt lat="47.89895" lon="-3.94347">
        <ele>36.8</ele>
        <time>2022-12-07T11:50:45Z</time>
      </trkpt>
      <trkpt lat="47.89889" lon="-3.94346">
        <ele>36.8</ele>
        <time>2022-12-07T11:50:46Z</time>
      </trkpt>
      <trkpt lat="47.89883" lon="-3.94345">
        <ele>36.8</ele>
        <time>2022-12-07T11:50:47Z</time>
      </trkpt>
      <trkpt lat="47.89877" lon="-3.94344">
        <ele>36.7</ele>
        <time>2022-12-07T11:50:48Z</time>
      </trkpt>
      <trkpt lat="47.89871" lon="-3.94343">
        <ele>36.7</ele>
        <time>2022-12-07T11:50:49Z</time>
      </trkpt>
      <trkpt lat="47.89865" lon="-3.94343">
        <ele>36.7</ele>
        <time>2022-12-07T11:50:50Z</time>
      </trkpt>
      <trkpt lat="47.89858" lon="-3.94342">
        <ele>36.6</ele>
        <time>2022-12-07T11:50:51Z</time>
      </trkpt>
      <trkpt lat="47.89852" lon="-3.94341">
        <ele>36.6</ele>
        <time>2022-12-07T11:50:52Z</time>
      </trkpt>
      <trkpt lat="47.89846" lon="-3.9434">
        <ele>36.5</ele>
        <time>2022-12-07T11:50:53Z</time>
      </trkpt>
      <trkpt lat="47.89839" lon="-3.94339">
        <ele>36.5</ele>
        <time>2022-12-07T11:50:54Z</time>
      </trkpt>
      <trkpt lat="47.89833" lon="-3.94338">
        <ele>36.4</ele>
        <time>2022-12-07T11:50:55Z</time>
      </trkpt>
      <trkpt lat="47.89826" lon="-3.94338">
        <ele>36.4</ele>
        <time>2022-12-07T11:50:56Z</time>
      </trkpt>
      <trkpt lat="47.8982" lon="-3.94337">
        <ele>36.3</ele>
        <time>2022-12-07T11:50:57Z</time>
      </trkpt>
      <trkpt lat="47.89814" lon="-3.94336">
        <ele>36.2</ele>
        <time>2022-12-07T11:50:58Z</time>
      </trkpt>
      <trkpt lat="47.89807" lon="-3.94335">
        <ele>36.2</ele>
        <time>2022-12-07T11:50:59Z</time>
      </trkpt>
      <trkpt lat="47.89801" lon="-3.94335">
        <ele>36.1</ele>
        <time>2022-12-07T11:51:00Z</time>
      </trkpt>
      <trkpt lat="47.89794" lon="-3.94333">
        <ele>36</ele>
        <time>2022-12-07T11:51:01Z</time>
      </trkpt>
      <trkpt lat="47.89788" lon="-3.94333">
        <ele>36</ele>
        <time>2022-12-07T11:51:02Z</time>
      </trkpt>
      <trkpt lat="47.89781" lon="-3.94332">
        <ele>35.9</ele>
        <time>2022-12-07T11:51:03Z</time>
      </trkpt>
      <trkpt lat="47.89775" lon="-3.94331">
        <ele>35.8</ele>
        <time>2022-12-07T11:51:04Z</time>
      </trkpt>
      <trkpt lat="47.89769" lon="-3.9433">
        <ele>35.7</ele>
        <time>2022-12-07T11:51:05Z</time>
      </trkpt>
      <trkpt lat="47.89762" lon="-3.94329">
        <ele>35.6</ele>
        <time>2022-12-07T11:51:06Z</time>
      </trkpt>
      <trkpt lat="47.89756" lon="-3.94328">
        <ele>35.5</ele>
        <time>2022-12-07T11:51:07Z</time>
      </trkpt>
      <trkpt lat="47.8975" lon="-3.94326">
        <ele>35.4</ele>
        <time>2022-12-07T11:51:08Z</time>
      </trkpt>
      <trkpt lat="47.89743" lon="-3.94325">
        <ele>35.2</ele>
        <time>2022-12-07T11:51:09Z</time>
      </trkpt>
      <trkpt lat="47.89736" lon="-3.94324">
        <ele>35.1</ele>
        <time>2022-12-07T11:51:10Z</time>
      </trkpt>
      <trkpt lat="47.89729" lon="-3.94323">
        <ele>34.9</ele>
        <time>2022-12-07T11:51:11Z</time>
      </trkpt>
      <trkpt lat="47.89722" lon="-3.94322">
        <ele>34.7</ele>
        <time>2022-12-07T11:51:12Z</time>
      </trkpt>
      <trkpt lat="47.89716" lon="-3.94321">
        <ele>34.5</ele>
        <time>2022-12-07T11:51:13Z</time>
      </trkpt>
      <trkpt lat="47.89709" lon="-3.94319">
        <ele>34.2</ele>
        <time>2022-12-07T11:51:14Z</time>
      </trkpt>
      <trkpt lat="47.89701" lon="-3.94317">
        <ele>34</ele>
        <time>2022-12-07T11:51:15Z</time>
      </trkpt>
      <trkpt lat="47.89694" lon="-3.94316">
        <ele>33.6</ele>
        <time>2022-12-07T11:51:16Z</time>
      </trkpt>
      <trkpt lat="47.89686" lon="-3.94314">
        <ele>33.2</ele>
        <time>2022-12-07T11:51:17Z</time>
      </trkpt>
      <trkpt lat="47.89678" lon="-3.94311">
        <ele>32.7</ele>
        <time>2022-12-07T11:51:18Z</time>
      </trkpt>
      <trkpt lat="47.8967" lon="-3.94309">
        <ele>32.3</ele>
        <time>2022-12-07T11:51:19Z</time>
      </trkpt>
      <trkpt lat="47.89663" lon="-3.94306">
        <ele>31.8</ele>
        <time>2022-12-07T11:51:20Z</time>
      </trkpt>
      <trkpt lat="47.89655" lon="-3.94303">
        <ele>31.3</ele>
        <time>2022-12-07T11:51:21Z</time>
      </trkpt>
      <trkpt lat="47.89647" lon="-3.943">
        <ele>30.7</ele>
        <time>2022-12-07T11:51:22Z</time>
      </trkpt>
      <trkpt lat="47.89639" lon="-3.94297">
        <ele>30.1</ele>
        <time>2022-12-07T11:51:23Z</time>
      </trkpt>
      <trkpt lat="47.89631" lon="-3.94293">
        <ele>29.5</ele>
        <time>2022-12-07T11:51:24Z</time>
      </trkpt>
      <trkpt lat="47.89622" lon="-3.94288">
        <ele>28.7</ele>
        <time>2022-12-07T11:51:25Z</time>
      </trkpt>
      <trkpt lat="47.89613" lon="-3.94282">
        <ele>28</ele>
        <time>2022-12-07T11:51:26Z</time>
      </trkpt>
      <trkpt lat="47.89604" lon="-3.94276">
        <ele>27.2</ele>
        <time>2022-12-07T11:51:27Z</time>
      </trkpt>
      <trkpt lat="47.89595" lon="-3.9427">
        <ele>26.3</ele>
        <time>2022-12-07T11:51:28Z</time>
      </trkpt>
      <trkpt lat="47.89587" lon="-3.94263">
        <ele>25.4</ele>
        <time>2022-12-07T11:51:29Z</time>
      </trkpt>
      <trkpt lat="47.89577" lon="-3.94254">
        <ele>24.2</ele>
        <time>2022-12-07T11:51:30Z</time>
      </trkpt>
      <trkpt lat="47.89567" lon="-3.94245">
        <ele>23</ele>
        <time>2022-12-07T11:51:31Z</time>
      </trkpt>
      <trkpt lat="47.89558" lon="-3.94234">
        <ele>21.7</ele>
        <time>2022-12-07T11:51:32Z</time>
      </trkpt>
      <trkpt lat="47.89548" lon="-3.94224">
        <ele>20.4</ele>
        <time>2022-12-07T11:51:33Z</time>
      </trkpt>
      <trkpt lat="47.8954" lon="-3.94212">
        <ele>19.1</ele>
        <time>2022-12-07T11:51:34Z</time>
      </trkpt>
      <trkpt lat="47.89531" lon="-3.942">
        <ele>17.7</ele>
        <time>2022-12-07T11:51:35Z</time>
      </trkpt>
      <trkpt lat="47.89521" lon="-3.9419">
        <ele>16.3</ele>
        <time>2022-12-07T11:51:36Z</time>
      </trkpt>
      <trkpt lat="47.89511" lon="-3.9418">
        <ele>15.1</ele>
        <time>2022-12-07T11:51:37Z</time>
      </trkpt>
      <trkpt lat="47.895" lon="-3.94169">
        <ele>14</ele>
        <time>2022-12-07T11:51:38Z</time>
      </trkpt>
      <trkpt lat="47.89489" lon="-3.94157">
        <ele>13</ele>
        <time>2022-12-07T11:51:39Z</time>
      </trkpt>
      <trkpt lat="47.89479" lon="-3.94145">
        <ele>12.4</ele>
        <time>2022-12-07T11:51:40Z</time>
      </trkpt>
      <trkpt lat="47.89469" lon="-3.94132">
        <ele>12.2</ele>
        <time>2022-12-07T11:51:41Z</time>
      </trkpt>
      <trkpt lat="47.8946" lon="-3.94121">
        <ele>12</ele>
        <time>2022-12-07T11:51:42Z</time>
      </trkpt>
      <trkpt lat="47.8945" lon="-3.94109">
        <ele>12.1</ele>
        <time>2022-12-07T11:51:43Z</time>
      </trkpt>
      <trkpt lat="47.89442" lon="-3.94098">
        <ele>12.3</ele>
        <time>2022-12-07T11:51:44Z</time>
      </trkpt>
      <trkpt lat="47.89433" lon="-3.94088">
        <ele>12.7</ele>
        <time>2022-12-07T11:51:45Z</time>
      </trkpt>
      <trkpt lat="47.89425" lon="-3.94078">
        <ele>13.3</ele>
        <time>2022-12-07T11:51:46Z</time>
      </trkpt>
      <trkpt lat="47.89418" lon="-3.94069">
        <ele>13.9</ele>
        <time>2022-12-07T11:51:47Z</time>
      </trkpt>
      <trkpt lat="47.89411" lon="-3.94061">
        <ele>14.6</ele>
        <time>2022-12-07T11:51:48Z</time>
      </trkpt>
      <trkpt lat="47.89405" lon="-3.94053">
        <ele>15.2</ele>
        <time>2022-12-07T11:51:49Z</time>
      </trkpt>
      <trkpt lat="47.894" lon="-3.94047">
        <ele>15.8</ele>
        <time>2022-12-07T11:51:50Z</time>
      </trkpt>
      <trkpt lat="47.89395" lon="-3.94041">
        <ele>16.4</ele>
        <time>2022-12-07T11:51:51Z</time>
      </trkpt>
      <trkpt lat="47.89391" lon="-3.94035">
        <ele>17</ele>
        <time>2022-12-07T11:51:52Z</time>
      </trkpt>
      <trkpt lat="47.89387" lon="-3.94031">
        <ele>17.5</ele>
        <time>2022-12-07T11:51:53Z</time>
      </trkpt>
      <trkpt lat="47.89384" lon="-3.94027">
        <ele>17.9</ele>
        <time>2022-12-07T11:51:54Z</time>
      </trkpt>
      <trkpt lat="47.89382" lon="-3.94024">
        <ele>18.2</ele>
        <time>2022-12-07T11:51:55Z</time>
      </trkpt>
      <trkpt lat="47.89379" lon="-3.94021">
        <ele>18.6</ele>
        <time>2022-12-07T11:51:56Z</time>
      </trkpt>
      <trkpt lat="47.89377" lon="-3.94018">
        <ele>19</ele>
        <time>2022-12-07T11:51:57Z</time>
      </trkpt>
      <trkpt lat="47.89374" lon="-3.94016">
        <ele>19.4</ele>
        <time>2022-12-07T11:51:58Z</time>
      </trkpt>
      <trkpt lat="47.89371" lon="-3.94013">
        <ele>19.8</ele>
        <time>2022-12-07T11:51:59Z</time>
      </trkpt>
      <trkpt lat="47.89369" lon="-3.9401">
        <ele>20.2</ele>
        <time>2022-12-07T11:52:00Z</time>
      </trkpt>
      <trkpt lat="47.89367" lon="-3.94007">
        <ele>20.5</ele>
        <time>2022-12-07T11:52:01Z</time>
      </trkpt>
      <trkpt lat="47.89365" lon="-3.94004">
        <ele>20.9</ele>
        <time>2022-12-07T11:52:02Z</time>
      </trkpt>
      <trkpt lat="47.89362" lon="-3.94001">
        <ele>21.3</ele>
        <time>2022-12-07T11:52:03Z</time>
      </trkpt>
      <trkpt lat="47.8936" lon="-3.93998">
        <ele>21.7</ele>
        <time>2022-12-07T11:52:04Z</time>
      </trkpt>
      <trkpt lat="47.89358" lon="-3.93995">
        <ele>22</ele>
        <time>2022-12-07T11:52:05Z</time>
      </trkpt>
      <trkpt lat="47.89356" lon="-3.93992">
        <ele>22.4</ele>
        <time>2022-12-07T11:52:06Z</time>
      </trkpt>
      <trkpt lat="47.89353" lon="-3.93988">
        <ele>22.9</ele>
        <time>2022-12-07T11:52:07Z</time>
      </trkpt>
      <trkpt lat="47.89352" lon="-3.93986">
        <ele>23.1</ele>
        <time>2022-12-07T11:52:08Z</time>
      </trkpt>
      <trkpt lat="47.8935" lon="-3.93982">
        <ele>23.5</ele>
        <time>2022-12-07T11:52:09Z</time>
      </trkpt>
      <trkpt lat="47.89348" lon="-3.93979">
        <ele>23.9</ele>
        <time>2022-12-07T11:52:10Z</time>
      </trkpt>
      <trkpt lat="47.89345" lon="-3.93976">
        <ele>24.3</ele>
        <time>2022-12-07T11:52:11Z</time>
      </trkpt>
      <trkpt lat="47.89343" lon="-3.93973">
        <ele>24.7</ele>
        <time>2022-12-07T11:52:12Z</time>
      </trkpt>
      <trkpt lat="47.8934" lon="-3.9397">
        <ele>25.1</ele>
        <time>2022-12-07T11:52:13Z</time>
      </trkpt>
      <trkpt lat="47.89338" lon="-3.93967">
        <ele>25.4</ele>
        <time>2022-12-07T11:52:14Z</time>
      </trkpt>
      <trkpt lat="47.89336" lon="-3.93964">
        <ele>25.8</ele>
        <time>2022-12-07T11:52:15Z</time>
      </trkpt>
      <trkpt lat="47.89334" lon="-3.93961">
        <ele>26.1</ele>
        <time>2022-12-07T11:52:16Z</time>
      </trkpt>
      <trkpt lat="47.89332" lon="-3.93958">
        <ele>26.5</ele>
        <time>2022-12-07T11:52:17Z</time>
      </trkpt>
      <trkpt lat="47.89329" lon="-3.93955">
        <ele>26.8</ele>
        <time>2022-12-07T11:52:18Z</time>
      </trkpt>
      <trkpt lat="47.89327" lon="-3.93952">
        <ele>27.2</ele>
        <time>2022-12-07T11:52:19Z</time>
      </trkpt>
      <trkpt lat="47.89325" lon="-3.93949">
        <ele>27.6</ele>
        <time>2022-12-07T11:52:20Z</time>
      </trkpt>
      <trkpt lat="47.89322" lon="-3.93946">
        <ele>27.9</ele>
        <time>2022-12-07T11:52:21Z</time>
      </trkpt>
      <trkpt lat="47.8932" lon="-3.93943">
        <ele>28.2</ele>
        <time>2022-12-07T11:52:22Z</time>
      </trkpt>
      <trkpt lat="47.89317" lon="-3.9394">
        <ele>28.6</ele>
        <time>2022-12-07T11:52:23Z</time>
      </trkpt>
      <trkpt lat="47.89316" lon="-3.93938">
        <ele>28.7</ele>
        <time>2022-12-07T11:52:24Z</time>
      </trkpt>
      <trkpt lat="47.89314" lon="-3.93936">
        <ele>29</ele>
        <time>2022-12-07T11:52:25Z</time>
      </trkpt>
      <trkpt lat="47.89312" lon="-3.93933">
        <ele>29.3</ele>
        <time>2022-12-07T11:52:26Z</time>
      </trkpt>
      <trkpt lat="47.89309" lon="-3.93929">
        <ele>29.7</ele>
        <time>2022-12-07T11:52:27Z</time>
      </trkpt>
      <trkpt lat="47.89308" lon="-3.93927">
        <ele>29.9</ele>
        <time>2022-12-07T11:52:28Z</time>
      </trkpt>
      <trkpt lat="47.89306" lon="-3.93923">
        <ele>30.3</ele>
        <time>2022-12-07T11:52:29Z</time>
      </trkpt>
      <trkpt lat="47.89305" lon="-3.93922">
        <ele>30.4</ele>
        <time>2022-12-07T11:52:30Z</time>
      </trkpt>
      <trkpt lat="47.89302" lon="-3.93918">
        <ele>30.8</ele>
        <time>2022-12-07T11:52:31Z</time>
      </trkpt>
      <trkpt lat="47.89301" lon="-3.93917">
        <ele>30.9</ele>
        <time>2022-12-07T11:52:32Z</time>
      </trkpt>
      <trkpt lat="47.89298" lon="-3.93913">
        <ele>31.4</ele>
        <time>2022-12-07T11:52:33Z</time>
      </trkpt>
      <trkpt lat="47.89297" lon="-3.93912">
        <ele>31.5</ele>
        <time>2022-12-07T11:52:34Z</time>
      </trkpt>
      <trkpt lat="47.89294" lon="-3.93909">
        <ele>31.8</ele>
        <time>2022-12-07T11:52:35Z</time>
      </trkpt>
      <trkpt lat="47.89292" lon="-3.93906">
        <ele>32</ele>
        <time>2022-12-07T11:52:36Z</time>
      </trkpt>
      <trkpt lat="47.8929" lon="-3.93903">
        <ele>32.3</ele>
        <time>2022-12-07T11:52:37Z</time>
      </trkpt>
      <trkpt lat="47.89287" lon="-3.939">
        <ele>32.6</ele>
        <time>2022-12-07T11:52:38Z</time>
      </trkpt>
      <trkpt lat="47.89286" lon="-3.93898">
        <ele>32.7</ele>
        <time>2022-12-07T11:52:39Z</time>
      </trkpt>
      <trkpt lat="47.89284" lon="-3.93895">
        <ele>33.1</ele>
        <time>2022-12-07T11:52:40Z</time>
      </trkpt>
      <trkpt lat="47.89283" lon="-3.93894">
        <ele>33.1</ele>
        <time>2022-12-07T11:52:41Z</time>
      </trkpt>
      <trkpt lat="47.8928" lon="-3.9389">
        <ele>33.4</ele>
        <time>2022-12-07T11:52:42Z</time>
      </trkpt>
      <trkpt lat="47.89279" lon="-3.93889">
        <ele>33.5</ele>
        <time>2022-12-07T11:52:43Z</time>
      </trkpt>
      <trkpt lat="47.89277" lon="-3.93885">
        <ele>33.8</ele>
        <time>2022-12-07T11:52:44Z</time>
      </trkpt>
      <trkpt lat="47.89276" lon="-3.93884">
        <ele>33.9</ele>
        <time>2022-12-07T11:52:45Z</time>
      </trkpt>
      <trkpt lat="47.89273" lon="-3.93881">
        <ele>34.2</ele>
        <time>2022-12-07T11:52:46Z</time>
      </trkpt>
      <trkpt lat="47.89272" lon="-3.93879">
        <ele>34.3</ele>
        <time>2022-12-07T11:52:47Z</time>
      </trkpt>
      <trkpt lat="47.89269" lon="-3.93875">
        <ele>34.6</ele>
        <time>2022-12-07T11:52:48Z</time>
      </trkpt>
      <trkpt lat="47.89268" lon="-3.93874">
        <ele>34.6</ele>
        <time>2022-12-07T11:52:49Z</time>
      </trkpt>
      <trkpt lat="47.89265" lon="-3.93871">
        <ele>34.9</ele>
        <time>2022-12-07T11:52:50Z</time>
      </trkpt>
      <trkpt lat="47.89264" lon="-3.93869">
        <ele>35</ele>
        <time>2022-12-07T11:52:51Z</time>
      </trkpt>
      <trkpt lat="47.89262" lon="-3.93866">
        <ele>35.2</ele>
        <time>2022-12-07T11:52:52Z</time>
      </trkpt>
      <trkpt lat="47.89261" lon="-3.93865">
        <ele>35.3</ele>
        <time>2022-12-07T11:52:53Z</time>
      </trkpt>
      <trkpt lat="47.89258" lon="-3.93861">
        <ele>35.6</ele>
        <time>2022-12-07T11:52:54Z</time>
      </trkpt>
      <trkpt lat="47.89257" lon="-3.9386">
        <ele>35.7</ele>
        <time>2022-12-07T11:52:55Z</time>
      </trkpt>
      <trkpt lat="47.89254" lon="-3.93857">
        <ele>35.8</ele>
        <time>2022-12-07T11:52:56Z</time>
      </trkpt>
      <trkpt lat="47.89252" lon="-3.93855">
        <ele>36</ele>
        <time>2022-12-07T11:52:57Z</time>
      </trkpt>
      <trkpt lat="47.8925" lon="-3.93852">
        <ele>36.2</ele>
        <time>2022-12-07T11:52:58Z</time>
      </trkpt>
      <trkpt lat="47.89247" lon="-3.93849">
        <ele>36.4</ele>
        <time>2022-12-07T11:52:59Z</time>
      </trkpt>
      <trkpt lat="47.89245" lon="-3.93846">
        <ele>36.6</ele>
        <time>2022-12-07T11:53:00Z</time>
      </trkpt>
      <trkpt lat="47.89241" lon="-3.93843">
        <ele>36.9</ele>
        <time>2022-12-07T11:53:01Z</time>
      </trkpt>
      <trkpt lat="47.89238" lon="-3.93841">
        <ele>37.1</ele>
        <time>2022-12-07T11:53:02Z</time>
      </trkpt>
      <trkpt lat="47.89237" lon="-3.9384">
        <ele>37.2</ele>
        <time>2022-12-07T11:53:03Z</time>
      </trkpt>
      <trkpt lat="47.89234" lon="-3.93838">
        <ele>37.4</ele>
        <time>2022-12-07T11:53:04Z</time>
      </trkpt>
      <trkpt lat="47.89232" lon="-3.93835">
        <ele>37.6</ele>
        <time>2022-12-07T11:53:05Z</time>
      </trkpt>
      <trkpt lat="47.8923" lon="-3.93832">
        <ele>37.8</ele>
        <time>2022-12-07T11:53:06Z</time>
      </trkpt>
      <trkpt lat="47.89227" lon="-3.9383">
        <ele>37.9</ele>
        <time>2022-12-07T11:53:07Z</time>
      </trkpt>
      <trkpt lat="47.89225" lon="-3.93827">
        <ele>38.1</ele>
        <time>2022-12-07T11:53:08Z</time>
      </trkpt>
      <trkpt lat="47.89223" lon="-3.93824">
        <ele>38.3</ele>
        <time>2022-12-07T11:53:09Z</time>
      </trkpt>
      <trkpt lat="47.89221" lon="-3.93821">
        <ele>38.4</ele>
        <time>2022-12-07T11:53:10Z</time>
      </trkpt>
      <trkpt lat="47.89218" lon="-3.93819">
        <ele>38.6</ele>
        <time>2022-12-07T11:53:11Z</time>
      </trkpt>
      <trkpt lat="47.89216" lon="-3.93816">
        <ele>38.7</ele>
        <time>2022-12-07T11:53:12Z</time>
      </trkpt>
      <trkpt lat="47.89213" lon="-3.93814">
        <ele>38.9</ele>
        <time>2022-12-07T11:53:13Z</time>
      </trkpt>
      <trkpt lat="47.89211" lon="-3.93811">
        <ele>39</ele>
        <time>2022-12-07T11:53:14Z</time>
      </trkpt>
      <trkpt lat="47.89208" lon="-3.93809">
        <ele>39.1</ele>
        <time>2022-12-07T11:53:15Z</time>
      </trkpt>
      <trkpt lat="47.89206" lon="-3.93806">
        <ele>39.3</ele>
        <time>2022-12-07T11:53:16Z</time>
      </trkpt>
      <trkpt lat="47.89204" lon="-3.93803">
        <ele>39.4</ele>
        <time>2022-12-07T11:53:17Z</time>
      </trkpt>
      <trkpt lat="47.89201" lon="-3.938">
        <ele>39.5</ele>
        <time>2022-12-07T11:53:18Z</time>
      </trkpt>
      <trkpt lat="47.89199" lon="-3.93798">
        <ele>39.7</ele>
        <time>2022-12-07T11:53:19Z</time>
      </trkpt>
      <trkpt lat="47.89197" lon="-3.93795">
        <ele>39.8</ele>
        <time>2022-12-07T11:53:20Z</time>
      </trkpt>
      <trkpt lat="47.89194" lon="-3.93792">
        <ele>39.9</ele>
        <time>2022-12-07T11:53:21Z</time>
      </trkpt>
      <trkpt lat="47.89191" lon="-3.93789">
        <ele>40.1</ele>
        <time>2022-12-07T11:53:22Z</time>
      </trkpt>
      <trkpt lat="47.89189" lon="-3.93786">
        <ele>40.2</ele>
        <time>2022-12-07T11:53:23Z</time>
      </trkpt>
      <trkpt lat="47.89186" lon="-3.93784">
        <ele>40.3</ele>
        <time>2022-12-07T11:53:24Z</time>
      </trkpt>
      <trkpt lat="47.89183" lon="-3.93781">
        <ele>40.4</ele>
        <time>2022-12-07T11:53:25Z</time>
      </trkpt>
      <trkpt lat="47.8918" lon="-3.93778">
        <ele>40.5</ele>
        <time>2022-12-07T11:53:26Z</time>
      </trkpt>
      <trkpt lat="47.89177" lon="-3.93775">
        <ele>40.6</ele>
        <time>2022-12-07T11:53:27Z</time>
      </trkpt>
      <trkpt lat="47.89173" lon="-3.93771">
        <ele>40.8</ele>
        <time>2022-12-07T11:53:28Z</time>
      </trkpt>
      <trkpt lat="47.8917" lon="-3.93769">
        <ele>40.8</ele>
        <time>2022-12-07T11:53:29Z</time>
      </trkpt>
      <trkpt lat="47.89167" lon="-3.93766">
        <ele>40.9</ele>
        <time>2022-12-07T11:53:30Z</time>
      </trkpt>
      <trkpt lat="47.89164" lon="-3.93763">
        <ele>41</ele>
        <time>2022-12-07T11:53:31Z</time>
      </trkpt>
      <trkpt lat="47.89161" lon="-3.9376">
        <ele>41.1</ele>
        <time>2022-12-07T11:53:32Z</time>
      </trkpt>
      <trkpt lat="47.89157" lon="-3.93756">
        <ele>41.2</ele>
        <time>2022-12-07T11:53:33Z</time>
      </trkpt>
      <trkpt lat="47.89154" lon="-3.93753">
        <ele>41.3</ele>
        <time>2022-12-07T11:53:34Z</time>
      </trkpt>
      <trkpt lat="47.89151" lon="-3.93749">
        <ele>41.3</ele>
        <time>2022-12-07T11:53:35Z</time>
      </trkpt>
      <trkpt lat="47.89147" lon="-3.93746">
        <ele>41.4</ele>
        <time>2022-12-07T11:53:36Z</time>
      </trkpt>
      <trkpt lat="47.89144" lon="-3.93742">
        <ele>41.5</ele>
        <time>2022-12-07T11:53:37Z</time>
      </trkpt>
      <trkpt lat="47.8914" lon="-3.93738">
        <ele>41.5</ele>
        <time>2022-12-07T11:53:38Z</time>
      </trkpt>
      <trkpt lat="47.89137" lon="-3.93734">
        <ele>41.6</ele>
        <time>2022-12-07T11:53:39Z</time>
      </trkpt>
      <trkpt lat="47.89133" lon="-3.93731">
        <ele>41.6</ele>
        <time>2022-12-07T11:53:40Z</time>
      </trkpt>
      <trkpt lat="47.89129" lon="-3.93728">
        <ele>41.7</ele>
        <time>2022-12-07T11:53:41Z</time>
      </trkpt>
      <trkpt lat="47.89125" lon="-3.93725">
        <ele>41.7</ele>
        <time>2022-12-07T11:53:42Z</time>
      </trkpt>
      <trkpt lat="47.89122" lon="-3.93722">
        <ele>41.7</ele>
        <time>2022-12-07T11:53:43Z</time>
      </trkpt>
      <trkpt lat="47.89118" lon="-3.93719">
        <ele>41.7</ele>
        <time>2022-12-07T11:53:44Z</time>
      </trkpt>
      <trkpt lat="47.89114" lon="-3.93715">
        <ele>41.7</ele>
        <time>2022-12-07T11:53:45Z</time>
      </trkpt>
      <trkpt lat="47.89111" lon="-3.93711">
        <ele>41.7</ele>
        <time>2022-12-07T11:53:46Z</time>
      </trkpt>
      <trkpt lat="47.89108" lon="-3.93706">
        <ele>41.6</ele>
        <time>2022-12-07T11:53:47Z</time>
      </trkpt>
      <trkpt lat="47.89104" lon="-3.93702">
        <ele>41.6</ele>
        <time>2022-12-07T11:53:48Z</time>
      </trkpt>
      <trkpt lat="47.89101" lon="-3.93697">
        <ele>41.6</ele>
        <time>2022-12-07T11:53:49Z</time>
      </trkpt>
      <trkpt lat="47.89097" lon="-3.93693">
        <ele>41.6</ele>
        <time>2022-12-07T11:53:50Z</time>
      </trkpt>
      <trkpt lat="47.89093" lon="-3.93689">
        <ele>41.6</ele>
        <time>2022-12-07T11:53:51Z</time>
      </trkpt>
      <trkpt lat="47.89089" lon="-3.93685">
        <ele>41.5</ele>
        <time>2022-12-07T11:53:52Z</time>
      </trkpt>
      <trkpt lat="47.89085" lon="-3.9368">
        <ele>41.5</ele>
        <time>2022-12-07T11:53:53Z</time>
      </trkpt>
      <trkpt lat="47.89081" lon="-3.93676">
        <ele>41.5</ele>
        <time>2022-12-07T11:53:54Z</time>
      </trkpt>
      <trkpt lat="47.89077" lon="-3.93672">
        <ele>41.5</ele>
        <time>2022-12-07T11:53:55Z</time>
      </trkpt>
      <trkpt lat="47.89073" lon="-3.93667">
        <ele>41.4</ele>
        <time>2022-12-07T11:53:56Z</time>
      </trkpt>
      <trkpt lat="47.89069" lon="-3.93663">
        <ele>41.4</ele>
        <time>2022-12-07T11:53:57Z</time>
      </trkpt>
      <trkpt lat="47.89064" lon="-3.93659">
        <ele>41.3</ele>
        <time>2022-12-07T11:53:58Z</time>
      </trkpt>
      <trkpt lat="47.8906" lon="-3.93655">
        <ele>41.3</ele>
        <time>2022-12-07T11:53:59Z</time>
      </trkpt>
      <trkpt lat="47.89056" lon="-3.93651">
        <ele>41.2</ele>
        <time>2022-12-07T11:54:00Z</time>
      </trkpt>
      <trkpt lat="47.89051" lon="-3.93647">
        <ele>41.1</ele>
        <time>2022-12-07T11:54:01Z</time>
      </trkpt>
      <trkpt lat="47.89047" lon="-3.93643">
        <ele>41.1</ele>
        <time>2022-12-07T11:54:02Z</time>
      </trkpt>
      <trkpt lat="47.89043" lon="-3.93638">
        <ele>41</ele>
        <time>2022-12-07T11:54:03Z</time>
      </trkpt>
      <trkpt lat="47.89039" lon="-3.93634">
        <ele>40.9</ele>
        <time>2022-12-07T11:54:04Z</time>
      </trkpt>
      <trkpt lat="47.89035" lon="-3.93629">
        <ele>40.9</ele>
        <time>2022-12-07T11:54:05Z</time>
      </trkpt>
      <trkpt lat="47.8903" lon="-3.93624">
        <ele>40.8</ele>
        <time>2022-12-07T11:54:06Z</time>
      </trkpt>
      <trkpt lat="47.89026" lon="-3.93619">
        <ele>40.8</ele>
        <time>2022-12-07T11:54:07Z</time>
      </trkpt>
      <trkpt lat="47.89022" lon="-3.93615">
        <ele>40.7</ele>
        <time>2022-12-07T11:54:08Z</time>
      </trkpt>
      <trkpt lat="47.89017" lon="-3.9361">
        <ele>40.7</ele>
        <time>2022-12-07T11:54:09Z</time>
      </trkpt>
      <trkpt lat="47.89013" lon="-3.93605">
        <ele>40.6</ele>
        <time>2022-12-07T11:54:10Z</time>
      </trkpt>
      <trkpt lat="47.89009" lon="-3.93601">
        <ele>40.6</ele>
        <time>2022-12-07T11:54:11Z</time>
      </trkpt>
      <trkpt lat="47.89004" lon="-3.93596">
        <ele>40.6</ele>
        <time>2022-12-07T11:54:12Z</time>
      </trkpt>
      <trkpt lat="47.88999" lon="-3.93592">
        <ele>40.6</ele>
        <time>2022-12-07T11:54:13Z</time>
      </trkpt>
      <trkpt lat="47.88995" lon="-3.93587">
        <ele>40.6</ele>
        <time>2022-12-07T11:54:14Z</time>
      </trkpt>
      <trkpt lat="47.8899" lon="-3.93583">
        <ele>40.6</ele>
        <time>2022-12-07T11:54:15Z</time>
      </trkpt>
      <trkpt lat="47.88985" lon="-3.93578">
        <ele>40.6</ele>
        <time>2022-12-07T11:54:16Z</time>
      </trkpt>
      <trkpt lat="47.88981" lon="-3.93574">
        <ele>40.6</ele>
        <time>2022-12-07T11:54:17Z</time>
      </trkpt>
      <trkpt lat="47.88976" lon="-3.9357">
        <ele>40.7</ele>
        <time>2022-12-07T11:54:18Z</time>
      </trkpt>
      <trkpt lat="47.88972" lon="-3.93566">
        <ele>40.7</ele>
        <time>2022-12-07T11:54:19Z</time>
      </trkpt>
      <trkpt lat="47.88967" lon="-3.93561">
        <ele>40.7</ele>
        <time>2022-12-07T11:54:20Z</time>
      </trkpt>
      <trkpt lat="47.88963" lon="-3.93557">
        <ele>40.8</ele>
        <time>2022-12-07T11:54:21Z</time>
      </trkpt>
      <trkpt lat="47.88958" lon="-3.93552">
        <ele>40.9</ele>
        <time>2022-12-07T11:54:22Z</time>
      </trkpt>
      <trkpt lat="47.88953" lon="-3.93549">
        <ele>41</ele>
        <time>2022-12-07T11:54:23Z</time>
      </trkpt>
      <trkpt lat="47.88948" lon="-3.93545">
        <ele>41.1</ele>
        <time>2022-12-07T11:54:24Z</time>
      </trkpt>
      <trkpt lat="47.88943" lon="-3.93542">
        <ele>41.2</ele>
        <time>2022-12-07T11:54:25Z</time>
      </trkpt>
      <trkpt lat="47.88938" lon="-3.93539">
        <ele>41.3</ele>
        <time>2022-12-07T11:54:26Z</time>
      </trkpt>
      <trkpt lat="47.88933" lon="-3.93536">
        <ele>41.5</ele>
        <time>2022-12-07T11:54:27Z</time>
      </trkpt>
      <trkpt lat="47.88929" lon="-3.93533">
        <ele>41.6</ele>
        <time>2022-12-07T11:54:28Z</time>
      </trkpt>
      <trkpt lat="47.88924" lon="-3.9353">
        <ele>41.8</ele>
        <time>2022-12-07T11:54:29Z</time>
      </trkpt>
      <trkpt lat="47.88919" lon="-3.93528">
        <ele>41.9</ele>
        <time>2022-12-07T11:54:30Z</time>
      </trkpt>
      <trkpt lat="47.88914" lon="-3.93525">
        <ele>42.1</ele>
        <time>2022-12-07T11:54:31Z</time>
      </trkpt>
      <trkpt lat="47.8891" lon="-3.93523">
        <ele>42.2</ele>
        <time>2022-12-07T11:54:32Z</time>
      </trkpt>
      <trkpt lat="47.88905" lon="-3.93522">
        <ele>42.3</ele>
        <time>2022-12-07T11:54:33Z</time>
      </trkpt>
      <trkpt lat="47.889" lon="-3.9352">
        <ele>42.4</ele>
        <time>2022-12-07T11:54:34Z</time>
      </trkpt>
      <trkpt lat="47.88895" lon="-3.93518">
        <ele>42.5</ele>
        <time>2022-12-07T11:54:35Z</time>
      </trkpt>
      <trkpt lat="47.8889" lon="-3.93516">
        <ele>42.6</ele>
        <time>2022-12-07T11:54:36Z</time>
      </trkpt>
      <trkpt lat="47.88885" lon="-3.93515">
        <ele>42.6</ele>
        <time>2022-12-07T11:54:37Z</time>
      </trkpt>
      <trkpt lat="47.8888" lon="-3.93513">
        <ele>42.7</ele>
        <time>2022-12-07T11:54:38Z</time>
      </trkpt>
      <trkpt lat="47.88876" lon="-3.93512">
        <ele>42.8</ele>
        <time>2022-12-07T11:54:39Z</time>
      </trkpt>
      <trkpt lat="47.88871" lon="-3.93511">
        <ele>43</ele>
        <time>2022-12-07T11:54:40Z</time>
      </trkpt>
      <trkpt lat="47.88867" lon="-3.93511">
        <ele>43.2</ele>
        <time>2022-12-07T11:54:41Z</time>
      </trkpt>
      <trkpt lat="47.88863" lon="-3.9351">
        <ele>43.4</ele>
        <time>2022-12-07T11:54:42Z</time>
      </trkpt>
      <trkpt lat="47.88858" lon="-3.93509">
        <ele>43.6</ele>
        <time>2022-12-07T11:54:43Z</time>
      </trkpt>
      <trkpt lat="47.88854" lon="-3.93508">
        <ele>43.7</ele>
        <time>2022-12-07T11:54:44Z</time>
      </trkpt>
      <trkpt lat="47.88851" lon="-3.93508">
        <ele>43.9</ele>
        <time>2022-12-07T11:54:45Z</time>
      </trkpt>
      <trkpt lat="47.88846" lon="-3.93507">
        <ele>44.1</ele>
        <time>2022-12-07T11:54:46Z</time>
      </trkpt>
      <trkpt lat="47.88842" lon="-3.93507">
        <ele>44.3</ele>
        <time>2022-12-07T11:54:47Z</time>
      </trkpt>
      <trkpt lat="47.88839" lon="-3.93507">
        <ele>44.4</ele>
        <time>2022-12-07T11:54:48Z</time>
      </trkpt>
      <trkpt lat="47.88835" lon="-3.93507">
        <ele>44.5</ele>
        <time>2022-12-07T11:54:49Z</time>
      </trkpt>
      <trkpt lat="47.8883" lon="-3.93507">
        <ele>44.7</ele>
        <time>2022-12-07T11:54:50Z</time>
      </trkpt>
      <trkpt lat="47.88826" lon="-3.93507">
        <ele>44.9</ele>
        <time>2022-12-07T11:54:51Z</time>
      </trkpt>
      <trkpt lat="47.88822" lon="-3.93507">
        <ele>45</ele>
        <time>2022-12-07T11:54:52Z</time>
      </trkpt>
      <trkpt lat="47.88819" lon="-3.93507">
        <ele>45.1</ele>
        <time>2022-12-07T11:54:53Z</time>
      </trkpt>
      <trkpt lat="47.88814" lon="-3.93507">
        <ele>45.3</ele>
        <time>2022-12-07T11:54:54Z</time>
      </trkpt>
      <trkpt lat="47.88809" lon="-3.93508">
        <ele>45.4</ele>
        <time>2022-12-07T11:54:55Z</time>
      </trkpt>
      <trkpt lat="47.88805" lon="-3.93509">
        <ele>45.6</ele>
        <time>2022-12-07T11:54:56Z</time>
      </trkpt>
      <trkpt lat="47.888" lon="-3.9351">
        <ele>45.7</ele>
        <time>2022-12-07T11:54:57Z</time>
      </trkpt>
      <trkpt lat="47.88795" lon="-3.93512">
        <ele>45.8</ele>
        <time>2022-12-07T11:54:58Z</time>
      </trkpt>
      <trkpt lat="47.8879" lon="-3.93513">
        <ele>45.9</ele>
        <time>2022-12-07T11:54:59Z</time>
      </trkpt>
      <trkpt lat="47.88786" lon="-3.93515">
        <ele>46</ele>
        <time>2022-12-07T11:55:00Z</time>
      </trkpt>
      <trkpt lat="47.88783" lon="-3.93515">
        <ele>46.1</ele>
        <time>2022-12-07T11:55:01Z</time>
      </trkpt>
      <trkpt lat="47.88779" lon="-3.93516">
        <ele>46.2</ele>
        <time>2022-12-07T11:55:02Z</time>
      </trkpt>
      <trkpt lat="47.88774" lon="-3.93517">
        <ele>46.3</ele>
        <time>2022-12-07T11:55:03Z</time>
      </trkpt>
      <trkpt lat="47.8877" lon="-3.93519">
        <ele>46.4</ele>
        <time>2022-12-07T11:55:04Z</time>
      </trkpt>
      <trkpt lat="47.88764" lon="-3.9352">
        <ele>46.5</ele>
        <time>2022-12-07T11:55:05Z</time>
      </trkpt>
      <trkpt lat="47.88759" lon="-3.93521">
        <ele>46.5</ele>
        <time>2022-12-07T11:55:06Z</time>
      </trkpt>
      <trkpt lat="47.88755" lon="-3.93522">
        <ele>46.6</ele>
        <time>2022-12-07T11:55:07Z</time>
      </trkpt>
      <trkpt lat="47.8875" lon="-3.93519">
        <ele>46.6</ele>
        <time>2022-12-07T11:55:09Z</time>
      </trkpt>
      <trkpt lat="47.88742" lon="-3.93524">
        <ele>46.7</ele>
        <time>2022-12-07T11:55:10Z</time>
      </trkpt>
      <trkpt lat="47.88737" lon="-3.93526">
        <ele>46.7</ele>
        <time>2022-12-07T11:55:11Z</time>
      </trkpt>
      <trkpt lat="47.88732" lon="-3.93527">
        <ele>46.7</ele>
        <time>2022-12-07T11:55:12Z</time>
      </trkpt>
      <trkpt lat="47.88727" lon="-3.93529">
        <ele>46.7</ele>
        <time>2022-12-07T11:55:13Z</time>
      </trkpt>
      <trkpt lat="47.88722" lon="-3.9353">
        <ele>46.7</ele>
        <time>2022-12-07T11:55:14Z</time>
      </trkpt>
      <trkpt lat="47.88718" lon="-3.93531">
        <ele>46.7</ele>
        <time>2022-12-07T11:55:15Z</time>
      </trkpt>
      <trkpt lat="47.88713" lon="-3.93532">
        <ele>46.7</ele>
        <time>2022-12-07T11:55:16Z</time>
      </trkpt>
      <trkpt lat="47.88708" lon="-3.93533">
        <ele>46.6</ele>
        <time>2022-12-07T11:55:17Z</time>
      </trkpt>
      <trkpt lat="47.88704" lon="-3.93534">
        <ele>46.6</ele>
        <time>2022-12-07T11:55:18Z</time>
      </trkpt>
      <trkpt lat="47.88699" lon="-3.93536">
        <ele>46.5</ele>
        <time>2022-12-07T11:55:19Z</time>
      </trkpt>
      <trkpt lat="47.88694" lon="-3.93537">
        <ele>46.4</ele>
        <time>2022-12-07T11:55:20Z</time>
      </trkpt>
      <trkpt lat="47.88689" lon="-3.93538">
        <ele>46.4</ele>
        <time>2022-12-07T11:55:21Z</time>
      </trkpt>
      <trkpt lat="47.88683" lon="-3.9354">
        <ele>46.3</ele>
        <time>2022-12-07T11:55:22Z</time>
      </trkpt>
      <trkpt lat="47.88678" lon="-3.93541">
        <ele>46.2</ele>
        <time>2022-12-07T11:55:23Z</time>
      </trkpt>
      <trkpt lat="47.88673" lon="-3.93542">
        <ele>46.1</ele>
        <time>2022-12-07T11:55:24Z</time>
      </trkpt>
      <trkpt lat="47.88667" lon="-3.93542">
        <ele>46</ele>
        <time>2022-12-07T11:55:25Z</time>
      </trkpt>
      <trkpt lat="47.88662" lon="-3.93543">
        <ele>45.9</ele>
        <time>2022-12-07T11:55:26Z</time>
      </trkpt>
      <trkpt lat="47.88656" lon="-3.93543">
        <ele>45.8</ele>
        <time>2022-12-07T11:55:27Z</time>
      </trkpt>
      <trkpt lat="47.8865" lon="-3.93543">
        <ele>45.6</ele>
        <time>2022-12-07T11:55:28Z</time>
      </trkpt>
      <trkpt lat="47.88644" lon="-3.93544">
        <ele>45.5</ele>
        <time>2022-12-07T11:55:29Z</time>
      </trkpt>
      <trkpt lat="47.88638" lon="-3.93544">
        <ele>45.3</ele>
        <time>2022-12-07T11:55:30Z</time>
      </trkpt>
      <trkpt lat="47.88631" lon="-3.93544">
        <ele>45.1</ele>
        <time>2022-12-07T11:55:31Z</time>
      </trkpt>
      <trkpt lat="47.88625" lon="-3.93543">
        <ele>44.9</ele>
        <time>2022-12-07T11:55:32Z</time>
      </trkpt>
      <trkpt lat="47.88619" lon="-3.93543">
        <ele>44.7</ele>
        <time>2022-12-07T11:55:33Z</time>
      </trkpt>
      <trkpt lat="47.88613" lon="-3.93542">
        <ele>44.5</ele>
        <time>2022-12-07T11:55:34Z</time>
      </trkpt>
      <trkpt lat="47.88607" lon="-3.9354">
        <ele>44.3</ele>
        <time>2022-12-07T11:55:35Z</time>
      </trkpt>
      <trkpt lat="47.88601" lon="-3.93539">
        <ele>44</ele>
        <time>2022-12-07T11:55:36Z</time>
      </trkpt>
      <trkpt lat="47.88594" lon="-3.93538">
        <ele>43.8</ele>
        <time>2022-12-07T11:55:37Z</time>
      </trkpt>
      <trkpt lat="47.88588" lon="-3.93536">
        <ele>43.5</ele>
        <time>2022-12-07T11:55:38Z</time>
      </trkpt>
      <trkpt lat="47.88581" lon="-3.93535">
        <ele>43.3</ele>
        <time>2022-12-07T11:55:39Z</time>
      </trkpt>
      <trkpt lat="47.88575" lon="-3.93533">
        <ele>43</ele>
        <time>2022-12-07T11:55:40Z</time>
      </trkpt>
      <trkpt lat="47.88568" lon="-3.93531">
        <ele>42.7</ele>
        <time>2022-12-07T11:55:41Z</time>
      </trkpt>
      <trkpt lat="47.88561" lon="-3.93528">
        <ele>42.4</ele>
        <time>2022-12-07T11:55:42Z</time>
      </trkpt>
      <trkpt lat="47.88554" lon="-3.93525">
        <ele>42.1</ele>
        <time>2022-12-07T11:55:43Z</time>
      </trkpt>
      <trkpt lat="47.88547" lon="-3.93523">
        <ele>41.8</ele>
        <time>2022-12-07T11:55:44Z</time>
      </trkpt>
      <trkpt lat="47.8854" lon="-3.9352">
        <ele>41.5</ele>
        <time>2022-12-07T11:55:45Z</time>
      </trkpt>
      <trkpt lat="47.88533" lon="-3.93517">
        <ele>41.1</ele>
        <time>2022-12-07T11:55:46Z</time>
      </trkpt>
      <trkpt lat="47.88526" lon="-3.93514">
        <ele>40.8</ele>
        <time>2022-12-07T11:55:47Z</time>
      </trkpt>
      <trkpt lat="47.88518" lon="-3.9351">
        <ele>40.4</ele>
        <time>2022-12-07T11:55:48Z</time>
      </trkpt>
      <trkpt lat="47.88511" lon="-3.93507">
        <ele>39.9</ele>
        <time>2022-12-07T11:55:49Z</time>
      </trkpt>
      <trkpt lat="47.88504" lon="-3.93503">
        <ele>39.5</ele>
        <time>2022-12-07T11:55:50Z</time>
      </trkpt>
      <trkpt lat="47.88497" lon="-3.93499">
        <ele>39.1</ele>
        <time>2022-12-07T11:55:51Z</time>
      </trkpt>
      <trkpt lat="47.8849" lon="-3.93495">
        <ele>38.6</ele>
        <time>2022-12-07T11:55:52Z</time>
      </trkpt>
      <trkpt lat="47.88482" lon="-3.93491">
        <ele>37.9</ele>
        <time>2022-12-07T11:55:53Z</time>
      </trkpt>
      <trkpt lat="47.88475" lon="-3.93485">
        <ele>37.2</ele>
        <time>2022-12-07T11:55:54Z</time>
      </trkpt>
      <trkpt lat="47.88467" lon="-3.93479">
        <ele>36.5</ele>
        <time>2022-12-07T11:55:55Z</time>
      </trkpt>
      <trkpt lat="47.88459" lon="-3.93473">
        <ele>35.6</ele>
        <time>2022-12-07T11:55:56Z</time>
      </trkpt>
      <trkpt lat="47.8845" lon="-3.93466">
        <ele>34.6</ele>
        <time>2022-12-07T11:55:57Z</time>
      </trkpt>
      <trkpt lat="47.88442" lon="-3.9346">
        <ele>33.7</ele>
        <time>2022-12-07T11:55:58Z</time>
      </trkpt>
      <trkpt lat="47.88433" lon="-3.93452">
        <ele>32.8</ele>
        <time>2022-12-07T11:55:59Z</time>
      </trkpt>
      <trkpt lat="47.88423" lon="-3.93445">
        <ele>31.9</ele>
        <time>2022-12-07T11:56:00Z</time>
      </trkpt>
      <trkpt lat="47.88414" lon="-3.93434">
        <ele>30.7</ele>
        <time>2022-12-07T11:56:01Z</time>
      </trkpt>
      <trkpt lat="47.88405" lon="-3.93423">
        <ele>29.3</ele>
        <time>2022-12-07T11:56:02Z</time>
      </trkpt>
      <trkpt lat="47.88396" lon="-3.93411">
        <ele>27.8</ele>
        <time>2022-12-07T11:56:03Z</time>
      </trkpt>
      <trkpt lat="47.88386" lon="-3.93401">
        <ele>26.3</ele>
        <time>2022-12-07T11:56:04Z</time>
      </trkpt>
      <trkpt lat="47.88374" lon="-3.93391">
        <ele>24.7</ele>
        <time>2022-12-07T11:56:05Z</time>
      </trkpt>
      <trkpt lat="47.88363" lon="-3.93383">
        <ele>23.1</ele>
        <time>2022-12-07T11:56:06Z</time>
      </trkpt>
      <trkpt lat="47.8835" lon="-3.93376">
        <ele>21.7</ele>
        <time>2022-12-07T11:56:07Z</time>
      </trkpt>
      <trkpt lat="47.88338" lon="-3.93371">
        <ele>20.3</ele>
        <time>2022-12-07T11:56:08Z</time>
      </trkpt>
      <trkpt lat="47.88324" lon="-3.93367">
        <ele>19</ele>
        <time>2022-12-07T11:56:09Z</time>
      </trkpt>
      <trkpt lat="47.88311" lon="-3.93365">
        <ele>17.5</ele>
        <time>2022-12-07T11:56:10Z</time>
      </trkpt>
      <trkpt lat="47.88297" lon="-3.93362">
        <ele>16.1</ele>
        <time>2022-12-07T11:56:11Z</time>
      </trkpt>
      <trkpt lat="47.88283" lon="-3.9336">
        <ele>14.8</ele>
        <time>2022-12-07T11:56:12Z</time>
      </trkpt>
      <trkpt lat="47.8827" lon="-3.93355">
        <ele>13.7</ele>
        <time>2022-12-07T11:56:13Z</time>
      </trkpt>
      <trkpt lat="47.88257" lon="-3.93349">
        <ele>12.9</ele>
        <time>2022-12-07T11:56:14Z</time>
      </trkpt>
      <trkpt lat="47.88244" lon="-3.93343">
        <ele>12.4</ele>
        <time>2022-12-07T11:56:15Z</time>
      </trkpt>
      <trkpt lat="47.88232" lon="-3.93336">
        <ele>11.8</ele>
        <time>2022-12-07T11:56:16Z</time>
      </trkpt>
      <trkpt lat="47.8822" lon="-3.93327">
        <ele>11.2</ele>
        <time>2022-12-07T11:56:17Z</time>
      </trkpt>
      <trkpt lat="47.88209" lon="-3.93317">
        <ele>10.6</ele>
        <time>2022-12-07T11:56:18Z</time>
      </trkpt>
      <trkpt lat="47.88199" lon="-3.93306">
        <ele>10.2</ele>
        <time>2022-12-07T11:56:19Z</time>
      </trkpt>
      <trkpt lat="47.88189" lon="-3.93294">
        <ele>9.9</ele>
        <time>2022-12-07T11:56:20Z</time>
      </trkpt>
      <trkpt lat="47.8818" lon="-3.93282">
        <ele>9.6</ele>
        <time>2022-12-07T11:56:21Z</time>
      </trkpt>
      <trkpt lat="47.88172" lon="-3.93271">
        <ele>9.3</ele>
        <time>2022-12-07T11:56:22Z</time>
      </trkpt>
      <trkpt lat="47.88164" lon="-3.93259">
        <ele>9</ele>
        <time>2022-12-07T11:56:23Z</time>
      </trkpt>
      <trkpt lat="47.88158" lon="-3.93247">
        <ele>8.7</ele>
        <time>2022-12-07T11:56:24Z</time>
      </trkpt>
      <trkpt lat="47.88151" lon="-3.93235">
        <ele>8.6</ele>
        <time>2022-12-07T11:56:25Z</time>
      </trkpt>
      <trkpt lat="47.88143" lon="-3.93224">
        <ele>8.4</ele>
        <time>2022-12-07T11:56:26Z</time>
      </trkpt>
      <trkpt lat="47.88136" lon="-3.93213">
        <ele>8.3</ele>
        <time>2022-12-07T11:56:27Z</time>
      </trkpt>
      <trkpt lat="47.88129" lon="-3.93203">
        <ele>8.3</ele>
        <time>2022-12-07T11:56:28Z</time>
      </trkpt>
      <trkpt lat="47.88123" lon="-3.93192">
        <ele>8.2</ele>
        <time>2022-12-07T11:56:29Z</time>
      </trkpt>
      <trkpt lat="47.88117" lon="-3.93182">
        <ele>8.2</ele>
        <time>2022-12-07T11:56:30Z</time>
      </trkpt>
      <trkpt lat="47.88111" lon="-3.93173">
        <ele>8.1</ele>
        <time>2022-12-07T11:56:31Z</time>
      </trkpt>
      <trkpt lat="47.88105" lon="-3.93163">
        <ele>8.1</ele>
        <time>2022-12-07T11:56:32Z</time>
      </trkpt>
      <trkpt lat="47.88099" lon="-3.93155">
        <ele>8</ele>
        <time>2022-12-07T11:56:33Z</time>
      </trkpt>
      <trkpt lat="47.88094" lon="-3.93146">
        <ele>8</ele>
        <time>2022-12-07T11:56:34Z</time>
      </trkpt>
      <trkpt lat="47.88089" lon="-3.93138">
        <ele>7.9</ele>
        <time>2022-12-07T11:56:35Z</time>
      </trkpt>
      <trkpt lat="47.88084" lon="-3.9313">
        <ele>7.9</ele>
        <time>2022-12-07T11:56:36Z</time>
      </trkpt>
      <trkpt lat="47.88079" lon="-3.93122">
        <ele>7.8</ele>
        <time>2022-12-07T11:56:37Z</time>
      </trkpt>
      <trkpt lat="47.88073" lon="-3.93115">
        <ele>7.7</ele>
        <time>2022-12-07T11:56:38Z</time>
      </trkpt>
      <trkpt lat="47.88068" lon="-3.93108">
        <ele>7.7</ele>
        <time>2022-12-07T11:56:39Z</time>
      </trkpt>
      <trkpt lat="47.88063" lon="-3.93102">
        <ele>7.6</ele>
        <time>2022-12-07T11:56:40Z</time>
      </trkpt>
      <trkpt lat="47.88057" lon="-3.93096">
        <ele>7.5</ele>
        <time>2022-12-07T11:56:41Z</time>
      </trkpt>
      <trkpt lat="47.88052" lon="-3.9309">
        <ele>7.4</ele>
        <time>2022-12-07T11:56:42Z</time>
      </trkpt>
      <trkpt lat="47.88048" lon="-3.93083">
        <ele>7.3</ele>
        <time>2022-12-07T11:56:43Z</time>
      </trkpt>
      <trkpt lat="47.88045" lon="-3.93074">
        <ele>7.2</ele>
        <time>2022-12-07T11:56:44Z</time>
      </trkpt>
      <trkpt lat="47.88042" lon="-3.93065">
        <ele>7.1</ele>
        <time>2022-12-07T11:56:45Z</time>
      </trkpt>
      <trkpt lat="47.88038" lon="-3.93057">
        <ele>7</ele>
        <time>2022-12-07T11:56:46Z</time>
      </trkpt>
      <trkpt lat="47.88034" lon="-3.9305">
        <ele>7</ele>
        <time>2022-12-07T11:56:47Z</time>
      </trkpt>
      <trkpt lat="47.88029" lon="-3.93044">
        <ele>6.9</ele>
        <time>2022-12-07T11:56:48Z</time>
      </trkpt>
      <trkpt lat="47.88024" lon="-3.93039">
        <ele>6.9</ele>
        <time>2022-12-07T11:56:49Z</time>
      </trkpt>
      <trkpt lat="47.88019" lon="-3.93034">
        <ele>6.8</ele>
        <time>2022-12-07T11:56:50Z</time>
      </trkpt>
      <trkpt lat="47.88014" lon="-3.93029">
        <ele>6.7</ele>
        <time>2022-12-07T11:56:51Z</time>
      </trkpt>
      <trkpt lat="47.88008" lon="-3.93025">
        <ele>6.6</ele>
        <time>2022-12-07T11:56:52Z</time>
      </trkpt>
      <trkpt lat="47.88002" lon="-3.93022">
        <ele>6.6</ele>
        <time>2022-12-07T11:56:53Z</time>
      </trkpt>
      <trkpt lat="47.87996" lon="-3.93018">
        <ele>6.5</ele>
        <time>2022-12-07T11:56:54Z</time>
      </trkpt>
      <trkpt lat="47.8799" lon="-3.93015">
        <ele>6.5</ele>
        <time>2022-12-07T11:56:55Z</time>
      </trkpt>
      <trkpt lat="47.87984" lon="-3.93013">
        <ele>6.5</ele>
        <time>2022-12-07T11:56:56Z</time>
      </trkpt>
      <trkpt lat="47.87977" lon="-3.93011">
        <ele>6.5</ele>
        <time>2022-12-07T11:56:57Z</time>
      </trkpt>
      <trkpt lat="47.8797" lon="-3.9301">
        <ele>6.5</ele>
        <time>2022-12-07T11:56:58Z</time>
      </trkpt>
      <trkpt lat="47.87964" lon="-3.93009">
        <ele>6.5</ele>
        <time>2022-12-07T11:56:59Z</time>
      </trkpt>
      <trkpt lat="47.87957" lon="-3.93009">
        <ele>6.4</ele>
        <time>2022-12-07T11:57:00Z</time>
      </trkpt>
      <trkpt lat="47.87951" lon="-3.93009">
        <ele>6.4</ele>
        <time>2022-12-07T11:57:01Z</time>
      </trkpt>
      <trkpt lat="47.87945" lon="-3.93008">
        <ele>6.5</ele>
        <time>2022-12-07T11:57:02Z</time>
      </trkpt>
      <trkpt lat="47.87938" lon="-3.93009">
        <ele>6.5</ele>
        <time>2022-12-07T11:57:03Z</time>
      </trkpt>
      <trkpt lat="47.87932" lon="-3.93009">
        <ele>6.5</ele>
        <time>2022-12-07T11:57:04Z</time>
      </trkpt>
      <trkpt lat="47.87926" lon="-3.93008">
        <ele>6.5</ele>
        <time>2022-12-07T11:57:05Z</time>
      </trkpt>
      <trkpt lat="47.8792" lon="-3.93008">
        <ele>6.6</ele>
        <time>2022-12-07T11:57:06Z</time>
      </trkpt>
      <trkpt lat="47.87914" lon="-3.93008">
        <ele>6.6</ele>
        <time>2022-12-07T11:57:07Z</time>
      </trkpt>
      <trkpt lat="47.87908" lon="-3.93008">
        <ele>6.6</ele>
        <time>2022-12-07T11:57:08Z</time>
      </trkpt>
      <trkpt lat="47.87902" lon="-3.93008">
        <ele>6.6</ele>
        <time>2022-12-07T11:57:09Z</time>
      </trkpt>
      <trkpt lat="47.87896" lon="-3.93008">
        <ele>6.6</ele>
        <time>2022-12-07T11:57:10Z</time>
      </trkpt>
      <trkpt lat="47.8789" lon="-3.93007">
        <ele>6.6</ele>
        <time>2022-12-07T11:57:11Z</time>
      </trkpt>
      <trkpt lat="47.87884" lon="-3.93007">
        <ele>6.6</ele>
        <time>2022-12-07T11:57:12Z</time>
      </trkpt>
      <trkpt lat="47.87879" lon="-3.93006">
        <ele>6.7</ele>
        <time>2022-12-07T11:57:13Z</time>
      </trkpt>
      <trkpt lat="47.87873" lon="-3.93006">
        <ele>6.7</ele>
        <time>2022-12-07T11:57:14Z</time>
      </trkpt>
      <trkpt lat="47.87867" lon="-3.93006">
        <ele>6.7</ele>
        <time>2022-12-07T11:57:15Z</time>
      </trkpt>
      <trkpt lat="47.87861" lon="-3.93007">
        <ele>6.7</ele>
        <time>2022-12-07T11:57:16Z</time>
      </trkpt>
      <trkpt lat="47.87854" lon="-3.93007">
        <ele>6.7</ele>
        <time>2022-12-07T11:57:17Z</time>
      </trkpt>
      <trkpt lat="47.87848" lon="-3.93008">
        <ele>6.7</ele>
        <time>2022-12-07T11:57:18Z</time>
      </trkpt>
      <trkpt lat="47.87841" lon="-3.9301">
        <ele>6.7</ele>
        <time>2022-12-07T11:57:19Z</time>
      </trkpt>
      <trkpt lat="47.87834" lon="-3.93011">
        <ele>6.7</ele>
        <time>2022-12-07T11:57:20Z</time>
      </trkpt>
      <trkpt lat="47.87827" lon="-3.93013">
        <ele>6.7</ele>
        <time>2022-12-07T11:57:21Z</time>
      </trkpt>
      <trkpt lat="47.8782" lon="-3.93015">
        <ele>6.7</ele>
        <time>2022-12-07T11:57:22Z</time>
      </trkpt>
      <trkpt lat="47.87814" lon="-3.93017">
        <ele>6.7</ele>
        <time>2022-12-07T11:57:23Z</time>
      </trkpt>
      <trkpt lat="47.87807" lon="-3.93019">
        <ele>6.8</ele>
        <time>2022-12-07T11:57:24Z</time>
      </trkpt>
      <trkpt lat="47.87801" lon="-3.93021">
        <ele>6.8</ele>
        <time>2022-12-07T11:57:25Z</time>
      </trkpt>
      <trkpt lat="47.87795" lon="-3.93023">
        <ele>6.9</ele>
        <time>2022-12-07T11:57:26Z</time>
      </trkpt>
      <trkpt lat="47.87789" lon="-3.93025">
        <ele>7</ele>
        <time>2022-12-07T11:57:27Z</time>
      </trkpt>
      <trkpt lat="47.87783" lon="-3.93027">
        <ele>7.1</ele>
        <time>2022-12-07T11:57:28Z</time>
      </trkpt>
      <trkpt lat="47.87777" lon="-3.93029">
        <ele>7.2</ele>
        <time>2022-12-07T11:57:29Z</time>
      </trkpt>
      <trkpt lat="47.87772" lon="-3.93031">
        <ele>7.3</ele>
        <time>2022-12-07T11:57:30Z</time>
      </trkpt>
      <trkpt lat="47.87766" lon="-3.93033">
        <ele>7.4</ele>
        <time>2022-12-07T11:57:31Z</time>
      </trkpt>
      <trkpt lat="47.87761" lon="-3.93035">
        <ele>7.5</ele>
        <time>2022-12-07T11:57:32Z</time>
      </trkpt>
      <trkpt lat="47.87755" lon="-3.93035">
        <ele>7.7</ele>
        <time>2022-12-07T11:57:33Z</time>
      </trkpt>
      <trkpt lat="47.87751" lon="-3.93035">
        <ele>7.9</ele>
        <time>2022-12-07T11:57:34Z</time>
      </trkpt>
      <trkpt lat="47.87746" lon="-3.93034">
        <ele>8</ele>
        <time>2022-12-07T11:57:35Z</time>
      </trkpt>
      <trkpt lat="47.87741" lon="-3.93035">
        <ele>8.2</ele>
        <time>2022-12-07T11:57:36Z</time>
      </trkpt>
      <trkpt lat="47.87737" lon="-3.93036">
        <ele>8.3</ele>
        <time>2022-12-07T11:57:37Z</time>
      </trkpt>
      <trkpt lat="47.87732" lon="-3.93037">
        <ele>8.4</ele>
        <time>2022-12-07T11:57:38Z</time>
      </trkpt>
      <trkpt lat="47.87728" lon="-3.93038">
        <ele>8.4</ele>
        <time>2022-12-07T11:57:39Z</time>
      </trkpt>
      <trkpt lat="47.87723" lon="-3.9304">
        <ele>8.5</ele>
        <time>2022-12-07T11:57:40Z</time>
      </trkpt>
      <trkpt lat="47.87718" lon="-3.93041">
        <ele>8.6</ele>
        <time>2022-12-07T11:57:41Z</time>
      </trkpt>
      <trkpt lat="47.87713" lon="-3.93041">
        <ele>8.7</ele>
        <time>2022-12-07T11:57:42Z</time>
      </trkpt>
      <trkpt lat="47.87708" lon="-3.9304">
        <ele>8.8</ele>
        <time>2022-12-07T11:57:43Z</time>
      </trkpt>
      <trkpt lat="47.87704" lon="-3.93039">
        <ele>9</ele>
        <time>2022-12-07T11:57:44Z</time>
      </trkpt>
      <trkpt lat="47.87699" lon="-3.93038">
        <ele>9.1</ele>
        <time>2022-12-07T11:57:45Z</time>
      </trkpt>
      <trkpt lat="47.87694" lon="-3.93035">
        <ele>9.3</ele>
        <time>2022-12-07T11:57:46Z</time>
      </trkpt>
      <trkpt lat="47.87689" lon="-3.93033">
        <ele>9.5</ele>
        <time>2022-12-07T11:57:47Z</time>
      </trkpt>
      <trkpt lat="47.87684" lon="-3.93031">
        <ele>9.7</ele>
        <time>2022-12-07T11:57:48Z</time>
      </trkpt>
      <trkpt lat="47.87679" lon="-3.93029">
        <ele>9.9</ele>
        <time>2022-12-07T11:57:49Z</time>
      </trkpt>
      <trkpt lat="47.87674" lon="-3.93027">
        <ele>10</ele>
        <time>2022-12-07T11:57:50Z</time>
      </trkpt>
      <trkpt lat="47.87669" lon="-3.93025">
        <ele>10.2</ele>
        <time>2022-12-07T11:57:51Z</time>
      </trkpt>
      <trkpt lat="47.87665" lon="-3.93022">
        <ele>10.3</ele>
        <time>2022-12-07T11:57:52Z</time>
      </trkpt>
      <trkpt lat="47.8766" lon="-3.93019">
        <ele>10.5</ele>
        <time>2022-12-07T11:57:53Z</time>
      </trkpt>
      <trkpt lat="47.87655" lon="-3.93017">
        <ele>10.7</ele>
        <time>2022-12-07T11:57:54Z</time>
      </trkpt>
      <trkpt lat="47.8765" lon="-3.93014">
        <ele>10.8</ele>
        <time>2022-12-07T11:57:55Z</time>
      </trkpt>
      <trkpt lat="47.87646" lon="-3.9301">
        <ele>10.9</ele>
        <time>2022-12-07T11:57:56Z</time>
      </trkpt>
      <trkpt lat="47.87642" lon="-3.93006">
        <ele>11.1</ele>
        <time>2022-12-07T11:57:57Z</time>
      </trkpt>
      <trkpt lat="47.87638" lon="-3.93002">
        <ele>11.2</ele>
        <time>2022-12-07T11:57:58Z</time>
      </trkpt>
      <trkpt lat="47.87633" lon="-3.92997">
        <ele>11.3</ele>
        <time>2022-12-07T11:57:59Z</time>
      </trkpt>
      <trkpt lat="47.87629" lon="-3.92992">
        <ele>11.4</ele>
        <time>2022-12-07T11:58:00Z</time>
      </trkpt>
      <trkpt lat="47.87625" lon="-3.92987">
        <ele>11.5</ele>
        <time>2022-12-07T11:58:01Z</time>
      </trkpt>
      <trkpt lat="47.87621" lon="-3.92982">
        <ele>11.5</ele>
        <time>2022-12-07T11:58:02Z</time>
      </trkpt>
      <trkpt lat="47.87617" lon="-3.92978">
        <ele>11.5</ele>
        <time>2022-12-07T11:58:03Z</time>
      </trkpt>
      <trkpt lat="47.87613" lon="-3.92973">
        <ele>11.6</ele>
        <time>2022-12-07T11:58:04Z</time>
      </trkpt>
      <trkpt lat="47.87608" lon="-3.92969">
        <ele>11.6</ele>
        <time>2022-12-07T11:58:05Z</time>
      </trkpt>
      <trkpt lat="47.87604" lon="-3.92964">
        <ele>11.7</ele>
        <time>2022-12-07T11:58:06Z</time>
      </trkpt>
      <trkpt lat="47.876" lon="-3.92959">
        <ele>11.7</ele>
        <time>2022-12-07T11:58:07Z</time>
      </trkpt>
      <trkpt lat="47.87596" lon="-3.92955">
        <ele>11.7</ele>
        <time>2022-12-07T11:58:08Z</time>
      </trkpt>
      <trkpt lat="47.87592" lon="-3.9295">
        <ele>11.7</ele>
        <time>2022-12-07T11:58:09Z</time>
      </trkpt>
      <trkpt lat="47.87588" lon="-3.92945">
        <ele>11.7</ele>
        <time>2022-12-07T11:58:10Z</time>
      </trkpt>
      <trkpt lat="47.87584" lon="-3.9294">
        <ele>11.7</ele>
        <time>2022-12-07T11:58:11Z</time>
      </trkpt>
      <trkpt lat="47.8758" lon="-3.92935">
        <ele>11.7</ele>
        <time>2022-12-07T11:58:12Z</time>
      </trkpt>
      <trkpt lat="47.87576" lon="-3.92931">
        <ele>11.7</ele>
        <time>2022-12-07T11:58:13Z</time>
      </trkpt>
      <trkpt lat="47.87572" lon="-3.92926">
        <ele>11.7</ele>
        <time>2022-12-07T11:58:14Z</time>
      </trkpt>
      <trkpt lat="47.87567" lon="-3.92921">
        <ele>11.6</ele>
        <time>2022-12-07T11:58:15Z</time>
      </trkpt>
      <trkpt lat="47.87563" lon="-3.92917">
        <ele>11.6</ele>
        <time>2022-12-07T11:58:16Z</time>
      </trkpt>
      <trkpt lat="47.87559" lon="-3.92912">
        <ele>11.6</ele>
        <time>2022-12-07T11:58:17Z</time>
      </trkpt>
      <trkpt lat="47.87554" lon="-3.92907">
        <ele>11.5</ele>
        <time>2022-12-07T11:58:18Z</time>
      </trkpt>
      <trkpt lat="47.8755" lon="-3.92902">
        <ele>11.4</ele>
        <time>2022-12-07T11:58:19Z</time>
      </trkpt>
      <trkpt lat="47.87546" lon="-3.92897">
        <ele>11.4</ele>
        <time>2022-12-07T11:58:20Z</time>
      </trkpt>
      <trkpt lat="47.87541" lon="-3.92893">
        <ele>11.3</ele>
        <time>2022-12-07T11:58:21Z</time>
      </trkpt>
      <trkpt lat="47.87536" lon="-3.92889">
        <ele>11.2</ele>
        <time>2022-12-07T11:58:22Z</time>
      </trkpt>
      <trkpt lat="47.87531" lon="-3.92884">
        <ele>11.1</ele>
        <time>2022-12-07T11:58:23Z</time>
      </trkpt>
      <trkpt lat="47.87526" lon="-3.9288">
        <ele>11</ele>
        <time>2022-12-07T11:58:24Z</time>
      </trkpt>
      <trkpt lat="47.87521" lon="-3.92877">
        <ele>10.8</ele>
        <time>2022-12-07T11:58:25Z</time>
      </trkpt>
      <trkpt lat="47.87515" lon="-3.92874">
        <ele>10.6</ele>
        <time>2022-12-07T11:58:26Z</time>
      </trkpt>
      <trkpt lat="47.87509" lon="-3.92872">
        <ele>10.4</ele>
        <time>2022-12-07T11:58:27Z</time>
      </trkpt>
      <trkpt lat="47.87503" lon="-3.9287">
        <ele>10.1</ele>
        <time>2022-12-07T11:58:28Z</time>
      </trkpt>
      <trkpt lat="47.87497" lon="-3.9287">
        <ele>9.9</ele>
        <time>2022-12-07T11:58:29Z</time>
      </trkpt>
      <trkpt lat="47.87491" lon="-3.92871">
        <ele>9.6</ele>
        <time>2022-12-07T11:58:30Z</time>
      </trkpt>
      <trkpt lat="47.87484" lon="-3.92872">
        <ele>9.3</ele>
        <time>2022-12-07T11:58:31Z</time>
      </trkpt>
      <trkpt lat="47.87477" lon="-3.92874">
        <ele>9.1</ele>
        <time>2022-12-07T11:58:32Z</time>
      </trkpt>
      <trkpt lat="47.8747" lon="-3.92877">
        <ele>8.8</ele>
        <time>2022-12-07T11:58:33Z</time>
      </trkpt>
      <trkpt lat="47.87463" lon="-3.92879">
        <ele>8.5</ele>
        <time>2022-12-07T11:58:34Z</time>
      </trkpt>
      <trkpt lat="47.87456" lon="-3.92882">
        <ele>8.2</ele>
        <time>2022-12-07T11:58:35Z</time>
      </trkpt>
      <trkpt lat="47.87448" lon="-3.92883">
        <ele>8.1</ele>
        <time>2022-12-07T11:58:36Z</time>
      </trkpt>
      <trkpt lat="47.87441" lon="-3.92886">
        <ele>7.9</ele>
        <time>2022-12-07T11:58:37Z</time>
      </trkpt>
      <trkpt lat="47.87433" lon="-3.92888">
        <ele>7.7</ele>
        <time>2022-12-07T11:58:38Z</time>
      </trkpt>
      <trkpt lat="47.87426" lon="-3.9289">
        <ele>7.4</ele>
        <time>2022-12-07T11:58:39Z</time>
      </trkpt>
      <trkpt lat="47.87418" lon="-3.92893">
        <ele>7.2</ele>
        <time>2022-12-07T11:58:40Z</time>
      </trkpt>
      <trkpt lat="47.87411" lon="-3.92895">
        <ele>7</ele>
        <time>2022-12-07T11:58:41Z</time>
      </trkpt>
      <trkpt lat="47.87404" lon="-3.92897">
        <ele>6.9</ele>
        <time>2022-12-07T11:58:42Z</time>
      </trkpt>
      <trkpt lat="47.87397" lon="-3.92899">
        <ele>6.8</ele>
        <time>2022-12-07T11:58:43Z</time>
      </trkpt>
      <trkpt lat="47.8739" lon="-3.92901">
        <ele>6.7</ele>
        <time>2022-12-07T11:58:44Z</time>
      </trkpt>
      <trkpt lat="47.87383" lon="-3.92904">
        <ele>6.6</ele>
        <time>2022-12-07T11:58:45Z</time>
      </trkpt>
      <trkpt lat="47.87376" lon="-3.92908">
        <ele>6.5</ele>
        <time>2022-12-07T11:58:46Z</time>
      </trkpt>
      <trkpt lat="47.8737" lon="-3.92911">
        <ele>6.5</ele>
        <time>2022-12-07T11:58:47Z</time>
      </trkpt>
      <trkpt lat="47.87364" lon="-3.92915">
        <ele>6.4</ele>
        <time>2022-12-07T11:58:48Z</time>
      </trkpt>
      <trkpt lat="47.87358" lon="-3.92921">
        <ele>6.4</ele>
        <time>2022-12-07T11:58:49Z</time>
      </trkpt>
      <trkpt lat="47.87353" lon="-3.92927">
        <ele>6.4</ele>
        <time>2022-12-07T11:58:50Z</time>
      </trkpt>
      <trkpt lat="47.87349" lon="-3.92934">
        <ele>6.3</ele>
        <time>2022-12-07T11:58:51Z</time>
      </trkpt>
      <trkpt lat="47.87344" lon="-3.92941">
        <ele>6.3</ele>
        <time>2022-12-07T11:58:52Z</time>
      </trkpt>
      <trkpt lat="47.87341" lon="-3.92948">
        <ele>6.3</ele>
        <time>2022-12-07T11:58:53Z</time>
      </trkpt>
      <trkpt lat="47.87337" lon="-3.92956">
        <ele>6.3</ele>
        <time>2022-12-07T11:58:54Z</time>
      </trkpt>
      <trkpt lat="47.87334" lon="-3.92963">
        <ele>6.3</ele>
        <time>2022-12-07T11:58:55Z</time>
      </trkpt>
      <trkpt lat="47.8733" lon="-3.92971">
        <ele>6.2</ele>
        <time>2022-12-07T11:58:56Z</time>
      </trkpt>
      <trkpt lat="47.87327" lon="-3.92978">
        <ele>6.2</ele>
        <time>2022-12-07T11:58:57Z</time>
      </trkpt>
      <trkpt lat="47.87323" lon="-3.92984">
        <ele>6.2</ele>
        <time>2022-12-07T11:58:58Z</time>
      </trkpt>
      <trkpt lat="47.87319" lon="-3.9299">
        <ele>6.2</ele>
        <time>2022-12-07T11:58:59Z</time>
      </trkpt>
      <trkpt lat="47.87315" lon="-3.92996">
        <ele>6.2</ele>
        <time>2022-12-07T11:59:00Z</time>
      </trkpt>
      <trkpt lat="47.87311" lon="-3.93002">
        <ele>6.2</ele>
        <time>2022-12-07T11:59:01Z</time>
      </trkpt>
      <trkpt lat="47.87307" lon="-3.93008">
        <ele>6.2</ele>
        <time>2022-12-07T11:59:02Z</time>
      </trkpt>
      <trkpt lat="47.87304" lon="-3.93015">
        <ele>6.3</ele>
        <time>2022-12-07T11:59:03Z</time>
      </trkpt>
      <trkpt lat="47.87301" lon="-3.93022">
        <ele>6.3</ele>
        <time>2022-12-07T11:59:04Z</time>
      </trkpt>
      <trkpt lat="47.87297" lon="-3.93028">
        <ele>6.3</ele>
        <time>2022-12-07T11:59:05Z</time>
      </trkpt>
      <trkpt lat="47.87294" lon="-3.93034">
        <ele>6.3</ele>
        <time>2022-12-07T11:59:06Z</time>
      </trkpt>
      <trkpt lat="47.87289" lon="-3.9304">
        <ele>6.3</ele>
        <time>2022-12-07T11:59:07Z</time>
      </trkpt>
      <trkpt lat="47.87285" lon="-3.93046">
        <ele>6.3</ele>
        <time>2022-12-07T11:59:08Z</time>
      </trkpt>
      <trkpt lat="47.87281" lon="-3.93051">
        <ele>6.3</ele>
        <time>2022-12-07T11:59:09Z</time>
      </trkpt>
      <trkpt lat="47.87276" lon="-3.93055">
        <ele>6.3</ele>
        <time>2022-12-07T11:59:10Z</time>
      </trkpt>
      <trkpt lat="47.87271" lon="-3.93058">
        <ele>6.4</ele>
        <time>2022-12-07T11:59:11Z</time>
      </trkpt>
      <trkpt lat="47.87266" lon="-3.9306">
        <ele>6.4</ele>
        <time>2022-12-07T11:59:12Z</time>
      </trkpt>
      <trkpt lat="47.87262" lon="-3.9306">
        <ele>6.4</ele>
        <time>2022-12-07T11:59:13Z</time>
      </trkpt>
      <trkpt lat="47.8726" lon="-3.93057">
        <ele>6.4</ele>
        <time>2022-12-07T11:59:14Z</time>
      </trkpt>
      <trkpt lat="47.87262" lon="-3.93053">
        <ele>6.4</ele>
        <time>2022-12-07T11:59:15Z</time>
      </trkpt>
      <trkpt lat="47.87265" lon="-3.93052">
        <ele>6.4</ele>
        <time>2022-12-07T11:59:16Z</time>
      </trkpt>
      <trkpt lat="47.87268" lon="-3.93053">
        <ele>6.5</ele>
        <time>2022-12-07T11:59:17Z</time>
      </trkpt>
      <trkpt lat="47.87271" lon="-3.93054">
        <ele>6.5</ele>
        <time>2022-12-07T11:59:18Z</time>
      </trkpt>
      <trkpt lat="47.87274" lon="-3.93058">
        <ele>6.5</ele>
        <time>2022-12-07T11:59:19Z</time>
      </trkpt>
      <trkpt lat="47.87274" lon="-3.93059">
        <ele>6.5</ele>
        <time>2022-12-07T11:59:20Z</time>
      </trkpt>
      <trkpt lat="47.87277" lon="-3.93061">
        <ele>6.5</ele>
        <time>2022-12-07T11:59:21Z</time>
      </trkpt>
      <trkpt lat="47.87278" lon="-3.93062">
        <ele>6.5</ele>
        <time>2022-12-07T11:59:22Z</time>
      </trkpt>
      <trkpt lat="47.87279" lon="-3.93063">
        <ele>6.5</ele>
        <time>2022-12-07T11:59:23Z</time>
      </trkpt>
      <trkpt lat="47.8728" lon="-3.93064">
        <ele>6.5</ele>
        <time>2022-12-07T11:59:24Z</time>
      </trkpt>
      <trkpt lat="47.8728" lon="-3.93064">
        <ele>6.5</ele>
        <time>2022-12-07T11:59:25Z</time>
      </trkpt>
      <trkpt lat="47.8728" lon="-3.93064">
        <ele>6.5</ele>
        <time>2022-12-07T11:59:26Z</time>
      </trkpt>
      <trkpt lat="47.8728" lon="-3.93064">
        <ele>6.5</ele>
        <time>2022-12-07T11:59:27Z</time>
      </trkpt>
      <trkpt lat="47.8728" lon="-3.93065">
        <ele>6.5</ele>
        <time>2022-12-07T11:59:28Z</time>
      </trkpt>
      <trkpt lat="47.8728" lon="-3.93065">
        <ele>6.5</ele>
        <time>2022-12-07T11:59:29Z</time>
      </trkpt>
      <trkpt lat="47.8728" lon="-3.93065">
        <ele>6.5</ele>
        <time>2022-12-07T11:59:30Z</time>
      </trkpt>
      <trkpt lat="47.8728" lon="-3.93065">
        <ele>6.5</ele>
        <time>2022-12-07T11:59:31Z</time>
      </trkpt>
      <trkpt lat="47.8728" lon="-3.93065">
        <ele>6.5</ele>
        <time>2022-12-07T11:59:32Z</time>
      </trkpt>
      <trkpt lat="47.8728" lon="-3.93065">
        <ele>6.5</ele>
        <time>2022-12-07T11:59:34Z</time>
      </trkpt>
      <trkpt lat="47.8728" lon="-3.93065">
        <ele>6.5</ele>
        <time>2022-12-07T11:59:35Z</time>
      </trkpt>
      <trkpt lat="47.87279" lon="-3.93064">
        <ele>6.5</ele>
        <time>2022-12-07T11:59:37Z</time>
      </trkpt>
      <trkpt lat="47.8728" lon="-3.93064">
        <ele>6.5</ele>
        <time>2022-12-07T11:59:38Z</time>
      </trkpt>
      <trkpt lat="47.87279" lon="-3.93063">
        <ele>6.5</ele>
        <time>2022-12-07T11:59:39Z</time>
      </trkpt>
      <trkpt lat="47.8728" lon="-3.93062">
        <ele>6.5</ele>
        <time>2022-12-07T11:59:40Z</time>
      </trkpt>
      <trkpt lat="47.8728" lon="-3.93061">
        <ele>6.5</ele>
        <time>2022-12-07T11:59:41Z</time>
      </trkpt>
      <trkpt lat="47.8728" lon="-3.93061">
        <ele>6.5</ele>
        <time>2022-12-07T11:59:42Z</time>
      </trkpt>
      <trkpt lat="47.87281" lon="-3.9306">
        <ele>6.5</ele>
        <time>2022-12-07T11:59:43Z</time>
      </trkpt>
      <trkpt lat="47.8728" lon="-3.93059">
        <ele>6.5</ele>
        <time>2022-12-07T11:59:44Z</time>
      </trkpt>
      <trkpt lat="47.8728" lon="-3.93059">
        <ele>6.5</ele>
        <time>2022-12-07T11:59:45Z</time>
      </trkpt>
      <trkpt lat="47.87281" lon="-3.93059">
        <ele>6.5</ele>
        <time>2022-12-07T11:59:46Z</time>
      </trkpt>
      <trkpt lat="47.87281" lon="-3.93059">
        <ele>6.5</ele>
        <time>2022-12-07T11:59:47Z</time>
      </trkpt>
      <trkpt lat="47.87281" lon="-3.93059">
        <ele>6.5</ele>
        <time>2022-12-07T11:59:48Z</time>
      </trkpt>
      <trkpt lat="47.87281" lon="-3.93059">
        <ele>6.5</ele>
        <time>2022-12-07T11:59:49Z</time>
      </trkpt>
      <trkpt lat="47.87281" lon="-3.93059">
        <ele>6.5</ele>
        <time>2022-12-07T11:59:50Z</time>
      </trkpt>
      <trkpt lat="47.87281" lon="-3.9306">
        <ele>6.5</ele>
        <time>2022-12-07T11:59:51Z</time>
      </trkpt>
      <trkpt lat="47.8728" lon="-3.93061">
        <ele>6.6</ele>
        <time>2022-12-07T11:59:53Z</time>
      </trkpt>
      <trkpt lat="47.8728" lon="-3.93065">
        <ele>6.6</ele>
        <time>2022-12-07T11:59:54Z</time>
      </trkpt>
      <trkpt lat="47.87279" lon="-3.93066">
        <ele>6.6</ele>
        <time>2022-12-07T11:59:55Z</time>
      </trkpt>
      <trkpt lat="47.87279" lon="-3.93066">
        <ele>6.6</ele>
        <time>2022-12-07T11:59:56Z</time>
      </trkpt>
      <trkpt lat="47.87279" lon="-3.93066">
        <ele>6.6</ele>
        <time>2022-12-07T11:59:57Z</time>
      </trkpt>
      <trkpt lat="47.87279" lon="-3.93066">
        <ele>6.6</ele>
        <time>2022-12-07T11:59:58Z</time>
      </trkpt>
      <trkpt lat="47.87279" lon="-3.93066">
        <ele>6.6</ele>
        <time>2022-12-07T11:59:59Z</time>
      </trkpt>
      <trkpt lat="47.87279" lon="-3.93066">
        <ele>6.6</ele>
        <time>2022-12-07T12:00:00Z</time>
      </trkpt>
      <trkpt lat="47.87279" lon="-3.93066">
        <ele>6.6</ele>
        <time>2022-12-07T12:00:01Z</time>
      </trkpt>
      <trkpt lat="47.87279" lon="-3.93066">
        <ele>6.6</ele>
        <time>2022-12-07T12:00:02Z</time>
      </trkpt>
      <trkpt lat="47.87279" lon="-3.93066">
        <ele>6.6</ele>
        <time>2022-12-07T12:00:03Z</time>
      </trkpt>
      <trkpt lat="47.87279" lon="-3.93065">
        <ele>6.6</ele>
        <time>2022-12-07T12:00:04Z</time>
      </trkpt>
      <trkpt lat="47.87279" lon="-3.93065">
        <ele>6.6</ele>
        <time>2022-12-07T12:00:05Z</time>
      </trkpt>
      <trkpt lat="47.87279" lon="-3.93064">
        <ele>6.6</ele>
        <time>2022-12-07T12:00:06Z</time>
      </trkpt>
      <trkpt lat="47.87278" lon="-3.93064">
        <ele>6.6</ele>
        <time>2022-12-07T12:00:07Z</time>
      </trkpt>
      <trkpt lat="47.87276" lon="-3.93062">
        <ele>6.6</ele>
        <time>2022-12-07T12:00:08Z</time>
      </trkpt>
      <trkpt lat="47.87275" lon="-3.93058">
        <ele>6.6</ele>
        <time>2022-12-07T12:00:09Z</time>
      </trkpt>
      <trkpt lat="47.87273" lon="-3.93055">
        <ele>6.6</ele>
        <time>2022-12-07T12:00:10Z</time>
      </trkpt>
      <trkpt lat="47.87272" lon="-3.93054">
        <ele>6.6</ele>
        <time>2022-12-07T12:00:11Z</time>
      </trkpt>
      <trkpt lat="47.87268" lon="-3.93055">
        <ele>6.6</ele>
        <time>2022-12-07T12:00:12Z</time>
      </trkpt>
      <trkpt lat="47.87266" lon="-3.93056">
        <ele>6.6</ele>
        <time>2022-12-07T12:00:13Z</time>
      </trkpt>
      <trkpt lat="47.8726" lon="-3.93059">
        <ele>6.6</ele>
        <time>2022-12-07T12:00:14Z</time>
      </trkpt>
      <trkpt lat="47.87252" lon="-3.93061">
        <ele>6.7</ele>
        <time>2022-12-07T12:00:15Z</time>
      </trkpt>
      <trkpt lat="47.87248" lon="-3.93061">
        <ele>6.7</ele>
        <time>2022-12-07T12:00:16Z</time>
      </trkpt>
      <trkpt lat="47.87243" lon="-3.93059">
        <ele>6.7</ele>
        <time>2022-12-07T12:00:17Z</time>
      </trkpt>
      <trkpt lat="47.87238" lon="-3.93058">
        <ele>6.8</ele>
        <time>2022-12-07T12:00:18Z</time>
      </trkpt>
      <trkpt lat="47.87234" lon="-3.93056">
        <ele>6.8</ele>
        <time>2022-12-07T12:00:19Z</time>
      </trkpt>
      <trkpt lat="47.8723" lon="-3.93052">
        <ele>6.8</ele>
        <time>2022-12-07T12:00:20Z</time>
      </trkpt>
      <trkpt lat="47.87226" lon="-3.93048">
        <ele>6.8</ele>
        <time>2022-12-07T12:00:21Z</time>
      </trkpt>
      <trkpt lat="47.87222" lon="-3.93044">
        <ele>6.8</ele>
        <time>2022-12-07T12:00:22Z</time>
      </trkpt>
      <trkpt lat="47.87222" lon="-3.93043">
        <ele>6.8</ele>
        <time>2022-12-07T12:00:23Z</time>
      </trkpt>
      <trkpt lat="47.8722" lon="-3.9304">
        <ele>6.9</ele>
        <time>2022-12-07T12:00:24Z</time>
      </trkpt>
      <trkpt lat="47.87217" lon="-3.93035">
        <ele>6.9</ele>
        <time>2022-12-07T12:00:25Z</time>
      </trkpt>
      <trkpt lat="47.87207" lon="-3.9303">
        <ele>6.9</ele>
        <time>2022-12-07T12:00:26Z</time>
      </trkpt>
      <trkpt lat="47.87203" lon="-3.93026">
        <ele>6.9</ele>
        <time>2022-12-07T12:00:27Z</time>
      </trkpt>
      <trkpt lat="47.87199" lon="-3.93023">
        <ele>7</ele>
        <time>2022-12-07T12:00:28Z</time>
      </trkpt>
      <trkpt lat="47.87193" lon="-3.93018">
        <ele>7</ele>
        <time>2022-12-07T12:00:29Z</time>
      </trkpt>
      <trkpt lat="47.87188" lon="-3.93014">
        <ele>7</ele>
        <time>2022-12-07T12:00:30Z</time>
      </trkpt>
      <trkpt lat="47.87184" lon="-3.9301">
        <ele>7</ele>
        <time>2022-12-07T12:00:31Z</time>
      </trkpt>
      <trkpt lat="47.8718" lon="-3.93007">
        <ele>7</ele>
        <time>2022-12-07T12:00:32Z</time>
      </trkpt>
      <trkpt lat="47.87177" lon="-3.93003">
        <ele>7</ele>
        <time>2022-12-07T12:00:33Z</time>
      </trkpt>
      <trkpt lat="47.87173" lon="-3.92999">
        <ele>7</ele>
        <time>2022-12-07T12:00:34Z</time>
      </trkpt>
      <trkpt lat="47.8717" lon="-3.92994">
        <ele>7</ele>
        <time>2022-12-07T12:00:35Z</time>
      </trkpt>
      <trkpt lat="47.87167" lon="-3.92992">
        <ele>7</ele>
        <time>2022-12-07T12:00:36Z</time>
      </trkpt>
      <trkpt lat="47.87164" lon="-3.9299">
        <ele>7</ele>
        <time>2022-12-07T12:00:37Z</time>
      </trkpt>
      <trkpt lat="47.87161" lon="-3.92987">
        <ele>7</ele>
        <time>2022-12-07T12:00:38Z</time>
      </trkpt>
      <trkpt lat="47.87157" lon="-3.92985">
        <ele>7</ele>
        <time>2022-12-07T12:00:39Z</time>
      </trkpt>
      <trkpt lat="47.87153" lon="-3.92982">
        <ele>7</ele>
        <time>2022-12-07T12:00:40Z</time>
      </trkpt>
      <trkpt lat="47.87149" lon="-3.9298">
        <ele>7</ele>
        <time>2022-12-07T12:00:41Z</time>
      </trkpt>
      <trkpt lat="47.87145" lon="-3.92977">
        <ele>7</ele>
        <time>2022-12-07T12:00:42Z</time>
      </trkpt>
      <trkpt lat="47.8714" lon="-3.92973">
        <ele>7</ele>
        <time>2022-12-07T12:00:43Z</time>
      </trkpt>
      <trkpt lat="47.87136" lon="-3.92968">
        <ele>7</ele>
        <time>2022-12-07T12:00:44Z</time>
      </trkpt>
      <trkpt lat="47.87133" lon="-3.92963">
        <ele>7</ele>
        <time>2022-12-07T12:00:45Z</time>
      </trkpt>
      <trkpt lat="47.8713" lon="-3.92956">
        <ele>7.1</ele>
        <time>2022-12-07T12:00:46Z</time>
      </trkpt>
      <trkpt lat="47.87128" lon="-3.92949">
        <ele>7.1</ele>
        <time>2022-12-07T12:00:47Z</time>
      </trkpt>
      <trkpt lat="47.87127" lon="-3.92942">
        <ele>7.1</ele>
        <time>2022-12-07T12:00:48Z</time>
      </trkpt>
      <trkpt lat="47.87128" lon="-3.92936">
        <ele>7.1</ele>
        <time>2022-12-07T12:00:49Z</time>
      </trkpt>
      <trkpt lat="47.8713" lon="-3.92931">
        <ele>7.1</ele>
        <time>2022-12-07T12:00:50Z</time>
      </trkpt>
      <trkpt lat="47.87132" lon="-3.92927">
        <ele>7.2</ele>
        <time>2022-12-07T12:00:51Z</time>
      </trkpt>
      <trkpt lat="47.87132" lon="-3.92926">
        <ele>7.2</ele>
        <time>2022-12-07T12:00:52Z</time>
      </trkpt>
      <trkpt lat="47.87128" lon="-3.9292">
        <ele>7.2</ele>
        <time>2022-12-07T12:00:53Z</time>
      </trkpt>
      <trkpt lat="47.87125" lon="-3.92914">
        <ele>7.2</ele>
        <time>2022-12-07T12:00:54Z</time>
      </trkpt>
      <trkpt lat="47.87122" lon="-3.92909">
        <ele>7.2</ele>
        <time>2022-12-07T12:00:55Z</time>
      </trkpt>
      <trkpt lat="47.87118" lon="-3.92903">
        <ele>7.2</ele>
        <time>2022-12-07T12:00:56Z</time>
      </trkpt>
      <trkpt lat="47.87115" lon="-3.92893">
        <ele>7.3</ele>
        <time>2022-12-07T12:00:57Z</time>
      </trkpt>
      <trkpt lat="47.87113" lon="-3.92885">
        <ele>7.3</ele>
        <time>2022-12-07T12:00:58Z</time>
      </trkpt>
      <trkpt lat="47.8711" lon="-3.92877">
        <ele>7.3</ele>
        <time>2022-12-07T12:00:59Z</time>
      </trkpt>
      <trkpt lat="47.87107" lon="-3.92875">
        <ele>7.3</ele>
        <time>2022-12-07T12:01:00Z</time>
      </trkpt>
      <trkpt lat="47.87106" lon="-3.92862">
        <ele>7.2</ele>
        <time>2022-12-07T12:01:01Z</time>
      </trkpt>
      <trkpt lat="47.87104" lon="-3.92854">
        <ele>7.2</ele>
        <time>2022-12-07T12:01:02Z</time>
      </trkpt>
      <trkpt lat="47.87101" lon="-3.92846">
        <ele>7.1</ele>
        <time>2022-12-07T12:01:03Z</time>
      </trkpt>
      <trkpt lat="47.87098" lon="-3.92838">
        <ele>7.1</ele>
        <time>2022-12-07T12:01:04Z</time>
      </trkpt>
      <trkpt lat="47.87095" lon="-3.92831">
        <ele>7.1</ele>
        <time>2022-12-07T12:01:05Z</time>
      </trkpt>
      <trkpt lat="47.87092" lon="-3.92823">
        <ele>7</ele>
        <time>2022-12-07T12:01:06Z</time>
      </trkpt>
      <trkpt lat="47.87088" lon="-3.92816">
        <ele>7</ele>
        <time>2022-12-07T12:01:07Z</time>
      </trkpt>
      <trkpt lat="47.87085" lon="-3.92809">
        <ele>7</ele>
        <time>2022-12-07T12:01:08Z</time>
      </trkpt>
      <trkpt lat="47.87082" lon="-3.92801">
        <ele>7</ele>
        <time>2022-12-07T12:01:09Z</time>
      </trkpt>
      <trkpt lat="47.87079" lon="-3.92793">
        <ele>6.9</ele>
        <time>2022-12-07T12:01:10Z</time>
      </trkpt>
      <trkpt lat="47.87077" lon="-3.92785">
        <ele>6.9</ele>
        <time>2022-12-07T12:01:11Z</time>
      </trkpt>
      <trkpt lat="47.87075" lon="-3.92778">
        <ele>6.9</ele>
        <time>2022-12-07T12:01:12Z</time>
      </trkpt>
      <trkpt lat="47.87072" lon="-3.9277">
        <ele>6.9</ele>
        <time>2022-12-07T12:01:13Z</time>
      </trkpt>
      <trkpt lat="47.87069" lon="-3.92763">
        <ele>6.9</ele>
        <time>2022-12-07T12:01:14Z</time>
      </trkpt>
      <trkpt lat="47.87066" lon="-3.92757">
        <ele>6.9</ele>
        <time>2022-12-07T12:01:15Z</time>
      </trkpt>
      <trkpt lat="47.87062" lon="-3.92749">
        <ele>6.8</ele>
        <time>2022-12-07T12:01:16Z</time>
      </trkpt>
      <trkpt lat="47.87059" lon="-3.92742">
        <ele>6.8</ele>
        <time>2022-12-07T12:01:17Z</time>
      </trkpt>
      <trkpt lat="47.87056" lon="-3.92734">
        <ele>6.8</ele>
        <time>2022-12-07T12:01:18Z</time>
      </trkpt>
      <trkpt lat="47.87052" lon="-3.92726">
        <ele>6.8</ele>
        <time>2022-12-07T12:01:19Z</time>
      </trkpt>
      <trkpt lat="47.87049" lon="-3.92719">
        <ele>6.9</ele>
        <time>2022-12-07T12:01:20Z</time>
      </trkpt>
      <trkpt lat="47.87045" lon="-3.92712">
        <ele>6.9</ele>
        <time>2022-12-07T12:01:21Z</time>
      </trkpt>
      <trkpt lat="47.87042" lon="-3.92705">
        <ele>7</ele>
        <time>2022-12-07T12:01:22Z</time>
      </trkpt>
      <trkpt lat="47.87039" lon="-3.92698">
        <ele>7.1</ele>
        <time>2022-12-07T12:01:23Z</time>
      </trkpt>
      <trkpt lat="47.87034" lon="-3.92693">
        <ele>7.1</ele>
        <time>2022-12-07T12:01:24Z</time>
      </trkpt>
      <trkpt lat="47.87029" lon="-3.92689">
        <ele>7.2</ele>
        <time>2022-12-07T12:01:25Z</time>
      </trkpt>
      <trkpt lat="47.87024" lon="-3.92685">
        <ele>7.3</ele>
        <time>2022-12-07T12:01:26Z</time>
      </trkpt>
      <trkpt lat="47.87018" lon="-3.92682">
        <ele>7.3</ele>
        <time>2022-12-07T12:01:27Z</time>
      </trkpt>
      <trkpt lat="47.87013" lon="-3.92678">
        <ele>7.4</ele>
        <time>2022-12-07T12:01:28Z</time>
      </trkpt>
      <trkpt lat="47.87007" lon="-3.92675">
        <ele>7.4</ele>
        <time>2022-12-07T12:01:29Z</time>
      </trkpt>
      <trkpt lat="47.87003" lon="-3.92671">
        <ele>7.5</ele>
        <time>2022-12-07T12:01:30Z</time>
      </trkpt>
      <trkpt lat="47.86997" lon="-3.92667">
        <ele>7.5</ele>
        <time>2022-12-07T12:01:31Z</time>
      </trkpt>
      <trkpt lat="47.86993" lon="-3.92663">
        <ele>7.5</ele>
        <time>2022-12-07T12:01:32Z</time>
      </trkpt>
      <trkpt lat="47.86989" lon="-3.92658">
        <ele>7.6</ele>
        <time>2022-12-07T12:01:33Z</time>
      </trkpt>
      <trkpt lat="47.86985" lon="-3.92652">
        <ele>7.6</ele>
        <time>2022-12-07T12:01:34Z</time>
      </trkpt>
      <trkpt lat="47.86982" lon="-3.92646">
        <ele>7.6</ele>
        <time>2022-12-07T12:01:35Z</time>
      </trkpt>
      <trkpt lat="47.8698" lon="-3.92638">
        <ele>7.6</ele>
        <time>2022-12-07T12:01:36Z</time>
      </trkpt>
      <trkpt lat="47.86978" lon="-3.9263">
        <ele>7.7</ele>
        <time>2022-12-07T12:01:37Z</time>
      </trkpt>
      <trkpt lat="47.86976" lon="-3.92622">
        <ele>7.7</ele>
        <time>2022-12-07T12:01:38Z</time>
      </trkpt>
      <trkpt lat="47.86974" lon="-3.92614">
        <ele>7.7</ele>
        <time>2022-12-07T12:01:39Z</time>
      </trkpt>
      <trkpt lat="47.86973" lon="-3.92606">
        <ele>7.7</ele>
        <time>2022-12-07T12:01:40Z</time>
      </trkpt>
      <trkpt lat="47.86971" lon="-3.92598">
        <ele>7.7</ele>
        <time>2022-12-07T12:01:41Z</time>
      </trkpt>
      <trkpt lat="47.86969" lon="-3.92591">
        <ele>7.7</ele>
        <time>2022-12-07T12:01:42Z</time>
      </trkpt>
      <trkpt lat="47.86968" lon="-3.92582">
        <ele>7.7</ele>
        <time>2022-12-07T12:01:43Z</time>
      </trkpt>
      <trkpt lat="47.86967" lon="-3.92574">
        <ele>7.6</ele>
        <time>2022-12-07T12:01:44Z</time>
      </trkpt>
      <trkpt lat="47.86966" lon="-3.92566">
        <ele>7.6</ele>
        <time>2022-12-07T12:01:45Z</time>
      </trkpt>
      <trkpt lat="47.86966" lon="-3.92557">
        <ele>7.6</ele>
        <time>2022-12-07T12:01:46Z</time>
      </trkpt>
      <trkpt lat="47.86966" lon="-3.92549">
        <ele>7.6</ele>
        <time>2022-12-07T12:01:47Z</time>
      </trkpt>
      <trkpt lat="47.86966" lon="-3.92541">
        <ele>7.5</ele>
        <time>2022-12-07T12:01:48Z</time>
      </trkpt>
      <trkpt lat="47.86966" lon="-3.92532">
        <ele>7.5</ele>
        <time>2022-12-07T12:01:49Z</time>
      </trkpt>
      <trkpt lat="47.86966" lon="-3.92524">
        <ele>7.5</ele>
        <time>2022-12-07T12:01:50Z</time>
      </trkpt>
      <trkpt lat="47.86966" lon="-3.92516">
        <ele>7.5</ele>
        <time>2022-12-07T12:01:51Z</time>
      </trkpt>
      <trkpt lat="47.86966" lon="-3.92508">
        <ele>7.5</ele>
        <time>2022-12-07T12:01:52Z</time>
      </trkpt>
      <trkpt lat="47.86967" lon="-3.925">
        <ele>7.5</ele>
        <time>2022-12-07T12:01:53Z</time>
      </trkpt>
      <trkpt lat="47.86968" lon="-3.92492">
        <ele>7.5</ele>
        <time>2022-12-07T12:01:54Z</time>
      </trkpt>
      <trkpt lat="47.86969" lon="-3.92484">
        <ele>7.5</ele>
        <time>2022-12-07T12:01:55Z</time>
      </trkpt>
      <trkpt lat="47.86971" lon="-3.92476">
        <ele>7.5</ele>
        <time>2022-12-07T12:01:56Z</time>
      </trkpt>
      <trkpt lat="47.86972" lon="-3.92468">
        <ele>7.6</ele>
        <time>2022-12-07T12:01:57Z</time>
      </trkpt>
      <trkpt lat="47.86973" lon="-3.92461">
        <ele>7.6</ele>
        <time>2022-12-07T12:01:58Z</time>
      </trkpt>
      <trkpt lat="47.86975" lon="-3.92453">
        <ele>7.6</ele>
        <time>2022-12-07T12:01:59Z</time>
      </trkpt>
      <trkpt lat="47.86976" lon="-3.92446">
        <ele>7.6</ele>
        <time>2022-12-07T12:02:00Z</time>
      </trkpt>
      <trkpt lat="47.86977" lon="-3.92438">
        <ele>7.7</ele>
        <time>2022-12-07T12:02:01Z</time>
      </trkpt>
      <trkpt lat="47.86978" lon="-3.92431">
        <ele>7.7</ele>
        <time>2022-12-07T12:02:02Z</time>
      </trkpt>
      <trkpt lat="47.8698" lon="-3.92423">
        <ele>7.7</ele>
        <time>2022-12-07T12:02:03Z</time>
      </trkpt>
      <trkpt lat="47.86981" lon="-3.92415">
        <ele>7.7</ele>
        <time>2022-12-07T12:02:04Z</time>
      </trkpt>
      <trkpt lat="47.86982" lon="-3.92407">
        <ele>7.7</ele>
        <time>2022-12-07T12:02:05Z</time>
      </trkpt>
      <trkpt lat="47.86984" lon="-3.924">
        <ele>7.7</ele>
        <time>2022-12-07T12:02:06Z</time>
      </trkpt>
      <trkpt lat="47.86985" lon="-3.92392">
        <ele>7.7</ele>
        <time>2022-12-07T12:02:07Z</time>
      </trkpt>
      <trkpt lat="47.86986" lon="-3.92384">
        <ele>7.7</ele>
        <time>2022-12-07T12:02:08Z</time>
      </trkpt>
      <trkpt lat="47.86988" lon="-3.92377">
        <ele>7.7</ele>
        <time>2022-12-07T12:02:09Z</time>
      </trkpt>
      <trkpt lat="47.8699" lon="-3.9237">
        <ele>7.7</ele>
        <time>2022-12-07T12:02:10Z</time>
      </trkpt>
      <trkpt lat="47.86993" lon="-3.92363">
        <ele>7.6</ele>
        <time>2022-12-07T12:02:11Z</time>
      </trkpt>
      <trkpt lat="47.86996" lon="-3.92357">
        <ele>7.6</ele>
        <time>2022-12-07T12:02:12Z</time>
      </trkpt>
      <trkpt lat="47.87" lon="-3.92351">
        <ele>7.6</ele>
        <time>2022-12-07T12:02:13Z</time>
      </trkpt>
      <trkpt lat="47.87003" lon="-3.92346">
        <ele>7.6</ele>
        <time>2022-12-07T12:02:14Z</time>
      </trkpt>
      <trkpt lat="47.87007" lon="-3.92341">
        <ele>7.6</ele>
        <time>2022-12-07T12:02:15Z</time>
      </trkpt>
      <trkpt lat="47.87011" lon="-3.92336">
        <ele>7.6</ele>
        <time>2022-12-07T12:02:16Z</time>
      </trkpt>
      <trkpt lat="47.87015" lon="-3.9233">
        <ele>7.6</ele>
        <time>2022-12-07T12:02:17Z</time>
      </trkpt>
      <trkpt lat="47.87018" lon="-3.92325">
        <ele>7.6</ele>
        <time>2022-12-07T12:02:18Z</time>
      </trkpt>
      <trkpt lat="47.8702" lon="-3.92318">
        <ele>7.5</ele>
        <time>2022-12-07T12:02:19Z</time>
      </trkpt>
      <trkpt lat="47.87023" lon="-3.9231">
        <ele>7.4</ele>
        <time>2022-12-07T12:02:20Z</time>
      </trkpt>
      <trkpt lat="47.87024" lon="-3.92302">
        <ele>7.4</ele>
        <time>2022-12-07T12:02:21Z</time>
      </trkpt>
      <trkpt lat="47.87024" lon="-3.92294">
        <ele>7.4</ele>
        <time>2022-12-07T12:02:22Z</time>
      </trkpt>
      <trkpt lat="47.87024" lon="-3.92284">
        <ele>7.3</ele>
        <time>2022-12-07T12:02:23Z</time>
      </trkpt>
      <trkpt lat="47.87023" lon="-3.92275">
        <ele>7.2</ele>
        <time>2022-12-07T12:02:24Z</time>
      </trkpt>
      <trkpt lat="47.87021" lon="-3.92266">
        <ele>7.1</ele>
        <time>2022-12-07T12:02:25Z</time>
      </trkpt>
      <trkpt lat="47.87019" lon="-3.92257">
        <ele>7</ele>
        <time>2022-12-07T12:02:26Z</time>
      </trkpt>
      <trkpt lat="47.87017" lon="-3.92248">
        <ele>6.9</ele>
        <time>2022-12-07T12:02:27Z</time>
      </trkpt>
      <trkpt lat="47.87015" lon="-3.9224">
        <ele>6.9</ele>
        <time>2022-12-07T12:02:28Z</time>
      </trkpt>
      <trkpt lat="47.87013" lon="-3.92231">
        <ele>6.8</ele>
        <time>2022-12-07T12:02:29Z</time>
      </trkpt>
      <trkpt lat="47.87011" lon="-3.92223">
        <ele>6.8</ele>
        <time>2022-12-07T12:02:30Z</time>
      </trkpt>
      <trkpt lat="47.87009" lon="-3.92214">
        <ele>6.8</ele>
        <time>2022-12-07T12:02:31Z</time>
      </trkpt>
      <trkpt lat="47.87007" lon="-3.92205">
        <ele>6.8</ele>
        <time>2022-12-07T12:02:32Z</time>
      </trkpt>
      <trkpt lat="47.87005" lon="-3.92197">
        <ele>6.8</ele>
        <time>2022-12-07T12:02:33Z</time>
      </trkpt>
      <trkpt lat="47.87003" lon="-3.92189">
        <ele>6.8</ele>
        <time>2022-12-07T12:02:34Z</time>
      </trkpt>
      <trkpt lat="47.87001" lon="-3.92181">
        <ele>6.8</ele>
        <time>2022-12-07T12:02:35Z</time>
      </trkpt>
      <trkpt lat="47.86999" lon="-3.92173">
        <ele>6.9</ele>
        <time>2022-12-07T12:02:36Z</time>
      </trkpt>
      <trkpt lat="47.86998" lon="-3.92164">
        <ele>6.9</ele>
        <time>2022-12-07T12:02:37Z</time>
      </trkpt>
      <trkpt lat="47.86996" lon="-3.92157">
        <ele>6.9</ele>
        <time>2022-12-07T12:02:38Z</time>
      </trkpt>
      <trkpt lat="47.86994" lon="-3.9215">
        <ele>7</ele>
        <time>2022-12-07T12:02:39Z</time>
      </trkpt>
      <trkpt lat="47.86992" lon="-3.92143">
        <ele>7</ele>
        <time>2022-12-07T12:02:40Z</time>
      </trkpt>
      <trkpt lat="47.8699" lon="-3.92135">
        <ele>7.1</ele>
        <time>2022-12-07T12:02:41Z</time>
      </trkpt>
      <trkpt lat="47.86989" lon="-3.92128">
        <ele>7.1</ele>
        <time>2022-12-07T12:02:42Z</time>
      </trkpt>
      <trkpt lat="47.86987" lon="-3.92121">
        <ele>7.2</ele>
        <time>2022-12-07T12:02:43Z</time>
      </trkpt>
      <trkpt lat="47.86985" lon="-3.92115">
        <ele>7.2</ele>
        <time>2022-12-07T12:02:44Z</time>
      </trkpt>
      <trkpt lat="47.86983" lon="-3.92108">
        <ele>7.3</ele>
        <time>2022-12-07T12:02:45Z</time>
      </trkpt>
      <trkpt lat="47.86981" lon="-3.92101">
        <ele>7.3</ele>
        <time>2022-12-07T12:02:46Z</time>
      </trkpt>
      <trkpt lat="47.8698" lon="-3.92094">
        <ele>7.4</ele>
        <time>2022-12-07T12:02:47Z</time>
      </trkpt>
      <trkpt lat="47.86978" lon="-3.92086">
        <ele>7.5</ele>
        <time>2022-12-07T12:02:48Z</time>
      </trkpt>
      <trkpt lat="47.86977" lon="-3.92079">
        <ele>7.5</ele>
        <time>2022-12-07T12:02:49Z</time>
      </trkpt>
      <trkpt lat="47.86975" lon="-3.92072">
        <ele>7.6</ele>
        <time>2022-12-07T12:02:50Z</time>
      </trkpt>
      <trkpt lat="47.86974" lon="-3.92064">
        <ele>7.6</ele>
        <time>2022-12-07T12:02:51Z</time>
      </trkpt>
      <trkpt lat="47.86973" lon="-3.92057">
        <ele>7.7</ele>
        <time>2022-12-07T12:02:52Z</time>
      </trkpt>
      <trkpt lat="47.86972" lon="-3.92049">
        <ele>7.7</ele>
        <time>2022-12-07T12:02:53Z</time>
      </trkpt>
      <trkpt lat="47.86971" lon="-3.92042">
        <ele>7.8</ele>
        <time>2022-12-07T12:02:54Z</time>
      </trkpt>
      <trkpt lat="47.8697" lon="-3.92035">
        <ele>7.9</ele>
        <time>2022-12-07T12:02:55Z</time>
      </trkpt>
      <trkpt lat="47.86969" lon="-3.92027">
        <ele>7.9</ele>
        <time>2022-12-07T12:02:56Z</time>
      </trkpt>
      <trkpt lat="47.86968" lon="-3.9202">
        <ele>8</ele>
        <time>2022-12-07T12:02:57Z</time>
      </trkpt>
      <trkpt lat="47.86966" lon="-3.92013">
        <ele>8</ele>
        <time>2022-12-07T12:02:58Z</time>
      </trkpt>
      <trkpt lat="47.86965" lon="-3.92007">
        <ele>8.1</ele>
        <time>2022-12-07T12:02:59Z</time>
      </trkpt>
      <trkpt lat="47.86964" lon="-3.92">
        <ele>8.1</ele>
        <time>2022-12-07T12:03:00Z</time>
      </trkpt>
      <trkpt lat="47.86963" lon="-3.91993">
        <ele>8.2</ele>
        <time>2022-12-07T12:03:01Z</time>
      </trkpt>
      <trkpt lat="47.86962" lon="-3.91986">
        <ele>8.3</ele>
        <time>2022-12-07T12:03:02Z</time>
      </trkpt>
      <trkpt lat="47.86961" lon="-3.91979">
        <ele>8.3</ele>
        <time>2022-12-07T12:03:03Z</time>
      </trkpt>
      <trkpt lat="47.86961" lon="-3.91972">
        <ele>8.4</ele>
        <time>2022-12-07T12:03:04Z</time>
      </trkpt>
      <trkpt lat="47.8696" lon="-3.91965">
        <ele>8.4</ele>
        <time>2022-12-07T12:03:05Z</time>
      </trkpt>
      <trkpt lat="47.86959" lon="-3.91957">
        <ele>8.5</ele>
        <time>2022-12-07T12:03:06Z</time>
      </trkpt>
      <trkpt lat="47.86958" lon="-3.9195">
        <ele>8.6</ele>
        <time>2022-12-07T12:03:07Z</time>
      </trkpt>
      <trkpt lat="47.86957" lon="-3.91943">
        <ele>8.6</ele>
        <time>2022-12-07T12:03:08Z</time>
      </trkpt>
      <trkpt lat="47.86956" lon="-3.91936">
        <ele>8.7</ele>
        <time>2022-12-07T12:03:09Z</time>
      </trkpt>
      <trkpt lat="47.86955" lon="-3.91928">
        <ele>8.7</ele>
        <time>2022-12-07T12:03:10Z</time>
      </trkpt>
      <trkpt lat="47.86953" lon="-3.91921">
        <ele>8.8</ele>
        <time>2022-12-07T12:03:11Z</time>
      </trkpt>
      <trkpt lat="47.86951" lon="-3.91914">
        <ele>8.8</ele>
        <time>2022-12-07T12:03:12Z</time>
      </trkpt>
      <trkpt lat="47.86948" lon="-3.91908">
        <ele>8.9</ele>
        <time>2022-12-07T12:03:13Z</time>
      </trkpt>
      <trkpt lat="47.86946" lon="-3.91901">
        <ele>8.9</ele>
        <time>2022-12-07T12:03:14Z</time>
      </trkpt>
      <trkpt lat="47.86944" lon="-3.91894">
        <ele>8.9</ele>
        <time>2022-12-07T12:03:15Z</time>
      </trkpt>
      <trkpt lat="47.86942" lon="-3.91887">
        <ele>8.9</ele>
        <time>2022-12-07T12:03:16Z</time>
      </trkpt>
      <trkpt lat="47.86939" lon="-3.91881">
        <ele>8.9</ele>
        <time>2022-12-07T12:03:17Z</time>
      </trkpt>
      <trkpt lat="47.86937" lon="-3.91874">
        <ele>9</ele>
        <time>2022-12-07T12:03:18Z</time>
      </trkpt>
      <trkpt lat="47.86935" lon="-3.91867">
        <ele>9</ele>
        <time>2022-12-07T12:03:19Z</time>
      </trkpt>
      <trkpt lat="47.86933" lon="-3.9186">
        <ele>9</ele>
        <time>2022-12-07T12:03:20Z</time>
      </trkpt>
      <trkpt lat="47.8693" lon="-3.91853">
        <ele>9</ele>
        <time>2022-12-07T12:03:21Z</time>
      </trkpt>
      <trkpt lat="47.86928" lon="-3.91846">
        <ele>9.1</ele>
        <time>2022-12-07T12:03:22Z</time>
      </trkpt>
      <trkpt lat="47.86926" lon="-3.91839">
        <ele>9.1</ele>
        <time>2022-12-07T12:03:23Z</time>
      </trkpt>
      <trkpt lat="47.86924" lon="-3.91832">
        <ele>9.1</ele>
        <time>2022-12-07T12:03:24Z</time>
      </trkpt>
      <trkpt lat="47.86921" lon="-3.91825">
        <ele>9.1</ele>
        <time>2022-12-07T12:03:25Z</time>
      </trkpt>
      <trkpt lat="47.86919" lon="-3.91818">
        <ele>9.1</ele>
        <time>2022-12-07T12:03:26Z</time>
      </trkpt>
      <trkpt lat="47.86917" lon="-3.91811">
        <ele>9.1</ele>
        <time>2022-12-07T12:03:27Z</time>
      </trkpt>
      <trkpt lat="47.86915" lon="-3.91804">
        <ele>9.2</ele>
        <time>2022-12-07T12:03:28Z</time>
      </trkpt>
      <trkpt lat="47.86913" lon="-3.91796">
        <ele>9.2</ele>
        <time>2022-12-07T12:03:29Z</time>
      </trkpt>
      <trkpt lat="47.86911" lon="-3.91789">
        <ele>9.2</ele>
        <time>2022-12-07T12:03:30Z</time>
      </trkpt>
      <trkpt lat="47.86909" lon="-3.91782">
        <ele>9.2</ele>
        <time>2022-12-07T12:03:31Z</time>
      </trkpt>
      <trkpt lat="47.86907" lon="-3.91775">
        <ele>9.2</ele>
        <time>2022-12-07T12:03:32Z</time>
      </trkpt>
      <trkpt lat="47.86905" lon="-3.91768">
        <ele>9.2</ele>
        <time>2022-12-07T12:03:33Z</time>
      </trkpt>
      <trkpt lat="47.86902" lon="-3.91761">
        <ele>9.2</ele>
        <time>2022-12-07T12:03:34Z</time>
      </trkpt>
      <trkpt lat="47.86899" lon="-3.91754">
        <ele>9.1</ele>
        <time>2022-12-07T12:03:35Z</time>
      </trkpt>
      <trkpt lat="47.86896" lon="-3.91748">
        <ele>9.1</ele>
        <time>2022-12-07T12:03:36Z</time>
      </trkpt>
      <trkpt lat="47.86893" lon="-3.91742">
        <ele>9.1</ele>
        <time>2022-12-07T12:03:37Z</time>
      </trkpt>
      <trkpt lat="47.8689" lon="-3.91735">
        <ele>9</ele>
        <time>2022-12-07T12:03:38Z</time>
      </trkpt>
      <trkpt lat="47.86887" lon="-3.91728">
        <ele>8.9</ele>
        <time>2022-12-07T12:03:39Z</time>
      </trkpt>
      <trkpt lat="47.86884" lon="-3.91722">
        <ele>8.9</ele>
        <time>2022-12-07T12:03:40Z</time>
      </trkpt>
      <trkpt lat="47.86881" lon="-3.91715">
        <ele>8.8</ele>
        <time>2022-12-07T12:03:41Z</time>
      </trkpt>
      <trkpt lat="47.86878" lon="-3.91708">
        <ele>8.7</ele>
        <time>2022-12-07T12:03:42Z</time>
      </trkpt>
      <trkpt lat="47.86876" lon="-3.91701">
        <ele>8.6</ele>
        <time>2022-12-07T12:03:43Z</time>
      </trkpt>
      <trkpt lat="47.86874" lon="-3.91694">
        <ele>8.5</ele>
        <time>2022-12-07T12:03:44Z</time>
      </trkpt>
      <trkpt lat="47.86872" lon="-3.91686">
        <ele>8.4</ele>
        <time>2022-12-07T12:03:45Z</time>
      </trkpt>
      <trkpt lat="47.86871" lon="-3.91677">
        <ele>8.3</ele>
        <time>2022-12-07T12:03:46Z</time>
      </trkpt>
      <trkpt lat="47.86872" lon="-3.91669">
        <ele>8.2</ele>
        <time>2022-12-07T12:03:47Z</time>
      </trkpt>
      <trkpt lat="47.86872" lon="-3.91661">
        <ele>8.2</ele>
        <time>2022-12-07T12:03:48Z</time>
      </trkpt>
      <trkpt lat="47.86874" lon="-3.91653">
        <ele>8.1</ele>
        <time>2022-12-07T12:03:49Z</time>
      </trkpt>
      <trkpt lat="47.86875" lon="-3.91645">
        <ele>7.9</ele>
        <time>2022-12-07T12:03:50Z</time>
      </trkpt>
      <trkpt lat="47.86876" lon="-3.91637">
        <ele>7.8</ele>
        <time>2022-12-07T12:03:51Z</time>
      </trkpt>
      <trkpt lat="47.86877" lon="-3.91629">
        <ele>7.7</ele>
        <time>2022-12-07T12:03:52Z</time>
      </trkpt>
      <trkpt lat="47.86878" lon="-3.91621">
        <ele>7.6</ele>
        <time>2022-12-07T12:03:53Z</time>
      </trkpt>
      <trkpt lat="47.86879" lon="-3.91613">
        <ele>7.4</ele>
        <time>2022-12-07T12:03:54Z</time>
      </trkpt>
      <trkpt lat="47.8688" lon="-3.91605">
        <ele>7.3</ele>
        <time>2022-12-07T12:03:55Z</time>
      </trkpt>
      <trkpt lat="47.86881" lon="-3.91596">
        <ele>7.2</ele>
        <time>2022-12-07T12:03:56Z</time>
      </trkpt>
      <trkpt lat="47.86882" lon="-3.91589">
        <ele>7</ele>
        <time>2022-12-07T12:03:57Z</time>
      </trkpt>
      <trkpt lat="47.86883" lon="-3.9158">
        <ele>6.9</ele>
        <time>2022-12-07T12:03:58Z</time>
      </trkpt>
      <trkpt lat="47.86885" lon="-3.91572">
        <ele>6.8</ele>
        <time>2022-12-07T12:03:59Z</time>
      </trkpt>
      <trkpt lat="47.86887" lon="-3.91563">
        <ele>6.6</ele>
        <time>2022-12-07T12:04:00Z</time>
      </trkpt>
      <trkpt lat="47.86892" lon="-3.91556">
        <ele>6.5</ele>
        <time>2022-12-07T12:04:01Z</time>
      </trkpt>
      <trkpt lat="47.86898" lon="-3.91553">
        <ele>6.4</ele>
        <time>2022-12-07T12:04:02Z</time>
      </trkpt>
      <trkpt lat="47.86904" lon="-3.91555">
        <ele>6.3</ele>
        <time>2022-12-07T12:04:03Z</time>
      </trkpt>
      <trkpt lat="47.8691" lon="-3.9156">
        <ele>6.2</ele>
        <time>2022-12-07T12:04:04Z</time>
      </trkpt>
      <trkpt lat="47.86915" lon="-3.91565">
        <ele>6.1</ele>
        <time>2022-12-07T12:04:05Z</time>
      </trkpt>
      <trkpt lat="47.8692" lon="-3.91569">
        <ele>6</ele>
        <time>2022-12-07T12:04:06Z</time>
      </trkpt>
      <trkpt lat="47.86924" lon="-3.91573">
        <ele>5.9</ele>
        <time>2022-12-07T12:04:07Z</time>
      </trkpt>
      <trkpt lat="47.86929" lon="-3.91578">
        <ele>5.9</ele>
        <time>2022-12-07T12:04:08Z</time>
      </trkpt>
      <trkpt lat="47.86933" lon="-3.91582">
        <ele>5.8</ele>
        <time>2022-12-07T12:04:09Z</time>
      </trkpt>
      <trkpt lat="47.86938" lon="-3.91586">
        <ele>5.8</ele>
        <time>2022-12-07T12:04:10Z</time>
      </trkpt>
      <trkpt lat="47.86943" lon="-3.91589">
        <ele>5.7</ele>
        <time>2022-12-07T12:04:11Z</time>
      </trkpt>
      <trkpt lat="47.86948" lon="-3.91592">
        <ele>5.7</ele>
        <time>2022-12-07T12:04:12Z</time>
      </trkpt>
      <trkpt lat="47.86953" lon="-3.91594">
        <ele>5.6</ele>
        <time>2022-12-07T12:04:13Z</time>
      </trkpt>
      <trkpt lat="47.86957" lon="-3.91597">
        <ele>5.6</ele>
        <time>2022-12-07T12:04:14Z</time>
      </trkpt>
      <trkpt lat="47.86962" lon="-3.91599">
        <ele>5.6</ele>
        <time>2022-12-07T12:04:15Z</time>
      </trkpt>
      <trkpt lat="47.86967" lon="-3.91602">
        <ele>5.6</ele>
        <time>2022-12-07T12:04:16Z</time>
      </trkpt>
      <trkpt lat="47.86972" lon="-3.91604">
        <ele>5.6</ele>
        <time>2022-12-07T12:04:17Z</time>
      </trkpt>
      <trkpt lat="47.86977" lon="-3.91607">
        <ele>5.5</ele>
        <time>2022-12-07T12:04:18Z</time>
      </trkpt>
      <trkpt lat="47.86981" lon="-3.91609">
        <ele>5.5</ele>
        <time>2022-12-07T12:04:19Z</time>
      </trkpt>
      <trkpt lat="47.86986" lon="-3.91611">
        <ele>5.5</ele>
        <time>2022-12-07T12:04:20Z</time>
      </trkpt>
      <trkpt lat="47.86991" lon="-3.91614">
        <ele>5.5</ele>
        <time>2022-12-07T12:04:21Z</time>
      </trkpt>
      <trkpt lat="47.86995" lon="-3.91616">
        <ele>5.5</ele>
        <time>2022-12-07T12:04:22Z</time>
      </trkpt>
      <trkpt lat="47.87" lon="-3.91619">
        <ele>5.5</ele>
        <time>2022-12-07T12:04:23Z</time>
      </trkpt>
      <trkpt lat="47.87004" lon="-3.91622">
        <ele>5.5</ele>
        <time>2022-12-07T12:04:24Z</time>
      </trkpt>
      <trkpt lat="47.87009" lon="-3.91625">
        <ele>5.5</ele>
        <time>2022-12-07T12:04:25Z</time>
      </trkpt>
      <trkpt lat="47.87013" lon="-3.91627">
        <ele>5.5</ele>
        <time>2022-12-07T12:04:26Z</time>
      </trkpt>
      <trkpt lat="47.87018" lon="-3.91629">
        <ele>5.5</ele>
        <time>2022-12-07T12:04:27Z</time>
      </trkpt>
      <trkpt lat="47.87022" lon="-3.91632">
        <ele>5.5</ele>
        <time>2022-12-07T12:04:28Z</time>
      </trkpt>
      <trkpt lat="47.87027" lon="-3.91635">
        <ele>5.5</ele>
        <time>2022-12-07T12:04:29Z</time>
      </trkpt>
      <trkpt lat="47.87031" lon="-3.91637">
        <ele>5.5</ele>
        <time>2022-12-07T12:04:30Z</time>
      </trkpt>
      <trkpt lat="47.87035" lon="-3.91639">
        <ele>5.5</ele>
        <time>2022-12-07T12:04:31Z</time>
      </trkpt>
      <trkpt lat="47.87037" lon="-3.91641">
        <ele>5.5</ele>
        <time>2022-12-07T12:04:32Z</time>
      </trkpt>
      <trkpt lat="47.8704" lon="-3.91642">
        <ele>5.5</ele>
        <time>2022-12-07T12:04:33Z</time>
      </trkpt>
      <trkpt lat="47.87042" lon="-3.91643">
        <ele>5.5</ele>
        <time>2022-12-07T12:04:34Z</time>
      </trkpt>
      <trkpt lat="47.87042" lon="-3.91644">
        <ele>5.5</ele>
        <time>2022-12-07T12:04:35Z</time>
      </trkpt>
      <trkpt lat="47.87042" lon="-3.91643">
        <ele>5.5</ele>
        <time>2022-12-07T12:04:36Z</time>
      </trkpt>
      <trkpt lat="47.87043" lon="-3.91643">
        <ele>5.5</ele>
        <time>2022-12-07T12:04:37Z</time>
      </trkpt>
      <trkpt lat="47.87044" lon="-3.91643">
        <ele>5.5</ele>
        <time>2022-12-07T12:04:38Z</time>
      </trkpt>
      <trkpt lat="47.87044" lon="-3.91644">
        <ele>5.5</ele>
        <time>2022-12-07T12:04:39Z</time>
      </trkpt>
      <trkpt lat="47.87045" lon="-3.91644">
        <ele>5.5</ele>
        <time>2022-12-07T12:04:40Z</time>
      </trkpt>
      <trkpt lat="47.87045" lon="-3.91644">
        <ele>5.5</ele>
        <time>2022-12-07T12:04:41Z</time>
      </trkpt>
      <trkpt lat="47.87046" lon="-3.91644">
        <ele>5.5</ele>
        <time>2022-12-07T12:04:43Z</time>
      </trkpt>
      <trkpt lat="47.87046" lon="-3.91644">
        <ele>5.5</ele>
        <time>2022-12-07T12:04:44Z</time>
      </trkpt>
      <trkpt lat="47.87046" lon="-3.91644">
        <ele>5.5</ele>
        <time>2022-12-07T12:04:45Z</time>
      </trkpt>
      <trkpt lat="47.87046" lon="-3.91644">
        <ele>5.5</ele>
        <time>2022-12-07T12:04:46Z</time>
      </trkpt>
      <trkpt lat="47.87046" lon="-3.91644">
        <ele>5.5</ele>
        <time>2022-12-07T12:04:47Z</time>
      </trkpt>
      <trkpt lat="47.87046" lon="-3.91642">
        <ele>5.5</ele>
        <time>2022-12-07T12:04:48Z</time>
      </trkpt>
      <trkpt lat="47.87045" lon="-3.91642">
        <ele>5.5</ele>
        <time>2022-12-07T12:04:49Z</time>
      </trkpt>
      <trkpt lat="47.87044" lon="-3.91642">
        <ele>5.5</ele>
        <time>2022-12-07T12:04:50Z</time>
      </trkpt>
      <trkpt lat="47.87044" lon="-3.91643">
        <ele>5.5</ele>
        <time>2022-12-07T12:04:51Z</time>
      </trkpt>
      <trkpt lat="47.87043" lon="-3.91645">
        <ele>5.5</ele>
        <time>2022-12-07T12:04:53Z</time>
      </trkpt>
      <trkpt lat="47.87043" lon="-3.91646">
        <ele>5.5</ele>
        <time>2022-12-07T12:04:54Z</time>
      </trkpt>
      <trkpt lat="47.87042" lon="-3.91646">
        <ele>5.5</ele>
        <time>2022-12-07T12:04:55Z</time>
      </trkpt>
      <trkpt lat="47.87042" lon="-3.91646">
        <ele>5.5</ele>
        <time>2022-12-07T12:04:56Z</time>
      </trkpt>
      <trkpt lat="47.87042" lon="-3.91646">
        <ele>5.5</ele>
        <time>2022-12-07T12:04:57Z</time>
      </trkpt>
      <trkpt lat="47.87041" lon="-3.91646">
        <ele>5.5</ele>
        <time>2022-12-07T12:04:58Z</time>
      </trkpt>
      <trkpt lat="47.87041" lon="-3.91646">
        <ele>5.5</ele>
        <time>2022-12-07T12:04:59Z</time>
      </trkpt>
      <trkpt lat="47.8704" lon="-3.91645">
        <ele>5.5</ele>
        <time>2022-12-07T12:05:00Z</time>
      </trkpt>
      <trkpt lat="47.87039" lon="-3.91644">
        <ele>5.5</ele>
        <time>2022-12-07T12:05:01Z</time>
      </trkpt>
      <trkpt lat="47.87039" lon="-3.91644">
        <ele>5.5</ele>
        <time>2022-12-07T12:05:02Z</time>
      </trkpt>
      <trkpt lat="47.87039" lon="-3.91644">
        <ele>5.5</ele>
        <time>2022-12-07T12:05:03Z</time>
      </trkpt>
      <trkpt lat="47.87039" lon="-3.91644">
        <ele>5.5</ele>
        <time>2022-12-07T12:05:04Z</time>
      </trkpt>
      <trkpt lat="47.87039" lon="-3.91644">
        <ele>5.5</ele>
        <time>2022-12-07T12:05:05Z</time>
      </trkpt>
      <trkpt lat="47.87039" lon="-3.91644">
        <ele>5.5</ele>
        <time>2022-12-07T12:05:06Z</time>
      </trkpt>
      <trkpt lat="47.8704" lon="-3.91644">
        <ele>5.5</ele>
        <time>2022-12-07T12:05:07Z</time>
      </trkpt>
      <trkpt lat="47.8704" lon="-3.91644">
        <ele>5.5</ele>
        <time>2022-12-07T12:05:08Z</time>
      </trkpt>
      <trkpt lat="47.8704" lon="-3.91644">
        <ele>5.5</ele>
        <time>2022-12-07T12:05:09Z</time>
      </trkpt>
      <trkpt lat="47.8704" lon="-3.91643">
        <ele>5.5</ele>
        <time>2022-12-07T12:05:11Z</time>
      </trkpt>
      <trkpt lat="47.8704" lon="-3.91643">
        <ele>5.5</ele>
        <time>2022-12-07T12:05:12Z</time>
      </trkpt>
      <trkpt lat="47.87042" lon="-3.91643">
        <ele>5.5</ele>
        <time>2022-12-07T12:05:13Z</time>
      </trkpt>
      <trkpt lat="47.87044" lon="-3.91643">
        <ele>5.5</ele>
        <time>2022-12-07T12:05:14Z</time>
      </trkpt>
      <trkpt lat="47.87046" lon="-3.91643">
        <ele>5.5</ele>
        <time>2022-12-07T12:05:15Z</time>
      </trkpt>
      <trkpt lat="47.87046" lon="-3.91642">
        <ele>5.5</ele>
        <time>2022-12-07T12:05:16Z</time>
      </trkpt>
      <trkpt lat="47.87047" lon="-3.91642">
        <ele>5.5</ele>
        <time>2022-12-07T12:05:17Z</time>
      </trkpt>
      <trkpt lat="47.87047" lon="-3.91642">
        <ele>5.5</ele>
        <time>2022-12-07T12:05:18Z</time>
      </trkpt>
      <trkpt lat="47.87047" lon="-3.91642">
        <ele>5.5</ele>
        <time>2022-12-07T12:05:19Z</time>
      </trkpt>
      <trkpt lat="47.87047" lon="-3.91642">
        <ele>5.5</ele>
        <time>2022-12-07T12:05:20Z</time>
      </trkpt>
      <trkpt lat="47.87046" lon="-3.91642">
        <ele>5.5</ele>
        <time>2022-12-07T12:05:21Z</time>
      </trkpt>
      <trkpt lat="47.87046" lon="-3.91642">
        <ele>5.5</ele>
        <time>2022-12-07T12:05:22Z</time>
      </trkpt>
      <trkpt lat="47.87046" lon="-3.91642">
        <ele>5.5</ele>
        <time>2022-12-07T12:05:23Z</time>
      </trkpt>
      <trkpt lat="47.87046" lon="-3.91642">
        <ele>5.5</ele>
        <time>2022-12-07T12:05:24Z</time>
      </trkpt>
      <trkpt lat="47.87046" lon="-3.91642">
        <ele>5.5</ele>
        <time>2022-12-07T12:05:25Z</time>
      </trkpt>
      <trkpt lat="47.87046" lon="-3.91642">
        <ele>5.5</ele>
        <time>2022-12-07T12:05:26Z</time>
      </trkpt>
      <trkpt lat="47.87047" lon="-3.91642">
        <ele>5.5</ele>
        <time>2022-12-07T12:05:27Z</time>
      </trkpt>
      <trkpt lat="47.87047" lon="-3.91642">
        <ele>5.5</ele>
        <time>2022-12-07T12:05:28Z</time>
      </trkpt>
      <trkpt lat="47.87047" lon="-3.91642">
        <ele>5.5</ele>
        <time>2022-12-07T12:05:29Z</time>
      </trkpt>
      <trkpt lat="47.87048" lon="-3.91642">
        <ele>5.5</ele>
        <time>2022-12-07T12:05:30Z</time>
      </trkpt>
      <trkpt lat="47.87051" lon="-3.91644">
        <ele>5.5</ele>
        <time>2022-12-07T12:05:31Z</time>
      </trkpt>
      <trkpt lat="47.87052" lon="-3.91645">
        <ele>5.5</ele>
        <time>2022-12-07T12:05:32Z</time>
      </trkpt>
      <trkpt lat="47.87056" lon="-3.91647">
        <ele>5.5</ele>
        <time>2022-12-07T12:05:33Z</time>
      </trkpt>
      <trkpt lat="47.87057" lon="-3.91648">
        <ele>5.5</ele>
        <time>2022-12-07T12:05:34Z</time>
      </trkpt>
      <trkpt lat="47.8706" lon="-3.91652">
        <ele>5.5</ele>
        <time>2022-12-07T12:05:35Z</time>
      </trkpt>
      <trkpt lat="47.87062" lon="-3.91653">
        <ele>5.5</ele>
        <time>2022-12-07T12:05:36Z</time>
      </trkpt>
      <trkpt lat="47.87064" lon="-3.91658">
        <ele>5.5</ele>
        <time>2022-12-07T12:05:37Z</time>
      </trkpt>
      <trkpt lat="47.87067" lon="-3.9166">
        <ele>5.5</ele>
        <time>2022-12-07T12:05:38Z</time>
      </trkpt>
      <trkpt lat="47.8707" lon="-3.91664">
        <ele>5.5</ele>
        <time>2022-12-07T12:05:39Z</time>
      </trkpt>
      <trkpt lat="47.87074" lon="-3.91666">
        <ele>5.5</ele>
        <time>2022-12-07T12:05:40Z</time>
      </trkpt>
      <trkpt lat="47.87079" lon="-3.9167">
        <ele>5.5</ele>
        <time>2022-12-07T12:05:41Z</time>
      </trkpt>
      <trkpt lat="47.87086" lon="-3.91675">
        <ele>5.5</ele>
        <time>2022-12-07T12:05:43Z</time>
      </trkpt>
      <trkpt lat="47.87092" lon="-3.91675">
        <ele>5.5</ele>
        <time>2022-12-07T12:05:44Z</time>
      </trkpt>
      <trkpt lat="47.87097" lon="-3.91675">
        <ele>5.5</ele>
        <time>2022-12-07T12:05:45Z</time>
      </trkpt>
      <trkpt lat="47.87104" lon="-3.91676">
        <ele>5.5</ele>
        <time>2022-12-07T12:05:46Z</time>
      </trkpt>
      <trkpt lat="47.87109" lon="-3.91678">
        <ele>5.5</ele>
        <time>2022-12-07T12:05:47Z</time>
      </trkpt>
      <trkpt lat="47.87113" lon="-3.9168">
        <ele>5.5</ele>
        <time>2022-12-07T12:05:48Z</time>
      </trkpt>
      <trkpt lat="47.87118" lon="-3.91683">
        <ele>5.5</ele>
        <time>2022-12-07T12:05:49Z</time>
      </trkpt>
      <trkpt lat="47.87122" lon="-3.91686">
        <ele>5.5</ele>
        <time>2022-12-07T12:05:50Z</time>
      </trkpt>
      <trkpt lat="47.87126" lon="-3.91689">
        <ele>5.5</ele>
        <time>2022-12-07T12:05:51Z</time>
      </trkpt>
      <trkpt lat="47.8713" lon="-3.91693">
        <ele>5.6</ele>
        <time>2022-12-07T12:05:52Z</time>
      </trkpt>
      <trkpt lat="47.87134" lon="-3.91696">
        <ele>5.6</ele>
        <time>2022-12-07T12:05:53Z</time>
      </trkpt>
      <trkpt lat="47.87138" lon="-3.917">
        <ele>5.6</ele>
        <time>2022-12-07T12:05:54Z</time>
      </trkpt>
      <trkpt lat="47.87143" lon="-3.91702">
        <ele>5.6</ele>
        <time>2022-12-07T12:05:55Z</time>
      </trkpt>
      <trkpt lat="47.87147" lon="-3.91705">
        <ele>5.6</ele>
        <time>2022-12-07T12:05:56Z</time>
      </trkpt>
      <trkpt lat="47.87152" lon="-3.91707">
        <ele>5.6</ele>
        <time>2022-12-07T12:05:57Z</time>
      </trkpt>
      <trkpt lat="47.87156" lon="-3.91709">
        <ele>5.6</ele>
        <time>2022-12-07T12:05:58Z</time>
      </trkpt>
      <trkpt lat="47.87161" lon="-3.91711">
        <ele>5.6</ele>
        <time>2022-12-07T12:05:59Z</time>
      </trkpt>
      <trkpt lat="47.87165" lon="-3.91714">
        <ele>5.7</ele>
        <time>2022-12-07T12:06:00Z</time>
      </trkpt>
      <trkpt lat="47.8717" lon="-3.91716">
        <ele>5.7</ele>
        <time>2022-12-07T12:06:01Z</time>
      </trkpt>
      <trkpt lat="47.87175" lon="-3.91718">
        <ele>5.7</ele>
        <time>2022-12-07T12:06:02Z</time>
      </trkpt>
      <trkpt lat="47.87179" lon="-3.9172">
        <ele>5.7</ele>
        <time>2022-12-07T12:06:03Z</time>
      </trkpt>
      <trkpt lat="47.87184" lon="-3.91723">
        <ele>5.7</ele>
        <time>2022-12-07T12:06:04Z</time>
      </trkpt>
      <trkpt lat="47.87189" lon="-3.91726">
        <ele>5.8</ele>
        <time>2022-12-07T12:06:05Z</time>
      </trkpt>
      <trkpt lat="47.87194" lon="-3.91729">
        <ele>5.8</ele>
        <time>2022-12-07T12:06:06Z</time>
      </trkpt>
      <trkpt lat="47.87199" lon="-3.91731">
        <ele>5.8</ele>
        <time>2022-12-07T12:06:07Z</time>
      </trkpt>
      <trkpt lat="47.87204" lon="-3.91733">
        <ele>5.8</ele>
        <time>2022-12-07T12:06:08Z</time>
      </trkpt>
      <trkpt lat="47.87208" lon="-3.91736">
        <ele>5.8</ele>
        <time>2022-12-07T12:06:09Z</time>
      </trkpt>
      <trkpt lat="47.87213" lon="-3.91739">
        <ele>5.9</ele>
        <time>2022-12-07T12:06:10Z</time>
      </trkpt>
      <trkpt lat="47.87217" lon="-3.91744">
        <ele>5.9</ele>
        <time>2022-12-07T12:06:11Z</time>
      </trkpt>
      <trkpt lat="47.87222" lon="-3.91749">
        <ele>5.8</ele>
        <time>2022-12-07T12:06:12Z</time>
      </trkpt>
      <trkpt lat="47.87226" lon="-3.91753">
        <ele>5.8</ele>
        <time>2022-12-07T12:06:13Z</time>
      </trkpt>
      <trkpt lat="47.87232" lon="-3.91756">
        <ele>5.8</ele>
        <time>2022-12-07T12:06:14Z</time>
      </trkpt>
      <trkpt lat="47.87237" lon="-3.91758">
        <ele>5.7</ele>
        <time>2022-12-07T12:06:15Z</time>
      </trkpt>
      <trkpt lat="47.87242" lon="-3.9176">
        <ele>5.7</ele>
        <time>2022-12-07T12:06:16Z</time>
      </trkpt>
      <trkpt lat="47.87248" lon="-3.91763">
        <ele>5.6</ele>
        <time>2022-12-07T12:06:17Z</time>
      </trkpt>
      <trkpt lat="47.87253" lon="-3.91766">
        <ele>5.6</ele>
        <time>2022-12-07T12:06:18Z</time>
      </trkpt>
      <trkpt lat="47.87258" lon="-3.91768">
        <ele>5.6</ele>
        <time>2022-12-07T12:06:19Z</time>
      </trkpt>
      <trkpt lat="47.87264" lon="-3.91771">
        <ele>5.6</ele>
        <time>2022-12-07T12:06:20Z</time>
      </trkpt>
      <trkpt lat="47.87269" lon="-3.91773">
        <ele>5.6</ele>
        <time>2022-12-07T12:06:21Z</time>
      </trkpt>
      <trkpt lat="47.87275" lon="-3.91777">
        <ele>5.6</ele>
        <time>2022-12-07T12:06:22Z</time>
      </trkpt>
      <trkpt lat="47.8728" lon="-3.9178">
        <ele>5.6</ele>
        <time>2022-12-07T12:06:23Z</time>
      </trkpt>
      <trkpt lat="47.87285" lon="-3.91783">
        <ele>5.6</ele>
        <time>2022-12-07T12:06:24Z</time>
      </trkpt>
      <trkpt lat="47.8729" lon="-3.91786">
        <ele>5.6</ele>
        <time>2022-12-07T12:06:25Z</time>
      </trkpt>
      <trkpt lat="47.87295" lon="-3.91788">
        <ele>5.6</ele>
        <time>2022-12-07T12:06:26Z</time>
      </trkpt>
      <trkpt lat="47.87299" lon="-3.9179">
        <ele>5.6</ele>
        <time>2022-12-07T12:06:27Z</time>
      </trkpt>
      <trkpt lat="47.87304" lon="-3.91793">
        <ele>5.6</ele>
        <time>2022-12-07T12:06:28Z</time>
      </trkpt>
      <trkpt lat="47.87309" lon="-3.91796">
        <ele>5.6</ele>
        <time>2022-12-07T12:06:29Z</time>
      </trkpt>
      <trkpt lat="47.87314" lon="-3.91798">
        <ele>5.6</ele>
        <time>2022-12-07T12:06:30Z</time>
      </trkpt>
      <trkpt lat="47.87319" lon="-3.91801">
        <ele>5.6</ele>
        <time>2022-12-07T12:06:31Z</time>
      </trkpt>
      <trkpt lat="47.87324" lon="-3.91803">
        <ele>5.6</ele>
        <time>2022-12-07T12:06:32Z</time>
      </trkpt>
      <trkpt lat="47.87329" lon="-3.91806">
        <ele>5.7</ele>
        <time>2022-12-07T12:06:33Z</time>
      </trkpt>
      <trkpt lat="47.87333" lon="-3.91809">
        <ele>5.7</ele>
        <time>2022-12-07T12:06:34Z</time>
      </trkpt>
      <trkpt lat="47.87338" lon="-3.91812">
        <ele>5.7</ele>
        <time>2022-12-07T12:06:35Z</time>
      </trkpt>
      <trkpt lat="47.87343" lon="-3.91814">
        <ele>5.7</ele>
        <time>2022-12-07T12:06:36Z</time>
      </trkpt>
      <trkpt lat="47.87347" lon="-3.91816">
        <ele>5.7</ele>
        <time>2022-12-07T12:06:37Z</time>
      </trkpt>
      <trkpt lat="47.87352" lon="-3.91819">
        <ele>5.7</ele>
        <time>2022-12-07T12:06:38Z</time>
      </trkpt>
      <trkpt lat="47.87357" lon="-3.91821">
        <ele>5.7</ele>
        <time>2022-12-07T12:06:39Z</time>
      </trkpt>
      <trkpt lat="47.87362" lon="-3.91823">
        <ele>5.7</ele>
        <time>2022-12-07T12:06:40Z</time>
      </trkpt>
      <trkpt lat="47.87366" lon="-3.91826">
        <ele>5.7</ele>
        <time>2022-12-07T12:06:41Z</time>
      </trkpt>
      <trkpt lat="47.87371" lon="-3.91828">
        <ele>5.7</ele>
        <time>2022-12-07T12:06:42Z</time>
      </trkpt>
      <trkpt lat="47.87376" lon="-3.91831">
        <ele>5.7</ele>
        <time>2022-12-07T12:06:43Z</time>
      </trkpt>
      <trkpt lat="47.87381" lon="-3.91833">
        <ele>5.7</ele>
        <time>2022-12-07T12:06:44Z</time>
      </trkpt>
      <trkpt lat="47.87385" lon="-3.91836">
        <ele>5.7</ele>
        <time>2022-12-07T12:06:45Z</time>
      </trkpt>
      <trkpt lat="47.8739" lon="-3.91839">
        <ele>5.8</ele>
        <time>2022-12-07T12:06:46Z</time>
      </trkpt>
      <trkpt lat="47.87394" lon="-3.91843">
        <ele>5.8</ele>
        <time>2022-12-07T12:06:47Z</time>
      </trkpt>
      <trkpt lat="47.87398" lon="-3.91848">
        <ele>5.8</ele>
        <time>2022-12-07T12:06:48Z</time>
      </trkpt>
      <trkpt lat="47.87401" lon="-3.91853">
        <ele>5.8</ele>
        <time>2022-12-07T12:06:49Z</time>
      </trkpt>
      <trkpt lat="47.87404" lon="-3.91857">
        <ele>5.8</ele>
        <time>2022-12-07T12:06:50Z</time>
      </trkpt>
      <trkpt lat="47.87407" lon="-3.91859">
        <ele>5.8</ele>
        <time>2022-12-07T12:06:51Z</time>
      </trkpt>
      <trkpt lat="47.87411" lon="-3.91861">
        <ele>5.8</ele>
        <time>2022-12-07T12:06:52Z</time>
      </trkpt>
      <trkpt lat="47.87414" lon="-3.91865">
        <ele>5.9</ele>
        <time>2022-12-07T12:06:53Z</time>
      </trkpt>
      <trkpt lat="47.87414" lon="-3.9187">
        <ele>5.9</ele>
        <time>2022-12-07T12:06:54Z</time>
      </trkpt>
      <trkpt lat="47.87412" lon="-3.91875">
        <ele>6</ele>
        <time>2022-12-07T12:06:55Z</time>
      </trkpt>
      <trkpt lat="47.87412" lon="-3.91881">
        <ele>6</ele>
        <time>2022-12-07T12:06:56Z</time>
      </trkpt>
      <trkpt lat="47.87413" lon="-3.91883">
        <ele>6</ele>
        <time>2022-12-07T12:06:57Z</time>
      </trkpt>
      <trkpt lat="47.87411" lon="-3.91884">
        <ele>6.1</ele>
        <time>2022-12-07T12:06:58Z</time>
      </trkpt>
      <trkpt lat="47.87412" lon="-3.91894">
        <ele>6.2</ele>
        <time>2022-12-07T12:07:00Z</time>
      </trkpt>
      <trkpt lat="47.87414" lon="-3.91902">
        <ele>6.3</ele>
        <time>2022-12-07T12:07:01Z</time>
      </trkpt>
      <trkpt lat="47.87415" lon="-3.9191">
        <ele>6.4</ele>
        <time>2022-12-07T12:07:02Z</time>
      </trkpt>
      <trkpt lat="47.87416" lon="-3.91919">
        <ele>6.5</ele>
        <time>2022-12-07T12:07:03Z</time>
      </trkpt>
      <trkpt lat="47.87416" lon="-3.91929">
        <ele>6.6</ele>
        <time>2022-12-07T12:07:05Z</time>
      </trkpt>
      <trkpt lat="47.87415" lon="-3.91938">
        <ele>6.7</ele>
        <time>2022-12-07T12:07:06Z</time>
      </trkpt>
      <trkpt lat="47.87416" lon="-3.91945">
        <ele>6.8</ele>
        <time>2022-12-07T12:07:07Z</time>
      </trkpt>
      <trkpt lat="47.87416" lon="-3.91952">
        <ele>6.9</ele>
        <time>2022-12-07T12:07:08Z</time>
      </trkpt>
      <trkpt lat="47.87417" lon="-3.91959">
        <ele>7</ele>
        <time>2022-12-07T12:07:09Z</time>
      </trkpt>
      <trkpt lat="47.87418" lon="-3.91965">
        <ele>7.1</ele>
        <time>2022-12-07T12:07:10Z</time>
      </trkpt>
      <trkpt lat="47.87419" lon="-3.91973">
        <ele>7.2</ele>
        <time>2022-12-07T12:07:11Z</time>
      </trkpt>
      <trkpt lat="47.87419" lon="-3.91978">
        <ele>7.3</ele>
        <time>2022-12-07T12:07:12Z</time>
      </trkpt>
      <trkpt lat="47.8742" lon="-3.91986">
        <ele>7.5</ele>
        <time>2022-12-07T12:07:13Z</time>
      </trkpt>
      <trkpt lat="47.87421" lon="-3.91993">
        <ele>7.6</ele>
        <time>2022-12-07T12:07:14Z</time>
      </trkpt>
      <trkpt lat="47.87422" lon="-3.92">
        <ele>7.8</ele>
        <time>2022-12-07T12:07:15Z</time>
      </trkpt>
      <trkpt lat="47.87423" lon="-3.92007">
        <ele>8</ele>
        <time>2022-12-07T12:07:16Z</time>
      </trkpt>
      <trkpt lat="47.87425" lon="-3.92014">
        <ele>8.3</ele>
        <time>2022-12-07T12:07:17Z</time>
      </trkpt>
      <trkpt lat="47.87427" lon="-3.9202">
        <ele>8.5</ele>
        <time>2022-12-07T12:07:18Z</time>
      </trkpt>
      <trkpt lat="47.87429" lon="-3.92026">
        <ele>8.8</ele>
        <time>2022-12-07T12:07:19Z</time>
      </trkpt>
      <trkpt lat="47.8743" lon="-3.92033">
        <ele>9.2</ele>
        <time>2022-12-07T12:07:20Z</time>
      </trkpt>
      <trkpt lat="47.87432" lon="-3.92039">
        <ele>9.5</ele>
        <time>2022-12-07T12:07:21Z</time>
      </trkpt>
      <trkpt lat="47.87434" lon="-3.92042">
        <ele>9.8</ele>
        <time>2022-12-07T12:07:22Z</time>
      </trkpt>
      <trkpt lat="47.87438" lon="-3.92052">
        <ele>10.5</ele>
        <time>2022-12-07T12:07:24Z</time>
      </trkpt>
      <trkpt lat="47.87441" lon="-3.92058">
        <ele>11</ele>
        <time>2022-12-07T12:07:25Z</time>
      </trkpt>
      <trkpt lat="47.87443" lon="-3.92061">
        <ele>11.2</ele>
        <time>2022-12-07T12:07:26Z</time>
      </trkpt>
      <trkpt lat="47.87446" lon="-3.92065">
        <ele>11.6</ele>
        <time>2022-12-07T12:07:27Z</time>
      </trkpt>
      <trkpt lat="47.87449" lon="-3.92071">
        <ele>12</ele>
        <time>2022-12-07T12:07:29Z</time>
      </trkpt>
      <trkpt lat="47.87452" lon="-3.92076">
        <ele>12.4</ele>
        <time>2022-12-07T12:07:30Z</time>
      </trkpt>
      <trkpt lat="47.87455" lon="-3.92081">
        <ele>12.8</ele>
        <time>2022-12-07T12:07:31Z</time>
      </trkpt>
      <trkpt lat="47.87458" lon="-3.92086">
        <ele>13.1</ele>
        <time>2022-12-07T12:07:32Z</time>
      </trkpt>
      <trkpt lat="47.87462" lon="-3.92094">
        <ele>13.7</ele>
        <time>2022-12-07T12:07:34Z</time>
      </trkpt>
      <trkpt lat="47.87466" lon="-3.92099">
        <ele>14.1</ele>
        <time>2022-12-07T12:07:35Z</time>
      </trkpt>
      <trkpt lat="47.87467" lon="-3.92102">
        <ele>14.3</ele>
        <time>2022-12-07T12:07:36Z</time>
      </trkpt>
      <trkpt lat="47.87472" lon="-3.92109">
        <ele>14.8</ele>
        <time>2022-12-07T12:07:38Z</time>
      </trkpt>
      <trkpt lat="47.87475" lon="-3.92113">
        <ele>15.1</ele>
        <time>2022-12-07T12:07:39Z</time>
      </trkpt>
      <trkpt lat="47.87477" lon="-3.92118">
        <ele>15.4</ele>
        <time>2022-12-07T12:07:40Z</time>
      </trkpt>
      <trkpt lat="47.8748" lon="-3.92124">
        <ele>15.7</ele>
        <time>2022-12-07T12:07:42Z</time>
      </trkpt>
      <trkpt lat="47.87483" lon="-3.9213">
        <ele>16.1</ele>
        <time>2022-12-07T12:07:43Z</time>
      </trkpt>
      <trkpt lat="47.87486" lon="-3.92134">
        <ele>16.3</ele>
        <time>2022-12-07T12:07:44Z</time>
      </trkpt>
      <trkpt lat="47.87488" lon="-3.92138">
        <ele>16.5</ele>
        <time>2022-12-07T12:07:45Z</time>
      </trkpt>
      <trkpt lat="47.8749" lon="-3.92142">
        <ele>16.7</ele>
        <time>2022-12-07T12:07:46Z</time>
      </trkpt>
      <trkpt lat="47.87492" lon="-3.92147">
        <ele>16.9</ele>
        <time>2022-12-07T12:07:48Z</time>
      </trkpt>
      <trkpt lat="47.87494" lon="-3.92151">
        <ele>17.1</ele>
        <time>2022-12-07T12:07:49Z</time>
      </trkpt>
      <trkpt lat="47.87498" lon="-3.92157">
        <ele>17.3</ele>
        <time>2022-12-07T12:07:50Z</time>
      </trkpt>
      <trkpt lat="47.875" lon="-3.92161">
        <ele>17.5</ele>
        <time>2022-12-07T12:07:51Z</time>
      </trkpt>
      <trkpt lat="47.87502" lon="-3.92165">
        <ele>17.6</ele>
        <time>2022-12-07T12:07:52Z</time>
      </trkpt>
      <trkpt lat="47.87506" lon="-3.9217">
        <ele>17.8</ele>
        <time>2022-12-07T12:07:53Z</time>
      </trkpt>
      <trkpt lat="47.87509" lon="-3.92174">
        <ele>17.9</ele>
        <time>2022-12-07T12:07:55Z</time>
      </trkpt>
      <trkpt lat="47.87513" lon="-3.92178">
        <ele>18</ele>
        <time>2022-12-07T12:07:56Z</time>
      </trkpt>
      <trkpt lat="47.87516" lon="-3.92183">
        <ele>18.1</ele>
        <time>2022-12-07T12:07:57Z</time>
      </trkpt>
      <trkpt lat="47.87519" lon="-3.92187">
        <ele>18.1</ele>
        <time>2022-12-07T12:07:58Z</time>
      </trkpt>
      <trkpt lat="47.87523" lon="-3.92193">
        <ele>18.2</ele>
        <time>2022-12-07T12:07:59Z</time>
      </trkpt>
      <trkpt lat="47.87527" lon="-3.92197">
        <ele>18.2</ele>
        <time>2022-12-07T12:08:01Z</time>
      </trkpt>
      <trkpt lat="47.87528" lon="-3.92198">
        <ele>18.2</ele>
        <time>2022-12-07T12:08:02Z</time>
      </trkpt>
      <trkpt lat="47.87529" lon="-3.92199">
        <ele>18.2</ele>
        <time>2022-12-07T12:08:03Z</time>
      </trkpt>
      <trkpt lat="47.87531" lon="-3.92204">
        <ele>18.2</ele>
        <time>2022-12-07T12:08:04Z</time>
      </trkpt>
      <trkpt lat="47.87532" lon="-3.92209">
        <ele>18.1</ele>
        <time>2022-12-07T12:08:05Z</time>
      </trkpt>
      <trkpt lat="47.87533" lon="-3.92214">
        <ele>18.1</ele>
        <time>2022-12-07T12:08:06Z</time>
      </trkpt>
      <trkpt lat="47.87535" lon="-3.92221">
        <ele>18</ele>
        <time>2022-12-07T12:08:07Z</time>
      </trkpt>
      <trkpt lat="47.87536" lon="-3.92226">
        <ele>18</ele>
        <time>2022-12-07T12:08:08Z</time>
      </trkpt>
      <trkpt lat="47.87539" lon="-3.92232">
        <ele>17.9</ele>
        <time>2022-12-07T12:08:09Z</time>
      </trkpt>
      <trkpt lat="47.87541" lon="-3.9224">
        <ele>17.8</ele>
        <time>2022-12-07T12:08:10Z</time>
      </trkpt>
      <trkpt lat="47.87543" lon="-3.92246">
        <ele>17.7</ele>
        <time>2022-12-07T12:08:11Z</time>
      </trkpt>
      <trkpt lat="47.87546" lon="-3.92255">
        <ele>17.6</ele>
        <time>2022-12-07T12:08:12Z</time>
      </trkpt>
      <trkpt lat="47.87549" lon="-3.92262">
        <ele>17.5</ele>
        <time>2022-12-07T12:08:13Z</time>
      </trkpt>
      <trkpt lat="47.87552" lon="-3.9227">
        <ele>17.4</ele>
        <time>2022-12-07T12:08:14Z</time>
      </trkpt>
      <trkpt lat="47.87554" lon="-3.92277">
        <ele>17.3</ele>
        <time>2022-12-07T12:08:15Z</time>
      </trkpt>
      <trkpt lat="47.87557" lon="-3.92283">
        <ele>17.3</ele>
        <time>2022-12-07T12:08:16Z</time>
      </trkpt>
      <trkpt lat="47.8756" lon="-3.92291">
        <ele>17.2</ele>
        <time>2022-12-07T12:08:17Z</time>
      </trkpt>
      <trkpt lat="47.87564" lon="-3.92299">
        <ele>17.2</ele>
        <time>2022-12-07T12:08:18Z</time>
      </trkpt>
      <trkpt lat="47.87568" lon="-3.92306">
        <ele>17.2</ele>
        <time>2022-12-07T12:08:19Z</time>
      </trkpt>
      <trkpt lat="47.87571" lon="-3.92312">
        <ele>17.2</ele>
        <time>2022-12-07T12:08:20Z</time>
      </trkpt>
      <trkpt lat="47.87574" lon="-3.92319">
        <ele>17.2</ele>
        <time>2022-12-07T12:08:21Z</time>
      </trkpt>
      <trkpt lat="47.87577" lon="-3.92325">
        <ele>17.3</ele>
        <time>2022-12-07T12:08:22Z</time>
      </trkpt>
      <trkpt lat="47.87579" lon="-3.92332">
        <ele>17.4</ele>
        <time>2022-12-07T12:08:23Z</time>
      </trkpt>
      <trkpt lat="47.87582" lon="-3.92338">
        <ele>17.5</ele>
        <time>2022-12-07T12:08:24Z</time>
      </trkpt>
      <trkpt lat="47.87585" lon="-3.92344">
        <ele>17.6</ele>
        <time>2022-12-07T12:08:25Z</time>
      </trkpt>
      <trkpt lat="47.87587" lon="-3.92349">
        <ele>17.6</ele>
        <time>2022-12-07T12:08:26Z</time>
      </trkpt>
      <trkpt lat="47.8759" lon="-3.92353">
        <ele>17.7</ele>
        <time>2022-12-07T12:08:27Z</time>
      </trkpt>
      <trkpt lat="47.87593" lon="-3.92358">
        <ele>17.8</ele>
        <time>2022-12-07T12:08:28Z</time>
      </trkpt>
      <trkpt lat="47.87596" lon="-3.92363">
        <ele>17.9</ele>
        <time>2022-12-07T12:08:29Z</time>
      </trkpt>
      <trkpt lat="47.87599" lon="-3.92367">
        <ele>18</ele>
        <time>2022-12-07T12:08:30Z</time>
      </trkpt>
      <trkpt lat="47.87602" lon="-3.92372">
        <ele>18.1</ele>
        <time>2022-12-07T12:08:31Z</time>
      </trkpt>
      <trkpt lat="47.87605" lon="-3.92377">
        <ele>18.2</ele>
        <time>2022-12-07T12:08:32Z</time>
      </trkpt>
      <trkpt lat="47.87607" lon="-3.9238">
        <ele>18.2</ele>
        <time>2022-12-07T12:08:33Z</time>
      </trkpt>
      <trkpt lat="47.87613" lon="-3.92385">
        <ele>18.4</ele>
        <time>2022-12-07T12:08:35Z</time>
      </trkpt>
      <trkpt lat="47.87617" lon="-3.92391">
        <ele>18.5</ele>
        <time>2022-12-07T12:08:36Z</time>
      </trkpt>
      <trkpt lat="47.87621" lon="-3.92396">
        <ele>18.6</ele>
        <time>2022-12-07T12:08:37Z</time>
      </trkpt>
      <trkpt lat="47.8763" lon="-3.92403">
        <ele>18.7</ele>
        <time>2022-12-07T12:08:39Z</time>
      </trkpt>
      <trkpt lat="47.87633" lon="-3.92407">
        <ele>18.8</ele>
        <time>2022-12-07T12:08:40Z</time>
      </trkpt>
      <trkpt lat="47.87637" lon="-3.9241">
        <ele>18.9</ele>
        <time>2022-12-07T12:08:41Z</time>
      </trkpt>
      <trkpt lat="47.87641" lon="-3.92414">
        <ele>19</ele>
        <time>2022-12-07T12:08:42Z</time>
      </trkpt>
      <trkpt lat="47.87644" lon="-3.92417">
        <ele>19.2</ele>
        <time>2022-12-07T12:08:43Z</time>
      </trkpt>
      <trkpt lat="47.87648" lon="-3.92419">
        <ele>19.3</ele>
        <time>2022-12-07T12:08:44Z</time>
      </trkpt>
      <trkpt lat="47.87652" lon="-3.92422">
        <ele>19.4</ele>
        <time>2022-12-07T12:08:45Z</time>
      </trkpt>
      <trkpt lat="47.87656" lon="-3.92425">
        <ele>19.5</ele>
        <time>2022-12-07T12:08:46Z</time>
      </trkpt>
      <trkpt lat="47.87659" lon="-3.92427">
        <ele>19.6</ele>
        <time>2022-12-07T12:08:47Z</time>
      </trkpt>
      <trkpt lat="47.87661" lon="-3.92431">
        <ele>19.7</ele>
        <time>2022-12-07T12:08:48Z</time>
      </trkpt>
      <trkpt lat="47.87665" lon="-3.92434">
        <ele>19.8</ele>
        <time>2022-12-07T12:08:49Z</time>
      </trkpt>
      <trkpt lat="47.87669" lon="-3.92436">
        <ele>19.9</ele>
        <time>2022-12-07T12:08:50Z</time>
      </trkpt>
      <trkpt lat="47.87673" lon="-3.92437">
        <ele>20.1</ele>
        <time>2022-12-07T12:08:51Z</time>
      </trkpt>
      <trkpt lat="47.87677" lon="-3.92439">
        <ele>20.2</ele>
        <time>2022-12-07T12:08:52Z</time>
      </trkpt>
      <trkpt lat="47.87681" lon="-3.9244">
        <ele>20.3</ele>
        <time>2022-12-07T12:08:53Z</time>
      </trkpt>
      <trkpt lat="47.87687" lon="-3.92442">
        <ele>20.4</ele>
        <time>2022-12-07T12:08:54Z</time>
      </trkpt>
      <trkpt lat="47.87693" lon="-3.92443">
        <ele>20.5</ele>
        <time>2022-12-07T12:08:56Z</time>
      </trkpt>
      <trkpt lat="47.87697" lon="-3.92446">
        <ele>20.6</ele>
        <time>2022-12-07T12:08:57Z</time>
      </trkpt>
      <trkpt lat="47.877" lon="-3.92449">
        <ele>20.7</ele>
        <time>2022-12-07T12:08:58Z</time>
      </trkpt>
      <trkpt lat="47.87704" lon="-3.92451">
        <ele>20.8</ele>
        <time>2022-12-07T12:08:59Z</time>
      </trkpt>
      <trkpt lat="47.87708" lon="-3.92453">
        <ele>20.9</ele>
        <time>2022-12-07T12:09:00Z</time>
      </trkpt>
      <trkpt lat="47.87718" lon="-3.92455">
        <ele>21</ele>
        <time>2022-12-07T12:09:02Z</time>
      </trkpt>
      <trkpt lat="47.87722" lon="-3.92455">
        <ele>21.1</ele>
        <time>2022-12-07T12:09:03Z</time>
      </trkpt>
      <trkpt lat="47.87727" lon="-3.92455">
        <ele>21.1</ele>
        <time>2022-12-07T12:09:04Z</time>
      </trkpt>
      <trkpt lat="47.87731" lon="-3.92454">
        <ele>21.1</ele>
        <time>2022-12-07T12:09:05Z</time>
      </trkpt>
      <trkpt lat="47.87735" lon="-3.92453">
        <ele>21.2</ele>
        <time>2022-12-07T12:09:06Z</time>
      </trkpt>
      <trkpt lat="47.87738" lon="-3.92455">
        <ele>21.2</ele>
        <time>2022-12-07T12:09:07Z</time>
      </trkpt>
      <trkpt lat="47.87742" lon="-3.92454">
        <ele>21.2</ele>
        <time>2022-12-07T12:09:08Z</time>
      </trkpt>
      <trkpt lat="47.87746" lon="-3.92452">
        <ele>21.2</ele>
        <time>2022-12-07T12:09:09Z</time>
      </trkpt>
      <trkpt lat="47.8775" lon="-3.92453">
        <ele>21.1</ele>
        <time>2022-12-07T12:09:10Z</time>
      </trkpt>
      <trkpt lat="47.87755" lon="-3.92454">
        <ele>21.1</ele>
        <time>2022-12-07T12:09:11Z</time>
      </trkpt>
      <trkpt lat="47.87761" lon="-3.92454">
        <ele>21</ele>
        <time>2022-12-07T12:09:12Z</time>
      </trkpt>
      <trkpt lat="47.87767" lon="-3.92454">
        <ele>20.8</ele>
        <time>2022-12-07T12:09:13Z</time>
      </trkpt>
      <trkpt lat="47.87772" lon="-3.92453">
        <ele>20.7</ele>
        <time>2022-12-07T12:09:14Z</time>
      </trkpt>
      <trkpt lat="47.87778" lon="-3.92452">
        <ele>20.6</ele>
        <time>2022-12-07T12:09:15Z</time>
      </trkpt>
      <trkpt lat="47.87784" lon="-3.92451">
        <ele>20.5</ele>
        <time>2022-12-07T12:09:16Z</time>
      </trkpt>
      <trkpt lat="47.87791" lon="-3.92449">
        <ele>20.4</ele>
        <time>2022-12-07T12:09:17Z</time>
      </trkpt>
      <trkpt lat="47.87797" lon="-3.92448">
        <ele>20.4</ele>
        <time>2022-12-07T12:09:18Z</time>
      </trkpt>
      <trkpt lat="47.87802" lon="-3.92446">
        <ele>20.5</ele>
        <time>2022-12-07T12:09:19Z</time>
      </trkpt>
      <trkpt lat="47.87807" lon="-3.92444">
        <ele>20.6</ele>
        <time>2022-12-07T12:09:20Z</time>
      </trkpt>
      <trkpt lat="47.87812" lon="-3.92442">
        <ele>20.7</ele>
        <time>2022-12-07T12:09:21Z</time>
      </trkpt>
      <trkpt lat="47.87817" lon="-3.9244">
        <ele>20.8</ele>
        <time>2022-12-07T12:09:22Z</time>
      </trkpt>
      <trkpt lat="47.87822" lon="-3.92438">
        <ele>20.9</ele>
        <time>2022-12-07T12:09:23Z</time>
      </trkpt>
      <trkpt lat="47.87827" lon="-3.92436">
        <ele>21</ele>
        <time>2022-12-07T12:09:24Z</time>
      </trkpt>
      <trkpt lat="47.87831" lon="-3.92434">
        <ele>21.1</ele>
        <time>2022-12-07T12:09:25Z</time>
      </trkpt>
      <trkpt lat="47.87835" lon="-3.92432">
        <ele>21.2</ele>
        <time>2022-12-07T12:09:26Z</time>
      </trkpt>
      <trkpt lat="47.87839" lon="-3.9243">
        <ele>21.3</ele>
        <time>2022-12-07T12:09:27Z</time>
      </trkpt>
      <trkpt lat="47.87843" lon="-3.92428">
        <ele>21.4</ele>
        <time>2022-12-07T12:09:28Z</time>
      </trkpt>
      <trkpt lat="47.87846" lon="-3.92426">
        <ele>21.5</ele>
        <time>2022-12-07T12:09:29Z</time>
      </trkpt>
      <trkpt lat="47.87851" lon="-3.92422">
        <ele>21.6</ele>
        <time>2022-12-07T12:09:30Z</time>
      </trkpt>
      <trkpt lat="47.87856" lon="-3.92419">
        <ele>21.7</ele>
        <time>2022-12-07T12:09:31Z</time>
      </trkpt>
      <trkpt lat="47.8786" lon="-3.92415">
        <ele>21.7</ele>
        <time>2022-12-07T12:09:32Z</time>
      </trkpt>
      <trkpt lat="47.87864" lon="-3.92412">
        <ele>21.8</ele>
        <time>2022-12-07T12:09:33Z</time>
      </trkpt>
      <trkpt lat="47.87868" lon="-3.92407">
        <ele>21.8</ele>
        <time>2022-12-07T12:09:34Z</time>
      </trkpt>
      <trkpt lat="47.87872" lon="-3.92404">
        <ele>21.9</ele>
        <time>2022-12-07T12:09:35Z</time>
      </trkpt>
      <trkpt lat="47.87876" lon="-3.924">
        <ele>22</ele>
        <time>2022-12-07T12:09:36Z</time>
      </trkpt>
      <trkpt lat="47.87881" lon="-3.92395">
        <ele>22</ele>
        <time>2022-12-07T12:09:37Z</time>
      </trkpt>
      <trkpt lat="47.87884" lon="-3.92391">
        <ele>22.1</ele>
        <time>2022-12-07T12:09:38Z</time>
      </trkpt>
      <trkpt lat="47.87888" lon="-3.92386">
        <ele>22.1</ele>
        <time>2022-12-07T12:09:39Z</time>
      </trkpt>
      <trkpt lat="47.87891" lon="-3.92381">
        <ele>22.2</ele>
        <time>2022-12-07T12:09:40Z</time>
      </trkpt>
      <trkpt lat="47.87895" lon="-3.92375">
        <ele>22.2</ele>
        <time>2022-12-07T12:09:41Z</time>
      </trkpt>
      <trkpt lat="47.87898" lon="-3.9237">
        <ele>22.3</ele>
        <time>2022-12-07T12:09:42Z</time>
      </trkpt>
      <trkpt lat="47.87901" lon="-3.92364">
        <ele>22.3</ele>
        <time>2022-12-07T12:09:43Z</time>
      </trkpt>
      <trkpt lat="47.87904" lon="-3.92358">
        <ele>22.4</ele>
        <time>2022-12-07T12:09:44Z</time>
      </trkpt>
      <trkpt lat="47.87906" lon="-3.92353">
        <ele>22.4</ele>
        <time>2022-12-07T12:09:45Z</time>
      </trkpt>
      <trkpt lat="47.87907" lon="-3.92347">
        <ele>22.5</ele>
        <time>2022-12-07T12:09:46Z</time>
      </trkpt>
      <trkpt lat="47.8791" lon="-3.92343">
        <ele>22.5</ele>
        <time>2022-12-07T12:09:47Z</time>
      </trkpt>
      <trkpt lat="47.87914" lon="-3.92336">
        <ele>22.6</ele>
        <time>2022-12-07T12:09:48Z</time>
      </trkpt>
      <trkpt lat="47.87917" lon="-3.92329">
        <ele>22.7</ele>
        <time>2022-12-07T12:09:49Z</time>
      </trkpt>
      <trkpt lat="47.8792" lon="-3.92323">
        <ele>22.7</ele>
        <time>2022-12-07T12:09:50Z</time>
      </trkpt>
      <trkpt lat="47.87922" lon="-3.92318">
        <ele>22.8</ele>
        <time>2022-12-07T12:09:51Z</time>
      </trkpt>
      <trkpt lat="47.87925" lon="-3.92312">
        <ele>22.8</ele>
        <time>2022-12-07T12:09:52Z</time>
      </trkpt>
      <trkpt lat="47.87926" lon="-3.9231">
        <ele>22.9</ele>
        <time>2022-12-07T12:09:53Z</time>
      </trkpt>
      <trkpt lat="47.87929" lon="-3.923">
        <ele>23</ele>
        <time>2022-12-07T12:09:54Z</time>
      </trkpt>
      <trkpt lat="47.87932" lon="-3.92293">
        <ele>23.1</ele>
        <time>2022-12-07T12:09:55Z</time>
      </trkpt>
      <trkpt lat="47.87934" lon="-3.92286">
        <ele>23.2</ele>
        <time>2022-12-07T12:09:56Z</time>
      </trkpt>
      <trkpt lat="47.87936" lon="-3.92281">
        <ele>23.2</ele>
        <time>2022-12-07T12:09:57Z</time>
      </trkpt>
      <trkpt lat="47.87938" lon="-3.92275">
        <ele>23.3</ele>
        <time>2022-12-07T12:09:58Z</time>
      </trkpt>
      <trkpt lat="47.8794" lon="-3.92268">
        <ele>23.3</ele>
        <time>2022-12-07T12:09:59Z</time>
      </trkpt>
      <trkpt lat="47.87942" lon="-3.92261">
        <ele>23.4</ele>
        <time>2022-12-07T12:10:00Z</time>
      </trkpt>
      <trkpt lat="47.87945" lon="-3.92255">
        <ele>23.4</ele>
        <time>2022-12-07T12:10:01Z</time>
      </trkpt>
      <trkpt lat="47.87946" lon="-3.92253">
        <ele>23.4</ele>
        <time>2022-12-07T12:10:02Z</time>
      </trkpt>
      <trkpt lat="47.87954" lon="-3.92249">
        <ele>23.5</ele>
        <time>2022-12-07T12:10:04Z</time>
      </trkpt>
      <trkpt lat="47.8796" lon="-3.92244">
        <ele>23</ele>
        <time>2022-12-07T12:10:06Z</time>
      </trkpt>
      <trkpt lat="47.87965" lon="-3.9224">
        <ele>22.3</ele>
        <time>2022-12-07T12:10:07Z</time>
      </trkpt>
      <trkpt lat="47.87969" lon="-3.92235">
        <ele>21.6</ele>
        <time>2022-12-07T12:10:08Z</time>
      </trkpt>
      <trkpt lat="47.87973" lon="-3.92232">
        <ele>20.8</ele>
        <time>2022-12-07T12:10:09Z</time>
      </trkpt>
      <trkpt lat="47.87979" lon="-3.92227">
        <ele>19.8</ele>
        <time>2022-12-07T12:10:10Z</time>
      </trkpt>
      <trkpt lat="47.87985" lon="-3.92222">
        <ele>18.9</ele>
        <time>2022-12-07T12:10:11Z</time>
      </trkpt>
      <trkpt lat="47.87989" lon="-3.92218">
        <ele>18.2</ele>
        <time>2022-12-07T12:10:12Z</time>
      </trkpt>
      <trkpt lat="47.87991" lon="-3.92216">
        <ele>17.9</ele>
        <time>2022-12-07T12:10:13Z</time>
      </trkpt>
      <trkpt lat="47.87994" lon="-3.92218">
        <ele>17.5</ele>
        <time>2022-12-07T12:10:15Z</time>
      </trkpt>
      <trkpt lat="47.87996" lon="-3.9222">
        <ele>17.3</ele>
        <time>2022-12-07T12:10:16Z</time>
      </trkpt>
      <trkpt lat="47.87996" lon="-3.92222">
        <ele>17.1</ele>
        <time>2022-12-07T12:10:17Z</time>
      </trkpt>
      <trkpt lat="47.87998" lon="-3.92223">
        <ele>16.8</ele>
        <time>2022-12-07T12:10:18Z</time>
      </trkpt>
      <trkpt lat="47.87999" lon="-3.92223">
        <ele>16.8</ele>
        <time>2022-12-07T12:10:19Z</time>
      </trkpt>
      <trkpt lat="47.88002" lon="-3.92222">
        <ele>16.8</ele>
        <time>2022-12-07T12:10:20Z</time>
      </trkpt>
      <trkpt lat="47.88006" lon="-3.92224">
        <ele>16.8</ele>
        <time>2022-12-07T12:10:21Z</time>
      </trkpt>
      <trkpt lat="47.88007" lon="-3.92225">
        <ele>16.8</ele>
        <time>2022-12-07T12:10:22Z</time>
      </trkpt>
      <trkpt lat="47.88009" lon="-3.92238">
        <ele>16.8</ele>
        <time>2022-12-07T12:10:23Z</time>
      </trkpt>
      <trkpt lat="47.88011" lon="-3.92254">
        <ele>16.9</ele>
        <time>2022-12-07T12:10:24Z</time>
      </trkpt>
      <trkpt lat="47.88017" lon="-3.92261">
        <ele>16.9</ele>
        <time>2022-12-07T12:10:26Z</time>
      </trkpt>
      <trkpt lat="47.88021" lon="-3.92263">
        <ele>17</ele>
        <time>2022-12-07T12:10:27Z</time>
      </trkpt>
      <trkpt lat="47.88026" lon="-3.92263">
        <ele>17</ele>
        <time>2022-12-07T12:10:28Z</time>
      </trkpt>
      <trkpt lat="47.88034" lon="-3.92265">
        <ele>17.1</ele>
        <time>2022-12-07T12:10:30Z</time>
      </trkpt>
      <trkpt lat="47.88041" lon="-3.92269">
        <ele>17.1</ele>
        <time>2022-12-07T12:10:31Z</time>
      </trkpt>
      <trkpt lat="47.88048" lon="-3.92267">
        <ele>17.2</ele>
        <time>2022-12-07T12:10:33Z</time>
      </trkpt>
      <trkpt lat="47.88053" lon="-3.92273">
        <ele>17.3</ele>
        <time>2022-12-07T12:10:34Z</time>
      </trkpt>
      <trkpt lat="47.88057" lon="-3.92281">
        <ele>17.4</ele>
        <time>2022-12-07T12:10:35Z</time>
      </trkpt>
      <trkpt lat="47.8806" lon="-3.92287">
        <ele>17.5</ele>
        <time>2022-12-07T12:10:36Z</time>
      </trkpt>
      <trkpt lat="47.88063" lon="-3.92292">
        <ele>17.7</ele>
        <time>2022-12-07T12:10:37Z</time>
      </trkpt>
      <trkpt lat="47.88066" lon="-3.923">
        <ele>18</ele>
        <time>2022-12-07T12:10:38Z</time>
      </trkpt>
      <trkpt lat="47.88069" lon="-3.92305">
        <ele>18.3</ele>
        <time>2022-12-07T12:10:39Z</time>
      </trkpt>
      <trkpt lat="47.88072" lon="-3.92309">
        <ele>18.6</ele>
        <time>2022-12-07T12:10:40Z</time>
      </trkpt>
      <trkpt lat="47.88074" lon="-3.92311">
        <ele>18.7</ele>
        <time>2022-12-07T12:10:41Z</time>
      </trkpt>
      <trkpt lat="47.88075" lon="-3.92311">
        <ele>18.8</ele>
        <time>2022-12-07T12:10:42Z</time>
      </trkpt>
      <trkpt lat="47.88077" lon="-3.92317">
        <ele>19.1</ele>
        <time>2022-12-07T12:10:43Z</time>
      </trkpt>
      <trkpt lat="47.88078" lon="-3.92321">
        <ele>19.3</ele>
        <time>2022-12-07T12:10:44Z</time>
      </trkpt>
      <trkpt lat="47.88079" lon="-3.92325">
        <ele>19.5</ele>
        <time>2022-12-07T12:10:45Z</time>
      </trkpt>
      <trkpt lat="47.88081" lon="-3.92334">
        <ele>19.8</ele>
        <time>2022-12-07T12:10:47Z</time>
      </trkpt>
      <trkpt lat="47.88082" lon="-3.92339">
        <ele>19.9</ele>
        <time>2022-12-07T12:10:48Z</time>
      </trkpt>
      <trkpt lat="47.88083" lon="-3.92344">
        <ele>20</ele>
        <time>2022-12-07T12:10:49Z</time>
      </trkpt>
      <trkpt lat="47.88084" lon="-3.92349">
        <ele>20.1</ele>
        <time>2022-12-07T12:10:50Z</time>
      </trkpt>
      <trkpt lat="47.88085" lon="-3.92354">
        <ele>20.1</ele>
        <time>2022-12-07T12:10:51Z</time>
      </trkpt>
      <trkpt lat="47.88086" lon="-3.92359">
        <ele>20.1</ele>
        <time>2022-12-07T12:10:52Z</time>
      </trkpt>
      <trkpt lat="47.88087" lon="-3.92364">
        <ele>20.1</ele>
        <time>2022-12-07T12:10:53Z</time>
      </trkpt>
      <trkpt lat="47.88088" lon="-3.92371">
        <ele>20</ele>
        <time>2022-12-07T12:10:54Z</time>
      </trkpt>
      <trkpt lat="47.88088" lon="-3.92378">
        <ele>19.9</ele>
        <time>2022-12-07T12:10:55Z</time>
      </trkpt>
      <trkpt lat="47.88089" lon="-3.92388">
        <ele>19.8</ele>
        <time>2022-12-07T12:10:57Z</time>
      </trkpt>
      <trkpt lat="47.88089" lon="-3.92394">
        <ele>19.6</ele>
        <time>2022-12-07T12:10:58Z</time>
      </trkpt>
      <trkpt lat="47.88091" lon="-3.92403">
        <ele>19.4</ele>
        <time>2022-12-07T12:10:59Z</time>
      </trkpt>
      <trkpt lat="47.88091" lon="-3.92413">
        <ele>19.1</ele>
        <time>2022-12-07T12:11:00Z</time>
      </trkpt>
      <trkpt lat="47.88091" lon="-3.92422">
        <ele>18.9</ele>
        <time>2022-12-07T12:11:01Z</time>
      </trkpt>
      <trkpt lat="47.88092" lon="-3.9243">
        <ele>18.7</ele>
        <time>2022-12-07T12:11:02Z</time>
      </trkpt>
      <trkpt lat="47.88093" lon="-3.92439">
        <ele>18.4</ele>
        <time>2022-12-07T12:11:03Z</time>
      </trkpt>
      <trkpt lat="47.88093" lon="-3.92447">
        <ele>18.2</ele>
        <time>2022-12-07T12:11:04Z</time>
      </trkpt>
      <trkpt lat="47.88094" lon="-3.92456">
        <ele>18</ele>
        <time>2022-12-07T12:11:05Z</time>
      </trkpt>
      <trkpt lat="47.88094" lon="-3.92464">
        <ele>17.8</ele>
        <time>2022-12-07T12:11:06Z</time>
      </trkpt>
      <trkpt lat="47.88095" lon="-3.92474">
        <ele>17.5</ele>
        <time>2022-12-07T12:11:07Z</time>
      </trkpt>
      <trkpt lat="47.88095" lon="-3.92483">
        <ele>17.2</ele>
        <time>2022-12-07T12:11:08Z</time>
      </trkpt>
      <trkpt lat="47.88095" lon="-3.92493">
        <ele>17</ele>
        <time>2022-12-07T12:11:09Z</time>
      </trkpt>
      <trkpt lat="47.88095" lon="-3.92503">
        <ele>16.6</ele>
        <time>2022-12-07T12:11:10Z</time>
      </trkpt>
      <trkpt lat="47.88094" lon="-3.92511">
        <ele>16.3</ele>
        <time>2022-12-07T12:11:11Z</time>
      </trkpt>
      <trkpt lat="47.88092" lon="-3.9252">
        <ele>16</ele>
        <time>2022-12-07T12:11:12Z</time>
      </trkpt>
      <trkpt lat="47.88092" lon="-3.9253">
        <ele>15.6</ele>
        <time>2022-12-07T12:11:13Z</time>
      </trkpt>
      <trkpt lat="47.88091" lon="-3.92541">
        <ele>15.2</ele>
        <time>2022-12-07T12:11:14Z</time>
      </trkpt>
      <trkpt lat="47.88091" lon="-3.92552">
        <ele>14.7</ele>
        <time>2022-12-07T12:11:15Z</time>
      </trkpt>
      <trkpt lat="47.88091" lon="-3.92562">
        <ele>14.3</ele>
        <time>2022-12-07T12:11:16Z</time>
      </trkpt>
      <trkpt lat="47.88091" lon="-3.92571">
        <ele>13.9</ele>
        <time>2022-12-07T12:11:17Z</time>
      </trkpt>
      <trkpt lat="47.8809" lon="-3.9258">
        <ele>13.5</ele>
        <time>2022-12-07T12:11:18Z</time>
      </trkpt>
      <trkpt lat="47.88091" lon="-3.9259">
        <ele>13.1</ele>
        <time>2022-12-07T12:11:19Z</time>
      </trkpt>
      <trkpt lat="47.88092" lon="-3.92599">
        <ele>12.6</ele>
        <time>2022-12-07T12:11:20Z</time>
      </trkpt>
      <trkpt lat="47.88094" lon="-3.92609">
        <ele>12</ele>
        <time>2022-12-07T12:11:21Z</time>
      </trkpt>
      <trkpt lat="47.88095" lon="-3.9262">
        <ele>11.4</ele>
        <time>2022-12-07T12:11:22Z</time>
      </trkpt>
      <trkpt lat="47.88097" lon="-3.92632">
        <ele>10.6</ele>
        <time>2022-12-07T12:11:23Z</time>
      </trkpt>
      <trkpt lat="47.88098" lon="-3.92644">
        <ele>9.9</ele>
        <time>2022-12-07T12:11:24Z</time>
      </trkpt>
      <trkpt lat="47.881" lon="-3.92657">
        <ele>9.3</ele>
        <time>2022-12-07T12:11:25Z</time>
      </trkpt>
      <trkpt lat="47.88102" lon="-3.9267">
        <ele>9.1</ele>
        <time>2022-12-07T12:11:26Z</time>
      </trkpt>
      <trkpt lat="47.88104" lon="-3.92683">
        <ele>9</ele>
        <time>2022-12-07T12:11:27Z</time>
      </trkpt>
      <trkpt lat="47.88108" lon="-3.92694">
        <ele>8.9</ele>
        <time>2022-12-07T12:11:28Z</time>
      </trkpt>
      <trkpt lat="47.88112" lon="-3.92703">
        <ele>9</ele>
        <time>2022-12-07T12:11:29Z</time>
      </trkpt>
      <trkpt lat="47.88117" lon="-3.9271">
        <ele>9.1</ele>
        <time>2022-12-07T12:11:30Z</time>
      </trkpt>
      <trkpt lat="47.88121" lon="-3.92717">
        <ele>9.4</ele>
        <time>2022-12-07T12:11:31Z</time>
      </trkpt>
      <trkpt lat="47.88126" lon="-3.92723">
        <ele>9.7</ele>
        <time>2022-12-07T12:11:32Z</time>
      </trkpt>
      <trkpt lat="47.88131" lon="-3.92728">
        <ele>10.2</ele>
        <time>2022-12-07T12:11:33Z</time>
      </trkpt>
      <trkpt lat="47.88135" lon="-3.92729">
        <ele>10.6</ele>
        <time>2022-12-07T12:11:34Z</time>
      </trkpt>
      <trkpt lat="47.88138" lon="-3.9273">
        <ele>10.9</ele>
        <time>2022-12-07T12:11:35Z</time>
      </trkpt>
      <trkpt lat="47.8814" lon="-3.92729">
        <ele>11.2</ele>
        <time>2022-12-07T12:11:36Z</time>
      </trkpt>
      <trkpt lat="47.88141" lon="-3.92728">
        <ele>11.3</ele>
        <time>2022-12-07T12:11:37Z</time>
      </trkpt>
      <trkpt lat="47.88144" lon="-3.92726">
        <ele>11.6</ele>
        <time>2022-12-07T12:11:38Z</time>
      </trkpt>
      <trkpt lat="47.88147" lon="-3.92723">
        <ele>11.8</ele>
        <time>2022-12-07T12:11:39Z</time>
      </trkpt>
      <trkpt lat="47.88148" lon="-3.92722">
        <ele>11.9</ele>
        <time>2022-12-07T12:11:40Z</time>
      </trkpt>
      <trkpt lat="47.88151" lon="-3.92719">
        <ele>12.1</ele>
        <time>2022-12-07T12:11:41Z</time>
      </trkpt>
      <trkpt lat="47.88155" lon="-3.92715">
        <ele>12.3</ele>
        <time>2022-12-07T12:11:42Z</time>
      </trkpt>
      <trkpt lat="47.88159" lon="-3.92711">
        <ele>12.5</ele>
        <time>2022-12-07T12:11:43Z</time>
      </trkpt>
      <trkpt lat="47.88164" lon="-3.92708">
        <ele>12.7</ele>
        <time>2022-12-07T12:11:44Z</time>
      </trkpt>
      <trkpt lat="47.88166" lon="-3.92705">
        <ele>12.9</ele>
        <time>2022-12-07T12:11:45Z</time>
      </trkpt>
      <trkpt lat="47.8817" lon="-3.92702">
        <ele>13.1</ele>
        <time>2022-12-07T12:11:47Z</time>
      </trkpt>
      <trkpt lat="47.88172" lon="-3.92697">
        <ele>13.3</ele>
        <time>2022-12-07T12:11:48Z</time>
      </trkpt>
      <trkpt lat="47.88177" lon="-3.92692">
        <ele>13.5</ele>
        <time>2022-12-07T12:11:49Z</time>
      </trkpt>
      <trkpt lat="47.88181" lon="-3.92689">
        <ele>13.7</ele>
        <time>2022-12-07T12:11:51Z</time>
      </trkpt>
      <trkpt lat="47.88185" lon="-3.92684">
        <ele>13.8</ele>
        <time>2022-12-07T12:11:52Z</time>
      </trkpt>
      <trkpt lat="47.88188" lon="-3.9268">
        <ele>14</ele>
        <time>2022-12-07T12:11:53Z</time>
      </trkpt>
      <trkpt lat="47.8819" lon="-3.92676">
        <ele>14.1</ele>
        <time>2022-12-07T12:11:54Z</time>
      </trkpt>
      <trkpt lat="47.88193" lon="-3.92672">
        <ele>14.2</ele>
        <time>2022-12-07T12:11:55Z</time>
      </trkpt>
      <trkpt lat="47.88196" lon="-3.92668">
        <ele>14.4</ele>
        <time>2022-12-07T12:11:56Z</time>
      </trkpt>
      <trkpt lat="47.88198" lon="-3.92664">
        <ele>14.5</ele>
        <time>2022-12-07T12:11:57Z</time>
      </trkpt>
      <trkpt lat="47.88202" lon="-3.92659">
        <ele>14.7</ele>
        <time>2022-12-07T12:11:59Z</time>
      </trkpt>
      <trkpt lat="47.88205" lon="-3.92655">
        <ele>14.8</ele>
        <time>2022-12-07T12:12:00Z</time>
      </trkpt>
      <trkpt lat="47.88208" lon="-3.92651">
        <ele>14.9</ele>
        <time>2022-12-07T12:12:01Z</time>
      </trkpt>
      <trkpt lat="47.88211" lon="-3.92648">
        <ele>15.1</ele>
        <time>2022-12-07T12:12:02Z</time>
      </trkpt>
      <trkpt lat="47.88214" lon="-3.92644">
        <ele>15.2</ele>
        <time>2022-12-07T12:12:03Z</time>
      </trkpt>
      <trkpt lat="47.88217" lon="-3.92641">
        <ele>15.4</ele>
        <time>2022-12-07T12:12:04Z</time>
      </trkpt>
      <trkpt lat="47.8822" lon="-3.92637">
        <ele>15.5</ele>
        <time>2022-12-07T12:12:06Z</time>
      </trkpt>
      <trkpt lat="47.88224" lon="-3.92635">
        <ele>15.7</ele>
        <time>2022-12-07T12:12:07Z</time>
      </trkpt>
      <trkpt lat="47.88225" lon="-3.92634">
        <ele>15.8</ele>
        <time>2022-12-07T12:12:08Z</time>
      </trkpt>
      <trkpt lat="47.88228" lon="-3.92634">
        <ele>15.9</ele>
        <time>2022-12-07T12:12:09Z</time>
      </trkpt>
      <trkpt lat="47.88231" lon="-3.92632">
        <ele>16.1</ele>
        <time>2022-12-07T12:12:10Z</time>
      </trkpt>
      <trkpt lat="47.88232" lon="-3.92632">
        <ele>16.1</ele>
        <time>2022-12-07T12:12:11Z</time>
      </trkpt>
      <trkpt lat="47.88233" lon="-3.92627">
        <ele>16.3</ele>
        <time>2022-12-07T12:12:12Z</time>
      </trkpt>
      <trkpt lat="47.88234" lon="-3.92626">
        <ele>16.3</ele>
        <time>2022-12-07T12:12:13Z</time>
      </trkpt>
      <trkpt lat="47.88235" lon="-3.92622">
        <ele>16.5</ele>
        <time>2022-12-07T12:12:14Z</time>
      </trkpt>
      <trkpt lat="47.88239" lon="-3.92615">
        <ele>16.9</ele>
        <time>2022-12-07T12:12:15Z</time>
      </trkpt>
      <trkpt lat="47.88244" lon="-3.92612">
        <ele>17.2</ele>
        <time>2022-12-07T12:12:16Z</time>
      </trkpt>
      <trkpt lat="47.88247" lon="-3.9261">
        <ele>17.4</ele>
        <time>2022-12-07T12:12:17Z</time>
      </trkpt>
      <trkpt lat="47.88248" lon="-3.92607">
        <ele>17.5</ele>
        <time>2022-12-07T12:12:18Z</time>
      </trkpt>
      <trkpt lat="47.88249" lon="-3.92606">
        <ele>17.5</ele>
        <time>2022-12-07T12:12:19Z</time>
      </trkpt>
      <trkpt lat="47.88252" lon="-3.92602">
        <ele>17.4</ele>
        <time>2022-12-07T12:12:20Z</time>
      </trkpt>
      <trkpt lat="47.88257" lon="-3.92599">
        <ele>17.4</ele>
        <time>2022-12-07T12:12:21Z</time>
      </trkpt>
      <trkpt lat="47.8826" lon="-3.92597">
        <ele>17.3</ele>
        <time>2022-12-07T12:12:22Z</time>
      </trkpt>
      <trkpt lat="47.88262" lon="-3.92594">
        <ele>17.3</ele>
        <time>2022-12-07T12:12:23Z</time>
      </trkpt>
      <trkpt lat="47.88263" lon="-3.92593">
        <ele>17.3</ele>
        <time>2022-12-07T12:12:24Z</time>
      </trkpt>
      <trkpt lat="47.88267" lon="-3.92589">
        <ele>17.2</ele>
        <time>2022-12-07T12:12:25Z</time>
      </trkpt>
      <trkpt lat="47.88269" lon="-3.92588">
        <ele>17.2</ele>
        <time>2022-12-07T12:12:26Z</time>
      </trkpt>
      <trkpt lat="47.88273" lon="-3.92588">
        <ele>17.1</ele>
        <time>2022-12-07T12:12:28Z</time>
      </trkpt>
      <trkpt lat="47.88278" lon="-3.92589">
        <ele>17</ele>
        <time>2022-12-07T12:12:29Z</time>
      </trkpt>
      <trkpt lat="47.8828" lon="-3.9259">
        <ele>17</ele>
        <time>2022-12-07T12:12:30Z</time>
      </trkpt>
      <trkpt lat="47.88284" lon="-3.9259">
        <ele>17</ele>
        <time>2022-12-07T12:12:31Z</time>
      </trkpt>
      <trkpt lat="47.88287" lon="-3.92589">
        <ele>17</ele>
        <time>2022-12-07T12:12:32Z</time>
      </trkpt>
      <trkpt lat="47.8829" lon="-3.92586">
        <ele>17</ele>
        <time>2022-12-07T12:12:33Z</time>
      </trkpt>
      <trkpt lat="47.88293" lon="-3.92584">
        <ele>17.1</ele>
        <time>2022-12-07T12:12:34Z</time>
      </trkpt>
      <trkpt lat="47.88296" lon="-3.92582">
        <ele>17.1</ele>
        <time>2022-12-07T12:12:35Z</time>
      </trkpt>
      <trkpt lat="47.883" lon="-3.92581">
        <ele>17.2</ele>
        <time>2022-12-07T12:12:37Z</time>
      </trkpt>
      <trkpt lat="47.88303" lon="-3.9258">
        <ele>17.3</ele>
        <time>2022-12-07T12:12:38Z</time>
      </trkpt>
      <trkpt lat="47.88307" lon="-3.9258">
        <ele>17.5</ele>
        <time>2022-12-07T12:12:39Z</time>
      </trkpt>
      <trkpt lat="47.88308" lon="-3.92581">
        <ele>17.5</ele>
        <time>2022-12-07T12:12:40Z</time>
      </trkpt>
      <trkpt lat="47.88312" lon="-3.92582">
        <ele>17.7</ele>
        <time>2022-12-07T12:12:41Z</time>
      </trkpt>
      <trkpt lat="47.88318" lon="-3.92583">
        <ele>18.1</ele>
        <time>2022-12-07T12:12:43Z</time>
      </trkpt>
      <trkpt lat="47.88319" lon="-3.92583">
        <ele>18.2</ele>
        <time>2022-12-07T12:12:44Z</time>
      </trkpt>
      <trkpt lat="47.88321" lon="-3.92584">
        <ele>18.3</ele>
        <time>2022-12-07T12:12:45Z</time>
      </trkpt>
      <trkpt lat="47.88323" lon="-3.92584">
        <ele>18.4</ele>
        <time>2022-12-07T12:12:46Z</time>
      </trkpt>
      <trkpt lat="47.88326" lon="-3.92586">
        <ele>18.7</ele>
        <time>2022-12-07T12:12:48Z</time>
      </trkpt>
      <trkpt lat="47.88329" lon="-3.92587">
        <ele>18.9</ele>
        <time>2022-12-07T12:12:49Z</time>
      </trkpt>
      <trkpt lat="47.8833" lon="-3.92588">
        <ele>19</ele>
        <time>2022-12-07T12:12:50Z</time>
      </trkpt>
      <trkpt lat="47.88333" lon="-3.92587">
        <ele>19.3</ele>
        <time>2022-12-07T12:12:51Z</time>
      </trkpt>
      <trkpt lat="47.88333" lon="-3.92586">
        <ele>19.3</ele>
        <time>2022-12-07T12:12:52Z</time>
      </trkpt>
      <trkpt lat="47.88334" lon="-3.92583">
        <ele>19.5</ele>
        <time>2022-12-07T12:12:53Z</time>
      </trkpt>
      <trkpt lat="47.88334" lon="-3.92582">
        <ele>19.6</ele>
        <time>2022-12-07T12:12:54Z</time>
      </trkpt>
      <trkpt lat="47.88334" lon="-3.9258">
        <ele>19.7</ele>
        <time>2022-12-07T12:12:55Z</time>
      </trkpt>
      <trkpt lat="47.88334" lon="-3.92578">
        <ele>19.8</ele>
        <time>2022-12-07T12:12:56Z</time>
      </trkpt>
      <trkpt lat="47.88335" lon="-3.92574">
        <ele>20</ele>
        <time>2022-12-07T12:12:58Z</time>
      </trkpt>
      <trkpt lat="47.88335" lon="-3.92573">
        <ele>20.1</ele>
        <time>2022-12-07T12:12:59Z</time>
      </trkpt>
      <trkpt lat="47.88336" lon="-3.9257">
        <ele>20.2</ele>
        <time>2022-12-07T12:13:00Z</time>
      </trkpt>
      <trkpt lat="47.88336" lon="-3.92565">
        <ele>20.4</ele>
        <time>2022-12-07T12:13:01Z</time>
      </trkpt>
      <trkpt lat="47.88335" lon="-3.92561">
        <ele>20.6</ele>
        <time>2022-12-07T12:13:03Z</time>
      </trkpt>
      <trkpt lat="47.88336" lon="-3.92556">
        <ele>20.7</ele>
        <time>2022-12-07T12:13:04Z</time>
      </trkpt>
      <trkpt lat="47.88335" lon="-3.92553">
        <ele>20.8</ele>
        <time>2022-12-07T12:13:05Z</time>
      </trkpt>
      <trkpt lat="47.88334" lon="-3.92551">
        <ele>20.9</ele>
        <time>2022-12-07T12:13:06Z</time>
      </trkpt>
      <trkpt lat="47.88333" lon="-3.92547">
        <ele>20.9</ele>
        <time>2022-12-07T12:13:07Z</time>
      </trkpt>
      <trkpt lat="47.88333" lon="-3.92545">
        <ele>20.9</ele>
        <time>2022-12-07T12:13:08Z</time>
      </trkpt>
      <trkpt lat="47.88333" lon="-3.92539">
        <ele>21</ele>
        <time>2022-12-07T12:13:10Z</time>
      </trkpt>
      <trkpt lat="47.88332" lon="-3.92535">
        <ele>20.9</ele>
        <time>2022-12-07T12:13:11Z</time>
      </trkpt>
      <trkpt lat="47.88332" lon="-3.9253">
        <ele>20.9</ele>
        <time>2022-12-07T12:13:12Z</time>
      </trkpt>
      <trkpt lat="47.8833" lon="-3.92524">
        <ele>20.8</ele>
        <time>2022-12-07T12:13:13Z</time>
      </trkpt>
      <trkpt lat="47.88329" lon="-3.92521">
        <ele>20.8</ele>
        <time>2022-12-07T12:13:14Z</time>
      </trkpt>
      <trkpt lat="47.88326" lon="-3.92519">
        <ele>20.7</ele>
        <time>2022-12-07T12:13:15Z</time>
      </trkpt>
      <trkpt lat="47.88322" lon="-3.9252">
        <ele>20.6</ele>
        <time>2022-12-07T12:13:17Z</time>
      </trkpt>
      <trkpt lat="47.88321" lon="-3.9252">
        <ele>20.6</ele>
        <time>2022-12-07T12:13:18Z</time>
      </trkpt>
      <trkpt lat="47.88318" lon="-3.92522">
        <ele>20.5</ele>
        <time>2022-12-07T12:13:19Z</time>
      </trkpt>
      <trkpt lat="47.88315" lon="-3.92523">
        <ele>20.4</ele>
        <time>2022-12-07T12:13:20Z</time>
      </trkpt>
      <trkpt lat="47.88314" lon="-3.92523">
        <ele>20.3</ele>
        <time>2022-12-07T12:13:21Z</time>
      </trkpt>
      <trkpt lat="47.88312" lon="-3.92525">
        <ele>20.2</ele>
        <time>2022-12-07T12:13:22Z</time>
      </trkpt>
      <trkpt lat="47.88308" lon="-3.92529">
        <ele>19.9</ele>
        <time>2022-12-07T12:13:23Z</time>
      </trkpt>
      <trkpt lat="47.883" lon="-3.92534">
        <ele>19.3</ele>
        <time>2022-12-07T12:13:24Z</time>
      </trkpt>
      <trkpt lat="47.88294" lon="-3.92536">
        <ele>18.9</ele>
        <time>2022-12-07T12:13:25Z</time>
      </trkpt>
      <trkpt lat="47.88287" lon="-3.92539">
        <ele>18.3</ele>
        <time>2022-12-07T12:13:26Z</time>
      </trkpt>
      <trkpt lat="47.88279" lon="-3.92542">
        <ele>17.6</ele>
        <time>2022-12-07T12:13:27Z</time>
      </trkpt>
      <trkpt lat="47.8827" lon="-3.92544">
        <ele>16.9</ele>
        <time>2022-12-07T12:13:28Z</time>
      </trkpt>
      <trkpt lat="47.88263" lon="-3.92546">
        <ele>16.4</ele>
        <time>2022-12-07T12:13:29Z</time>
      </trkpt>
      <trkpt lat="47.88258" lon="-3.92548">
        <ele>16</ele>
        <time>2022-12-07T12:13:30Z</time>
      </trkpt>
      <trkpt lat="47.88251" lon="-3.9255">
        <ele>15.7</ele>
        <time>2022-12-07T12:13:31Z</time>
      </trkpt>
      <trkpt lat="47.88245" lon="-3.92552">
        <ele>15.4</ele>
        <time>2022-12-07T12:13:32Z</time>
      </trkpt>
      <trkpt lat="47.88239" lon="-3.92554">
        <ele>15.1</ele>
        <time>2022-12-07T12:13:33Z</time>
      </trkpt>
      <trkpt lat="47.88233" lon="-3.92558">
        <ele>14.9</ele>
        <time>2022-12-07T12:13:34Z</time>
      </trkpt>
      <trkpt lat="47.88228" lon="-3.92563">
        <ele>14.6</ele>
        <time>2022-12-07T12:13:35Z</time>
      </trkpt>
      <trkpt lat="47.88224" lon="-3.9257">
        <ele>14.3</ele>
        <time>2022-12-07T12:13:36Z</time>
      </trkpt>
      <trkpt lat="47.88219" lon="-3.92576">
        <ele>14.1</ele>
        <time>2022-12-07T12:13:37Z</time>
      </trkpt>
      <trkpt lat="47.88215" lon="-3.92582">
        <ele>13.9</ele>
        <time>2022-12-07T12:13:38Z</time>
      </trkpt>
      <trkpt lat="47.88209" lon="-3.92589">
        <ele>13.7</ele>
        <time>2022-12-07T12:13:39Z</time>
      </trkpt>
      <trkpt lat="47.88205" lon="-3.92595">
        <ele>13.6</ele>
        <time>2022-12-07T12:13:40Z</time>
      </trkpt>
      <trkpt lat="47.88201" lon="-3.92597">
        <ele>13.5</ele>
        <time>2022-12-07T12:13:41Z</time>
      </trkpt>
      <trkpt lat="47.88197" lon="-3.92597">
        <ele>13.5</ele>
        <time>2022-12-07T12:13:42Z</time>
      </trkpt>
      <trkpt lat="47.88194" lon="-3.92598">
        <ele>13.5</ele>
        <time>2022-12-07T12:13:43Z</time>
      </trkpt>
      <trkpt lat="47.88193" lon="-3.92598">
        <ele>13.5</ele>
        <time>2022-12-07T12:13:44Z</time>
      </trkpt>
      <trkpt lat="47.88191" lon="-3.926">
        <ele>13.5</ele>
        <time>2022-12-07T12:13:45Z</time>
      </trkpt>
      <trkpt lat="47.8819" lon="-3.92601">
        <ele>13.5</ele>
        <time>2022-12-07T12:13:46Z</time>
      </trkpt>
      <trkpt lat="47.88189" lon="-3.92602">
        <ele>13.5</ele>
        <time>2022-12-07T12:13:47Z</time>
      </trkpt>
      <trkpt lat="47.88188" lon="-3.92603">
        <ele>13.5</ele>
        <time>2022-12-07T12:13:48Z</time>
      </trkpt>
      <trkpt lat="47.88185" lon="-3.92608">
        <ele>13.6</ele>
        <time>2022-12-07T12:13:50Z</time>
      </trkpt>
      <trkpt lat="47.88181" lon="-3.92611">
        <ele>13.8</ele>
        <time>2022-12-07T12:13:51Z</time>
      </trkpt>
      <trkpt lat="47.8818" lon="-3.92612">
        <ele>13.9</ele>
        <time>2022-12-07T12:13:52Z</time>
      </trkpt>
      <trkpt lat="47.88178" lon="-3.92612">
        <ele>14</ele>
        <time>2022-12-07T12:13:53Z</time>
      </trkpt>
      <trkpt lat="47.88176" lon="-3.92613">
        <ele>14.1</ele>
        <time>2022-12-07T12:13:54Z</time>
      </trkpt>
      <trkpt lat="47.88174" lon="-3.92613">
        <ele>14.1</ele>
        <time>2022-12-07T12:13:56Z</time>
      </trkpt>
      <trkpt lat="47.88172" lon="-3.92614">
        <ele>14.3</ele>
        <time>2022-12-07T12:13:57Z</time>
      </trkpt>
      <trkpt lat="47.88171" lon="-3.92615">
        <ele>14.3</ele>
        <time>2022-12-07T12:13:58Z</time>
      </trkpt>
      <trkpt lat="47.88168" lon="-3.92615">
        <ele>14.5</ele>
        <time>2022-12-07T12:13:59Z</time>
      </trkpt>
      <trkpt lat="47.88166" lon="-3.92615">
        <ele>14.6</ele>
        <time>2022-12-07T12:14:00Z</time>
      </trkpt>
      <trkpt lat="47.88165" lon="-3.92615">
        <ele>14.7</ele>
        <time>2022-12-07T12:14:01Z</time>
      </trkpt>
      <trkpt lat="47.88163" lon="-3.92615">
        <ele>14.9</ele>
        <time>2022-12-07T12:14:03Z</time>
      </trkpt>
      <trkpt lat="47.88161" lon="-3.92615">
        <ele>15</ele>
        <time>2022-12-07T12:14:04Z</time>
      </trkpt>
      <trkpt lat="47.88159" lon="-3.92616">
        <ele>15.1</ele>
        <time>2022-12-07T12:14:05Z</time>
      </trkpt>
      <trkpt lat="47.88157" lon="-3.92618">
        <ele>15.3</ele>
        <time>2022-12-07T12:14:06Z</time>
      </trkpt>
      <trkpt lat="47.88156" lon="-3.92619">
        <ele>15.7</ele>
        <time>2022-12-07T12:14:07Z</time>
      </trkpt>
      <trkpt lat="47.88152" lon="-3.92619">
        <ele>16.1</ele>
        <time>2022-12-07T12:14:08Z</time>
      </trkpt>
      <trkpt lat="47.8815" lon="-3.92617">
        <ele>16.5</ele>
        <time>2022-12-07T12:14:09Z</time>
      </trkpt>
      <trkpt lat="47.88148" lon="-3.92614">
        <ele>16.9</ele>
        <time>2022-12-07T12:14:11Z</time>
      </trkpt>
      <trkpt lat="47.88149" lon="-3.92612">
        <ele>17.3</ele>
        <time>2022-12-07T12:14:12Z</time>
      </trkpt>
      <trkpt lat="47.8815" lon="-3.9261">
        <ele>17.7</ele>
        <time>2022-12-07T12:14:13Z</time>
      </trkpt>
      <trkpt lat="47.88151" lon="-3.92608">
        <ele>18.1</ele>
        <time>2022-12-07T12:14:14Z</time>
      </trkpt>
      <trkpt lat="47.88153" lon="-3.92606">
        <ele>19.3</ele>
        <time>2022-12-07T12:14:15Z</time>
      </trkpt>
      <trkpt lat="47.88153" lon="-3.92605">
        <ele>19.7</ele>
        <time>2022-12-07T12:14:16Z</time>
      </trkpt>
      <trkpt lat="47.88153" lon="-3.92603">
        <ele>20.1</ele>
        <time>2022-12-07T12:14:17Z</time>
      </trkpt>
      <trkpt lat="47.88154" lon="-3.92601">
        <ele>20.5</ele>
        <time>2022-12-07T12:14:18Z</time>
      </trkpt>
      <trkpt lat="47.88153" lon="-3.92599">
        <ele>20.9</ele>
        <time>2022-12-07T12:14:19Z</time>
      </trkpt>
      <trkpt lat="47.88154" lon="-3.92596">
        <ele>21.3</ele>
        <time>2022-12-07T12:14:20Z</time>
      </trkpt>
      <trkpt lat="47.88155" lon="-3.92594">
        <ele>21.7</ele>
        <time>2022-12-07T12:14:21Z</time>
      </trkpt>
      <trkpt lat="47.88157" lon="-3.92592">
        <ele>22.1</ele>
        <time>2022-12-07T12:14:22Z</time>
      </trkpt>
      <trkpt lat="47.88158" lon="-3.92591">
        <ele>22.2</ele>
        <time>2022-12-07T12:14:23Z</time>
      </trkpt>
      <trkpt lat="47.88163" lon="-3.9259">
        <ele>22.5</ele>
        <time>2022-12-07T12:14:25Z</time>
      </trkpt>
      <trkpt lat="47.88164" lon="-3.92589">
        <ele>22.6</ele>
        <time>2022-12-07T12:14:26Z</time>
      </trkpt>
      <trkpt lat="47.88166" lon="-3.92588">
        <ele>22.6</ele>
        <time>2022-12-07T12:14:27Z</time>
      </trkpt>
      <trkpt lat="47.8817" lon="-3.92584">
        <ele>22.9</ele>
        <time>2022-12-07T12:14:29Z</time>
      </trkpt>
      <trkpt lat="47.88171" lon="-3.92582">
        <ele>22.9</ele>
        <time>2022-12-07T12:14:30Z</time>
      </trkpt>
      <trkpt lat="47.88172" lon="-3.9258">
        <ele>23</ele>
        <time>2022-12-07T12:14:31Z</time>
      </trkpt>
      <trkpt lat="47.88174" lon="-3.92577">
        <ele>23.1</ele>
        <time>2022-12-07T12:14:32Z</time>
      </trkpt>
      <trkpt lat="47.88177" lon="-3.92574">
        <ele>23.1</ele>
        <time>2022-12-07T12:14:33Z</time>
      </trkpt>
      <trkpt lat="47.8818" lon="-3.92573">
        <ele>23.2</ele>
        <time>2022-12-07T12:14:34Z</time>
      </trkpt>
      <trkpt lat="47.88181" lon="-3.92572">
        <ele>23.3</ele>
        <time>2022-12-07T12:14:35Z</time>
      </trkpt>
      <trkpt lat="47.88184" lon="-3.92569">
        <ele>23.3</ele>
        <time>2022-12-07T12:14:36Z</time>
      </trkpt>
      <trkpt lat="47.88186" lon="-3.92566">
        <ele>23.4</ele>
        <time>2022-12-07T12:14:37Z</time>
      </trkpt>
      <trkpt lat="47.88187" lon="-3.92566">
        <ele>23.4</ele>
        <time>2022-12-07T12:14:38Z</time>
      </trkpt>
      <trkpt lat="47.88189" lon="-3.92563">
        <ele>23.4</ele>
        <time>2022-12-07T12:14:39Z</time>
      </trkpt>
      <trkpt lat="47.88193" lon="-3.9256">
        <ele>23.5</ele>
        <time>2022-12-07T12:14:40Z</time>
      </trkpt>
      <trkpt lat="47.88194" lon="-3.92558">
        <ele>23.5</ele>
        <time>2022-12-07T12:14:41Z</time>
      </trkpt>
      <trkpt lat="47.88196" lon="-3.92555">
        <ele>23.5</ele>
        <time>2022-12-07T12:14:42Z</time>
      </trkpt>
      <trkpt lat="47.882" lon="-3.9255">
        <ele>23.6</ele>
        <time>2022-12-07T12:14:43Z</time>
      </trkpt>
      <trkpt lat="47.88203" lon="-3.92546">
        <ele>23.6</ele>
        <time>2022-12-07T12:14:44Z</time>
      </trkpt>
      <trkpt lat="47.88205" lon="-3.92543">
        <ele>23.7</ele>
        <time>2022-12-07T12:14:45Z</time>
      </trkpt>
      <trkpt lat="47.88208" lon="-3.9254">
        <ele>23.8</ele>
        <time>2022-12-07T12:14:46Z</time>
      </trkpt>
      <trkpt lat="47.88209" lon="-3.9254">
        <ele>23.8</ele>
        <time>2022-12-07T12:14:47Z</time>
      </trkpt>
      <trkpt lat="47.88213" lon="-3.92537">
        <ele>23.9</ele>
        <time>2022-12-07T12:14:48Z</time>
      </trkpt>
      <trkpt lat="47.88215" lon="-3.92535">
        <ele>24</ele>
        <time>2022-12-07T12:14:49Z</time>
      </trkpt>
      <trkpt lat="47.88218" lon="-3.92531">
        <ele>24.1</ele>
        <time>2022-12-07T12:14:50Z</time>
      </trkpt>
      <trkpt lat="47.88221" lon="-3.92527">
        <ele>24.3</ele>
        <time>2022-12-07T12:14:51Z</time>
      </trkpt>
      <trkpt lat="47.88224" lon="-3.92525">
        <ele>24.4</ele>
        <time>2022-12-07T12:14:52Z</time>
      </trkpt>
      <trkpt lat="47.88228" lon="-3.92525">
        <ele>24.6</ele>
        <time>2022-12-07T12:14:53Z</time>
      </trkpt>
      <trkpt lat="47.88231" lon="-3.92523">
        <ele>24.7</ele>
        <time>2022-12-07T12:14:54Z</time>
      </trkpt>
      <trkpt lat="47.88234" lon="-3.92522">
        <ele>24.9</ele>
        <time>2022-12-07T12:14:55Z</time>
      </trkpt>
      <trkpt lat="47.88237" lon="-3.9252">
        <ele>25</ele>
        <time>2022-12-07T12:14:56Z</time>
      </trkpt>
      <trkpt lat="47.8824" lon="-3.92519">
        <ele>25.2</ele>
        <time>2022-12-07T12:14:57Z</time>
      </trkpt>
      <trkpt lat="47.88243" lon="-3.92518">
        <ele>25.4</ele>
        <time>2022-12-07T12:14:58Z</time>
      </trkpt>
      <trkpt lat="47.88246" lon="-3.92517">
        <ele>25.6</ele>
        <time>2022-12-07T12:14:59Z</time>
      </trkpt>
      <trkpt lat="47.88249" lon="-3.92515">
        <ele>25.8</ele>
        <time>2022-12-07T12:15:00Z</time>
      </trkpt>
      <trkpt lat="47.88253" lon="-3.92513">
        <ele>26</ele>
        <time>2022-12-07T12:15:01Z</time>
      </trkpt>
      <trkpt lat="47.88256" lon="-3.92511">
        <ele>26.3</ele>
        <time>2022-12-07T12:15:02Z</time>
      </trkpt>
      <trkpt lat="47.8826" lon="-3.92509">
        <ele>26.5</ele>
        <time>2022-12-07T12:15:03Z</time>
      </trkpt>
      <trkpt lat="47.88263" lon="-3.92506">
        <ele>26.8</ele>
        <time>2022-12-07T12:15:05Z</time>
      </trkpt>
      <trkpt lat="47.88266" lon="-3.92504">
        <ele>26.9</ele>
        <time>2022-12-07T12:15:06Z</time>
      </trkpt>
      <trkpt lat="47.88268" lon="-3.92503">
        <ele>27.1</ele>
        <time>2022-12-07T12:15:07Z</time>
      </trkpt>
      <trkpt lat="47.88272" lon="-3.92501">
        <ele>27.3</ele>
        <time>2022-12-07T12:15:08Z</time>
      </trkpt>
      <trkpt lat="47.88273" lon="-3.925">
        <ele>27.3</ele>
        <time>2022-12-07T12:15:09Z</time>
      </trkpt>
      <trkpt lat="47.88275" lon="-3.925">
        <ele>27.4</ele>
        <time>2022-12-07T12:15:10Z</time>
      </trkpt>
      <trkpt lat="47.88278" lon="-3.92499">
        <ele>27.6</ele>
        <time>2022-12-07T12:15:11Z</time>
      </trkpt>
      <trkpt lat="47.88283" lon="-3.92497">
        <ele>27.8</ele>
        <time>2022-12-07T12:15:12Z</time>
      </trkpt>
      <trkpt lat="47.88287" lon="-3.92496">
        <ele>27.9</ele>
        <time>2022-12-07T12:15:13Z</time>
      </trkpt>
      <trkpt lat="47.88295" lon="-3.92492">
        <ele>28.4</ele>
        <time>2022-12-07T12:15:15Z</time>
      </trkpt>
      <trkpt lat="47.883" lon="-3.92489">
        <ele>28.7</ele>
        <time>2022-12-07T12:15:16Z</time>
      </trkpt>
      <trkpt lat="47.88302" lon="-3.92486">
        <ele>28.9</ele>
        <time>2022-12-07T12:15:17Z</time>
      </trkpt>
      <trkpt lat="47.88304" lon="-3.92484">
        <ele>29.1</ele>
        <time>2022-12-07T12:15:18Z</time>
      </trkpt>
      <trkpt lat="47.88307" lon="-3.92481">
        <ele>29.3</ele>
        <time>2022-12-07T12:15:19Z</time>
      </trkpt>
      <trkpt lat="47.88308" lon="-3.92481">
        <ele>29.4</ele>
        <time>2022-12-07T12:15:20Z</time>
      </trkpt>
      <trkpt lat="47.88311" lon="-3.9248">
        <ele>29.6</ele>
        <time>2022-12-07T12:15:21Z</time>
      </trkpt>
      <trkpt lat="47.88312" lon="-3.92479">
        <ele>29.6</ele>
        <time>2022-12-07T12:15:22Z</time>
      </trkpt>
      <trkpt lat="47.88315" lon="-3.92478">
        <ele>29.8</ele>
        <time>2022-12-07T12:15:23Z</time>
      </trkpt>
      <trkpt lat="47.88318" lon="-3.92477">
        <ele>29.9</ele>
        <time>2022-12-07T12:15:24Z</time>
      </trkpt>
      <trkpt lat="47.88321" lon="-3.92476">
        <ele>30</ele>
        <time>2022-12-07T12:15:25Z</time>
      </trkpt>
      <trkpt lat="47.88324" lon="-3.92474">
        <ele>30.1</ele>
        <time>2022-12-07T12:15:26Z</time>
      </trkpt>
      <trkpt lat="47.88327" lon="-3.92473">
        <ele>30.2</ele>
        <time>2022-12-07T12:15:27Z</time>
      </trkpt>
      <trkpt lat="47.8833" lon="-3.92471">
        <ele>30.3</ele>
        <time>2022-12-07T12:15:28Z</time>
      </trkpt>
      <trkpt lat="47.88332" lon="-3.92466">
        <ele>30.3</ele>
        <time>2022-12-07T12:15:29Z</time>
      </trkpt>
      <trkpt lat="47.88334" lon="-3.92462">
        <ele>30.4</ele>
        <time>2022-12-07T12:15:30Z</time>
      </trkpt>
      <trkpt lat="47.88335" lon="-3.92459">
        <ele>30.3</ele>
        <time>2022-12-07T12:15:31Z</time>
      </trkpt>
      <trkpt lat="47.88338" lon="-3.92458">
        <ele>30.2</ele>
        <time>2022-12-07T12:15:32Z</time>
      </trkpt>
      <trkpt lat="47.88339" lon="-3.92457">
        <ele>30.2</ele>
        <time>2022-12-07T12:15:33Z</time>
      </trkpt>
      <trkpt lat="47.88342" lon="-3.92459">
        <ele>29.9</ele>
        <time>2022-12-07T12:15:34Z</time>
      </trkpt>
      <trkpt lat="47.88344" lon="-3.92464">
        <ele>29.7</ele>
        <time>2022-12-07T12:15:35Z</time>
      </trkpt>
      <trkpt lat="47.88345" lon="-3.92472">
        <ele>29.4</ele>
        <time>2022-12-07T12:15:36Z</time>
      </trkpt>
      <trkpt lat="47.88347" lon="-3.92479">
        <ele>29.2</ele>
        <time>2022-12-07T12:15:37Z</time>
      </trkpt>
      <trkpt lat="47.8835" lon="-3.92486">
        <ele>28.9</ele>
        <time>2022-12-07T12:15:38Z</time>
      </trkpt>
      <trkpt lat="47.88352" lon="-3.92493">
        <ele>28.7</ele>
        <time>2022-12-07T12:15:39Z</time>
      </trkpt>
      <trkpt lat="47.88355" lon="-3.925">
        <ele>28.5</ele>
        <time>2022-12-07T12:15:40Z</time>
      </trkpt>
      <trkpt lat="47.88358" lon="-3.92508">
        <ele>28.3</ele>
        <time>2022-12-07T12:15:41Z</time>
      </trkpt>
      <trkpt lat="47.88361" lon="-3.92515">
        <ele>28.1</ele>
        <time>2022-12-07T12:15:42Z</time>
      </trkpt>
      <trkpt lat="47.88364" lon="-3.92523">
        <ele>28</ele>
        <time>2022-12-07T12:15:43Z</time>
      </trkpt>
      <trkpt lat="47.88367" lon="-3.92531">
        <ele>27.8</ele>
        <time>2022-12-07T12:15:44Z</time>
      </trkpt>
      <trkpt lat="47.8837" lon="-3.92539">
        <ele>27.7</ele>
        <time>2022-12-07T12:15:45Z</time>
      </trkpt>
      <trkpt lat="47.88372" lon="-3.92547">
        <ele>27.7</ele>
        <time>2022-12-07T12:15:46Z</time>
      </trkpt>
      <trkpt lat="47.88374" lon="-3.92554">
        <ele>27.7</ele>
        <time>2022-12-07T12:15:47Z</time>
      </trkpt>
      <trkpt lat="47.88376" lon="-3.92562">
        <ele>27.7</ele>
        <time>2022-12-07T12:15:48Z</time>
      </trkpt>
      <trkpt lat="47.88379" lon="-3.92567">
        <ele>27.7</ele>
        <time>2022-12-07T12:15:49Z</time>
      </trkpt>
      <trkpt lat="47.88382" lon="-3.92569">
        <ele>27.7</ele>
        <time>2022-12-07T12:15:50Z</time>
      </trkpt>
      <trkpt lat="47.88385" lon="-3.92569">
        <ele>27.6</ele>
        <time>2022-12-07T12:15:51Z</time>
      </trkpt>
      <trkpt lat="47.88389" lon="-3.92567">
        <ele>27.5</ele>
        <time>2022-12-07T12:15:52Z</time>
      </trkpt>
      <trkpt lat="47.88391" lon="-3.92567">
        <ele>27.5</ele>
        <time>2022-12-07T12:15:53Z</time>
      </trkpt>
      <trkpt lat="47.88394" lon="-3.92568">
        <ele>27.3</ele>
        <time>2022-12-07T12:15:54Z</time>
      </trkpt>
      <trkpt lat="47.88395" lon="-3.92568">
        <ele>27.3</ele>
        <time>2022-12-07T12:15:55Z</time>
      </trkpt>
      <trkpt lat="47.88398" lon="-3.9257">
        <ele>27.1</ele>
        <time>2022-12-07T12:15:56Z</time>
      </trkpt>
      <trkpt lat="47.88399" lon="-3.9257">
        <ele>27</ele>
        <time>2022-12-07T12:15:57Z</time>
      </trkpt>
      <trkpt lat="47.884" lon="-3.9257">
        <ele>26.9</ele>
        <time>2022-12-07T12:15:59Z</time>
      </trkpt>
      <trkpt lat="47.88401" lon="-3.9257">
        <ele>26.8</ele>
        <time>2022-12-07T12:16:00Z</time>
      </trkpt>
      <trkpt lat="47.88402" lon="-3.9257">
        <ele>26.7</ele>
        <time>2022-12-07T12:16:01Z</time>
      </trkpt>
      <trkpt lat="47.88405" lon="-3.92567">
        <ele>26.4</ele>
        <time>2022-12-07T12:16:02Z</time>
      </trkpt>
      <trkpt lat="47.88408" lon="-3.92563">
        <ele>26</ele>
        <time>2022-12-07T12:16:03Z</time>
      </trkpt>
      <trkpt lat="47.88416" lon="-3.92557">
        <ele>24.9</ele>
        <time>2022-12-07T12:16:05Z</time>
      </trkpt>
      <trkpt lat="47.88424" lon="-3.9255">
        <ele>23.8</ele>
        <time>2022-12-07T12:16:06Z</time>
      </trkpt>
      <trkpt lat="47.88431" lon="-3.92541">
        <ele>22.9</ele>
        <time>2022-12-07T12:16:07Z</time>
      </trkpt>
      <trkpt lat="47.8844" lon="-3.92534">
        <ele>22.3</ele>
        <time>2022-12-07T12:16:08Z</time>
      </trkpt>
      <trkpt lat="47.88448" lon="-3.92528">
        <ele>22</ele>
        <time>2022-12-07T12:16:09Z</time>
      </trkpt>
      <trkpt lat="47.88454" lon="-3.92522">
        <ele>21.9</ele>
        <time>2022-12-07T12:16:10Z</time>
      </trkpt>
      <trkpt lat="47.88461" lon="-3.92516">
        <ele>21.9</ele>
        <time>2022-12-07T12:16:11Z</time>
      </trkpt>
      <trkpt lat="47.88468" lon="-3.92511">
        <ele>21.9</ele>
        <time>2022-12-07T12:16:12Z</time>
      </trkpt>
      <trkpt lat="47.88475" lon="-3.92508">
        <ele>22.1</ele>
        <time>2022-12-07T12:16:13Z</time>
      </trkpt>
      <trkpt lat="47.88482" lon="-3.92506">
        <ele>22.4</ele>
        <time>2022-12-07T12:16:14Z</time>
      </trkpt>
      <trkpt lat="47.88488" lon="-3.92506">
        <ele>22.7</ele>
        <time>2022-12-07T12:16:15Z</time>
      </trkpt>
      <trkpt lat="47.88493" lon="-3.92506">
        <ele>22.9</ele>
        <time>2022-12-07T12:16:16Z</time>
      </trkpt>
      <trkpt lat="47.88496" lon="-3.92507">
        <ele>23</ele>
        <time>2022-12-07T12:16:17Z</time>
      </trkpt>
      <trkpt lat="47.88496" lon="-3.92508">
        <ele>23.1</ele>
        <time>2022-12-07T12:16:18Z</time>
      </trkpt>
      <trkpt lat="47.885" lon="-3.92509">
        <ele>23.3</ele>
        <time>2022-12-07T12:16:19Z</time>
      </trkpt>
      <trkpt lat="47.88504" lon="-3.92508">
        <ele>23.4</ele>
        <time>2022-12-07T12:16:20Z</time>
      </trkpt>
      <trkpt lat="47.88507" lon="-3.92507">
        <ele>23.6</ele>
        <time>2022-12-07T12:16:21Z</time>
      </trkpt>
      <trkpt lat="47.88508" lon="-3.92507">
        <ele>23.6</ele>
        <time>2022-12-07T12:16:22Z</time>
      </trkpt>
      <trkpt lat="47.8851" lon="-3.92508">
        <ele>23.6</ele>
        <time>2022-12-07T12:16:23Z</time>
      </trkpt>
      <trkpt lat="47.88511" lon="-3.92508">
        <ele>23.7</ele>
        <time>2022-12-07T12:16:24Z</time>
      </trkpt>
      <trkpt lat="47.88513" lon="-3.92509">
        <ele>23.7</ele>
        <time>2022-12-07T12:16:25Z</time>
      </trkpt>
      <trkpt lat="47.88513" lon="-3.92509">
        <ele>23.7</ele>
        <time>2022-12-07T12:16:26Z</time>
      </trkpt>
      <trkpt lat="47.88514" lon="-3.92509">
        <ele>23.8</ele>
        <time>2022-12-07T12:16:27Z</time>
      </trkpt>
      <trkpt lat="47.88514" lon="-3.92509">
        <ele>23.8</ele>
        <time>2022-12-07T12:16:28Z</time>
      </trkpt>
      <trkpt lat="47.88514" lon="-3.92509">
        <ele>23.8</ele>
        <time>2022-12-07T12:16:30Z</time>
      </trkpt>
      <trkpt lat="47.88515" lon="-3.92509">
        <ele>23.8</ele>
        <time>2022-12-07T12:16:31Z</time>
      </trkpt>
      <trkpt lat="47.88515" lon="-3.92508">
        <ele>23.8</ele>
        <time>2022-12-07T12:16:32Z</time>
      </trkpt>
      <trkpt lat="47.88516" lon="-3.92508">
        <ele>23.8</ele>
        <time>2022-12-07T12:16:34Z</time>
      </trkpt>
      <trkpt lat="47.88516" lon="-3.92508">
        <ele>23.8</ele>
        <time>2022-12-07T12:16:35Z</time>
      </trkpt>
      <trkpt lat="47.88517" lon="-3.92508">
        <ele>23.8</ele>
        <time>2022-12-07T12:16:36Z</time>
      </trkpt>
      <trkpt lat="47.88517" lon="-3.92508">
        <ele>23.8</ele>
        <time>2022-12-07T12:16:37Z</time>
      </trkpt>
      <trkpt lat="47.88517" lon="-3.92508">
        <ele>23.9</ele>
        <time>2022-12-07T12:16:48Z</time>
      </trkpt>
      <trkpt lat="47.88518" lon="-3.92508">
        <ele>23.9</ele>
        <time>2022-12-07T12:16:49Z</time>
      </trkpt>
      <trkpt lat="47.88518" lon="-3.92508">
        <ele>23.9</ele>
        <time>2022-12-07T12:16:50Z</time>
      </trkpt>
      <trkpt lat="47.88521" lon="-3.92508">
        <ele>23.9</ele>
        <time>2022-12-07T12:16:51Z</time>
      </trkpt>
      <trkpt lat="47.88525" lon="-3.9251">
        <ele>24</ele>
        <time>2022-12-07T12:16:53Z</time>
      </trkpt>
      <trkpt lat="47.88527" lon="-3.92512">
        <ele>24.1</ele>
        <time>2022-12-07T12:16:54Z</time>
      </trkpt>
      <trkpt lat="47.8853" lon="-3.92513">
        <ele>24.2</ele>
        <time>2022-12-07T12:16:55Z</time>
      </trkpt>
      <trkpt lat="47.88533" lon="-3.92515">
        <ele>24.3</ele>
        <time>2022-12-07T12:16:56Z</time>
      </trkpt>
      <trkpt lat="47.88535" lon="-3.92517">
        <ele>24.3</ele>
        <time>2022-12-07T12:16:57Z</time>
      </trkpt>
      <trkpt lat="47.88539" lon="-3.92517">
        <ele>24.4</ele>
        <time>2022-12-07T12:16:59Z</time>
      </trkpt>
      <trkpt lat="47.88542" lon="-3.92516">
        <ele>24.5</ele>
        <time>2022-12-07T12:17:00Z</time>
      </trkpt>
      <trkpt lat="47.88545" lon="-3.92517">
        <ele>24.6</ele>
        <time>2022-12-07T12:17:01Z</time>
      </trkpt>
      <trkpt lat="47.88549" lon="-3.92518">
        <ele>24.7</ele>
        <time>2022-12-07T12:17:02Z</time>
      </trkpt>
      <trkpt lat="47.88553" lon="-3.92518">
        <ele>24.9</ele>
        <time>2022-12-07T12:17:04Z</time>
      </trkpt>
      <trkpt lat="47.88554" lon="-3.92519">
        <ele>24.9</ele>
        <time>2022-12-07T12:17:05Z</time>
      </trkpt>
      <trkpt lat="47.88557" lon="-3.92521">
        <ele>25</ele>
        <time>2022-12-07T12:17:06Z</time>
      </trkpt>
      <trkpt lat="47.88558" lon="-3.92521">
        <ele>25.1</ele>
        <time>2022-12-07T12:17:07Z</time>
      </trkpt>
      <trkpt lat="47.88562" lon="-3.92523">
        <ele>25.3</ele>
        <time>2022-12-07T12:17:08Z</time>
      </trkpt>
      <trkpt lat="47.88563" lon="-3.92524">
        <ele>25.4</ele>
        <time>2022-12-07T12:17:09Z</time>
      </trkpt>
      <trkpt lat="47.88566" lon="-3.92526">
        <ele>25.6</ele>
        <time>2022-12-07T12:17:10Z</time>
      </trkpt>
      <trkpt lat="47.88567" lon="-3.92526">
        <ele>25.7</ele>
        <time>2022-12-07T12:17:11Z</time>
      </trkpt>
      <trkpt lat="47.8857" lon="-3.92527">
        <ele>25.9</ele>
        <time>2022-12-07T12:17:12Z</time>
      </trkpt>
      <trkpt lat="47.88572" lon="-3.92527">
        <ele>26</ele>
        <time>2022-12-07T12:17:13Z</time>
      </trkpt>
      <trkpt lat="47.88576" lon="-3.92528">
        <ele>26.3</ele>
        <time>2022-12-07T12:17:15Z</time>
      </trkpt>
      <trkpt lat="47.88577" lon="-3.92528">
        <ele>26.4</ele>
        <time>2022-12-07T12:17:16Z</time>
      </trkpt>
      <trkpt lat="47.88578" lon="-3.92529">
        <ele>26.5</ele>
        <time>2022-12-07T12:17:17Z</time>
      </trkpt>
      <trkpt lat="47.88582" lon="-3.9253">
        <ele>26.7</ele>
        <time>2022-12-07T12:17:18Z</time>
      </trkpt>
      <trkpt lat="47.88584" lon="-3.9253">
        <ele>26.8</ele>
        <time>2022-12-07T12:17:19Z</time>
      </trkpt>
      <trkpt lat="47.88587" lon="-3.92532">
        <ele>26.9</ele>
        <time>2022-12-07T12:17:21Z</time>
      </trkpt>
      <trkpt lat="47.88589" lon="-3.92529">
        <ele>27.1</ele>
        <time>2022-12-07T12:17:22Z</time>
      </trkpt>
      <trkpt lat="47.8859" lon="-3.92528">
        <ele>27.1</ele>
        <time>2022-12-07T12:17:23Z</time>
      </trkpt>
      <trkpt lat="47.88594" lon="-3.92527">
        <ele>27.3</ele>
        <time>2022-12-07T12:17:24Z</time>
      </trkpt>
      <trkpt lat="47.88595" lon="-3.92527">
        <ele>27.3</ele>
        <time>2022-12-07T12:17:25Z</time>
      </trkpt>
      <trkpt lat="47.88597" lon="-3.92525">
        <ele>27.4</ele>
        <time>2022-12-07T12:17:26Z</time>
      </trkpt>
      <trkpt lat="47.88602" lon="-3.92523">
        <ele>27.6</ele>
        <time>2022-12-07T12:17:27Z</time>
      </trkpt>
      <trkpt lat="47.88606" lon="-3.92523">
        <ele>27.7</ele>
        <time>2022-12-07T12:17:29Z</time>
      </trkpt>
      <trkpt lat="47.8861" lon="-3.92523">
        <ele>27.8</ele>
        <time>2022-12-07T12:17:30Z</time>
      </trkpt>
      <trkpt lat="47.88614" lon="-3.92523">
        <ele>27.9</ele>
        <time>2022-12-07T12:17:31Z</time>
      </trkpt>
      <trkpt lat="47.88617" lon="-3.92523">
        <ele>28.1</ele>
        <time>2022-12-07T12:17:32Z</time>
      </trkpt>
      <trkpt lat="47.8862" lon="-3.92524">
        <ele>28.3</ele>
        <time>2022-12-07T12:17:33Z</time>
      </trkpt>
      <trkpt lat="47.88622" lon="-3.92525">
        <ele>28.4</ele>
        <time>2022-12-07T12:17:34Z</time>
      </trkpt>
      <trkpt lat="47.88623" lon="-3.92527">
        <ele>28.5</ele>
        <time>2022-12-07T12:17:35Z</time>
      </trkpt>
      <trkpt lat="47.88625" lon="-3.9253">
        <ele>28.7</ele>
        <time>2022-12-07T12:17:36Z</time>
      </trkpt>
      <trkpt lat="47.88625" lon="-3.92531">
        <ele>28.8</ele>
        <time>2022-12-07T12:17:37Z</time>
      </trkpt>
      <trkpt lat="47.88627" lon="-3.92533">
        <ele>28.9</ele>
        <time>2022-12-07T12:17:38Z</time>
      </trkpt>
      <trkpt lat="47.88627" lon="-3.92534">
        <ele>30.8</ele>
        <time>2022-12-07T12:17:39Z</time>
      </trkpt>
      <trkpt lat="47.88629" lon="-3.92534">
        <ele>30.8</ele>
        <time>2022-12-07T12:17:40Z</time>
      </trkpt>
      <trkpt lat="47.88631" lon="-3.92534">
        <ele>30.8</ele>
        <time>2022-12-07T12:17:41Z</time>
      </trkpt>
      <trkpt lat="47.88632" lon="-3.92533">
        <ele>30.8</ele>
        <time>2022-12-07T12:17:42Z</time>
      </trkpt>
      <trkpt lat="47.88633" lon="-3.92531">
        <ele>30.8</ele>
        <time>2022-12-07T12:17:43Z</time>
      </trkpt>
      <trkpt lat="47.88633" lon="-3.92528">
        <ele>30.8</ele>
        <time>2022-12-07T12:17:44Z</time>
      </trkpt>
      <trkpt lat="47.88634" lon="-3.92526">
        <ele>30.8</ele>
        <time>2022-12-07T12:17:45Z</time>
      </trkpt>
      <trkpt lat="47.88634" lon="-3.92524">
        <ele>30.7</ele>
        <time>2022-12-07T12:17:46Z</time>
      </trkpt>
      <trkpt lat="47.88636" lon="-3.92518">
        <ele>30.7</ele>
        <time>2022-12-07T12:17:47Z</time>
      </trkpt>
      <trkpt lat="47.88642" lon="-3.92513">
        <ele>30.7</ele>
        <time>2022-12-07T12:17:49Z</time>
      </trkpt>
      <trkpt lat="47.88646" lon="-3.92514">
        <ele>30.7</ele>
        <time>2022-12-07T12:17:50Z</time>
      </trkpt>
      <trkpt lat="47.88651" lon="-3.92515">
        <ele>30.7</ele>
        <time>2022-12-07T12:17:51Z</time>
      </trkpt>
      <trkpt lat="47.88656" lon="-3.92515">
        <ele>30.8</ele>
        <time>2022-12-07T12:17:52Z</time>
      </trkpt>
      <trkpt lat="47.8866" lon="-3.92514">
        <ele>30.9</ele>
        <time>2022-12-07T12:17:54Z</time>
      </trkpt>
      <trkpt lat="47.88664" lon="-3.92513">
        <ele>31</ele>
        <time>2022-12-07T12:17:55Z</time>
      </trkpt>
      <trkpt lat="47.88666" lon="-3.92512">
        <ele>31</ele>
        <time>2022-12-07T12:17:56Z</time>
      </trkpt>
      <trkpt lat="47.8867" lon="-3.92509">
        <ele>31.1</ele>
        <time>2022-12-07T12:17:58Z</time>
      </trkpt>
      <trkpt lat="47.88672" lon="-3.92505">
        <ele>31.2</ele>
        <time>2022-12-07T12:17:59Z</time>
      </trkpt>
      <trkpt lat="47.88673" lon="-3.92504">
        <ele>31.2</ele>
        <time>2022-12-07T12:18:00Z</time>
      </trkpt>
      <trkpt lat="47.88674" lon="-3.92502">
        <ele>31.4</ele>
        <time>2022-12-07T12:18:01Z</time>
      </trkpt>
      <trkpt lat="47.88678" lon="-3.92499">
        <ele>31.6</ele>
        <time>2022-12-07T12:18:03Z</time>
      </trkpt>
      <trkpt lat="47.88682" lon="-3.92496">
        <ele>32</ele>
        <time>2022-12-07T12:18:04Z</time>
      </trkpt>
      <trkpt lat="47.88684" lon="-3.92493">
        <ele>32.2</ele>
        <time>2022-12-07T12:18:05Z</time>
      </trkpt>
      <trkpt lat="47.88687" lon="-3.92491">
        <ele>32.5</ele>
        <time>2022-12-07T12:18:06Z</time>
      </trkpt>
      <trkpt lat="47.8869" lon="-3.9249">
        <ele>32.8</ele>
        <time>2022-12-07T12:18:07Z</time>
      </trkpt>
      <trkpt lat="47.88691" lon="-3.92489">
        <ele>32.9</ele>
        <time>2022-12-07T12:18:08Z</time>
      </trkpt>
      <trkpt lat="47.88693" lon="-3.92487">
        <ele>33.2</ele>
        <time>2022-12-07T12:18:09Z</time>
      </trkpt>
      <trkpt lat="47.88696" lon="-3.92485">
        <ele>33.5</ele>
        <time>2022-12-07T12:18:10Z</time>
      </trkpt>
      <trkpt lat="47.88697" lon="-3.92484">
        <ele>33.7</ele>
        <time>2022-12-07T12:18:11Z</time>
      </trkpt>
      <trkpt lat="47.88699" lon="-3.92481">
        <ele>34.1</ele>
        <time>2022-12-07T12:18:12Z</time>
      </trkpt>
      <trkpt lat="47.887" lon="-3.9248">
        <ele>34.1</ele>
        <time>2022-12-07T12:18:13Z</time>
      </trkpt>
      <trkpt lat="47.88702" lon="-3.92478">
        <ele>34.5</ele>
        <time>2022-12-07T12:18:14Z</time>
      </trkpt>
      <trkpt lat="47.88703" lon="-3.92478">
        <ele>34.6</ele>
        <time>2022-12-07T12:18:15Z</time>
      </trkpt>
      <trkpt lat="47.88704" lon="-3.92476">
        <ele>34.8</ele>
        <time>2022-12-07T12:18:16Z</time>
      </trkpt>
      <trkpt lat="47.88705" lon="-3.92475">
        <ele>34.9</ele>
        <time>2022-12-07T12:18:17Z</time>
      </trkpt>
      <trkpt lat="47.88707" lon="-3.92474">
        <ele>35.1</ele>
        <time>2022-12-07T12:18:18Z</time>
      </trkpt>
      <trkpt lat="47.88708" lon="-3.92473">
        <ele>35.2</ele>
        <time>2022-12-07T12:18:19Z</time>
      </trkpt>
      <trkpt lat="47.88709" lon="-3.92473">
        <ele>35.3</ele>
        <time>2022-12-07T12:18:20Z</time>
      </trkpt>
      <trkpt lat="47.88712" lon="-3.92472">
        <ele>35.5</ele>
        <time>2022-12-07T12:18:21Z</time>
      </trkpt>
      <trkpt lat="47.88713" lon="-3.92472">
        <ele>35.6</ele>
        <time>2022-12-07T12:18:22Z</time>
      </trkpt>
      <trkpt lat="47.88716" lon="-3.92472">
        <ele>35.7</ele>
        <time>2022-12-07T12:18:23Z</time>
      </trkpt>
      <trkpt lat="47.8872" lon="-3.9247">
        <ele>35.8</ele>
        <time>2022-12-07T12:18:24Z</time>
      </trkpt>
      <trkpt lat="47.88724" lon="-3.92467">
        <ele>35.9</ele>
        <time>2022-12-07T12:18:25Z</time>
      </trkpt>
      <trkpt lat="47.88728" lon="-3.92464">
        <ele>35.9</ele>
        <time>2022-12-07T12:18:26Z</time>
      </trkpt>
      <trkpt lat="47.88731" lon="-3.92463">
        <ele>35.8</ele>
        <time>2022-12-07T12:18:27Z</time>
      </trkpt>
      <trkpt lat="47.88733" lon="-3.92462">
        <ele>35.8</ele>
        <time>2022-12-07T12:18:28Z</time>
      </trkpt>
      <trkpt lat="47.88737" lon="-3.92462">
        <ele>35.7</ele>
        <time>2022-12-07T12:18:29Z</time>
      </trkpt>
      <trkpt lat="47.88742" lon="-3.92458">
        <ele>35.5</ele>
        <time>2022-12-07T12:18:30Z</time>
      </trkpt>
      <trkpt lat="47.88747" lon="-3.92455">
        <ele>35.4</ele>
        <time>2022-12-07T12:18:31Z</time>
      </trkpt>
      <trkpt lat="47.88752" lon="-3.92451">
        <ele>35.3</ele>
        <time>2022-12-07T12:18:33Z</time>
      </trkpt>
      <trkpt lat="47.88757" lon="-3.9245">
        <ele>35.3</ele>
        <time>2022-12-07T12:18:34Z</time>
      </trkpt>
      <trkpt lat="47.88762" lon="-3.92448">
        <ele>35.3</ele>
        <time>2022-12-07T12:18:35Z</time>
      </trkpt>
      <trkpt lat="47.88767" lon="-3.92446">
        <ele>35.4</ele>
        <time>2022-12-07T12:18:36Z</time>
      </trkpt>
      <trkpt lat="47.8877" lon="-3.92443">
        <ele>35.5</ele>
        <time>2022-12-07T12:18:37Z</time>
      </trkpt>
      <trkpt lat="47.88771" lon="-3.92441">
        <ele>35.5</ele>
        <time>2022-12-07T12:18:38Z</time>
      </trkpt>
      <trkpt lat="47.88773" lon="-3.92437">
        <ele>35.7</ele>
        <time>2022-12-07T12:18:39Z</time>
      </trkpt>
      <trkpt lat="47.88773" lon="-3.92435">
        <ele>35.8</ele>
        <time>2022-12-07T12:18:40Z</time>
      </trkpt>
      <trkpt lat="47.88776" lon="-3.92432">
        <ele>36</ele>
        <time>2022-12-07T12:18:41Z</time>
      </trkpt>
      <trkpt lat="47.88779" lon="-3.92431">
        <ele>36.2</ele>
        <time>2022-12-07T12:18:43Z</time>
      </trkpt>
      <trkpt lat="47.8878" lon="-3.92431">
        <ele>36.3</ele>
        <time>2022-12-07T12:18:44Z</time>
      </trkpt>
      <trkpt lat="47.88784" lon="-3.92429">
        <ele>36.7</ele>
        <time>2022-12-07T12:18:45Z</time>
      </trkpt>
      <trkpt lat="47.88787" lon="-3.92427">
        <ele>37</ele>
        <time>2022-12-07T12:18:46Z</time>
      </trkpt>
      <trkpt lat="47.88789" lon="-3.92426">
        <ele>37.2</ele>
        <time>2022-12-07T12:18:47Z</time>
      </trkpt>
      <trkpt lat="47.88789" lon="-3.92424">
        <ele>37.3</ele>
        <time>2022-12-07T12:18:48Z</time>
      </trkpt>
      <trkpt lat="47.8879" lon="-3.92422">
        <ele>37.4</ele>
        <time>2022-12-07T12:18:49Z</time>
      </trkpt>
      <trkpt lat="47.88791" lon="-3.9242">
        <ele>37.6</ele>
        <time>2022-12-07T12:18:50Z</time>
      </trkpt>
      <trkpt lat="47.88792" lon="-3.92419">
        <ele>37.7</ele>
        <time>2022-12-07T12:18:51Z</time>
      </trkpt>
      <trkpt lat="47.88792" lon="-3.92419">
        <ele>37.8</ele>
        <time>2022-12-07T12:18:52Z</time>
      </trkpt>
      <trkpt lat="47.88796" lon="-3.92417">
        <ele>38</ele>
        <time>2022-12-07T12:18:53Z</time>
      </trkpt>
      <trkpt lat="47.88797" lon="-3.92417">
        <ele>38.1</ele>
        <time>2022-12-07T12:18:54Z</time>
      </trkpt>
      <trkpt lat="47.888" lon="-3.92417">
        <ele>38.4</ele>
        <time>2022-12-07T12:18:55Z</time>
      </trkpt>
      <trkpt lat="47.88802" lon="-3.92416">
        <ele>38.5</ele>
        <time>2022-12-07T12:18:56Z</time>
      </trkpt>
      <trkpt lat="47.88806" lon="-3.92413">
        <ele>38.7</ele>
        <time>2022-12-07T12:18:57Z</time>
      </trkpt>
      <trkpt lat="47.8881" lon="-3.92409">
        <ele>38.9</ele>
        <time>2022-12-07T12:18:58Z</time>
      </trkpt>
      <trkpt lat="47.88813" lon="-3.92405">
        <ele>39.1</ele>
        <time>2022-12-07T12:18:59Z</time>
      </trkpt>
      <trkpt lat="47.88814" lon="-3.92401">
        <ele>39.2</ele>
        <time>2022-12-07T12:19:00Z</time>
      </trkpt>
      <trkpt lat="47.88816" lon="-3.92398">
        <ele>39.4</ele>
        <time>2022-12-07T12:19:01Z</time>
      </trkpt>
      <trkpt lat="47.88818" lon="-3.92395">
        <ele>39.5</ele>
        <time>2022-12-07T12:19:02Z</time>
      </trkpt>
      <trkpt lat="47.88819" lon="-3.92394">
        <ele>39.6</ele>
        <time>2022-12-07T12:19:03Z</time>
      </trkpt>
      <trkpt lat="47.88819" lon="-3.92391">
        <ele>39.7</ele>
        <time>2022-12-07T12:19:04Z</time>
      </trkpt>
      <trkpt lat="47.8882" lon="-3.92388">
        <ele>39.9</ele>
        <time>2022-12-07T12:19:05Z</time>
      </trkpt>
      <trkpt lat="47.88821" lon="-3.92383">
        <ele>40.2</ele>
        <time>2022-12-07T12:19:07Z</time>
      </trkpt>
      <trkpt lat="47.88823" lon="-3.92379">
        <ele>40.6</ele>
        <time>2022-12-07T12:19:08Z</time>
      </trkpt>
      <trkpt lat="47.88824" lon="-3.92377">
        <ele>40.7</ele>
        <time>2022-12-07T12:19:09Z</time>
      </trkpt>
      <trkpt lat="47.88825" lon="-3.92372">
        <ele>41.1</ele>
        <time>2022-12-07T12:19:10Z</time>
      </trkpt>
      <trkpt lat="47.88826" lon="-3.9237">
        <ele>41.3</ele>
        <time>2022-12-07T12:19:11Z</time>
      </trkpt>
      <trkpt lat="47.88827" lon="-3.92368">
        <ele>41.4</ele>
        <time>2022-12-07T12:19:12Z</time>
      </trkpt>
      <trkpt lat="47.88827" lon="-3.92366">
        <ele>41.7</ele>
        <time>2022-12-07T12:19:13Z</time>
      </trkpt>
      <trkpt lat="47.88829" lon="-3.9236">
        <ele>42.1</ele>
        <time>2022-12-07T12:19:15Z</time>
      </trkpt>
      <trkpt lat="47.8883" lon="-3.92358">
        <ele>42.2</ele>
        <time>2022-12-07T12:19:16Z</time>
      </trkpt>
      <trkpt lat="47.8883" lon="-3.92357">
        <ele>42.3</ele>
        <time>2022-12-07T12:19:17Z</time>
      </trkpt>
      <trkpt lat="47.88832" lon="-3.92353">
        <ele>42.5</ele>
        <time>2022-12-07T12:19:18Z</time>
      </trkpt>
      <trkpt lat="47.88833" lon="-3.92352">
        <ele>42.6</ele>
        <time>2022-12-07T12:19:19Z</time>
      </trkpt>
      <trkpt lat="47.88837" lon="-3.9235">
        <ele>42.8</ele>
        <time>2022-12-07T12:19:20Z</time>
      </trkpt>
      <trkpt lat="47.88838" lon="-3.92349">
        <ele>42.8</ele>
        <time>2022-12-07T12:19:21Z</time>
      </trkpt>
      <trkpt lat="47.88842" lon="-3.92347">
        <ele>42.8</ele>
        <time>2022-12-07T12:19:23Z</time>
      </trkpt>
      <trkpt lat="47.88845" lon="-3.92341">
        <ele>42.6</ele>
        <time>2022-12-07T12:19:24Z</time>
      </trkpt>
      <trkpt lat="47.88848" lon="-3.92335">
        <ele>42.4</ele>
        <time>2022-12-07T12:19:25Z</time>
      </trkpt>
      <trkpt lat="47.88852" lon="-3.92333">
        <ele>42.1</ele>
        <time>2022-12-07T12:19:26Z</time>
      </trkpt>
      <trkpt lat="47.88861" lon="-3.92332">
        <ele>41.5</ele>
        <time>2022-12-07T12:19:27Z</time>
      </trkpt>
      <trkpt lat="47.88868" lon="-3.9233">
        <ele>41.1</ele>
        <time>2022-12-07T12:19:28Z</time>
      </trkpt>
      <trkpt lat="47.88874" lon="-3.92327">
        <ele>40.8</ele>
        <time>2022-12-07T12:19:29Z</time>
      </trkpt>
      <trkpt lat="47.8888" lon="-3.92323">
        <ele>40.6</ele>
        <time>2022-12-07T12:19:30Z</time>
      </trkpt>
      <trkpt lat="47.88886" lon="-3.92319">
        <ele>40.6</ele>
        <time>2022-12-07T12:19:31Z</time>
      </trkpt>
      <trkpt lat="47.8889" lon="-3.92315">
        <ele>40.5</ele>
        <time>2022-12-07T12:19:32Z</time>
      </trkpt>
      <trkpt lat="47.88894" lon="-3.92311">
        <ele>40.6</ele>
        <time>2022-12-07T12:19:33Z</time>
      </trkpt>
      <trkpt lat="47.88898" lon="-3.92312">
        <ele>40.6</ele>
        <time>2022-12-07T12:19:35Z</time>
      </trkpt>
      <trkpt lat="47.88904" lon="-3.92305">
        <ele>40.8</ele>
        <time>2022-12-07T12:19:36Z</time>
      </trkpt>
      <trkpt lat="47.8891" lon="-3.923">
        <ele>40.9</ele>
        <time>2022-12-07T12:19:37Z</time>
      </trkpt>
      <trkpt lat="47.88913" lon="-3.92297">
        <ele>41</ele>
        <time>2022-12-07T12:19:38Z</time>
      </trkpt>
      <trkpt lat="47.88915" lon="-3.92294">
        <ele>41.1</ele>
        <time>2022-12-07T12:19:40Z</time>
      </trkpt>
      <trkpt lat="47.88918" lon="-3.9229">
        <ele>41.2</ele>
        <time>2022-12-07T12:19:41Z</time>
      </trkpt>
      <trkpt lat="47.8892" lon="-3.92286">
        <ele>41.3</ele>
        <time>2022-12-07T12:19:42Z</time>
      </trkpt>
      <trkpt lat="47.88922" lon="-3.92283">
        <ele>41.4</ele>
        <time>2022-12-07T12:19:43Z</time>
      </trkpt>
      <trkpt lat="47.88925" lon="-3.92279">
        <ele>41.5</ele>
        <time>2022-12-07T12:19:45Z</time>
      </trkpt>
      <trkpt lat="47.88927" lon="-3.92275">
        <ele>41.7</ele>
        <time>2022-12-07T12:19:46Z</time>
      </trkpt>
      <trkpt lat="47.88928" lon="-3.92273">
        <ele>41.7</ele>
        <time>2022-12-07T12:19:47Z</time>
      </trkpt>
      <trkpt lat="47.88929" lon="-3.92268">
        <ele>41.8</ele>
        <time>2022-12-07T12:19:48Z</time>
      </trkpt>
      <trkpt lat="47.8893" lon="-3.92264">
        <ele>41.9</ele>
        <time>2022-12-07T12:19:49Z</time>
      </trkpt>
      <trkpt lat="47.88932" lon="-3.92259">
        <ele>42</ele>
        <time>2022-12-07T12:19:50Z</time>
      </trkpt>
      <trkpt lat="47.88933" lon="-3.92255">
        <ele>42.1</ele>
        <time>2022-12-07T12:19:51Z</time>
      </trkpt>
      <trkpt lat="47.88934" lon="-3.92251">
        <ele>42.2</ele>
        <time>2022-12-07T12:19:52Z</time>
      </trkpt>
      <trkpt lat="47.88936" lon="-3.92242">
        <ele>42.4</ele>
        <time>2022-12-07T12:19:54Z</time>
      </trkpt>
      <trkpt lat="47.88938" lon="-3.92237">
        <ele>42.4</ele>
        <time>2022-12-07T12:19:55Z</time>
      </trkpt>
      <trkpt lat="47.88939" lon="-3.92234">
        <ele>42.5</ele>
        <time>2022-12-07T12:19:56Z</time>
      </trkpt>
      <trkpt lat="47.8894" lon="-3.9223">
        <ele>42.5</ele>
        <time>2022-12-07T12:19:57Z</time>
      </trkpt>
      <trkpt lat="47.88942" lon="-3.92225">
        <ele>42.6</ele>
        <time>2022-12-07T12:19:58Z</time>
      </trkpt>
      <trkpt lat="47.88944" lon="-3.92221">
        <ele>42.7</ele>
        <time>2022-12-07T12:19:59Z</time>
      </trkpt>
      <trkpt lat="47.88946" lon="-3.92217">
        <ele>42.7</ele>
        <time>2022-12-07T12:20:00Z</time>
      </trkpt>
      <trkpt lat="47.88948" lon="-3.92213">
        <ele>42.8</ele>
        <time>2022-12-07T12:20:01Z</time>
      </trkpt>
      <trkpt lat="47.8895" lon="-3.92209">
        <ele>42.8</ele>
        <time>2022-12-07T12:20:02Z</time>
      </trkpt>
      <trkpt lat="47.88951" lon="-3.92205">
        <ele>42.9</ele>
        <time>2022-12-07T12:20:03Z</time>
      </trkpt>
      <trkpt lat="47.88953" lon="-3.922">
        <ele>42.9</ele>
        <time>2022-12-07T12:20:04Z</time>
      </trkpt>
      <trkpt lat="47.88954" lon="-3.92199">
        <ele>43</ele>
        <time>2022-12-07T12:20:05Z</time>
      </trkpt>
      <trkpt lat="47.88956" lon="-3.92193">
        <ele>43</ele>
        <time>2022-12-07T12:20:06Z</time>
      </trkpt>
      <trkpt lat="47.88957" lon="-3.92191">
        <ele>43.1</ele>
        <time>2022-12-07T12:20:07Z</time>
      </trkpt>
      <trkpt lat="47.88958" lon="-3.92187">
        <ele>43.1</ele>
        <time>2022-12-07T12:20:08Z</time>
      </trkpt>
      <trkpt lat="47.8896" lon="-3.92181">
        <ele>43.2</ele>
        <time>2022-12-07T12:20:09Z</time>
      </trkpt>
      <trkpt lat="47.88962" lon="-3.92178">
        <ele>43.2</ele>
        <time>2022-12-07T12:20:10Z</time>
      </trkpt>
      <trkpt lat="47.88964" lon="-3.92173">
        <ele>43.3</ele>
        <time>2022-12-07T12:20:11Z</time>
      </trkpt>
      <trkpt lat="47.88965" lon="-3.92172">
        <ele>43.3</ele>
        <time>2022-12-07T12:20:12Z</time>
      </trkpt>
      <trkpt lat="47.88969" lon="-3.92167">
        <ele>43.5</ele>
        <time>2022-12-07T12:20:13Z</time>
      </trkpt>
      <trkpt lat="47.88974" lon="-3.92161">
        <ele>43.7</ele>
        <time>2022-12-07T12:20:15Z</time>
      </trkpt>
      <trkpt lat="47.88977" lon="-3.92158">
        <ele>43.8</ele>
        <time>2022-12-07T12:20:16Z</time>
      </trkpt>
      <trkpt lat="47.8898" lon="-3.92155">
        <ele>44</ele>
        <time>2022-12-07T12:20:17Z</time>
      </trkpt>
      <trkpt lat="47.88984" lon="-3.92151">
        <ele>44.3</ele>
        <time>2022-12-07T12:20:18Z</time>
      </trkpt>
      <trkpt lat="47.88987" lon="-3.92147">
        <ele>44.6</ele>
        <time>2022-12-07T12:20:19Z</time>
      </trkpt>
      <trkpt lat="47.88991" lon="-3.92142">
        <ele>45</ele>
        <time>2022-12-07T12:20:21Z</time>
      </trkpt>
      <trkpt lat="47.88993" lon="-3.92138">
        <ele>45.3</ele>
        <time>2022-12-07T12:20:22Z</time>
      </trkpt>
      <trkpt lat="47.88996" lon="-3.92135">
        <ele>45.6</ele>
        <time>2022-12-07T12:20:23Z</time>
      </trkpt>
      <trkpt lat="47.88998" lon="-3.92131">
        <ele>46</ele>
        <time>2022-12-07T12:20:24Z</time>
      </trkpt>
      <trkpt lat="47.88998" lon="-3.9213">
        <ele>46.1</ele>
        <time>2022-12-07T12:20:25Z</time>
      </trkpt>
      <trkpt lat="47.89" lon="-3.92126">
        <ele>46.5</ele>
        <time>2022-12-07T12:20:26Z</time>
      </trkpt>
      <trkpt lat="47.89" lon="-3.92124">
        <ele>46.7</ele>
        <time>2022-12-07T12:20:27Z</time>
      </trkpt>
      <trkpt lat="47.89001" lon="-3.9212">
        <ele>47</ele>
        <time>2022-12-07T12:20:28Z</time>
      </trkpt>
      <trkpt lat="47.89001" lon="-3.92118">
        <ele>47.1</ele>
        <time>2022-12-07T12:20:29Z</time>
      </trkpt>
      <trkpt lat="47.89004" lon="-3.92116">
        <ele>47.4</ele>
        <time>2022-12-07T12:20:30Z</time>
      </trkpt>
      <trkpt lat="47.89005" lon="-3.92115">
        <ele>47.5</ele>
        <time>2022-12-07T12:20:31Z</time>
      </trkpt>
      <trkpt lat="47.89006" lon="-3.9211">
        <ele>47.8</ele>
        <time>2022-12-07T12:20:32Z</time>
      </trkpt>
      <trkpt lat="47.89007" lon="-3.92104">
        <ele>48.2</ele>
        <time>2022-12-07T12:20:34Z</time>
      </trkpt>
      <trkpt lat="47.89007" lon="-3.92103">
        <ele>48.2</ele>
        <time>2022-12-07T12:20:35Z</time>
      </trkpt>
      <trkpt lat="47.89008" lon="-3.92101">
        <ele>48.3</ele>
        <time>2022-12-07T12:20:36Z</time>
      </trkpt>
      <trkpt lat="47.89008" lon="-3.92099">
        <ele>48.4</ele>
        <time>2022-12-07T12:20:37Z</time>
      </trkpt>
      <trkpt lat="47.89006" lon="-3.92094">
        <ele>48.6</ele>
        <time>2022-12-07T12:20:38Z</time>
      </trkpt>
      <trkpt lat="47.89005" lon="-3.92091">
        <ele>48.6</ele>
        <time>2022-12-07T12:20:39Z</time>
      </trkpt>
      <trkpt lat="47.89007" lon="-3.92087">
        <ele>48.6</ele>
        <time>2022-12-07T12:20:40Z</time>
      </trkpt>
      <trkpt lat="47.8901" lon="-3.92084">
        <ele>48.5</ele>
        <time>2022-12-07T12:20:41Z</time>
      </trkpt>
      <trkpt lat="47.89013" lon="-3.92085">
        <ele>48.5</ele>
        <time>2022-12-07T12:20:42Z</time>
      </trkpt>
      <trkpt lat="47.89016" lon="-3.92087">
        <ele>48.3</ele>
        <time>2022-12-07T12:20:43Z</time>
      </trkpt>
      <trkpt lat="47.8902" lon="-3.9209">
        <ele>48.2</ele>
        <time>2022-12-07T12:20:44Z</time>
      </trkpt>
      <trkpt lat="47.89022" lon="-3.92091">
        <ele>48.2</ele>
        <time>2022-12-07T12:20:45Z</time>
      </trkpt>
      <trkpt lat="47.89025" lon="-3.92096">
        <ele>48.3</ele>
        <time>2022-12-07T12:20:46Z</time>
      </trkpt>
      <trkpt lat="47.89029" lon="-3.92102">
        <ele>48.6</ele>
        <time>2022-12-07T12:20:47Z</time>
      </trkpt>
      <trkpt lat="47.89034" lon="-3.92105">
        <ele>49</ele>
        <time>2022-12-07T12:20:49Z</time>
      </trkpt>
      <trkpt lat="47.89037" lon="-3.92101">
        <ele>49.4</ele>
        <time>2022-12-07T12:20:50Z</time>
      </trkpt>
      <trkpt lat="47.8904" lon="-3.92098">
        <ele>49.8</ele>
        <time>2022-12-07T12:20:51Z</time>
      </trkpt>
      <trkpt lat="47.89041" lon="-3.92097">
        <ele>49.9</ele>
        <time>2022-12-07T12:20:52Z</time>
      </trkpt>
      <trkpt lat="47.89044" lon="-3.92095">
        <ele>50.2</ele>
        <time>2022-12-07T12:20:53Z</time>
      </trkpt>
      <trkpt lat="47.89044" lon="-3.92095">
        <ele>50.3</ele>
        <time>2022-12-07T12:20:54Z</time>
      </trkpt>
      <trkpt lat="47.89047" lon="-3.92092">
        <ele>50.7</ele>
        <time>2022-12-07T12:20:56Z</time>
      </trkpt>
      <trkpt lat="47.89049" lon="-3.92089">
        <ele>51</ele>
        <time>2022-12-07T12:20:57Z</time>
      </trkpt>
      <trkpt lat="47.89051" lon="-3.92086">
        <ele>51.3</ele>
        <time>2022-12-07T12:20:58Z</time>
      </trkpt>
      <trkpt lat="47.89052" lon="-3.92084">
        <ele>51.4</ele>
        <time>2022-12-07T12:20:59Z</time>
      </trkpt>
      <trkpt lat="47.89055" lon="-3.92079">
        <ele>51.7</ele>
        <time>2022-12-07T12:21:00Z</time>
      </trkpt>
      <trkpt lat="47.89056" lon="-3.92078">
        <ele>51.8</ele>
        <time>2022-12-07T12:21:01Z</time>
      </trkpt>
      <trkpt lat="47.89058" lon="-3.92074">
        <ele>52.1</ele>
        <time>2022-12-07T12:21:02Z</time>
      </trkpt>
      <trkpt lat="47.89059" lon="-3.9207">
        <ele>52.2</ele>
        <time>2022-12-07T12:21:03Z</time>
      </trkpt>
      <trkpt lat="47.89062" lon="-3.92065">
        <ele>52.4</ele>
        <time>2022-12-07T12:21:04Z</time>
      </trkpt>
      <trkpt lat="47.89062" lon="-3.92063">
        <ele>52.5</ele>
        <time>2022-12-07T12:21:05Z</time>
      </trkpt>
      <trkpt lat="47.89064" lon="-3.92059">
        <ele>52.6</ele>
        <time>2022-12-07T12:21:06Z</time>
      </trkpt>
      <trkpt lat="47.89065" lon="-3.92057">
        <ele>52.6</ele>
        <time>2022-12-07T12:21:07Z</time>
      </trkpt>
      <trkpt lat="47.89067" lon="-3.92053">
        <ele>52.7</ele>
        <time>2022-12-07T12:21:08Z</time>
      </trkpt>
      <trkpt lat="47.89068" lon="-3.92051">
        <ele>52.7</ele>
        <time>2022-12-07T12:21:09Z</time>
      </trkpt>
      <trkpt lat="47.8907" lon="-3.92047">
        <ele>52.7</ele>
        <time>2022-12-07T12:21:10Z</time>
      </trkpt>
      <trkpt lat="47.89071" lon="-3.92043">
        <ele>52.8</ele>
        <time>2022-12-07T12:21:11Z</time>
      </trkpt>
      <trkpt lat="47.89073" lon="-3.92039">
        <ele>52.7</ele>
        <time>2022-12-07T12:21:12Z</time>
      </trkpt>
      <trkpt lat="47.89075" lon="-3.92035">
        <ele>52.7</ele>
        <time>2022-12-07T12:21:13Z</time>
      </trkpt>
      <trkpt lat="47.89077" lon="-3.9203">
        <ele>52.7</ele>
        <time>2022-12-07T12:21:14Z</time>
      </trkpt>
      <trkpt lat="47.89078" lon="-3.92025">
        <ele>52.7</ele>
        <time>2022-12-07T12:21:15Z</time>
      </trkpt>
      <trkpt lat="47.89081" lon="-3.9202">
        <ele>52.7</ele>
        <time>2022-12-07T12:21:16Z</time>
      </trkpt>
      <trkpt lat="47.89083" lon="-3.92015">
        <ele>52.7</ele>
        <time>2022-12-07T12:21:17Z</time>
      </trkpt>
      <trkpt lat="47.89085" lon="-3.92011">
        <ele>52.8</ele>
        <time>2022-12-07T12:21:18Z</time>
      </trkpt>
      <trkpt lat="47.89087" lon="-3.92006">
        <ele>52.9</ele>
        <time>2022-12-07T12:21:19Z</time>
      </trkpt>
      <trkpt lat="47.89089" lon="-3.92002">
        <ele>53</ele>
        <time>2022-12-07T12:21:20Z</time>
      </trkpt>
      <trkpt lat="47.89091" lon="-3.91999">
        <ele>53.1</ele>
        <time>2022-12-07T12:21:21Z</time>
      </trkpt>
      <trkpt lat="47.89093" lon="-3.91994">
        <ele>53.3</ele>
        <time>2022-12-07T12:21:22Z</time>
      </trkpt>
      <trkpt lat="47.89095" lon="-3.91989">
        <ele>53.6</ele>
        <time>2022-12-07T12:21:23Z</time>
      </trkpt>
      <trkpt lat="47.89095" lon="-3.91988">
        <ele>53.7</ele>
        <time>2022-12-07T12:21:24Z</time>
      </trkpt>
      <trkpt lat="47.89097" lon="-3.91983">
        <ele>54</ele>
        <time>2022-12-07T12:21:25Z</time>
      </trkpt>
      <trkpt lat="47.89099" lon="-3.91977">
        <ele>54.4</ele>
        <time>2022-12-07T12:21:27Z</time>
      </trkpt>
      <trkpt lat="47.89101" lon="-3.91973">
        <ele>54.7</ele>
        <time>2022-12-07T12:21:28Z</time>
      </trkpt>
      <trkpt lat="47.89103" lon="-3.9197">
        <ele>55</ele>
        <time>2022-12-07T12:21:29Z</time>
      </trkpt>
      <trkpt lat="47.89106" lon="-3.91966">
        <ele>55.3</ele>
        <time>2022-12-07T12:21:30Z</time>
      </trkpt>
      <trkpt lat="47.89108" lon="-3.91962">
        <ele>55.5</ele>
        <time>2022-12-07T12:21:32Z</time>
      </trkpt>
      <trkpt lat="47.89109" lon="-3.91959">
        <ele>55.8</ele>
        <time>2022-12-07T12:21:33Z</time>
      </trkpt>
      <trkpt lat="47.8911" lon="-3.91954">
        <ele>56</ele>
        <time>2022-12-07T12:21:34Z</time>
      </trkpt>
      <trkpt lat="47.8911" lon="-3.91953">
        <ele>56</ele>
        <time>2022-12-07T12:21:35Z</time>
      </trkpt>
      <trkpt lat="47.89111" lon="-3.91949">
        <ele>56.2</ele>
        <time>2022-12-07T12:21:36Z</time>
      </trkpt>
      <trkpt lat="47.89111" lon="-3.91944">
        <ele>56.3</ele>
        <time>2022-12-07T12:21:37Z</time>
      </trkpt>
      <trkpt lat="47.89112" lon="-3.91938">
        <ele>56.5</ele>
        <time>2022-12-07T12:21:38Z</time>
      </trkpt>
      <trkpt lat="47.89112" lon="-3.91937">
        <ele>56.5</ele>
        <time>2022-12-07T12:21:39Z</time>
      </trkpt>
      <trkpt lat="47.89113" lon="-3.91932">
        <ele>56.6</ele>
        <time>2022-12-07T12:21:40Z</time>
      </trkpt>
      <trkpt lat="47.89114" lon="-3.9193">
        <ele>56.7</ele>
        <time>2022-12-07T12:21:41Z</time>
      </trkpt>
      <trkpt lat="47.89115" lon="-3.91924">
        <ele>56.8</ele>
        <time>2022-12-07T12:21:42Z</time>
      </trkpt>
      <trkpt lat="47.89116" lon="-3.91922">
        <ele>56.8</ele>
        <time>2022-12-07T12:21:43Z</time>
      </trkpt>
      <trkpt lat="47.89118" lon="-3.91919">
        <ele>56.8</ele>
        <time>2022-12-07T12:21:44Z</time>
      </trkpt>
      <trkpt lat="47.8912" lon="-3.91915">
        <ele>56.9</ele>
        <time>2022-12-07T12:21:45Z</time>
      </trkpt>
      <trkpt lat="47.89121" lon="-3.91912">
        <ele>56.9</ele>
        <time>2022-12-07T12:21:46Z</time>
      </trkpt>
      <trkpt lat="47.89124" lon="-3.91907">
        <ele>56.9</ele>
        <time>2022-12-07T12:21:47Z</time>
      </trkpt>
      <trkpt lat="47.89126" lon="-3.91905">
        <ele>56.9</ele>
        <time>2022-12-07T12:21:48Z</time>
      </trkpt>
      <trkpt lat="47.89128" lon="-3.91901">
        <ele>56.9</ele>
        <time>2022-12-07T12:21:49Z</time>
      </trkpt>
      <trkpt lat="47.8913" lon="-3.91897">
        <ele>56.9</ele>
        <time>2022-12-07T12:21:50Z</time>
      </trkpt>
      <trkpt lat="47.89132" lon="-3.91892">
        <ele>56.9</ele>
        <time>2022-12-07T12:21:51Z</time>
      </trkpt>
      <trkpt lat="47.89134" lon="-3.91888">
        <ele>56.9</ele>
        <time>2022-12-07T12:21:52Z</time>
      </trkpt>
      <trkpt lat="47.89137" lon="-3.91883">
        <ele>56.9</ele>
        <time>2022-12-07T12:21:53Z</time>
      </trkpt>
      <trkpt lat="47.8914" lon="-3.91878">
        <ele>56.9</ele>
        <time>2022-12-07T12:21:54Z</time>
      </trkpt>
      <trkpt lat="47.89142" lon="-3.91874">
        <ele>56.9</ele>
        <time>2022-12-07T12:21:55Z</time>
      </trkpt>
      <trkpt lat="47.89144" lon="-3.91871">
        <ele>56.9</ele>
        <time>2022-12-07T12:21:56Z</time>
      </trkpt>
      <trkpt lat="47.89148" lon="-3.91865">
        <ele>56.9</ele>
        <time>2022-12-07T12:21:57Z</time>
      </trkpt>
      <trkpt lat="47.89152" lon="-3.91858">
        <ele>56.9</ele>
        <time>2022-12-07T12:21:59Z</time>
      </trkpt>
      <trkpt lat="47.89158" lon="-3.91851">
        <ele>56.9</ele>
        <time>2022-12-07T12:22:01Z</time>
      </trkpt>
      <trkpt lat="47.89161" lon="-3.91846">
        <ele>56.9</ele>
        <time>2022-12-07T12:22:02Z</time>
      </trkpt>
      <trkpt lat="47.89165" lon="-3.9184">
        <ele>56.9</ele>
        <time>2022-12-07T12:22:04Z</time>
      </trkpt>
      <trkpt lat="47.8917" lon="-3.91833">
        <ele>57</ele>
        <time>2022-12-07T12:22:05Z</time>
      </trkpt>
      <trkpt lat="47.89173" lon="-3.91829">
        <ele>57</ele>
        <time>2022-12-07T12:22:06Z</time>
      </trkpt>
      <trkpt lat="47.89175" lon="-3.91824">
        <ele>57</ele>
        <time>2022-12-07T12:22:07Z</time>
      </trkpt>
      <trkpt lat="47.8918" lon="-3.91818">
        <ele>57</ele>
        <time>2022-12-07T12:22:08Z</time>
      </trkpt>
      <trkpt lat="47.89183" lon="-3.91815">
        <ele>56.9</ele>
        <time>2022-12-07T12:22:10Z</time>
      </trkpt>
      <trkpt lat="47.89188" lon="-3.91809">
        <ele>56.8</ele>
        <time>2022-12-07T12:22:11Z</time>
      </trkpt>
      <trkpt lat="47.89192" lon="-3.91805">
        <ele>56.8</ele>
        <time>2022-12-07T12:22:12Z</time>
      </trkpt>
      <trkpt lat="47.89196" lon="-3.91802">
        <ele>56.7</ele>
        <time>2022-12-07T12:22:13Z</time>
      </trkpt>
      <trkpt lat="47.892" lon="-3.91799">
        <ele>56.6</ele>
        <time>2022-12-07T12:22:14Z</time>
      </trkpt>
      <trkpt lat="47.89205" lon="-3.91794">
        <ele>56.4</ele>
        <time>2022-12-07T12:22:15Z</time>
      </trkpt>
      <trkpt lat="47.89209" lon="-3.91789">
        <ele>56.3</ele>
        <time>2022-12-07T12:22:16Z</time>
      </trkpt>
      <trkpt lat="47.89213" lon="-3.91784">
        <ele>56.2</ele>
        <time>2022-12-07T12:22:17Z</time>
      </trkpt>
      <trkpt lat="47.89218" lon="-3.91779">
        <ele>56</ele>
        <time>2022-12-07T12:22:18Z</time>
      </trkpt>
      <trkpt lat="47.89221" lon="-3.91773">
        <ele>56</ele>
        <time>2022-12-07T12:22:19Z</time>
      </trkpt>
      <trkpt lat="47.89223" lon="-3.91766">
        <ele>55.9</ele>
        <time>2022-12-07T12:22:20Z</time>
      </trkpt>
      <trkpt lat="47.89226" lon="-3.91759">
        <ele>55.8</ele>
        <time>2022-12-07T12:22:21Z</time>
      </trkpt>
      <trkpt lat="47.89229" lon="-3.91753">
        <ele>55.8</ele>
        <time>2022-12-07T12:22:22Z</time>
      </trkpt>
      <trkpt lat="47.89233" lon="-3.91748">
        <ele>55.8</ele>
        <time>2022-12-07T12:22:23Z</time>
      </trkpt>
      <trkpt lat="47.89238" lon="-3.91745">
        <ele>55.7</ele>
        <time>2022-12-07T12:22:24Z</time>
      </trkpt>
      <trkpt lat="47.89243" lon="-3.91743">
        <ele>55.7</ele>
        <time>2022-12-07T12:22:25Z</time>
      </trkpt>
      <trkpt lat="47.89247" lon="-3.91742">
        <ele>55.7</ele>
        <time>2022-12-07T12:22:26Z</time>
      </trkpt>
      <trkpt lat="47.89252" lon="-3.91741">
        <ele>55.9</ele>
        <time>2022-12-07T12:22:27Z</time>
      </trkpt>
      <trkpt lat="47.89257" lon="-3.9174">
        <ele>56.1</ele>
        <time>2022-12-07T12:22:28Z</time>
      </trkpt>
      <trkpt lat="47.8926" lon="-3.9174">
        <ele>56.2</ele>
        <time>2022-12-07T12:22:29Z</time>
      </trkpt>
      <trkpt lat="47.89265" lon="-3.91739">
        <ele>56.4</ele>
        <time>2022-12-07T12:22:30Z</time>
      </trkpt>
      <trkpt lat="47.8927" lon="-3.91738">
        <ele>56.6</ele>
        <time>2022-12-07T12:22:31Z</time>
      </trkpt>
      <trkpt lat="47.89274" lon="-3.91738">
        <ele>56.8</ele>
        <time>2022-12-07T12:22:32Z</time>
      </trkpt>
      <trkpt lat="47.89278" lon="-3.91738">
        <ele>57</ele>
        <time>2022-12-07T12:22:33Z</time>
      </trkpt>
      <trkpt lat="47.89282" lon="-3.91739">
        <ele>57.2</ele>
        <time>2022-12-07T12:22:34Z</time>
      </trkpt>
      <trkpt lat="47.89288" lon="-3.91742">
        <ele>57.4</ele>
        <time>2022-12-07T12:22:36Z</time>
      </trkpt>
      <trkpt lat="47.89293" lon="-3.91742">
        <ele>57.7</ele>
        <time>2022-12-07T12:22:37Z</time>
      </trkpt>
      <trkpt lat="47.89297" lon="-3.91743">
        <ele>57.9</ele>
        <time>2022-12-07T12:22:38Z</time>
      </trkpt>
      <trkpt lat="47.89302" lon="-3.91745">
        <ele>58.1</ele>
        <time>2022-12-07T12:22:39Z</time>
      </trkpt>
      <trkpt lat="47.89308" lon="-3.91747">
        <ele>58.3</ele>
        <time>2022-12-07T12:22:40Z</time>
      </trkpt>
      <trkpt lat="47.89312" lon="-3.91749">
        <ele>58.6</ele>
        <time>2022-12-07T12:22:42Z</time>
      </trkpt>
      <trkpt lat="47.89316" lon="-3.91752">
        <ele>58.8</ele>
        <time>2022-12-07T12:22:43Z</time>
      </trkpt>
      <trkpt lat="47.8932" lon="-3.91754">
        <ele>59</ele>
        <time>2022-12-07T12:22:44Z</time>
      </trkpt>
      <trkpt lat="47.89325" lon="-3.91757">
        <ele>59.3</ele>
        <time>2022-12-07T12:22:45Z</time>
      </trkpt>
      <trkpt lat="47.8933" lon="-3.91758">
        <ele>59.5</ele>
        <time>2022-12-07T12:22:46Z</time>
      </trkpt>
      <trkpt lat="47.89333" lon="-3.91759">
        <ele>59.7</ele>
        <time>2022-12-07T12:22:47Z</time>
      </trkpt>
      <trkpt lat="47.89337" lon="-3.9176">
        <ele>59.8</ele>
        <time>2022-12-07T12:22:48Z</time>
      </trkpt>
      <trkpt lat="47.89343" lon="-3.91761">
        <ele>60</ele>
        <time>2022-12-07T12:22:49Z</time>
      </trkpt>
      <trkpt lat="47.89347" lon="-3.91761">
        <ele>60.1</ele>
        <time>2022-12-07T12:22:51Z</time>
      </trkpt>
      <trkpt lat="47.89353" lon="-3.91761">
        <ele>60.4</ele>
        <time>2022-12-07T12:22:52Z</time>
      </trkpt>
      <trkpt lat="47.89356" lon="-3.91762">
        <ele>60.5</ele>
        <time>2022-12-07T12:22:53Z</time>
      </trkpt>
      <trkpt lat="47.8936" lon="-3.91763">
        <ele>60.7</ele>
        <time>2022-12-07T12:22:54Z</time>
      </trkpt>
      <trkpt lat="47.89363" lon="-3.91764">
        <ele>60.8</ele>
        <time>2022-12-07T12:22:55Z</time>
      </trkpt>
      <trkpt lat="47.89366" lon="-3.91764">
        <ele>61</ele>
        <time>2022-12-07T12:22:56Z</time>
      </trkpt>
      <trkpt lat="47.8937" lon="-3.91765">
        <ele>61.1</ele>
        <time>2022-12-07T12:22:57Z</time>
      </trkpt>
      <trkpt lat="47.89375" lon="-3.91769">
        <ele>61.4</ele>
        <time>2022-12-07T12:22:59Z</time>
      </trkpt>
      <trkpt lat="47.89379" lon="-3.91771">
        <ele>61.6</ele>
        <time>2022-12-07T12:23:00Z</time>
      </trkpt>
      <trkpt lat="47.8938" lon="-3.91771">
        <ele>61.7</ele>
        <time>2022-12-07T12:23:01Z</time>
      </trkpt>
      <trkpt lat="47.89383" lon="-3.91772">
        <ele>61.9</ele>
        <time>2022-12-07T12:23:02Z</time>
      </trkpt>
      <trkpt lat="47.89385" lon="-3.91771">
        <ele>62</ele>
        <time>2022-12-07T12:23:03Z</time>
      </trkpt>
      <trkpt lat="47.89385" lon="-3.91771">
        <ele>62</ele>
        <time>2022-12-07T12:23:04Z</time>
      </trkpt>
      <trkpt lat="47.89386" lon="-3.91771">
        <ele>62.1</ele>
        <time>2022-12-07T12:23:05Z</time>
      </trkpt>
      <trkpt lat="47.89387" lon="-3.9177">
        <ele>62.1</ele>
        <time>2022-12-07T12:23:06Z</time>
      </trkpt>
      <trkpt lat="47.89387" lon="-3.9177">
        <ele>62.1</ele>
        <time>2022-12-07T12:23:07Z</time>
      </trkpt>
      <trkpt lat="47.89388" lon="-3.9177">
        <ele>62.2</ele>
        <time>2022-12-07T12:23:08Z</time>
      </trkpt>
      <trkpt lat="47.89388" lon="-3.91768">
        <ele>62.3</ele>
        <time>2022-12-07T12:23:09Z</time>
      </trkpt>
      <trkpt lat="47.8939" lon="-3.91767">
        <ele>62.3</ele>
        <time>2022-12-07T12:23:10Z</time>
      </trkpt>
      <trkpt lat="47.8939" lon="-3.91767">
        <ele>62.4</ele>
        <time>2022-12-07T12:23:11Z</time>
      </trkpt>
      <trkpt lat="47.89392" lon="-3.91762">
        <ele>62.7</ele>
        <time>2022-12-07T12:23:12Z</time>
      </trkpt>
      <trkpt lat="47.89393" lon="-3.91758">
        <ele>62.8</ele>
        <time>2022-12-07T12:23:13Z</time>
      </trkpt>
      <trkpt lat="47.89392" lon="-3.91753">
        <ele>62.9</ele>
        <time>2022-12-07T12:23:14Z</time>
      </trkpt>
      <trkpt lat="47.89392" lon="-3.91749">
        <ele>63.1</ele>
        <time>2022-12-07T12:23:15Z</time>
      </trkpt>
      <trkpt lat="47.89391" lon="-3.91744">
        <ele>63.3</ele>
        <time>2022-12-07T12:23:16Z</time>
      </trkpt>
      <trkpt lat="47.8939" lon="-3.91739">
        <ele>63.4</ele>
        <time>2022-12-07T12:23:17Z</time>
      </trkpt>
      <trkpt lat="47.89391" lon="-3.91735">
        <ele>63.6</ele>
        <time>2022-12-07T12:23:18Z</time>
      </trkpt>
      <trkpt lat="47.89391" lon="-3.9173">
        <ele>63.7</ele>
        <time>2022-12-07T12:23:19Z</time>
      </trkpt>
      <trkpt lat="47.8939" lon="-3.91726">
        <ele>63.8</ele>
        <time>2022-12-07T12:23:20Z</time>
      </trkpt>
      <trkpt lat="47.89388" lon="-3.91721">
        <ele>63.9</ele>
        <time>2022-12-07T12:23:21Z</time>
      </trkpt>
      <trkpt lat="47.89388" lon="-3.91716">
        <ele>64</ele>
        <time>2022-12-07T12:23:22Z</time>
      </trkpt>
      <trkpt lat="47.89389" lon="-3.91712">
        <ele>64.1</ele>
        <time>2022-12-07T12:23:23Z</time>
      </trkpt>
      <trkpt lat="47.89392" lon="-3.91701">
        <ele>64.2</ele>
        <time>2022-12-07T12:23:25Z</time>
      </trkpt>
      <trkpt lat="47.89393" lon="-3.91695">
        <ele>64.3</ele>
        <time>2022-12-07T12:23:26Z</time>
      </trkpt>
      <trkpt lat="47.89395" lon="-3.9169">
        <ele>64.3</ele>
        <time>2022-12-07T12:23:27Z</time>
      </trkpt>
      <trkpt lat="47.89397" lon="-3.91684">
        <ele>64.4</ele>
        <time>2022-12-07T12:23:28Z</time>
      </trkpt>
      <trkpt lat="47.89398" lon="-3.91678">
        <ele>64.4</ele>
        <time>2022-12-07T12:23:29Z</time>
      </trkpt>
      <trkpt lat="47.894" lon="-3.91673">
        <ele>64.5</ele>
        <time>2022-12-07T12:23:30Z</time>
      </trkpt>
      <trkpt lat="47.89401" lon="-3.91668">
        <ele>64.5</ele>
        <time>2022-12-07T12:23:31Z</time>
      </trkpt>
      <trkpt lat="47.89403" lon="-3.91661">
        <ele>64.6</ele>
        <time>2022-12-07T12:23:32Z</time>
      </trkpt>
      <trkpt lat="47.89405" lon="-3.91655">
        <ele>64.6</ele>
        <time>2022-12-07T12:23:33Z</time>
      </trkpt>
      <trkpt lat="47.89407" lon="-3.91649">
        <ele>64.7</ele>
        <time>2022-12-07T12:23:34Z</time>
      </trkpt>
      <trkpt lat="47.89408" lon="-3.91643">
        <ele>64.7</ele>
        <time>2022-12-07T12:23:35Z</time>
      </trkpt>
      <trkpt lat="47.8941" lon="-3.91638">
        <ele>64.8</ele>
        <time>2022-12-07T12:23:36Z</time>
      </trkpt>
      <trkpt lat="47.89412" lon="-3.91632">
        <ele>64.9</ele>
        <time>2022-12-07T12:23:37Z</time>
      </trkpt>
      <trkpt lat="47.89414" lon="-3.91626">
        <ele>65</ele>
        <time>2022-12-07T12:23:38Z</time>
      </trkpt>
      <trkpt lat="47.89416" lon="-3.9162">
        <ele>65.1</ele>
        <time>2022-12-07T12:23:39Z</time>
      </trkpt>
      <trkpt lat="47.89417" lon="-3.91614">
        <ele>65.1</ele>
        <time>2022-12-07T12:23:40Z</time>
      </trkpt>
      <trkpt lat="47.8942" lon="-3.91605">
        <ele>65.3</ele>
        <time>2022-12-07T12:23:41Z</time>
      </trkpt>
      <trkpt lat="47.89424" lon="-3.91594">
        <ele>65.4</ele>
        <time>2022-12-07T12:23:43Z</time>
      </trkpt>
      <trkpt lat="47.89426" lon="-3.91587">
        <ele>65.5</ele>
        <time>2022-12-07T12:23:44Z</time>
      </trkpt>
      <trkpt lat="47.89428" lon="-3.91581">
        <ele>65.5</ele>
        <time>2022-12-07T12:23:45Z</time>
      </trkpt>
      <trkpt lat="47.8943" lon="-3.91575">
        <ele>65.6</ele>
        <time>2022-12-07T12:23:46Z</time>
      </trkpt>
      <trkpt lat="47.89432" lon="-3.91569">
        <ele>65.6</ele>
        <time>2022-12-07T12:23:47Z</time>
      </trkpt>
      <trkpt lat="47.89434" lon="-3.91562">
        <ele>65.6</ele>
        <time>2022-12-07T12:23:48Z</time>
      </trkpt>
      <trkpt lat="47.89436" lon="-3.91552">
        <ele>65.7</ele>
        <time>2022-12-07T12:23:50Z</time>
      </trkpt>
      <trkpt lat="47.89436" lon="-3.91542">
        <ele>65.7</ele>
        <time>2022-12-07T12:23:51Z</time>
      </trkpt>
      <trkpt lat="47.89437" lon="-3.91534">
        <ele>65.7</ele>
        <time>2022-12-07T12:23:52Z</time>
      </trkpt>
      <trkpt lat="47.89437" lon="-3.91527">
        <ele>65.7</ele>
        <time>2022-12-07T12:23:53Z</time>
      </trkpt>
      <trkpt lat="47.89438" lon="-3.91519">
        <ele>65.7</ele>
        <time>2022-12-07T12:23:54Z</time>
      </trkpt>
      <trkpt lat="47.89438" lon="-3.91512">
        <ele>65.7</ele>
        <time>2022-12-07T12:23:55Z</time>
      </trkpt>
      <trkpt lat="47.89439" lon="-3.91503">
        <ele>65.7</ele>
        <time>2022-12-07T12:23:56Z</time>
      </trkpt>
      <trkpt lat="47.8944" lon="-3.91494">
        <ele>65.7</ele>
        <time>2022-12-07T12:23:57Z</time>
      </trkpt>
      <trkpt lat="47.8944" lon="-3.91485">
        <ele>65.7</ele>
        <time>2022-12-07T12:23:58Z</time>
      </trkpt>
      <trkpt lat="47.89439" lon="-3.91476">
        <ele>65.7</ele>
        <time>2022-12-07T12:23:59Z</time>
      </trkpt>
      <trkpt lat="47.89438" lon="-3.91468">
        <ele>65.7</ele>
        <time>2022-12-07T12:24:00Z</time>
      </trkpt>
      <trkpt lat="47.89436" lon="-3.91461">
        <ele>65.7</ele>
        <time>2022-12-07T12:24:01Z</time>
      </trkpt>
      <trkpt lat="47.89434" lon="-3.91454">
        <ele>65.7</ele>
        <time>2022-12-07T12:24:02Z</time>
      </trkpt>
      <trkpt lat="47.89431" lon="-3.91447">
        <ele>65.7</ele>
        <time>2022-12-07T12:24:03Z</time>
      </trkpt>
      <trkpt lat="47.89428" lon="-3.9144">
        <ele>65.7</ele>
        <time>2022-12-07T12:24:04Z</time>
      </trkpt>
      <trkpt lat="47.89424" lon="-3.91434">
        <ele>65.6</ele>
        <time>2022-12-07T12:24:05Z</time>
      </trkpt>
      <trkpt lat="47.8942" lon="-3.91428">
        <ele>65.4</ele>
        <time>2022-12-07T12:24:06Z</time>
      </trkpt>
      <trkpt lat="47.89417" lon="-3.91422">
        <ele>65.2</ele>
        <time>2022-12-07T12:24:07Z</time>
      </trkpt>
      <trkpt lat="47.89414" lon="-3.91415">
        <ele>65</ele>
        <time>2022-12-07T12:24:08Z</time>
      </trkpt>
      <trkpt lat="47.89413" lon="-3.91407">
        <ele>64.8</ele>
        <time>2022-12-07T12:24:09Z</time>
      </trkpt>
      <trkpt lat="47.89412" lon="-3.914">
        <ele>64.8</ele>
        <time>2022-12-07T12:24:10Z</time>
      </trkpt>
      <trkpt lat="47.89413" lon="-3.91393">
        <ele>64.8</ele>
        <time>2022-12-07T12:24:11Z</time>
      </trkpt>
      <trkpt lat="47.89413" lon="-3.91388">
        <ele>64.8</ele>
        <time>2022-12-07T12:24:12Z</time>
      </trkpt>
      <trkpt lat="47.89411" lon="-3.91385">
        <ele>64.7</ele>
        <time>2022-12-07T12:24:13Z</time>
      </trkpt>
      <trkpt lat="47.89408" lon="-3.91382">
        <ele>65.5</ele>
        <time>2022-12-07T12:24:14Z</time>
      </trkpt>
      <trkpt lat="47.89407" lon="-3.91379">
        <ele>65.5</ele>
        <time>2022-12-07T12:24:15Z</time>
      </trkpt>
      <trkpt lat="47.89406" lon="-3.91375">
        <ele>65.6</ele>
        <time>2022-12-07T12:24:16Z</time>
      </trkpt>
      <trkpt lat="47.89407" lon="-3.91371">
        <ele>65.7</ele>
        <time>2022-12-07T12:24:17Z</time>
      </trkpt>
      <trkpt lat="47.89411" lon="-3.91366">
        <ele>65.8</ele>
        <time>2022-12-07T12:24:18Z</time>
      </trkpt>
      <trkpt lat="47.89416" lon="-3.91363">
        <ele>65.9</ele>
        <time>2022-12-07T12:24:19Z</time>
      </trkpt>
      <trkpt lat="47.89422" lon="-3.91358">
        <ele>66.1</ele>
        <time>2022-12-07T12:24:20Z</time>
      </trkpt>
      <trkpt lat="47.89426" lon="-3.91353">
        <ele>66.2</ele>
        <time>2022-12-07T12:24:21Z</time>
      </trkpt>
      <trkpt lat="47.8943" lon="-3.91348">
        <ele>66.3</ele>
        <time>2022-12-07T12:24:22Z</time>
      </trkpt>
      <trkpt lat="47.89434" lon="-3.91343">
        <ele>66.4</ele>
        <time>2022-12-07T12:24:23Z</time>
      </trkpt>
      <trkpt lat="47.89438" lon="-3.91339">
        <ele>66.5</ele>
        <time>2022-12-07T12:24:24Z</time>
      </trkpt>
      <trkpt lat="47.89442" lon="-3.91334">
        <ele>66.7</ele>
        <time>2022-12-07T12:24:25Z</time>
      </trkpt>
      <trkpt lat="47.89446" lon="-3.9133">
        <ele>66.8</ele>
        <time>2022-12-07T12:24:26Z</time>
      </trkpt>
      <trkpt lat="47.8945" lon="-3.91324">
        <ele>66.9</ele>
        <time>2022-12-07T12:24:27Z</time>
      </trkpt>
      <trkpt lat="47.89454" lon="-3.91319">
        <ele>67.1</ele>
        <time>2022-12-07T12:24:28Z</time>
      </trkpt>
      <trkpt lat="47.89458" lon="-3.91315">
        <ele>67.2</ele>
        <time>2022-12-07T12:24:29Z</time>
      </trkpt>
      <trkpt lat="47.89461" lon="-3.9131">
        <ele>67.3</ele>
        <time>2022-12-07T12:24:30Z</time>
      </trkpt>
      <trkpt lat="47.89465" lon="-3.91305">
        <ele>67.5</ele>
        <time>2022-12-07T12:24:31Z</time>
      </trkpt>
      <trkpt lat="47.89469" lon="-3.91301">
        <ele>67.7</ele>
        <time>2022-12-07T12:24:32Z</time>
      </trkpt>
      <trkpt lat="47.89472" lon="-3.91296">
        <ele>67.8</ele>
        <time>2022-12-07T12:24:33Z</time>
      </trkpt>
      <trkpt lat="47.89475" lon="-3.9129">
        <ele>68</ele>
        <time>2022-12-07T12:24:34Z</time>
      </trkpt>
      <trkpt lat="47.89478" lon="-3.91286">
        <ele>68.1</ele>
        <time>2022-12-07T12:24:35Z</time>
      </trkpt>
      <trkpt lat="47.89482" lon="-3.91282">
        <ele>68.3</ele>
        <time>2022-12-07T12:24:36Z</time>
      </trkpt>
      <trkpt lat="47.89485" lon="-3.91277">
        <ele>68.4</ele>
        <time>2022-12-07T12:24:37Z</time>
      </trkpt>
      <trkpt lat="47.89488" lon="-3.91273">
        <ele>68.5</ele>
        <time>2022-12-07T12:24:38Z</time>
      </trkpt>
      <trkpt lat="47.89492" lon="-3.91268">
        <ele>68.7</ele>
        <time>2022-12-07T12:24:39Z</time>
      </trkpt>
      <trkpt lat="47.89496" lon="-3.91263">
        <ele>68.8</ele>
        <time>2022-12-07T12:24:40Z</time>
      </trkpt>
      <trkpt lat="47.89499" lon="-3.91259">
        <ele>69</ele>
        <time>2022-12-07T12:24:41Z</time>
      </trkpt>
      <trkpt lat="47.89503" lon="-3.91256">
        <ele>69.1</ele>
        <time>2022-12-07T12:24:42Z</time>
      </trkpt>
      <trkpt lat="47.89506" lon="-3.91254">
        <ele>69.2</ele>
        <time>2022-12-07T12:24:43Z</time>
      </trkpt>
      <trkpt lat="47.89511" lon="-3.91249">
        <ele>69.4</ele>
        <time>2022-12-07T12:24:44Z</time>
      </trkpt>
      <trkpt lat="47.89515" lon="-3.91247">
        <ele>69.6</ele>
        <time>2022-12-07T12:24:45Z</time>
      </trkpt>
      <trkpt lat="47.89516" lon="-3.91245">
        <ele>69.6</ele>
        <time>2022-12-07T12:24:46Z</time>
      </trkpt>
      <trkpt lat="47.89521" lon="-3.9124">
        <ele>69.8</ele>
        <time>2022-12-07T12:24:47Z</time>
      </trkpt>
      <trkpt lat="47.89524" lon="-3.91236">
        <ele>70</ele>
        <time>2022-12-07T12:24:48Z</time>
      </trkpt>
      <trkpt lat="47.89528" lon="-3.91231">
        <ele>70.2</ele>
        <time>2022-12-07T12:24:50Z</time>
      </trkpt>
      <trkpt lat="47.89532" lon="-3.91226">
        <ele>70.4</ele>
        <time>2022-12-07T12:24:51Z</time>
      </trkpt>
      <trkpt lat="47.89536" lon="-3.91221">
        <ele>70.6</ele>
        <time>2022-12-07T12:24:52Z</time>
      </trkpt>
      <trkpt lat="47.89539" lon="-3.91217">
        <ele>70.7</ele>
        <time>2022-12-07T12:24:53Z</time>
      </trkpt>
      <trkpt lat="47.89542" lon="-3.91213">
        <ele>70.9</ele>
        <time>2022-12-07T12:24:54Z</time>
      </trkpt>
      <trkpt lat="47.89546" lon="-3.91209">
        <ele>71.1</ele>
        <time>2022-12-07T12:24:55Z</time>
      </trkpt>
      <trkpt lat="47.89551" lon="-3.91202">
        <ele>71.4</ele>
        <time>2022-12-07T12:24:57Z</time>
      </trkpt>
      <trkpt lat="47.89557" lon="-3.91196">
        <ele>71.6</ele>
        <time>2022-12-07T12:24:58Z</time>
      </trkpt>
      <trkpt lat="47.8956" lon="-3.91192">
        <ele>71.8</ele>
        <time>2022-12-07T12:24:59Z</time>
      </trkpt>
      <trkpt lat="47.89563" lon="-3.91188">
        <ele>72</ele>
        <time>2022-12-07T12:25:00Z</time>
      </trkpt>
      <trkpt lat="47.89566" lon="-3.91184">
        <ele>72.2</ele>
        <time>2022-12-07T12:25:01Z</time>
      </trkpt>
      <trkpt lat="47.89568" lon="-3.9118">
        <ele>72.3</ele>
        <time>2022-12-07T12:25:02Z</time>
      </trkpt>
      <trkpt lat="47.89571" lon="-3.91175">
        <ele>72.5</ele>
        <time>2022-12-07T12:25:03Z</time>
      </trkpt>
      <trkpt lat="47.89574" lon="-3.91172">
        <ele>72.6</ele>
        <time>2022-12-07T12:25:04Z</time>
      </trkpt>
      <trkpt lat="47.89577" lon="-3.91167">
        <ele>72.8</ele>
        <time>2022-12-07T12:25:05Z</time>
      </trkpt>
      <trkpt lat="47.8958" lon="-3.91163">
        <ele>72.9</ele>
        <time>2022-12-07T12:25:06Z</time>
      </trkpt>
      <trkpt lat="47.89583" lon="-3.91158">
        <ele>73.1</ele>
        <time>2022-12-07T12:25:07Z</time>
      </trkpt>
      <trkpt lat="47.89586" lon="-3.91154">
        <ele>73.2</ele>
        <time>2022-12-07T12:25:08Z</time>
      </trkpt>
      <trkpt lat="47.89589" lon="-3.91149">
        <ele>73.4</ele>
        <time>2022-12-07T12:25:09Z</time>
      </trkpt>
      <trkpt lat="47.89592" lon="-3.91144">
        <ele>73.5</ele>
        <time>2022-12-07T12:25:10Z</time>
      </trkpt>
      <trkpt lat="47.89594" lon="-3.9114">
        <ele>73.7</ele>
        <time>2022-12-07T12:25:11Z</time>
      </trkpt>
      <trkpt lat="47.89601" lon="-3.91137">
        <ele>73.8</ele>
        <time>2022-12-07T12:25:13Z</time>
      </trkpt>
      <trkpt lat="47.89604" lon="-3.91134">
        <ele>73.9</ele>
        <time>2022-12-07T12:25:14Z</time>
      </trkpt>
      <trkpt lat="47.89607" lon="-3.9113">
        <ele>73.9</ele>
        <time>2022-12-07T12:25:15Z</time>
      </trkpt>
      <trkpt lat="47.89609" lon="-3.91125">
        <ele>73.9</ele>
        <time>2022-12-07T12:25:16Z</time>
      </trkpt>
      <trkpt lat="47.89612" lon="-3.91121">
        <ele>74</ele>
        <time>2022-12-07T12:25:17Z</time>
      </trkpt>
      <trkpt lat="47.89615" lon="-3.91118">
        <ele>74</ele>
        <time>2022-12-07T12:25:18Z</time>
      </trkpt>
      <trkpt lat="47.89618" lon="-3.91115">
        <ele>74.1</ele>
        <time>2022-12-07T12:25:19Z</time>
      </trkpt>
      <trkpt lat="47.89621" lon="-3.91112">
        <ele>74.1</ele>
        <time>2022-12-07T12:25:20Z</time>
      </trkpt>
      <trkpt lat="47.89625" lon="-3.91111">
        <ele>74.1</ele>
        <time>2022-12-07T12:25:21Z</time>
      </trkpt>
      <trkpt lat="47.89628" lon="-3.91106">
        <ele>74.1</ele>
        <time>2022-12-07T12:25:22Z</time>
      </trkpt>
      <trkpt lat="47.89629" lon="-3.91101">
        <ele>74.1</ele>
        <time>2022-12-07T12:25:23Z</time>
      </trkpt>
      <trkpt lat="47.89632" lon="-3.91097">
        <ele>74.1</ele>
        <time>2022-12-07T12:25:24Z</time>
      </trkpt>
      <trkpt lat="47.89636" lon="-3.91093">
        <ele>74.2</ele>
        <time>2022-12-07T12:25:25Z</time>
      </trkpt>
      <trkpt lat="47.8964" lon="-3.91092">
        <ele>74.2</ele>
        <time>2022-12-07T12:25:26Z</time>
      </trkpt>
      <trkpt lat="47.89644" lon="-3.91091">
        <ele>74.2</ele>
        <time>2022-12-07T12:25:27Z</time>
      </trkpt>
      <trkpt lat="47.89647" lon="-3.91089">
        <ele>74.4</ele>
        <time>2022-12-07T12:25:28Z</time>
      </trkpt>
      <trkpt lat="47.8965" lon="-3.91086">
        <ele>74.5</ele>
        <time>2022-12-07T12:25:29Z</time>
      </trkpt>
      <trkpt lat="47.89653" lon="-3.91084">
        <ele>74.6</ele>
        <time>2022-12-07T12:25:30Z</time>
      </trkpt>
      <trkpt lat="47.89657" lon="-3.91082">
        <ele>74.7</ele>
        <time>2022-12-07T12:25:31Z</time>
      </trkpt>
      <trkpt lat="47.8966" lon="-3.91079">
        <ele>74.8</ele>
        <time>2022-12-07T12:25:32Z</time>
      </trkpt>
      <trkpt lat="47.89663" lon="-3.91077">
        <ele>74.9</ele>
        <time>2022-12-07T12:25:33Z</time>
      </trkpt>
      <trkpt lat="47.89667" lon="-3.91074">
        <ele>75.1</ele>
        <time>2022-12-07T12:25:34Z</time>
      </trkpt>
      <trkpt lat="47.89669" lon="-3.91072">
        <ele>75.2</ele>
        <time>2022-12-07T12:25:35Z</time>
      </trkpt>
      <trkpt lat="47.89673" lon="-3.91067">
        <ele>75.3</ele>
        <time>2022-12-07T12:25:36Z</time>
      </trkpt>
      <trkpt lat="47.89676" lon="-3.91063">
        <ele>75.4</ele>
        <time>2022-12-07T12:25:37Z</time>
      </trkpt>
      <trkpt lat="47.89679" lon="-3.91059">
        <ele>75.5</ele>
        <time>2022-12-07T12:25:38Z</time>
      </trkpt>
      <trkpt lat="47.89683" lon="-3.91056">
        <ele>75.7</ele>
        <time>2022-12-07T12:25:39Z</time>
      </trkpt>
      <trkpt lat="47.89685" lon="-3.91054">
        <ele>75.8</ele>
        <time>2022-12-07T12:25:40Z</time>
      </trkpt>
      <trkpt lat="47.89688" lon="-3.91052">
        <ele>75.9</ele>
        <time>2022-12-07T12:25:41Z</time>
      </trkpt>
      <trkpt lat="47.89692" lon="-3.91049">
        <ele>76</ele>
        <time>2022-12-07T12:25:42Z</time>
      </trkpt>
      <trkpt lat="47.89695" lon="-3.91046">
        <ele>76.1</ele>
        <time>2022-12-07T12:25:43Z</time>
      </trkpt>
      <trkpt lat="47.89699" lon="-3.91042">
        <ele>76.2</ele>
        <time>2022-12-07T12:25:44Z</time>
      </trkpt>
      <trkpt lat="47.89703" lon="-3.9104">
        <ele>76.3</ele>
        <time>2022-12-07T12:25:45Z</time>
      </trkpt>
      <trkpt lat="47.89707" lon="-3.91037">
        <ele>76.4</ele>
        <time>2022-12-07T12:25:46Z</time>
      </trkpt>
      <trkpt lat="47.89711" lon="-3.91034">
        <ele>76.5</ele>
        <time>2022-12-07T12:25:47Z</time>
      </trkpt>
      <trkpt lat="47.89715" lon="-3.91033">
        <ele>76.5</ele>
        <time>2022-12-07T12:25:48Z</time>
      </trkpt>
      <trkpt lat="47.89719" lon="-3.9103">
        <ele>76.6</ele>
        <time>2022-12-07T12:25:49Z</time>
      </trkpt>
      <trkpt lat="47.89724" lon="-3.91028">
        <ele>76.7</ele>
        <time>2022-12-07T12:25:50Z</time>
      </trkpt>
      <trkpt lat="47.89727" lon="-3.91026">
        <ele>76.8</ele>
        <time>2022-12-07T12:25:51Z</time>
      </trkpt>
      <trkpt lat="47.89732" lon="-3.91023">
        <ele>76.8</ele>
        <time>2022-12-07T12:25:52Z</time>
      </trkpt>
      <trkpt lat="47.89737" lon="-3.91021">
        <ele>76.9</ele>
        <time>2022-12-07T12:25:53Z</time>
      </trkpt>
      <trkpt lat="47.89742" lon="-3.91019">
        <ele>77</ele>
        <time>2022-12-07T12:25:54Z</time>
      </trkpt>
      <trkpt lat="47.89746" lon="-3.91017">
        <ele>77</ele>
        <time>2022-12-07T12:25:55Z</time>
      </trkpt>
      <trkpt lat="47.8975" lon="-3.91014">
        <ele>77.1</ele>
        <time>2022-12-07T12:25:56Z</time>
      </trkpt>
      <trkpt lat="47.89755" lon="-3.91012">
        <ele>77.1</ele>
        <time>2022-12-07T12:25:57Z</time>
      </trkpt>
      <trkpt lat="47.8976" lon="-3.9101">
        <ele>77.1</ele>
        <time>2022-12-07T12:25:58Z</time>
      </trkpt>
      <trkpt lat="47.89764" lon="-3.91008">
        <ele>77.1</ele>
        <time>2022-12-07T12:25:59Z</time>
      </trkpt>
      <trkpt lat="47.89769" lon="-3.91006">
        <ele>77.2</ele>
        <time>2022-12-07T12:26:00Z</time>
      </trkpt>
      <trkpt lat="47.89773" lon="-3.91004">
        <ele>77.2</ele>
        <time>2022-12-07T12:26:01Z</time>
      </trkpt>
      <trkpt lat="47.89778" lon="-3.91002">
        <ele>77.2</ele>
        <time>2022-12-07T12:26:02Z</time>
      </trkpt>
      <trkpt lat="47.89783" lon="-3.91">
        <ele>77.3</ele>
        <time>2022-12-07T12:26:03Z</time>
      </trkpt>
      <trkpt lat="47.89788" lon="-3.90997">
        <ele>77.3</ele>
        <time>2022-12-07T12:26:04Z</time>
      </trkpt>
      <trkpt lat="47.89793" lon="-3.90995">
        <ele>77.3</ele>
        <time>2022-12-07T12:26:05Z</time>
      </trkpt>
      <trkpt lat="47.89797" lon="-3.90993">
        <ele>77.2</ele>
        <time>2022-12-07T12:26:06Z</time>
      </trkpt>
      <trkpt lat="47.89802" lon="-3.9099">
        <ele>77.2</ele>
        <time>2022-12-07T12:26:07Z</time>
      </trkpt>
      <trkpt lat="47.89807" lon="-3.90987">
        <ele>77.2</ele>
        <time>2022-12-07T12:26:08Z</time>
      </trkpt>
      <trkpt lat="47.89812" lon="-3.90984">
        <ele>77.2</ele>
        <time>2022-12-07T12:26:09Z</time>
      </trkpt>
      <trkpt lat="47.89816" lon="-3.90982">
        <ele>77.2</ele>
        <time>2022-12-07T12:26:10Z</time>
      </trkpt>
      <trkpt lat="47.89821" lon="-3.9098">
        <ele>77.2</ele>
        <time>2022-12-07T12:26:11Z</time>
      </trkpt>
      <trkpt lat="47.89826" lon="-3.90977">
        <ele>77.2</ele>
        <time>2022-12-07T12:26:12Z</time>
      </trkpt>
      <trkpt lat="47.89831" lon="-3.90975">
        <ele>77.2</ele>
        <time>2022-12-07T12:26:13Z</time>
      </trkpt>
      <trkpt lat="47.89836" lon="-3.90973">
        <ele>77.2</ele>
        <time>2022-12-07T12:26:14Z</time>
      </trkpt>
      <trkpt lat="47.89841" lon="-3.9097">
        <ele>77.2</ele>
        <time>2022-12-07T12:26:15Z</time>
      </trkpt>
      <trkpt lat="47.89846" lon="-3.90968">
        <ele>77.2</ele>
        <time>2022-12-07T12:26:16Z</time>
      </trkpt>
      <trkpt lat="47.8985" lon="-3.90966">
        <ele>77.3</ele>
        <time>2022-12-07T12:26:17Z</time>
      </trkpt>
      <trkpt lat="47.89855" lon="-3.90964">
        <ele>77.3</ele>
        <time>2022-12-07T12:26:18Z</time>
      </trkpt>
      <trkpt lat="47.8986" lon="-3.90963">
        <ele>77.3</ele>
        <time>2022-12-07T12:26:19Z</time>
      </trkpt>
      <trkpt lat="47.89865" lon="-3.90961">
        <ele>77.3</ele>
        <time>2022-12-07T12:26:20Z</time>
      </trkpt>
      <trkpt lat="47.8987" lon="-3.9096">
        <ele>77.3</ele>
        <time>2022-12-07T12:26:21Z</time>
      </trkpt>
      <trkpt lat="47.89875" lon="-3.90959">
        <ele>77.3</ele>
        <time>2022-12-07T12:26:22Z</time>
      </trkpt>
      <trkpt lat="47.89879" lon="-3.90957">
        <ele>77.4</ele>
        <time>2022-12-07T12:26:23Z</time>
      </trkpt>
      <trkpt lat="47.89884" lon="-3.90956">
        <ele>77.4</ele>
        <time>2022-12-07T12:26:24Z</time>
      </trkpt>
      <trkpt lat="47.89888" lon="-3.90955">
        <ele>77.4</ele>
        <time>2022-12-07T12:26:25Z</time>
      </trkpt>
      <trkpt lat="47.89894" lon="-3.90954">
        <ele>77.4</ele>
        <time>2022-12-07T12:26:26Z</time>
      </trkpt>
      <trkpt lat="47.89899" lon="-3.90953">
        <ele>77.4</ele>
        <time>2022-12-07T12:26:27Z</time>
      </trkpt>
      <trkpt lat="47.89904" lon="-3.90952">
        <ele>77.4</ele>
        <time>2022-12-07T12:26:28Z</time>
      </trkpt>
      <trkpt lat="47.89909" lon="-3.9095">
        <ele>77.3</ele>
        <time>2022-12-07T12:26:29Z</time>
      </trkpt>
      <trkpt lat="47.89914" lon="-3.90949">
        <ele>77.2</ele>
        <time>2022-12-07T12:26:30Z</time>
      </trkpt>
      <trkpt lat="47.89919" lon="-3.90948">
        <ele>77.1</ele>
        <time>2022-12-07T12:26:31Z</time>
      </trkpt>
      <trkpt lat="47.89924" lon="-3.90946">
        <ele>77.1</ele>
        <time>2022-12-07T12:26:32Z</time>
      </trkpt>
      <trkpt lat="47.89929" lon="-3.90944">
        <ele>77</ele>
        <time>2022-12-07T12:26:33Z</time>
      </trkpt>
      <trkpt lat="47.89934" lon="-3.90942">
        <ele>77</ele>
        <time>2022-12-07T12:26:34Z</time>
      </trkpt>
      <trkpt lat="47.89939" lon="-3.9094">
        <ele>77</ele>
        <time>2022-12-07T12:26:35Z</time>
      </trkpt>
      <trkpt lat="47.89944" lon="-3.90936">
        <ele>77</ele>
        <time>2022-12-07T12:26:36Z</time>
      </trkpt>
      <trkpt lat="47.89947" lon="-3.90932">
        <ele>76.9</ele>
        <time>2022-12-07T12:26:37Z</time>
      </trkpt>
      <trkpt lat="47.89949" lon="-3.90925">
        <ele>76.9</ele>
        <time>2022-12-07T12:26:38Z</time>
      </trkpt>
      <trkpt lat="47.89948" lon="-3.90919">
        <ele>76.9</ele>
        <time>2022-12-07T12:26:39Z</time>
      </trkpt>
      <trkpt lat="47.89945" lon="-3.90914">
        <ele>76.9</ele>
        <time>2022-12-07T12:26:40Z</time>
      </trkpt>
      <trkpt lat="47.89942" lon="-3.90908">
        <ele>76.9</ele>
        <time>2022-12-07T12:26:41Z</time>
      </trkpt>
      <trkpt lat="47.89939" lon="-3.90903">
        <ele>76.8</ele>
        <time>2022-12-07T12:26:42Z</time>
      </trkpt>
      <trkpt lat="47.89935" lon="-3.90897">
        <ele>76.8</ele>
        <time>2022-12-07T12:26:43Z</time>
      </trkpt>
      <trkpt lat="47.89932" lon="-3.90891">
        <ele>76.7</ele>
        <time>2022-12-07T12:26:44Z</time>
      </trkpt>
      <trkpt lat="47.89929" lon="-3.90885">
        <ele>76.6</ele>
        <time>2022-12-07T12:26:45Z</time>
      </trkpt>
      <trkpt lat="47.89925" lon="-3.90879">
        <ele>76.6</ele>
        <time>2022-12-07T12:26:46Z</time>
      </trkpt>
      <trkpt lat="47.89922" lon="-3.90873">
        <ele>76.5</ele>
        <time>2022-12-07T12:26:47Z</time>
      </trkpt>
      <trkpt lat="47.89918" lon="-3.90866">
        <ele>76.5</ele>
        <time>2022-12-07T12:26:48Z</time>
      </trkpt>
      <trkpt lat="47.89915" lon="-3.9086">
        <ele>76.4</ele>
        <time>2022-12-07T12:26:49Z</time>
      </trkpt>
      <trkpt lat="47.89911" lon="-3.90854">
        <ele>76.4</ele>
        <time>2022-12-07T12:26:50Z</time>
      </trkpt>
      <trkpt lat="47.89907" lon="-3.90847">
        <ele>76.4</ele>
        <time>2022-12-07T12:26:51Z</time>
      </trkpt>
      <trkpt lat="47.89904" lon="-3.90841">
        <ele>76.3</ele>
        <time>2022-12-07T12:26:52Z</time>
      </trkpt>
      <trkpt lat="47.899" lon="-3.90834">
        <ele>76.3</ele>
        <time>2022-12-07T12:26:53Z</time>
      </trkpt>
      <trkpt lat="47.89896" lon="-3.90827">
        <ele>76.3</ele>
        <time>2022-12-07T12:26:54Z</time>
      </trkpt>
      <trkpt lat="47.89893" lon="-3.90821">
        <ele>76.3</ele>
        <time>2022-12-07T12:26:55Z</time>
      </trkpt>
      <trkpt lat="47.89889" lon="-3.90814">
        <ele>76.3</ele>
        <time>2022-12-07T12:26:56Z</time>
      </trkpt>
      <trkpt lat="47.89885" lon="-3.90807">
        <ele>76.3</ele>
        <time>2022-12-07T12:26:57Z</time>
      </trkpt>
      <trkpt lat="47.89881" lon="-3.90801">
        <ele>76.3</ele>
        <time>2022-12-07T12:26:58Z</time>
      </trkpt>
      <trkpt lat="47.89877" lon="-3.90795">
        <ele>76.3</ele>
        <time>2022-12-07T12:26:59Z</time>
      </trkpt>
      <trkpt lat="47.89873" lon="-3.90788">
        <ele>76.3</ele>
        <time>2022-12-07T12:27:00Z</time>
      </trkpt>
      <trkpt lat="47.89869" lon="-3.90783">
        <ele>76.3</ele>
        <time>2022-12-07T12:27:01Z</time>
      </trkpt>
      <trkpt lat="47.89865" lon="-3.90777">
        <ele>76.3</ele>
        <time>2022-12-07T12:27:02Z</time>
      </trkpt>
      <trkpt lat="47.8986" lon="-3.90773">
        <ele>76.4</ele>
        <time>2022-12-07T12:27:03Z</time>
      </trkpt>
      <trkpt lat="47.89855" lon="-3.90769">
        <ele>76.5</ele>
        <time>2022-12-07T12:27:04Z</time>
      </trkpt>
      <trkpt lat="47.89849" lon="-3.90766">
        <ele>76.5</ele>
        <time>2022-12-07T12:27:05Z</time>
      </trkpt>
      <trkpt lat="47.89843" lon="-3.90763">
        <ele>76.6</ele>
        <time>2022-12-07T12:27:06Z</time>
      </trkpt>
      <trkpt lat="47.89838" lon="-3.90761">
        <ele>76.6</ele>
        <time>2022-12-07T12:27:07Z</time>
      </trkpt>
      <trkpt lat="47.89832" lon="-3.9076">
        <ele>76.7</ele>
        <time>2022-12-07T12:27:08Z</time>
      </trkpt>
      <trkpt lat="47.89826" lon="-3.90759">
        <ele>76.7</ele>
        <time>2022-12-07T12:27:09Z</time>
      </trkpt>
      <trkpt lat="47.89821" lon="-3.90758">
        <ele>76.8</ele>
        <time>2022-12-07T12:27:10Z</time>
      </trkpt>
      <trkpt lat="47.89815" lon="-3.90757">
        <ele>76.9</ele>
        <time>2022-12-07T12:27:11Z</time>
      </trkpt>
      <trkpt lat="47.8981" lon="-3.90757">
        <ele>76.9</ele>
        <time>2022-12-07T12:27:12Z</time>
      </trkpt>
      <trkpt lat="47.89804" lon="-3.90757">
        <ele>77</ele>
        <time>2022-12-07T12:27:13Z</time>
      </trkpt>
      <trkpt lat="47.89798" lon="-3.90756">
        <ele>77.1</ele>
        <time>2022-12-07T12:27:14Z</time>
      </trkpt>
      <trkpt lat="47.89793" lon="-3.90756">
        <ele>77.1</ele>
        <time>2022-12-07T12:27:15Z</time>
      </trkpt>
      <trkpt lat="47.89787" lon="-3.90755">
        <ele>77.2</ele>
        <time>2022-12-07T12:27:16Z</time>
      </trkpt>
      <trkpt lat="47.89781" lon="-3.90755">
        <ele>77.2</ele>
        <time>2022-12-07T12:27:17Z</time>
      </trkpt>
      <trkpt lat="47.89776" lon="-3.90755">
        <ele>77.3</ele>
        <time>2022-12-07T12:27:18Z</time>
      </trkpt>
      <trkpt lat="47.8977" lon="-3.90755">
        <ele>77.3</ele>
        <time>2022-12-07T12:27:19Z</time>
      </trkpt>
      <trkpt lat="47.89765" lon="-3.90755">
        <ele>77.4</ele>
        <time>2022-12-07T12:27:20Z</time>
      </trkpt>
      <trkpt lat="47.8976" lon="-3.90754">
        <ele>77.5</ele>
        <time>2022-12-07T12:27:21Z</time>
      </trkpt>
      <trkpt lat="47.89754" lon="-3.90754">
        <ele>77.5</ele>
        <time>2022-12-07T12:27:22Z</time>
      </trkpt>
      <trkpt lat="47.89748" lon="-3.90754">
        <ele>77.6</ele>
        <time>2022-12-07T12:27:23Z</time>
      </trkpt>
      <trkpt lat="47.89743" lon="-3.90753">
        <ele>77.7</ele>
        <time>2022-12-07T12:27:24Z</time>
      </trkpt>
      <trkpt lat="47.89737" lon="-3.90753">
        <ele>77.7</ele>
        <time>2022-12-07T12:27:25Z</time>
      </trkpt>
      <trkpt lat="47.89732" lon="-3.90752">
        <ele>77.8</ele>
        <time>2022-12-07T12:27:26Z</time>
      </trkpt>
      <trkpt lat="47.89726" lon="-3.90751">
        <ele>77.9</ele>
        <time>2022-12-07T12:27:27Z</time>
      </trkpt>
      <trkpt lat="47.89721" lon="-3.9075">
        <ele>77.9</ele>
        <time>2022-12-07T12:27:28Z</time>
      </trkpt>
      <trkpt lat="47.89716" lon="-3.90749">
        <ele>77.9</ele>
        <time>2022-12-07T12:27:29Z</time>
      </trkpt>
      <trkpt lat="47.8971" lon="-3.90747">
        <ele>78</ele>
        <time>2022-12-07T12:27:30Z</time>
      </trkpt>
      <trkpt lat="47.89705" lon="-3.90745">
        <ele>78</ele>
        <time>2022-12-07T12:27:31Z</time>
      </trkpt>
      <trkpt lat="47.897" lon="-3.90743">
        <ele>78</ele>
        <time>2022-12-07T12:27:32Z</time>
      </trkpt>
      <trkpt lat="47.89694" lon="-3.90741">
        <ele>78.1</ele>
        <time>2022-12-07T12:27:33Z</time>
      </trkpt>
      <trkpt lat="47.89689" lon="-3.90739">
        <ele>78.1</ele>
        <time>2022-12-07T12:27:34Z</time>
      </trkpt>
      <trkpt lat="47.89684" lon="-3.90736">
        <ele>78.1</ele>
        <time>2022-12-07T12:27:35Z</time>
      </trkpt>
      <trkpt lat="47.89678" lon="-3.90733">
        <ele>78.1</ele>
        <time>2022-12-07T12:27:36Z</time>
      </trkpt>
      <trkpt lat="47.89673" lon="-3.9073">
        <ele>78.2</ele>
        <time>2022-12-07T12:27:37Z</time>
      </trkpt>
      <trkpt lat="47.89668" lon="-3.90727">
        <ele>78.2</ele>
        <time>2022-12-07T12:27:38Z</time>
      </trkpt>
      <trkpt lat="47.89662" lon="-3.90724">
        <ele>78.1</ele>
        <time>2022-12-07T12:27:39Z</time>
      </trkpt>
      <trkpt lat="47.89657" lon="-3.9072">
        <ele>78.1</ele>
        <time>2022-12-07T12:27:40Z</time>
      </trkpt>
      <trkpt lat="47.89652" lon="-3.90716">
        <ele>78.1</ele>
        <time>2022-12-07T12:27:41Z</time>
      </trkpt>
      <trkpt lat="47.89647" lon="-3.90713">
        <ele>78</ele>
        <time>2022-12-07T12:27:42Z</time>
      </trkpt>
      <trkpt lat="47.89641" lon="-3.9071">
        <ele>77.9</ele>
        <time>2022-12-07T12:27:43Z</time>
      </trkpt>
      <trkpt lat="47.89636" lon="-3.90706">
        <ele>77.9</ele>
        <time>2022-12-07T12:27:44Z</time>
      </trkpt>
      <trkpt lat="47.89631" lon="-3.90703">
        <ele>77.8</ele>
        <time>2022-12-07T12:27:45Z</time>
      </trkpt>
      <trkpt lat="47.89625" lon="-3.90699">
        <ele>77.7</ele>
        <time>2022-12-07T12:27:46Z</time>
      </trkpt>
      <trkpt lat="47.89619" lon="-3.90696">
        <ele>77.5</ele>
        <time>2022-12-07T12:27:47Z</time>
      </trkpt>
      <trkpt lat="47.89613" lon="-3.90692">
        <ele>77.4</ele>
        <time>2022-12-07T12:27:48Z</time>
      </trkpt>
      <trkpt lat="47.89608" lon="-3.90688">
        <ele>77.3</ele>
        <time>2022-12-07T12:27:49Z</time>
      </trkpt>
      <trkpt lat="47.89602" lon="-3.90684">
        <ele>77.1</ele>
        <time>2022-12-07T12:27:50Z</time>
      </trkpt>
      <trkpt lat="47.89596" lon="-3.9068">
        <ele>77</ele>
        <time>2022-12-07T12:27:51Z</time>
      </trkpt>
      <trkpt lat="47.89591" lon="-3.90676">
        <ele>76.8</ele>
        <time>2022-12-07T12:27:52Z</time>
      </trkpt>
      <trkpt lat="47.89585" lon="-3.90671">
        <ele>76.7</ele>
        <time>2022-12-07T12:27:53Z</time>
      </trkpt>
      <trkpt lat="47.89579" lon="-3.90667">
        <ele>76.6</ele>
        <time>2022-12-07T12:27:54Z</time>
      </trkpt>
      <trkpt lat="47.89574" lon="-3.90663">
        <ele>76.4</ele>
        <time>2022-12-07T12:27:55Z</time>
      </trkpt>
      <trkpt lat="47.89568" lon="-3.90658">
        <ele>76.3</ele>
        <time>2022-12-07T12:27:56Z</time>
      </trkpt>
      <trkpt lat="47.89562" lon="-3.90653">
        <ele>76.1</ele>
        <time>2022-12-07T12:27:57Z</time>
      </trkpt>
      <trkpt lat="47.89557" lon="-3.90648">
        <ele>76</ele>
        <time>2022-12-07T12:27:58Z</time>
      </trkpt>
      <trkpt lat="47.89552" lon="-3.90643">
        <ele>75.8</ele>
        <time>2022-12-07T12:27:59Z</time>
      </trkpt>
      <trkpt lat="47.89547" lon="-3.90639">
        <ele>75.6</ele>
        <time>2022-12-07T12:28:00Z</time>
      </trkpt>
      <trkpt lat="47.89541" lon="-3.90634">
        <ele>75.4</ele>
        <time>2022-12-07T12:28:01Z</time>
      </trkpt>
      <trkpt lat="47.89536" lon="-3.90628">
        <ele>75.2</ele>
        <time>2022-12-07T12:28:02Z</time>
      </trkpt>
      <trkpt lat="47.8953" lon="-3.90623">
        <ele>74.9</ele>
        <time>2022-12-07T12:28:03Z</time>
      </trkpt>
      <trkpt lat="47.89524" lon="-3.90618">
        <ele>74.6</ele>
        <time>2022-12-07T12:28:04Z</time>
      </trkpt>
      <trkpt lat="47.89518" lon="-3.90614">
        <ele>74.3</ele>
        <time>2022-12-07T12:28:05Z</time>
      </trkpt>
      <trkpt lat="47.89512" lon="-3.90609">
        <ele>74</ele>
        <time>2022-12-07T12:28:06Z</time>
      </trkpt>
      <trkpt lat="47.89505" lon="-3.90605">
        <ele>73.6</ele>
        <time>2022-12-07T12:28:07Z</time>
      </trkpt>
      <trkpt lat="47.89499" lon="-3.90601">
        <ele>73.2</ele>
        <time>2022-12-07T12:28:08Z</time>
      </trkpt>
      <trkpt lat="47.89492" lon="-3.90596">
        <ele>72.8</ele>
        <time>2022-12-07T12:28:09Z</time>
      </trkpt>
      <trkpt lat="47.89486" lon="-3.90591">
        <ele>72.4</ele>
        <time>2022-12-07T12:28:10Z</time>
      </trkpt>
      <trkpt lat="47.8948" lon="-3.90587">
        <ele>72</ele>
        <time>2022-12-07T12:28:11Z</time>
      </trkpt>
      <trkpt lat="47.89473" lon="-3.90583">
        <ele>71.8</ele>
        <time>2022-12-07T12:28:12Z</time>
      </trkpt>
      <trkpt lat="47.89466" lon="-3.90578">
        <ele>71.5</ele>
        <time>2022-12-07T12:28:13Z</time>
      </trkpt>
      <trkpt lat="47.89458" lon="-3.90574">
        <ele>71.2</ele>
        <time>2022-12-07T12:28:14Z</time>
      </trkpt>
      <trkpt lat="47.89451" lon="-3.9057">
        <ele>71</ele>
        <time>2022-12-07T12:28:15Z</time>
      </trkpt>
      <trkpt lat="47.89444" lon="-3.90566">
        <ele>70.8</ele>
        <time>2022-12-07T12:28:16Z</time>
      </trkpt>
      <trkpt lat="47.89436" lon="-3.90561">
        <ele>70.6</ele>
        <time>2022-12-07T12:28:17Z</time>
      </trkpt>
      <trkpt lat="47.89428" lon="-3.90557">
        <ele>70.5</ele>
        <time>2022-12-07T12:28:18Z</time>
      </trkpt>
      <trkpt lat="47.89421" lon="-3.90554">
        <ele>70.4</ele>
        <time>2022-12-07T12:28:19Z</time>
      </trkpt>
      <trkpt lat="47.89416" lon="-3.90549">
        <ele>70.3</ele>
        <time>2022-12-07T12:28:20Z</time>
      </trkpt>
      <trkpt lat="47.89414" lon="-3.90541">
        <ele>70.5</ele>
        <time>2022-12-07T12:28:21Z</time>
      </trkpt>
      <trkpt lat="47.89414" lon="-3.90532">
        <ele>70.8</ele>
        <time>2022-12-07T12:28:22Z</time>
      </trkpt>
      <trkpt lat="47.89415" lon="-3.90523">
        <ele>71</ele>
        <time>2022-12-07T12:28:23Z</time>
      </trkpt>
      <trkpt lat="47.89416" lon="-3.90514">
        <ele>71.1</ele>
        <time>2022-12-07T12:28:24Z</time>
      </trkpt>
      <trkpt lat="47.89418" lon="-3.90506">
        <ele>71.2</ele>
        <time>2022-12-07T12:28:25Z</time>
      </trkpt>
      <trkpt lat="47.8942" lon="-3.90498">
        <ele>71.2</ele>
        <time>2022-12-07T12:28:26Z</time>
      </trkpt>
      <trkpt lat="47.89422" lon="-3.9049">
        <ele>71.3</ele>
        <time>2022-12-07T12:28:27Z</time>
      </trkpt>
      <trkpt lat="47.89423" lon="-3.90483">
        <ele>71.3</ele>
        <time>2022-12-07T12:28:28Z</time>
      </trkpt>
      <trkpt lat="47.89425" lon="-3.90475">
        <ele>71.5</ele>
        <time>2022-12-07T12:28:29Z</time>
      </trkpt>
      <trkpt lat="47.89427" lon="-3.90468">
        <ele>71.6</ele>
        <time>2022-12-07T12:28:30Z</time>
      </trkpt>
      <trkpt lat="47.89428" lon="-3.9046">
        <ele>71.7</ele>
        <time>2022-12-07T12:28:31Z</time>
      </trkpt>
      <trkpt lat="47.89429" lon="-3.90453">
        <ele>71.8</ele>
        <time>2022-12-07T12:28:32Z</time>
      </trkpt>
      <trkpt lat="47.8943" lon="-3.90445">
        <ele>71.9</ele>
        <time>2022-12-07T12:28:33Z</time>
      </trkpt>
      <trkpt lat="47.89431" lon="-3.90437">
        <ele>72</ele>
        <time>2022-12-07T12:28:34Z</time>
      </trkpt>
      <trkpt lat="47.89431" lon="-3.90429">
        <ele>72.2</ele>
        <time>2022-12-07T12:28:35Z</time>
      </trkpt>
      <trkpt lat="47.89432" lon="-3.90422">
        <ele>72.3</ele>
        <time>2022-12-07T12:28:36Z</time>
      </trkpt>
      <trkpt lat="47.89434" lon="-3.90414">
        <ele>72.4</ele>
        <time>2022-12-07T12:28:37Z</time>
      </trkpt>
      <trkpt lat="47.89435" lon="-3.90407">
        <ele>72.5</ele>
        <time>2022-12-07T12:28:38Z</time>
      </trkpt>
      <trkpt lat="47.89437" lon="-3.90399">
        <ele>72.7</ele>
        <time>2022-12-07T12:28:39Z</time>
      </trkpt>
      <trkpt lat="47.89438" lon="-3.90391">
        <ele>72.8</ele>
        <time>2022-12-07T12:28:40Z</time>
      </trkpt>
      <trkpt lat="47.89439" lon="-3.90383">
        <ele>72.9</ele>
        <time>2022-12-07T12:28:41Z</time>
      </trkpt>
      <trkpt lat="47.89441" lon="-3.90375">
        <ele>73.1</ele>
        <time>2022-12-07T12:28:42Z</time>
      </trkpt>
      <trkpt lat="47.89442" lon="-3.90367">
        <ele>73.2</ele>
        <time>2022-12-07T12:28:43Z</time>
      </trkpt>
      <trkpt lat="47.89442" lon="-3.90359">
        <ele>73.3</ele>
        <time>2022-12-07T12:28:44Z</time>
      </trkpt>
      <trkpt lat="47.89443" lon="-3.9035">
        <ele>73.4</ele>
        <time>2022-12-07T12:28:45Z</time>
      </trkpt>
      <trkpt lat="47.89444" lon="-3.90341">
        <ele>73.6</ele>
        <time>2022-12-07T12:28:46Z</time>
      </trkpt>
      <trkpt lat="47.89445" lon="-3.90333">
        <ele>73.6</ele>
        <time>2022-12-07T12:28:47Z</time>
      </trkpt>
      <trkpt lat="47.89445" lon="-3.90324">
        <ele>73.6</ele>
        <time>2022-12-07T12:28:48Z</time>
      </trkpt>
      <trkpt lat="47.89445" lon="-3.90316">
        <ele>73.6</ele>
        <time>2022-12-07T12:28:49Z</time>
      </trkpt>
      <trkpt lat="47.89445" lon="-3.90307">
        <ele>73.6</ele>
        <time>2022-12-07T12:28:50Z</time>
      </trkpt>
      <trkpt lat="47.89445" lon="-3.90298">
        <ele>73.6</ele>
        <time>2022-12-07T12:28:51Z</time>
      </trkpt>
      <trkpt lat="47.89445" lon="-3.90289">
        <ele>73.6</ele>
        <time>2022-12-07T12:28:52Z</time>
      </trkpt>
      <trkpt lat="47.89445" lon="-3.9028">
        <ele>73.5</ele>
        <time>2022-12-07T12:28:53Z</time>
      </trkpt>
      <trkpt lat="47.89446" lon="-3.90272">
        <ele>73.5</ele>
        <time>2022-12-07T12:28:54Z</time>
      </trkpt>
      <trkpt lat="47.89446" lon="-3.90265">
        <ele>73.5</ele>
        <time>2022-12-07T12:28:55Z</time>
      </trkpt>
      <trkpt lat="47.89446" lon="-3.90257">
        <ele>73.4</ele>
        <time>2022-12-07T12:28:56Z</time>
      </trkpt>
      <trkpt lat="47.89446" lon="-3.90249">
        <ele>73.4</ele>
        <time>2022-12-07T12:28:57Z</time>
      </trkpt>
      <trkpt lat="47.89446" lon="-3.90242">
        <ele>73.4</ele>
        <time>2022-12-07T12:28:58Z</time>
      </trkpt>
      <trkpt lat="47.89447" lon="-3.90234">
        <ele>73.4</ele>
        <time>2022-12-07T12:28:59Z</time>
      </trkpt>
      <trkpt lat="47.89447" lon="-3.90227">
        <ele>73.3</ele>
        <time>2022-12-07T12:29:00Z</time>
      </trkpt>
      <trkpt lat="47.89447" lon="-3.9022">
        <ele>73.3</ele>
        <time>2022-12-07T12:29:01Z</time>
      </trkpt>
      <trkpt lat="47.89446" lon="-3.90213">
        <ele>73.3</ele>
        <time>2022-12-07T12:29:02Z</time>
      </trkpt>
      <trkpt lat="47.89446" lon="-3.90206">
        <ele>73.3</ele>
        <time>2022-12-07T12:29:03Z</time>
      </trkpt>
      <trkpt lat="47.89446" lon="-3.902">
        <ele>73.4</ele>
        <time>2022-12-07T12:29:04Z</time>
      </trkpt>
      <trkpt lat="47.89446" lon="-3.90193">
        <ele>73.4</ele>
        <time>2022-12-07T12:29:05Z</time>
      </trkpt>
      <trkpt lat="47.89445" lon="-3.90187">
        <ele>73.5</ele>
        <time>2022-12-07T12:29:06Z</time>
      </trkpt>
      <trkpt lat="47.89445" lon="-3.90181">
        <ele>73.5</ele>
        <time>2022-12-07T12:29:07Z</time>
      </trkpt>
      <trkpt lat="47.89445" lon="-3.90175">
        <ele>73.6</ele>
        <time>2022-12-07T12:29:08Z</time>
      </trkpt>
      <trkpt lat="47.89445" lon="-3.90169">
        <ele>73.7</ele>
        <time>2022-12-07T12:29:09Z</time>
      </trkpt>
      <trkpt lat="47.89446" lon="-3.90164">
        <ele>73.8</ele>
        <time>2022-12-07T12:29:10Z</time>
      </trkpt>
      <trkpt lat="47.89446" lon="-3.90157">
        <ele>73.9</ele>
        <time>2022-12-07T12:29:11Z</time>
      </trkpt>
      <trkpt lat="47.89446" lon="-3.90151">
        <ele>74</ele>
        <time>2022-12-07T12:29:12Z</time>
      </trkpt>
      <trkpt lat="47.89446" lon="-3.90145">
        <ele>74.2</ele>
        <time>2022-12-07T12:29:13Z</time>
      </trkpt>
      <trkpt lat="47.89443" lon="-3.90141">
        <ele>74.1</ele>
        <time>2022-12-07T12:29:14Z</time>
      </trkpt>
      <trkpt lat="47.89441" lon="-3.90139">
        <ele>74</ele>
        <time>2022-12-07T12:29:15Z</time>
      </trkpt>
      <trkpt lat="47.89432" lon="-3.90138">
        <ele>73.4</ele>
        <time>2022-12-07T12:29:17Z</time>
      </trkpt>
      <trkpt lat="47.89426" lon="-3.90137">
        <ele>73</ele>
        <time>2022-12-07T12:29:18Z</time>
      </trkpt>
      <trkpt lat="47.8942" lon="-3.90136">
        <ele>72.5</ele>
        <time>2022-12-07T12:29:19Z</time>
      </trkpt>
      <trkpt lat="47.89414" lon="-3.90134">
        <ele>71.9</ele>
        <time>2022-12-07T12:29:20Z</time>
      </trkpt>
      <trkpt lat="47.89407" lon="-3.90132">
        <ele>71.2</ele>
        <time>2022-12-07T12:29:21Z</time>
      </trkpt>
      <trkpt lat="47.894" lon="-3.9013">
        <ele>70.3</ele>
        <time>2022-12-07T12:29:22Z</time>
      </trkpt>
      <trkpt lat="47.89392" lon="-3.90128">
        <ele>69.3</ele>
        <time>2022-12-07T12:29:23Z</time>
      </trkpt>
      <trkpt lat="47.89383" lon="-3.90126">
        <ele>68.4</ele>
        <time>2022-12-07T12:29:24Z</time>
      </trkpt>
      <trkpt lat="47.89374" lon="-3.90125">
        <ele>67.3</ele>
        <time>2022-12-07T12:29:25Z</time>
      </trkpt>
      <trkpt lat="47.89364" lon="-3.90123">
        <ele>66.1</ele>
        <time>2022-12-07T12:29:26Z</time>
      </trkpt>
      <trkpt lat="47.89353" lon="-3.90122">
        <ele>64.8</ele>
        <time>2022-12-07T12:29:27Z</time>
      </trkpt>
      <trkpt lat="47.89342" lon="-3.90121">
        <ele>63.4</ele>
        <time>2022-12-07T12:29:28Z</time>
      </trkpt>
      <trkpt lat="47.89331" lon="-3.90119">
        <ele>62</ele>
        <time>2022-12-07T12:29:29Z</time>
      </trkpt>
      <trkpt lat="47.89319" lon="-3.90118">
        <ele>60.6</ele>
        <time>2022-12-07T12:29:30Z</time>
      </trkpt>
      <trkpt lat="47.89307" lon="-3.90116">
        <ele>59.4</ele>
        <time>2022-12-07T12:29:31Z</time>
      </trkpt>
      <trkpt lat="47.89294" lon="-3.90114">
        <ele>58.5</ele>
        <time>2022-12-07T12:29:32Z</time>
      </trkpt>
      <trkpt lat="47.89281" lon="-3.90112">
        <ele>57.7</ele>
        <time>2022-12-07T12:29:33Z</time>
      </trkpt>
      <trkpt lat="47.89269" lon="-3.90111">
        <ele>57.2</ele>
        <time>2022-12-07T12:29:34Z</time>
      </trkpt>
      <trkpt lat="47.89257" lon="-3.9011">
        <ele>57</ele>
        <time>2022-12-07T12:29:35Z</time>
      </trkpt>
      <trkpt lat="47.89246" lon="-3.90108">
        <ele>57</ele>
        <time>2022-12-07T12:29:36Z</time>
      </trkpt>
      <trkpt lat="47.89236" lon="-3.90107">
        <ele>57.1</ele>
        <time>2022-12-07T12:29:37Z</time>
      </trkpt>
      <trkpt lat="47.89226" lon="-3.90106">
        <ele>57.4</ele>
        <time>2022-12-07T12:29:38Z</time>
      </trkpt>
      <trkpt lat="47.89216" lon="-3.90105">
        <ele>57.6</ele>
        <time>2022-12-07T12:29:39Z</time>
      </trkpt>
      <trkpt lat="47.89207" lon="-3.90104">
        <ele>58</ele>
        <time>2022-12-07T12:29:40Z</time>
      </trkpt>
      <trkpt lat="47.89198" lon="-3.90103">
        <ele>58.5</ele>
        <time>2022-12-07T12:29:41Z</time>
      </trkpt>
      <trkpt lat="47.89191" lon="-3.90102">
        <ele>59.1</ele>
        <time>2022-12-07T12:29:42Z</time>
      </trkpt>
      <trkpt lat="47.89183" lon="-3.90101">
        <ele>59.6</ele>
        <time>2022-12-07T12:29:43Z</time>
      </trkpt>
      <trkpt lat="47.89177" lon="-3.901">
        <ele>60.2</ele>
        <time>2022-12-07T12:29:44Z</time>
      </trkpt>
      <trkpt lat="47.89171" lon="-3.90099">
        <ele>60.7</ele>
        <time>2022-12-07T12:29:45Z</time>
      </trkpt>
      <trkpt lat="47.89165" lon="-3.90099">
        <ele>61.2</ele>
        <time>2022-12-07T12:29:46Z</time>
      </trkpt>
      <trkpt lat="47.8916" lon="-3.90098">
        <ele>61.7</ele>
        <time>2022-12-07T12:29:47Z</time>
      </trkpt>
      <trkpt lat="47.89155" lon="-3.90098">
        <ele>62.4</ele>
        <time>2022-12-07T12:29:48Z</time>
      </trkpt>
      <trkpt lat="47.8915" lon="-3.90097">
        <ele>63</ele>
        <time>2022-12-07T12:29:49Z</time>
      </trkpt>
      <trkpt lat="47.89145" lon="-3.90098">
        <ele>63.7</ele>
        <time>2022-12-07T12:29:50Z</time>
      </trkpt>
      <trkpt lat="47.8914" lon="-3.90098">
        <ele>64.3</ele>
        <time>2022-12-07T12:29:51Z</time>
      </trkpt>
      <trkpt lat="47.89136" lon="-3.90098">
        <ele>64.9</ele>
        <time>2022-12-07T12:29:52Z</time>
      </trkpt>
      <trkpt lat="47.8913" lon="-3.90098">
        <ele>65.5</ele>
        <time>2022-12-07T12:29:53Z</time>
      </trkpt>
      <trkpt lat="47.89128" lon="-3.90098">
        <ele>65.8</ele>
        <time>2022-12-07T12:29:54Z</time>
      </trkpt>
      <trkpt lat="47.89124" lon="-3.90098">
        <ele>66.2</ele>
        <time>2022-12-07T12:29:55Z</time>
      </trkpt>
      <trkpt lat="47.8912" lon="-3.90099">
        <ele>66.5</ele>
        <time>2022-12-07T12:29:56Z</time>
      </trkpt>
      <trkpt lat="47.89117" lon="-3.90099">
        <ele>66.9</ele>
        <time>2022-12-07T12:29:57Z</time>
      </trkpt>
      <trkpt lat="47.89113" lon="-3.90099">
        <ele>67.2</ele>
        <time>2022-12-07T12:29:58Z</time>
      </trkpt>
      <trkpt lat="47.8911" lon="-3.901">
        <ele>67.5</ele>
        <time>2022-12-07T12:29:59Z</time>
      </trkpt>
      <trkpt lat="47.89109" lon="-3.90101">
        <ele>67.6</ele>
        <time>2022-12-07T12:30:00Z</time>
      </trkpt>
      <trkpt lat="47.89104" lon="-3.90099">
        <ele>68</ele>
        <time>2022-12-07T12:30:01Z</time>
      </trkpt>
      <trkpt lat="47.89099" lon="-3.90099">
        <ele>68.3</ele>
        <time>2022-12-07T12:30:02Z</time>
      </trkpt>
      <trkpt lat="47.89095" lon="-3.90099">
        <ele>68.6</ele>
        <time>2022-12-07T12:30:03Z</time>
      </trkpt>
      <trkpt lat="47.89089" lon="-3.90098">
        <ele>68.9</ele>
        <time>2022-12-07T12:30:05Z</time>
      </trkpt>
      <trkpt lat="47.89084" lon="-3.90098">
        <ele>69.1</ele>
        <time>2022-12-07T12:30:06Z</time>
      </trkpt>
      <trkpt lat="47.89078" lon="-3.90098">
        <ele>69.3</ele>
        <time>2022-12-07T12:30:07Z</time>
      </trkpt>
      <trkpt lat="47.89074" lon="-3.90097">
        <ele>69.5</ele>
        <time>2022-12-07T12:30:08Z</time>
      </trkpt>
      <trkpt lat="47.89069" lon="-3.90096">
        <ele>69.6</ele>
        <time>2022-12-07T12:30:09Z</time>
      </trkpt>
      <trkpt lat="47.89066" lon="-3.90096">
        <ele>69.7</ele>
        <time>2022-12-07T12:30:10Z</time>
      </trkpt>
      <trkpt lat="47.89061" lon="-3.90096">
        <ele>69.8</ele>
        <time>2022-12-07T12:30:11Z</time>
      </trkpt>
      <trkpt lat="47.89058" lon="-3.90095">
        <ele>69.9</ele>
        <time>2022-12-07T12:30:12Z</time>
      </trkpt>
      <trkpt lat="47.89054" lon="-3.90095">
        <ele>70</ele>
        <time>2022-12-07T12:30:13Z</time>
      </trkpt>
      <trkpt lat="47.8905" lon="-3.90096">
        <ele>70.1</ele>
        <time>2022-12-07T12:30:14Z</time>
      </trkpt>
      <trkpt lat="47.89046" lon="-3.90096">
        <ele>70.1</ele>
        <time>2022-12-07T12:30:15Z</time>
      </trkpt>
      <trkpt lat="47.89041" lon="-3.90096">
        <ele>70.1</ele>
        <time>2022-12-07T12:30:16Z</time>
      </trkpt>
      <trkpt lat="47.89037" lon="-3.90096">
        <ele>70.2</ele>
        <time>2022-12-07T12:30:17Z</time>
      </trkpt>
      <trkpt lat="47.89032" lon="-3.90096">
        <ele>70.2</ele>
        <time>2022-12-07T12:30:18Z</time>
      </trkpt>
      <trkpt lat="47.89028" lon="-3.90096">
        <ele>70.2</ele>
        <time>2022-12-07T12:30:19Z</time>
      </trkpt>
      <trkpt lat="47.89023" lon="-3.90098">
        <ele>70.2</ele>
        <time>2022-12-07T12:30:20Z</time>
      </trkpt>
      <trkpt lat="47.89019" lon="-3.90099">
        <ele>70.2</ele>
        <time>2022-12-07T12:30:21Z</time>
      </trkpt>
      <trkpt lat="47.89014" lon="-3.90101">
        <ele>70.1</ele>
        <time>2022-12-07T12:30:22Z</time>
      </trkpt>
      <trkpt lat="47.89009" lon="-3.90104">
        <ele>70.1</ele>
        <time>2022-12-07T12:30:23Z</time>
      </trkpt>
      <trkpt lat="47.89005" lon="-3.90106">
        <ele>70</ele>
        <time>2022-12-07T12:30:24Z</time>
      </trkpt>
      <trkpt lat="47.89001" lon="-3.90109">
        <ele>70</ele>
        <time>2022-12-07T12:30:25Z</time>
      </trkpt>
      <trkpt lat="47.88996" lon="-3.90112">
        <ele>69.9</ele>
        <time>2022-12-07T12:30:26Z</time>
      </trkpt>
      <trkpt lat="47.88992" lon="-3.90115">
        <ele>69.8</ele>
        <time>2022-12-07T12:30:27Z</time>
      </trkpt>
      <trkpt lat="47.88987" lon="-3.90118">
        <ele>69.8</ele>
        <time>2022-12-07T12:30:28Z</time>
      </trkpt>
      <trkpt lat="47.88982" lon="-3.90121">
        <ele>69.7</ele>
        <time>2022-12-07T12:30:29Z</time>
      </trkpt>
      <trkpt lat="47.88977" lon="-3.90124">
        <ele>69.6</ele>
        <time>2022-12-07T12:30:30Z</time>
      </trkpt>
      <trkpt lat="47.88972" lon="-3.90127">
        <ele>69.4</ele>
        <time>2022-12-07T12:30:31Z</time>
      </trkpt>
      <trkpt lat="47.88967" lon="-3.9013">
        <ele>69.3</ele>
        <time>2022-12-07T12:30:32Z</time>
      </trkpt>
      <trkpt lat="47.88961" lon="-3.90132">
        <ele>69.1</ele>
        <time>2022-12-07T12:30:33Z</time>
      </trkpt>
      <trkpt lat="47.88955" lon="-3.90134">
        <ele>69</ele>
        <time>2022-12-07T12:30:34Z</time>
      </trkpt>
      <trkpt lat="47.8895" lon="-3.90136">
        <ele>68.9</ele>
        <time>2022-12-07T12:30:35Z</time>
      </trkpt>
      <trkpt lat="47.88944" lon="-3.90137">
        <ele>68.8</ele>
        <time>2022-12-07T12:30:36Z</time>
      </trkpt>
      <trkpt lat="47.88938" lon="-3.90137">
        <ele>68.7</ele>
        <time>2022-12-07T12:30:37Z</time>
      </trkpt>
      <trkpt lat="47.88932" lon="-3.90137">
        <ele>68.6</ele>
        <time>2022-12-07T12:30:38Z</time>
      </trkpt>
      <trkpt lat="47.88926" lon="-3.90138">
        <ele>68.5</ele>
        <time>2022-12-07T12:30:39Z</time>
      </trkpt>
      <trkpt lat="47.8892" lon="-3.90138">
        <ele>68.4</ele>
        <time>2022-12-07T12:30:40Z</time>
      </trkpt>
      <trkpt lat="47.88913" lon="-3.90138">
        <ele>68.3</ele>
        <time>2022-12-07T12:30:41Z</time>
      </trkpt>
      <trkpt lat="47.88908" lon="-3.90138">
        <ele>68.3</ele>
        <time>2022-12-07T12:30:42Z</time>
      </trkpt>
      <trkpt lat="47.88903" lon="-3.90139">
        <ele>68.2</ele>
        <time>2022-12-07T12:30:43Z</time>
      </trkpt>
      <trkpt lat="47.88899" lon="-3.9014">
        <ele>68.2</ele>
        <time>2022-12-07T12:30:44Z</time>
      </trkpt>
      <trkpt lat="47.88896" lon="-3.9014">
        <ele>68.2</ele>
        <time>2022-12-07T12:30:45Z</time>
      </trkpt>
      <trkpt lat="47.88895" lon="-3.90139">
        <ele>68.2</ele>
        <time>2022-12-07T12:30:46Z</time>
      </trkpt>
      <trkpt lat="47.88892" lon="-3.90135">
        <ele>68.1</ele>
        <time>2022-12-07T12:30:47Z</time>
      </trkpt>
      <trkpt lat="47.88892" lon="-3.90133">
        <ele>68.1</ele>
        <time>2022-12-07T12:30:48Z</time>
      </trkpt>
      <trkpt lat="47.8889" lon="-3.90127">
        <ele>68.1</ele>
        <time>2022-12-07T12:30:49Z</time>
      </trkpt>
      <trkpt lat="47.88889" lon="-3.90121">
        <ele>68.1</ele>
        <time>2022-12-07T12:30:50Z</time>
      </trkpt>
      <trkpt lat="47.8889" lon="-3.90108">
        <ele>68.1</ele>
        <time>2022-12-07T12:30:52Z</time>
      </trkpt>
      <trkpt lat="47.8889" lon="-3.901">
        <ele>68.1</ele>
        <time>2022-12-07T12:30:53Z</time>
      </trkpt>
      <trkpt lat="47.8889" lon="-3.90092">
        <ele>68.1</ele>
        <time>2022-12-07T12:30:54Z</time>
      </trkpt>
      <trkpt lat="47.88891" lon="-3.90085">
        <ele>68.1</ele>
        <time>2022-12-07T12:30:55Z</time>
      </trkpt>
      <trkpt lat="47.88891" lon="-3.90077">
        <ele>68.1</ele>
        <time>2022-12-07T12:30:56Z</time>
      </trkpt>
      <trkpt lat="47.88892" lon="-3.90069">
        <ele>68.1</ele>
        <time>2022-12-07T12:30:57Z</time>
      </trkpt>
      <trkpt lat="47.88892" lon="-3.90062">
        <ele>68.1</ele>
        <time>2022-12-07T12:30:58Z</time>
      </trkpt>
      <trkpt lat="47.88892" lon="-3.90054">
        <ele>68.1</ele>
        <time>2022-12-07T12:30:59Z</time>
      </trkpt>
      <trkpt lat="47.88892" lon="-3.90046">
        <ele>68.1</ele>
        <time>2022-12-07T12:31:00Z</time>
      </trkpt>
      <trkpt lat="47.88892" lon="-3.90038">
        <ele>68.1</ele>
        <time>2022-12-07T12:31:01Z</time>
      </trkpt>
      <trkpt lat="47.88892" lon="-3.9003">
        <ele>68.1</ele>
        <time>2022-12-07T12:31:02Z</time>
      </trkpt>
      <trkpt lat="47.88892" lon="-3.90022">
        <ele>68.1</ele>
        <time>2022-12-07T12:31:03Z</time>
      </trkpt>
      <trkpt lat="47.88893" lon="-3.90014">
        <ele>68.1</ele>
        <time>2022-12-07T12:31:04Z</time>
      </trkpt>
      <trkpt lat="47.88894" lon="-3.90006">
        <ele>68.1</ele>
        <time>2022-12-07T12:31:05Z</time>
      </trkpt>
      <trkpt lat="47.88894" lon="-3.89998">
        <ele>68.1</ele>
        <time>2022-12-07T12:31:06Z</time>
      </trkpt>
      <trkpt lat="47.88896" lon="-3.8999">
        <ele>68.1</ele>
        <time>2022-12-07T12:31:07Z</time>
      </trkpt>
      <trkpt lat="47.88898" lon="-3.89982">
        <ele>68.1</ele>
        <time>2022-12-07T12:31:08Z</time>
      </trkpt>
      <trkpt lat="47.88899" lon="-3.89974">
        <ele>68.1</ele>
        <time>2022-12-07T12:31:09Z</time>
      </trkpt>
      <trkpt lat="47.88901" lon="-3.89967">
        <ele>68.1</ele>
        <time>2022-12-07T12:31:10Z</time>
      </trkpt>
      <trkpt lat="47.88903" lon="-3.89959">
        <ele>68.1</ele>
        <time>2022-12-07T12:31:11Z</time>
      </trkpt>
      <trkpt lat="47.88905" lon="-3.89952">
        <ele>68.1</ele>
        <time>2022-12-07T12:31:12Z</time>
      </trkpt>
      <trkpt lat="47.88907" lon="-3.89944">
        <ele>68.1</ele>
        <time>2022-12-07T12:31:13Z</time>
      </trkpt>
      <trkpt lat="47.88909" lon="-3.89937">
        <ele>68.1</ele>
        <time>2022-12-07T12:31:14Z</time>
      </trkpt>
      <trkpt lat="47.8891" lon="-3.89929">
        <ele>68</ele>
        <time>2022-12-07T12:31:15Z</time>
      </trkpt>
      <trkpt lat="47.88911" lon="-3.89922">
        <ele>68</ele>
        <time>2022-12-07T12:31:16Z</time>
      </trkpt>
      <trkpt lat="47.88913" lon="-3.89914">
        <ele>68</ele>
        <time>2022-12-07T12:31:17Z</time>
      </trkpt>
      <trkpt lat="47.88915" lon="-3.89907">
        <ele>68</ele>
        <time>2022-12-07T12:31:18Z</time>
      </trkpt>
      <trkpt lat="47.88917" lon="-3.89899">
        <ele>68</ele>
        <time>2022-12-07T12:31:19Z</time>
      </trkpt>
      <trkpt lat="47.88919" lon="-3.89892">
        <ele>68</ele>
        <time>2022-12-07T12:31:20Z</time>
      </trkpt>
      <trkpt lat="47.88921" lon="-3.89885">
        <ele>68</ele>
        <time>2022-12-07T12:31:21Z</time>
      </trkpt>
      <trkpt lat="47.88924" lon="-3.89878">
        <ele>68</ele>
        <time>2022-12-07T12:31:22Z</time>
      </trkpt>
      <trkpt lat="47.88927" lon="-3.8987">
        <ele>67.9</ele>
        <time>2022-12-07T12:31:23Z</time>
      </trkpt>
      <trkpt lat="47.88929" lon="-3.89864">
        <ele>67.9</ele>
        <time>2022-12-07T12:31:24Z</time>
      </trkpt>
      <trkpt lat="47.88932" lon="-3.89857">
        <ele>67.8</ele>
        <time>2022-12-07T12:31:25Z</time>
      </trkpt>
      <trkpt lat="47.88934" lon="-3.8985">
        <ele>67.7</ele>
        <time>2022-12-07T12:31:26Z</time>
      </trkpt>
      <trkpt lat="47.88936" lon="-3.89842">
        <ele>67.6</ele>
        <time>2022-12-07T12:31:27Z</time>
      </trkpt>
      <trkpt lat="47.88939" lon="-3.89834">
        <ele>67.4</ele>
        <time>2022-12-07T12:31:28Z</time>
      </trkpt>
      <trkpt lat="47.88942" lon="-3.89826">
        <ele>67.2</ele>
        <time>2022-12-07T12:31:29Z</time>
      </trkpt>
      <trkpt lat="47.88945" lon="-3.89819">
        <ele>66.9</ele>
        <time>2022-12-07T12:31:30Z</time>
      </trkpt>
      <trkpt lat="47.88948" lon="-3.8981">
        <ele>66.6</ele>
        <time>2022-12-07T12:31:31Z</time>
      </trkpt>
      <trkpt lat="47.88951" lon="-3.89802">
        <ele>66.3</ele>
        <time>2022-12-07T12:31:32Z</time>
      </trkpt>
      <trkpt lat="47.88955" lon="-3.89793">
        <ele>65.8</ele>
        <time>2022-12-07T12:31:33Z</time>
      </trkpt>
      <trkpt lat="47.88958" lon="-3.89784">
        <ele>65.4</ele>
        <time>2022-12-07T12:31:34Z</time>
      </trkpt>
      <trkpt lat="47.88961" lon="-3.89775">
        <ele>64.9</ele>
        <time>2022-12-07T12:31:35Z</time>
      </trkpt>
      <trkpt lat="47.88965" lon="-3.89767">
        <ele>64.4</ele>
        <time>2022-12-07T12:31:36Z</time>
      </trkpt>
      <trkpt lat="47.8897" lon="-3.89758">
        <ele>63.8</ele>
        <time>2022-12-07T12:31:37Z</time>
      </trkpt>
      <trkpt lat="47.88975" lon="-3.89749">
        <ele>63</ele>
        <time>2022-12-07T12:31:38Z</time>
      </trkpt>
      <trkpt lat="47.88981" lon="-3.8974">
        <ele>62.2</ele>
        <time>2022-12-07T12:31:39Z</time>
      </trkpt>
      <trkpt lat="47.88988" lon="-3.89731">
        <ele>61.3</ele>
        <time>2022-12-07T12:31:40Z</time>
      </trkpt>
      <trkpt lat="47.88995" lon="-3.89722">
        <ele>60.4</ele>
        <time>2022-12-07T12:31:41Z</time>
      </trkpt>
      <trkpt lat="47.89003" lon="-3.89712">
        <ele>59.4</ele>
        <time>2022-12-07T12:31:42Z</time>
      </trkpt>
      <trkpt lat="47.89012" lon="-3.89701">
        <ele>58.3</ele>
        <time>2022-12-07T12:31:43Z</time>
      </trkpt>
      <trkpt lat="47.8902" lon="-3.89691">
        <ele>58</ele>
        <time>2022-12-07T12:31:44Z</time>
      </trkpt>
      <trkpt lat="47.89029" lon="-3.8968">
        <ele>56.7</ele>
        <time>2022-12-07T12:31:45Z</time>
      </trkpt>
      <trkpt lat="47.89039" lon="-3.8967">
        <ele>55.2</ele>
        <time>2022-12-07T12:31:46Z</time>
      </trkpt>
      <trkpt lat="47.89049" lon="-3.8966">
        <ele>53.6</ele>
        <time>2022-12-07T12:31:47Z</time>
      </trkpt>
      <trkpt lat="47.89058" lon="-3.89649">
        <ele>51.9</ele>
        <time>2022-12-07T12:31:48Z</time>
      </trkpt>
      <trkpt lat="47.89067" lon="-3.89636">
        <ele>50.1</ele>
        <time>2022-12-07T12:31:49Z</time>
      </trkpt>
      <trkpt lat="47.89076" lon="-3.89622">
        <ele>47.9</ele>
        <time>2022-12-07T12:31:50Z</time>
      </trkpt>
      <trkpt lat="47.89085" lon="-3.89609">
        <ele>45.6</ele>
        <time>2022-12-07T12:31:51Z</time>
      </trkpt>
      <trkpt lat="47.89093" lon="-3.89594">
        <ele>43.4</ele>
        <time>2022-12-07T12:31:52Z</time>
      </trkpt>
      <trkpt lat="47.89096" lon="-3.89578">
        <ele>41.4</ele>
        <time>2022-12-07T12:31:53Z</time>
      </trkpt>
      <trkpt lat="47.89096" lon="-3.8956">
        <ele>39.6</ele>
        <time>2022-12-07T12:31:54Z</time>
      </trkpt>
      <trkpt lat="47.89093" lon="-3.89541">
        <ele>37.6</ele>
        <time>2022-12-07T12:31:55Z</time>
      </trkpt>
      <trkpt lat="47.89087" lon="-3.89523">
        <ele>35.5</ele>
        <time>2022-12-07T12:31:56Z</time>
      </trkpt>
      <trkpt lat="47.89079" lon="-3.89507">
        <ele>33.2</ele>
        <time>2022-12-07T12:31:57Z</time>
      </trkpt>
      <trkpt lat="47.89072" lon="-3.89489">
        <ele>30.9</ele>
        <time>2022-12-07T12:31:58Z</time>
      </trkpt>
      <trkpt lat="47.89067" lon="-3.89469">
        <ele>29</ele>
        <time>2022-12-07T12:31:59Z</time>
      </trkpt>
      <trkpt lat="47.89062" lon="-3.89449">
        <ele>27.6</ele>
        <time>2022-12-07T12:32:00Z</time>
      </trkpt>
      <trkpt lat="47.89059" lon="-3.89428">
        <ele>26.7</ele>
        <time>2022-12-07T12:32:01Z</time>
      </trkpt>
      <trkpt lat="47.89056" lon="-3.89408">
        <ele>26.4</ele>
        <time>2022-12-07T12:32:02Z</time>
      </trkpt>
      <trkpt lat="47.89053" lon="-3.89388">
        <ele>26.7</ele>
        <time>2022-12-07T12:32:03Z</time>
      </trkpt>
      <trkpt lat="47.89052" lon="-3.89369">
        <ele>27.5</ele>
        <time>2022-12-07T12:32:04Z</time>
      </trkpt>
      <trkpt lat="47.89052" lon="-3.89353">
        <ele>28.7</ele>
        <time>2022-12-07T12:32:05Z</time>
      </trkpt>
      <trkpt lat="47.89055" lon="-3.89338">
        <ele>29.8</ele>
        <time>2022-12-07T12:32:06Z</time>
      </trkpt>
      <trkpt lat="47.8906" lon="-3.89327">
        <ele>30.9</ele>
        <time>2022-12-07T12:32:07Z</time>
      </trkpt>
      <trkpt lat="47.89064" lon="-3.89317">
        <ele>33.5</ele>
        <time>2022-12-07T12:32:08Z</time>
      </trkpt>
      <trkpt lat="47.89065" lon="-3.89307">
        <ele>35.4</ele>
        <time>2022-12-07T12:32:09Z</time>
      </trkpt>
      <trkpt lat="47.89066" lon="-3.89297">
        <ele>35.7</ele>
        <time>2022-12-07T12:32:10Z</time>
      </trkpt>
      <trkpt lat="47.89066" lon="-3.89288">
        <ele>36</ele>
        <time>2022-12-07T12:32:11Z</time>
      </trkpt>
      <trkpt lat="47.89066" lon="-3.89279">
        <ele>36.4</ele>
        <time>2022-12-07T12:32:12Z</time>
      </trkpt>
      <trkpt lat="47.89067" lon="-3.89272">
        <ele>36.9</ele>
        <time>2022-12-07T12:32:13Z</time>
      </trkpt>
      <trkpt lat="47.89067" lon="-3.89266">
        <ele>37.3</ele>
        <time>2022-12-07T12:32:14Z</time>
      </trkpt>
      <trkpt lat="47.89068" lon="-3.89261">
        <ele>37.7</ele>
        <time>2022-12-07T12:32:15Z</time>
      </trkpt>
      <trkpt lat="47.89068" lon="-3.89256">
        <ele>38.2</ele>
        <time>2022-12-07T12:32:16Z</time>
      </trkpt>
      <trkpt lat="47.89069" lon="-3.89255">
        <ele>38.3</ele>
        <time>2022-12-07T12:32:17Z</time>
      </trkpt>
      <trkpt lat="47.89069" lon="-3.89252">
        <ele>38.5</ele>
        <time>2022-12-07T12:32:18Z</time>
      </trkpt>
      <trkpt lat="47.89069" lon="-3.8925">
        <ele>38.7</ele>
        <time>2022-12-07T12:32:19Z</time>
      </trkpt>
      <trkpt lat="47.89069" lon="-3.89246">
        <ele>39.2</ele>
        <time>2022-12-07T12:32:20Z</time>
      </trkpt>
      <trkpt lat="47.8907" lon="-3.89243">
        <ele>39.4</ele>
        <time>2022-12-07T12:32:21Z</time>
      </trkpt>
      <trkpt lat="47.8907" lon="-3.89242">
        <ele>39.6</ele>
        <time>2022-12-07T12:32:22Z</time>
      </trkpt>
      <trkpt lat="47.8907" lon="-3.89239">
        <ele>39.8</ele>
        <time>2022-12-07T12:32:23Z</time>
      </trkpt>
      <trkpt lat="47.8907" lon="-3.89235">
        <ele>40.2</ele>
        <time>2022-12-07T12:32:24Z</time>
      </trkpt>
      <trkpt lat="47.8907" lon="-3.89233">
        <ele>40.4</ele>
        <time>2022-12-07T12:32:25Z</time>
      </trkpt>
      <trkpt lat="47.8907" lon="-3.89227">
        <ele>41</ele>
        <time>2022-12-07T12:32:27Z</time>
      </trkpt>
      <trkpt lat="47.89071" lon="-3.89225">
        <ele>41.2</ele>
        <time>2022-12-07T12:32:28Z</time>
      </trkpt>
      <trkpt lat="47.89071" lon="-3.89222">
        <ele>41.4</ele>
        <time>2022-12-07T12:32:29Z</time>
      </trkpt>
      <trkpt lat="47.89071" lon="-3.89218">
        <ele>41.9</ele>
        <time>2022-12-07T12:32:30Z</time>
      </trkpt>
      <trkpt lat="47.89072" lon="-3.89216">
        <ele>42</ele>
        <time>2022-12-07T12:32:31Z</time>
      </trkpt>
      <trkpt lat="47.89071" lon="-3.89211">
        <ele>42.5</ele>
        <time>2022-12-07T12:32:32Z</time>
      </trkpt>
      <trkpt lat="47.89071" lon="-3.89209">
        <ele>42.7</ele>
        <time>2022-12-07T12:32:33Z</time>
      </trkpt>
      <trkpt lat="47.8907" lon="-3.89204">
        <ele>43.2</ele>
        <time>2022-12-07T12:32:34Z</time>
      </trkpt>
      <trkpt lat="47.8907" lon="-3.89202">
        <ele>43.4</ele>
        <time>2022-12-07T12:32:35Z</time>
      </trkpt>
      <trkpt lat="47.89069" lon="-3.89198">
        <ele>43.9</ele>
        <time>2022-12-07T12:32:36Z</time>
      </trkpt>
      <trkpt lat="47.89069" lon="-3.89196">
        <ele>44</ele>
        <time>2022-12-07T12:32:37Z</time>
      </trkpt>
      <trkpt lat="47.89068" lon="-3.89192">
        <ele>44.5</ele>
        <time>2022-12-07T12:32:38Z</time>
      </trkpt>
      <trkpt lat="47.89068" lon="-3.8919">
        <ele>44.6</ele>
        <time>2022-12-07T12:32:39Z</time>
      </trkpt>
      <trkpt lat="47.89068" lon="-3.89186">
        <ele>45</ele>
        <time>2022-12-07T12:32:40Z</time>
      </trkpt>
      <trkpt lat="47.89068" lon="-3.89185">
        <ele>45.1</ele>
        <time>2022-12-07T12:32:41Z</time>
      </trkpt>
      <trkpt lat="47.89067" lon="-3.8918">
        <ele>45.6</ele>
        <time>2022-12-07T12:32:42Z</time>
      </trkpt>
      <trkpt lat="47.89067" lon="-3.89178">
        <ele>45.8</ele>
        <time>2022-12-07T12:32:43Z</time>
      </trkpt>
      <trkpt lat="47.89067" lon="-3.89176">
        <ele>46</ele>
        <time>2022-12-07T12:32:44Z</time>
      </trkpt>
      <trkpt lat="47.89067" lon="-3.89174">
        <ele>46.2</ele>
        <time>2022-12-07T12:32:45Z</time>
      </trkpt>
      <trkpt lat="47.89066" lon="-3.89171">
        <ele>46.5</ele>
        <time>2022-12-07T12:32:46Z</time>
      </trkpt>
      <trkpt lat="47.89066" lon="-3.89169">
        <ele>46.7</ele>
        <time>2022-12-07T12:32:47Z</time>
      </trkpt>
      <trkpt lat="47.89065" lon="-3.89164">
        <ele>47.1</ele>
        <time>2022-12-07T12:32:48Z</time>
      </trkpt>
      <trkpt lat="47.89065" lon="-3.89163">
        <ele>47.3</ele>
        <time>2022-12-07T12:32:49Z</time>
      </trkpt>
      <trkpt lat="47.89064" lon="-3.8916">
        <ele>47.5</ele>
        <time>2022-12-07T12:32:50Z</time>
      </trkpt>
      <trkpt lat="47.89063" lon="-3.89158">
        <ele>47.8</ele>
        <time>2022-12-07T12:32:51Z</time>
      </trkpt>
      <trkpt lat="47.89063" lon="-3.89155">
        <ele>48</ele>
        <time>2022-12-07T12:32:52Z</time>
      </trkpt>
      <trkpt lat="47.89062" lon="-3.89153">
        <ele>48.2</ele>
        <time>2022-12-07T12:32:53Z</time>
      </trkpt>
      <trkpt lat="47.89061" lon="-3.89149">
        <ele>48.7</ele>
        <time>2022-12-07T12:32:55Z</time>
      </trkpt>
      <trkpt lat="47.8906" lon="-3.89146">
        <ele>48.9</ele>
        <time>2022-12-07T12:32:56Z</time>
      </trkpt>
      <trkpt lat="47.89058" lon="-3.89142">
        <ele>49.3</ele>
        <time>2022-12-07T12:32:58Z</time>
      </trkpt>
      <trkpt lat="47.89057" lon="-3.89139">
        <ele>49.7</ele>
        <time>2022-12-07T12:32:59Z</time>
      </trkpt>
      <trkpt lat="47.89057" lon="-3.89137">
        <ele>49.9</ele>
        <time>2022-12-07T12:33:00Z</time>
      </trkpt>
      <trkpt lat="47.89056" lon="-3.89135">
        <ele>50.1</ele>
        <time>2022-12-07T12:33:01Z</time>
      </trkpt>
      <trkpt lat="47.89055" lon="-3.89133">
        <ele>50.4</ele>
        <time>2022-12-07T12:33:02Z</time>
      </trkpt>
      <trkpt lat="47.89054" lon="-3.89129">
        <ele>50.8</ele>
        <time>2022-12-07T12:33:03Z</time>
      </trkpt>
      <trkpt lat="47.89053" lon="-3.89128">
        <ele>50.9</ele>
        <time>2022-12-07T12:33:04Z</time>
      </trkpt>
      <trkpt lat="47.89052" lon="-3.89124">
        <ele>51.3</ele>
        <time>2022-12-07T12:33:05Z</time>
      </trkpt>
      <trkpt lat="47.89051" lon="-3.89123">
        <ele>51.4</ele>
        <time>2022-12-07T12:33:06Z</time>
      </trkpt>
      <trkpt lat="47.8905" lon="-3.89118">
        <ele>51.9</ele>
        <time>2022-12-07T12:33:07Z</time>
      </trkpt>
      <trkpt lat="47.89049" lon="-3.89117">
        <ele>52.1</ele>
        <time>2022-12-07T12:33:08Z</time>
      </trkpt>
      <trkpt lat="47.89048" lon="-3.89113">
        <ele>52.5</ele>
        <time>2022-12-07T12:33:09Z</time>
      </trkpt>
      <trkpt lat="47.89048" lon="-3.89112">
        <ele>52.6</ele>
        <time>2022-12-07T12:33:10Z</time>
      </trkpt>
      <trkpt lat="47.89046" lon="-3.89108">
        <ele>53</ele>
        <time>2022-12-07T12:33:11Z</time>
      </trkpt>
      <trkpt lat="47.89046" lon="-3.89107">
        <ele>53.1</ele>
        <time>2022-12-07T12:33:12Z</time>
      </trkpt>
      <trkpt lat="47.89045" lon="-3.89103">
        <ele>53.5</ele>
        <time>2022-12-07T12:33:13Z</time>
      </trkpt>
      <trkpt lat="47.89044" lon="-3.89102">
        <ele>53.7</ele>
        <time>2022-12-07T12:33:14Z</time>
      </trkpt>
      <trkpt lat="47.89043" lon="-3.89098">
        <ele>54</ele>
        <time>2022-12-07T12:33:15Z</time>
      </trkpt>
      <trkpt lat="47.89042" lon="-3.89097">
        <ele>54.2</ele>
        <time>2022-12-07T12:33:16Z</time>
      </trkpt>
      <trkpt lat="47.89041" lon="-3.89093">
        <ele>54.5</ele>
        <time>2022-12-07T12:33:17Z</time>
      </trkpt>
      <trkpt lat="47.89041" lon="-3.89092">
        <ele>54.6</ele>
        <time>2022-12-07T12:33:18Z</time>
      </trkpt>
      <trkpt lat="47.89039" lon="-3.89089">
        <ele>55</ele>
        <time>2022-12-07T12:33:19Z</time>
      </trkpt>
      <trkpt lat="47.89039" lon="-3.89087">
        <ele>55.1</ele>
        <time>2022-12-07T12:33:20Z</time>
      </trkpt>
      <trkpt lat="47.89037" lon="-3.89083">
        <ele>55.4</ele>
        <time>2022-12-07T12:33:21Z</time>
      </trkpt>
      <trkpt lat="47.89037" lon="-3.89082">
        <ele>55.6</ele>
        <time>2022-12-07T12:33:22Z</time>
      </trkpt>
      <trkpt lat="47.89035" lon="-3.89078">
        <ele>55.9</ele>
        <time>2022-12-07T12:33:23Z</time>
      </trkpt>
      <trkpt lat="47.89035" lon="-3.89077">
        <ele>56</ele>
        <time>2022-12-07T12:33:24Z</time>
      </trkpt>
      <trkpt lat="47.89033" lon="-3.89073">
        <ele>56.3</ele>
        <time>2022-12-07T12:33:25Z</time>
      </trkpt>
      <trkpt lat="47.89033" lon="-3.89072">
        <ele>56.4</ele>
        <time>2022-12-07T12:33:26Z</time>
      </trkpt>
      <trkpt lat="47.89031" lon="-3.89068">
        <ele>56.8</ele>
        <time>2022-12-07T12:33:27Z</time>
      </trkpt>
      <trkpt lat="47.89031" lon="-3.89066">
        <ele>56.9</ele>
        <time>2022-12-07T12:33:28Z</time>
      </trkpt>
      <trkpt lat="47.89031" lon="-3.89064">
        <ele>57</ele>
        <time>2022-12-07T12:33:29Z</time>
      </trkpt>
      <trkpt lat="47.89031" lon="-3.89061">
        <ele>57.2</ele>
        <time>2022-12-07T12:33:30Z</time>
      </trkpt>
      <trkpt lat="47.89031" lon="-3.89056">
        <ele>57.5</ele>
        <time>2022-12-07T12:33:32Z</time>
      </trkpt>
      <trkpt lat="47.89031" lon="-3.89055">
        <ele>57.6</ele>
        <time>2022-12-07T12:33:33Z</time>
      </trkpt>
      <trkpt lat="47.89029" lon="-3.89052">
        <ele>57.8</ele>
        <time>2022-12-07T12:33:34Z</time>
      </trkpt>
      <trkpt lat="47.89029" lon="-3.8905">
        <ele>57.9</ele>
        <time>2022-12-07T12:33:35Z</time>
      </trkpt>
      <trkpt lat="47.89028" lon="-3.89045">
        <ele>58.5</ele>
        <time>2022-12-07T12:33:36Z</time>
      </trkpt>
      <trkpt lat="47.89027" lon="-3.89042">
        <ele>58.6</ele>
        <time>2022-12-07T12:33:37Z</time>
      </trkpt>
      <trkpt lat="47.89025" lon="-3.89037">
        <ele>58.8</ele>
        <time>2022-12-07T12:33:38Z</time>
      </trkpt>
      <trkpt lat="47.89024" lon="-3.89032">
        <ele>59</ele>
        <time>2022-12-07T12:33:39Z</time>
      </trkpt>
      <trkpt lat="47.89024" lon="-3.89028">
        <ele>59.1</ele>
        <time>2022-12-07T12:33:40Z</time>
      </trkpt>
      <trkpt lat="47.89024" lon="-3.89024">
        <ele>59.3</ele>
        <time>2022-12-07T12:33:41Z</time>
      </trkpt>
      <trkpt lat="47.89024" lon="-3.8902">
        <ele>59.4</ele>
        <time>2022-12-07T12:33:42Z</time>
      </trkpt>
      <trkpt lat="47.89025" lon="-3.89015">
        <ele>59.6</ele>
        <time>2022-12-07T12:33:43Z</time>
      </trkpt>
      <trkpt lat="47.89026" lon="-3.89011">
        <ele>59.7</ele>
        <time>2022-12-07T12:33:44Z</time>
      </trkpt>
      <trkpt lat="47.89027" lon="-3.89007">
        <ele>59.8</ele>
        <time>2022-12-07T12:33:45Z</time>
      </trkpt>
      <trkpt lat="47.89028" lon="-3.89001">
        <ele>60</ele>
        <time>2022-12-07T12:33:46Z</time>
      </trkpt>
      <trkpt lat="47.89028" lon="-3.88999">
        <ele>60</ele>
        <time>2022-12-07T12:33:47Z</time>
      </trkpt>
      <trkpt lat="47.89029" lon="-3.88994">
        <ele>60.2</ele>
        <time>2022-12-07T12:33:48Z</time>
      </trkpt>
      <trkpt lat="47.8903" lon="-3.8899">
        <ele>60.3</ele>
        <time>2022-12-07T12:33:49Z</time>
      </trkpt>
      <trkpt lat="47.89031" lon="-3.88986">
        <ele>60.4</ele>
        <time>2022-12-07T12:33:50Z</time>
      </trkpt>
      <trkpt lat="47.89031" lon="-3.88981">
        <ele>60.5</ele>
        <time>2022-12-07T12:33:51Z</time>
      </trkpt>
      <trkpt lat="47.89032" lon="-3.88976">
        <ele>60.6</ele>
        <time>2022-12-07T12:33:52Z</time>
      </trkpt>
      <trkpt lat="47.89033" lon="-3.88966">
        <ele>60.8</ele>
        <time>2022-12-07T12:33:54Z</time>
      </trkpt>
      <trkpt lat="47.89033" lon="-3.88961">
        <ele>60.9</ele>
        <time>2022-12-07T12:33:55Z</time>
      </trkpt>
      <trkpt lat="47.89033" lon="-3.88956">
        <ele>61</ele>
        <time>2022-12-07T12:33:56Z</time>
      </trkpt>
      <trkpt lat="47.89034" lon="-3.88948">
        <ele>61.2</ele>
        <time>2022-12-07T12:33:57Z</time>
      </trkpt>
      <trkpt lat="47.89035" lon="-3.88941">
        <ele>61.3</ele>
        <time>2022-12-07T12:33:59Z</time>
      </trkpt>
      <trkpt lat="47.89035" lon="-3.88936">
        <ele>61.4</ele>
        <time>2022-12-07T12:34:00Z</time>
      </trkpt>
      <trkpt lat="47.89035" lon="-3.8893">
        <ele>61.6</ele>
        <time>2022-12-07T12:34:01Z</time>
      </trkpt>
      <trkpt lat="47.89035" lon="-3.88925">
        <ele>61.7</ele>
        <time>2022-12-07T12:34:02Z</time>
      </trkpt>
      <trkpt lat="47.89036" lon="-3.8892">
        <ele>61.8</ele>
        <time>2022-12-07T12:34:03Z</time>
      </trkpt>
      <trkpt lat="47.89036" lon="-3.88916">
        <ele>61.8</ele>
        <time>2022-12-07T12:34:04Z</time>
      </trkpt>
      <trkpt lat="47.89037" lon="-3.88911">
        <ele>61.9</ele>
        <time>2022-12-07T12:34:05Z</time>
      </trkpt>
      <trkpt lat="47.89037" lon="-3.88906">
        <ele>62</ele>
        <time>2022-12-07T12:34:06Z</time>
      </trkpt>
      <trkpt lat="47.89038" lon="-3.88901">
        <ele>62.1</ele>
        <time>2022-12-07T12:34:07Z</time>
      </trkpt>
      <trkpt lat="47.89039" lon="-3.88893">
        <ele>62.3</ele>
        <time>2022-12-07T12:34:09Z</time>
      </trkpt>
      <trkpt lat="47.8904" lon="-3.88889">
        <ele>62.4</ele>
        <time>2022-12-07T12:34:10Z</time>
      </trkpt>
      <trkpt lat="47.89041" lon="-3.88883">
        <ele>62.5</ele>
        <time>2022-12-07T12:34:11Z</time>
      </trkpt>
      <trkpt lat="47.89042" lon="-3.88877">
        <ele>62.6</ele>
        <time>2022-12-07T12:34:12Z</time>
      </trkpt>
      <trkpt lat="47.89042" lon="-3.88872">
        <ele>62.7</ele>
        <time>2022-12-07T12:34:13Z</time>
      </trkpt>
      <trkpt lat="47.89043" lon="-3.88862">
        <ele>62.8</ele>
        <time>2022-12-07T12:34:15Z</time>
      </trkpt>
      <trkpt lat="47.89043" lon="-3.88857">
        <ele>62.9</ele>
        <time>2022-12-07T12:34:16Z</time>
      </trkpt>
      <trkpt lat="47.89044" lon="-3.88849">
        <ele>63</ele>
        <time>2022-12-07T12:34:17Z</time>
      </trkpt>
      <trkpt lat="47.89044" lon="-3.88843">
        <ele>63.1</ele>
        <time>2022-12-07T12:34:19Z</time>
      </trkpt>
      <trkpt lat="47.89044" lon="-3.88838">
        <ele>63.1</ele>
        <time>2022-12-07T12:34:20Z</time>
      </trkpt>
      <trkpt lat="47.89045" lon="-3.8883">
        <ele>63.2</ele>
        <time>2022-12-07T12:34:21Z</time>
      </trkpt>
      <trkpt lat="47.89045" lon="-3.88825">
        <ele>63.2</ele>
        <time>2022-12-07T12:34:22Z</time>
      </trkpt>
      <trkpt lat="47.89045" lon="-3.88819">
        <ele>63.3</ele>
        <time>2022-12-07T12:34:23Z</time>
      </trkpt>
      <trkpt lat="47.89045" lon="-3.88808">
        <ele>63.4</ele>
        <time>2022-12-07T12:34:25Z</time>
      </trkpt>
      <trkpt lat="47.89046" lon="-3.88803">
        <ele>63.5</ele>
        <time>2022-12-07T12:34:26Z</time>
      </trkpt>
      <trkpt lat="47.89046" lon="-3.88797">
        <ele>63.5</ele>
        <time>2022-12-07T12:34:27Z</time>
      </trkpt>
      <trkpt lat="47.89046" lon="-3.88792">
        <ele>63.6</ele>
        <time>2022-12-07T12:34:28Z</time>
      </trkpt>
      <trkpt lat="47.89046" lon="-3.88787">
        <ele>63.7</ele>
        <time>2022-12-07T12:34:29Z</time>
      </trkpt>
      <trkpt lat="47.89047" lon="-3.8878">
        <ele>63.7</ele>
        <time>2022-12-07T12:34:30Z</time>
      </trkpt>
      <trkpt lat="47.89047" lon="-3.88775">
        <ele>63.8</ele>
        <time>2022-12-07T12:34:31Z</time>
      </trkpt>
      <trkpt lat="47.89047" lon="-3.88769">
        <ele>63.9</ele>
        <time>2022-12-07T12:34:32Z</time>
      </trkpt>
      <trkpt lat="47.89048" lon="-3.88764">
        <ele>64</ele>
        <time>2022-12-07T12:34:33Z</time>
      </trkpt>
      <trkpt lat="47.89049" lon="-3.88759">
        <ele>64</ele>
        <time>2022-12-07T12:34:34Z</time>
      </trkpt>
      <trkpt lat="47.89049" lon="-3.88753">
        <ele>64.1</ele>
        <time>2022-12-07T12:34:35Z</time>
      </trkpt>
      <trkpt lat="47.8905" lon="-3.88747">
        <ele>64.2</ele>
        <time>2022-12-07T12:34:36Z</time>
      </trkpt>
      <trkpt lat="47.8905" lon="-3.88742">
        <ele>64.3</ele>
        <time>2022-12-07T12:34:37Z</time>
      </trkpt>
      <trkpt lat="47.89051" lon="-3.88737">
        <ele>64.4</ele>
        <time>2022-12-07T12:34:38Z</time>
      </trkpt>
      <trkpt lat="47.89051" lon="-3.88731">
        <ele>64.4</ele>
        <time>2022-12-07T12:34:39Z</time>
      </trkpt>
      <trkpt lat="47.89051" lon="-3.88726">
        <ele>64.5</ele>
        <time>2022-12-07T12:34:40Z</time>
      </trkpt>
      <trkpt lat="47.89051" lon="-3.88721">
        <ele>64.6</ele>
        <time>2022-12-07T12:34:41Z</time>
      </trkpt>
      <trkpt lat="47.89052" lon="-3.88715">
        <ele>64.7</ele>
        <time>2022-12-07T12:34:42Z</time>
      </trkpt>
      <trkpt lat="47.89052" lon="-3.8871">
        <ele>64.8</ele>
        <time>2022-12-07T12:34:43Z</time>
      </trkpt>
      <trkpt lat="47.89053" lon="-3.88704">
        <ele>64.9</ele>
        <time>2022-12-07T12:34:44Z</time>
      </trkpt>
      <trkpt lat="47.89053" lon="-3.887">
        <ele>65</ele>
        <time>2022-12-07T12:34:45Z</time>
      </trkpt>
      <trkpt lat="47.89054" lon="-3.88693">
        <ele>65.2</ele>
        <time>2022-12-07T12:34:46Z</time>
      </trkpt>
      <trkpt lat="47.89054" lon="-3.88687">
        <ele>65.4</ele>
        <time>2022-12-07T12:34:47Z</time>
      </trkpt>
      <trkpt lat="47.89054" lon="-3.88684">
        <ele>65.4</ele>
        <time>2022-12-07T12:34:48Z</time>
      </trkpt>
      <trkpt lat="47.89054" lon="-3.88678">
        <ele>65.6</ele>
        <time>2022-12-07T12:34:49Z</time>
      </trkpt>
      <trkpt lat="47.89056" lon="-3.88673">
        <ele>65.7</ele>
        <time>2022-12-07T12:34:50Z</time>
      </trkpt>
      <trkpt lat="47.89056" lon="-3.88668">
        <ele>65.8</ele>
        <time>2022-12-07T12:34:51Z</time>
      </trkpt>
      <trkpt lat="47.89056" lon="-3.88663">
        <ele>65.9</ele>
        <time>2022-12-07T12:34:52Z</time>
      </trkpt>
      <trkpt lat="47.89057" lon="-3.88655">
        <ele>66.1</ele>
        <time>2022-12-07T12:34:53Z</time>
      </trkpt>
      <trkpt lat="47.89057" lon="-3.88645">
        <ele>66.3</ele>
        <time>2022-12-07T12:34:55Z</time>
      </trkpt>
      <trkpt lat="47.89057" lon="-3.8864">
        <ele>66.5</ele>
        <time>2022-12-07T12:34:56Z</time>
      </trkpt>
      <trkpt lat="47.89057" lon="-3.88635">
        <ele>66.6</ele>
        <time>2022-12-07T12:34:57Z</time>
      </trkpt>
      <trkpt lat="47.89058" lon="-3.88629">
        <ele>66.7</ele>
        <time>2022-12-07T12:34:58Z</time>
      </trkpt>
      <trkpt lat="47.89058" lon="-3.88624">
        <ele>66.8</ele>
        <time>2022-12-07T12:34:59Z</time>
      </trkpt>
      <trkpt lat="47.89059" lon="-3.88618">
        <ele>67</ele>
        <time>2022-12-07T12:35:00Z</time>
      </trkpt>
      <trkpt lat="47.8906" lon="-3.88613">
        <ele>67.1</ele>
        <time>2022-12-07T12:35:01Z</time>
      </trkpt>
      <trkpt lat="47.89062" lon="-3.88607">
        <ele>67.3</ele>
        <time>2022-12-07T12:35:02Z</time>
      </trkpt>
      <trkpt lat="47.89064" lon="-3.88602">
        <ele>67.4</ele>
        <time>2022-12-07T12:35:03Z</time>
      </trkpt>
      <trkpt lat="47.89066" lon="-3.88598">
        <ele>67.6</ele>
        <time>2022-12-07T12:35:04Z</time>
      </trkpt>
      <trkpt lat="47.89071" lon="-3.88589">
        <ele>67.9</ele>
        <time>2022-12-07T12:35:06Z</time>
      </trkpt>
      <trkpt lat="47.89073" lon="-3.88585">
        <ele>68.1</ele>
        <time>2022-12-07T12:35:07Z</time>
      </trkpt>
      <trkpt lat="47.89076" lon="-3.8858">
        <ele>68.3</ele>
        <time>2022-12-07T12:35:08Z</time>
      </trkpt>
      <trkpt lat="47.89078" lon="-3.88576">
        <ele>68.5</ele>
        <time>2022-12-07T12:35:09Z</time>
      </trkpt>
      <trkpt lat="47.89081" lon="-3.88572">
        <ele>68.6</ele>
        <time>2022-12-07T12:35:10Z</time>
      </trkpt>
      <trkpt lat="47.89083" lon="-3.88568">
        <ele>68.8</ele>
        <time>2022-12-07T12:35:11Z</time>
      </trkpt>
      <trkpt lat="47.89085" lon="-3.88564">
        <ele>69</ele>
        <time>2022-12-07T12:35:12Z</time>
      </trkpt>
      <trkpt lat="47.89088" lon="-3.88561">
        <ele>69.2</ele>
        <time>2022-12-07T12:35:13Z</time>
      </trkpt>
      <trkpt lat="47.89091" lon="-3.88557">
        <ele>69.4</ele>
        <time>2022-12-07T12:35:14Z</time>
      </trkpt>
      <trkpt lat="47.89093" lon="-3.88553">
        <ele>69.6</ele>
        <time>2022-12-07T12:35:15Z</time>
      </trkpt>
      <trkpt lat="47.89094" lon="-3.88548">
        <ele>69.8</ele>
        <time>2022-12-07T12:35:16Z</time>
      </trkpt>
      <trkpt lat="47.89095" lon="-3.88543">
        <ele>70</ele>
        <time>2022-12-07T12:35:17Z</time>
      </trkpt>
      <trkpt lat="47.89094" lon="-3.88538">
        <ele>70</ele>
        <time>2022-12-07T12:35:18Z</time>
      </trkpt>
      <trkpt lat="47.89093" lon="-3.88533">
        <ele>70</ele>
        <time>2022-12-07T12:35:19Z</time>
      </trkpt>
      <trkpt lat="47.8909" lon="-3.88528">
        <ele>70</ele>
        <time>2022-12-07T12:35:20Z</time>
      </trkpt>
      <trkpt lat="47.89088" lon="-3.88525">
        <ele>70</ele>
        <time>2022-12-07T12:35:21Z</time>
      </trkpt>
      <trkpt lat="47.89086" lon="-3.88521">
        <ele>70</ele>
        <time>2022-12-07T12:35:22Z</time>
      </trkpt>
      <trkpt lat="47.89084" lon="-3.88516">
        <ele>70</ele>
        <time>2022-12-07T12:35:23Z</time>
      </trkpt>
      <trkpt lat="47.89081" lon="-3.88511">
        <ele>70</ele>
        <time>2022-12-07T12:35:24Z</time>
      </trkpt>
      <trkpt lat="47.89077" lon="-3.88502">
        <ele>69.9</ele>
        <time>2022-12-07T12:35:26Z</time>
      </trkpt>
      <trkpt lat="47.89073" lon="-3.88496">
        <ele>69.8</ele>
        <time>2022-12-07T12:35:27Z</time>
      </trkpt>
      <trkpt lat="47.8907" lon="-3.88492">
        <ele>69.8</ele>
        <time>2022-12-07T12:35:28Z</time>
      </trkpt>
      <trkpt lat="47.89066" lon="-3.88488">
        <ele>69.8</ele>
        <time>2022-12-07T12:35:29Z</time>
      </trkpt>
      <trkpt lat="47.8906" lon="-3.88485">
        <ele>69.7</ele>
        <time>2022-12-07T12:35:30Z</time>
      </trkpt>
      <trkpt lat="47.89055" lon="-3.88481">
        <ele>69.6</ele>
        <time>2022-12-07T12:35:31Z</time>
      </trkpt>
      <trkpt lat="47.89051" lon="-3.88478">
        <ele>69.6</ele>
        <time>2022-12-07T12:35:32Z</time>
      </trkpt>
      <trkpt lat="47.89046" lon="-3.88475">
        <ele>69.6</ele>
        <time>2022-12-07T12:35:33Z</time>
      </trkpt>
      <trkpt lat="47.89042" lon="-3.88471">
        <ele>69.5</ele>
        <time>2022-12-07T12:35:34Z</time>
      </trkpt>
      <trkpt lat="47.89037" lon="-3.88467">
        <ele>69.5</ele>
        <time>2022-12-07T12:35:35Z</time>
      </trkpt>
      <trkpt lat="47.89033" lon="-3.88463">
        <ele>69.5</ele>
        <time>2022-12-07T12:35:36Z</time>
      </trkpt>
      <trkpt lat="47.8903" lon="-3.88458">
        <ele>69.4</ele>
        <time>2022-12-07T12:35:37Z</time>
      </trkpt>
      <trkpt lat="47.89028" lon="-3.88452">
        <ele>69.4</ele>
        <time>2022-12-07T12:35:38Z</time>
      </trkpt>
      <trkpt lat="47.89027" lon="-3.88444">
        <ele>69.4</ele>
        <time>2022-12-07T12:35:39Z</time>
      </trkpt>
      <trkpt lat="47.89028" lon="-3.88437">
        <ele>69.5</ele>
        <time>2022-12-07T12:35:40Z</time>
      </trkpt>
      <trkpt lat="47.8903" lon="-3.8843">
        <ele>69.6</ele>
        <time>2022-12-07T12:35:41Z</time>
      </trkpt>
      <trkpt lat="47.89033" lon="-3.88424">
        <ele>69.6</ele>
        <time>2022-12-07T12:35:42Z</time>
      </trkpt>
      <trkpt lat="47.89035" lon="-3.88418">
        <ele>69.7</ele>
        <time>2022-12-07T12:35:43Z</time>
      </trkpt>
      <trkpt lat="47.89038" lon="-3.88412">
        <ele>69.9</ele>
        <time>2022-12-07T12:35:44Z</time>
      </trkpt>
      <trkpt lat="47.8904" lon="-3.88406">
        <ele>70</ele>
        <time>2022-12-07T12:35:45Z</time>
      </trkpt>
      <trkpt lat="47.89042" lon="-3.884">
        <ele>70.2</ele>
        <time>2022-12-07T12:35:46Z</time>
      </trkpt>
      <trkpt lat="47.89045" lon="-3.88394">
        <ele>70.4</ele>
        <time>2022-12-07T12:35:47Z</time>
      </trkpt>
      <trkpt lat="47.89047" lon="-3.88389">
        <ele>70.7</ele>
        <time>2022-12-07T12:35:48Z</time>
      </trkpt>
      <trkpt lat="47.8905" lon="-3.88383">
        <ele>70.9</ele>
        <time>2022-12-07T12:35:49Z</time>
      </trkpt>
      <trkpt lat="47.89052" lon="-3.88376">
        <ele>71.2</ele>
        <time>2022-12-07T12:35:50Z</time>
      </trkpt>
      <trkpt lat="47.89053" lon="-3.88373">
        <ele>71.4</ele>
        <time>2022-12-07T12:35:51Z</time>
      </trkpt>
      <trkpt lat="47.89055" lon="-3.8837">
        <ele>71.6</ele>
        <time>2022-12-07T12:35:52Z</time>
      </trkpt>
      <trkpt lat="47.89057" lon="-3.88364">
        <ele>71.9</ele>
        <time>2022-12-07T12:35:53Z</time>
      </trkpt>
      <trkpt lat="47.89059" lon="-3.8836">
        <ele>72.1</ele>
        <time>2022-12-07T12:35:54Z</time>
      </trkpt>
      <trkpt lat="47.89062" lon="-3.88354">
        <ele>72.4</ele>
        <time>2022-12-07T12:35:55Z</time>
      </trkpt>
      <trkpt lat="47.89064" lon="-3.88352">
        <ele>72.5</ele>
        <time>2022-12-07T12:35:56Z</time>
      </trkpt>
      <trkpt lat="47.89067" lon="-3.88344">
        <ele>72.8</ele>
        <time>2022-12-07T12:35:58Z</time>
      </trkpt>
      <trkpt lat="47.89069" lon="-3.88338">
        <ele>73</ele>
        <time>2022-12-07T12:35:59Z</time>
      </trkpt>
      <trkpt lat="47.89072" lon="-3.88332">
        <ele>73.2</ele>
        <time>2022-12-07T12:36:00Z</time>
      </trkpt>
      <trkpt lat="47.89074" lon="-3.88328">
        <ele>73.4</ele>
        <time>2022-12-07T12:36:01Z</time>
      </trkpt>
      <trkpt lat="47.89075" lon="-3.88324">
        <ele>73.5</ele>
        <time>2022-12-07T12:36:02Z</time>
      </trkpt>
      <trkpt lat="47.89078" lon="-3.88313">
        <ele>73.8</ele>
        <time>2022-12-07T12:36:04Z</time>
      </trkpt>
      <trkpt lat="47.8908" lon="-3.88307">
        <ele>74</ele>
        <time>2022-12-07T12:36:05Z</time>
      </trkpt>
      <trkpt lat="47.89081" lon="-3.88303">
        <ele>74.1</ele>
        <time>2022-12-07T12:36:06Z</time>
      </trkpt>
      <trkpt lat="47.89081" lon="-3.88297">
        <ele>74.3</ele>
        <time>2022-12-07T12:36:07Z</time>
      </trkpt>
      <trkpt lat="47.89083" lon="-3.8829">
        <ele>74.4</ele>
        <time>2022-12-07T12:36:08Z</time>
      </trkpt>
      <trkpt lat="47.89084" lon="-3.88283">
        <ele>74.5</ele>
        <time>2022-12-07T12:36:10Z</time>
      </trkpt>
      <trkpt lat="47.89086" lon="-3.88275">
        <ele>74.7</ele>
        <time>2022-12-07T12:36:11Z</time>
      </trkpt>
      <trkpt lat="47.89087" lon="-3.8827">
        <ele>74.7</ele>
        <time>2022-12-07T12:36:12Z</time>
      </trkpt>
      <trkpt lat="47.89089" lon="-3.88265">
        <ele>74.8</ele>
        <time>2022-12-07T12:36:13Z</time>
      </trkpt>
      <trkpt lat="47.8909" lon="-3.8826">
        <ele>74.8</ele>
        <time>2022-12-07T12:36:14Z</time>
      </trkpt>
      <trkpt lat="47.89091" lon="-3.88254">
        <ele>74.9</ele>
        <time>2022-12-07T12:36:15Z</time>
      </trkpt>
      <trkpt lat="47.89092" lon="-3.88249">
        <ele>74.9</ele>
        <time>2022-12-07T12:36:16Z</time>
      </trkpt>
      <trkpt lat="47.89093" lon="-3.88243">
        <ele>75</ele>
        <time>2022-12-07T12:36:17Z</time>
      </trkpt>
      <trkpt lat="47.89094" lon="-3.88238">
        <ele>75</ele>
        <time>2022-12-07T12:36:18Z</time>
      </trkpt>
      <trkpt lat="47.89094" lon="-3.88232">
        <ele>75</ele>
        <time>2022-12-07T12:36:19Z</time>
      </trkpt>
      <trkpt lat="47.89095" lon="-3.88227">
        <ele>75.1</ele>
        <time>2022-12-07T12:36:20Z</time>
      </trkpt>
      <trkpt lat="47.89095" lon="-3.88222">
        <ele>75.1</ele>
        <time>2022-12-07T12:36:21Z</time>
      </trkpt>
      <trkpt lat="47.89096" lon="-3.88217">
        <ele>75.1</ele>
        <time>2022-12-07T12:36:22Z</time>
      </trkpt>
      <trkpt lat="47.89097" lon="-3.88211">
        <ele>75.1</ele>
        <time>2022-12-07T12:36:23Z</time>
      </trkpt>
      <trkpt lat="47.89099" lon="-3.88206">
        <ele>75.2</ele>
        <time>2022-12-07T12:36:24Z</time>
      </trkpt>
      <trkpt lat="47.891" lon="-3.88202">
        <ele>75.2</ele>
        <time>2022-12-07T12:36:25Z</time>
      </trkpt>
      <trkpt lat="47.89102" lon="-3.88203">
        <ele>75.2</ele>
        <time>2022-12-07T12:36:26Z</time>
      </trkpt>
      <trkpt lat="47.89102" lon="-3.88204">
        <ele>75.2</ele>
        <time>2022-12-07T12:36:27Z</time>
      </trkpt>
      <trkpt lat="47.89101" lon="-3.88204">
        <ele>75.2</ele>
        <time>2022-12-07T12:36:28Z</time>
      </trkpt>
      <trkpt lat="47.89101" lon="-3.88204">
        <ele>75.2</ele>
        <time>2022-12-07T12:36:29Z</time>
      </trkpt>
      <trkpt lat="47.89101" lon="-3.88204">
        <ele>75.2</ele>
        <time>2022-12-07T12:36:30Z</time>
      </trkpt>
      <trkpt lat="47.89101" lon="-3.88205">
        <ele>75.2</ele>
        <time>2022-12-07T12:36:31Z</time>
      </trkpt>
      <trkpt lat="47.89101" lon="-3.88205">
        <ele>75.2</ele>
        <time>2022-12-07T12:36:32Z</time>
      </trkpt>
    </trkseg>
  </trk>
</gpx>